<?xml version='1.0' encoding='UTF-8'?><gpx version="1.1" creator="JPX - https://github.com/jenetics/jpx" xmlns="http://www.topografix.com/GPX/1/1"><trk><trkseg><trkpt lat="43.3305533" lon="11.5527883"><ele>225.0</ele><time>2026-04-26T07:32:01.299Z</time></trkpt><trkpt lat="43.330485" lon="11.5527433"><ele>225.0</ele><time>2026-04-26T07:32:03.298Z</time></trkpt><trkpt lat="43.330415" lon="11.5527167"><ele>225.0</ele><time>2026-04-26T07:32:05.297Z</time></trkpt><trkpt lat="43.330355" lon="11.5527667"><ele>225.0</ele><time>2026-04-26T07:32:07.297Z</time></trkpt><trkpt lat="43.33032" lon="11.55287"><ele>225.0</ele><time>2026-04-26T07:32:10.299Z</time></trkpt><trkpt lat="43.3302867" lon="11.5529633"><ele>225.0</ele><time>2026-04-26T07:32:13.297Z</time></trkpt><trkpt lat="43.3302583" lon="11.5530867"><ele>224.2</ele><time>2026-04-26T07:33:51.296Z</time></trkpt><trkpt lat="43.33022" lon="11.553195"><ele>223.4</ele><time>2026-04-26T07:33:53.297Z</time></trkpt><trkpt lat="43.3301717" lon="11.5533267"><ele>222.60000000000002</ele><time>2026-04-26T07:33:55.299Z</time></trkpt><trkpt lat="43.33011" lon="11.5534733"><ele>221.8</ele><time>2026-04-26T07:33:57.299Z</time></trkpt><trkpt lat="43.3300767" lon="11.5535567"><ele>221.0</ele><time>2026-04-26T07:33:58.298Z</time></trkpt><trkpt lat="43.330035" lon="11.5536483"><ele>221.8</ele><time>2026-04-26T07:33:59.299Z</time></trkpt><trkpt lat="43.3299867" lon="11.55375"><ele>222.60000000000002</ele><time>2026-04-26T07:34:00.298Z</time></trkpt><trkpt lat="43.329935" lon="11.5538517"><ele>223.4</ele><time>2026-04-26T07:34:01.298Z</time></trkpt><trkpt lat="43.3298783" lon="11.5539517"><ele>224.2</ele><time>2026-04-26T07:34:02.3Z</time></trkpt><trkpt lat="43.32982" lon="11.55405"><ele>225.0</ele><time>2026-04-26T07:34:03.298Z</time></trkpt><trkpt lat="43.3297633" lon="11.5541517"><ele>224.4</ele><time>2026-04-26T07:34:04.298Z</time></trkpt><trkpt lat="43.3297067" lon="11.5542583"><ele>223.8</ele><time>2026-04-26T07:34:05.298Z</time></trkpt><trkpt lat="43.3296483" lon="11.55437"><ele>223.2</ele><time>2026-04-26T07:34:06.298Z</time></trkpt><trkpt lat="43.3295867" lon="11.5544867"><ele>222.6</ele><time>2026-04-26T07:34:07.298Z</time></trkpt><trkpt lat="43.3295233" lon="11.5546033"><ele>222.0</ele><time>2026-04-26T07:34:08.3Z</time></trkpt><trkpt lat="43.3294633" lon="11.55473"><ele>222.0</ele><time>2026-04-26T07:34:09.299Z</time></trkpt><trkpt lat="43.329405" lon="11.5548617"><ele>222.0</ele><time>2026-04-26T07:34:10.298Z</time></trkpt><trkpt lat="43.3293483" lon="11.5549933"><ele>222.0</ele><time>2026-04-26T07:34:11.299Z</time></trkpt><trkpt lat="43.32929" lon="11.55513"><ele>222.0</ele><time>2026-04-26T07:34:12.298Z</time></trkpt><trkpt lat="43.3292283" lon="11.555265"><ele>222.5</ele><time>2026-04-26T07:34:13.298Z</time></trkpt><trkpt lat="43.32917" lon="11.5554033"><ele>223.0</ele><time>2026-04-26T07:34:14.299Z</time></trkpt><trkpt lat="43.3291083" lon="11.555545"><ele>223.5</ele><time>2026-04-26T07:34:15.298Z</time></trkpt><trkpt lat="43.32904" lon="11.5556883"><ele>224.0</ele><time>2026-04-26T07:34:16.299Z</time></trkpt><trkpt lat="43.3289683" lon="11.5558333"><ele>224.0</ele><time>2026-04-26T07:34:17.296Z</time></trkpt><trkpt lat="43.3288983" lon="11.5559817"><ele>224.0</ele><time>2026-04-26T07:34:18.296Z</time></trkpt><trkpt lat="43.3288283" lon="11.5561267"><ele>224.0</ele><time>2026-04-26T07:34:19.296Z</time></trkpt><trkpt lat="43.32876" lon="11.5562717"><ele>224.0</ele><time>2026-04-26T07:34:20.297Z</time></trkpt><trkpt lat="43.3286917" lon="11.5564133"><ele>222.0</ele><time>2026-04-26T07:34:21.297Z</time></trkpt><trkpt lat="43.3286233" lon="11.5565517"><ele>220.0</ele><time>2026-04-26T07:34:22.297Z</time></trkpt><trkpt lat="43.3285583" lon="11.5566883"><ele>218.0</ele><time>2026-04-26T07:34:23.298Z</time></trkpt><trkpt lat="43.3284967" lon="11.5568317"><ele>216.0</ele><time>2026-04-26T07:34:24.299Z</time></trkpt><trkpt lat="43.32844" lon="11.5569767"><ele>216.0</ele><time>2026-04-26T07:34:25.299Z</time></trkpt><trkpt lat="43.3283917" lon="11.55713"><ele>216.0</ele><time>2026-04-26T07:34:26.299Z</time></trkpt><trkpt lat="43.32835" lon="11.55729"><ele>216.0</ele><time>2026-04-26T07:34:27.299Z</time></trkpt><trkpt lat="43.3283117" lon="11.557455"><ele>216.0</ele><time>2026-04-26T07:34:28.299Z</time></trkpt><trkpt lat="43.32828" lon="11.55762"><ele>216.0</ele><time>2026-04-26T07:34:29.299Z</time></trkpt><trkpt lat="43.3282517" lon="11.5577867"><ele>216.0</ele><time>2026-04-26T07:34:30.298Z</time></trkpt><trkpt lat="43.3282233" lon="11.5579517"><ele>216.0</ele><time>2026-04-26T07:34:31.299Z</time></trkpt><trkpt lat="43.328195" lon="11.5581167"><ele>216.0</ele><time>2026-04-26T07:34:32.297Z</time></trkpt><trkpt lat="43.3281683" lon="11.5582817"><ele>215.75</ele><time>2026-04-26T07:34:33.299Z</time></trkpt><trkpt lat="43.3281383" lon="11.55845"><ele>215.5</ele><time>2026-04-26T07:34:34.299Z</time></trkpt><trkpt lat="43.3281133" lon="11.5586217"><ele>215.25</ele><time>2026-04-26T07:34:35.297Z</time></trkpt><trkpt lat="43.3280883" lon="11.5587983"><ele>215.0</ele><time>2026-04-26T07:34:36.298Z</time></trkpt><trkpt lat="43.328065" lon="11.558975"><ele>214.75</ele><time>2026-04-26T07:34:37.298Z</time></trkpt><trkpt lat="43.328045" lon="11.5591517"><ele>214.5</ele><time>2026-04-26T07:34:38.298Z</time></trkpt><trkpt lat="43.32803" lon="11.559325"><ele>214.25</ele><time>2026-04-26T07:34:39.299Z</time></trkpt><trkpt lat="43.3280117" lon="11.5595067"><ele>214.0</ele><time>2026-04-26T07:34:40.298Z</time></trkpt><trkpt lat="43.32799" lon="11.5596867"><ele>213.5</ele><time>2026-04-26T07:34:41.298Z</time></trkpt><trkpt lat="43.3279633" lon="11.559865"><ele>213.0</ele><time>2026-04-26T07:34:42.297Z</time></trkpt><trkpt lat="43.327935" lon="11.5600417"><ele>212.5</ele><time>2026-04-26T07:34:43.296Z</time></trkpt><trkpt lat="43.3279" lon="11.5602167"><ele>212.0</ele><time>2026-04-26T07:34:44.3Z</time></trkpt><trkpt lat="43.3278617" lon="11.56039"><ele>212.0</ele><time>2026-04-26T07:34:45.296Z</time></trkpt><trkpt lat="43.3278217" lon="11.5605617"><ele>212.0</ele><time>2026-04-26T07:34:46.298Z</time></trkpt><trkpt lat="43.3277817" lon="11.560735"><ele>212.0</ele><time>2026-04-26T07:34:47.297Z</time></trkpt><trkpt lat="43.327745" lon="11.5609033"><ele>212.0</ele><time>2026-04-26T07:34:48.295Z</time></trkpt><trkpt lat="43.3277067" lon="11.5610717"><ele>212.75</ele><time>2026-04-26T07:34:49.297Z</time></trkpt><trkpt lat="43.3276667" lon="11.56124"><ele>213.5</ele><time>2026-04-26T07:34:50.296Z</time></trkpt><trkpt lat="43.3276317" lon="11.5614083"><ele>214.25</ele><time>2026-04-26T07:34:51.296Z</time></trkpt><trkpt lat="43.3276033" lon="11.5615783"><ele>215.0</ele><time>2026-04-26T07:34:52.298Z</time></trkpt><trkpt lat="43.327585" lon="11.5617533"><ele>215.0</ele><time>2026-04-26T07:34:53.297Z</time></trkpt><trkpt lat="43.3275817" lon="11.561925"><ele>215.0</ele><time>2026-04-26T07:34:54.297Z</time></trkpt><trkpt lat="43.32759" lon="11.5620867"><ele>215.0</ele><time>2026-04-26T07:34:55.3Z</time></trkpt><trkpt lat="43.32762" lon="11.5622367"><ele>215.0</ele><time>2026-04-26T07:34:56.298Z</time></trkpt><trkpt lat="43.3276567" lon="11.56237"><ele>215.50000000000003</ele><time>2026-04-26T07:34:57.298Z</time></trkpt><trkpt lat="43.3276967" lon="11.5624933"><ele>216.0</ele><time>2026-04-26T07:34:58.298Z</time></trkpt><trkpt lat="43.3277283" lon="11.5626067"><ele>216.5</ele><time>2026-04-26T07:34:59.299Z</time></trkpt><trkpt lat="43.3277483" lon="11.562715"><ele>217.0</ele><time>2026-04-26T07:35:00.299Z</time></trkpt><trkpt lat="43.3277583" lon="11.562825"><ele>217.50000000000003</ele><time>2026-04-26T07:35:01.298Z</time></trkpt><trkpt lat="43.3277467" lon="11.5629367"><ele>218.0</ele><time>2026-04-26T07:35:02.298Z</time></trkpt><trkpt lat="43.3277067" lon="11.563045"><ele>218.2</ele><time>2026-04-26T07:35:03.296Z</time></trkpt><trkpt lat="43.3276433" lon="11.563135"><ele>218.4</ele><time>2026-04-26T07:35:04.3Z</time></trkpt><trkpt lat="43.327555" lon="11.5632083"><ele>218.59999999999997</ele><time>2026-04-26T07:35:05.298Z</time></trkpt><trkpt lat="43.3274367" lon="11.56325"><ele>218.79999999999998</ele><time>2026-04-26T07:35:06.298Z</time></trkpt><trkpt lat="43.3273267" lon="11.5632833"><ele>219.0</ele><time>2026-04-26T07:35:07.298Z</time></trkpt><trkpt lat="43.32721" lon="11.563315"><ele>219.0</ele><time>2026-04-26T07:35:08.3Z</time></trkpt><trkpt lat="43.32709" lon="11.5633467"><ele>219.0</ele><time>2026-04-26T07:35:09.3Z</time></trkpt><trkpt lat="43.3269617" lon="11.5633867"><ele>219.0</ele><time>2026-04-26T07:35:10.3Z</time></trkpt><trkpt lat="43.3268267" lon="11.5634217"><ele>219.0</ele><time>2026-04-26T07:35:11.299Z</time></trkpt><trkpt lat="43.3266883" lon="11.5634617"><ele>219.0</ele><time>2026-04-26T07:35:12.298Z</time></trkpt><trkpt lat="43.32655" lon="11.5634983"><ele>219.0</ele><time>2026-04-26T07:35:13.299Z</time></trkpt><trkpt lat="43.3264067" lon="11.5635417"><ele>219.0</ele><time>2026-04-26T07:35:14.297Z</time></trkpt><trkpt lat="43.3262667" lon="11.56358"><ele>219.0</ele><time>2026-04-26T07:35:15.299Z</time></trkpt><trkpt lat="43.326135" lon="11.5636167"><ele>219.0</ele><time>2026-04-26T07:35:16.298Z</time></trkpt><trkpt lat="43.3260167" lon="11.563665"><ele>219.0</ele><time>2026-04-26T07:35:17.296Z</time></trkpt><trkpt lat="43.3259067" lon="11.56373"><ele>219.0</ele><time>2026-04-26T07:35:18.296Z</time></trkpt><trkpt lat="43.3258067" lon="11.56381"><ele>219.0</ele><time>2026-04-26T07:35:19.297Z</time></trkpt><trkpt lat="43.3257133" lon="11.5639183"><ele>219.0</ele><time>2026-04-26T07:35:20.297Z</time></trkpt><trkpt lat="43.3256267" lon="11.5640417"><ele>219.0</ele><time>2026-04-26T07:35:21.296Z</time></trkpt><trkpt lat="43.3255417" lon="11.5641817"><ele>219.0</ele><time>2026-04-26T07:35:22.296Z</time></trkpt><trkpt lat="43.32546" lon="11.5643217"><ele>219.0</ele><time>2026-04-26T07:35:23.298Z</time></trkpt><trkpt lat="43.3253817" lon="11.5644617"><ele>219.75</ele><time>2026-04-26T07:35:24.3Z</time></trkpt><trkpt lat="43.32531" lon="11.5646133"><ele>220.5</ele><time>2026-04-26T07:35:25.296Z</time></trkpt><trkpt lat="43.3252533" lon="11.56478"><ele>221.25</ele><time>2026-04-26T07:35:26.299Z</time></trkpt><trkpt lat="43.3252083" lon="11.56495"><ele>222.0</ele><time>2026-04-26T07:35:27.3Z</time></trkpt><trkpt lat="43.325175" lon="11.56513"><ele>222.0</ele><time>2026-04-26T07:35:28.296Z</time></trkpt><trkpt lat="43.3251567" lon="11.56532"><ele>222.0</ele><time>2026-04-26T07:35:29.298Z</time></trkpt><trkpt lat="43.3251417" lon="11.5655133"><ele>222.0</ele><time>2026-04-26T07:35:30.301Z</time></trkpt><trkpt lat="43.3251317" lon="11.565705"><ele>222.0</ele><time>2026-04-26T07:35:31.299Z</time></trkpt><trkpt lat="43.3251233" lon="11.5658967"><ele>222.25</ele><time>2026-04-26T07:35:32.297Z</time></trkpt><trkpt lat="43.3251083" lon="11.5660867"><ele>222.5</ele><time>2026-04-26T07:35:33.296Z</time></trkpt><trkpt lat="43.3250833" lon="11.566275"><ele>222.75</ele><time>2026-04-26T07:35:34.296Z</time></trkpt><trkpt lat="43.325045" lon="11.5664617"><ele>223.0</ele><time>2026-04-26T07:35:35.297Z</time></trkpt><trkpt lat="43.3250017" lon="11.5666433"><ele>223.0</ele><time>2026-04-26T07:35:36.295Z</time></trkpt><trkpt lat="43.3249483" lon="11.5668217"><ele>223.0</ele><time>2026-04-26T07:35:37.298Z</time></trkpt><trkpt lat="43.3248917" lon="11.5670033"><ele>223.0</ele><time>2026-04-26T07:35:38.297Z</time></trkpt><trkpt lat="43.3248317" lon="11.5671883"><ele>223.0</ele><time>2026-04-26T07:35:39.297Z</time></trkpt><trkpt lat="43.3247717" lon="11.5673717"><ele>220.75</ele><time>2026-04-26T07:35:40.296Z</time></trkpt><trkpt lat="43.3247133" lon="11.56755"><ele>218.5</ele><time>2026-04-26T07:35:41.299Z</time></trkpt><trkpt lat="43.3246583" lon="11.5677233"><ele>216.25</ele><time>2026-04-26T07:35:42.3Z</time></trkpt><trkpt lat="43.3245967" lon="11.567885"><ele>214.0</ele><time>2026-04-26T07:35:43.3Z</time></trkpt><trkpt lat="43.324525" lon="11.5680333"><ele>213.25</ele><time>2026-04-26T07:35:44.299Z</time></trkpt><trkpt lat="43.3244383" lon="11.568165"><ele>212.5</ele><time>2026-04-26T07:35:45.299Z</time></trkpt><trkpt lat="43.3243383" lon="11.5682817"><ele>211.75</ele><time>2026-04-26T07:35:46.301Z</time></trkpt><trkpt lat="43.3242267" lon="11.5683817"><ele>211.0</ele><time>2026-04-26T07:35:47.3Z</time></trkpt><trkpt lat="43.3241083" lon="11.5684817"><ele>211.0</ele><time>2026-04-26T07:35:48.299Z</time></trkpt><trkpt lat="43.32399" lon="11.56858"><ele>211.0</ele><time>2026-04-26T07:35:49.299Z</time></trkpt><trkpt lat="43.3238717" lon="11.56868"><ele>211.0</ele><time>2026-04-26T07:35:50.3Z</time></trkpt><trkpt lat="43.32375" lon="11.5687783"><ele>211.0</ele><time>2026-04-26T07:35:51.299Z</time></trkpt><trkpt lat="43.3236283" lon="11.5688783"><ele>211.0</ele><time>2026-04-26T07:35:52.296Z</time></trkpt><trkpt lat="43.323505" lon="11.56898"><ele>211.0</ele><time>2026-04-26T07:35:53.299Z</time></trkpt><trkpt lat="43.3233783" lon="11.5690717"><ele>211.0</ele><time>2026-04-26T07:35:54.299Z</time></trkpt><trkpt lat="43.3232467" lon="11.5691367"><ele>211.0</ele><time>2026-04-26T07:35:55.3Z</time></trkpt><trkpt lat="43.32311" lon="11.5691833"><ele>210.0</ele><time>2026-04-26T07:35:56.298Z</time></trkpt><trkpt lat="43.3229633" lon="11.5692183"><ele>209.0</ele><time>2026-04-26T07:35:57.298Z</time></trkpt><trkpt lat="43.3228183" lon="11.5692517"><ele>208.0</ele><time>2026-04-26T07:35:58.299Z</time></trkpt><trkpt lat="43.322675" lon="11.5692817"><ele>207.0</ele><time>2026-04-26T07:35:59.298Z</time></trkpt><trkpt lat="43.3225333" lon="11.5693083"><ele>207.0</ele><time>2026-04-26T07:36:00.298Z</time></trkpt><trkpt lat="43.3223933" lon="11.569335"><ele>207.0</ele><time>2026-04-26T07:36:01.298Z</time></trkpt><trkpt lat="43.3222533" lon="11.569365"><ele>207.0</ele><time>2026-04-26T07:36:02.298Z</time></trkpt><trkpt lat="43.3221133" lon="11.5693917"><ele>207.0</ele><time>2026-04-26T07:36:03.296Z</time></trkpt><trkpt lat="43.3219733" lon="11.569425"><ele>206.75</ele><time>2026-04-26T07:36:04.3Z</time></trkpt><trkpt lat="43.3218267" lon="11.56946"><ele>206.5</ele><time>2026-04-26T07:36:05.298Z</time></trkpt><trkpt lat="43.3216833" lon="11.56949"><ele>206.25</ele><time>2026-04-26T07:36:06.299Z</time></trkpt><trkpt lat="43.3215483" lon="11.5695317"><ele>206.0</ele><time>2026-04-26T07:36:07.299Z</time></trkpt><trkpt lat="43.3214233" lon="11.569585"><ele>206.0</ele><time>2026-04-26T07:36:08.3Z</time></trkpt><trkpt lat="43.321305" lon="11.569665"><ele>206.0</ele><time>2026-04-26T07:36:09.295Z</time></trkpt><trkpt lat="43.321195" lon="11.56977"><ele>206.0</ele><time>2026-04-26T07:36:10.3Z</time></trkpt><trkpt lat="43.3210883" lon="11.5698933"><ele>206.0</ele><time>2026-04-26T07:36:11.298Z</time></trkpt><trkpt lat="43.3209833" lon="11.5700283"><ele>206.0</ele><time>2026-04-26T07:36:12.296Z</time></trkpt><trkpt lat="43.320875" lon="11.57017"><ele>206.0</ele><time>2026-04-26T07:36:13.299Z</time></trkpt><trkpt lat="43.3207633" lon="11.5703133"><ele>206.0</ele><time>2026-04-26T07:36:14.3Z</time></trkpt><trkpt lat="43.3206517" lon="11.5704633"><ele>206.0</ele><time>2026-04-26T07:36:15.298Z</time></trkpt><trkpt lat="43.3205367" lon="11.5706217"><ele>206.0</ele><time>2026-04-26T07:36:16.298Z</time></trkpt><trkpt lat="43.32042" lon="11.57078"><ele>206.0</ele><time>2026-04-26T07:36:17.299Z</time></trkpt><trkpt lat="43.3202983" lon="11.5709417"><ele>206.0</ele><time>2026-04-26T07:36:18.298Z</time></trkpt><trkpt lat="43.3201733" lon="11.5711083"><ele>206.0</ele><time>2026-04-26T07:36:19.298Z</time></trkpt><trkpt lat="43.3200517" lon="11.5712633"><ele>206.0</ele><time>2026-04-26T07:36:20.3Z</time></trkpt><trkpt lat="43.319935" lon="11.5714133"><ele>206.5</ele><time>2026-04-26T07:36:21.298Z</time></trkpt><trkpt lat="43.3198233" lon="11.57156"><ele>207.0</ele><time>2026-04-26T07:36:22.299Z</time></trkpt><trkpt lat="43.31972" lon="11.5716983"><ele>207.5</ele><time>2026-04-26T07:36:23.3Z</time></trkpt><trkpt lat="43.3196217" lon="11.5718217"><ele>208.0</ele><time>2026-04-26T07:36:24.298Z</time></trkpt><trkpt lat="43.3195233" lon="11.5719433"><ele>207.25</ele><time>2026-04-26T07:36:25.3Z</time></trkpt><trkpt lat="43.3194217" lon="11.57206"><ele>206.5</ele><time>2026-04-26T07:36:26.299Z</time></trkpt><trkpt lat="43.3193133" lon="11.57217"><ele>205.75</ele><time>2026-04-26T07:36:27.299Z</time></trkpt><trkpt lat="43.3192" lon="11.5722733"><ele>205.0</ele><time>2026-04-26T07:36:28.299Z</time></trkpt><trkpt lat="43.319075" lon="11.5723583"><ele>205.0</ele><time>2026-04-26T07:36:29.298Z</time></trkpt><trkpt lat="43.3189467" lon="11.57243"><ele>205.0</ele><time>2026-04-26T07:36:30.298Z</time></trkpt><trkpt lat="43.318815" lon="11.5724833"><ele>205.0</ele><time>2026-04-26T07:36:31.297Z</time></trkpt><trkpt lat="43.3186867" lon="11.572535"><ele>205.0</ele><time>2026-04-26T07:36:32.297Z</time></trkpt><trkpt lat="43.31856" lon="11.572595"><ele>205.66666666666666</ele><time>2026-04-26T07:36:33.299Z</time></trkpt><trkpt lat="43.3184233" lon="11.572675"><ele>206.33333333333331</ele><time>2026-04-26T07:36:34.298Z</time></trkpt><trkpt lat="43.3182967" lon="11.5727967"><ele>207.0</ele><time>2026-04-26T07:36:35.3Z</time></trkpt><trkpt lat="43.3181833" lon="11.5729383"><ele>207.66666666666669</ele><time>2026-04-26T07:36:36.298Z</time></trkpt><trkpt lat="43.3180717" lon="11.5730817"><ele>208.33333333333334</ele><time>2026-04-26T07:36:37.299Z</time></trkpt><trkpt lat="43.3179617" lon="11.573225"><ele>209.0</ele><time>2026-04-26T07:36:38.299Z</time></trkpt><trkpt lat="43.3178533" lon="11.573365"><ele>209.0</ele><time>2026-04-26T07:36:39.299Z</time></trkpt><trkpt lat="43.3177467" lon="11.5735017"><ele>209.0</ele><time>2026-04-26T07:36:40.299Z</time></trkpt><trkpt lat="43.31764" lon="11.573635"><ele>209.0</ele><time>2026-04-26T07:36:41.298Z</time></trkpt><trkpt lat="43.3175333" lon="11.573775"><ele>209.0</ele><time>2026-04-26T07:36:42.295Z</time></trkpt><trkpt lat="43.3174267" lon="11.5739117"><ele>209.25</ele><time>2026-04-26T07:36:43.298Z</time></trkpt><trkpt lat="43.3173217" lon="11.5740533"><ele>209.5</ele><time>2026-04-26T07:36:44.299Z</time></trkpt><trkpt lat="43.3172167" lon="11.5741917"><ele>209.75</ele><time>2026-04-26T07:36:45.299Z</time></trkpt><trkpt lat="43.3171183" lon="11.5743233"><ele>210.0</ele><time>2026-04-26T07:36:46.3Z</time></trkpt><trkpt lat="43.31702" lon="11.5744517"><ele>211.5</ele><time>2026-04-26T07:36:47.298Z</time></trkpt><trkpt lat="43.31692" lon="11.57458"><ele>213.0</ele><time>2026-04-26T07:36:48.298Z</time></trkpt><trkpt lat="43.3168183" lon="11.5747083"><ele>214.5</ele><time>2026-04-26T07:36:49.3Z</time></trkpt><trkpt lat="43.3167133" lon="11.5748367"><ele>216.0</ele><time>2026-04-26T07:36:50.3Z</time></trkpt><trkpt lat="43.31661" lon="11.5749617"><ele>216.0</ele><time>2026-04-26T07:36:51.298Z</time></trkpt><trkpt lat="43.3165083" lon="11.5750867"><ele>216.0</ele><time>2026-04-26T07:36:52.297Z</time></trkpt><trkpt lat="43.3164083" lon="11.5752083"><ele>216.0</ele><time>2026-04-26T07:36:53.297Z</time></trkpt><trkpt lat="43.3163067" lon="11.5753283"><ele>216.0</ele><time>2026-04-26T07:36:54.296Z</time></trkpt><trkpt lat="43.31621" lon="11.5754433"><ele>212.75</ele><time>2026-04-26T07:36:55.297Z</time></trkpt><trkpt lat="43.316115" lon="11.5755567"><ele>209.5</ele><time>2026-04-26T07:36:56.297Z</time></trkpt><trkpt lat="43.3160233" lon="11.575665"><ele>206.25</ele><time>2026-04-26T07:36:57.296Z</time></trkpt><trkpt lat="43.315935" lon="11.5757717"><ele>203.0</ele><time>2026-04-26T07:36:58.297Z</time></trkpt><trkpt lat="43.315845" lon="11.5758733"><ele>203.0</ele><time>2026-04-26T07:36:59.297Z</time></trkpt><trkpt lat="43.315755" lon="11.57598"><ele>203.0</ele><time>2026-04-26T07:37:00.299Z</time></trkpt><trkpt lat="43.315665" lon="11.5760833"><ele>203.0</ele><time>2026-04-26T07:37:01.298Z</time></trkpt><trkpt lat="43.315575" lon="11.5761883"><ele>203.0</ele><time>2026-04-26T07:37:02.299Z</time></trkpt><trkpt lat="43.3154883" lon="11.576295"><ele>202.8</ele><time>2026-04-26T07:37:03.299Z</time></trkpt><trkpt lat="43.3154083" lon="11.5763967"><ele>202.60000000000002</ele><time>2026-04-26T07:37:04.3Z</time></trkpt><trkpt lat="43.3153367" lon="11.5764933"><ele>202.39999999999998</ele><time>2026-04-26T07:37:05.298Z</time></trkpt><trkpt lat="43.3152733" lon="11.5765817"><ele>202.2</ele><time>2026-04-26T07:37:06.297Z</time></trkpt><trkpt lat="43.3152183" lon="11.5766567"><ele>202.0</ele><time>2026-04-26T07:37:07.298Z</time></trkpt><trkpt lat="43.31512" lon="11.5767317"><ele>202.0</ele><time>2026-04-26T07:37:09.3Z</time></trkpt><trkpt lat="43.315025" lon="11.5766917"><ele>202.0</ele><time>2026-04-26T07:37:11.299Z</time></trkpt><trkpt lat="43.3149317" lon="11.57658"><ele>202.0</ele><time>2026-04-26T07:37:13.298Z</time></trkpt><trkpt lat="43.314885" lon="11.5765217"><ele>202.0</ele><time>2026-04-26T07:37:14.3Z</time></trkpt><trkpt lat="43.3148033" lon="11.5764133"><ele>202.0</ele><time>2026-04-26T07:37:16.297Z</time></trkpt><trkpt lat="43.3147317" lon="11.576295"><ele>202.0</ele><time>2026-04-26T07:37:18.298Z</time></trkpt><trkpt lat="43.314705" lon="11.5761517"><ele>202.0</ele><time>2026-04-26T07:37:20.296Z</time></trkpt><trkpt lat="43.3147583" lon="11.5759817"><ele>202.0</ele><time>2026-04-26T07:37:22.297Z</time></trkpt><trkpt lat="43.3148217" lon="11.5758917"><ele>202.0</ele><time>2026-04-26T07:37:23.298Z</time></trkpt><trkpt lat="43.314895" lon="11.5758133"><ele>202.0</ele><time>2026-04-26T07:37:24.299Z</time></trkpt><trkpt lat="43.314965" lon="11.5757283"><ele>202.0</ele><time>2026-04-26T07:37:25.299Z</time></trkpt><trkpt lat="43.3150333" lon="11.5756417"><ele>202.0</ele><time>2026-04-26T07:37:26.299Z</time></trkpt><trkpt lat="43.3151" lon="11.57555"><ele>202.0</ele><time>2026-04-26T07:37:27.301Z</time></trkpt><trkpt lat="43.3151733" lon="11.575465"><ele>202.0</ele><time>2026-04-26T07:37:28.299Z</time></trkpt><trkpt lat="43.31525" lon="11.5753783"><ele>202.0</ele><time>2026-04-26T07:37:29.298Z</time></trkpt><trkpt lat="43.3153283" lon="11.5752883"><ele>201.8</ele><time>2026-04-26T07:37:30.3Z</time></trkpt><trkpt lat="43.315405" lon="11.5752033"><ele>201.6</ele><time>2026-04-26T07:37:31.3Z</time></trkpt><trkpt lat="43.3154833" lon="11.57512"><ele>201.4</ele><time>2026-04-26T07:37:32.297Z</time></trkpt><trkpt lat="43.3155617" lon="11.575035"><ele>201.20000000000002</ele><time>2026-04-26T07:37:33.3Z</time></trkpt><trkpt lat="43.3156333" lon="11.57495"><ele>201.0</ele><time>2026-04-26T07:37:34.299Z</time></trkpt><trkpt lat="43.315705" lon="11.5748717"><ele>201.60000000000002</ele><time>2026-04-26T07:37:35.299Z</time></trkpt><trkpt lat="43.3157767" lon="11.5747967"><ele>202.2</ele><time>2026-04-26T07:37:36.296Z</time></trkpt><trkpt lat="43.3158483" lon="11.5747317"><ele>202.8</ele><time>2026-04-26T07:37:37.298Z</time></trkpt><trkpt lat="43.315915" lon="11.5746517"><ele>203.39999999999998</ele><time>2026-04-26T07:37:38.297Z</time></trkpt><trkpt lat="43.3159833" lon="11.5745633"><ele>204.0</ele><time>2026-04-26T07:37:39.299Z</time></trkpt><trkpt lat="43.31605" lon="11.5744717"><ele>204.0</ele><time>2026-04-26T07:37:40.298Z</time></trkpt><trkpt lat="43.3161183" lon="11.5743767"><ele>204.0</ele><time>2026-04-26T07:37:41.299Z</time></trkpt><trkpt lat="43.316185" lon="11.5742833"><ele>204.0</ele><time>2026-04-26T07:37:42.299Z</time></trkpt><trkpt lat="43.3162483" lon="11.5741867"><ele>204.0</ele><time>2026-04-26T07:37:43.3Z</time></trkpt><trkpt lat="43.3163083" lon="11.5740817"><ele>204.0</ele><time>2026-04-26T07:37:44.3Z</time></trkpt><trkpt lat="43.3163667" lon="11.5739733"><ele>204.6</ele><time>2026-04-26T07:37:45.298Z</time></trkpt><trkpt lat="43.3164233" lon="11.573865"><ele>205.2</ele><time>2026-04-26T07:37:46.298Z</time></trkpt><trkpt lat="43.3164817" lon="11.573755"><ele>205.79999999999998</ele><time>2026-04-26T07:37:47.3Z</time></trkpt><trkpt lat="43.316545" lon="11.5736483"><ele>206.39999999999998</ele><time>2026-04-26T07:37:48.298Z</time></trkpt><trkpt lat="43.3166083" lon="11.5735483"><ele>207.0</ele><time>2026-04-26T07:37:49.299Z</time></trkpt><trkpt lat="43.316665" lon="11.573455"><ele>207.0</ele><time>2026-04-26T07:37:50.3Z</time></trkpt><trkpt lat="43.31672" lon="11.573365"><ele>207.0</ele><time>2026-04-26T07:37:51.3Z</time></trkpt><trkpt lat="43.316785" lon="11.5732783"><ele>207.0</ele><time>2026-04-26T07:37:52.3Z</time></trkpt><trkpt lat="43.3168517" lon="11.5732"><ele>207.0</ele><time>2026-04-26T07:37:53.299Z</time></trkpt><trkpt lat="43.3169233" lon="11.57313"><ele>207.0</ele><time>2026-04-26T07:37:54.299Z</time></trkpt><trkpt lat="43.3170017" lon="11.5730617"><ele>207.0</ele><time>2026-04-26T07:37:55.3Z</time></trkpt><trkpt lat="43.3170883" lon="11.573005"><ele>207.0</ele><time>2026-04-26T07:37:56.298Z</time></trkpt><trkpt lat="43.3171817" lon="11.5729617"><ele>207.0</ele><time>2026-04-26T07:37:57.299Z</time></trkpt><trkpt lat="43.31727" lon="11.57293"><ele>207.0</ele><time>2026-04-26T07:37:58.299Z</time></trkpt><trkpt lat="43.31735" lon="11.5729117"><ele>207.0</ele><time>2026-04-26T07:37:59.299Z</time></trkpt><trkpt lat="43.317415" lon="11.572905"><ele>207.0</ele><time>2026-04-26T07:38:00.298Z</time></trkpt><trkpt lat="43.31751" lon="11.5728533"><ele>207.0</ele><time>2026-04-26T07:38:02.298Z</time></trkpt><trkpt lat="43.31754" lon="11.5727217"><ele>206.66666666666666</ele><time>2026-04-26T07:38:04.297Z</time></trkpt><trkpt lat="43.31752" lon="11.57263"><ele>206.33333333333331</ele><time>2026-04-26T07:38:05.299Z</time></trkpt><trkpt lat="43.317485" lon="11.5725233"><ele>206.0</ele><time>2026-04-26T07:38:06.295Z</time></trkpt><trkpt lat="43.3174467" lon="11.5724133"><ele>205.66666666666666</ele><time>2026-04-26T07:38:07.297Z</time></trkpt><trkpt lat="43.3174067" lon="11.5723017"><ele>205.33333333333331</ele><time>2026-04-26T07:38:08.299Z</time></trkpt><trkpt lat="43.3173683" lon="11.572185"><ele>205.0</ele><time>2026-04-26T07:38:09.297Z</time></trkpt><trkpt lat="43.31733" lon="11.57207"><ele>204.4</ele><time>2026-04-26T07:38:10.297Z</time></trkpt><trkpt lat="43.3172867" lon="11.5719533"><ele>203.8</ele><time>2026-04-26T07:38:11.299Z</time></trkpt><trkpt lat="43.3172383" lon="11.5718333"><ele>203.2</ele><time>2026-04-26T07:38:12.3Z</time></trkpt><trkpt lat="43.31719" lon="11.5717233"><ele>202.6</ele><time>2026-04-26T07:38:13.298Z</time></trkpt><trkpt lat="43.317145" lon="11.5716083"><ele>202.0</ele><time>2026-04-26T07:38:14.299Z</time></trkpt><trkpt lat="43.3170983" lon="11.571495"><ele>202.0</ele><time>2026-04-26T07:38:15.299Z</time></trkpt><trkpt lat="43.3170517" lon="11.571385"><ele>202.0</ele><time>2026-04-26T07:38:16.299Z</time></trkpt><trkpt lat="43.317005" lon="11.5712733"><ele>202.0</ele><time>2026-04-26T07:38:17.298Z</time></trkpt><trkpt lat="43.3169583" lon="11.5711633"><ele>202.0</ele><time>2026-04-26T07:38:18.3Z</time></trkpt><trkpt lat="43.3169117" lon="11.5710583"><ele>202.0</ele><time>2026-04-26T07:38:19.298Z</time></trkpt><trkpt lat="43.316865" lon="11.5709517"><ele>202.0</ele><time>2026-04-26T07:38:20.297Z</time></trkpt><trkpt lat="43.3168167" lon="11.57084"><ele>202.0</ele><time>2026-04-26T07:38:21.295Z</time></trkpt><trkpt lat="43.31677" lon="11.5707233"><ele>202.0</ele><time>2026-04-26T07:38:22.297Z</time></trkpt><trkpt lat="43.3167183" lon="11.5706083"><ele>202.0</ele><time>2026-04-26T07:38:23.297Z</time></trkpt><trkpt lat="43.3166617" lon="11.5704967"><ele>202.0</ele><time>2026-04-26T07:38:24.301Z</time></trkpt><trkpt lat="43.3165983" lon="11.5703933"><ele>202.0</ele><time>2026-04-26T07:38:25.298Z</time></trkpt><trkpt lat="43.31653" lon="11.5703033"><ele>202.0</ele><time>2026-04-26T07:38:26.3Z</time></trkpt><trkpt lat="43.316455" lon="11.5702233"><ele>202.0</ele><time>2026-04-26T07:38:27.296Z</time></trkpt><trkpt lat="43.3163783" lon="11.5701433"><ele>202.0</ele><time>2026-04-26T07:38:28.298Z</time></trkpt><trkpt lat="43.3163033" lon="11.57006"><ele>202.0</ele><time>2026-04-26T07:38:29.3Z</time></trkpt><trkpt lat="43.3162283" lon="11.5699783"><ele>202.0</ele><time>2026-04-26T07:38:30.3Z</time></trkpt><trkpt lat="43.3161533" lon="11.5698983"><ele>202.0</ele><time>2026-04-26T07:38:31.3Z</time></trkpt><trkpt lat="43.3160767" lon="11.5698183"><ele>202.0</ele><time>2026-04-26T07:38:32.299Z</time></trkpt><trkpt lat="43.3159983" lon="11.5697367"><ele>202.0</ele><time>2026-04-26T07:38:33.3Z</time></trkpt><trkpt lat="43.3159183" lon="11.5696567"><ele>202.0</ele><time>2026-04-26T07:38:34.3Z</time></trkpt><trkpt lat="43.3158383" lon="11.56958"><ele>203.0</ele><time>2026-04-26T07:38:35.3Z</time></trkpt><trkpt lat="43.31576" lon="11.5695067"><ele>204.0</ele><time>2026-04-26T07:38:36.299Z</time></trkpt><trkpt lat="43.3156783" lon="11.5694367"><ele>205.0</ele><time>2026-04-26T07:38:37.301Z</time></trkpt><trkpt lat="43.315595" lon="11.5693717"><ele>206.0</ele><time>2026-04-26T07:38:38.298Z</time></trkpt><trkpt lat="43.3155083" lon="11.5693133"><ele>207.0</ele><time>2026-04-26T07:38:39.295Z</time></trkpt><trkpt lat="43.3154217" lon="11.56926"><ele>207.0</ele><time>2026-04-26T07:38:40.3Z</time></trkpt><trkpt lat="43.3153333" lon="11.56921"><ele>207.0</ele><time>2026-04-26T07:38:41.296Z</time></trkpt><trkpt lat="43.315245" lon="11.569165"><ele>207.0</ele><time>2026-04-26T07:38:42.296Z</time></trkpt><trkpt lat="43.3151583" lon="11.5691167"><ele>207.0</ele><time>2026-04-26T07:38:43.299Z</time></trkpt><trkpt lat="43.3150767" lon="11.5690733"><ele>207.0</ele><time>2026-04-26T07:38:44.297Z</time></trkpt><trkpt lat="43.3149983" lon="11.5690383"><ele>207.0</ele><time>2026-04-26T07:38:45.295Z</time></trkpt><trkpt lat="43.3149183" lon="11.5690167"><ele>207.0</ele><time>2026-04-26T07:38:46.3Z</time></trkpt><trkpt lat="43.3148383" lon="11.5690133"><ele>207.0</ele><time>2026-04-26T07:38:47.299Z</time></trkpt><trkpt lat="43.3147583" lon="11.5690333"><ele>207.0</ele><time>2026-04-26T07:38:48.3Z</time></trkpt><trkpt lat="43.31468" lon="11.5690733"><ele>207.0</ele><time>2026-04-26T07:38:49.3Z</time></trkpt><trkpt lat="43.3146033" lon="11.5691233"><ele>207.0</ele><time>2026-04-26T07:38:50.3Z</time></trkpt><trkpt lat="43.314525" lon="11.5691683"><ele>208.33333333333334</ele><time>2026-04-26T07:38:51.299Z</time></trkpt><trkpt lat="43.314445" lon="11.5692067"><ele>209.66666666666669</ele><time>2026-04-26T07:38:52.3Z</time></trkpt><trkpt lat="43.3143617" lon="11.56923"><ele>211.0</ele><time>2026-04-26T07:38:53.299Z</time></trkpt><trkpt lat="43.3142783" lon="11.56924"><ele>212.33333333333334</ele><time>2026-04-26T07:38:54.298Z</time></trkpt><trkpt lat="43.31419" lon="11.56924"><ele>213.66666666666669</ele><time>2026-04-26T07:38:55.299Z</time></trkpt><trkpt lat="43.3141" lon="11.56924"><ele>215.0</ele><time>2026-04-26T07:38:56.299Z</time></trkpt><trkpt lat="43.314005" lon="11.5692417"><ele>215.0</ele><time>2026-04-26T07:38:57.299Z</time></trkpt><trkpt lat="43.3139083" lon="11.5692483"><ele>215.0</ele><time>2026-04-26T07:38:58.299Z</time></trkpt><trkpt lat="43.3138083" lon="11.5692417"><ele>215.0</ele><time>2026-04-26T07:38:59.299Z</time></trkpt><trkpt lat="43.313705" lon="11.5692317"><ele>215.0</ele><time>2026-04-26T07:39:00.299Z</time></trkpt><trkpt lat="43.3136033" lon="11.5692183"><ele>215.0</ele><time>2026-04-26T07:39:01.299Z</time></trkpt><trkpt lat="43.3135017" lon="11.5691983"><ele>216.2</ele><time>2026-04-26T07:39:02.299Z</time></trkpt><trkpt lat="43.3134017" lon="11.5691817"><ele>217.4</ele><time>2026-04-26T07:39:03.299Z</time></trkpt><trkpt lat="43.3133017" lon="11.5691633"><ele>218.60000000000002</ele><time>2026-04-26T07:39:04.299Z</time></trkpt><trkpt lat="43.3132033" lon="11.5691433"><ele>219.8</ele><time>2026-04-26T07:39:05.299Z</time></trkpt><trkpt lat="43.313115" lon="11.5691217"><ele>221.0</ele><time>2026-04-26T07:39:06.298Z</time></trkpt><trkpt lat="43.3130367" lon="11.5690967"><ele>223.33333333333334</ele><time>2026-04-26T07:39:07.299Z</time></trkpt><trkpt lat="43.31296" lon="11.5690617"><ele>225.66666666666669</ele><time>2026-04-26T07:39:08.3Z</time></trkpt><trkpt lat="43.3128833" lon="11.5690133"><ele>228.0</ele><time>2026-04-26T07:39:09.299Z</time></trkpt><trkpt lat="43.312805" lon="11.5689583"><ele>230.33333333333331</ele><time>2026-04-26T07:39:10.296Z</time></trkpt><trkpt lat="43.3127267" lon="11.5689017"><ele>232.66666666666666</ele><time>2026-04-26T07:39:11.297Z</time></trkpt><trkpt lat="43.3126483" lon="11.568845"><ele>235.0</ele><time>2026-04-26T07:39:12.297Z</time></trkpt><trkpt lat="43.3125667" lon="11.56879"><ele>235.0</ele><time>2026-04-26T07:39:13.299Z</time></trkpt><trkpt lat="43.3124867" lon="11.568725"><ele>235.0</ele><time>2026-04-26T07:39:14.299Z</time></trkpt><trkpt lat="43.3124083" lon="11.56866"><ele>235.0</ele><time>2026-04-26T07:39:15.299Z</time></trkpt><trkpt lat="43.3123283" lon="11.5685917"><ele>235.0</ele><time>2026-04-26T07:39:16.298Z</time></trkpt><trkpt lat="43.3122483" lon="11.56853"><ele>235.0</ele><time>2026-04-26T07:39:17.299Z</time></trkpt><trkpt lat="43.31217" lon="11.56846"><ele>236.83333333333331</ele><time>2026-04-26T07:39:18.296Z</time></trkpt><trkpt lat="43.3120983" lon="11.5683867"><ele>238.66666666666666</ele><time>2026-04-26T07:39:19.298Z</time></trkpt><trkpt lat="43.3120267" lon="11.568315"><ele>240.5</ele><time>2026-04-26T07:39:20.297Z</time></trkpt><trkpt lat="43.311955" lon="11.568245"><ele>242.33333333333331</ele><time>2026-04-26T07:39:21.296Z</time></trkpt><trkpt lat="43.3118833" lon="11.5681783"><ele>244.16666666666666</ele><time>2026-04-26T07:39:22.297Z</time></trkpt><trkpt lat="43.31181" lon="11.56811"><ele>246.0</ele><time>2026-04-26T07:39:23.297Z</time></trkpt><trkpt lat="43.3117367" lon="11.568045"><ele>246.0</ele><time>2026-04-26T07:39:24.296Z</time></trkpt><trkpt lat="43.311665" lon="11.5679867"><ele>246.0</ele><time>2026-04-26T07:39:25.298Z</time></trkpt><trkpt lat="43.3115933" lon="11.56794"><ele>246.0</ele><time>2026-04-26T07:39:26.297Z</time></trkpt><trkpt lat="43.31152" lon="11.5679"><ele>246.0</ele><time>2026-04-26T07:39:27.297Z</time></trkpt><trkpt lat="43.3114467" lon="11.5678683"><ele>246.0</ele><time>2026-04-26T07:39:28.297Z</time></trkpt><trkpt lat="43.3113717" lon="11.5678517"><ele>246.0</ele><time>2026-04-26T07:39:29.297Z</time></trkpt><trkpt lat="43.3112883" lon="11.5678467"><ele>247.83333333333334</ele><time>2026-04-26T07:39:30.297Z</time></trkpt><trkpt lat="43.3112083" lon="11.56785"><ele>249.66666666666669</ele><time>2026-04-26T07:39:31.299Z</time></trkpt><trkpt lat="43.3111267" lon="11.5678367"><ele>251.5</ele><time>2026-04-26T07:39:32.298Z</time></trkpt><trkpt lat="43.3110417" lon="11.567815"><ele>253.33333333333334</ele><time>2026-04-26T07:39:33.299Z</time></trkpt><trkpt lat="43.3109683" lon="11.5677783"><ele>255.16666666666669</ele><time>2026-04-26T07:39:34.299Z</time></trkpt><trkpt lat="43.3108983" lon="11.5677383"><ele>257.0</ele><time>2026-04-26T07:39:35.299Z</time></trkpt><trkpt lat="43.3108433" lon="11.567675"><ele>257.0</ele><time>2026-04-26T07:39:36.298Z</time></trkpt><trkpt lat="43.3107883" lon="11.5676033"><ele>257.0</ele><time>2026-04-26T07:39:37.3Z</time></trkpt><trkpt lat="43.3107283" lon="11.5675367"><ele>257.0</ele><time>2026-04-26T07:39:38.299Z</time></trkpt><trkpt lat="43.31066" lon="11.5674733"><ele>257.0</ele><time>2026-04-26T07:39:39.296Z</time></trkpt><trkpt lat="43.310595" lon="11.5674133"><ele>257.0</ele><time>2026-04-26T07:39:40.297Z</time></trkpt><trkpt lat="43.310525" lon="11.56736"><ele>257.0</ele><time>2026-04-26T07:39:41.297Z</time></trkpt><trkpt lat="43.310445" lon="11.5673117"><ele>259.1666666666667</ele><time>2026-04-26T07:39:42.296Z</time></trkpt><trkpt lat="43.3103567" lon="11.5672717"><ele>261.33333333333337</ele><time>2026-04-26T07:39:43.297Z</time></trkpt><trkpt lat="43.3102717" lon="11.567235"><ele>263.5</ele><time>2026-04-26T07:39:44.296Z</time></trkpt><trkpt lat="43.3101883" lon="11.5672033"><ele>265.6666666666667</ele><time>2026-04-26T07:39:45.294Z</time></trkpt><trkpt lat="43.3101217" lon="11.567165"><ele>267.8333333333333</ele><time>2026-04-26T07:39:46.295Z</time></trkpt><trkpt lat="43.3100633" lon="11.5671217"><ele>270.0</ele><time>2026-04-26T07:39:47.297Z</time></trkpt><trkpt lat="43.310005" lon="11.5669667"><ele>270.0</ele><time>2026-04-26T07:39:49.296Z</time></trkpt><trkpt lat="43.310005" lon="11.5668617"><ele>270.0</ele><time>2026-04-26T07:39:50.296Z</time></trkpt><trkpt lat="43.31002" lon="11.5667583"><ele>270.0</ele><time>2026-04-26T07:39:51.294Z</time></trkpt><trkpt lat="43.3100283" lon="11.5666567"><ele>270.0</ele><time>2026-04-26T07:39:52.296Z</time></trkpt><trkpt lat="43.3100233" lon="11.566565"><ele>270.0</ele><time>2026-04-26T07:39:53.296Z</time></trkpt><trkpt lat="43.3100117" lon="11.5664617"><ele>270.0</ele><time>2026-04-26T07:39:54.296Z</time></trkpt><trkpt lat="43.30999" lon="11.566355"><ele>270.0</ele><time>2026-04-26T07:39:55.296Z</time></trkpt><trkpt lat="43.3099633" lon="11.5662517"><ele>270.0</ele><time>2026-04-26T07:39:56.296Z</time></trkpt><trkpt lat="43.3099333" lon="11.5661533"><ele>270.0</ele><time>2026-04-26T07:39:57.294Z</time></trkpt><trkpt lat="43.3098983" lon="11.56605"><ele>270.0</ele><time>2026-04-26T07:39:58.295Z</time></trkpt><trkpt lat="43.3098633" lon="11.5659433"><ele>270.0</ele><time>2026-04-26T07:39:59.298Z</time></trkpt><trkpt lat="43.3098283" lon="11.565835"><ele>270.0</ele><time>2026-04-26T07:40:00.299Z</time></trkpt><trkpt lat="43.3097933" lon="11.5657367"><ele>270.6666666666667</ele><time>2026-04-26T07:40:01.299Z</time></trkpt><trkpt lat="43.3097617" lon="11.5656433"><ele>271.3333333333333</ele><time>2026-04-26T07:40:02.298Z</time></trkpt><trkpt lat="43.3097333" lon="11.5655583"><ele>272.0</ele><time>2026-04-26T07:40:03.299Z</time></trkpt><trkpt lat="43.3097033" lon="11.56548"><ele>272.66666666666663</ele><time>2026-04-26T07:40:04.299Z</time></trkpt><trkpt lat="43.309645" lon="11.5653283"><ele>273.3333333333333</ele><time>2026-04-26T07:40:06.298Z</time></trkpt><trkpt lat="43.3096033" lon="11.5652617"><ele>274.0</ele><time>2026-04-26T07:40:07.296Z</time></trkpt><trkpt lat="43.30955" lon="11.565205"><ele>274.3333333333333</ele><time>2026-04-26T07:40:08.299Z</time></trkpt><trkpt lat="43.3094867" lon="11.5651667"><ele>274.66666666666663</ele><time>2026-04-26T07:40:09.298Z</time></trkpt><trkpt lat="43.3094117" lon="11.5651567"><ele>275.0</ele><time>2026-04-26T07:40:10.296Z</time></trkpt><trkpt lat="43.30932" lon="11.565175"><ele>275.3333333333333</ele><time>2026-04-26T07:40:11.297Z</time></trkpt><trkpt lat="43.3092383" lon="11.5651883"><ele>275.6666666666667</ele><time>2026-04-26T07:40:12.298Z</time></trkpt><trkpt lat="43.30916" lon="11.5652033"><ele>276.0</ele><time>2026-04-26T07:40:13.298Z</time></trkpt><trkpt lat="43.3090817" lon="11.5652183"><ele>276.0</ele><time>2026-04-26T07:40:14.299Z</time></trkpt><trkpt lat="43.309005" lon="11.5652233"><ele>276.0</ele><time>2026-04-26T07:40:15.298Z</time></trkpt><trkpt lat="43.3089233" lon="11.5652167"><ele>276.0</ele><time>2026-04-26T07:40:16.299Z</time></trkpt><trkpt lat="43.3088467" lon="11.56519"><ele>276.0</ele><time>2026-04-26T07:40:17.297Z</time></trkpt><trkpt lat="43.308775" lon="11.565145"><ele>276.0</ele><time>2026-04-26T07:40:18.295Z</time></trkpt><trkpt lat="43.308715" lon="11.5650817"><ele>276.0</ele><time>2026-04-26T07:40:19.296Z</time></trkpt><trkpt lat="43.3086683" lon="11.56499"><ele>275.40000000000003</ele><time>2026-04-26T07:40:20.296Z</time></trkpt><trkpt lat="43.3086267" lon="11.56489"><ele>274.8</ele><time>2026-04-26T07:40:21.296Z</time></trkpt><trkpt lat="43.3085883" lon="11.5647783"><ele>274.20000000000005</ele><time>2026-04-26T07:40:22.296Z</time></trkpt><trkpt lat="43.3085517" lon="11.5646633"><ele>273.6</ele><time>2026-04-26T07:40:23.297Z</time></trkpt><trkpt lat="43.308515" lon="11.5645417"><ele>273.0</ele><time>2026-04-26T07:40:24.298Z</time></trkpt><trkpt lat="43.3084783" lon="11.5644183"><ele>273.0</ele><time>2026-04-26T07:40:25.295Z</time></trkpt><trkpt lat="43.30844" lon="11.5642933"><ele>273.0</ele><time>2026-04-26T07:40:26.297Z</time></trkpt><trkpt lat="43.3083983" lon="11.5641683"><ele>273.0</ele><time>2026-04-26T07:40:27.296Z</time></trkpt><trkpt lat="43.3083583" lon="11.5640417"><ele>273.0</ele><time>2026-04-26T07:40:28.295Z</time></trkpt><trkpt lat="43.30832" lon="11.5639183"><ele>273.0</ele><time>2026-04-26T07:40:29.298Z</time></trkpt><trkpt lat="43.3082767" lon="11.5638"><ele>273.4</ele><time>2026-04-26T07:40:30.298Z</time></trkpt><trkpt lat="43.3082317" lon="11.5636883"><ele>273.8</ele><time>2026-04-26T07:40:31.298Z</time></trkpt><trkpt lat="43.308185" lon="11.5635883"><ele>274.2</ele><time>2026-04-26T07:40:32.297Z</time></trkpt><trkpt lat="43.308125" lon="11.5635"><ele>274.6</ele><time>2026-04-26T07:40:33.295Z</time></trkpt><trkpt lat="43.308055" lon="11.56342"><ele>275.0</ele><time>2026-04-26T07:40:34.296Z</time></trkpt><trkpt lat="43.30798" lon="11.563345"><ele>275.0</ele><time>2026-04-26T07:40:35.296Z</time></trkpt><trkpt lat="43.3078967" lon="11.5632667"><ele>275.0</ele><time>2026-04-26T07:40:36.295Z</time></trkpt><trkpt lat="43.307815" lon="11.5631867"><ele>275.0</ele><time>2026-04-26T07:40:37.296Z</time></trkpt><trkpt lat="43.3077283" lon="11.56311"><ele>275.0</ele><time>2026-04-26T07:40:38.296Z</time></trkpt><trkpt lat="43.3076467" lon="11.56304"><ele>275.0</ele><time>2026-04-26T07:40:39.295Z</time></trkpt><trkpt lat="43.3075667" lon="11.5629667"><ele>275.0</ele><time>2026-04-26T07:40:40.296Z</time></trkpt><trkpt lat="43.3074867" lon="11.5628983"><ele>275.0</ele><time>2026-04-26T07:40:41.298Z</time></trkpt><trkpt lat="43.30741" lon="11.5628283"><ele>275.0</ele><time>2026-04-26T07:40:42.297Z</time></trkpt><trkpt lat="43.30733" lon="11.5627567"><ele>275.0</ele><time>2026-04-26T07:40:43.298Z</time></trkpt><trkpt lat="43.30725" lon="11.5626867"><ele>275.0</ele><time>2026-04-26T07:40:44.299Z</time></trkpt><trkpt lat="43.3071667" lon="11.5626217"><ele>276.0</ele><time>2026-04-26T07:40:45.295Z</time></trkpt><trkpt lat="43.3070817" lon="11.562565"><ele>277.0</ele><time>2026-04-26T07:40:46.298Z</time></trkpt><trkpt lat="43.3069917" lon="11.562525"><ele>278.0</ele><time>2026-04-26T07:40:47.297Z</time></trkpt><trkpt lat="43.3068983" lon="11.5625"><ele>279.0</ele><time>2026-04-26T07:40:48.296Z</time></trkpt><trkpt lat="43.3068067" lon="11.5625"><ele>280.0</ele><time>2026-04-26T07:40:49.296Z</time></trkpt><trkpt lat="43.3067117" lon="11.5625083"><ele>280.0</ele><time>2026-04-26T07:40:50.297Z</time></trkpt><trkpt lat="43.3066167" lon="11.5625183"><ele>280.0</ele><time>2026-04-26T07:40:51.296Z</time></trkpt><trkpt lat="43.30652" lon="11.5625283"><ele>280.0</ele><time>2026-04-26T07:40:52.296Z</time></trkpt><trkpt lat="43.3064233" lon="11.5625367"><ele>280.0</ele><time>2026-04-26T07:40:53.296Z</time></trkpt><trkpt lat="43.3063267" lon="11.5625467"><ele>280.0</ele><time>2026-04-26T07:40:54.295Z</time></trkpt><trkpt lat="43.3062317" lon="11.5625567"><ele>280.4</ele><time>2026-04-26T07:40:55.297Z</time></trkpt><trkpt lat="43.306135" lon="11.56256"><ele>280.8</ele><time>2026-04-26T07:40:56.295Z</time></trkpt><trkpt lat="43.3060383" lon="11.5625533"><ele>281.2</ele><time>2026-04-26T07:40:57.295Z</time></trkpt><trkpt lat="43.3059433" lon="11.562545"><ele>281.6</ele><time>2026-04-26T07:40:58.295Z</time></trkpt><trkpt lat="43.3058517" lon="11.5625117"><ele>282.0</ele><time>2026-04-26T07:40:59.298Z</time></trkpt><trkpt lat="43.3057683" lon="11.5624583"><ele>282.0</ele><time>2026-04-26T07:41:00.298Z</time></trkpt><trkpt lat="43.305695" lon="11.5623833"><ele>282.0</ele><time>2026-04-26T07:41:01.298Z</time></trkpt><trkpt lat="43.3056317" lon="11.5622917"><ele>282.0</ele><time>2026-04-26T07:41:02.298Z</time></trkpt><trkpt lat="43.3055717" lon="11.5621917"><ele>282.0</ele><time>2026-04-26T07:41:03.299Z</time></trkpt><trkpt lat="43.305515" lon="11.56209"><ele>282.0</ele><time>2026-04-26T07:41:04.3Z</time></trkpt><trkpt lat="43.3054633" lon="11.561995"><ele>282.0</ele><time>2026-04-26T07:41:05.298Z</time></trkpt><trkpt lat="43.3054217" lon="11.5619083"><ele>282.0</ele><time>2026-04-26T07:41:06.299Z</time></trkpt><trkpt lat="43.3053883" lon="11.5618183"><ele>282.0</ele><time>2026-04-26T07:41:07.296Z</time></trkpt><trkpt lat="43.3053583" lon="11.5617167"><ele>282.0</ele><time>2026-04-26T07:41:08.299Z</time></trkpt><trkpt lat="43.30533" lon="11.5616033"><ele>282.0</ele><time>2026-04-26T07:41:09.298Z</time></trkpt><trkpt lat="43.3053017" lon="11.5614833"><ele>282.0</ele><time>2026-04-26T07:41:10.298Z</time></trkpt><trkpt lat="43.3052683" lon="11.5613617"><ele>282.0</ele><time>2026-04-26T07:41:11.299Z</time></trkpt><trkpt lat="43.305235" lon="11.5612467"><ele>282.0</ele><time>2026-04-26T07:41:12.297Z</time></trkpt><trkpt lat="43.3052" lon="11.5611367"><ele>282.0</ele><time>2026-04-26T07:41:13.299Z</time></trkpt><trkpt lat="43.305165" lon="11.5610367"><ele>282.0</ele><time>2026-04-26T07:41:14.3Z</time></trkpt><trkpt lat="43.3051333" lon="11.56094"><ele>282.0</ele><time>2026-04-26T07:41:15.294Z</time></trkpt><trkpt lat="43.30509" lon="11.560855"><ele>282.0</ele><time>2026-04-26T07:41:16.296Z</time></trkpt><trkpt lat="43.3050333" lon="11.5607767"><ele>282.0</ele><time>2026-04-26T07:41:17.295Z</time></trkpt><trkpt lat="43.3049633" lon="11.560705"><ele>282.0</ele><time>2026-04-26T07:41:18.295Z</time></trkpt><trkpt lat="43.3048833" lon="11.5606417"><ele>282.0</ele><time>2026-04-26T07:41:19.297Z</time></trkpt><trkpt lat="43.3048017" lon="11.5605733"><ele>282.0</ele><time>2026-04-26T07:41:20.298Z</time></trkpt><trkpt lat="43.30472" lon="11.5605033"><ele>282.0</ele><time>2026-04-26T07:41:21.296Z</time></trkpt><trkpt lat="43.3046383" lon="11.560435"><ele>282.0</ele><time>2026-04-26T07:41:22.295Z</time></trkpt><trkpt lat="43.3045567" lon="11.5603667"><ele>282.0</ele><time>2026-04-26T07:41:23.295Z</time></trkpt><trkpt lat="43.304475" lon="11.5602967"><ele>282.0</ele><time>2026-04-26T07:41:24.299Z</time></trkpt><trkpt lat="43.3043917" lon="11.5602267"><ele>282.0</ele><time>2026-04-26T07:41:25.299Z</time></trkpt><trkpt lat="43.3043083" lon="11.5601567"><ele>282.0</ele><time>2026-04-26T07:41:26.296Z</time></trkpt><trkpt lat="43.304225" lon="11.5600833"><ele>282.0</ele><time>2026-04-26T07:41:27.298Z</time></trkpt><trkpt lat="43.3041417" lon="11.5600133"><ele>282.0</ele><time>2026-04-26T07:41:28.298Z</time></trkpt><trkpt lat="43.3040617" lon="11.5599417"><ele>282.0</ele><time>2026-04-26T07:41:29.297Z</time></trkpt><trkpt lat="43.3039783" lon="11.5598767"><ele>282.0</ele><time>2026-04-26T07:41:30.3Z</time></trkpt><trkpt lat="43.3039017" lon="11.5598083"><ele>282.0</ele><time>2026-04-26T07:41:31.299Z</time></trkpt><trkpt lat="43.3038283" lon="11.5597317"><ele>280.0</ele><time>2026-04-26T07:41:32.298Z</time></trkpt><trkpt lat="43.303765" lon="11.5596433"><ele>278.0</ele><time>2026-04-26T07:41:33.298Z</time></trkpt><trkpt lat="43.30372" lon="11.5595333"><ele>276.0</ele><time>2026-04-26T07:41:34.299Z</time></trkpt><trkpt lat="43.3036867" lon="11.5594133"><ele>274.0</ele><time>2026-04-26T07:41:35.298Z</time></trkpt><trkpt lat="43.3036617" lon="11.5592867"><ele>272.0</ele><time>2026-04-26T07:41:36.297Z</time></trkpt><trkpt lat="43.30364" lon="11.5591583"><ele>272.0</ele><time>2026-04-26T07:41:37.3Z</time></trkpt><trkpt lat="43.3036183" lon="11.5590333"><ele>272.0</ele><time>2026-04-26T07:41:38.299Z</time></trkpt><trkpt lat="43.3036" lon="11.5589017"><ele>272.0</ele><time>2026-04-26T07:41:39.299Z</time></trkpt><trkpt lat="43.3035817" lon="11.5587767"><ele>272.0</ele><time>2026-04-26T07:41:40.298Z</time></trkpt><trkpt lat="43.3035633" lon="11.5586483"><ele>272.0</ele><time>2026-04-26T07:41:41.298Z</time></trkpt><trkpt lat="43.3035417" lon="11.5585183"><ele>272.6</ele><time>2026-04-26T07:41:42.294Z</time></trkpt><trkpt lat="43.3035167" lon="11.5583867"><ele>273.2</ele><time>2026-04-26T07:41:43.298Z</time></trkpt><trkpt lat="43.303495" lon="11.5582533"><ele>273.8</ele><time>2026-04-26T07:41:44.298Z</time></trkpt><trkpt lat="43.3034717" lon="11.55812"><ele>274.4</ele><time>2026-04-26T07:41:45.299Z</time></trkpt><trkpt lat="43.3034483" lon="11.55799"><ele>275.0</ele><time>2026-04-26T07:41:46.299Z</time></trkpt><trkpt lat="43.3034267" lon="11.5578617"><ele>275.6666666666667</ele><time>2026-04-26T07:41:47.297Z</time></trkpt><trkpt lat="43.3034083" lon="11.55774"><ele>276.33333333333337</ele><time>2026-04-26T07:41:48.296Z</time></trkpt><trkpt lat="43.3033917" lon="11.55762"><ele>277.0</ele><time>2026-04-26T07:41:49.296Z</time></trkpt><trkpt lat="43.3033783" lon="11.557505"><ele>277.6666666666667</ele><time>2026-04-26T07:41:50.298Z</time></trkpt><trkpt lat="43.303365" lon="11.5573983"><ele>278.3333333333333</ele><time>2026-04-26T07:41:51.294Z</time></trkpt><trkpt lat="43.303345" lon="11.5573017"><ele>279.0</ele><time>2026-04-26T07:41:52.295Z</time></trkpt><trkpt lat="43.303315" lon="11.55721"><ele>279.0</ele><time>2026-04-26T07:41:53.296Z</time></trkpt><trkpt lat="43.30327" lon="11.5571233"><ele>279.0</ele><time>2026-04-26T07:41:54.298Z</time></trkpt><trkpt lat="43.3032067" lon="11.5570483"><ele>279.0</ele><time>2026-04-26T07:41:55.298Z</time></trkpt><trkpt lat="43.3031317" lon="11.5569917"><ele>279.0</ele><time>2026-04-26T07:41:56.298Z</time></trkpt><trkpt lat="43.3030517" lon="11.556945"><ele>279.0</ele><time>2026-04-26T07:41:57.298Z</time></trkpt><trkpt lat="43.3029683" lon="11.5569133"><ele>279.0</ele><time>2026-04-26T07:41:58.295Z</time></trkpt><trkpt lat="43.3028733" lon="11.55691"><ele>277.2</ele><time>2026-04-26T07:41:59.296Z</time></trkpt><trkpt lat="43.30277" lon="11.5569217"><ele>275.4</ele><time>2026-04-26T07:42:00.296Z</time></trkpt><trkpt lat="43.3026617" lon="11.5569367"><ele>273.6</ele><time>2026-04-26T07:42:01.297Z</time></trkpt><trkpt lat="43.302555" lon="11.5569583"><ele>271.8</ele><time>2026-04-26T07:42:02.297Z</time></trkpt><trkpt lat="43.3024517" lon="11.5569833"><ele>270.0</ele><time>2026-04-26T07:42:03.295Z</time></trkpt><trkpt lat="43.30235" lon="11.5570033"><ele>270.0</ele><time>2026-04-26T07:42:04.296Z</time></trkpt><trkpt lat="43.3022483" lon="11.5570217"><ele>270.0</ele><time>2026-04-26T07:42:05.297Z</time></trkpt><trkpt lat="43.302145" lon="11.5570317"><ele>270.0</ele><time>2026-04-26T07:42:06.296Z</time></trkpt><trkpt lat="43.3020417" lon="11.5570217"><ele>270.0</ele><time>2026-04-26T07:42:07.295Z</time></trkpt><trkpt lat="43.301945" lon="11.5569867"><ele>270.0</ele><time>2026-04-26T07:42:08.298Z</time></trkpt><trkpt lat="43.3018517" lon="11.5569283"><ele>271.6</ele><time>2026-04-26T07:42:09.296Z</time></trkpt><trkpt lat="43.3017567" lon="11.5568583"><ele>273.2</ele><time>2026-04-26T07:42:10.296Z</time></trkpt><trkpt lat="43.3016633" lon="11.556785"><ele>274.8</ele><time>2026-04-26T07:42:11.296Z</time></trkpt><trkpt lat="43.30157" lon="11.55671"><ele>276.4</ele><time>2026-04-26T07:42:12.295Z</time></trkpt><trkpt lat="43.30148" lon="11.5566317"><ele>278.0</ele><time>2026-04-26T07:42:13.298Z</time></trkpt><trkpt lat="43.3013933" lon="11.5565617"><ele>279.0</ele><time>2026-04-26T07:42:14.298Z</time></trkpt><trkpt lat="43.3013067" lon="11.55649"><ele>280.0</ele><time>2026-04-26T07:42:15.299Z</time></trkpt><trkpt lat="43.30123" lon="11.5564167"><ele>281.0</ele><time>2026-04-26T07:42:16.295Z</time></trkpt><trkpt lat="43.30116" lon="11.5563367"><ele>282.0</ele><time>2026-04-26T07:42:17.299Z</time></trkpt><trkpt lat="43.301105" lon="11.5562433"><ele>283.0</ele><time>2026-04-26T07:42:18.297Z</time></trkpt><trkpt lat="43.3010567" lon="11.55614"><ele>283.0</ele><time>2026-04-26T07:42:19.298Z</time></trkpt><trkpt lat="43.3010067" lon="11.556035"><ele>283.0</ele><time>2026-04-26T07:42:20.298Z</time></trkpt><trkpt lat="43.3009517" lon="11.5559333"><ele>283.0</ele><time>2026-04-26T07:42:21.298Z</time></trkpt><trkpt lat="43.3008867" lon="11.5558433"><ele>283.0</ele><time>2026-04-26T07:42:22.295Z</time></trkpt><trkpt lat="43.3008117" lon="11.5557633"><ele>283.0</ele><time>2026-04-26T07:42:23.298Z</time></trkpt><trkpt lat="43.3007317" lon="11.5556883"><ele>283.0</ele><time>2026-04-26T07:42:24.298Z</time></trkpt><trkpt lat="43.3006467" lon="11.5556167"><ele>283.0</ele><time>2026-04-26T07:42:25.298Z</time></trkpt><trkpt lat="43.3005583" lon="11.55554"><ele>283.0</ele><time>2026-04-26T07:42:26.298Z</time></trkpt><trkpt lat="43.30047" lon="11.5554583"><ele>283.0</ele><time>2026-04-26T07:42:27.299Z</time></trkpt><trkpt lat="43.300385" lon="11.555375"><ele>283.0</ele><time>2026-04-26T07:42:28.298Z</time></trkpt><trkpt lat="43.3003017" lon="11.555295"><ele>283.8</ele><time>2026-04-26T07:42:29.297Z</time></trkpt><trkpt lat="43.3002183" lon="11.555215"><ele>284.6</ele><time>2026-04-26T07:42:30.299Z</time></trkpt><trkpt lat="43.3001333" lon="11.555135"><ele>285.4</ele><time>2026-04-26T07:42:31.299Z</time></trkpt><trkpt lat="43.3000483" lon="11.5550533"><ele>286.2</ele><time>2026-04-26T07:42:32.298Z</time></trkpt><trkpt lat="43.2999633" lon="11.55497"><ele>287.0</ele><time>2026-04-26T07:42:33.298Z</time></trkpt><trkpt lat="43.2998783" lon="11.5548883"><ele>287.0</ele><time>2026-04-26T07:42:34.297Z</time></trkpt><trkpt lat="43.2997933" lon="11.5548067"><ele>287.0</ele><time>2026-04-26T07:42:35.298Z</time></trkpt><trkpt lat="43.2997067" lon="11.5547267"><ele>287.0</ele><time>2026-04-26T07:42:36.297Z</time></trkpt><trkpt lat="43.2996217" lon="11.55465"><ele>287.0</ele><time>2026-04-26T07:42:37.298Z</time></trkpt><trkpt lat="43.2995383" lon="11.554575"><ele>287.0</ele><time>2026-04-26T07:42:38.299Z</time></trkpt><trkpt lat="43.2994517" lon="11.5545"><ele>287.2</ele><time>2026-04-26T07:42:39.298Z</time></trkpt><trkpt lat="43.2993683" lon="11.5544217"><ele>287.4</ele><time>2026-04-26T07:42:40.299Z</time></trkpt><trkpt lat="43.299285" lon="11.554345"><ele>287.6</ele><time>2026-04-26T07:42:41.297Z</time></trkpt><trkpt lat="43.2991983" lon="11.5542683"><ele>287.8</ele><time>2026-04-26T07:42:42.299Z</time></trkpt><trkpt lat="43.299115" lon="11.5541917"><ele>288.0</ele><time>2026-04-26T07:42:43.298Z</time></trkpt><trkpt lat="43.2990317" lon="11.5541133"><ele>288.0</ele><time>2026-04-26T07:42:44.299Z</time></trkpt><trkpt lat="43.2989483" lon="11.5540383"><ele>288.0</ele><time>2026-04-26T07:42:45.298Z</time></trkpt><trkpt lat="43.298865" lon="11.5539633"><ele>288.0</ele><time>2026-04-26T07:42:46.298Z</time></trkpt><trkpt lat="43.29878" lon="11.553885"><ele>288.0</ele><time>2026-04-26T07:42:47.298Z</time></trkpt><trkpt lat="43.298695" lon="11.5538067"><ele>288.0</ele><time>2026-04-26T07:42:48.298Z</time></trkpt><trkpt lat="43.2986117" lon="11.5537283"><ele>288.2</ele><time>2026-04-26T07:42:49.298Z</time></trkpt><trkpt lat="43.2985283" lon="11.55365"><ele>288.4</ele><time>2026-04-26T07:42:50.298Z</time></trkpt><trkpt lat="43.2984483" lon="11.5535733"><ele>288.59999999999997</ele><time>2026-04-26T07:42:51.298Z</time></trkpt><trkpt lat="43.298375" lon="11.5535017"><ele>288.8</ele><time>2026-04-26T07:42:52.299Z</time></trkpt><trkpt lat="43.2983067" lon="11.5534267"><ele>289.0</ele><time>2026-04-26T07:42:53.298Z</time></trkpt><trkpt lat="43.2982417" lon="11.5533433"><ele>289.0</ele><time>2026-04-26T07:42:54.298Z</time></trkpt><trkpt lat="43.29818" lon="11.5532467"><ele>289.0</ele><time>2026-04-26T07:42:55.298Z</time></trkpt><trkpt lat="43.2981233" lon="11.5531383"><ele>289.0</ele><time>2026-04-26T07:42:56.298Z</time></trkpt><trkpt lat="43.2980683" lon="11.553035"><ele>289.0</ele><time>2026-04-26T07:42:57.298Z</time></trkpt><trkpt lat="43.298015" lon="11.5529383"><ele>289.0</ele><time>2026-04-26T07:42:58.299Z</time></trkpt><trkpt lat="43.2979533" lon="11.5528533"><ele>289.4</ele><time>2026-04-26T07:42:59.298Z</time></trkpt><trkpt lat="43.2978783" lon="11.5527817"><ele>289.79999999999995</ele><time>2026-04-26T07:43:00.294Z</time></trkpt><trkpt lat="43.2977933" lon="11.55272"><ele>290.20000000000005</ele><time>2026-04-26T07:43:01.299Z</time></trkpt><trkpt lat="43.2977033" lon="11.552665"><ele>290.6</ele><time>2026-04-26T07:43:02.296Z</time></trkpt><trkpt lat="43.2976117" lon="11.5526233"><ele>291.0</ele><time>2026-04-26T07:43:03.296Z</time></trkpt><trkpt lat="43.29752" lon="11.5525933"><ele>291.0</ele><time>2026-04-26T07:43:04.296Z</time></trkpt><trkpt lat="43.2974283" lon="11.5525617"><ele>291.0</ele><time>2026-04-26T07:43:05.296Z</time></trkpt><trkpt lat="43.2973417" lon="11.55252"><ele>291.0</ele><time>2026-04-26T07:43:06.296Z</time></trkpt><trkpt lat="43.29726" lon="11.5524633"><ele>291.0</ele><time>2026-04-26T07:43:07.296Z</time></trkpt><trkpt lat="43.29719" lon="11.5523967"><ele>291.0</ele><time>2026-04-26T07:43:08.297Z</time></trkpt><trkpt lat="43.297125" lon="11.5523217"><ele>291.0</ele><time>2026-04-26T07:43:09.295Z</time></trkpt><trkpt lat="43.297065" lon="11.5522333"><ele>291.40000000000003</ele><time>2026-04-26T07:43:10.296Z</time></trkpt><trkpt lat="43.297005" lon="11.55214"><ele>291.8</ele><time>2026-04-26T07:43:11.299Z</time></trkpt><trkpt lat="43.2969417" lon="11.5520467"><ele>292.20000000000005</ele><time>2026-04-26T07:43:12.295Z</time></trkpt><trkpt lat="43.2968717" lon="11.55196"><ele>292.6</ele><time>2026-04-26T07:43:13.297Z</time></trkpt><trkpt lat="43.296795" lon="11.55188"><ele>293.0</ele><time>2026-04-26T07:43:14.298Z</time></trkpt><trkpt lat="43.2967133" lon="11.551805"><ele>293.2</ele><time>2026-04-26T07:43:15.296Z</time></trkpt><trkpt lat="43.2966317" lon="11.5517267"><ele>293.4</ele><time>2026-04-26T07:43:16.297Z</time></trkpt><trkpt lat="43.2965533" lon="11.5516517"><ele>293.59999999999997</ele><time>2026-04-26T07:43:17.298Z</time></trkpt><trkpt lat="43.2964767" lon="11.55157"><ele>293.8</ele><time>2026-04-26T07:43:18.298Z</time></trkpt><trkpt lat="43.2964" lon="11.5514917"><ele>294.0</ele><time>2026-04-26T07:43:19.299Z</time></trkpt><trkpt lat="43.2963233" lon="11.551415"><ele>293.59999999999997</ele><time>2026-04-26T07:43:20.296Z</time></trkpt><trkpt lat="43.2962467" lon="11.5513317"><ele>293.2</ele><time>2026-04-26T07:43:21.298Z</time></trkpt><trkpt lat="43.2961717" lon="11.551245"><ele>292.79999999999995</ele><time>2026-04-26T07:43:22.297Z</time></trkpt><trkpt lat="43.2960983" lon="11.5511567"><ele>292.4</ele><time>2026-04-26T07:43:23.298Z</time></trkpt><trkpt lat="43.2960283" lon="11.5510633"><ele>292.0</ele><time>2026-04-26T07:43:24.297Z</time></trkpt><trkpt lat="43.295955" lon="11.5509733"><ele>292.0</ele><time>2026-04-26T07:43:25.299Z</time></trkpt><trkpt lat="43.295885" lon="11.5508817"><ele>292.0</ele><time>2026-04-26T07:43:26.299Z</time></trkpt><trkpt lat="43.2958167" lon="11.5507867"><ele>292.0</ele><time>2026-04-26T07:43:27.297Z</time></trkpt><trkpt lat="43.2957533" lon="11.55069"><ele>292.0</ele><time>2026-04-26T07:43:28.298Z</time></trkpt><trkpt lat="43.2956883" lon="11.550595"><ele>292.0</ele><time>2026-04-26T07:43:29.298Z</time></trkpt><trkpt lat="43.2956217" lon="11.5505083"><ele>291.0</ele><time>2026-04-26T07:43:30.297Z</time></trkpt><trkpt lat="43.2955433" lon="11.5504283"><ele>290.0</ele><time>2026-04-26T07:43:31.298Z</time></trkpt><trkpt lat="43.2954633" lon="11.550355"><ele>289.0</ele><time>2026-04-26T07:43:32.298Z</time></trkpt><trkpt lat="43.295385" lon="11.55029"><ele>288.0</ele><time>2026-04-26T07:43:33.298Z</time></trkpt><trkpt lat="43.29531" lon="11.5502183"><ele>287.0</ele><time>2026-04-26T07:43:34.298Z</time></trkpt><trkpt lat="43.295235" lon="11.5501383"><ele>287.0</ele><time>2026-04-26T07:43:35.299Z</time></trkpt><trkpt lat="43.2951633" lon="11.55004"><ele>287.0</ele><time>2026-04-26T07:43:36.298Z</time></trkpt><trkpt lat="43.2950917" lon="11.5499433"><ele>287.0</ele><time>2026-04-26T07:43:37.299Z</time></trkpt><trkpt lat="43.29502" lon="11.549845"><ele>287.0</ele><time>2026-04-26T07:43:38.299Z</time></trkpt><trkpt lat="43.2949533" lon="11.5497433"><ele>287.0</ele><time>2026-04-26T07:43:39.298Z</time></trkpt><trkpt lat="43.294885" lon="11.5496417"><ele>287.0</ele><time>2026-04-26T07:43:40.298Z</time></trkpt><trkpt lat="43.2948183" lon="11.5495433"><ele>287.0</ele><time>2026-04-26T07:43:41.296Z</time></trkpt><trkpt lat="43.29475" lon="11.549445"><ele>287.0</ele><time>2026-04-26T07:43:42.299Z</time></trkpt><trkpt lat="43.2946733" lon="11.5493533"><ele>287.0</ele><time>2026-04-26T07:43:43.298Z</time></trkpt><trkpt lat="43.2945917" lon="11.5492683"><ele>287.0</ele><time>2026-04-26T07:43:44.298Z</time></trkpt><trkpt lat="43.2945067" lon="11.54919"><ele>289.4</ele><time>2026-04-26T07:43:45.296Z</time></trkpt><trkpt lat="43.29442" lon="11.5491117"><ele>291.79999999999995</ele><time>2026-04-26T07:43:46.298Z</time></trkpt><trkpt lat="43.294335" lon="11.5490367"><ele>294.2</ele><time>2026-04-26T07:43:47.298Z</time></trkpt><trkpt lat="43.2942483" lon="11.5489617"><ele>296.59999999999997</ele><time>2026-04-26T07:43:48.298Z</time></trkpt><trkpt lat="43.294165" lon="11.5488867"><ele>299.0</ele><time>2026-04-26T07:43:49.298Z</time></trkpt><trkpt lat="43.2940833" lon="11.548805"><ele>299.0</ele><time>2026-04-26T07:43:50.298Z</time></trkpt><trkpt lat="43.294005" lon="11.54872"><ele>299.0</ele><time>2026-04-26T07:43:51.3Z</time></trkpt><trkpt lat="43.2939267" lon="11.5486367"><ele>299.0</ele><time>2026-04-26T07:43:52.298Z</time></trkpt><trkpt lat="43.2938533" lon="11.5485483"><ele>299.0</ele><time>2026-04-26T07:43:53.299Z</time></trkpt><trkpt lat="43.293785" lon="11.5484433"><ele>299.0</ele><time>2026-04-26T07:43:54.298Z</time></trkpt><trkpt lat="43.293725" lon="11.548325"><ele>298.8</ele><time>2026-04-26T07:43:55.299Z</time></trkpt><trkpt lat="43.2936733" lon="11.54821"><ele>298.59999999999997</ele><time>2026-04-26T07:43:56.299Z</time></trkpt><trkpt lat="43.29363" lon="11.5480983"><ele>298.4</ele><time>2026-04-26T07:43:57.298Z</time></trkpt><trkpt lat="43.29359" lon="11.5479783"><ele>298.2</ele><time>2026-04-26T07:43:58.298Z</time></trkpt><trkpt lat="43.2935467" lon="11.5478617"><ele>298.0</ele><time>2026-04-26T07:43:59.299Z</time></trkpt><trkpt lat="43.2934967" lon="11.547745"><ele>298.0</ele><time>2026-04-26T07:44:00.298Z</time></trkpt><trkpt lat="43.2934383" lon="11.5476333"><ele>298.0</ele><time>2026-04-26T07:44:01.298Z</time></trkpt><trkpt lat="43.293375" lon="11.547535"><ele>298.0</ele><time>2026-04-26T07:44:02.298Z</time></trkpt><trkpt lat="43.29331" lon="11.5474483"><ele>298.0</ele><time>2026-04-26T07:44:03.298Z</time></trkpt><trkpt lat="43.29324" lon="11.5473817"><ele>298.0</ele><time>2026-04-26T07:44:04.299Z</time></trkpt><trkpt lat="43.2931617" lon="11.5473317"><ele>299.2</ele><time>2026-04-26T07:44:05.298Z</time></trkpt><trkpt lat="43.2930717" lon="11.5472983"><ele>300.4</ele><time>2026-04-26T07:44:06.298Z</time></trkpt><trkpt lat="43.29297" lon="11.54728"><ele>301.59999999999997</ele><time>2026-04-26T07:44:07.298Z</time></trkpt><trkpt lat="43.2928667" lon="11.5472717"><ele>302.8</ele><time>2026-04-26T07:44:08.3Z</time></trkpt><trkpt lat="43.2927583" lon="11.5472733"><ele>304.0</ele><time>2026-04-26T07:44:09.299Z</time></trkpt><trkpt lat="43.2926517" lon="11.5472733"><ele>304.0</ele><time>2026-04-26T07:44:10.298Z</time></trkpt><trkpt lat="43.2925467" lon="11.547275"><ele>304.0</ele><time>2026-04-26T07:44:11.298Z</time></trkpt><trkpt lat="43.2924483" lon="11.5472683"><ele>304.0</ele><time>2026-04-26T07:44:12.299Z</time></trkpt><trkpt lat="43.2923517" lon="11.5472533"><ele>304.0</ele><time>2026-04-26T07:44:13.297Z</time></trkpt><trkpt lat="43.2922567" lon="11.5472283"><ele>304.0</ele><time>2026-04-26T07:44:14.297Z</time></trkpt><trkpt lat="43.292165" lon="11.5471867"><ele>301.8</ele><time>2026-04-26T07:44:15.298Z</time></trkpt><trkpt lat="43.292085" lon="11.5471283"><ele>299.59999999999997</ele><time>2026-04-26T07:44:16.298Z</time></trkpt><trkpt lat="43.292015" lon="11.5470567"><ele>297.4</ele><time>2026-04-26T07:44:17.298Z</time></trkpt><trkpt lat="43.2919483" lon="11.54697"><ele>295.2</ele><time>2026-04-26T07:44:18.298Z</time></trkpt><trkpt lat="43.2918867" lon="11.5468717"><ele>293.0</ele><time>2026-04-26T07:44:19.299Z</time></trkpt><trkpt lat="43.29182" lon="11.5467817"><ele>293.0</ele><time>2026-04-26T07:44:20.299Z</time></trkpt><trkpt lat="43.291755" lon="11.5466883"><ele>293.0</ele><time>2026-04-26T07:44:21.296Z</time></trkpt><trkpt lat="43.2916883" lon="11.5465883"><ele>293.0</ele><time>2026-04-26T07:44:22.295Z</time></trkpt><trkpt lat="43.29162" lon="11.546485"><ele>293.0</ele><time>2026-04-26T07:44:23.298Z</time></trkpt><trkpt lat="43.2915533" lon="11.54638"><ele>293.0</ele><time>2026-04-26T07:44:24.298Z</time></trkpt><trkpt lat="43.291485" lon="11.5462783"><ele>295.6</ele><time>2026-04-26T07:44:25.297Z</time></trkpt><trkpt lat="43.2914183" lon="11.546175"><ele>298.20000000000005</ele><time>2026-04-26T07:44:26.299Z</time></trkpt><trkpt lat="43.2913567" lon="11.5460717"><ele>300.8</ele><time>2026-04-26T07:44:27.299Z</time></trkpt><trkpt lat="43.291295" lon="11.54597"><ele>303.40000000000003</ele><time>2026-04-26T07:44:28.298Z</time></trkpt><trkpt lat="43.2912317" lon="11.5458717"><ele>306.0</ele><time>2026-04-26T07:44:29.298Z</time></trkpt><trkpt lat="43.2911717" lon="11.54577"><ele>306.0</ele><time>2026-04-26T07:44:30.297Z</time></trkpt><trkpt lat="43.29111" lon="11.5456683"><ele>306.0</ele><time>2026-04-26T07:44:31.299Z</time></trkpt><trkpt lat="43.2910533" lon="11.54555"><ele>306.0</ele><time>2026-04-26T07:44:32.3Z</time></trkpt><trkpt lat="43.2910067" lon="11.5454317"><ele>306.0</ele><time>2026-04-26T07:44:33.297Z</time></trkpt><trkpt lat="43.29096" lon="11.545315"><ele>306.0</ele><time>2026-04-26T07:44:34.296Z</time></trkpt><trkpt lat="43.29091" lon="11.5451967"><ele>306.8</ele><time>2026-04-26T07:44:35.296Z</time></trkpt><trkpt lat="43.2908617" lon="11.5450767"><ele>307.6</ele><time>2026-04-26T07:44:36.296Z</time></trkpt><trkpt lat="43.290815" lon="11.5449583"><ele>308.4</ele><time>2026-04-26T07:44:37.297Z</time></trkpt><trkpt lat="43.290765" lon="11.544845"><ele>309.2</ele><time>2026-04-26T07:44:38.297Z</time></trkpt><trkpt lat="43.2907183" lon="11.544735"><ele>310.0</ele><time>2026-04-26T07:44:39.296Z</time></trkpt><trkpt lat="43.2906733" lon="11.5446233"><ele>310.6</ele><time>2026-04-26T07:44:40.298Z</time></trkpt><trkpt lat="43.2906267" lon="11.5445117"><ele>311.2</ele><time>2026-04-26T07:44:41.298Z</time></trkpt><trkpt lat="43.2905817" lon="11.5444033"><ele>311.8</ele><time>2026-04-26T07:44:42.294Z</time></trkpt><trkpt lat="43.2905333" lon="11.5442933"><ele>312.4</ele><time>2026-04-26T07:44:43.296Z</time></trkpt><trkpt lat="43.2904883" lon="11.5441867"><ele>313.0</ele><time>2026-04-26T07:44:44.298Z</time></trkpt><trkpt lat="43.29044" lon="11.5440783"><ele>313.0</ele><time>2026-04-26T07:44:45.296Z</time></trkpt><trkpt lat="43.2903883" lon="11.543975"><ele>313.0</ele><time>2026-04-26T07:44:46.3Z</time></trkpt><trkpt lat="43.2903433" lon="11.5438717"><ele>313.0</ele><time>2026-04-26T07:44:47.298Z</time></trkpt><trkpt lat="43.2903017" lon="11.54378"><ele>313.0</ele><time>2026-04-26T07:44:48.299Z</time></trkpt><trkpt lat="43.2902683" lon="11.5436967"><ele>313.0</ele><time>2026-04-26T07:44:49.299Z</time></trkpt><trkpt lat="43.2902417" lon="11.5436183"><ele>313.0</ele><time>2026-04-26T07:44:50.298Z</time></trkpt><trkpt lat="43.2902183" lon="11.5434583"><ele>312.8333333333333</ele><time>2026-04-26T07:44:52.298Z</time></trkpt><trkpt lat="43.2902367" lon="11.543285"><ele>312.66666666666663</ele><time>2026-04-26T07:44:54.298Z</time></trkpt><trkpt lat="43.2902567" lon="11.5431983"><ele>312.5</ele><time>2026-04-26T07:44:55.298Z</time></trkpt><trkpt lat="43.2902783" lon="11.5431067"><ele>312.3333333333333</ele><time>2026-04-26T07:44:56.297Z</time></trkpt><trkpt lat="43.2903033" lon="11.5430167"><ele>312.1666666666667</ele><time>2026-04-26T07:44:57.297Z</time></trkpt><trkpt lat="43.290335" lon="11.5429317"><ele>312.0</ele><time>2026-04-26T07:44:58.299Z</time></trkpt><trkpt lat="43.2903733" lon="11.54285"><ele>312.0</ele><time>2026-04-26T07:44:59.296Z</time></trkpt><trkpt lat="43.2904133" lon="11.5427667"><ele>312.0</ele><time>2026-04-26T07:45:00.298Z</time></trkpt><trkpt lat="43.2904567" lon="11.542685"><ele>312.0</ele><time>2026-04-26T07:45:01.298Z</time></trkpt><trkpt lat="43.2904983" lon="11.5426033"><ele>312.0</ele><time>2026-04-26T07:45:02.299Z</time></trkpt><trkpt lat="43.2905483" lon="11.5425117"><ele>312.0</ele><time>2026-04-26T07:45:03.299Z</time></trkpt><trkpt lat="43.2906033" lon="11.5424167"><ele>312.0</ele><time>2026-04-26T07:45:04.299Z</time></trkpt><trkpt lat="43.29066" lon="11.5423217"><ele>312.0</ele><time>2026-04-26T07:45:05.3Z</time></trkpt><trkpt lat="43.2907133" lon="11.5422283"><ele>312.0</ele><time>2026-04-26T07:45:06.299Z</time></trkpt><trkpt lat="43.290765" lon="11.5421317"><ele>312.0</ele><time>2026-04-26T07:45:07.298Z</time></trkpt><trkpt lat="43.2908183" lon="11.5420383"><ele>312.0</ele><time>2026-04-26T07:45:08.298Z</time></trkpt><trkpt lat="43.29087" lon="11.5419433"><ele>312.0</ele><time>2026-04-26T07:45:09.298Z</time></trkpt><trkpt lat="43.2909217" lon="11.541845"><ele>312.0</ele><time>2026-04-26T07:45:10.298Z</time></trkpt><trkpt lat="43.2909717" lon="11.5417483"><ele>311.6666666666667</ele><time>2026-04-26T07:45:11.299Z</time></trkpt><trkpt lat="43.2910233" lon="11.54165"><ele>311.3333333333333</ele><time>2026-04-26T07:45:12.298Z</time></trkpt><trkpt lat="43.2910717" lon="11.5415567"><ele>311.0</ele><time>2026-04-26T07:45:13.299Z</time></trkpt><trkpt lat="43.291115" lon="11.5414683"><ele>310.66666666666663</ele><time>2026-04-26T07:45:14.298Z</time></trkpt><trkpt lat="43.29116" lon="11.5413933"><ele>310.3333333333333</ele><time>2026-04-26T07:45:15.298Z</time></trkpt><trkpt lat="43.2912033" lon="11.5413283"><ele>310.0</ele><time>2026-04-26T07:45:16.298Z</time></trkpt><trkpt lat="43.291265" lon="11.5412367"><ele>310.0</ele><time>2026-04-26T07:45:18.296Z</time></trkpt><trkpt lat="43.291265" lon="11.5411467"><ele>310.0</ele><time>2026-04-26T07:45:21.298Z</time></trkpt><trkpt lat="43.291175" lon="11.541185"><ele>310.0</ele><time>2026-04-26T07:45:24.298Z</time></trkpt><trkpt lat="43.29109" lon="11.5412717"><ele>310.0</ele><time>2026-04-26T07:45:26.299Z</time></trkpt><trkpt lat="43.29103" lon="11.5413183"><ele>310.0</ele><time>2026-04-26T07:45:27.295Z</time></trkpt><trkpt lat="43.2909567" lon="11.5413533"><ele>310.0</ele><time>2026-04-26T07:45:28.298Z</time></trkpt><trkpt lat="43.2908733" lon="11.5413667"><ele>310.0</ele><time>2026-04-26T07:45:29.297Z</time></trkpt><trkpt lat="43.290785" lon="11.5413533"><ele>310.0</ele><time>2026-04-26T07:45:30.298Z</time></trkpt><trkpt lat="43.290695" lon="11.5413317"><ele>310.0</ele><time>2026-04-26T07:45:31.299Z</time></trkpt><trkpt lat="43.2906067" lon="11.5412983"><ele>310.0</ele><time>2026-04-26T07:45:32.297Z</time></trkpt><trkpt lat="43.2905183" lon="11.54126"><ele>310.0</ele><time>2026-04-26T07:45:33.296Z</time></trkpt><trkpt lat="43.29043" lon="11.54123"><ele>308.4</ele><time>2026-04-26T07:45:34.296Z</time></trkpt><trkpt lat="43.2903433" lon="11.5412017"><ele>306.8</ele><time>2026-04-26T07:45:35.297Z</time></trkpt><trkpt lat="43.2902517" lon="11.5411833"><ele>305.2</ele><time>2026-04-26T07:45:36.297Z</time></trkpt><trkpt lat="43.2901617" lon="11.54117"><ele>303.6</ele><time>2026-04-26T07:45:37.296Z</time></trkpt><trkpt lat="43.290065" lon="11.54117"><ele>302.0</ele><time>2026-04-26T07:45:38.297Z</time></trkpt><trkpt lat="43.2899667" lon="11.541175"><ele>302.0</ele><time>2026-04-26T07:45:39.297Z</time></trkpt><trkpt lat="43.28987" lon="11.5411817"><ele>302.0</ele><time>2026-04-26T07:45:40.297Z</time></trkpt><trkpt lat="43.2897783" lon="11.54118"><ele>302.0</ele><time>2026-04-26T07:45:41.298Z</time></trkpt><trkpt lat="43.2896833" lon="11.5411683"><ele>302.0</ele><time>2026-04-26T07:45:42.297Z</time></trkpt><trkpt lat="43.2895883" lon="11.5411483"><ele>302.0</ele><time>2026-04-26T07:45:43.298Z</time></trkpt><trkpt lat="43.2895017" lon="11.5411217"><ele>302.0</ele><time>2026-04-26T07:45:44.298Z</time></trkpt><trkpt lat="43.2894233" lon="11.541095"><ele>302.0</ele><time>2026-04-26T07:45:45.298Z</time></trkpt><trkpt lat="43.289345" lon="11.5410733"><ele>302.0</ele><time>2026-04-26T07:45:46.3Z</time></trkpt><trkpt lat="43.2892617" lon="11.5410683"><ele>302.0</ele><time>2026-04-26T07:45:47.297Z</time></trkpt><trkpt lat="43.2891683" lon="11.5410783"><ele>302.0</ele><time>2026-04-26T07:45:48.297Z</time></trkpt><trkpt lat="43.2890717" lon="11.5410967"><ele>302.0</ele><time>2026-04-26T07:45:49.296Z</time></trkpt><trkpt lat="43.2889733" lon="11.541125"><ele>302.0</ele><time>2026-04-26T07:45:50.296Z</time></trkpt><trkpt lat="43.2888767" lon="11.5411533"><ele>302.0</ele><time>2026-04-26T07:45:51.295Z</time></trkpt><trkpt lat="43.2887783" lon="11.5411867"><ele>302.0</ele><time>2026-04-26T07:45:52.295Z</time></trkpt><trkpt lat="43.288685" lon="11.5412167"><ele>302.0</ele><time>2026-04-26T07:45:53.297Z</time></trkpt><trkpt lat="43.288595" lon="11.5412567"><ele>302.0</ele><time>2026-04-26T07:45:54.299Z</time></trkpt><trkpt lat="43.2885117" lon="11.54131"><ele>302.0</ele><time>2026-04-26T07:45:55.298Z</time></trkpt><trkpt lat="43.2884367" lon="11.54137"><ele>302.0</ele><time>2026-04-26T07:45:56.297Z</time></trkpt><trkpt lat="43.2883733" lon="11.5414383"><ele>302.0</ele><time>2026-04-26T07:45:57.298Z</time></trkpt><trkpt lat="43.288315" lon="11.5415183"><ele>302.0</ele><time>2026-04-26T07:45:58.299Z</time></trkpt><trkpt lat="43.2882667" lon="11.541615"><ele>302.0</ele><time>2026-04-26T07:45:59.299Z</time></trkpt><trkpt lat="43.2882267" lon="11.5417267"><ele>302.0</ele><time>2026-04-26T07:46:00.299Z</time></trkpt><trkpt lat="43.288185" lon="11.5418417"><ele>302.0</ele><time>2026-04-26T07:46:01.298Z</time></trkpt><trkpt lat="43.2881433" lon="11.541955"><ele>302.0</ele><time>2026-04-26T07:46:02.298Z</time></trkpt><trkpt lat="43.288095" lon="11.5420683"><ele>302.0</ele><time>2026-04-26T07:46:03.295Z</time></trkpt><trkpt lat="43.2880433" lon="11.5421717"><ele>302.0</ele><time>2026-04-26T07:46:04.299Z</time></trkpt><trkpt lat="43.2879867" lon="11.542265"><ele>302.0</ele><time>2026-04-26T07:46:05.296Z</time></trkpt><trkpt lat="43.28793" lon="11.54236"><ele>300.4</ele><time>2026-04-26T07:46:06.296Z</time></trkpt><trkpt lat="43.287875" lon="11.542455"><ele>298.79999999999995</ele><time>2026-04-26T07:46:07.298Z</time></trkpt><trkpt lat="43.2878233" lon="11.54256"><ele>297.2</ele><time>2026-04-26T07:46:08.299Z</time></trkpt><trkpt lat="43.28778" lon="11.54268"><ele>295.59999999999997</ele><time>2026-04-26T07:46:09.299Z</time></trkpt><trkpt lat="43.2877433" lon="11.5428083"><ele>294.0</ele><time>2026-04-26T07:46:10.299Z</time></trkpt><trkpt lat="43.2877117" lon="11.54294"><ele>294.0</ele><time>2026-04-26T07:46:11.298Z</time></trkpt><trkpt lat="43.28768" lon="11.54307"><ele>294.0</ele><time>2026-04-26T07:46:12.299Z</time></trkpt><trkpt lat="43.2876483" lon="11.5431983"><ele>294.0</ele><time>2026-04-26T07:46:13.298Z</time></trkpt><trkpt lat="43.2876267" lon="11.5433267"><ele>294.0</ele><time>2026-04-26T07:46:14.299Z</time></trkpt><trkpt lat="43.2876167" lon="11.543455"><ele>294.0</ele><time>2026-04-26T07:46:15.298Z</time></trkpt><trkpt lat="43.2876167" lon="11.5435833"><ele>294.0</ele><time>2026-04-26T07:46:16.299Z</time></trkpt><trkpt lat="43.2876183" lon="11.5437133"><ele>294.0</ele><time>2026-04-26T07:46:17.297Z</time></trkpt><trkpt lat="43.2876133" lon="11.5438417"><ele>294.0</ele><time>2026-04-26T07:46:18.298Z</time></trkpt><trkpt lat="43.2876" lon="11.5439667"><ele>294.0</ele><time>2026-04-26T07:46:19.296Z</time></trkpt><trkpt lat="43.2875733" lon="11.5440883"><ele>294.0</ele><time>2026-04-26T07:46:20.296Z</time></trkpt><trkpt lat="43.2875383" lon="11.5442117"><ele>295.0</ele><time>2026-04-26T07:46:21.296Z</time></trkpt><trkpt lat="43.2874967" lon="11.544335"><ele>296.0</ele><time>2026-04-26T07:46:22.297Z</time></trkpt><trkpt lat="43.2874583" lon="11.5444583"><ele>297.0</ele><time>2026-04-26T07:46:23.298Z</time></trkpt><trkpt lat="43.2874283" lon="11.5445867"><ele>298.0</ele><time>2026-04-26T07:46:24.298Z</time></trkpt><trkpt lat="43.2874067" lon="11.54472"><ele>299.0</ele><time>2026-04-26T07:46:25.3Z</time></trkpt><trkpt lat="43.2873883" lon="11.54486"><ele>299.4</ele><time>2026-04-26T07:46:26.299Z</time></trkpt><trkpt lat="43.287375" lon="11.545005"><ele>299.79999999999995</ele><time>2026-04-26T07:46:27.298Z</time></trkpt><trkpt lat="43.287365" lon="11.5451517"><ele>300.20000000000005</ele><time>2026-04-26T07:46:28.299Z</time></trkpt><trkpt lat="43.2873517" lon="11.5452917"><ele>300.6</ele><time>2026-04-26T07:46:29.299Z</time></trkpt><trkpt lat="43.287335" lon="11.5454317"><ele>301.0</ele><time>2026-04-26T07:46:30.299Z</time></trkpt><trkpt lat="43.287315" lon="11.5455683"><ele>300.16666666666663</ele><time>2026-04-26T07:46:31.299Z</time></trkpt><trkpt lat="43.28729" lon="11.5457"><ele>299.3333333333333</ele><time>2026-04-26T07:46:32.297Z</time></trkpt><trkpt lat="43.2872667" lon="11.54582"><ele>298.5</ele><time>2026-04-26T07:46:33.296Z</time></trkpt><trkpt lat="43.2872383" lon="11.54592"><ele>297.6666666666667</ele><time>2026-04-26T07:46:34.298Z</time></trkpt><trkpt lat="43.2871967" lon="11.5460067"><ele>296.83333333333337</ele><time>2026-04-26T07:46:35.298Z</time></trkpt><trkpt lat="43.2871383" lon="11.5460817"><ele>296.0</ele><time>2026-04-26T07:46:36.297Z</time></trkpt><trkpt lat="43.2870583" lon="11.54613"><ele>299.2</ele><time>2026-04-26T07:46:37.298Z</time></trkpt><trkpt lat="43.2869567" lon="11.5461467"><ele>302.40000000000003</ele><time>2026-04-26T07:46:38.298Z</time></trkpt><trkpt lat="43.2868533" lon="11.5461417"><ele>305.6</ele><time>2026-04-26T07:46:39.298Z</time></trkpt><trkpt lat="43.2867567" lon="11.5461117"><ele>308.8</ele><time>2026-04-26T07:46:40.299Z</time></trkpt><trkpt lat="43.2866683" lon="11.5460483"><ele>312.0</ele><time>2026-04-26T07:46:41.299Z</time></trkpt><trkpt lat="43.2865783" lon="11.545985"><ele>312.0</ele><time>2026-04-26T07:46:42.298Z</time></trkpt><trkpt lat="43.2864983" lon="11.545925"><ele>312.0</ele><time>2026-04-26T07:46:43.297Z</time></trkpt><trkpt lat="43.2864217" lon="11.5458767"><ele>312.0</ele><time>2026-04-26T07:46:44.296Z</time></trkpt><trkpt lat="43.2863417" lon="11.5458533"><ele>312.0</ele><time>2026-04-26T07:46:45.298Z</time></trkpt><trkpt lat="43.2862617" lon="11.5458467"><ele>312.0</ele><time>2026-04-26T07:46:46.298Z</time></trkpt><trkpt lat="43.2861733" lon="11.5458683"><ele>312.0</ele><time>2026-04-26T07:46:47.296Z</time></trkpt><trkpt lat="43.2860883" lon="11.5459167"><ele>312.4</ele><time>2026-04-26T07:46:48.296Z</time></trkpt><trkpt lat="43.2859983" lon="11.54599"><ele>312.79999999999995</ele><time>2026-04-26T07:46:49.297Z</time></trkpt><trkpt lat="43.28591" lon="11.546065"><ele>313.2</ele><time>2026-04-26T07:46:50.296Z</time></trkpt><trkpt lat="43.2858217" lon="11.546145"><ele>313.59999999999997</ele><time>2026-04-26T07:46:51.296Z</time></trkpt><trkpt lat="43.2857317" lon="11.5462233"><ele>314.0</ele><time>2026-04-26T07:46:52.298Z</time></trkpt><trkpt lat="43.285635" lon="11.5462933"><ele>313.2</ele><time>2026-04-26T07:46:53.297Z</time></trkpt><trkpt lat="43.2855367" lon="11.5463567"><ele>312.4</ele><time>2026-04-26T07:46:54.299Z</time></trkpt><trkpt lat="43.285435" lon="11.546415"><ele>311.6</ele><time>2026-04-26T07:46:55.298Z</time></trkpt><trkpt lat="43.285345" lon="11.5464617"><ele>310.8</ele><time>2026-04-26T07:46:56.298Z</time></trkpt><trkpt lat="43.285255" lon="11.546505"><ele>310.0</ele><time>2026-04-26T07:46:57.296Z</time></trkpt><trkpt lat="43.2851667" lon="11.5465617"><ele>310.0</ele><time>2026-04-26T07:46:58.298Z</time></trkpt><trkpt lat="43.2850817" lon="11.5466217"><ele>310.0</ele><time>2026-04-26T07:46:59.297Z</time></trkpt><trkpt lat="43.285" lon="11.5466817"><ele>310.0</ele><time>2026-04-26T07:47:00.294Z</time></trkpt><trkpt lat="43.284925" lon="11.5467633"><ele>310.0</ele><time>2026-04-26T07:47:01.299Z</time></trkpt><trkpt lat="43.2848633" lon="11.5468517"><ele>310.0</ele><time>2026-04-26T07:47:02.3Z</time></trkpt><trkpt lat="43.28481" lon="11.54695"><ele>309.4</ele><time>2026-04-26T07:47:03.299Z</time></trkpt><trkpt lat="43.28477" lon="11.5470667"><ele>308.8</ele><time>2026-04-26T07:47:04.298Z</time></trkpt><trkpt lat="43.28474" lon="11.547195"><ele>308.2</ele><time>2026-04-26T07:47:05.298Z</time></trkpt><trkpt lat="43.28472" lon="11.54733"><ele>307.6</ele><time>2026-04-26T07:47:06.294Z</time></trkpt><trkpt lat="43.284705" lon="11.5474717"><ele>307.0</ele><time>2026-04-26T07:47:07.297Z</time></trkpt><trkpt lat="43.2846867" lon="11.5476183"><ele>304.6</ele><time>2026-04-26T07:47:08.298Z</time></trkpt><trkpt lat="43.2846633" lon="11.54776"><ele>302.2</ele><time>2026-04-26T07:47:09.297Z</time></trkpt><trkpt lat="43.284625" lon="11.5478967"><ele>299.8</ele><time>2026-04-26T07:47:10.298Z</time></trkpt><trkpt lat="43.28458" lon="11.5480317"><ele>297.4</ele><time>2026-04-26T07:47:11.298Z</time></trkpt><trkpt lat="43.2845267" lon="11.5481617"><ele>295.0</ele><time>2026-04-26T07:47:12.298Z</time></trkpt><trkpt lat="43.2844717" lon="11.5482883"><ele>295.0</ele><time>2026-04-26T07:47:13.298Z</time></trkpt><trkpt lat="43.2844217" lon="11.548405"><ele>295.0</ele><time>2026-04-26T07:47:14.298Z</time></trkpt><trkpt lat="43.284375" lon="11.5485117"><ele>295.0</ele><time>2026-04-26T07:47:15.294Z</time></trkpt><trkpt lat="43.284325" lon="11.54861"><ele>295.0</ele><time>2026-04-26T07:47:16.297Z</time></trkpt><trkpt lat="43.2842667" lon="11.5486933"><ele>295.0</ele><time>2026-04-26T07:47:17.296Z</time></trkpt><trkpt lat="43.2841917" lon="11.5487567"><ele>295.0</ele><time>2026-04-26T07:47:18.297Z</time></trkpt><trkpt lat="43.2841117" lon="11.5488067"><ele>295.4</ele><time>2026-04-26T07:47:19.296Z</time></trkpt><trkpt lat="43.2840183" lon="11.54883"><ele>295.8</ele><time>2026-04-26T07:47:20.297Z</time></trkpt><trkpt lat="43.2839117" lon="11.5488317"><ele>296.2</ele><time>2026-04-26T07:47:21.296Z</time></trkpt><trkpt lat="43.2838017" lon="11.548815"><ele>296.6</ele><time>2026-04-26T07:47:22.296Z</time></trkpt><trkpt lat="43.2836917" lon="11.5487967"><ele>297.0</ele><time>2026-04-26T07:47:23.295Z</time></trkpt><trkpt lat="43.28359" lon="11.548765"><ele>297.4</ele><time>2026-04-26T07:47:24.299Z</time></trkpt><trkpt lat="43.2834867" lon="11.5487267"><ele>297.79999999999995</ele><time>2026-04-26T07:47:25.299Z</time></trkpt><trkpt lat="43.28339" lon="11.5486783"><ele>298.2</ele><time>2026-04-26T07:47:26.298Z</time></trkpt><trkpt lat="43.2832967" lon="11.5486133"><ele>298.59999999999997</ele><time>2026-04-26T07:47:27.298Z</time></trkpt><trkpt lat="43.2832067" lon="11.548545"><ele>299.0</ele><time>2026-04-26T07:47:28.297Z</time></trkpt><trkpt lat="43.28312" lon="11.5484683"><ele>300.8</ele><time>2026-04-26T07:47:29.299Z</time></trkpt><trkpt lat="43.28303" lon="11.5483917"><ele>302.59999999999997</ele><time>2026-04-26T07:47:30.298Z</time></trkpt><trkpt lat="43.2829417" lon="11.54832"><ele>304.4</ele><time>2026-04-26T07:47:31.296Z</time></trkpt><trkpt lat="43.282855" lon="11.5482533"><ele>306.2</ele><time>2026-04-26T07:47:32.297Z</time></trkpt><trkpt lat="43.2827667" lon="11.5482017"><ele>308.0</ele><time>2026-04-26T07:47:33.296Z</time></trkpt><trkpt lat="43.2826767" lon="11.5481683"><ele>308.0</ele><time>2026-04-26T07:47:34.296Z</time></trkpt><trkpt lat="43.28258" lon="11.5481483"><ele>308.0</ele><time>2026-04-26T07:47:35.296Z</time></trkpt><trkpt lat="43.2824833" lon="11.5481417"><ele>308.0</ele><time>2026-04-26T07:47:36.298Z</time></trkpt><trkpt lat="43.2824017" lon="11.5481367"><ele>308.0</ele><time>2026-04-26T07:47:37.297Z</time></trkpt><trkpt lat="43.282325" lon="11.5481283"><ele>308.0</ele><time>2026-04-26T07:47:38.298Z</time></trkpt><trkpt lat="43.282255" lon="11.5481217"><ele>308.0</ele><time>2026-04-26T07:47:39.296Z</time></trkpt><trkpt lat="43.2821883" lon="11.548125"><ele>306.6</ele><time>2026-04-26T07:47:40.298Z</time></trkpt><trkpt lat="43.282085" lon="11.5481367"><ele>305.20000000000005</ele><time>2026-04-26T07:47:42.298Z</time></trkpt><trkpt lat="43.28199" lon="11.5481167"><ele>303.8</ele><time>2026-04-26T07:47:44.298Z</time></trkpt><trkpt lat="43.2818767" lon="11.5481167"><ele>302.40000000000003</ele><time>2026-04-26T07:47:46.298Z</time></trkpt><trkpt lat="43.2817533" lon="11.5481417"><ele>301.0</ele><time>2026-04-26T07:47:48.299Z</time></trkpt><trkpt lat="43.2816917" lon="11.5481783"><ele>301.0</ele><time>2026-04-26T07:47:49.299Z</time></trkpt><trkpt lat="43.2816183" lon="11.5482317"><ele>301.0</ele><time>2026-04-26T07:47:50.297Z</time></trkpt><trkpt lat="43.2815533" lon="11.5482933"><ele>301.0</ele><time>2026-04-26T07:47:51.299Z</time></trkpt><trkpt lat="43.28149" lon="11.5483567"><ele>301.0</ele><time>2026-04-26T07:47:52.298Z</time></trkpt><trkpt lat="43.2814233" lon="11.548425"><ele>301.0</ele><time>2026-04-26T07:47:53.299Z</time></trkpt><trkpt lat="43.2813583" lon="11.548485"><ele>301.0</ele><time>2026-04-26T07:47:54.298Z</time></trkpt><trkpt lat="43.2812917" lon="11.5485533"><ele>297.0</ele><time>2026-04-26T07:47:55.297Z</time></trkpt><trkpt lat="43.2812217" lon="11.5486267"><ele>293.0</ele><time>2026-04-26T07:47:56.298Z</time></trkpt><trkpt lat="43.2811533" lon="11.5487067"><ele>289.0</ele><time>2026-04-26T07:47:57.299Z</time></trkpt><trkpt lat="43.2810833" lon="11.5487933"><ele>285.0</ele><time>2026-04-26T07:47:58.299Z</time></trkpt><trkpt lat="43.2810133" lon="11.5488867"><ele>281.0</ele><time>2026-04-26T07:47:59.299Z</time></trkpt><trkpt lat="43.2809483" lon="11.5489783"><ele>281.0</ele><time>2026-04-26T07:48:00.295Z</time></trkpt><trkpt lat="43.280885" lon="11.5490867"><ele>281.0</ele><time>2026-04-26T07:48:01.298Z</time></trkpt><trkpt lat="43.2808183" lon="11.5492067"><ele>281.0</ele><time>2026-04-26T07:48:02.295Z</time></trkpt><trkpt lat="43.2807533" lon="11.5493217"><ele>281.0</ele><time>2026-04-26T07:48:03.295Z</time></trkpt><trkpt lat="43.2806783" lon="11.5494317"><ele>281.0</ele><time>2026-04-26T07:48:04.295Z</time></trkpt><trkpt lat="43.2805933" lon="11.5495283"><ele>278.6</ele><time>2026-04-26T07:48:05.296Z</time></trkpt><trkpt lat="43.2805017" lon="11.549605"><ele>276.20000000000005</ele><time>2026-04-26T07:48:06.297Z</time></trkpt><trkpt lat="43.2804117" lon="11.5496667"><ele>273.79999999999995</ele><time>2026-04-26T07:48:07.296Z</time></trkpt><trkpt lat="43.2803183" lon="11.5497233"><ele>271.4</ele><time>2026-04-26T07:48:08.297Z</time></trkpt><trkpt lat="43.2802233" lon="11.5497783"><ele>269.0</ele><time>2026-04-26T07:48:09.296Z</time></trkpt><trkpt lat="43.2801267" lon="11.549825"><ele>269.0</ele><time>2026-04-26T07:48:10.296Z</time></trkpt><trkpt lat="43.2800317" lon="11.549865"><ele>269.0</ele><time>2026-04-26T07:48:11.298Z</time></trkpt><trkpt lat="43.2799333" lon="11.54989"><ele>269.0</ele><time>2026-04-26T07:48:12.297Z</time></trkpt><trkpt lat="43.2798333" lon="11.5499033"><ele>269.0</ele><time>2026-04-26T07:48:13.298Z</time></trkpt><trkpt lat="43.2797333" lon="11.5499033"><ele>269.0</ele><time>2026-04-26T07:48:14.3Z</time></trkpt><trkpt lat="43.2796317" lon="11.5498917"><ele>269.59999999999997</ele><time>2026-04-26T07:48:15.299Z</time></trkpt><trkpt lat="43.2795283" lon="11.5498633"><ele>270.2</ele><time>2026-04-26T07:48:16.298Z</time></trkpt><trkpt lat="43.2794283" lon="11.5498217"><ele>270.79999999999995</ele><time>2026-04-26T07:48:17.299Z</time></trkpt><trkpt lat="43.279335" lon="11.5497667"><ele>271.4</ele><time>2026-04-26T07:48:18.298Z</time></trkpt><trkpt lat="43.279245" lon="11.5497017"><ele>272.0</ele><time>2026-04-26T07:48:19.299Z</time></trkpt><trkpt lat="43.2791567" lon="11.5496367"><ele>272.0</ele><time>2026-04-26T07:48:20.299Z</time></trkpt><trkpt lat="43.2790683" lon="11.5495767"><ele>272.0</ele><time>2026-04-26T07:48:21.294Z</time></trkpt><trkpt lat="43.27898" lon="11.5495167"><ele>272.0</ele><time>2026-04-26T07:48:22.299Z</time></trkpt><trkpt lat="43.278895" lon="11.54947"><ele>272.0</ele><time>2026-04-26T07:48:23.298Z</time></trkpt><trkpt lat="43.27881" lon="11.5494417"><ele>272.0</ele><time>2026-04-26T07:48:24.298Z</time></trkpt><trkpt lat="43.2787217" lon="11.5494283"><ele>272.4</ele><time>2026-04-26T07:48:25.299Z</time></trkpt><trkpt lat="43.27863" lon="11.5494233"><ele>272.79999999999995</ele><time>2026-04-26T07:48:26.299Z</time></trkpt><trkpt lat="43.278535" lon="11.54942"><ele>273.2</ele><time>2026-04-26T07:48:27.298Z</time></trkpt><trkpt lat="43.2784383" lon="11.549415"><ele>273.59999999999997</ele><time>2026-04-26T07:48:28.298Z</time></trkpt><trkpt lat="43.27834" lon="11.5494133"><ele>274.0</ele><time>2026-04-26T07:48:29.299Z</time></trkpt><trkpt lat="43.2782383" lon="11.54941"><ele>274.0</ele><time>2026-04-26T07:48:30.297Z</time></trkpt><trkpt lat="43.2781383" lon="11.5494117"><ele>274.0</ele><time>2026-04-26T07:48:31.297Z</time></trkpt><trkpt lat="43.2780383" lon="11.5494083"><ele>274.0</ele><time>2026-04-26T07:48:32.298Z</time></trkpt><trkpt lat="43.2779383" lon="11.5494"><ele>274.0</ele><time>2026-04-26T07:48:33.298Z</time></trkpt><trkpt lat="43.277845" lon="11.5493783"><ele>274.0</ele><time>2026-04-26T07:48:34.299Z</time></trkpt><trkpt lat="43.2777533" lon="11.5493317"><ele>277.0</ele><time>2026-04-26T07:48:35.299Z</time></trkpt><trkpt lat="43.2776683" lon="11.5492717"><ele>280.0</ele><time>2026-04-26T07:48:36.298Z</time></trkpt><trkpt lat="43.2775867" lon="11.5491967"><ele>283.0</ele><time>2026-04-26T07:48:37.298Z</time></trkpt><trkpt lat="43.2775083" lon="11.5491267"><ele>286.0</ele><time>2026-04-26T07:48:38.298Z</time></trkpt><trkpt lat="43.2774267" lon="11.549055"><ele>289.0</ele><time>2026-04-26T07:48:39.299Z</time></trkpt><trkpt lat="43.2773417" lon="11.5489817"><ele>290.0</ele><time>2026-04-26T07:48:40.298Z</time></trkpt><trkpt lat="43.2772533" lon="11.5489117"><ele>291.0</ele><time>2026-04-26T07:48:41.298Z</time></trkpt><trkpt lat="43.2771667" lon="11.5488367"><ele>292.0</ele><time>2026-04-26T07:48:42.296Z</time></trkpt><trkpt lat="43.2770783" lon="11.548755"><ele>293.0</ele><time>2026-04-26T07:48:43.298Z</time></trkpt><trkpt lat="43.2769933" lon="11.5486667"><ele>294.0</ele><time>2026-04-26T07:48:44.299Z</time></trkpt><trkpt lat="43.2769083" lon="11.5485817"><ele>294.0</ele><time>2026-04-26T07:48:45.299Z</time></trkpt><trkpt lat="43.2768267" lon="11.5485"><ele>294.0</ele><time>2026-04-26T07:48:46.299Z</time></trkpt><trkpt lat="43.276745" lon="11.5484283"><ele>294.0</ele><time>2026-04-26T07:48:47.298Z</time></trkpt><trkpt lat="43.2766633" lon="11.5483617"><ele>294.0</ele><time>2026-04-26T07:48:48.298Z</time></trkpt><trkpt lat="43.27658" lon="11.5483067"><ele>294.0</ele><time>2026-04-26T07:48:49.299Z</time></trkpt><trkpt lat="43.2764983" lon="11.5482633"><ele>295.4</ele><time>2026-04-26T07:48:50.298Z</time></trkpt><trkpt lat="43.276415" lon="11.548225"><ele>296.79999999999995</ele><time>2026-04-26T07:48:51.299Z</time></trkpt><trkpt lat="43.2763267" lon="11.5481933"><ele>298.20000000000005</ele><time>2026-04-26T07:48:52.299Z</time></trkpt><trkpt lat="43.27623" lon="11.548165"><ele>299.6</ele><time>2026-04-26T07:48:53.299Z</time></trkpt><trkpt lat="43.2761333" lon="11.5481317"><ele>301.0</ele><time>2026-04-26T07:48:54.298Z</time></trkpt><trkpt lat="43.2760417" lon="11.5480983"><ele>301.0</ele><time>2026-04-26T07:48:55.299Z</time></trkpt><trkpt lat="43.2759517" lon="11.5480633"><ele>301.0</ele><time>2026-04-26T07:48:56.298Z</time></trkpt><trkpt lat="43.275865" lon="11.5480267"><ele>301.0</ele><time>2026-04-26T07:48:57.297Z</time></trkpt><trkpt lat="43.2757767" lon="11.547985"><ele>301.0</ele><time>2026-04-26T07:48:58.298Z</time></trkpt><trkpt lat="43.2756917" lon="11.54794"><ele>301.0</ele><time>2026-04-26T07:48:59.298Z</time></trkpt><trkpt lat="43.275615" lon="11.5478933"><ele>298.85714285714283</ele><time>2026-04-26T07:49:00.298Z</time></trkpt><trkpt lat="43.27555" lon="11.547845"><ele>296.7142857142857</ele><time>2026-04-26T07:49:01.299Z</time></trkpt><trkpt lat="43.2754917" lon="11.547795"><ele>294.57142857142856</ele><time>2026-04-26T07:49:02.298Z</time></trkpt><trkpt lat="43.275435" lon="11.5477433"><ele>292.42857142857144</ele><time>2026-04-26T07:49:03.298Z</time></trkpt><trkpt lat="43.2753783" lon="11.5476883"><ele>290.2857142857143</ele><time>2026-04-26T07:49:04.298Z</time></trkpt><trkpt lat="43.27532" lon="11.5476333"><ele>288.1428571428571</ele><time>2026-04-26T07:49:05.298Z</time></trkpt><trkpt lat="43.2752583" lon="11.5475767"><ele>286.0</ele><time>2026-04-26T07:49:06.298Z</time></trkpt><trkpt lat="43.2751933" lon="11.54752"><ele>286.0</ele><time>2026-04-26T07:49:07.298Z</time></trkpt><trkpt lat="43.275125" lon="11.5474633"><ele>286.0</ele><time>2026-04-26T07:49:08.299Z</time></trkpt><trkpt lat="43.2750533" lon="11.5474017"><ele>286.0</ele><time>2026-04-26T07:49:09.298Z</time></trkpt><trkpt lat="43.2749783" lon="11.5473383"><ele>286.0</ele><time>2026-04-26T07:49:10.298Z</time></trkpt><trkpt lat="43.2749017" lon="11.547275"><ele>286.0</ele><time>2026-04-26T07:49:11.299Z</time></trkpt><trkpt lat="43.2748267" lon="11.5472167"><ele>286.0</ele><time>2026-04-26T07:49:12.298Z</time></trkpt><trkpt lat="43.2747517" lon="11.5471633"><ele>284.8333333333333</ele><time>2026-04-26T07:49:13.298Z</time></trkpt><trkpt lat="43.2746767" lon="11.5471167"><ele>283.66666666666663</ele><time>2026-04-26T07:49:14.299Z</time></trkpt><trkpt lat="43.274595" lon="11.54708"><ele>282.5</ele><time>2026-04-26T07:49:15.296Z</time></trkpt><trkpt lat="43.2745117" lon="11.54706"><ele>281.3333333333333</ele><time>2026-04-26T07:49:16.294Z</time></trkpt><trkpt lat="43.2744267" lon="11.5470583"><ele>280.1666666666667</ele><time>2026-04-26T07:49:17.298Z</time></trkpt><trkpt lat="43.2743383" lon="11.5470667"><ele>279.0</ele><time>2026-04-26T07:49:18.295Z</time></trkpt><trkpt lat="43.2742483" lon="11.5470767"><ele>279.0</ele><time>2026-04-26T07:49:19.297Z</time></trkpt><trkpt lat="43.274155" lon="11.5470867"><ele>279.0</ele><time>2026-04-26T07:49:20.297Z</time></trkpt><trkpt lat="43.2740617" lon="11.54709"><ele>279.0</ele><time>2026-04-26T07:49:21.297Z</time></trkpt><trkpt lat="43.27397" lon="11.5470917"><ele>279.0</ele><time>2026-04-26T07:49:22.296Z</time></trkpt><trkpt lat="43.2738817" lon="11.5470867"><ele>279.0</ele><time>2026-04-26T07:49:23.297Z</time></trkpt><trkpt lat="43.2737967" lon="11.54707"><ele>276.0</ele><time>2026-04-26T07:49:24.299Z</time></trkpt><trkpt lat="43.2737133" lon="11.5470367"><ele>273.0</ele><time>2026-04-26T07:49:25.299Z</time></trkpt><trkpt lat="43.2736367" lon="11.5469867"><ele>270.0</ele><time>2026-04-26T07:49:26.299Z</time></trkpt><trkpt lat="43.2735633" lon="11.5469183"><ele>267.0</ele><time>2026-04-26T07:49:27.298Z</time></trkpt><trkpt lat="43.2735" lon="11.5468317"><ele>264.0</ele><time>2026-04-26T07:49:28.298Z</time></trkpt><trkpt lat="43.2734417" lon="11.5467317"><ele>261.0</ele><time>2026-04-26T07:49:29.298Z</time></trkpt><trkpt lat="43.2733917" lon="11.54662"><ele>261.0</ele><time>2026-04-26T07:49:30.299Z</time></trkpt><trkpt lat="43.273345" lon="11.5465017"><ele>261.0</ele><time>2026-04-26T07:49:31.299Z</time></trkpt><trkpt lat="43.2733017" lon="11.5463767"><ele>261.0</ele><time>2026-04-26T07:49:32.298Z</time></trkpt><trkpt lat="43.2732617" lon="11.5462517"><ele>261.0</ele><time>2026-04-26T07:49:33.298Z</time></trkpt><trkpt lat="43.273225" lon="11.546125"><ele>261.0</ele><time>2026-04-26T07:49:34.295Z</time></trkpt><trkpt lat="43.2732" lon="11.5459933"><ele>259.2</ele><time>2026-04-26T07:49:35.299Z</time></trkpt><trkpt lat="43.27318" lon="11.5458517"><ele>257.40000000000003</ele><time>2026-04-26T07:49:36.297Z</time></trkpt><trkpt lat="43.2731633" lon="11.545705"><ele>255.6</ele><time>2026-04-26T07:49:37.297Z</time></trkpt><trkpt lat="43.2731567" lon="11.5455517"><ele>253.8</ele><time>2026-04-26T07:49:38.298Z</time></trkpt><trkpt lat="43.2731567" lon="11.5453983"><ele>252.0</ele><time>2026-04-26T07:49:39.299Z</time></trkpt><trkpt lat="43.2731633" lon="11.5452467"><ele>250.6</ele><time>2026-04-26T07:49:40.299Z</time></trkpt><trkpt lat="43.27317" lon="11.5451017"><ele>249.2</ele><time>2026-04-26T07:49:41.299Z</time></trkpt><trkpt lat="43.2731733" lon="11.544965"><ele>247.8</ele><time>2026-04-26T07:49:42.3Z</time></trkpt><trkpt lat="43.27318" lon="11.5448317"><ele>246.4</ele><time>2026-04-26T07:49:43.298Z</time></trkpt><trkpt lat="43.2731867" lon="11.5447"><ele>245.0</ele><time>2026-04-26T07:49:44.296Z</time></trkpt><trkpt lat="43.2731933" lon="11.5445733"><ele>244.0</ele><time>2026-04-26T07:49:45.295Z</time></trkpt><trkpt lat="43.2732083" lon="11.54445"><ele>243.0</ele><time>2026-04-26T07:49:46.294Z</time></trkpt><trkpt lat="43.27324" lon="11.544335"><ele>242.0</ele><time>2026-04-26T07:49:47.298Z</time></trkpt><trkpt lat="43.2732917" lon="11.54423"><ele>241.0</ele><time>2026-04-26T07:49:48.298Z</time></trkpt><trkpt lat="43.2733517" lon="11.5441333"><ele>240.0</ele><time>2026-04-26T07:49:49.299Z</time></trkpt><trkpt lat="43.2734117" lon="11.5440433"><ele>240.0</ele><time>2026-04-26T07:49:50.3Z</time></trkpt><trkpt lat="43.2734733" lon="11.5439633"><ele>240.0</ele><time>2026-04-26T07:49:51.299Z</time></trkpt><trkpt lat="43.2735267" lon="11.54388"><ele>240.0</ele><time>2026-04-26T07:49:52.297Z</time></trkpt><trkpt lat="43.2735733" lon="11.5437967"><ele>240.0</ele><time>2026-04-26T07:49:53.298Z</time></trkpt><trkpt lat="43.2736133" lon="11.5437017"><ele>240.0</ele><time>2026-04-26T07:49:54.298Z</time></trkpt><trkpt lat="43.2736417" lon="11.5436"><ele>240.0</ele><time>2026-04-26T07:49:55.299Z</time></trkpt><trkpt lat="43.27365" lon="11.5434983"><ele>238.66666666666666</ele><time>2026-04-26T07:49:56.299Z</time></trkpt><trkpt lat="43.2736367" lon="11.5434"><ele>237.33333333333331</ele><time>2026-04-26T07:49:57.297Z</time></trkpt><trkpt lat="43.2736" lon="11.5433067"><ele>236.0</ele><time>2026-04-26T07:49:58.297Z</time></trkpt><trkpt lat="43.2735367" lon="11.5432167"><ele>234.66666666666666</ele><time>2026-04-26T07:49:59.299Z</time></trkpt><trkpt lat="43.273465" lon="11.5431317"><ele>233.33333333333331</ele><time>2026-04-26T07:50:00.297Z</time></trkpt><trkpt lat="43.27339" lon="11.5430567"><ele>232.0</ele><time>2026-04-26T07:50:01.296Z</time></trkpt><trkpt lat="43.2733167" lon="11.5429933"><ele>231.99999999999997</ele><time>2026-04-26T07:50:02.298Z</time></trkpt><trkpt lat="43.2732417" lon="11.54294"><ele>232.0</ele><time>2026-04-26T07:50:03.299Z</time></trkpt><trkpt lat="43.2731683" lon="11.5428983"><ele>232.0</ele><time>2026-04-26T07:50:04.298Z</time></trkpt><trkpt lat="43.27309" lon="11.5428767"><ele>232.0</ele><time>2026-04-26T07:50:05.296Z</time></trkpt><trkpt lat="43.2730083" lon="11.5428783"><ele>231.99999999999997</ele><time>2026-04-26T07:50:06.299Z</time></trkpt><trkpt lat="43.2729267" lon="11.5428933"><ele>232.0</ele><time>2026-04-26T07:50:07.299Z</time></trkpt><trkpt lat="43.2728483" lon="11.5429167"><ele>229.99999999999997</ele><time>2026-04-26T07:50:08.299Z</time></trkpt><trkpt lat="43.2727717" lon="11.5429217"><ele>228.0</ele><time>2026-04-26T07:50:09.298Z</time></trkpt><trkpt lat="43.2726983" lon="11.5428617"><ele>226.0</ele><time>2026-04-26T07:50:10.297Z</time></trkpt><trkpt lat="43.2726367" lon="11.542795"><ele>224.0</ele><time>2026-04-26T07:50:11.298Z</time></trkpt><trkpt lat="43.2725917" lon="11.5426983"><ele>221.99999999999997</ele><time>2026-04-26T07:50:12.298Z</time></trkpt><trkpt lat="43.272565" lon="11.5425733"><ele>220.0</ele><time>2026-04-26T07:50:13.3Z</time></trkpt><trkpt lat="43.272545" lon="11.5424467"><ele>218.2</ele><time>2026-04-26T07:50:14.298Z</time></trkpt><trkpt lat="43.2725283" lon="11.5423117"><ele>216.4</ele><time>2026-04-26T07:50:15.299Z</time></trkpt><trkpt lat="43.2725133" lon="11.5421733"><ele>214.60000000000002</ele><time>2026-04-26T07:50:16.298Z</time></trkpt><trkpt lat="43.2725" lon="11.5420333"><ele>212.8</ele><time>2026-04-26T07:50:17.297Z</time></trkpt><trkpt lat="43.2724883" lon="11.5418967"><ele>211.0</ele><time>2026-04-26T07:50:18.298Z</time></trkpt><trkpt lat="43.2724733" lon="11.54176"><ele>209.4</ele><time>2026-04-26T07:50:19.299Z</time></trkpt><trkpt lat="43.2724617" lon="11.54162"><ele>207.8</ele><time>2026-04-26T07:50:20.298Z</time></trkpt><trkpt lat="43.2724417" lon="11.5414783"><ele>206.20000000000002</ele><time>2026-04-26T07:50:21.299Z</time></trkpt><trkpt lat="43.272415" lon="11.541335"><ele>204.60000000000002</ele><time>2026-04-26T07:50:22.299Z</time></trkpt><trkpt lat="43.2723783" lon="11.5411917"><ele>203.0</ele><time>2026-04-26T07:50:23.298Z</time></trkpt><trkpt lat="43.272335" lon="11.5410467"><ele>201.60000000000002</ele><time>2026-04-26T07:50:24.299Z</time></trkpt><trkpt lat="43.27229" lon="11.5409133"><ele>200.20000000000002</ele><time>2026-04-26T07:50:25.298Z</time></trkpt><trkpt lat="43.272245" lon="11.540785"><ele>198.8</ele><time>2026-04-26T07:50:26.299Z</time></trkpt><trkpt lat="43.2721983" lon="11.540655"><ele>197.4</ele><time>2026-04-26T07:50:27.299Z</time></trkpt><trkpt lat="43.2721483" lon="11.54052"><ele>196.0</ele><time>2026-04-26T07:50:28.297Z</time></trkpt><trkpt lat="43.2720983" lon="11.5403883"><ele>194.60000000000002</ele><time>2026-04-26T07:50:29.298Z</time></trkpt><trkpt lat="43.2720483" lon="11.5402667"><ele>193.2</ele><time>2026-04-26T07:50:30.298Z</time></trkpt><trkpt lat="43.2719983" lon="11.5401433"><ele>191.8</ele><time>2026-04-26T07:50:31.297Z</time></trkpt><trkpt lat="43.27195" lon="11.5400183"><ele>190.39999999999998</ele><time>2026-04-26T07:50:32.298Z</time></trkpt><trkpt lat="43.2719017" lon="11.5398917"><ele>189.0</ele><time>2026-04-26T07:50:33.295Z</time></trkpt><trkpt lat="43.2718533" lon="11.5397683"><ele>189.0</ele><time>2026-04-26T07:50:34.296Z</time></trkpt><trkpt lat="43.2718033" lon="11.5396467"><ele>189.0</ele><time>2026-04-26T07:50:35.297Z</time></trkpt><trkpt lat="43.27175" lon="11.5395233"><ele>189.0</ele><time>2026-04-26T07:50:36.294Z</time></trkpt><trkpt lat="43.2716983" lon="11.5393917"><ele>189.0</ele><time>2026-04-26T07:50:37.295Z</time></trkpt><trkpt lat="43.2716483" lon="11.5392517"><ele>189.0</ele><time>2026-04-26T07:50:38.297Z</time></trkpt><trkpt lat="43.2715983" lon="11.5391167"><ele>188.6</ele><time>2026-04-26T07:50:39.296Z</time></trkpt><trkpt lat="43.2715467" lon="11.53899"><ele>188.2</ele><time>2026-04-26T07:50:40.297Z</time></trkpt><trkpt lat="43.2714967" lon="11.5388633"><ele>187.79999999999998</ele><time>2026-04-26T07:50:41.299Z</time></trkpt><trkpt lat="43.2714467" lon="11.538745"><ele>187.39999999999998</ele><time>2026-04-26T07:50:42.299Z</time></trkpt><trkpt lat="43.2713967" lon="11.5386233"><ele>187.0</ele><time>2026-04-26T07:50:43.298Z</time></trkpt><trkpt lat="43.2713417" lon="11.5385083"><ele>186.2</ele><time>2026-04-26T07:50:44.299Z</time></trkpt><trkpt lat="43.2712883" lon="11.538395"><ele>185.39999999999998</ele><time>2026-04-26T07:50:45.294Z</time></trkpt><trkpt lat="43.2712367" lon="11.538275"><ele>184.60000000000002</ele><time>2026-04-26T07:50:46.298Z</time></trkpt><trkpt lat="43.2711783" lon="11.53817"><ele>183.8</ele><time>2026-04-26T07:50:47.298Z</time></trkpt><trkpt lat="43.2711183" lon="11.538075"><ele>183.0</ele><time>2026-04-26T07:50:48.298Z</time></trkpt><trkpt lat="43.2710533" lon="11.5379917"><ele>183.0</ele><time>2026-04-26T07:50:49.299Z</time></trkpt><trkpt lat="43.2709833" lon="11.5379117"><ele>183.0</ele><time>2026-04-26T07:50:50.299Z</time></trkpt><trkpt lat="43.2709033" lon="11.5378367"><ele>183.0</ele><time>2026-04-26T07:50:51.298Z</time></trkpt><trkpt lat="43.27082" lon="11.5377717"><ele>183.0</ele><time>2026-04-26T07:50:52.299Z</time></trkpt><trkpt lat="43.2707333" lon="11.5377133"><ele>183.0</ele><time>2026-04-26T07:50:53.298Z</time></trkpt><trkpt lat="43.2706433" lon="11.53768"><ele>184.4</ele><time>2026-04-26T07:50:54.295Z</time></trkpt><trkpt lat="43.2705467" lon="11.537665"><ele>185.8</ele><time>2026-04-26T07:50:55.298Z</time></trkpt><trkpt lat="43.2704483" lon="11.537645"><ele>187.2</ele><time>2026-04-26T07:50:56.298Z</time></trkpt><trkpt lat="43.2703533" lon="11.5376167"><ele>188.6</ele><time>2026-04-26T07:50:57.298Z</time></trkpt><trkpt lat="43.27026" lon="11.5375833"><ele>190.0</ele><time>2026-04-26T07:50:58.298Z</time></trkpt><trkpt lat="43.2701633" lon="11.5375633"><ele>190.0</ele><time>2026-04-26T07:50:59.296Z</time></trkpt><trkpt lat="43.2700667" lon="11.5375467"><ele>190.0</ele><time>2026-04-26T07:51:00.299Z</time></trkpt><trkpt lat="43.2699667" lon="11.5375567"><ele>190.0</ele><time>2026-04-26T07:51:01.297Z</time></trkpt><trkpt lat="43.2698667" lon="11.5375933"><ele>190.0</ele><time>2026-04-26T07:51:02.3Z</time></trkpt><trkpt lat="43.2697717" lon="11.5376383"><ele>190.0</ele><time>2026-04-26T07:51:03.298Z</time></trkpt><trkpt lat="43.2696767" lon="11.5376883"><ele>192.6</ele><time>2026-04-26T07:51:04.298Z</time></trkpt><trkpt lat="43.2695817" lon="11.5377367"><ele>195.2</ele><time>2026-04-26T07:51:05.299Z</time></trkpt><trkpt lat="43.269485" lon="11.537775"><ele>197.8</ele><time>2026-04-26T07:51:06.298Z</time></trkpt><trkpt lat="43.2693833" lon="11.5377967"><ele>200.4</ele><time>2026-04-26T07:51:07.298Z</time></trkpt><trkpt lat="43.269285" lon="11.5378033"><ele>203.0</ele><time>2026-04-26T07:51:08.298Z</time></trkpt><trkpt lat="43.2691833" lon="11.537795"><ele>203.0</ele><time>2026-04-26T07:51:09.296Z</time></trkpt><trkpt lat="43.2690833" lon="11.5377767"><ele>203.0</ele><time>2026-04-26T07:51:10.299Z</time></trkpt><trkpt lat="43.2689883" lon="11.5377483"><ele>203.0</ele><time>2026-04-26T07:51:11.299Z</time></trkpt><trkpt lat="43.26889" lon="11.5377167"><ele>203.0</ele><time>2026-04-26T07:51:12.299Z</time></trkpt><trkpt lat="43.26879" lon="11.5376933"><ele>203.0</ele><time>2026-04-26T07:51:13.299Z</time></trkpt><trkpt lat="43.2686933" lon="11.5376917"><ele>205.8</ele><time>2026-04-26T07:51:14.298Z</time></trkpt><trkpt lat="43.268595" lon="11.5377183"><ele>208.60000000000002</ele><time>2026-04-26T07:51:15.297Z</time></trkpt><trkpt lat="43.2684983" lon="11.5377683"><ele>211.39999999999998</ele><time>2026-04-26T07:51:16.297Z</time></trkpt><trkpt lat="43.2684083" lon="11.5378283"><ele>214.2</ele><time>2026-04-26T07:51:17.298Z</time></trkpt><trkpt lat="43.268325" lon="11.5378867"><ele>217.0</ele><time>2026-04-26T07:51:18.294Z</time></trkpt><trkpt lat="43.2682417" lon="11.5379483"><ele>217.6</ele><time>2026-04-26T07:51:19.296Z</time></trkpt><trkpt lat="43.268155" lon="11.53801"><ele>218.2</ele><time>2026-04-26T07:51:20.298Z</time></trkpt><trkpt lat="43.2680717" lon="11.538065"><ele>218.8</ele><time>2026-04-26T07:51:21.295Z</time></trkpt><trkpt lat="43.2679917" lon="11.5381217"><ele>219.4</ele><time>2026-04-26T07:51:22.297Z</time></trkpt><trkpt lat="43.2679133" lon="11.53818"><ele>220.0</ele><time>2026-04-26T07:51:23.296Z</time></trkpt><trkpt lat="43.2678317" lon="11.5382367"><ele>222.6</ele><time>2026-04-26T07:51:24.295Z</time></trkpt><trkpt lat="43.2677533" lon="11.538295"><ele>225.2</ele><time>2026-04-26T07:51:25.295Z</time></trkpt><trkpt lat="43.2676717" lon="11.5383533"><ele>227.8</ele><time>2026-04-26T07:51:26.295Z</time></trkpt><trkpt lat="43.2675867" lon="11.538415"><ele>230.4</ele><time>2026-04-26T07:51:27.296Z</time></trkpt><trkpt lat="43.2675" lon="11.53848"><ele>233.0</ele><time>2026-04-26T07:51:28.296Z</time></trkpt><trkpt lat="43.2674083" lon="11.5385433"><ele>233.0</ele><time>2026-04-26T07:51:29.299Z</time></trkpt><trkpt lat="43.2673167" lon="11.538605"><ele>233.0</ele><time>2026-04-26T07:51:30.298Z</time></trkpt><trkpt lat="43.2672217" lon="11.53867"><ele>233.0</ele><time>2026-04-26T07:51:31.298Z</time></trkpt><trkpt lat="43.2671267" lon="11.5387333"><ele>233.0</ele><time>2026-04-26T07:51:32.299Z</time></trkpt><trkpt lat="43.2670317" lon="11.5387933"><ele>233.0</ele><time>2026-04-26T07:51:33.299Z</time></trkpt><trkpt lat="43.2669367" lon="11.5388517"><ele>234.0</ele><time>2026-04-26T07:51:34.299Z</time></trkpt><trkpt lat="43.266845" lon="11.538905"><ele>235.0</ele><time>2026-04-26T07:51:35.298Z</time></trkpt><trkpt lat="43.2667567" lon="11.538955"><ele>236.0</ele><time>2026-04-26T07:51:36.298Z</time></trkpt><trkpt lat="43.2666717" lon="11.5390017"><ele>237.0</ele><time>2026-04-26T07:51:37.298Z</time></trkpt><trkpt lat="43.2665967" lon="11.539055"><ele>238.0</ele><time>2026-04-26T07:51:38.299Z</time></trkpt><trkpt lat="43.2665267" lon="11.53912"><ele>238.0</ele><time>2026-04-26T07:51:39.299Z</time></trkpt><trkpt lat="43.2664617" lon="11.5392067"><ele>238.0</ele><time>2026-04-26T07:51:40.299Z</time></trkpt><trkpt lat="43.2664" lon="11.5393183"><ele>238.0</ele><time>2026-04-26T07:51:41.295Z</time></trkpt><trkpt lat="43.2663383" lon="11.5394317"><ele>238.0</ele><time>2026-04-26T07:51:42.294Z</time></trkpt><trkpt lat="43.266275" lon="11.53954"><ele>238.0</ele><time>2026-04-26T07:51:43.298Z</time></trkpt><trkpt lat="43.26621" lon="11.5396433"><ele>239.8</ele><time>2026-04-26T07:51:44.299Z</time></trkpt><trkpt lat="43.2661417" lon="11.5397433"><ele>241.60000000000002</ele><time>2026-04-26T07:51:45.295Z</time></trkpt><trkpt lat="43.266075" lon="11.5398467"><ele>243.39999999999998</ele><time>2026-04-26T07:51:46.298Z</time></trkpt><trkpt lat="43.2660067" lon="11.5399483"><ele>245.2</ele><time>2026-04-26T07:51:47.297Z</time></trkpt><trkpt lat="43.2659417" lon="11.5400417"><ele>247.0</ele><time>2026-04-26T07:51:48.295Z</time></trkpt><trkpt lat="43.2658783" lon="11.5401383"><ele>246.99999999999997</ele><time>2026-04-26T07:51:49.296Z</time></trkpt><trkpt lat="43.2658167" lon="11.540225"><ele>247.0</ele><time>2026-04-26T07:51:50.296Z</time></trkpt><trkpt lat="43.2657567" lon="11.5403117"><ele>247.0</ele><time>2026-04-26T07:51:51.297Z</time></trkpt><trkpt lat="43.2657" lon="11.540395"><ele>247.0</ele><time>2026-04-26T07:51:52.297Z</time></trkpt><trkpt lat="43.2656467" lon="11.5404783"><ele>246.99999999999997</ele><time>2026-04-26T07:51:53.299Z</time></trkpt><trkpt lat="43.2656017" lon="11.5405733"><ele>247.0</ele><time>2026-04-26T07:51:54.297Z</time></trkpt><trkpt lat="43.2655683" lon="11.54068"><ele>245.49999999999997</ele><time>2026-04-26T07:51:55.296Z</time></trkpt><trkpt lat="43.265545" lon="11.5407933"><ele>244.0</ele><time>2026-04-26T07:51:56.296Z</time></trkpt><trkpt lat="43.26553" lon="11.54091"><ele>242.5</ele><time>2026-04-26T07:51:57.296Z</time></trkpt><trkpt lat="43.26552" lon="11.5410317"><ele>241.0</ele><time>2026-04-26T07:51:58.297Z</time></trkpt><trkpt lat="43.2655117" lon="11.541155"><ele>239.49999999999997</ele><time>2026-04-26T07:51:59.298Z</time></trkpt><trkpt lat="43.2655033" lon="11.5412733"><ele>238.0</ele><time>2026-04-26T07:52:00.299Z</time></trkpt><trkpt lat="43.2654933" lon="11.5413833"><ele>237.33333333333331</ele><time>2026-04-26T07:52:01.299Z</time></trkpt><trkpt lat="43.26548" lon="11.5414883"><ele>236.66666666666666</ele><time>2026-04-26T07:52:02.299Z</time></trkpt><trkpt lat="43.2654683" lon="11.5415967"><ele>236.0</ele><time>2026-04-26T07:52:03.298Z</time></trkpt><trkpt lat="43.26545" lon="11.541705"><ele>235.33333333333331</ele><time>2026-04-26T07:52:04.299Z</time></trkpt><trkpt lat="43.2654233" lon="11.5418183"><ele>234.66666666666666</ele><time>2026-04-26T07:52:05.297Z</time></trkpt><trkpt lat="43.2653917" lon="11.5419317"><ele>234.0</ele><time>2026-04-26T07:52:06.298Z</time></trkpt><trkpt lat="43.265355" lon="11.5420467"><ele>234.6</ele><time>2026-04-26T07:52:07.299Z</time></trkpt><trkpt lat="43.265315" lon="11.5421617"><ele>235.2</ele><time>2026-04-26T07:52:08.298Z</time></trkpt><trkpt lat="43.2652733" lon="11.5422817"><ele>235.79999999999998</ele><time>2026-04-26T07:52:09.299Z</time></trkpt><trkpt lat="43.2652383" lon="11.5424083"><ele>236.39999999999998</ele><time>2026-04-26T07:52:10.299Z</time></trkpt><trkpt lat="43.2652167" lon="11.5425367"><ele>237.0</ele><time>2026-04-26T07:52:11.299Z</time></trkpt><trkpt lat="43.26521" lon="11.54267"><ele>237.0</ele><time>2026-04-26T07:52:12.297Z</time></trkpt><trkpt lat="43.2652133" lon="11.5428033"><ele>237.0</ele><time>2026-04-26T07:52:13.298Z</time></trkpt><trkpt lat="43.265225" lon="11.5429317"><ele>237.0</ele><time>2026-04-26T07:52:14.299Z</time></trkpt><trkpt lat="43.265235" lon="11.54306"><ele>237.0</ele><time>2026-04-26T07:52:15.297Z</time></trkpt><trkpt lat="43.26524" lon="11.5431883"><ele>237.0</ele><time>2026-04-26T07:52:16.298Z</time></trkpt><trkpt lat="43.2652317" lon="11.5433183"><ele>238.39999999999998</ele><time>2026-04-26T07:52:17.297Z</time></trkpt><trkpt lat="43.2652067" lon="11.5434467"><ele>239.79999999999998</ele><time>2026-04-26T07:52:18.295Z</time></trkpt><trkpt lat="43.2651733" lon="11.543575"><ele>241.2</ele><time>2026-04-26T07:52:19.295Z</time></trkpt><trkpt lat="43.265135" lon="11.5437017"><ele>242.6</ele><time>2026-04-26T07:52:20.297Z</time></trkpt><trkpt lat="43.2650933" lon="11.5438283"><ele>244.0</ele><time>2026-04-26T07:52:21.295Z</time></trkpt><trkpt lat="43.265045" lon="11.5439517"><ele>245.79999999999998</ele><time>2026-04-26T07:52:22.296Z</time></trkpt><trkpt lat="43.2649933" lon="11.5440733"><ele>247.59999999999997</ele><time>2026-04-26T07:52:23.296Z</time></trkpt><trkpt lat="43.264935" lon="11.5441867"><ele>249.4</ele><time>2026-04-26T07:52:24.296Z</time></trkpt><trkpt lat="43.2648717" lon="11.5442917"><ele>251.2</ele><time>2026-04-26T07:52:25.297Z</time></trkpt><trkpt lat="43.2648083" lon="11.5443933"><ele>253.0</ele><time>2026-04-26T07:52:26.296Z</time></trkpt><trkpt lat="43.2647533" lon="11.5444967"><ele>257.8</ele><time>2026-04-26T07:52:27.294Z</time></trkpt><trkpt lat="43.26471" lon="11.5446067"><ele>262.6</ele><time>2026-04-26T07:52:28.296Z</time></trkpt><trkpt lat="43.2646783" lon="11.544725"><ele>267.4</ele><time>2026-04-26T07:52:29.299Z</time></trkpt><trkpt lat="43.2646533" lon="11.544855"><ele>272.2</ele><time>2026-04-26T07:52:30.299Z</time></trkpt><trkpt lat="43.264635" lon="11.5449867"><ele>277.0</ele><time>2026-04-26T07:52:31.298Z</time></trkpt><trkpt lat="43.2646183" lon="11.5451183"><ele>277.0</ele><time>2026-04-26T07:52:32.299Z</time></trkpt><trkpt lat="43.2646" lon="11.5452533"><ele>277.0</ele><time>2026-04-26T07:52:33.298Z</time></trkpt><trkpt lat="43.2645833" lon="11.545395"><ele>277.0</ele><time>2026-04-26T07:52:34.298Z</time></trkpt><trkpt lat="43.2645683" lon="11.5455317"><ele>277.0</ele><time>2026-04-26T07:52:35.297Z</time></trkpt><trkpt lat="43.2645483" lon="11.5456633"><ele>277.0</ele><time>2026-04-26T07:52:36.297Z</time></trkpt><trkpt lat="43.2645267" lon="11.54579"><ele>276.8</ele><time>2026-04-26T07:52:37.298Z</time></trkpt><trkpt lat="43.2644933" lon="11.5459167"><ele>276.6</ele><time>2026-04-26T07:52:38.3Z</time></trkpt><trkpt lat="43.2644533" lon="11.54604"><ele>276.40000000000003</ele><time>2026-04-26T07:52:39.297Z</time></trkpt><trkpt lat="43.2644067" lon="11.546155"><ele>276.2</ele><time>2026-04-26T07:52:40.298Z</time></trkpt><trkpt lat="43.2643533" lon="11.5462617"><ele>276.0</ele><time>2026-04-26T07:52:41.296Z</time></trkpt><trkpt lat="43.2642917" lon="11.5463617"><ele>275.8</ele><time>2026-04-26T07:52:42.299Z</time></trkpt><trkpt lat="43.2642233" lon="11.5464583"><ele>275.6</ele><time>2026-04-26T07:52:43.298Z</time></trkpt><trkpt lat="43.2641483" lon="11.54655"><ele>275.4</ele><time>2026-04-26T07:52:44.298Z</time></trkpt><trkpt lat="43.26407" lon="11.546635"><ele>275.2</ele><time>2026-04-26T07:52:45.297Z</time></trkpt><trkpt lat="43.2639867" lon="11.54672"><ele>275.0</ele><time>2026-04-26T07:52:46.298Z</time></trkpt><trkpt lat="43.2639033" lon="11.5468017"><ele>275.0</ele><time>2026-04-26T07:52:47.297Z</time></trkpt><trkpt lat="43.2638183" lon="11.5468783"><ele>275.0</ele><time>2026-04-26T07:52:48.296Z</time></trkpt><trkpt lat="43.263735" lon="11.5469517"><ele>275.0</ele><time>2026-04-26T07:52:49.297Z</time></trkpt><trkpt lat="43.2636517" lon="11.5470233"><ele>275.0</ele><time>2026-04-26T07:52:50.295Z</time></trkpt><trkpt lat="43.2635717" lon="11.5470933"><ele>275.0</ele><time>2026-04-26T07:52:51.295Z</time></trkpt><trkpt lat="43.2634967" lon="11.5471683"><ele>272.8</ele><time>2026-04-26T07:52:52.296Z</time></trkpt><trkpt lat="43.263425" lon="11.54725"><ele>270.6</ele><time>2026-04-26T07:52:53.296Z</time></trkpt><trkpt lat="43.2633567" lon="11.5473417"><ele>268.4</ele><time>2026-04-26T07:52:54.296Z</time></trkpt><trkpt lat="43.2632967" lon="11.5474333"><ele>266.2</ele><time>2026-04-26T07:52:55.296Z</time></trkpt><trkpt lat="43.2632417" lon="11.5475217"><ele>264.0</ele><time>2026-04-26T07:52:56.295Z</time></trkpt><trkpt lat="43.2631917" lon="11.54762"><ele>264.0</ele><time>2026-04-26T07:52:57.295Z</time></trkpt><trkpt lat="43.2631467" lon="11.5477267"><ele>264.0</ele><time>2026-04-26T07:52:58.296Z</time></trkpt><trkpt lat="43.2631033" lon="11.5478417"><ele>264.0</ele><time>2026-04-26T07:52:59.298Z</time></trkpt><trkpt lat="43.2630567" lon="11.547965"><ele>264.0</ele><time>2026-04-26T07:53:00.297Z</time></trkpt><trkpt lat="43.2630067" lon="11.5480883"><ele>264.0</ele><time>2026-04-26T07:53:01.297Z</time></trkpt><trkpt lat="43.2629517" lon="11.5482083"><ele>262.0</ele><time>2026-04-26T07:53:02.297Z</time></trkpt><trkpt lat="43.26289" lon="11.54833"><ele>260.0</ele><time>2026-04-26T07:53:03.295Z</time></trkpt><trkpt lat="43.262825" lon="11.5484517"><ele>258.0</ele><time>2026-04-26T07:53:04.297Z</time></trkpt><trkpt lat="43.2627617" lon="11.5485733"><ele>256.0</ele><time>2026-04-26T07:53:05.296Z</time></trkpt><trkpt lat="43.2626967" lon="11.5486933"><ele>254.0</ele><time>2026-04-26T07:53:06.296Z</time></trkpt><trkpt lat="43.2626333" lon="11.548815"><ele>252.39999999999998</ele><time>2026-04-26T07:53:07.297Z</time></trkpt><trkpt lat="43.26257" lon="11.5489367"><ele>250.79999999999998</ele><time>2026-04-26T07:53:08.297Z</time></trkpt><trkpt lat="43.262505" lon="11.5490517"><ele>249.20000000000002</ele><time>2026-04-26T07:53:09.294Z</time></trkpt><trkpt lat="43.2624383" lon="11.54916"><ele>247.60000000000002</ele><time>2026-04-26T07:53:10.297Z</time></trkpt><trkpt lat="43.2623667" lon="11.5492633"><ele>246.0</ele><time>2026-04-26T07:53:11.298Z</time></trkpt><trkpt lat="43.2622917" lon="11.549355"><ele>244.20000000000002</ele><time>2026-04-26T07:53:12.297Z</time></trkpt><trkpt lat="43.2622117" lon="11.5494467"><ele>242.40000000000003</ele><time>2026-04-26T07:53:13.298Z</time></trkpt><trkpt lat="43.26213" lon="11.54953"><ele>240.6</ele><time>2026-04-26T07:53:14.299Z</time></trkpt><trkpt lat="43.2620467" lon="11.5496117"><ele>238.8</ele><time>2026-04-26T07:53:15.298Z</time></trkpt><trkpt lat="43.2619633" lon="11.5496933"><ele>237.0</ele><time>2026-04-26T07:53:16.299Z</time></trkpt><trkpt lat="43.261875" lon="11.54977"><ele>236.6</ele><time>2026-04-26T07:53:17.296Z</time></trkpt><trkpt lat="43.261785" lon="11.54983"><ele>236.2</ele><time>2026-04-26T07:53:18.295Z</time></trkpt><trkpt lat="43.2616933" lon="11.5498817"><ele>235.8</ele><time>2026-04-26T07:53:19.295Z</time></trkpt><trkpt lat="43.2615983" lon="11.5499183"><ele>235.4</ele><time>2026-04-26T07:53:20.297Z</time></trkpt><trkpt lat="43.2615" lon="11.5499467"><ele>235.0</ele><time>2026-04-26T07:53:21.294Z</time></trkpt><trkpt lat="43.2613967" lon="11.5499617"><ele>234.6</ele><time>2026-04-26T07:53:22.296Z</time></trkpt><trkpt lat="43.2612933" lon="11.5499633"><ele>234.2</ele><time>2026-04-26T07:53:23.296Z</time></trkpt><trkpt lat="43.2611883" lon="11.5499517"><ele>233.8</ele><time>2026-04-26T07:53:24.299Z</time></trkpt><trkpt lat="43.26109" lon="11.549935"><ele>233.4</ele><time>2026-04-26T07:53:25.297Z</time></trkpt><trkpt lat="43.2609867" lon="11.5499183"><ele>233.0</ele><time>2026-04-26T07:53:26.296Z</time></trkpt><trkpt lat="43.26088" lon="11.54991"><ele>233.0</ele><time>2026-04-26T07:53:27.299Z</time></trkpt><trkpt lat="43.2607717" lon="11.549925"><ele>233.0</ele><time>2026-04-26T07:53:28.298Z</time></trkpt><trkpt lat="43.2606633" lon="11.549955"><ele>233.0</ele><time>2026-04-26T07:53:29.298Z</time></trkpt><trkpt lat="43.2605583" lon="11.5500033"><ele>233.0</ele><time>2026-04-26T07:53:30.299Z</time></trkpt><trkpt lat="43.2604583" lon="11.5500667"><ele>233.0</ele><time>2026-04-26T07:53:31.298Z</time></trkpt><trkpt lat="43.2603683" lon="11.550145"><ele>234.60000000000002</ele><time>2026-04-26T07:53:32.298Z</time></trkpt><trkpt lat="43.260285" lon="11.5502367"><ele>236.20000000000002</ele><time>2026-04-26T07:53:33.299Z</time></trkpt><trkpt lat="43.2602083" lon="11.550335"><ele>237.8</ele><time>2026-04-26T07:53:34.298Z</time></trkpt><trkpt lat="43.2601383" lon="11.5504367"><ele>239.4</ele><time>2026-04-26T07:53:35.297Z</time></trkpt><trkpt lat="43.26007" lon="11.5505417"><ele>241.0</ele><time>2026-04-26T07:53:36.298Z</time></trkpt><trkpt lat="43.260005" lon="11.5506533"><ele>242.0</ele><time>2026-04-26T07:53:37.298Z</time></trkpt><trkpt lat="43.2599367" lon="11.5507667"><ele>243.00000000000003</ele><time>2026-04-26T07:53:38.299Z</time></trkpt><trkpt lat="43.259875" lon="11.5508867"><ele>244.00000000000003</ele><time>2026-04-26T07:53:39.299Z</time></trkpt><trkpt lat="43.25982" lon="11.5510133"><ele>245.0</ele><time>2026-04-26T07:53:40.298Z</time></trkpt><trkpt lat="43.259775" lon="11.5511367"><ele>246.0</ele><time>2026-04-26T07:53:41.298Z</time></trkpt><trkpt lat="43.2597383" lon="11.5512633"><ele>246.0</ele><time>2026-04-26T07:53:42.298Z</time></trkpt><trkpt lat="43.2597033" lon="11.55139"><ele>246.0</ele><time>2026-04-26T07:53:43.298Z</time></trkpt><trkpt lat="43.2596783" lon="11.55151"><ele>246.0</ele><time>2026-04-26T07:53:44.299Z</time></trkpt><trkpt lat="43.2596533" lon="11.55162"><ele>246.0</ele><time>2026-04-26T07:53:45.297Z</time></trkpt><trkpt lat="43.2596283" lon="11.5517333"><ele>246.0</ele><time>2026-04-26T07:53:46.297Z</time></trkpt><trkpt lat="43.2596017" lon="11.5518467"><ele>246.0</ele><time>2026-04-26T07:53:47.297Z</time></trkpt><trkpt lat="43.25958" lon="11.55196"><ele>246.0</ele><time>2026-04-26T07:53:48.296Z</time></trkpt><trkpt lat="43.2595567" lon="11.5520733"><ele>246.00000000000003</ele><time>2026-04-26T07:53:49.297Z</time></trkpt><trkpt lat="43.2595333" lon="11.552195"><ele>246.00000000000003</ele><time>2026-04-26T07:53:50.296Z</time></trkpt><trkpt lat="43.2595" lon="11.5523183"><ele>246.0</ele><time>2026-04-26T07:53:51.296Z</time></trkpt><trkpt lat="43.2594483" lon="11.552445"><ele>246.0</ele><time>2026-04-26T07:53:52.295Z</time></trkpt><trkpt lat="43.2593817" lon="11.5525667"><ele>246.0</ele><time>2026-04-26T07:53:53.298Z</time></trkpt><trkpt lat="43.2593067" lon="11.552675"><ele>246.00000000000003</ele><time>2026-04-26T07:53:54.3Z</time></trkpt><trkpt lat="43.259225" lon="11.5527767"><ele>246.00000000000003</ele><time>2026-04-26T07:53:55.299Z</time></trkpt><trkpt lat="43.25914" lon="11.5528783"><ele>246.0</ele><time>2026-04-26T07:53:56.299Z</time></trkpt><trkpt lat="43.2590467" lon="11.5529717"><ele>246.0</ele><time>2026-04-26T07:53:57.297Z</time></trkpt><trkpt lat="43.2589467" lon="11.5530467"><ele>247.5</ele><time>2026-04-26T07:53:58.298Z</time></trkpt><trkpt lat="43.2588367" lon="11.5531117"><ele>249.0</ele><time>2026-04-26T07:53:59.298Z</time></trkpt><trkpt lat="43.258725" lon="11.553155"><ele>250.5</ele><time>2026-04-26T07:54:00.298Z</time></trkpt><trkpt lat="43.2586117" lon="11.5531867"><ele>252.0</ele><time>2026-04-26T07:54:01.299Z</time></trkpt><trkpt lat="43.2585" lon="11.55321"><ele>252.0</ele><time>2026-04-26T07:54:02.298Z</time></trkpt><trkpt lat="43.25839" lon="11.5532317"><ele>252.0</ele><time>2026-04-26T07:54:03.299Z</time></trkpt><trkpt lat="43.2582817" lon="11.5532583"><ele>252.0</ele><time>2026-04-26T07:54:04.297Z</time></trkpt><trkpt lat="43.2581767" lon="11.5532883"><ele>252.0</ele><time>2026-04-26T07:54:05.298Z</time></trkpt><trkpt lat="43.25807" lon="11.5533267"><ele>252.0</ele><time>2026-04-26T07:54:06.298Z</time></trkpt><trkpt lat="43.257965" lon="11.5533733"><ele>252.0</ele><time>2026-04-26T07:54:07.298Z</time></trkpt><trkpt lat="43.2578583" lon="11.5534283"><ele>252.0</ele><time>2026-04-26T07:54:08.299Z</time></trkpt><trkpt lat="43.2577517" lon="11.553485"><ele>252.0</ele><time>2026-04-26T07:54:09.298Z</time></trkpt><trkpt lat="43.2576433" lon="11.5535417"><ele>252.0</ele><time>2026-04-26T07:54:10.299Z</time></trkpt><trkpt lat="43.257535" lon="11.553595"><ele>252.0</ele><time>2026-04-26T07:54:11.298Z</time></trkpt><trkpt lat="43.257425" lon="11.5536367"><ele>252.0</ele><time>2026-04-26T07:54:12.298Z</time></trkpt><trkpt lat="43.2573167" lon="11.5536667"><ele>252.0</ele><time>2026-04-26T07:54:13.299Z</time></trkpt><trkpt lat="43.2572117" lon="11.5536917"><ele>252.0</ele><time>2026-04-26T07:54:14.298Z</time></trkpt><trkpt lat="43.25711" lon="11.553705"><ele>252.0</ele><time>2026-04-26T07:54:15.298Z</time></trkpt><trkpt lat="43.25701" lon="11.5537117"><ele>251.8</ele><time>2026-04-26T07:54:16.298Z</time></trkpt><trkpt lat="43.2569133" lon="11.5537033"><ele>251.6</ele><time>2026-04-26T07:54:17.297Z</time></trkpt><trkpt lat="43.25682" lon="11.553675"><ele>251.40000000000003</ele><time>2026-04-26T07:54:18.298Z</time></trkpt><trkpt lat="43.25673" lon="11.5536367"><ele>251.20000000000002</ele><time>2026-04-26T07:54:19.298Z</time></trkpt><trkpt lat="43.256645" lon="11.5535867"><ele>251.0</ele><time>2026-04-26T07:54:20.298Z</time></trkpt><trkpt lat="43.25656" lon="11.5535317"><ele>251.0</ele><time>2026-04-26T07:54:21.298Z</time></trkpt><trkpt lat="43.2564767" lon="11.553475"><ele>251.00000000000003</ele><time>2026-04-26T07:54:22.298Z</time></trkpt><trkpt lat="43.2563933" lon="11.5534183"><ele>251.00000000000003</ele><time>2026-04-26T07:54:23.299Z</time></trkpt><trkpt lat="43.2563083" lon="11.55336"><ele>251.0</ele><time>2026-04-26T07:54:24.298Z</time></trkpt><trkpt lat="43.2562233" lon="11.5533033"><ele>251.0</ele><time>2026-04-26T07:54:25.299Z</time></trkpt><trkpt lat="43.2561383" lon="11.553245"><ele>251.20000000000002</ele><time>2026-04-26T07:54:26.299Z</time></trkpt><trkpt lat="43.2560533" lon="11.553185"><ele>251.40000000000003</ele><time>2026-04-26T07:54:27.297Z</time></trkpt><trkpt lat="43.2559667" lon="11.5531267"><ele>251.6</ele><time>2026-04-26T07:54:28.296Z</time></trkpt><trkpt lat="43.2558817" lon="11.5530683"><ele>251.8</ele><time>2026-04-26T07:54:29.295Z</time></trkpt><trkpt lat="43.2557967" lon="11.5530133"><ele>252.0</ele><time>2026-04-26T07:54:30.297Z</time></trkpt><trkpt lat="43.2557083" lon="11.5529633"><ele>252.39999999999998</ele><time>2026-04-26T07:54:31.297Z</time></trkpt><trkpt lat="43.25562" lon="11.5529233"><ele>252.79999999999998</ele><time>2026-04-26T07:54:32.297Z</time></trkpt><trkpt lat="43.2555283" lon="11.5528933"><ele>253.2</ele><time>2026-04-26T07:54:33.297Z</time></trkpt><trkpt lat="43.2554367" lon="11.5528733"><ele>253.6</ele><time>2026-04-26T07:54:34.296Z</time></trkpt><trkpt lat="43.2553433" lon="11.5528667"><ele>254.0</ele><time>2026-04-26T07:54:35.296Z</time></trkpt><trkpt lat="43.2552517" lon="11.5528667"><ele>252.79999999999998</ele><time>2026-04-26T07:54:36.295Z</time></trkpt><trkpt lat="43.25516" lon="11.5528733"><ele>251.59999999999997</ele><time>2026-04-26T07:54:37.297Z</time></trkpt><trkpt lat="43.2550683" lon="11.5528783"><ele>250.4</ele><time>2026-04-26T07:54:38.298Z</time></trkpt><trkpt lat="43.254975" lon="11.5528833"><ele>249.2</ele><time>2026-04-26T07:54:39.297Z</time></trkpt><trkpt lat="43.2548833" lon="11.5528883"><ele>248.0</ele><time>2026-04-26T07:54:40.297Z</time></trkpt><trkpt lat="43.2547917" lon="11.552895"><ele>247.50000000000003</ele><time>2026-04-26T07:54:41.296Z</time></trkpt><trkpt lat="43.2547017" lon="11.5529"><ele>247.0</ele><time>2026-04-26T07:54:42.295Z</time></trkpt><trkpt lat="43.2546133" lon="11.5529033"><ele>246.5</ele><time>2026-04-26T07:54:43.297Z</time></trkpt><trkpt lat="43.2545267" lon="11.5529067"><ele>246.0</ele><time>2026-04-26T07:54:44.296Z</time></trkpt><trkpt lat="43.2544483" lon="11.5529133"><ele>245.50000000000003</ele><time>2026-04-26T07:54:45.299Z</time></trkpt><trkpt lat="43.254375" lon="11.552925"><ele>245.0</ele><time>2026-04-26T07:54:46.298Z</time></trkpt><trkpt lat="43.2543033" lon="11.5529467"><ele>245.00000000000003</ele><time>2026-04-26T07:54:47.299Z</time></trkpt><trkpt lat="43.254235" lon="11.5529817"><ele>245.0</ele><time>2026-04-26T07:54:48.298Z</time></trkpt><trkpt lat="43.2541717" lon="11.553035"><ele>245.0</ele><time>2026-04-26T07:54:49.299Z</time></trkpt><trkpt lat="43.2541183" lon="11.55312"><ele>245.0</ele><time>2026-04-26T07:54:50.299Z</time></trkpt><trkpt lat="43.25407" lon="11.5532283"><ele>245.00000000000003</ele><time>2026-04-26T07:54:51.298Z</time></trkpt><trkpt lat="43.2540367" lon="11.5533717"><ele>245.0</ele><time>2026-04-26T07:54:52.298Z</time></trkpt><trkpt lat="43.2540267" lon="11.5535417"><ele>243.0</ele><time>2026-04-26T07:54:53.298Z</time></trkpt><trkpt lat="43.2540067" lon="11.5537083"><ele>241.0</ele><time>2026-04-26T07:54:54.298Z</time></trkpt><trkpt lat="43.2539767" lon="11.553855"><ele>239.0</ele><time>2026-04-26T07:54:55.297Z</time></trkpt><trkpt lat="43.253925" lon="11.5539833"><ele>237.0</ele><time>2026-04-26T07:54:56.298Z</time></trkpt><trkpt lat="43.2538583" lon="11.5540867"><ele>235.0</ele><time>2026-04-26T07:54:57.297Z</time></trkpt><trkpt lat="43.2537867" lon="11.5541633"><ele>234.49999999999997</ele><time>2026-04-26T07:54:58.299Z</time></trkpt><trkpt lat="43.2537117" lon="11.5542267"><ele>234.0</ele><time>2026-04-26T07:54:59.298Z</time></trkpt><trkpt lat="43.2536383" lon="11.5542883"><ele>233.5</ele><time>2026-04-26T07:55:00.299Z</time></trkpt><trkpt lat="43.253565" lon="11.5543417"><ele>233.0</ele><time>2026-04-26T07:55:01.297Z</time></trkpt><trkpt lat="43.2534917" lon="11.5543933"><ele>232.49999999999997</ele><time>2026-04-26T07:55:02.298Z</time></trkpt><trkpt lat="43.253415" lon="11.5544517"><ele>232.0</ele><time>2026-04-26T07:55:03.298Z</time></trkpt><trkpt lat="43.253335" lon="11.55451"><ele>230.0</ele><time>2026-04-26T07:55:04.295Z</time></trkpt><trkpt lat="43.2532383" lon="11.5545667"><ele>228.0</ele><time>2026-04-26T07:55:05.297Z</time></trkpt><trkpt lat="43.2531333" lon="11.55461"><ele>226.0</ele><time>2026-04-26T07:55:06.299Z</time></trkpt><trkpt lat="43.253025" lon="11.5546467"><ele>224.0</ele><time>2026-04-26T07:55:07.299Z</time></trkpt><trkpt lat="43.2529183" lon="11.5546717"><ele>222.0</ele><time>2026-04-26T07:55:08.298Z</time></trkpt><trkpt lat="43.25281" lon="11.5546933"><ele>220.39999999999998</ele><time>2026-04-26T07:55:09.299Z</time></trkpt><trkpt lat="43.2527" lon="11.5547083"><ele>218.79999999999998</ele><time>2026-04-26T07:55:10.296Z</time></trkpt><trkpt lat="43.25259" lon="11.554705"><ele>217.2</ele><time>2026-04-26T07:55:11.296Z</time></trkpt><trkpt lat="43.2524867" lon="11.5546867"><ele>215.6</ele><time>2026-04-26T07:55:12.299Z</time></trkpt><trkpt lat="43.25239" lon="11.5546567"><ele>214.0</ele><time>2026-04-26T07:55:13.297Z</time></trkpt><trkpt lat="43.2522983" lon="11.5546217"><ele>213.79999999999998</ele><time>2026-04-26T07:55:14.298Z</time></trkpt><trkpt lat="43.2522067" lon="11.554595"><ele>213.59999999999997</ele><time>2026-04-26T07:55:15.299Z</time></trkpt><trkpt lat="43.2521167" lon="11.5545883"><ele>213.4</ele><time>2026-04-26T07:55:16.297Z</time></trkpt><trkpt lat="43.252025" lon="11.554595"><ele>213.2</ele><time>2026-04-26T07:55:17.296Z</time></trkpt><trkpt lat="43.2519317" lon="11.5546067"><ele>213.0</ele><time>2026-04-26T07:55:18.299Z</time></trkpt><trkpt lat="43.2518367" lon="11.554635"><ele>213.0</ele><time>2026-04-26T07:55:19.299Z</time></trkpt><trkpt lat="43.2517383" lon="11.55467"><ele>213.0</ele><time>2026-04-26T07:55:20.298Z</time></trkpt><trkpt lat="43.251635" lon="11.5547067"><ele>213.0</ele><time>2026-04-26T07:55:21.298Z</time></trkpt><trkpt lat="43.251535" lon="11.554745"><ele>213.0</ele><time>2026-04-26T07:55:22.296Z</time></trkpt><trkpt lat="43.2514333" lon="11.5547833"><ele>213.0</ele><time>2026-04-26T07:55:23.298Z</time></trkpt><trkpt lat="43.25134" lon="11.55482"><ele>213.4</ele><time>2026-04-26T07:55:24.299Z</time></trkpt><trkpt lat="43.2512483" lon="11.55486"><ele>213.8</ele><time>2026-04-26T07:55:25.297Z</time></trkpt><trkpt lat="43.2511633" lon="11.55491"><ele>214.2</ele><time>2026-04-26T07:55:26.299Z</time></trkpt><trkpt lat="43.2510817" lon="11.5549533"><ele>214.6</ele><time>2026-04-26T07:55:27.299Z</time></trkpt><trkpt lat="43.2509967" lon="11.5550133"><ele>215.0</ele><time>2026-04-26T07:55:28.298Z</time></trkpt><trkpt lat="43.2509167" lon="11.5550817"><ele>215.0</ele><time>2026-04-26T07:55:29.298Z</time></trkpt><trkpt lat="43.2508367" lon="11.5551533"><ele>215.0</ele><time>2026-04-26T07:55:30.294Z</time></trkpt><trkpt lat="43.2507617" lon="11.555235"><ele>215.0</ele><time>2026-04-26T07:55:31.298Z</time></trkpt><trkpt lat="43.2506883" lon="11.5553233"><ele>215.0</ele><time>2026-04-26T07:55:32.297Z</time></trkpt><trkpt lat="43.2506117" lon="11.5554183"><ele>215.0</ele><time>2026-04-26T07:55:33.294Z</time></trkpt><trkpt lat="43.25053" lon="11.5555133"><ele>211.8</ele><time>2026-04-26T07:55:34.296Z</time></trkpt><trkpt lat="43.2504417" lon="11.5556067"><ele>208.6</ele><time>2026-04-26T07:55:35.296Z</time></trkpt><trkpt lat="43.250355" lon="11.55569"><ele>205.39999999999998</ele><time>2026-04-26T07:55:36.294Z</time></trkpt><trkpt lat="43.2502633" lon="11.5557733"><ele>202.2</ele><time>2026-04-26T07:55:37.297Z</time></trkpt><trkpt lat="43.25017" lon="11.5558433"><ele>199.0</ele><time>2026-04-26T07:55:38.296Z</time></trkpt><trkpt lat="43.2500717" lon="11.5559067"><ele>199.0</ele><time>2026-04-26T07:55:39.294Z</time></trkpt><trkpt lat="43.24997" lon="11.5559483"><ele>199.0</ele><time>2026-04-26T07:55:40.298Z</time></trkpt><trkpt lat="43.2498683" lon="11.5559683"><ele>199.0</ele><time>2026-04-26T07:55:41.298Z</time></trkpt><trkpt lat="43.24977" lon="11.555965"><ele>199.0</ele><time>2026-04-26T07:55:42.298Z</time></trkpt><trkpt lat="43.2496783" lon="11.5559617"><ele>199.0</ele><time>2026-04-26T07:55:43.298Z</time></trkpt><trkpt lat="43.249585" lon="11.5559633"><ele>198.39999999999998</ele><time>2026-04-26T07:55:44.298Z</time></trkpt><trkpt lat="43.2494917" lon="11.5559683"><ele>197.8</ele><time>2026-04-26T07:55:45.298Z</time></trkpt><trkpt lat="43.2493967" lon="11.5559783"><ele>197.2</ele><time>2026-04-26T07:55:46.298Z</time></trkpt><trkpt lat="43.2493" lon="11.5560033"><ele>196.60000000000002</ele><time>2026-04-26T07:55:47.298Z</time></trkpt><trkpt lat="43.2492" lon="11.5560267"><ele>196.0</ele><time>2026-04-26T07:55:48.298Z</time></trkpt><trkpt lat="43.249105" lon="11.556045"><ele>196.0</ele><time>2026-04-26T07:55:49.298Z</time></trkpt><trkpt lat="43.2490117" lon="11.5560583"><ele>196.0</ele><time>2026-04-26T07:55:50.299Z</time></trkpt><trkpt lat="43.2489183" lon="11.55606"><ele>196.0</ele><time>2026-04-26T07:55:51.298Z</time></trkpt><trkpt lat="43.2488267" lon="11.5560383"><ele>196.0</ele><time>2026-04-26T07:55:52.298Z</time></trkpt><trkpt lat="43.2487383" lon="11.5559967"><ele>196.0</ele><time>2026-04-26T07:55:53.299Z</time></trkpt><trkpt lat="43.2486533" lon="11.55594"><ele>194.20000000000002</ele><time>2026-04-26T07:55:54.299Z</time></trkpt><trkpt lat="43.2485683" lon="11.555875"><ele>192.4</ele><time>2026-04-26T07:55:55.298Z</time></trkpt><trkpt lat="43.2484833" lon="11.5558"><ele>190.6</ele><time>2026-04-26T07:55:56.298Z</time></trkpt><trkpt lat="43.2483983" lon="11.55573"><ele>188.8</ele><time>2026-04-26T07:55:57.298Z</time></trkpt><trkpt lat="43.2483167" lon="11.555655"><ele>187.0</ele><time>2026-04-26T07:55:58.299Z</time></trkpt><trkpt lat="43.248235" lon="11.5555733"><ele>187.0</ele><time>2026-04-26T07:55:59.298Z</time></trkpt><trkpt lat="43.2481567" lon="11.5554883"><ele>187.0</ele><time>2026-04-26T07:56:00.295Z</time></trkpt><trkpt lat="43.2480817" lon="11.5553917"><ele>187.0</ele><time>2026-04-26T07:56:01.296Z</time></trkpt><trkpt lat="43.2480133" lon="11.5552867"><ele>187.0</ele><time>2026-04-26T07:56:02.298Z</time></trkpt><trkpt lat="43.2479517" lon="11.55518"><ele>187.0</ele><time>2026-04-26T07:56:03.295Z</time></trkpt><trkpt lat="43.2478917" lon="11.55508"><ele>185.39999999999998</ele><time>2026-04-26T07:56:04.297Z</time></trkpt><trkpt lat="43.24783" lon="11.5549883"><ele>183.79999999999998</ele><time>2026-04-26T07:56:05.299Z</time></trkpt><trkpt lat="43.2477567" lon="11.5549033"><ele>182.2</ele><time>2026-04-26T07:56:06.299Z</time></trkpt><trkpt lat="43.24767" lon="11.5548317"><ele>180.6</ele><time>2026-04-26T07:56:07.298Z</time></trkpt><trkpt lat="43.247575" lon="11.5547667"><ele>179.0</ele><time>2026-04-26T07:56:08.299Z</time></trkpt><trkpt lat="43.24748" lon="11.5547017"><ele>179.0</ele><time>2026-04-26T07:56:09.299Z</time></trkpt><trkpt lat="43.247385" lon="11.5546367"><ele>179.0</ele><time>2026-04-26T07:56:10.298Z</time></trkpt><trkpt lat="43.2472917" lon="11.554565"><ele>179.0</ele><time>2026-04-26T07:56:11.298Z</time></trkpt><trkpt lat="43.2471983" lon="11.5544967"><ele>179.0</ele><time>2026-04-26T07:56:12.299Z</time></trkpt><trkpt lat="43.2471083" lon="11.554425"><ele>179.0</ele><time>2026-04-26T07:56:13.298Z</time></trkpt><trkpt lat="43.2470217" lon="11.5543567"><ele>177.6</ele><time>2026-04-26T07:56:14.3Z</time></trkpt><trkpt lat="43.2469367" lon="11.5542883"><ele>176.2</ele><time>2026-04-26T07:56:15.298Z</time></trkpt><trkpt lat="43.2468533" lon="11.5542317"><ele>174.79999999999998</ele><time>2026-04-26T07:56:16.297Z</time></trkpt><trkpt lat="43.24677" lon="11.554185"><ele>173.39999999999998</ele><time>2026-04-26T07:56:17.298Z</time></trkpt><trkpt lat="43.2466817" lon="11.554145"><ele>172.0</ele><time>2026-04-26T07:56:18.298Z</time></trkpt><trkpt lat="43.2465867" lon="11.5541167"><ele>172.0</ele><time>2026-04-26T07:56:19.296Z</time></trkpt><trkpt lat="43.246485" lon="11.5540933"><ele>172.0</ele><time>2026-04-26T07:56:20.299Z</time></trkpt><trkpt lat="43.24638" lon="11.5540817"><ele>172.0</ele><time>2026-04-26T07:56:21.299Z</time></trkpt><trkpt lat="43.246275" lon="11.554085"><ele>172.0</ele><time>2026-04-26T07:56:22.298Z</time></trkpt><trkpt lat="43.246165" lon="11.5540983"><ele>172.0</ele><time>2026-04-26T07:56:23.297Z</time></trkpt><trkpt lat="43.246055" lon="11.554115"><ele>173.25</ele><time>2026-04-26T07:56:24.299Z</time></trkpt><trkpt lat="43.2459433" lon="11.5541317"><ele>174.5</ele><time>2026-04-26T07:56:25.298Z</time></trkpt><trkpt lat="43.2458267" lon="11.5541483"><ele>175.75</ele><time>2026-04-26T07:56:26.299Z</time></trkpt><trkpt lat="43.2457067" lon="11.55417"><ele>177.0</ele><time>2026-04-26T07:56:27.299Z</time></trkpt><trkpt lat="43.2455867" lon="11.55419"><ele>179.25</ele><time>2026-04-26T07:56:28.298Z</time></trkpt><trkpt lat="43.2454633" lon="11.55421"><ele>181.5</ele><time>2026-04-26T07:56:29.297Z</time></trkpt><trkpt lat="43.24534" lon="11.5542283"><ele>183.75</ele><time>2026-04-26T07:56:30.299Z</time></trkpt><trkpt lat="43.245215" lon="11.554245"><ele>186.0</ele><time>2026-04-26T07:56:31.297Z</time></trkpt><trkpt lat="43.2450933" lon="11.5542667"><ele>186.0</ele><time>2026-04-26T07:56:32.298Z</time></trkpt><trkpt lat="43.2449733" lon="11.554285"><ele>186.0</ele><time>2026-04-26T07:56:33.299Z</time></trkpt><trkpt lat="43.2448567" lon="11.5542983"><ele>186.0</ele><time>2026-04-26T07:56:34.299Z</time></trkpt><trkpt lat="43.2447467" lon="11.5543117"><ele>186.0</ele><time>2026-04-26T07:56:35.297Z</time></trkpt><trkpt lat="43.2446417" lon="11.55432"><ele>186.8</ele><time>2026-04-26T07:56:36.297Z</time></trkpt><trkpt lat="43.2445367" lon="11.55433"><ele>187.60000000000002</ele><time>2026-04-26T07:56:37.298Z</time></trkpt><trkpt lat="43.2444283" lon="11.5543433"><ele>188.4</ele><time>2026-04-26T07:56:38.298Z</time></trkpt><trkpt lat="43.24432" lon="11.5543583"><ele>189.2</ele><time>2026-04-26T07:56:39.298Z</time></trkpt><trkpt lat="43.2442117" lon="11.5543767"><ele>190.0</ele><time>2026-04-26T07:56:40.298Z</time></trkpt><trkpt lat="43.2441033" lon="11.5543933"><ele>190.0</ele><time>2026-04-26T07:56:41.299Z</time></trkpt><trkpt lat="43.243995" lon="11.554405"><ele>190.0</ele><time>2026-04-26T07:56:42.297Z</time></trkpt><trkpt lat="43.243885" lon="11.5544183"><ele>190.0</ele><time>2026-04-26T07:56:43.297Z</time></trkpt><trkpt lat="43.243775" lon="11.5544317"><ele>190.0</ele><time>2026-04-26T07:56:44.299Z</time></trkpt><trkpt lat="43.243665" lon="11.5544433"><ele>190.0</ele><time>2026-04-26T07:56:45.298Z</time></trkpt><trkpt lat="43.243555" lon="11.554455"><ele>190.8</ele><time>2026-04-26T07:56:46.297Z</time></trkpt><trkpt lat="43.2434433" lon="11.55447"><ele>191.6</ele><time>2026-04-26T07:56:47.299Z</time></trkpt><trkpt lat="43.2433317" lon="11.5544867"><ele>192.39999999999998</ele><time>2026-04-26T07:56:48.297Z</time></trkpt><trkpt lat="43.2432283" lon="11.5545033"><ele>193.2</ele><time>2026-04-26T07:56:49.298Z</time></trkpt><trkpt lat="43.2431333" lon="11.554515"><ele>194.0</ele><time>2026-04-26T07:56:50.298Z</time></trkpt><trkpt lat="43.243045" lon="11.5545133"><ele>194.00000000000003</ele><time>2026-04-26T07:56:51.299Z</time></trkpt><trkpt lat="43.242955" lon="11.5545033"><ele>194.0</ele><time>2026-04-26T07:56:52.297Z</time></trkpt><trkpt lat="43.2428667" lon="11.5544867"><ele>194.0</ele><time>2026-04-26T07:56:53.298Z</time></trkpt><trkpt lat="43.2427833" lon="11.554455"><ele>194.0</ele><time>2026-04-26T07:56:54.299Z</time></trkpt><trkpt lat="43.2427033" lon="11.5544183"><ele>194.00000000000003</ele><time>2026-04-26T07:56:55.297Z</time></trkpt><trkpt lat="43.2426267" lon="11.5543683"><ele>194.0</ele><time>2026-04-26T07:56:56.298Z</time></trkpt><trkpt lat="43.2425533" lon="11.55432"><ele>194.00000000000003</ele><time>2026-04-26T07:56:57.297Z</time></trkpt><trkpt lat="43.24248" lon="11.5542667"><ele>194.0</ele><time>2026-04-26T07:56:58.299Z</time></trkpt><trkpt lat="43.2424067" lon="11.5542167"><ele>194.0</ele><time>2026-04-26T07:56:59.298Z</time></trkpt><trkpt lat="43.242335" lon="11.5541567"><ele>194.0</ele><time>2026-04-26T07:57:00.298Z</time></trkpt><trkpt lat="43.242265" lon="11.5541017"><ele>194.00000000000003</ele><time>2026-04-26T07:57:01.297Z</time></trkpt><trkpt lat="43.2421967" lon="11.5540417"><ele>194.0</ele><time>2026-04-26T07:57:02.299Z</time></trkpt><trkpt lat="43.2421233" lon="11.5539883"><ele>191.33333333333334</ele><time>2026-04-26T07:57:03.299Z</time></trkpt><trkpt lat="43.24205" lon="11.5539317"><ele>188.66666666666669</ele><time>2026-04-26T07:57:04.298Z</time></trkpt><trkpt lat="43.2419667" lon="11.5538883"><ele>186.0</ele><time>2026-04-26T07:57:05.298Z</time></trkpt><trkpt lat="43.24188" lon="11.5538517"><ele>183.33333333333334</ele><time>2026-04-26T07:57:06.298Z</time></trkpt><trkpt lat="43.2417883" lon="11.5538283"><ele>180.66666666666669</ele><time>2026-04-26T07:57:07.298Z</time></trkpt><trkpt lat="43.2416983" lon="11.5538183"><ele>178.0</ele><time>2026-04-26T07:57:08.298Z</time></trkpt><trkpt lat="43.2416083" lon="11.5538133"><ele>178.0</ele><time>2026-04-26T07:57:09.298Z</time></trkpt><trkpt lat="43.24152" lon="11.5538067"><ele>178.0</ele><time>2026-04-26T07:57:10.299Z</time></trkpt><trkpt lat="43.2414333" lon="11.5537917"><ele>178.0</ele><time>2026-04-26T07:57:11.299Z</time></trkpt><trkpt lat="43.24135" lon="11.553765"><ele>178.0</ele><time>2026-04-26T07:57:12.298Z</time></trkpt><trkpt lat="43.241275" lon="11.5537233"><ele>178.0</ele><time>2026-04-26T07:57:13.298Z</time></trkpt><trkpt lat="43.2412033" lon="11.5536767"><ele>178.0</ele><time>2026-04-26T07:57:14.299Z</time></trkpt><trkpt lat="43.2411383" lon="11.553625"><ele>177.5</ele><time>2026-04-26T07:57:15.298Z</time></trkpt><trkpt lat="43.2410767" lon="11.5535733"><ele>177.0</ele><time>2026-04-26T07:57:16.297Z</time></trkpt><trkpt lat="43.241015" lon="11.5535267"><ele>176.5</ele><time>2026-04-26T07:57:17.297Z</time></trkpt><trkpt lat="43.2409583" lon="11.5534767"><ele>176.0</ele><time>2026-04-26T07:57:18.298Z</time></trkpt><trkpt lat="43.240905" lon="11.553425"><ele>175.5</ele><time>2026-04-26T07:57:19.298Z</time></trkpt><trkpt lat="43.2407983" lon="11.553345"><ele>175.0</ele><time>2026-04-26T07:57:21.298Z</time></trkpt><trkpt lat="43.2407183" lon="11.5532683"><ele>175.0</ele><time>2026-04-26T07:57:23.298Z</time></trkpt><trkpt lat="43.2406617" lon="11.5532117"><ele>175.0</ele><time>2026-04-26T07:57:25.298Z</time></trkpt><trkpt lat="43.24059" lon="11.5531783"><ele>175.0</ele><time>2026-04-26T07:57:52.298Z</time></trkpt><trkpt lat="43.24052" lon="11.5531433"><ele>175.0</ele><time>2026-04-26T07:57:55.296Z</time></trkpt><trkpt lat="43.24045" lon="11.5531083"><ele>175.0</ele><time>2026-04-26T07:57:57.298Z</time></trkpt><trkpt lat="43.240395" lon="11.553015"><ele>175.0</ele><time>2026-04-26T07:58:00.294Z</time></trkpt><trkpt lat="43.2404333" lon="11.5528717"><ele>174.5</ele><time>2026-04-26T07:58:02.297Z</time></trkpt><trkpt lat="43.2404767" lon="11.5527833"><ele>174.0</ele><time>2026-04-26T07:58:03.294Z</time></trkpt><trkpt lat="43.2405167" lon="11.552695"><ele>173.5</ele><time>2026-04-26T07:58:04.296Z</time></trkpt><trkpt lat="43.2405567" lon="11.552605"><ele>173.0</ele><time>2026-04-26T07:58:05.296Z</time></trkpt><trkpt lat="43.2406017" lon="11.5525183"><ele>172.5</ele><time>2026-04-26T07:58:06.295Z</time></trkpt><trkpt lat="43.2406433" lon="11.55243"><ele>172.0</ele><time>2026-04-26T07:58:07.296Z</time></trkpt><trkpt lat="43.2406833" lon="11.55234"><ele>173.16666666666669</ele><time>2026-04-26T07:58:08.297Z</time></trkpt><trkpt lat="43.2407217" lon="11.5522467"><ele>174.33333333333334</ele><time>2026-04-26T07:58:09.296Z</time></trkpt><trkpt lat="43.24076" lon="11.5521517"><ele>175.5</ele><time>2026-04-26T07:58:10.297Z</time></trkpt><trkpt lat="43.2408" lon="11.5520567"><ele>176.66666666666666</ele><time>2026-04-26T07:58:11.299Z</time></trkpt><trkpt lat="43.2408317" lon="11.5519583"><ele>177.83333333333331</ele><time>2026-04-26T07:58:12.295Z</time></trkpt><trkpt lat="43.2408433" lon="11.551855"><ele>179.0</ele><time>2026-04-26T07:58:13.298Z</time></trkpt><trkpt lat="43.24084" lon="11.5517467"><ele>179.0</ele><time>2026-04-26T07:58:14.297Z</time></trkpt><trkpt lat="43.2408117" lon="11.5516383"><ele>179.0</ele><time>2026-04-26T07:58:15.298Z</time></trkpt><trkpt lat="43.2407483" lon="11.5515333"><ele>179.0</ele><time>2026-04-26T07:58:16.298Z</time></trkpt><trkpt lat="43.2406767" lon="11.5514383"><ele>179.0</ele><time>2026-04-26T07:58:17.296Z</time></trkpt><trkpt lat="43.240605" lon="11.55134"><ele>179.0</ele><time>2026-04-26T07:58:18.297Z</time></trkpt><trkpt lat="43.2405317" lon="11.5512417"><ele>177.5</ele><time>2026-04-26T07:58:19.297Z</time></trkpt><trkpt lat="43.2404533" lon="11.5511433"><ele>176.0</ele><time>2026-04-26T07:58:20.296Z</time></trkpt><trkpt lat="43.2403683" lon="11.551035"><ele>174.5</ele><time>2026-04-26T07:58:21.297Z</time></trkpt><trkpt lat="43.240275" lon="11.5509117"><ele>173.0</ele><time>2026-04-26T07:58:22.297Z</time></trkpt><trkpt lat="43.2401783" lon="11.5507867"><ele>173.0</ele><time>2026-04-26T07:58:23.297Z</time></trkpt><trkpt lat="43.2400817" lon="11.5506567"><ele>173.0</ele><time>2026-04-26T07:58:24.296Z</time></trkpt><trkpt lat="43.2399867" lon="11.5505267"><ele>173.0</ele><time>2026-04-26T07:58:25.297Z</time></trkpt><trkpt lat="43.2398983" lon="11.5504033"><ele>173.0</ele><time>2026-04-26T07:58:26.297Z</time></trkpt><trkpt lat="43.2398167" lon="11.55029"><ele>173.4</ele><time>2026-04-26T07:58:27.297Z</time></trkpt><trkpt lat="43.239745" lon="11.5501833"><ele>173.8</ele><time>2026-04-26T07:58:28.296Z</time></trkpt><trkpt lat="43.239675" lon="11.55009"><ele>174.2</ele><time>2026-04-26T07:58:29.298Z</time></trkpt><trkpt lat="43.2396083" lon="11.5500017"><ele>174.6</ele><time>2026-04-26T07:58:30.299Z</time></trkpt><trkpt lat="43.239545" lon="11.5499183"><ele>175.0</ele><time>2026-04-26T07:58:31.297Z</time></trkpt><trkpt lat="43.23948" lon="11.5498333"><ele>175.0</ele><time>2026-04-26T07:58:32.296Z</time></trkpt><trkpt lat="43.2394117" lon="11.549745"><ele>175.0</ele><time>2026-04-26T07:58:33.298Z</time></trkpt><trkpt lat="43.23934" lon="11.5496533"><ele>175.0</ele><time>2026-04-26T07:58:34.295Z</time></trkpt><trkpt lat="43.239255" lon="11.54957"><ele>175.0</ele><time>2026-04-26T07:58:35.297Z</time></trkpt><trkpt lat="43.2391683" lon="11.549485"><ele>175.0</ele><time>2026-04-26T07:58:36.294Z</time></trkpt><trkpt lat="43.2390683" lon="11.5494033"><ele>175.25</ele><time>2026-04-26T07:58:37.295Z</time></trkpt><trkpt lat="43.2389633" lon="11.5493133"><ele>175.5</ele><time>2026-04-26T07:58:38.298Z</time></trkpt><trkpt lat="43.2388483" lon="11.549225"><ele>175.75</ele><time>2026-04-26T07:58:39.295Z</time></trkpt><trkpt lat="43.2387267" lon="11.549135"><ele>176.0</ele><time>2026-04-26T07:58:40.295Z</time></trkpt><trkpt lat="43.2386017" lon="11.549045"><ele>176.0</ele><time>2026-04-26T07:58:41.299Z</time></trkpt><trkpt lat="43.238475" lon="11.54895"><ele>176.0</ele><time>2026-04-26T07:58:42.297Z</time></trkpt><trkpt lat="43.2383517" lon="11.5488467"><ele>176.0</ele><time>2026-04-26T07:58:43.298Z</time></trkpt><trkpt lat="43.2382283" lon="11.5487333"><ele>176.0</ele><time>2026-04-26T07:58:44.299Z</time></trkpt><trkpt lat="43.2381033" lon="11.54862"><ele>176.0</ele><time>2026-04-26T07:58:45.298Z</time></trkpt><trkpt lat="43.23798" lon="11.548505"><ele>176.0</ele><time>2026-04-26T07:58:46.299Z</time></trkpt><trkpt lat="43.2378583" lon="11.5483817"><ele>176.0</ele><time>2026-04-26T07:58:47.297Z</time></trkpt><trkpt lat="43.2377367" lon="11.5482533"><ele>176.0</ele><time>2026-04-26T07:58:48.294Z</time></trkpt><trkpt lat="43.237615" lon="11.5481183"><ele>176.0</ele><time>2026-04-26T07:58:49.297Z</time></trkpt><trkpt lat="43.2374933" lon="11.54798"><ele>176.0</ele><time>2026-04-26T07:58:50.296Z</time></trkpt><trkpt lat="43.23737" lon="11.5478417"><ele>175.33333333333331</ele><time>2026-04-26T07:58:51.297Z</time></trkpt><trkpt lat="43.2372433" lon="11.5477017"><ele>174.66666666666666</ele><time>2026-04-26T07:58:52.296Z</time></trkpt><trkpt lat="43.2371133" lon="11.5475533"><ele>174.0</ele><time>2026-04-26T07:58:53.297Z</time></trkpt><trkpt lat="43.23698" lon="11.547405"><ele>174.0</ele><time>2026-04-26T07:58:54.298Z</time></trkpt><trkpt lat="43.2368483" lon="11.5472483"><ele>174.0</ele><time>2026-04-26T07:58:55.295Z</time></trkpt><trkpt lat="43.2367183" lon="11.54708"><ele>174.0</ele><time>2026-04-26T07:58:56.296Z</time></trkpt><trkpt lat="43.23659" lon="11.5469033"><ele>173.66666666666666</ele><time>2026-04-26T07:58:57.298Z</time></trkpt><trkpt lat="43.2364667" lon="11.54672"><ele>173.33333333333331</ele><time>2026-04-26T07:58:58.295Z</time></trkpt><trkpt lat="43.2363467" lon="11.5465417"><ele>173.0</ele><time>2026-04-26T07:58:59.297Z</time></trkpt><trkpt lat="43.23624" lon="11.5463667"><ele>174.0</ele><time>2026-04-26T07:59:00.294Z</time></trkpt><trkpt lat="43.2361433" lon="11.5461967"><ele>175.0</ele><time>2026-04-26T07:59:01.296Z</time></trkpt><trkpt lat="43.23606" lon="11.5460233"><ele>176.0</ele><time>2026-04-26T07:59:02.297Z</time></trkpt><trkpt lat="43.235985" lon="11.5458417"><ele>176.0</ele><time>2026-04-26T07:59:03.298Z</time></trkpt><trkpt lat="43.2359183" lon="11.5456567"><ele>176.0</ele><time>2026-04-26T07:59:04.298Z</time></trkpt><trkpt lat="43.2358567" lon="11.545465"><ele>176.0</ele><time>2026-04-26T07:59:05.297Z</time></trkpt><trkpt lat="43.2358033" lon="11.5452667"><ele>176.0</ele><time>2026-04-26T07:59:06.294Z</time></trkpt><trkpt lat="43.2357617" lon="11.5450583"><ele>176.0</ele><time>2026-04-26T07:59:07.295Z</time></trkpt><trkpt lat="43.235735" lon="11.5448417"><ele>176.0</ele><time>2026-04-26T07:59:08.295Z</time></trkpt><trkpt lat="43.2357217" lon="11.5446167"><ele>176.33333333333331</ele><time>2026-04-26T07:59:09.295Z</time></trkpt><trkpt lat="43.2357217" lon="11.5443867"><ele>176.66666666666666</ele><time>2026-04-26T07:59:10.298Z</time></trkpt><trkpt lat="43.23573" lon="11.5441483"><ele>177.0</ele><time>2026-04-26T07:59:11.297Z</time></trkpt><trkpt lat="43.23574" lon="11.5439083"><ele>177.33333333333334</ele><time>2026-04-26T07:59:12.297Z</time></trkpt><trkpt lat="43.2357517" lon="11.5436667"><ele>177.66666666666669</ele><time>2026-04-26T07:59:13.296Z</time></trkpt><trkpt lat="43.2357617" lon="11.543425"><ele>178.0</ele><time>2026-04-26T07:59:14.299Z</time></trkpt><trkpt lat="43.23577" lon="11.5431867"><ele>178.0</ele><time>2026-04-26T07:59:15.299Z</time></trkpt><trkpt lat="43.2357783" lon="11.54295"><ele>178.0</ele><time>2026-04-26T07:59:16.298Z</time></trkpt><trkpt lat="43.23579" lon="11.5427167"><ele>178.0</ele><time>2026-04-26T07:59:17.296Z</time></trkpt><trkpt lat="43.2358017" lon="11.5424833"><ele>178.33333333333334</ele><time>2026-04-26T07:59:18.296Z</time></trkpt><trkpt lat="43.235805" lon="11.5422533"><ele>178.66666666666666</ele><time>2026-04-26T07:59:19.296Z</time></trkpt><trkpt lat="43.2358133" lon="11.54202"><ele>179.0</ele><time>2026-04-26T07:59:20.297Z</time></trkpt><trkpt lat="43.2358233" lon="11.5417883"><ele>179.0</ele><time>2026-04-26T07:59:21.295Z</time></trkpt><trkpt lat="43.2358317" lon="11.5415567"><ele>179.0</ele><time>2026-04-26T07:59:22.295Z</time></trkpt><trkpt lat="43.2358433" lon="11.5413267"><ele>179.0</ele><time>2026-04-26T07:59:23.296Z</time></trkpt><trkpt lat="43.2358517" lon="11.5410967"><ele>177.66666666666666</ele><time>2026-04-26T07:59:24.296Z</time></trkpt><trkpt lat="43.2358617" lon="11.5408683"><ele>176.33333333333334</ele><time>2026-04-26T07:59:25.296Z</time></trkpt><trkpt lat="43.235875" lon="11.5406383"><ele>175.0</ele><time>2026-04-26T07:59:26.295Z</time></trkpt><trkpt lat="43.235885" lon="11.5404083"><ele>175.0</ele><time>2026-04-26T07:59:27.297Z</time></trkpt><trkpt lat="43.235895" lon="11.5401867"><ele>175.0</ele><time>2026-04-26T07:59:28.297Z</time></trkpt><trkpt lat="43.2358983" lon="11.5399767"><ele>175.0</ele><time>2026-04-26T07:59:29.296Z</time></trkpt><trkpt lat="43.2358867" lon="11.5397683"><ele>175.0</ele><time>2026-04-26T07:59:30.295Z</time></trkpt><trkpt lat="43.23584" lon="11.5395617"><ele>175.0</ele><time>2026-04-26T07:59:31.297Z</time></trkpt><trkpt lat="43.2357617" lon="11.539365"><ele>175.0</ele><time>2026-04-26T07:59:32.297Z</time></trkpt><trkpt lat="43.2356683" lon="11.539175"><ele>174.66666666666669</ele><time>2026-04-26T07:59:33.297Z</time></trkpt><trkpt lat="43.2355667" lon="11.5389867"><ele>174.33333333333334</ele><time>2026-04-26T07:59:34.297Z</time></trkpt><trkpt lat="43.235465" lon="11.5388"><ele>174.0</ele><time>2026-04-26T07:59:35.296Z</time></trkpt><trkpt lat="43.235365" lon="11.5386167"><ele>174.0</ele><time>2026-04-26T07:59:36.295Z</time></trkpt><trkpt lat="43.235265" lon="11.5384367"><ele>174.0</ele><time>2026-04-26T07:59:37.298Z</time></trkpt><trkpt lat="43.2351683" lon="11.538255"><ele>174.0</ele><time>2026-04-26T07:59:38.3Z</time></trkpt><trkpt lat="43.2350717" lon="11.5380783"><ele>174.0</ele><time>2026-04-26T07:59:39.298Z</time></trkpt><trkpt lat="43.2349733" lon="11.5379017"><ele>174.0</ele><time>2026-04-26T07:59:40.298Z</time></trkpt><trkpt lat="43.2348767" lon="11.53773"><ele>174.0</ele><time>2026-04-26T07:59:41.298Z</time></trkpt><trkpt lat="43.2347783" lon="11.5375567"><ele>173.33333333333334</ele><time>2026-04-26T07:59:42.298Z</time></trkpt><trkpt lat="43.2346833" lon="11.5373767"><ele>172.66666666666669</ele><time>2026-04-26T07:59:43.298Z</time></trkpt><trkpt lat="43.23459" lon="11.5371983"><ele>172.0</ele><time>2026-04-26T07:59:44.298Z</time></trkpt><trkpt lat="43.2344967" lon="11.53702"><ele>172.0</ele><time>2026-04-26T07:59:45.299Z</time></trkpt><trkpt lat="43.2344017" lon="11.5368417"><ele>172.0</ele><time>2026-04-26T07:59:46.298Z</time></trkpt><trkpt lat="43.234305" lon="11.536665"><ele>172.0</ele><time>2026-04-26T07:59:47.297Z</time></trkpt><trkpt lat="43.2342083" lon="11.5364833"><ele>172.0</ele><time>2026-04-26T07:59:48.297Z</time></trkpt><trkpt lat="43.2341117" lon="11.5363017"><ele>172.0</ele><time>2026-04-26T07:59:49.298Z</time></trkpt><trkpt lat="43.2340183" lon="11.53612"><ele>172.0</ele><time>2026-04-26T07:59:50.298Z</time></trkpt><trkpt lat="43.2339233" lon="11.5359417"><ele>171.0</ele><time>2026-04-26T07:59:51.298Z</time></trkpt><trkpt lat="43.2338267" lon="11.535765"><ele>170.0</ele><time>2026-04-26T07:59:52.298Z</time></trkpt><trkpt lat="43.23373" lon="11.5355867"><ele>169.0</ele><time>2026-04-26T07:59:53.298Z</time></trkpt><trkpt lat="43.2336267" lon="11.5354267"><ele>170.66666666666669</ele><time>2026-04-26T07:59:54.297Z</time></trkpt><trkpt lat="43.233515" lon="11.5352817"><ele>172.33333333333334</ele><time>2026-04-26T07:59:55.298Z</time></trkpt><trkpt lat="43.233395" lon="11.5351583"><ele>174.0</ele><time>2026-04-26T07:59:56.296Z</time></trkpt><trkpt lat="43.2332667" lon="11.5350533"><ele>174.0</ele><time>2026-04-26T07:59:57.298Z</time></trkpt><trkpt lat="43.23314" lon="11.5349583"><ele>174.0</ele><time>2026-04-26T07:59:58.297Z</time></trkpt><trkpt lat="43.23302" lon="11.5348633"><ele>174.0</ele><time>2026-04-26T07:59:59.296Z</time></trkpt><trkpt lat="43.2328983" lon="11.534775"><ele>174.0</ele><time>2026-04-26T08:00:00.296Z</time></trkpt><trkpt lat="43.2327767" lon="11.5346833"><ele>173.5</ele><time>2026-04-26T08:00:01.296Z</time></trkpt><trkpt lat="43.232655" lon="11.5345883"><ele>173.0</ele><time>2026-04-26T08:00:02.296Z</time></trkpt><trkpt lat="43.2325317" lon="11.5344917"><ele>172.5</ele><time>2026-04-26T08:00:03.295Z</time></trkpt><trkpt lat="43.2324117" lon="11.5343933"><ele>172.0</ele><time>2026-04-26T08:00:04.297Z</time></trkpt><trkpt lat="43.2322967" lon="11.5342867"><ele>171.5</ele><time>2026-04-26T08:00:05.296Z</time></trkpt><trkpt lat="43.2321933" lon="11.5341633"><ele>171.0</ele><time>2026-04-26T08:00:06.295Z</time></trkpt><trkpt lat="43.2321017" lon="11.5340233"><ele>170.5</ele><time>2026-04-26T08:00:07.296Z</time></trkpt><trkpt lat="43.232025" lon="11.5338633"><ele>170.0</ele><time>2026-04-26T08:00:08.296Z</time></trkpt><trkpt lat="43.231965" lon="11.5336867"><ele>170.0</ele><time>2026-04-26T08:00:09.296Z</time></trkpt><trkpt lat="43.23192" lon="11.5334967"><ele>170.0</ele><time>2026-04-26T08:00:10.296Z</time></trkpt><trkpt lat="43.2318817" lon="11.533305"><ele>170.0</ele><time>2026-04-26T08:00:11.297Z</time></trkpt><trkpt lat="43.2318433" lon="11.5331133"><ele>170.0</ele><time>2026-04-26T08:00:12.296Z</time></trkpt><trkpt lat="43.231805" lon="11.5329217"><ele>170.0</ele><time>2026-04-26T08:00:13.295Z</time></trkpt><trkpt lat="43.2317667" lon="11.53273"><ele>170.0</ele><time>2026-04-26T08:00:14.297Z</time></trkpt><trkpt lat="43.2317267" lon="11.5325383"><ele>170.0</ele><time>2026-04-26T08:00:15.297Z</time></trkpt><trkpt lat="43.2316833" lon="11.5323467"><ele>170.0</ele><time>2026-04-26T08:00:16.298Z</time></trkpt><trkpt lat="43.231645" lon="11.5321583"><ele>170.0</ele><time>2026-04-26T08:00:17.299Z</time></trkpt><trkpt lat="43.2316067" lon="11.531965"><ele>170.0</ele><time>2026-04-26T08:00:18.298Z</time></trkpt><trkpt lat="43.2315683" lon="11.5317717"><ele>170.0</ele><time>2026-04-26T08:00:19.297Z</time></trkpt><trkpt lat="43.2315317" lon="11.5315767"><ele>170.0</ele><time>2026-04-26T08:00:20.299Z</time></trkpt><trkpt lat="43.2314983" lon="11.53138"><ele>169.75</ele><time>2026-04-26T08:00:21.297Z</time></trkpt><trkpt lat="43.2314617" lon="11.5311883"><ele>169.5</ele><time>2026-04-26T08:00:22.297Z</time></trkpt><trkpt lat="43.2314133" lon="11.5310033"><ele>169.25</ele><time>2026-04-26T08:00:23.298Z</time></trkpt><trkpt lat="43.2313533" lon="11.5308267"><ele>169.0</ele><time>2026-04-26T08:00:24.294Z</time></trkpt><trkpt lat="43.2312817" lon="11.5306633"><ele>169.0</ele><time>2026-04-26T08:00:25.296Z</time></trkpt><trkpt lat="43.2311967" lon="11.5305133"><ele>169.0</ele><time>2026-04-26T08:00:26.296Z</time></trkpt><trkpt lat="43.2311017" lon="11.5303667"><ele>169.0</ele><time>2026-04-26T08:00:27.295Z</time></trkpt><trkpt lat="43.231005" lon="11.5302333"><ele>169.0</ele><time>2026-04-26T08:00:28.296Z</time></trkpt><trkpt lat="43.2309083" lon="11.5301083"><ele>169.25</ele><time>2026-04-26T08:00:29.296Z</time></trkpt><trkpt lat="43.2308133" lon="11.52998"><ele>169.5</ele><time>2026-04-26T08:00:30.297Z</time></trkpt><trkpt lat="43.2307183" lon="11.5298583"><ele>169.75</ele><time>2026-04-26T08:00:31.296Z</time></trkpt><trkpt lat="43.2306267" lon="11.5297317"><ele>170.0</ele><time>2026-04-26T08:00:32.295Z</time></trkpt><trkpt lat="43.230535" lon="11.5296067"><ele>171.5</ele><time>2026-04-26T08:00:33.295Z</time></trkpt><trkpt lat="43.2304433" lon="11.529485"><ele>173.0</ele><time>2026-04-26T08:00:34.295Z</time></trkpt><trkpt lat="43.230355" lon="11.5293633"><ele>174.5</ele><time>2026-04-26T08:00:35.296Z</time></trkpt><trkpt lat="43.2302733" lon="11.5292533"><ele>176.0</ele><time>2026-04-26T08:00:36.296Z</time></trkpt><trkpt lat="43.2301967" lon="11.5291467"><ele>176.0</ele><time>2026-04-26T08:00:37.295Z</time></trkpt><trkpt lat="43.2301233" lon="11.52905"><ele>176.0</ele><time>2026-04-26T08:00:38.296Z</time></trkpt><trkpt lat="43.230055" lon="11.5289567"><ele>176.0</ele><time>2026-04-26T08:00:39.295Z</time></trkpt><trkpt lat="43.2299867" lon="11.5288717"><ele>176.0</ele><time>2026-04-26T08:00:40.297Z</time></trkpt><trkpt lat="43.22992" lon="11.5288017"><ele>176.0</ele><time>2026-04-26T08:00:41.296Z</time></trkpt><trkpt lat="43.2298517" lon="11.52875"><ele>175.66666666666666</ele><time>2026-04-26T08:00:42.296Z</time></trkpt><trkpt lat="43.2297817" lon="11.5286983"><ele>175.33333333333331</ele><time>2026-04-26T08:00:43.295Z</time></trkpt><trkpt lat="43.2297083" lon="11.5286467"><ele>175.0</ele><time>2026-04-26T08:00:44.298Z</time></trkpt><trkpt lat="43.2296333" lon="11.5285883"><ele>174.66666666666666</ele><time>2026-04-26T08:00:45.298Z</time></trkpt><trkpt lat="43.2295583" lon="11.5285267"><ele>174.33333333333334</ele><time>2026-04-26T08:00:46.298Z</time></trkpt><trkpt lat="43.2294833" lon="11.5284433"><ele>174.0</ele><time>2026-04-26T08:00:47.299Z</time></trkpt><trkpt lat="43.2294083" lon="11.528355"><ele>174.0</ele><time>2026-04-26T08:00:48.297Z</time></trkpt><trkpt lat="43.2293367" lon="11.52826"><ele>174.0</ele><time>2026-04-26T08:00:49.298Z</time></trkpt><trkpt lat="43.2292633" lon="11.528165"><ele>174.0</ele><time>2026-04-26T08:00:50.298Z</time></trkpt><trkpt lat="43.2291883" lon="11.5280767"><ele>174.0</ele><time>2026-04-26T08:00:51.299Z</time></trkpt><trkpt lat="43.2291167" lon="11.52798"><ele>174.0</ele><time>2026-04-26T08:00:52.298Z</time></trkpt><trkpt lat="43.229045" lon="11.5278917"><ele>174.0</ele><time>2026-04-26T08:00:53.298Z</time></trkpt><trkpt lat="43.2289767" lon="11.5278067"><ele>174.0</ele><time>2026-04-26T08:00:54.299Z</time></trkpt><trkpt lat="43.2289083" lon="11.527725"><ele>174.0</ele><time>2026-04-26T08:00:55.297Z</time></trkpt><trkpt lat="43.2288383" lon="11.5276533"><ele>174.0</ele><time>2026-04-26T08:00:56.299Z</time></trkpt><trkpt lat="43.2287683" lon="11.527575"><ele>174.0</ele><time>2026-04-26T08:00:57.295Z</time></trkpt><trkpt lat="43.2286933" lon="11.5275033"><ele>172.79999999999998</ele><time>2026-04-26T08:00:58.295Z</time></trkpt><trkpt lat="43.2286117" lon="11.527445"><ele>171.6</ele><time>2026-04-26T08:00:59.296Z</time></trkpt><trkpt lat="43.228525" lon="11.5273983"><ele>170.4</ele><time>2026-04-26T08:01:00.297Z</time></trkpt><trkpt lat="43.22843" lon="11.5273533"><ele>169.2</ele><time>2026-04-26T08:01:01.295Z</time></trkpt><trkpt lat="43.2283267" lon="11.5273083"><ele>168.0</ele><time>2026-04-26T08:01:02.296Z</time></trkpt><trkpt lat="43.228225" lon="11.52726"><ele>168.8</ele><time>2026-04-26T08:01:03.296Z</time></trkpt><trkpt lat="43.2281233" lon="11.52721"><ele>169.60000000000002</ele><time>2026-04-26T08:01:04.296Z</time></trkpt><trkpt lat="43.2280267" lon="11.5271483"><ele>170.39999999999998</ele><time>2026-04-26T08:01:05.296Z</time></trkpt><trkpt lat="43.2279333" lon="11.5270783"><ele>171.2</ele><time>2026-04-26T08:01:06.296Z</time></trkpt><trkpt lat="43.2278433" lon="11.5270033"><ele>172.0</ele><time>2026-04-26T08:01:07.297Z</time></trkpt><trkpt lat="43.2277583" lon="11.5269183"><ele>172.2</ele><time>2026-04-26T08:01:08.296Z</time></trkpt><trkpt lat="43.2276717" lon="11.5268317"><ele>172.39999999999998</ele><time>2026-04-26T08:01:09.296Z</time></trkpt><trkpt lat="43.2275867" lon="11.5267433"><ele>172.60000000000002</ele><time>2026-04-26T08:01:10.296Z</time></trkpt><trkpt lat="43.227505" lon="11.5266533"><ele>172.8</ele><time>2026-04-26T08:01:11.298Z</time></trkpt><trkpt lat="43.2274267" lon="11.5265667"><ele>173.0</ele><time>2026-04-26T08:01:12.298Z</time></trkpt><trkpt lat="43.2273533" lon="11.5264917"><ele>173.8</ele><time>2026-04-26T08:01:13.298Z</time></trkpt><trkpt lat="43.2272767" lon="11.52643"><ele>174.60000000000002</ele><time>2026-04-26T08:01:14.299Z</time></trkpt><trkpt lat="43.2271933" lon="11.526385"><ele>175.39999999999998</ele><time>2026-04-26T08:01:15.295Z</time></trkpt><trkpt lat="43.2271067" lon="11.5263533"><ele>176.2</ele><time>2026-04-26T08:01:16.297Z</time></trkpt><trkpt lat="43.227015" lon="11.52634"><ele>177.0</ele><time>2026-04-26T08:01:17.295Z</time></trkpt><trkpt lat="43.2269233" lon="11.5263333"><ele>177.0</ele><time>2026-04-26T08:01:18.295Z</time></trkpt><trkpt lat="43.2268317" lon="11.5263383"><ele>177.0</ele><time>2026-04-26T08:01:19.296Z</time></trkpt><trkpt lat="43.2267433" lon="11.5263417"><ele>177.0</ele><time>2026-04-26T08:01:20.297Z</time></trkpt><trkpt lat="43.2266467" lon="11.5263483"><ele>177.0</ele><time>2026-04-26T08:01:21.295Z</time></trkpt><trkpt lat="43.226555" lon="11.5263517"><ele>177.0</ele><time>2026-04-26T08:01:22.296Z</time></trkpt><trkpt lat="43.2264667" lon="11.5263567"><ele>176.6</ele><time>2026-04-26T08:01:23.297Z</time></trkpt><trkpt lat="43.226375" lon="11.52636"><ele>176.2</ele><time>2026-04-26T08:01:24.295Z</time></trkpt><trkpt lat="43.2262883" lon="11.5263667"><ele>175.8</ele><time>2026-04-26T08:01:25.296Z</time></trkpt><trkpt lat="43.2262" lon="11.5263667"><ele>175.4</ele><time>2026-04-26T08:01:26.297Z</time></trkpt><trkpt lat="43.2261083" lon="11.5263683"><ele>175.0</ele><time>2026-04-26T08:01:27.295Z</time></trkpt><trkpt lat="43.226015" lon="11.526365"><ele>175.0</ele><time>2026-04-26T08:01:28.295Z</time></trkpt><trkpt lat="43.2259267" lon="11.5263517"><ele>175.0</ele><time>2026-04-26T08:01:29.295Z</time></trkpt><trkpt lat="43.2258317" lon="11.5263267"><ele>175.0</ele><time>2026-04-26T08:01:30.295Z</time></trkpt><trkpt lat="43.2257333" lon="11.526295"><ele>175.0</ele><time>2026-04-26T08:01:31.295Z</time></trkpt><trkpt lat="43.22563" lon="11.5262633"><ele>175.0</ele><time>2026-04-26T08:01:32.296Z</time></trkpt><trkpt lat="43.2255283" lon="11.5262283"><ele>176.0</ele><time>2026-04-26T08:01:33.295Z</time></trkpt><trkpt lat="43.225425" lon="11.5261967"><ele>177.0</ele><time>2026-04-26T08:01:34.297Z</time></trkpt><trkpt lat="43.22532" lon="11.526165"><ele>178.0</ele><time>2026-04-26T08:01:35.296Z</time></trkpt><trkpt lat="43.22521" lon="11.5261333"><ele>179.0</ele><time>2026-04-26T08:01:36.296Z</time></trkpt><trkpt lat="43.2250967" lon="11.5261033"><ele>180.0</ele><time>2026-04-26T08:01:37.295Z</time></trkpt><trkpt lat="43.2249817" lon="11.5260717"><ele>180.0</ele><time>2026-04-26T08:01:38.299Z</time></trkpt><trkpt lat="43.224865" lon="11.52604"><ele>180.0</ele><time>2026-04-26T08:01:39.295Z</time></trkpt><trkpt lat="43.2247467" lon="11.5260083"><ele>180.0</ele><time>2026-04-26T08:01:40.296Z</time></trkpt><trkpt lat="43.22463" lon="11.5259733"><ele>180.0</ele><time>2026-04-26T08:01:41.295Z</time></trkpt><trkpt lat="43.2245117" lon="11.52594"><ele>179.25</ele><time>2026-04-26T08:01:42.295Z</time></trkpt><trkpt lat="43.2243933" lon="11.52592"><ele>178.5</ele><time>2026-04-26T08:01:43.295Z</time></trkpt><trkpt lat="43.224275" lon="11.5259067"><ele>177.75</ele><time>2026-04-26T08:01:44.296Z</time></trkpt><trkpt lat="43.2241567" lon="11.5259133"><ele>177.0</ele><time>2026-04-26T08:01:45.297Z</time></trkpt><trkpt lat="43.22404" lon="11.5259217"><ele>176.75</ele><time>2026-04-26T08:01:46.297Z</time></trkpt><trkpt lat="43.2239267" lon="11.5259417"><ele>176.5</ele><time>2026-04-26T08:01:47.299Z</time></trkpt><trkpt lat="43.223815" lon="11.5259567"><ele>176.25</ele><time>2026-04-26T08:01:48.299Z</time></trkpt><trkpt lat="43.2237017" lon="11.5259667"><ele>176.0</ele><time>2026-04-26T08:01:49.299Z</time></trkpt><trkpt lat="43.2235867" lon="11.5259633"><ele>176.0</ele><time>2026-04-26T08:01:50.299Z</time></trkpt><trkpt lat="43.223475" lon="11.5259583"><ele>176.0</ele><time>2026-04-26T08:01:51.298Z</time></trkpt><trkpt lat="43.2233717" lon="11.5259517"><ele>176.0</ele><time>2026-04-26T08:01:52.297Z</time></trkpt><trkpt lat="43.2232717" lon="11.5259367"><ele>176.0</ele><time>2026-04-26T08:01:53.298Z</time></trkpt><trkpt lat="43.223175" lon="11.5259067"><ele>176.0</ele><time>2026-04-26T08:01:54.294Z</time></trkpt><trkpt lat="43.2230867" lon="11.5258583"><ele>174.60000000000002</ele><time>2026-04-26T08:01:55.298Z</time></trkpt><trkpt lat="43.223005" lon="11.5257917"><ele>173.2</ele><time>2026-04-26T08:01:56.298Z</time></trkpt><trkpt lat="43.2229283" lon="11.5257067"><ele>171.8</ele><time>2026-04-26T08:01:57.297Z</time></trkpt><trkpt lat="43.222855" lon="11.525625"><ele>170.39999999999998</ele><time>2026-04-26T08:01:58.296Z</time></trkpt><trkpt lat="43.22278" lon="11.5255583"><ele>169.0</ele><time>2026-04-26T08:01:59.3Z</time></trkpt><trkpt lat="43.2226983" lon="11.525505"><ele>169.0</ele><time>2026-04-26T08:02:00.295Z</time></trkpt><trkpt lat="43.2226067" lon="11.5254667"><ele>169.0</ele><time>2026-04-26T08:02:01.295Z</time></trkpt><trkpt lat="43.2225083" lon="11.5254533"><ele>169.0</ele><time>2026-04-26T08:02:02.297Z</time></trkpt><trkpt lat="43.2224033" lon="11.5254467"><ele>169.0</ele><time>2026-04-26T08:02:03.295Z</time></trkpt><trkpt lat="43.2223" lon="11.52544"><ele>169.0</ele><time>2026-04-26T08:02:04.296Z</time></trkpt><trkpt lat="43.2221967" lon="11.525425"><ele>169.5</ele><time>2026-04-26T08:02:05.298Z</time></trkpt><trkpt lat="43.2220917" lon="11.525405"><ele>170.0</ele><time>2026-04-26T08:02:06.295Z</time></trkpt><trkpt lat="43.22198" lon="11.525385"><ele>170.5</ele><time>2026-04-26T08:02:07.296Z</time></trkpt><trkpt lat="43.2218633" lon="11.525365"><ele>171.0</ele><time>2026-04-26T08:02:08.297Z</time></trkpt><trkpt lat="43.2217433" lon="11.5253483"><ele>172.4</ele><time>2026-04-26T08:02:09.296Z</time></trkpt><trkpt lat="43.2216267" lon="11.52533"><ele>173.8</ele><time>2026-04-26T08:02:10.296Z</time></trkpt><trkpt lat="43.2215133" lon="11.52531"><ele>175.20000000000002</ele><time>2026-04-26T08:02:11.299Z</time></trkpt><trkpt lat="43.2214083" lon="11.5252917"><ele>176.60000000000002</ele><time>2026-04-26T08:02:12.298Z</time></trkpt><trkpt lat="43.2213067" lon="11.5252733"><ele>178.0</ele><time>2026-04-26T08:02:13.298Z</time></trkpt><trkpt lat="43.2212033" lon="11.525255"><ele>178.0</ele><time>2026-04-26T08:02:14.298Z</time></trkpt><trkpt lat="43.2211017" lon="11.525235"><ele>178.0</ele><time>2026-04-26T08:02:15.299Z</time></trkpt><trkpt lat="43.2210033" lon="11.5252067"><ele>178.0</ele><time>2026-04-26T08:02:16.299Z</time></trkpt><trkpt lat="43.2209083" lon="11.5251583"><ele>178.0</ele><time>2026-04-26T08:02:17.298Z</time></trkpt><trkpt lat="43.2208167" lon="11.5250983"><ele>178.0</ele><time>2026-04-26T08:02:18.3Z</time></trkpt><trkpt lat="43.2207283" lon="11.5250317"><ele>177.0</ele><time>2026-04-26T08:02:19.298Z</time></trkpt><trkpt lat="43.2206417" lon="11.52496"><ele>176.0</ele><time>2026-04-26T08:02:20.298Z</time></trkpt><trkpt lat="43.2205533" lon="11.5249017"><ele>175.0</ele><time>2026-04-26T08:02:21.298Z</time></trkpt><trkpt lat="43.2204617" lon="11.5248517"><ele>174.0</ele><time>2026-04-26T08:02:22.298Z</time></trkpt><trkpt lat="43.2203683" lon="11.5248433"><ele>173.0</ele><time>2026-04-26T08:02:23.298Z</time></trkpt><trkpt lat="43.2202717" lon="11.5248533"><ele>173.0</ele><time>2026-04-26T08:02:24.295Z</time></trkpt><trkpt lat="43.2201783" lon="11.52488"><ele>173.0</ele><time>2026-04-26T08:02:25.296Z</time></trkpt><trkpt lat="43.22009" lon="11.5249167"><ele>173.0</ele><time>2026-04-26T08:02:26.297Z</time></trkpt><trkpt lat="43.2200017" lon="11.5249533"><ele>173.0</ele><time>2026-04-26T08:02:27.296Z</time></trkpt><trkpt lat="43.2199183" lon="11.5249817"><ele>173.0</ele><time>2026-04-26T08:02:28.297Z</time></trkpt><trkpt lat="43.2198367" lon="11.5249967"><ele>173.0</ele><time>2026-04-26T08:02:29.296Z</time></trkpt><trkpt lat="43.2197533" lon="11.5249917"><ele>171.8</ele><time>2026-04-26T08:02:30.298Z</time></trkpt><trkpt lat="43.2196667" lon="11.5249683"><ele>170.60000000000002</ele><time>2026-04-26T08:02:31.297Z</time></trkpt><trkpt lat="43.21958" lon="11.52492"><ele>169.39999999999998</ele><time>2026-04-26T08:02:32.296Z</time></trkpt><trkpt lat="43.219495" lon="11.5248417"><ele>168.2</ele><time>2026-04-26T08:02:33.295Z</time></trkpt><trkpt lat="43.219415" lon="11.524745"><ele>167.0</ele><time>2026-04-26T08:02:34.298Z</time></trkpt><trkpt lat="43.2193383" lon="11.52464"><ele>168.25</ele><time>2026-04-26T08:02:35.298Z</time></trkpt><trkpt lat="43.2192667" lon="11.5245167"><ele>169.5</ele><time>2026-04-26T08:02:36.295Z</time></trkpt><trkpt lat="43.2191933" lon="11.5243983"><ele>170.75</ele><time>2026-04-26T08:02:37.295Z</time></trkpt><trkpt lat="43.2191233" lon="11.5242767"><ele>172.0</ele><time>2026-04-26T08:02:38.296Z</time></trkpt><trkpt lat="43.2190533" lon="11.52415"><ele>172.0</ele><time>2026-04-26T08:02:39.294Z</time></trkpt><trkpt lat="43.21898" lon="11.524025"><ele>172.0</ele><time>2026-04-26T08:02:40.297Z</time></trkpt><trkpt lat="43.2189083" lon="11.523905"><ele>172.0</ele><time>2026-04-26T08:02:41.296Z</time></trkpt><trkpt lat="43.21884" lon="11.5237867"><ele>172.0</ele><time>2026-04-26T08:02:42.296Z</time></trkpt><trkpt lat="43.2187733" lon="11.52366"><ele>172.0</ele><time>2026-04-26T08:02:43.297Z</time></trkpt><trkpt lat="43.2187067" lon="11.5235383"><ele>172.0</ele><time>2026-04-26T08:02:44.298Z</time></trkpt><trkpt lat="43.2186417" lon="11.5234183"><ele>172.0</ele><time>2026-04-26T08:02:45.299Z</time></trkpt><trkpt lat="43.21858" lon="11.5232917"><ele>172.0</ele><time>2026-04-26T08:02:46.297Z</time></trkpt><trkpt lat="43.21852" lon="11.523165"><ele>172.0</ele><time>2026-04-26T08:02:47.298Z</time></trkpt><trkpt lat="43.2184667" lon="11.523035"><ele>172.0</ele><time>2026-04-26T08:02:48.297Z</time></trkpt><trkpt lat="43.2184183" lon="11.5229067"><ele>172.0</ele><time>2026-04-26T08:02:49.298Z</time></trkpt><trkpt lat="43.218375" lon="11.5227733"><ele>172.0</ele><time>2026-04-26T08:02:50.298Z</time></trkpt><trkpt lat="43.218335" lon="11.5226433"><ele>172.0</ele><time>2026-04-26T08:02:51.299Z</time></trkpt><trkpt lat="43.2182967" lon="11.5225083"><ele>172.0</ele><time>2026-04-26T08:02:52.299Z</time></trkpt><trkpt lat="43.2182583" lon="11.5223783"><ele>173.6</ele><time>2026-04-26T08:02:53.299Z</time></trkpt><trkpt lat="43.2182267" lon="11.5222383"><ele>175.2</ele><time>2026-04-26T08:02:54.294Z</time></trkpt><trkpt lat="43.218205" lon="11.5221017"><ele>176.8</ele><time>2026-04-26T08:02:55.296Z</time></trkpt><trkpt lat="43.2181933" lon="11.5219733"><ele>178.4</ele><time>2026-04-26T08:02:56.297Z</time></trkpt><trkpt lat="43.218185" lon="11.5218633"><ele>180.0</ele><time>2026-04-26T08:02:57.294Z</time></trkpt><trkpt lat="43.218175" lon="11.5217633"><ele>179.83333333333334</ele><time>2026-04-26T08:02:58.295Z</time></trkpt><trkpt lat="43.218145" lon="11.5216717"><ele>179.66666666666666</ele><time>2026-04-26T08:02:59.296Z</time></trkpt><trkpt lat="43.2180933" lon="11.5215867"><ele>179.5</ele><time>2026-04-26T08:03:00.295Z</time></trkpt><trkpt lat="43.2180217" lon="11.5215217"><ele>179.33333333333331</ele><time>2026-04-26T08:03:01.296Z</time></trkpt><trkpt lat="43.2179333" lon="11.5214767"><ele>179.16666666666666</ele><time>2026-04-26T08:03:02.297Z</time></trkpt><trkpt lat="43.2178417" lon="11.5214233"><ele>179.0</ele><time>2026-04-26T08:03:03.296Z</time></trkpt><trkpt lat="43.21775" lon="11.5213683"><ele>179.0</ele><time>2026-04-26T08:03:04.296Z</time></trkpt><trkpt lat="43.2176667" lon="11.5212967"><ele>179.0</ele><time>2026-04-26T08:03:05.295Z</time></trkpt><trkpt lat="43.2175933" lon="11.5212167"><ele>179.0</ele><time>2026-04-26T08:03:06.295Z</time></trkpt><trkpt lat="43.21753" lon="11.5211183"><ele>179.0</ele><time>2026-04-26T08:03:07.297Z</time></trkpt><trkpt lat="43.2174783" lon="11.52102"><ele>179.0</ele><time>2026-04-26T08:03:08.296Z</time></trkpt><trkpt lat="43.2174383" lon="11.5209117"><ele>179.2</ele><time>2026-04-26T08:03:09.294Z</time></trkpt><trkpt lat="43.217415" lon="11.5207933"><ele>179.39999999999998</ele><time>2026-04-26T08:03:10.295Z</time></trkpt><trkpt lat="43.217405" lon="11.5206617"><ele>179.6</ele><time>2026-04-26T08:03:11.296Z</time></trkpt><trkpt lat="43.2174067" lon="11.5205117"><ele>179.8</ele><time>2026-04-26T08:03:12.295Z</time></trkpt><trkpt lat="43.2174133" lon="11.52035"><ele>180.0</ele><time>2026-04-26T08:03:13.297Z</time></trkpt><trkpt lat="43.2174233" lon="11.52019"><ele>180.0</ele><time>2026-04-26T08:03:14.296Z</time></trkpt><trkpt lat="43.21743" lon="11.5200333"><ele>180.0</ele><time>2026-04-26T08:03:15.299Z</time></trkpt><trkpt lat="43.2174383" lon="11.5198783"><ele>180.0</ele><time>2026-04-26T08:03:16.298Z</time></trkpt><trkpt lat="43.217445" lon="11.5197283"><ele>180.0</ele><time>2026-04-26T08:03:17.297Z</time></trkpt><trkpt lat="43.2174533" lon="11.5195833"><ele>180.0</ele><time>2026-04-26T08:03:18.296Z</time></trkpt><trkpt lat="43.2174667" lon="11.51944"><ele>178.8</ele><time>2026-04-26T08:03:19.295Z</time></trkpt><trkpt lat="43.21748" lon="11.5193017"><ele>177.6</ele><time>2026-04-26T08:03:20.297Z</time></trkpt><trkpt lat="43.217485" lon="11.5191667"><ele>176.39999999999998</ele><time>2026-04-26T08:03:21.295Z</time></trkpt><trkpt lat="43.2174817" lon="11.51903"><ele>175.2</ele><time>2026-04-26T08:03:22.296Z</time></trkpt><trkpt lat="43.217465" lon="11.5188933"><ele>174.0</ele><time>2026-04-26T08:03:23.296Z</time></trkpt><trkpt lat="43.2174367" lon="11.5187533"><ele>174.0</ele><time>2026-04-26T08:03:24.295Z</time></trkpt><trkpt lat="43.2173983" lon="11.5186183"><ele>174.0</ele><time>2026-04-26T08:03:25.296Z</time></trkpt><trkpt lat="43.2173567" lon="11.5184883"><ele>174.0</ele><time>2026-04-26T08:03:26.297Z</time></trkpt><trkpt lat="43.2173117" lon="11.51836"><ele>174.0</ele><time>2026-04-26T08:03:27.294Z</time></trkpt><trkpt lat="43.217265" lon="11.5182333"><ele>174.0</ele><time>2026-04-26T08:03:28.296Z</time></trkpt><trkpt lat="43.2172167" lon="11.5181083"><ele>173.2</ele><time>2026-04-26T08:03:29.296Z</time></trkpt><trkpt lat="43.2171667" lon="11.5179767"><ele>172.39999999999998</ele><time>2026-04-26T08:03:30.295Z</time></trkpt><trkpt lat="43.217115" lon="11.51784"><ele>171.6</ele><time>2026-04-26T08:03:31.296Z</time></trkpt><trkpt lat="43.2170633" lon="11.5177033"><ele>170.8</ele><time>2026-04-26T08:03:32.296Z</time></trkpt><trkpt lat="43.2170117" lon="11.517565"><ele>170.0</ele><time>2026-04-26T08:03:33.294Z</time></trkpt><trkpt lat="43.2169567" lon="11.517425"><ele>170.0</ele><time>2026-04-26T08:03:34.296Z</time></trkpt><trkpt lat="43.2169017" lon="11.5172917"><ele>170.0</ele><time>2026-04-26T08:03:35.296Z</time></trkpt><trkpt lat="43.2168433" lon="11.517155"><ele>170.0</ele><time>2026-04-26T08:03:36.295Z</time></trkpt><trkpt lat="43.216785" lon="11.517015"><ele>170.0</ele><time>2026-04-26T08:03:37.295Z</time></trkpt><trkpt lat="43.216725" lon="11.51688"><ele>169.75</ele><time>2026-04-26T08:03:38.299Z</time></trkpt><trkpt lat="43.2166633" lon="11.5167483"><ele>169.5</ele><time>2026-04-26T08:03:39.297Z</time></trkpt><trkpt lat="43.2165967" lon="11.5166133"><ele>169.25</ele><time>2026-04-26T08:03:40.295Z</time></trkpt><trkpt lat="43.21653" lon="11.5164817"><ele>169.0</ele><time>2026-04-26T08:03:41.297Z</time></trkpt><trkpt lat="43.21646" lon="11.516355"><ele>168.79999999999998</ele><time>2026-04-26T08:03:42.295Z</time></trkpt><trkpt lat="43.216395" lon="11.51623"><ele>168.6</ele><time>2026-04-26T08:03:43.296Z</time></trkpt><trkpt lat="43.2163283" lon="11.5161033"><ele>168.4</ele><time>2026-04-26T08:03:44.298Z</time></trkpt><trkpt lat="43.2162667" lon="11.51598"><ele>168.2</ele><time>2026-04-26T08:03:45.298Z</time></trkpt><trkpt lat="43.216205" lon="11.5158567"><ele>168.0</ele><time>2026-04-26T08:03:46.298Z</time></trkpt><trkpt lat="43.2161467" lon="11.5157333"><ele>168.0</ele><time>2026-04-26T08:03:47.299Z</time></trkpt><trkpt lat="43.21609" lon="11.5156117"><ele>168.0</ele><time>2026-04-26T08:03:48.296Z</time></trkpt><trkpt lat="43.2160367" lon="11.515485"><ele>168.0</ele><time>2026-04-26T08:03:49.296Z</time></trkpt><trkpt lat="43.215985" lon="11.515355"><ele>168.0</ele><time>2026-04-26T08:03:50.296Z</time></trkpt><trkpt lat="43.2159367" lon="11.5152283"><ele>168.0</ele><time>2026-04-26T08:03:51.295Z</time></trkpt><trkpt lat="43.2158933" lon="11.5151017"><ele>169.2</ele><time>2026-04-26T08:03:52.295Z</time></trkpt><trkpt lat="43.21585" lon="11.5149717"><ele>170.4</ele><time>2026-04-26T08:03:53.297Z</time></trkpt><trkpt lat="43.2158067" lon="11.514845"><ele>171.6</ele><time>2026-04-26T08:03:54.296Z</time></trkpt><trkpt lat="43.2157617" lon="11.5147217"><ele>172.79999999999998</ele><time>2026-04-26T08:03:55.296Z</time></trkpt><trkpt lat="43.2157183" lon="11.5146"><ele>174.0</ele><time>2026-04-26T08:03:56.296Z</time></trkpt><trkpt lat="43.2156733" lon="11.5144817"><ele>175.33333333333334</ele><time>2026-04-26T08:03:57.295Z</time></trkpt><trkpt lat="43.2156333" lon="11.514365"><ele>176.66666666666666</ele><time>2026-04-26T08:03:58.296Z</time></trkpt><trkpt lat="43.215595" lon="11.51425"><ele>178.0</ele><time>2026-04-26T08:03:59.296Z</time></trkpt><trkpt lat="43.2155633" lon="11.51414"><ele>179.33333333333331</ele><time>2026-04-26T08:04:00.295Z</time></trkpt><trkpt lat="43.21554" lon="11.5140333"><ele>180.66666666666666</ele><time>2026-04-26T08:04:01.297Z</time></trkpt><trkpt lat="43.2155233" lon="11.5139417"><ele>182.0</ele><time>2026-04-26T08:04:02.298Z</time></trkpt><trkpt lat="43.2155117" lon="11.5138483"><ele>182.0</ele><time>2026-04-26T08:04:03.295Z</time></trkpt><trkpt lat="43.2155" lon="11.5137583"><ele>182.0</ele><time>2026-04-26T08:04:04.296Z</time></trkpt><trkpt lat="43.215485" lon="11.513665"><ele>182.0</ele><time>2026-04-26T08:04:05.295Z</time></trkpt><trkpt lat="43.215465" lon="11.5135733"><ele>182.0</ele><time>2026-04-26T08:04:06.296Z</time></trkpt><trkpt lat="43.2154383" lon="11.513485"><ele>182.0</ele><time>2026-04-26T08:04:07.298Z</time></trkpt><trkpt lat="43.2154" lon="11.5133917"><ele>182.0</ele><time>2026-04-26T08:04:08.298Z</time></trkpt><trkpt lat="43.2153567" lon="11.5133"><ele>182.0</ele><time>2026-04-26T08:04:09.296Z</time></trkpt><trkpt lat="43.2153017" lon="11.5132083"><ele>181.6</ele><time>2026-04-26T08:04:10.297Z</time></trkpt><trkpt lat="43.215235" lon="11.51312"><ele>181.2</ele><time>2026-04-26T08:04:11.297Z</time></trkpt><trkpt lat="43.2151583" lon="11.5130333"><ele>180.8</ele><time>2026-04-26T08:04:12.296Z</time></trkpt><trkpt lat="43.2150817" lon="11.51295"><ele>180.4</ele><time>2026-04-26T08:04:13.296Z</time></trkpt><trkpt lat="43.2150033" lon="11.51287"><ele>180.0</ele><time>2026-04-26T08:04:14.297Z</time></trkpt><trkpt lat="43.2149233" lon="11.5127967"><ele>179.6</ele><time>2026-04-26T08:04:15.299Z</time></trkpt><trkpt lat="43.214845" lon="11.512725"><ele>179.2</ele><time>2026-04-26T08:04:16.298Z</time></trkpt><trkpt lat="43.2147683" lon="11.5126517"><ele>178.8</ele><time>2026-04-26T08:04:17.298Z</time></trkpt><trkpt lat="43.21469" lon="11.5125783"><ele>178.4</ele><time>2026-04-26T08:04:18.295Z</time></trkpt><trkpt lat="43.2146117" lon="11.5125083"><ele>178.0</ele><time>2026-04-26T08:04:19.295Z</time></trkpt><trkpt lat="43.214535" lon="11.512435"><ele>176.0</ele><time>2026-04-26T08:04:20.297Z</time></trkpt><trkpt lat="43.21446" lon="11.5123617"><ele>174.0</ele><time>2026-04-26T08:04:21.297Z</time></trkpt><trkpt lat="43.21439" lon="11.51228"><ele>172.0</ele><time>2026-04-26T08:04:22.297Z</time></trkpt><trkpt lat="43.21433" lon="11.51219"><ele>170.0</ele><time>2026-04-26T08:04:23.296Z</time></trkpt><trkpt lat="43.2142817" lon="11.5120883"><ele>168.0</ele><time>2026-04-26T08:04:24.296Z</time></trkpt><trkpt lat="43.214245" lon="11.5119767"><ele>167.60000000000002</ele><time>2026-04-26T08:04:25.295Z</time></trkpt><trkpt lat="43.21422" lon="11.51186"><ele>167.20000000000002</ele><time>2026-04-26T08:04:26.297Z</time></trkpt><trkpt lat="43.2142083" lon="11.5117367"><ele>166.8</ele><time>2026-04-26T08:04:27.296Z</time></trkpt><trkpt lat="43.2142167" lon="11.5116033"><ele>166.4</ele><time>2026-04-26T08:04:28.295Z</time></trkpt><trkpt lat="43.214235" lon="11.511465"><ele>166.0</ele><time>2026-04-26T08:04:29.296Z</time></trkpt><trkpt lat="43.21425" lon="11.5113317"><ele>165.60000000000002</ele><time>2026-04-26T08:04:30.296Z</time></trkpt><trkpt lat="43.2142517" lon="11.511195"><ele>165.2</ele><time>2026-04-26T08:04:31.295Z</time></trkpt><trkpt lat="43.21424" lon="11.511055"><ele>164.8</ele><time>2026-04-26T08:04:32.296Z</time></trkpt><trkpt lat="43.2142083" lon="11.510925"><ele>164.39999999999998</ele><time>2026-04-26T08:04:33.296Z</time></trkpt><trkpt lat="43.2141617" lon="11.5108033"><ele>164.0</ele><time>2026-04-26T08:04:34.295Z</time></trkpt><trkpt lat="43.2141083" lon="11.5106883"><ele>164.0</ele><time>2026-04-26T08:04:35.296Z</time></trkpt><trkpt lat="43.2140483" lon="11.510575"><ele>164.0</ele><time>2026-04-26T08:04:36.295Z</time></trkpt><trkpt lat="43.2139867" lon="11.5104583"><ele>164.0</ele><time>2026-04-26T08:04:37.295Z</time></trkpt><trkpt lat="43.2139217" lon="11.5103467"><ele>164.0</ele><time>2026-04-26T08:04:38.297Z</time></trkpt><trkpt lat="43.21385" lon="11.51023"><ele>164.0</ele><time>2026-04-26T08:04:39.294Z</time></trkpt><trkpt lat="43.2137767" lon="11.5101183"><ele>163.79999999999998</ele><time>2026-04-26T08:04:40.296Z</time></trkpt><trkpt lat="43.213695" lon="11.5100133"><ele>163.6</ele><time>2026-04-26T08:04:41.296Z</time></trkpt><trkpt lat="43.2136167" lon="11.50992"><ele>163.4</ele><time>2026-04-26T08:04:42.295Z</time></trkpt><trkpt lat="43.21354" lon="11.5098333"><ele>163.2</ele><time>2026-04-26T08:04:43.299Z</time></trkpt><trkpt lat="43.2134617" lon="11.5097433"><ele>163.0</ele><time>2026-04-26T08:04:44.298Z</time></trkpt><trkpt lat="43.2133833" lon="11.509655"><ele>163.2</ele><time>2026-04-26T08:04:45.298Z</time></trkpt><trkpt lat="43.2133067" lon="11.509555"><ele>163.4</ele><time>2026-04-26T08:04:46.3Z</time></trkpt><trkpt lat="43.213235" lon="11.50945"><ele>163.6</ele><time>2026-04-26T08:04:47.297Z</time></trkpt><trkpt lat="43.21317" lon="11.5093417"><ele>163.79999999999998</ele><time>2026-04-26T08:04:48.295Z</time></trkpt><trkpt lat="43.2131083" lon="11.5092267"><ele>164.0</ele><time>2026-04-26T08:04:49.296Z</time></trkpt><trkpt lat="43.21305" lon="11.5091083"><ele>163.6</ele><time>2026-04-26T08:04:50.297Z</time></trkpt><trkpt lat="43.21299" lon="11.5089867"><ele>163.2</ele><time>2026-04-26T08:04:51.296Z</time></trkpt><trkpt lat="43.21293" lon="11.5088683"><ele>162.79999999999998</ele><time>2026-04-26T08:04:52.297Z</time></trkpt><trkpt lat="43.212875" lon="11.5087517"><ele>162.39999999999998</ele><time>2026-04-26T08:04:53.296Z</time></trkpt><trkpt lat="43.2128233" lon="11.5086367"><ele>162.0</ele><time>2026-04-26T08:04:54.295Z</time></trkpt><trkpt lat="43.2127733" lon="11.5085233"><ele>162.0</ele><time>2026-04-26T08:04:55.295Z</time></trkpt><trkpt lat="43.2127267" lon="11.50841"><ele>162.0</ele><time>2026-04-26T08:04:56.298Z</time></trkpt><trkpt lat="43.21268" lon="11.5083"><ele>162.0</ele><time>2026-04-26T08:04:57.296Z</time></trkpt><trkpt lat="43.2126333" lon="11.5081917"><ele>162.0</ele><time>2026-04-26T08:04:58.296Z</time></trkpt><trkpt lat="43.212585" lon="11.508095"><ele>162.0</ele><time>2026-04-26T08:04:59.297Z</time></trkpt><trkpt lat="43.2125333" lon="11.5080133"><ele>162.0</ele><time>2026-04-26T08:05:00.296Z</time></trkpt><trkpt lat="43.2124733" lon="11.5079433"><ele>162.16666666666666</ele><time>2026-04-26T08:05:01.296Z</time></trkpt><trkpt lat="43.2124083" lon="11.507885"><ele>162.33333333333334</ele><time>2026-04-26T08:05:02.298Z</time></trkpt><trkpt lat="43.212335" lon="11.507845"><ele>162.5</ele><time>2026-04-26T08:05:03.299Z</time></trkpt><trkpt lat="43.2122633" lon="11.5077967"><ele>162.66666666666669</ele><time>2026-04-26T08:05:04.296Z</time></trkpt><trkpt lat="43.21219" lon="11.5077483"><ele>162.83333333333334</ele><time>2026-04-26T08:05:05.295Z</time></trkpt><trkpt lat="43.2121217" lon="11.5077117"><ele>163.0</ele><time>2026-04-26T08:05:06.297Z</time></trkpt><trkpt lat="43.21206" lon="11.5076633"><ele>163.14285714285714</ele><time>2026-04-26T08:05:07.296Z</time></trkpt><trkpt lat="43.212005" lon="11.5076"><ele>163.28571428571428</ele><time>2026-04-26T08:05:08.297Z</time></trkpt><trkpt lat="43.21196" lon="11.5075233"><ele>163.42857142857142</ele><time>2026-04-26T08:05:09.294Z</time></trkpt><trkpt lat="43.211925" lon="11.5074383"><ele>163.57142857142856</ele><time>2026-04-26T08:05:10.296Z</time></trkpt><trkpt lat="43.2118933" lon="11.5073483"><ele>163.71428571428572</ele><time>2026-04-26T08:05:11.297Z</time></trkpt><trkpt lat="43.2118667" lon="11.5072517"><ele>163.85714285714283</ele><time>2026-04-26T08:05:12.299Z</time></trkpt><trkpt lat="43.2118417" lon="11.5071533"><ele>164.0</ele><time>2026-04-26T08:05:13.298Z</time></trkpt><trkpt lat="43.211815" lon="11.5070517"><ele>164.16666666666666</ele><time>2026-04-26T08:05:14.297Z</time></trkpt><trkpt lat="43.21179" lon="11.50695"><ele>164.33333333333331</ele><time>2026-04-26T08:05:15.295Z</time></trkpt><trkpt lat="43.21176" lon="11.50685"><ele>164.5</ele><time>2026-04-26T08:05:16.3Z</time></trkpt><trkpt lat="43.2117317" lon="11.50675"><ele>164.66666666666666</ele><time>2026-04-26T08:05:17.295Z</time></trkpt><trkpt lat="43.2117017" lon="11.5066483"><ele>164.83333333333334</ele><time>2026-04-26T08:05:18.296Z</time></trkpt><trkpt lat="43.2116717" lon="11.50655"><ele>165.0</ele><time>2026-04-26T08:05:19.297Z</time></trkpt><trkpt lat="43.2116433" lon="11.5064517"><ele>165.0</ele><time>2026-04-26T08:05:20.295Z</time></trkpt><trkpt lat="43.2116167" lon="11.5063517"><ele>165.0</ele><time>2026-04-26T08:05:21.294Z</time></trkpt><trkpt lat="43.21159" lon="11.5062533"><ele>165.0</ele><time>2026-04-26T08:05:22.295Z</time></trkpt><trkpt lat="43.2115617" lon="11.506155"><ele>165.0</ele><time>2026-04-26T08:05:23.296Z</time></trkpt><trkpt lat="43.211535" lon="11.5060567"><ele>165.0</ele><time>2026-04-26T08:05:24.299Z</time></trkpt><trkpt lat="43.211505" lon="11.505955"><ele>165.0</ele><time>2026-04-26T08:05:25.298Z</time></trkpt><trkpt lat="43.2114733" lon="11.50585"><ele>164.83333333333334</ele><time>2026-04-26T08:05:26.3Z</time></trkpt><trkpt lat="43.211445" lon="11.5057483"><ele>164.66666666666666</ele><time>2026-04-26T08:05:27.297Z</time></trkpt><trkpt lat="43.2114167" lon="11.50565"><ele>164.5</ele><time>2026-04-26T08:05:28.297Z</time></trkpt><trkpt lat="43.2113833" lon="11.5055567"><ele>164.33333333333331</ele><time>2026-04-26T08:05:29.298Z</time></trkpt><trkpt lat="43.2113383" lon="11.5054717"><ele>164.16666666666666</ele><time>2026-04-26T08:05:30.298Z</time></trkpt><trkpt lat="43.2112783" lon="11.5054033"><ele>164.0</ele><time>2026-04-26T08:05:31.297Z</time></trkpt><trkpt lat="43.2112083" lon="11.5053517"><ele>164.0</ele><time>2026-04-26T08:05:32.296Z</time></trkpt><trkpt lat="43.211125" lon="11.5053317"><ele>164.0</ele><time>2026-04-26T08:05:33.295Z</time></trkpt><trkpt lat="43.2110367" lon="11.5053283"><ele>164.0</ele><time>2026-04-26T08:05:34.297Z</time></trkpt><trkpt lat="43.210945" lon="11.505355"><ele>164.0</ele><time>2026-04-26T08:05:35.297Z</time></trkpt><trkpt lat="43.210845" lon="11.505395"><ele>164.0</ele><time>2026-04-26T08:05:36.295Z</time></trkpt><trkpt lat="43.210745" lon="11.5054233"><ele>164.39999999999998</ele><time>2026-04-26T08:05:37.295Z</time></trkpt><trkpt lat="43.210645" lon="11.5054383"><ele>164.8</ele><time>2026-04-26T08:05:38.296Z</time></trkpt><trkpt lat="43.21055" lon="11.5054417"><ele>165.2</ele><time>2026-04-26T08:05:39.296Z</time></trkpt><trkpt lat="43.210455" lon="11.505425"><ele>165.60000000000002</ele><time>2026-04-26T08:05:40.296Z</time></trkpt><trkpt lat="43.2103583" lon="11.5054"><ele>166.0</ele><time>2026-04-26T08:05:41.296Z</time></trkpt><trkpt lat="43.210265" lon="11.505375"><ele>168.20000000000002</ele><time>2026-04-26T08:05:42.299Z</time></trkpt><trkpt lat="43.210175" lon="11.505335"><ele>170.4</ele><time>2026-04-26T08:05:43.296Z</time></trkpt><trkpt lat="43.2100917" lon="11.5052783"><ele>172.6</ele><time>2026-04-26T08:05:44.297Z</time></trkpt><trkpt lat="43.2100133" lon="11.5052067"><ele>174.8</ele><time>2026-04-26T08:05:45.296Z</time></trkpt><trkpt lat="43.2099367" lon="11.5051317"><ele>177.0</ele><time>2026-04-26T08:05:46.299Z</time></trkpt><trkpt lat="43.2098617" lon="11.505055"><ele>178.33333333333334</ele><time>2026-04-26T08:05:47.296Z</time></trkpt><trkpt lat="43.2097817" lon="11.5049867"><ele>179.66666666666666</ele><time>2026-04-26T08:05:48.297Z</time></trkpt><trkpt lat="43.2097" lon="11.5049333"><ele>181.0</ele><time>2026-04-26T08:05:49.296Z</time></trkpt><trkpt lat="43.209615" lon="11.5049017"><ele>182.33333333333331</ele><time>2026-04-26T08:05:50.297Z</time></trkpt><trkpt lat="43.2095283" lon="11.504895"><ele>183.66666666666666</ele><time>2026-04-26T08:05:51.296Z</time></trkpt><trkpt lat="43.2094433" lon="11.5049067"><ele>185.0</ele><time>2026-04-26T08:05:52.298Z</time></trkpt><trkpt lat="43.20936" lon="11.5049383"><ele>185.0</ele><time>2026-04-26T08:05:53.297Z</time></trkpt><trkpt lat="43.2092783" lon="11.5049883"><ele>185.0</ele><time>2026-04-26T08:05:54.299Z</time></trkpt><trkpt lat="43.2092" lon="11.5050483"><ele>185.0</ele><time>2026-04-26T08:05:55.298Z</time></trkpt><trkpt lat="43.2091183" lon="11.5050967"><ele>185.0</ele><time>2026-04-26T08:05:56.299Z</time></trkpt><trkpt lat="43.209035" lon="11.505125"><ele>185.0</ele><time>2026-04-26T08:05:57.299Z</time></trkpt><trkpt lat="43.2089467" lon="11.505135"><ele>185.0</ele><time>2026-04-26T08:05:58.297Z</time></trkpt><trkpt lat="43.2088633" lon="11.5051283"><ele>186.4</ele><time>2026-04-26T08:05:59.298Z</time></trkpt><trkpt lat="43.2087817" lon="11.5051167"><ele>187.8</ele><time>2026-04-26T08:06:00.298Z</time></trkpt><trkpt lat="43.2086967" lon="11.5051017"><ele>189.2</ele><time>2026-04-26T08:06:01.296Z</time></trkpt><trkpt lat="43.20861" lon="11.5050867"><ele>190.6</ele><time>2026-04-26T08:06:02.3Z</time></trkpt><trkpt lat="43.2085133" lon="11.50507"><ele>192.0</ele><time>2026-04-26T08:06:03.298Z</time></trkpt><trkpt lat="43.208415" lon="11.50505"><ele>192.0</ele><time>2026-04-26T08:06:04.297Z</time></trkpt><trkpt lat="43.2083217" lon="11.5050117"><ele>192.0</ele><time>2026-04-26T08:06:05.299Z</time></trkpt><trkpt lat="43.2082317" lon="11.5049667"><ele>192.0</ele><time>2026-04-26T08:06:06.298Z</time></trkpt><trkpt lat="43.2081433" lon="11.50492"><ele>192.0</ele><time>2026-04-26T08:06:07.298Z</time></trkpt><trkpt lat="43.2080567" lon="11.5048817"><ele>192.0</ele><time>2026-04-26T08:06:08.297Z</time></trkpt><trkpt lat="43.207975" lon="11.5048517"><ele>192.0</ele><time>2026-04-26T08:06:09.298Z</time></trkpt><trkpt lat="43.2079067" lon="11.5048283"><ele>192.0</ele><time>2026-04-26T08:06:10.298Z</time></trkpt><trkpt lat="43.2078483" lon="11.5047933"><ele>192.0</ele><time>2026-04-26T08:06:11.297Z</time></trkpt><trkpt lat="43.2077817" lon="11.5047117"><ele>192.0</ele><time>2026-04-26T08:06:13.297Z</time></trkpt><trkpt lat="43.207785" lon="11.5046133"><ele>192.0</ele><time>2026-04-26T08:06:15.298Z</time></trkpt><trkpt lat="43.2078617" lon="11.5045467"><ele>192.0</ele><time>2026-04-26T08:06:17.298Z</time></trkpt><trkpt lat="43.2079317" lon="11.504555"><ele>192.0</ele><time>2026-04-26T08:06:18.298Z</time></trkpt><trkpt lat="43.208015" lon="11.5045817"><ele>192.0</ele><time>2026-04-26T08:06:19.298Z</time></trkpt><trkpt lat="43.2081117" lon="11.5046"><ele>192.0</ele><time>2026-04-26T08:06:20.298Z</time></trkpt><trkpt lat="43.2082117" lon="11.5046017"><ele>192.0</ele><time>2026-04-26T08:06:21.298Z</time></trkpt><trkpt lat="43.208315" lon="11.504595"><ele>192.0</ele><time>2026-04-26T08:06:22.298Z</time></trkpt><trkpt lat="43.20841" lon="11.5045817"><ele>194.66666666666666</ele><time>2026-04-26T08:06:23.299Z</time></trkpt><trkpt lat="43.208495" lon="11.5045617"><ele>197.33333333333331</ele><time>2026-04-26T08:06:24.298Z</time></trkpt><trkpt lat="43.2085767" lon="11.5045317"><ele>200.0</ele><time>2026-04-26T08:06:25.298Z</time></trkpt><trkpt lat="43.20865" lon="11.5044933"><ele>202.66666666666666</ele><time>2026-04-26T08:06:26.298Z</time></trkpt><trkpt lat="43.2087233" lon="11.5044333"><ele>205.33333333333331</ele><time>2026-04-26T08:06:27.296Z</time></trkpt><trkpt lat="43.20879" lon="11.504355"><ele>208.0</ele><time>2026-04-26T08:06:28.299Z</time></trkpt><trkpt lat="43.2088483" lon="11.5042533"><ele>208.0</ele><time>2026-04-26T08:06:29.3Z</time></trkpt><trkpt lat="43.2089117" lon="11.504145"><ele>208.0</ele><time>2026-04-26T08:06:30.298Z</time></trkpt><trkpt lat="43.2089667" lon="11.5040317"><ele>208.0</ele><time>2026-04-26T08:06:31.296Z</time></trkpt><trkpt lat="43.2090217" lon="11.5039183"><ele>208.0</ele><time>2026-04-26T08:06:32.296Z</time></trkpt><trkpt lat="43.2090767" lon="11.5038117"><ele>208.0</ele><time>2026-04-26T08:06:33.294Z</time></trkpt><trkpt lat="43.209135" lon="11.50371"><ele>209.83333333333331</ele><time>2026-04-26T08:06:34.297Z</time></trkpt><trkpt lat="43.2091883" lon="11.5036083"><ele>211.66666666666666</ele><time>2026-04-26T08:06:35.295Z</time></trkpt><trkpt lat="43.2092433" lon="11.503515"><ele>213.5</ele><time>2026-04-26T08:06:36.296Z</time></trkpt><trkpt lat="43.2093017" lon="11.503425"><ele>215.33333333333331</ele><time>2026-04-26T08:06:37.296Z</time></trkpt><trkpt lat="43.209365" lon="11.5033367"><ele>217.16666666666666</ele><time>2026-04-26T08:06:38.297Z</time></trkpt><trkpt lat="43.20943" lon="11.5032533"><ele>219.0</ele><time>2026-04-26T08:06:39.296Z</time></trkpt><trkpt lat="43.2094967" lon="11.50317"><ele>219.0</ele><time>2026-04-26T08:06:40.298Z</time></trkpt><trkpt lat="43.2095667" lon="11.5030917"><ele>218.99999999999997</ele><time>2026-04-26T08:06:41.298Z</time></trkpt><trkpt lat="43.209645" lon="11.5030083"><ele>218.99999999999997</ele><time>2026-04-26T08:06:42.298Z</time></trkpt><trkpt lat="43.2097267" lon="11.5029183"><ele>219.0</ele><time>2026-04-26T08:06:43.298Z</time></trkpt><trkpt lat="43.2098083" lon="11.5028233"><ele>219.0</ele><time>2026-04-26T08:06:44.299Z</time></trkpt><trkpt lat="43.2098933" lon="11.5027267"><ele>221.2</ele><time>2026-04-26T08:06:45.298Z</time></trkpt><trkpt lat="43.2099817" lon="11.5026333"><ele>223.39999999999998</ele><time>2026-04-26T08:06:46.298Z</time></trkpt><trkpt lat="43.210065" lon="11.502545"><ele>225.6</ele><time>2026-04-26T08:06:47.299Z</time></trkpt><trkpt lat="43.2101367" lon="11.5024717"><ele>227.8</ele><time>2026-04-26T08:06:48.302Z</time></trkpt><trkpt lat="43.2102033" lon="11.5024167"><ele>230.0</ele><time>2026-04-26T08:06:49.298Z</time></trkpt><trkpt lat="43.2102633" lon="11.5023667"><ele>230.00000000000003</ele><time>2026-04-26T08:06:50.298Z</time></trkpt><trkpt lat="43.2103183" lon="11.502315"><ele>230.0</ele><time>2026-04-26T08:06:51.299Z</time></trkpt><trkpt lat="43.210365" lon="11.502245"><ele>230.0</ele><time>2026-04-26T08:06:52.295Z</time></trkpt><trkpt lat="43.2104083" lon="11.5021567"><ele>230.0</ele><time>2026-04-26T08:06:53.298Z</time></trkpt><trkpt lat="43.2104517" lon="11.5020583"><ele>230.00000000000003</ele><time>2026-04-26T08:06:54.295Z</time></trkpt><trkpt lat="43.2104883" lon="11.50195"><ele>230.0</ele><time>2026-04-26T08:06:55.297Z</time></trkpt><trkpt lat="43.2105233" lon="11.50184"><ele>230.00000000000003</ele><time>2026-04-26T08:06:56.296Z</time></trkpt><trkpt lat="43.21056" lon="11.5017283"><ele>230.0</ele><time>2026-04-26T08:06:57.295Z</time></trkpt><trkpt lat="43.2106017" lon="11.5016217"><ele>230.0</ele><time>2026-04-26T08:06:58.295Z</time></trkpt><trkpt lat="43.21065" lon="11.5015217"><ele>230.0</ele><time>2026-04-26T08:06:59.297Z</time></trkpt><trkpt lat="43.2107083" lon="11.50143"><ele>230.00000000000003</ele><time>2026-04-26T08:07:00.296Z</time></trkpt><trkpt lat="43.2107767" lon="11.5013483"><ele>230.0</ele><time>2026-04-26T08:07:01.296Z</time></trkpt><trkpt lat="43.21085" lon="11.5012683"><ele>227.8</ele><time>2026-04-26T08:07:02.296Z</time></trkpt><trkpt lat="43.2109317" lon="11.5011933"><ele>225.6</ele><time>2026-04-26T08:07:03.296Z</time></trkpt><trkpt lat="43.211025" lon="11.501135"><ele>223.39999999999998</ele><time>2026-04-26T08:07:04.296Z</time></trkpt><trkpt lat="43.2111133" lon="11.5010867"><ele>221.2</ele><time>2026-04-26T08:07:05.297Z</time></trkpt><trkpt lat="43.211195" lon="11.501045"><ele>219.0</ele><time>2026-04-26T08:07:06.297Z</time></trkpt><trkpt lat="43.2112683" lon="11.5010067"><ele>219.0</ele><time>2026-04-26T08:07:07.297Z</time></trkpt><trkpt lat="43.211335" lon="11.5009617"><ele>219.0</ele><time>2026-04-26T08:07:08.297Z</time></trkpt><trkpt lat="43.2113933" lon="11.5008983"><ele>219.0</ele><time>2026-04-26T08:07:09.297Z</time></trkpt><trkpt lat="43.2114417" lon="11.5008167"><ele>219.0</ele><time>2026-04-26T08:07:10.296Z</time></trkpt><trkpt lat="43.21147" lon="11.5006967"><ele>219.0</ele><time>2026-04-26T08:07:11.297Z</time></trkpt><trkpt lat="43.2114817" lon="11.5005583"><ele>219.0</ele><time>2026-04-26T08:07:12.297Z</time></trkpt><trkpt lat="43.2115" lon="11.5004217"><ele>221.39999999999998</ele><time>2026-04-26T08:07:13.297Z</time></trkpt><trkpt lat="43.2115233" lon="11.5002883"><ele>223.79999999999998</ele><time>2026-04-26T08:07:14.297Z</time></trkpt><trkpt lat="43.21155" lon="11.5001567"><ele>226.20000000000002</ele><time>2026-04-26T08:07:15.298Z</time></trkpt><trkpt lat="43.2115767" lon="11.50003"><ele>228.60000000000002</ele><time>2026-04-26T08:07:16.299Z</time></trkpt><trkpt lat="43.2116117" lon="11.4999117"><ele>231.0</ele><time>2026-04-26T08:07:17.297Z</time></trkpt><trkpt lat="43.21166" lon="11.4998133"><ele>231.0</ele><time>2026-04-26T08:07:18.298Z</time></trkpt><trkpt lat="43.2117217" lon="11.4997333"><ele>231.0</ele><time>2026-04-26T08:07:19.299Z</time></trkpt><trkpt lat="43.2118033" lon="11.499675"><ele>231.0</ele><time>2026-04-26T08:07:20.298Z</time></trkpt><trkpt lat="43.2118967" lon="11.4996433"><ele>231.0</ele><time>2026-04-26T08:07:21.297Z</time></trkpt><trkpt lat="43.211975" lon="11.499605"><ele>231.0</ele><time>2026-04-26T08:07:22.298Z</time></trkpt><trkpt lat="43.2120433" lon="11.4995783"><ele>231.0</ele><time>2026-04-26T08:07:23.298Z</time></trkpt><trkpt lat="43.2121517" lon="11.4994933"><ele>233.16666666666666</ele><time>2026-04-26T08:07:25.297Z</time></trkpt><trkpt lat="43.2121967" lon="11.4994133"><ele>235.33333333333331</ele><time>2026-04-26T08:07:26.296Z</time></trkpt><trkpt lat="43.2122233" lon="11.4993017"><ele>237.5</ele><time>2026-04-26T08:07:27.295Z</time></trkpt><trkpt lat="43.21223" lon="11.4991767"><ele>239.66666666666666</ele><time>2026-04-26T08:07:28.297Z</time></trkpt><trkpt lat="43.21222" lon="11.4990517"><ele>241.83333333333331</ele><time>2026-04-26T08:07:29.297Z</time></trkpt><trkpt lat="43.2121917" lon="11.4989217"><ele>244.0</ele><time>2026-04-26T08:07:30.299Z</time></trkpt><trkpt lat="43.2121483" lon="11.49881"><ele>244.99999999999997</ele><time>2026-04-26T08:07:31.299Z</time></trkpt><trkpt lat="43.2120917" lon="11.4987117"><ele>246.0</ele><time>2026-04-26T08:07:32.299Z</time></trkpt><trkpt lat="43.2120267" lon="11.4986333"><ele>247.0</ele><time>2026-04-26T08:07:33.299Z</time></trkpt><trkpt lat="43.2119633" lon="11.498575"><ele>248.0</ele><time>2026-04-26T08:07:34.299Z</time></trkpt><trkpt lat="43.2118967" lon="11.49855"><ele>248.99999999999997</ele><time>2026-04-26T08:07:35.296Z</time></trkpt><trkpt lat="43.21183" lon="11.498545"><ele>250.0</ele><time>2026-04-26T08:07:36.297Z</time></trkpt><trkpt lat="43.2117583" lon="11.498565"><ele>249.99999999999997</ele><time>2026-04-26T08:07:37.295Z</time></trkpt><trkpt lat="43.21169" lon="11.4985817"><ele>250.0</ele><time>2026-04-26T08:07:38.297Z</time></trkpt><trkpt lat="43.2116233" lon="11.498605"><ele>250.0</ele><time>2026-04-26T08:07:39.296Z</time></trkpt><trkpt lat="43.2115567" lon="11.4986283"><ele>250.0</ele><time>2026-04-26T08:07:40.297Z</time></trkpt><trkpt lat="43.21149" lon="11.4986417"><ele>249.99999999999997</ele><time>2026-04-26T08:07:41.296Z</time></trkpt><trkpt lat="43.2113783" lon="11.4986583"><ele>250.0</ele><time>2026-04-26T08:07:43.296Z</time></trkpt><trkpt lat="43.2112817" lon="11.4986617"><ele>251.28571428571428</ele><time>2026-04-26T08:07:45.298Z</time></trkpt><trkpt lat="43.2112167" lon="11.49864"><ele>252.57142857142858</ele><time>2026-04-26T08:07:47.298Z</time></trkpt><trkpt lat="43.2111583" lon="11.4985883"><ele>253.85714285714286</ele><time>2026-04-26T08:09:11.298Z</time></trkpt><trkpt lat="43.2110945" lon="11.4985517"><ele>255.14285714285714</ele><time>2026-04-26T08:10:22.299Z</time></trkpt><trkpt lat="43.211147" lon="11.4986009"><ele>256.42857142857144</ele><time>2026-04-26T08:10:28.299Z</time></trkpt><trkpt lat="43.2110871" lon="11.4985367"><ele>257.7142857142857</ele><time>2026-04-26T08:14:39.298Z</time></trkpt><trkpt lat="43.2110216" lon="11.4984444"><ele>259.0</ele><time>2026-04-26T08:14:42.297Z</time></trkpt><trkpt lat="43.2109765" lon="11.4983631"><ele>259.0</ele><time>2026-04-26T08:14:44.301Z</time></trkpt><trkpt lat="43.2109413" lon="11.4982225"><ele>259.0</ele><time>2026-04-26T08:14:46.299Z</time></trkpt><trkpt lat="43.2109131" lon="11.4980703"><ele>259.0</ele><time>2026-04-26T08:14:48.298Z</time></trkpt><trkpt lat="43.2108884" lon="11.497912"><ele>259.0</ele><time>2026-04-26T08:14:50.299Z</time></trkpt><trkpt lat="43.2108752" lon="11.497827"><ele>259.0</ele><time>2026-04-26T08:14:51.299Z</time></trkpt><trkpt lat="43.2108605" lon="11.4977415"><ele>259.66666666666663</ele><time>2026-04-26T08:14:52.298Z</time></trkpt><trkpt lat="43.2108075" lon="11.4975816"><ele>260.3333333333333</ele><time>2026-04-26T08:14:54.299Z</time></trkpt><trkpt lat="43.2107724" lon="11.4975062"><ele>261.0</ele><time>2026-04-26T08:14:55.297Z</time></trkpt><trkpt lat="43.2107291" lon="11.4974361"><ele>261.6666666666667</ele><time>2026-04-26T08:14:56.296Z</time></trkpt><trkpt lat="43.210673" lon="11.497368"><ele>262.33333333333337</ele><time>2026-04-26T08:14:57.299Z</time></trkpt><trkpt lat="43.2106033" lon="11.4973017"><ele>263.0</ele><time>2026-04-26T08:14:58.299Z</time></trkpt><trkpt lat="43.21053" lon="11.4972383"><ele>263.0</ele><time>2026-04-26T08:14:59.3Z</time></trkpt><trkpt lat="43.2104533" lon="11.4971733"><ele>263.0</ele><time>2026-04-26T08:15:00.294Z</time></trkpt><trkpt lat="43.2103717" lon="11.4971117"><ele>263.0</ele><time>2026-04-26T08:15:01.298Z</time></trkpt><trkpt lat="43.2102917" lon="11.4970517"><ele>263.0</ele><time>2026-04-26T08:15:02.298Z</time></trkpt><trkpt lat="43.2102117" lon="11.4969933"><ele>263.0</ele><time>2026-04-26T08:15:03.295Z</time></trkpt><trkpt lat="43.2101333" lon="11.4969317"><ele>263.33333333333337</ele><time>2026-04-26T08:15:04.297Z</time></trkpt><trkpt lat="43.210055" lon="11.4968783"><ele>263.6666666666667</ele><time>2026-04-26T08:15:05.299Z</time></trkpt><trkpt lat="43.2099767" lon="11.4968267"><ele>264.0</ele><time>2026-04-26T08:15:06.297Z</time></trkpt><trkpt lat="43.2098983" lon="11.496765"><ele>264.3333333333333</ele><time>2026-04-26T08:15:07.299Z</time></trkpt><trkpt lat="43.2098217" lon="11.4967033"><ele>264.66666666666663</ele><time>2026-04-26T08:15:08.299Z</time></trkpt><trkpt lat="43.2097517" lon="11.4966217"><ele>265.0</ele><time>2026-04-26T08:15:09.297Z</time></trkpt><trkpt lat="43.2096883" lon="11.49653"><ele>264.66666666666663</ele><time>2026-04-26T08:15:10.296Z</time></trkpt><trkpt lat="43.2096333" lon="11.49643"><ele>264.3333333333333</ele><time>2026-04-26T08:15:11.297Z</time></trkpt><trkpt lat="43.2095867" lon="11.4963267"><ele>264.0</ele><time>2026-04-26T08:15:12.296Z</time></trkpt><trkpt lat="43.2095467" lon="11.4962333"><ele>263.6666666666667</ele><time>2026-04-26T08:15:13.295Z</time></trkpt><trkpt lat="43.2095167" lon="11.496145"><ele>263.33333333333337</ele><time>2026-04-26T08:15:14.295Z</time></trkpt><trkpt lat="43.2094917" lon="11.49606"><ele>263.0</ele><time>2026-04-26T08:15:15.298Z</time></trkpt><trkpt lat="43.2094683" lon="11.4959783"><ele>263.0</ele><time>2026-04-26T08:15:16.297Z</time></trkpt><trkpt lat="43.2094167" lon="11.4958167"><ele>263.0</ele><time>2026-04-26T08:15:18.293Z</time></trkpt><trkpt lat="43.2093883" lon="11.4957333"><ele>263.0</ele><time>2026-04-26T08:15:19.297Z</time></trkpt><trkpt lat="43.2093583" lon="11.4956517"><ele>263.0</ele><time>2026-04-26T08:15:20.295Z</time></trkpt><trkpt lat="43.2093317" lon="11.495565"><ele>263.0</ele><time>2026-04-26T08:15:21.294Z</time></trkpt><trkpt lat="43.2092983" lon="11.49549"><ele>263.0</ele><time>2026-04-26T08:15:22.296Z</time></trkpt><trkpt lat="43.2092433" lon="11.4953383"><ele>262.6666666666667</ele><time>2026-04-26T08:15:24.296Z</time></trkpt><trkpt lat="43.2092283" lon="11.495245"><ele>262.33333333333337</ele><time>2026-04-26T08:15:25.296Z</time></trkpt><trkpt lat="43.2092183" lon="11.49514"><ele>262.0</ele><time>2026-04-26T08:15:26.296Z</time></trkpt><trkpt lat="43.20921" lon="11.49502"><ele>261.6666666666667</ele><time>2026-04-26T08:15:27.295Z</time></trkpt><trkpt lat="43.209195" lon="11.4948833"><ele>261.3333333333333</ele><time>2026-04-26T08:15:28.296Z</time></trkpt><trkpt lat="43.209175" lon="11.49475"><ele>261.0</ele><time>2026-04-26T08:15:29.298Z</time></trkpt><trkpt lat="43.20915" lon="11.49462"><ele>260.6</ele><time>2026-04-26T08:15:30.297Z</time></trkpt><trkpt lat="43.2091167" lon="11.4944917"><ele>260.20000000000005</ele><time>2026-04-26T08:15:31.298Z</time></trkpt><trkpt lat="43.2090817" lon="11.49437"><ele>259.79999999999995</ele><time>2026-04-26T08:15:32.298Z</time></trkpt><trkpt lat="43.2090433" lon="11.4942567"><ele>259.4</ele><time>2026-04-26T08:15:33.298Z</time></trkpt><trkpt lat="43.209005" lon="11.4941483"><ele>259.0</ele><time>2026-04-26T08:15:34.297Z</time></trkpt><trkpt lat="43.2089667" lon="11.4940433"><ele>257.5</ele><time>2026-04-26T08:15:35.298Z</time></trkpt><trkpt lat="43.2089267" lon="11.49394"><ele>256.0</ele><time>2026-04-26T08:15:36.298Z</time></trkpt><trkpt lat="43.2088833" lon="11.4938433"><ele>254.5</ele><time>2026-04-26T08:15:37.299Z</time></trkpt><trkpt lat="43.208835" lon="11.493755"><ele>253.0</ele><time>2026-04-26T08:15:38.297Z</time></trkpt><trkpt lat="43.2087817" lon="11.4936667"><ele>251.49999999999997</ele><time>2026-04-26T08:15:39.298Z</time></trkpt><trkpt lat="43.2087183" lon="11.4935867"><ele>250.0</ele><time>2026-04-26T08:15:40.296Z</time></trkpt><trkpt lat="43.2086467" lon="11.4935117"><ele>250.0</ele><time>2026-04-26T08:15:41.299Z</time></trkpt><trkpt lat="43.2085683" lon="11.4934433"><ele>250.0</ele><time>2026-04-26T08:15:42.298Z</time></trkpt><trkpt lat="43.2084867" lon="11.4933733"><ele>250.0</ele><time>2026-04-26T08:15:43.298Z</time></trkpt><trkpt lat="43.2084017" lon="11.4933083"><ele>250.0</ele><time>2026-04-26T08:15:44.298Z</time></trkpt><trkpt lat="43.2083167" lon="11.4932383"><ele>250.0</ele><time>2026-04-26T08:15:45.297Z</time></trkpt><trkpt lat="43.2082333" lon="11.493165"><ele>249.6</ele><time>2026-04-26T08:15:46.298Z</time></trkpt><trkpt lat="43.20815" lon="11.4930933"><ele>249.2</ele><time>2026-04-26T08:15:47.298Z</time></trkpt><trkpt lat="43.2080667" lon="11.4930133"><ele>248.8</ele><time>2026-04-26T08:15:48.296Z</time></trkpt><trkpt lat="43.2079867" lon="11.49293"><ele>248.4</ele><time>2026-04-26T08:15:49.297Z</time></trkpt><trkpt lat="43.207905" lon="11.4928467"><ele>248.0</ele><time>2026-04-26T08:15:50.297Z</time></trkpt><trkpt lat="43.20782" lon="11.4927667"><ele>248.0</ele><time>2026-04-26T08:15:51.296Z</time></trkpt><trkpt lat="43.207735" lon="11.4926867"><ele>248.0</ele><time>2026-04-26T08:15:52.296Z</time></trkpt><trkpt lat="43.2076583" lon="11.4926"><ele>248.0</ele><time>2026-04-26T08:15:53.295Z</time></trkpt><trkpt lat="43.20758" lon="11.4925133"><ele>248.0</ele><time>2026-04-26T08:15:54.296Z</time></trkpt><trkpt lat="43.2075033" lon="11.49243"><ele>248.0</ele><time>2026-04-26T08:15:55.296Z</time></trkpt><trkpt lat="43.207425" lon="11.4923517"><ele>248.0</ele><time>2026-04-26T08:15:56.296Z</time></trkpt><trkpt lat="43.207345" lon="11.4922767"><ele>248.0</ele><time>2026-04-26T08:15:57.295Z</time></trkpt><trkpt lat="43.2072683" lon="11.4922017"><ele>248.0</ele><time>2026-04-26T08:15:58.296Z</time></trkpt><trkpt lat="43.20719" lon="11.4921283"><ele>248.0</ele><time>2026-04-26T08:15:59.298Z</time></trkpt><trkpt lat="43.207115" lon="11.4920467"><ele>248.0</ele><time>2026-04-26T08:16:00.299Z</time></trkpt><trkpt lat="43.2070483" lon="11.491955"><ele>249.0</ele><time>2026-04-26T08:16:01.298Z</time></trkpt><trkpt lat="43.206985" lon="11.4918617"><ele>250.0</ele><time>2026-04-26T08:16:02.298Z</time></trkpt><trkpt lat="43.2069267" lon="11.49176"><ele>251.0</ele><time>2026-04-26T08:16:03.295Z</time></trkpt><trkpt lat="43.2068667" lon="11.4916567"><ele>252.0</ele><time>2026-04-26T08:16:04.296Z</time></trkpt><trkpt lat="43.2068167" lon="11.4915483"><ele>253.0</ele><time>2026-04-26T08:16:05.296Z</time></trkpt><trkpt lat="43.20677" lon="11.4914383"><ele>252.99999999999997</ele><time>2026-04-26T08:16:06.299Z</time></trkpt><trkpt lat="43.2067283" lon="11.4913333"><ele>253.0</ele><time>2026-04-26T08:16:07.295Z</time></trkpt><trkpt lat="43.206685" lon="11.4912367"><ele>253.0</ele><time>2026-04-26T08:16:08.297Z</time></trkpt><trkpt lat="43.206635" lon="11.4911483"><ele>253.0</ele><time>2026-04-26T08:16:09.296Z</time></trkpt><trkpt lat="43.2065767" lon="11.491065"><ele>252.99999999999997</ele><time>2026-04-26T08:16:10.294Z</time></trkpt><trkpt lat="43.20651" lon="11.4909883"><ele>253.0</ele><time>2026-04-26T08:16:11.299Z</time></trkpt><trkpt lat="43.2064333" lon="11.49093"><ele>254.0</ele><time>2026-04-26T08:16:12.299Z</time></trkpt><trkpt lat="43.2063483" lon="11.490885"><ele>255.0</ele><time>2026-04-26T08:16:13.296Z</time></trkpt><trkpt lat="43.20626" lon="11.4908567"><ele>256.0</ele><time>2026-04-26T08:16:14.297Z</time></trkpt><trkpt lat="43.20617" lon="11.490845"><ele>257.0</ele><time>2026-04-26T08:16:15.299Z</time></trkpt><trkpt lat="43.20608" lon="11.490845"><ele>258.0</ele><time>2026-04-26T08:16:16.298Z</time></trkpt><trkpt lat="43.2059917" lon="11.4908517"><ele>258.0</ele><time>2026-04-26T08:16:17.298Z</time></trkpt><trkpt lat="43.205905" lon="11.49086"><ele>258.0</ele><time>2026-04-26T08:16:18.295Z</time></trkpt><trkpt lat="43.2058167" lon="11.490875"><ele>258.0</ele><time>2026-04-26T08:16:19.295Z</time></trkpt><trkpt lat="43.2057317" lon="11.4908883"><ele>258.0</ele><time>2026-04-26T08:16:20.297Z</time></trkpt><trkpt lat="43.205645" lon="11.49089"><ele>258.0</ele><time>2026-04-26T08:16:21.295Z</time></trkpt><trkpt lat="43.2055567" lon="11.4908767"><ele>258.0</ele><time>2026-04-26T08:16:22.297Z</time></trkpt><trkpt lat="43.2054667" lon="11.4908583"><ele>255.4</ele><time>2026-04-26T08:16:23.297Z</time></trkpt><trkpt lat="43.2053817" lon="11.4908333"><ele>252.8</ele><time>2026-04-26T08:16:24.295Z</time></trkpt><trkpt lat="43.2053" lon="11.4907983"><ele>250.2</ele><time>2026-04-26T08:16:25.297Z</time></trkpt><trkpt lat="43.2052217" lon="11.4907483"><ele>247.6</ele><time>2026-04-26T08:16:26.296Z</time></trkpt><trkpt lat="43.205145" lon="11.4906733"><ele>245.0</ele><time>2026-04-26T08:16:27.295Z</time></trkpt><trkpt lat="43.2050667" lon="11.4905767"><ele>245.0</ele><time>2026-04-26T08:16:28.296Z</time></trkpt><trkpt lat="43.2049867" lon="11.49047"><ele>245.0</ele><time>2026-04-26T08:16:29.296Z</time></trkpt><trkpt lat="43.20491" lon="11.4903567"><ele>245.0</ele><time>2026-04-26T08:16:30.295Z</time></trkpt><trkpt lat="43.20484" lon="11.4902333"><ele>245.0</ele><time>2026-04-26T08:16:31.295Z</time></trkpt><trkpt lat="43.2047817" lon="11.4901017"><ele>245.6</ele><time>2026-04-26T08:16:32.297Z</time></trkpt><trkpt lat="43.2047333" lon="11.4899667"><ele>246.2</ele><time>2026-04-26T08:16:33.294Z</time></trkpt><trkpt lat="43.2046917" lon="11.4898283"><ele>246.8</ele><time>2026-04-26T08:16:34.295Z</time></trkpt><trkpt lat="43.2046517" lon="11.4896867"><ele>247.4</ele><time>2026-04-26T08:16:35.297Z</time></trkpt><trkpt lat="43.2046083" lon="11.4895483"><ele>248.0</ele><time>2026-04-26T08:16:36.295Z</time></trkpt><trkpt lat="43.2045633" lon="11.4894117"><ele>248.0</ele><time>2026-04-26T08:16:37.296Z</time></trkpt><trkpt lat="43.2045183" lon="11.4892717"><ele>248.0</ele><time>2026-04-26T08:16:38.294Z</time></trkpt><trkpt lat="43.2044667" lon="11.48914"><ele>248.0</ele><time>2026-04-26T08:16:39.296Z</time></trkpt><trkpt lat="43.204405" lon="11.4890183"><ele>248.0</ele><time>2026-04-26T08:16:40.296Z</time></trkpt><trkpt lat="43.204335" lon="11.4889067"><ele>248.0</ele><time>2026-04-26T08:16:41.296Z</time></trkpt><trkpt lat="43.2042617" lon="11.4887983"><ele>245.0</ele><time>2026-04-26T08:16:42.299Z</time></trkpt><trkpt lat="43.204185" lon="11.488695"><ele>242.0</ele><time>2026-04-26T08:16:43.297Z</time></trkpt><trkpt lat="43.2041083" lon="11.4885833"><ele>239.0</ele><time>2026-04-26T08:16:44.298Z</time></trkpt><trkpt lat="43.2040333" lon="11.4884617"><ele>236.0</ele><time>2026-04-26T08:16:45.299Z</time></trkpt><trkpt lat="43.2039567" lon="11.4883333"><ele>236.0</ele><time>2026-04-26T08:16:46.299Z</time></trkpt><trkpt lat="43.2038883" lon="11.4882067"><ele>236.00000000000003</ele><time>2026-04-26T08:16:47.295Z</time></trkpt><trkpt lat="43.203825" lon="11.4880933"><ele>236.00000000000003</ele><time>2026-04-26T08:16:48.296Z</time></trkpt><trkpt lat="43.2037717" lon="11.4879917"><ele>236.0</ele><time>2026-04-26T08:16:49.296Z</time></trkpt><trkpt lat="43.20372" lon="11.4879017"><ele>236.0</ele><time>2026-04-26T08:16:50.296Z</time></trkpt><trkpt lat="43.2036717" lon="11.4878133"><ele>238.16666666666669</ele><time>2026-04-26T08:16:51.295Z</time></trkpt><trkpt lat="43.20362" lon="11.4877267"><ele>240.33333333333334</ele><time>2026-04-26T08:16:52.296Z</time></trkpt><trkpt lat="43.2035633" lon="11.4876417"><ele>242.5</ele><time>2026-04-26T08:16:53.296Z</time></trkpt><trkpt lat="43.2035017" lon="11.4875583"><ele>244.66666666666669</ele><time>2026-04-26T08:16:54.295Z</time></trkpt><trkpt lat="43.2034383" lon="11.48748"><ele>246.83333333333334</ele><time>2026-04-26T08:16:55.295Z</time></trkpt><trkpt lat="43.203375" lon="11.4874"><ele>249.0</ele><time>2026-04-26T08:16:56.297Z</time></trkpt><trkpt lat="43.20331" lon="11.487315"><ele>249.0</ele><time>2026-04-26T08:16:57.295Z</time></trkpt><trkpt lat="43.203245" lon="11.4872283"><ele>248.99999999999997</ele><time>2026-04-26T08:16:58.296Z</time></trkpt><trkpt lat="43.2031767" lon="11.4871417"><ele>248.99999999999997</ele><time>2026-04-26T08:16:59.295Z</time></trkpt><trkpt lat="43.2031067" lon="11.487055"><ele>249.0</ele><time>2026-04-26T08:17:00.298Z</time></trkpt><trkpt lat="43.2030383" lon="11.486965"><ele>249.0</ele><time>2026-04-26T08:17:01.298Z</time></trkpt><trkpt lat="43.2029717" lon="11.4868717"><ele>248.79999999999998</ele><time>2026-04-26T08:17:02.298Z</time></trkpt><trkpt lat="43.2029" lon="11.4867917"><ele>248.59999999999997</ele><time>2026-04-26T08:17:03.299Z</time></trkpt><trkpt lat="43.2028317" lon="11.48671"><ele>248.4</ele><time>2026-04-26T08:17:04.298Z</time></trkpt><trkpt lat="43.2027567" lon="11.4866333"><ele>248.2</ele><time>2026-04-26T08:17:05.298Z</time></trkpt><trkpt lat="43.2026917" lon="11.4865467"><ele>248.0</ele><time>2026-04-26T08:17:06.296Z</time></trkpt><trkpt lat="43.2026233" lon="11.48647"><ele>248.0</ele><time>2026-04-26T08:17:07.298Z</time></trkpt><trkpt lat="43.2025633" lon="11.486385"><ele>248.0</ele><time>2026-04-26T08:17:08.296Z</time></trkpt><trkpt lat="43.2025017" lon="11.4862967"><ele>248.0</ele><time>2026-04-26T08:17:09.295Z</time></trkpt><trkpt lat="43.20244" lon="11.486205"><ele>248.0</ele><time>2026-04-26T08:17:10.299Z</time></trkpt><trkpt lat="43.2023817" lon="11.4861033"><ele>248.0</ele><time>2026-04-26T08:17:11.296Z</time></trkpt><trkpt lat="43.2023367" lon="11.48599"><ele>249.00000000000003</ele><time>2026-04-26T08:17:12.295Z</time></trkpt><trkpt lat="43.202295" lon="11.4858783"><ele>250.0</ele><time>2026-04-26T08:17:13.297Z</time></trkpt><trkpt lat="43.2022667" lon="11.4857667"><ele>251.0</ele><time>2026-04-26T08:17:14.297Z</time></trkpt><trkpt lat="43.2022383" lon="11.485645"><ele>252.0</ele><time>2026-04-26T08:17:15.295Z</time></trkpt><trkpt lat="43.2022083" lon="11.485525"><ele>253.00000000000003</ele><time>2026-04-26T08:17:16.299Z</time></trkpt><trkpt lat="43.2021817" lon="11.4854167"><ele>254.0</ele><time>2026-04-26T08:17:17.295Z</time></trkpt><trkpt lat="43.2021583" lon="11.4853033"><ele>255.33333333333334</ele><time>2026-04-26T08:17:18.297Z</time></trkpt><trkpt lat="43.2021383" lon="11.4851867"><ele>256.6666666666667</ele><time>2026-04-26T08:17:19.299Z</time></trkpt><trkpt lat="43.2021217" lon="11.4850733"><ele>258.0</ele><time>2026-04-26T08:17:20.298Z</time></trkpt><trkpt lat="43.2021033" lon="11.4849667"><ele>259.3333333333333</ele><time>2026-04-26T08:17:21.297Z</time></trkpt><trkpt lat="43.2020817" lon="11.4848633"><ele>260.66666666666663</ele><time>2026-04-26T08:17:22.297Z</time></trkpt><trkpt lat="43.2020567" lon="11.4847683"><ele>262.0</ele><time>2026-04-26T08:17:23.299Z</time></trkpt><trkpt lat="43.202025" lon="11.48467"><ele>260.5</ele><time>2026-04-26T08:17:24.298Z</time></trkpt><trkpt lat="43.2019883" lon="11.48457"><ele>259.0</ele><time>2026-04-26T08:17:25.298Z</time></trkpt><trkpt lat="43.2019567" lon="11.4844667"><ele>257.5</ele><time>2026-04-26T08:17:26.297Z</time></trkpt><trkpt lat="43.201915" lon="11.48437"><ele>256.0</ele><time>2026-04-26T08:17:27.299Z</time></trkpt><trkpt lat="43.2018633" lon="11.4842917"><ele>254.49999999999997</ele><time>2026-04-26T08:17:28.298Z</time></trkpt><trkpt lat="43.2018217" lon="11.4842017"><ele>253.0</ele><time>2026-04-26T08:17:29.299Z</time></trkpt><trkpt lat="43.2017817" lon="11.4841167"><ele>253.0</ele><time>2026-04-26T08:17:30.298Z</time></trkpt><trkpt lat="43.2017683" lon="11.48403"><ele>253.0</ele><time>2026-04-26T08:17:31.297Z</time></trkpt><trkpt lat="43.2017983" lon="11.4838583"><ele>253.0</ele><time>2026-04-26T08:17:33.297Z</time></trkpt><trkpt lat="43.2018567" lon="11.4837633"><ele>253.0</ele><time>2026-04-26T08:17:34.297Z</time></trkpt><trkpt lat="43.2019367" lon="11.4836583"><ele>253.0</ele><time>2026-04-26T08:17:35.297Z</time></trkpt><trkpt lat="43.202005" lon="11.483565"><ele>250.33333333333331</ele><time>2026-04-26T08:17:36.298Z</time></trkpt><trkpt lat="43.202065" lon="11.4834767"><ele>247.66666666666666</ele><time>2026-04-26T08:17:37.297Z</time></trkpt><trkpt lat="43.2021167" lon="11.4833883"><ele>245.0</ele><time>2026-04-26T08:17:38.297Z</time></trkpt><trkpt lat="43.2021583" lon="11.4832983"><ele>242.33333333333331</ele><time>2026-04-26T08:17:39.296Z</time></trkpt><trkpt lat="43.2021917" lon="11.483205"><ele>239.66666666666666</ele><time>2026-04-26T08:17:40.297Z</time></trkpt><trkpt lat="43.20221" lon="11.4831067"><ele>237.0</ele><time>2026-04-26T08:17:41.298Z</time></trkpt><trkpt lat="43.20222" lon="11.482995"><ele>234.2</ele><time>2026-04-26T08:17:42.298Z</time></trkpt><trkpt lat="43.20222" lon="11.4828683"><ele>231.39999999999998</ele><time>2026-04-26T08:17:43.299Z</time></trkpt><trkpt lat="43.2022183" lon="11.482735"><ele>228.60000000000002</ele><time>2026-04-26T08:17:44.298Z</time></trkpt><trkpt lat="43.20222" lon="11.482605"><ele>225.8</ele><time>2026-04-26T08:17:45.298Z</time></trkpt><trkpt lat="43.20223" lon="11.4824767"><ele>223.0</ele><time>2026-04-26T08:17:46.298Z</time></trkpt><trkpt lat="43.2022467" lon="11.4823517"><ele>222.99999999999997</ele><time>2026-04-26T08:17:47.296Z</time></trkpt><trkpt lat="43.2022667" lon="11.4822267"><ele>223.0</ele><time>2026-04-26T08:17:48.295Z</time></trkpt><trkpt lat="43.2022883" lon="11.4821033"><ele>223.0</ele><time>2026-04-26T08:17:49.296Z</time></trkpt><trkpt lat="43.2023083" lon="11.481985"><ele>223.0</ele><time>2026-04-26T08:17:50.296Z</time></trkpt><trkpt lat="43.2023233" lon="11.481865"><ele>222.99999999999997</ele><time>2026-04-26T08:17:51.295Z</time></trkpt><trkpt lat="43.2023283" lon="11.4817467"><ele>223.0</ele><time>2026-04-26T08:17:52.296Z</time></trkpt><trkpt lat="43.20232" lon="11.4816233"><ele>221.2</ele><time>2026-04-26T08:17:53.297Z</time></trkpt><trkpt lat="43.202305" lon="11.481495"><ele>219.4</ele><time>2026-04-26T08:17:54.3Z</time></trkpt><trkpt lat="43.2022883" lon="11.48136"><ele>217.59999999999997</ele><time>2026-04-26T08:17:55.297Z</time></trkpt><trkpt lat="43.20227" lon="11.481225"><ele>215.79999999999998</ele><time>2026-04-26T08:17:56.297Z</time></trkpt><trkpt lat="43.2022517" lon="11.4810917"><ele>214.0</ele><time>2026-04-26T08:17:57.297Z</time></trkpt><trkpt lat="43.2022333" lon="11.48096"><ele>213.6</ele><time>2026-04-26T08:17:58.298Z</time></trkpt><trkpt lat="43.20221" lon="11.4808267"><ele>213.2</ele><time>2026-04-26T08:17:59.297Z</time></trkpt><trkpt lat="43.2021817" lon="11.4806983"><ele>212.79999999999998</ele><time>2026-04-26T08:18:00.298Z</time></trkpt><trkpt lat="43.202145" lon="11.480575"><ele>212.39999999999998</ele><time>2026-04-26T08:18:01.298Z</time></trkpt><trkpt lat="43.202105" lon="11.4804583"><ele>212.0</ele><time>2026-04-26T08:18:02.297Z</time></trkpt><trkpt lat="43.2020583" lon="11.4803417"><ele>212.0</ele><time>2026-04-26T08:18:03.298Z</time></trkpt><trkpt lat="43.2020117" lon="11.480225"><ele>212.0</ele><time>2026-04-26T08:18:04.298Z</time></trkpt><trkpt lat="43.2019617" lon="11.48011"><ele>212.0</ele><time>2026-04-26T08:18:05.3Z</time></trkpt><trkpt lat="43.20192" lon="11.4799867"><ele>212.0</ele><time>2026-04-26T08:18:06.295Z</time></trkpt><trkpt lat="43.20188" lon="11.4798567"><ele>212.0</ele><time>2026-04-26T08:18:07.297Z</time></trkpt><trkpt lat="43.2018417" lon="11.4797183"><ele>212.2</ele><time>2026-04-26T08:18:08.296Z</time></trkpt><trkpt lat="43.2018017" lon="11.4795833"><ele>212.39999999999998</ele><time>2026-04-26T08:18:09.296Z</time></trkpt><trkpt lat="43.20176" lon="11.4794467"><ele>212.60000000000002</ele><time>2026-04-26T08:18:10.296Z</time></trkpt><trkpt lat="43.2017233" lon="11.4793183"><ele>212.8</ele><time>2026-04-26T08:18:11.297Z</time></trkpt><trkpt lat="43.201685" lon="11.4791983"><ele>213.0</ele><time>2026-04-26T08:18:12.297Z</time></trkpt><trkpt lat="43.2016467" lon="11.4790817"><ele>213.0</ele><time>2026-04-26T08:18:13.298Z</time></trkpt><trkpt lat="43.201605" lon="11.4789567"><ele>213.0</ele><time>2026-04-26T08:18:14.296Z</time></trkpt><trkpt lat="43.2015617" lon="11.4788317"><ele>213.0</ele><time>2026-04-26T08:18:15.298Z</time></trkpt><trkpt lat="43.2015167" lon="11.47871"><ele>213.0</ele><time>2026-04-26T08:18:16.298Z</time></trkpt><trkpt lat="43.2014683" lon="11.4785783"><ele>213.0</ele><time>2026-04-26T08:18:17.298Z</time></trkpt><trkpt lat="43.2014233" lon="11.47844"><ele>211.60000000000002</ele><time>2026-04-26T08:18:18.298Z</time></trkpt><trkpt lat="43.2013767" lon="11.4783117"><ele>210.20000000000002</ele><time>2026-04-26T08:18:19.298Z</time></trkpt><trkpt lat="43.2013233" lon="11.4781867"><ele>208.8</ele><time>2026-04-26T08:18:20.3Z</time></trkpt><trkpt lat="43.2012717" lon="11.4780533"><ele>207.4</ele><time>2026-04-26T08:18:21.298Z</time></trkpt><trkpt lat="43.2012233" lon="11.477925"><ele>206.0</ele><time>2026-04-26T08:18:22.298Z</time></trkpt><trkpt lat="43.2011767" lon="11.477795"><ele>206.0</ele><time>2026-04-26T08:18:23.299Z</time></trkpt><trkpt lat="43.2011283" lon="11.477665"><ele>206.0</ele><time>2026-04-26T08:18:24.296Z</time></trkpt><trkpt lat="43.2010817" lon="11.4775367"><ele>206.0</ele><time>2026-04-26T08:18:25.296Z</time></trkpt><trkpt lat="43.2010333" lon="11.4774117"><ele>206.0</ele><time>2026-04-26T08:18:26.296Z</time></trkpt><trkpt lat="43.2009833" lon="11.4772883"><ele>206.0</ele><time>2026-04-26T08:18:27.295Z</time></trkpt><trkpt lat="43.2009367" lon="11.477165"><ele>206.8</ele><time>2026-04-26T08:18:28.295Z</time></trkpt><trkpt lat="43.2008883" lon="11.4770433"><ele>207.60000000000002</ele><time>2026-04-26T08:18:29.297Z</time></trkpt><trkpt lat="43.2008367" lon="11.476925"><ele>208.4</ele><time>2026-04-26T08:18:30.298Z</time></trkpt><trkpt lat="43.2007817" lon="11.4768117"><ele>209.2</ele><time>2026-04-26T08:18:31.297Z</time></trkpt><trkpt lat="43.2007183" lon="11.476705"><ele>210.0</ele><time>2026-04-26T08:18:32.298Z</time></trkpt><trkpt lat="43.2006533" lon="11.4766017"><ele>209.2</ele><time>2026-04-26T08:18:33.299Z</time></trkpt><trkpt lat="43.2005767" lon="11.4765133"><ele>208.4</ele><time>2026-04-26T08:18:34.298Z</time></trkpt><trkpt lat="43.2004983" lon="11.4764283"><ele>207.60000000000002</ele><time>2026-04-26T08:18:35.299Z</time></trkpt><trkpt lat="43.2004167" lon="11.476345"><ele>206.8</ele><time>2026-04-26T08:18:36.298Z</time></trkpt><trkpt lat="43.200335" lon="11.476265"><ele>206.0</ele><time>2026-04-26T08:18:37.295Z</time></trkpt><trkpt lat="43.2002567" lon="11.4761833"><ele>206.0</ele><time>2026-04-26T08:18:38.298Z</time></trkpt><trkpt lat="43.2001833" lon="11.47611"><ele>206.0</ele><time>2026-04-26T08:18:39.295Z</time></trkpt><trkpt lat="43.2001133" lon="11.4760333"><ele>206.0</ele><time>2026-04-26T08:18:40.296Z</time></trkpt><trkpt lat="43.2000483" lon="11.4759567"><ele>206.0</ele><time>2026-04-26T08:18:41.296Z</time></trkpt><trkpt lat="43.1999783" lon="11.4758767"><ele>206.0</ele><time>2026-04-26T08:18:42.294Z</time></trkpt><trkpt lat="43.1998983" lon="11.475805"><ele>204.60000000000002</ele><time>2026-04-26T08:18:43.298Z</time></trkpt><trkpt lat="43.1998117" lon="11.4757417"><ele>203.2</ele><time>2026-04-26T08:18:44.298Z</time></trkpt><trkpt lat="43.1997167" lon="11.4756767"><ele>201.8</ele><time>2026-04-26T08:18:45.299Z</time></trkpt><trkpt lat="43.199625" lon="11.4755983"><ele>200.39999999999998</ele><time>2026-04-26T08:18:46.299Z</time></trkpt><trkpt lat="43.1995367" lon="11.4755067"><ele>199.0</ele><time>2026-04-26T08:18:47.298Z</time></trkpt><trkpt lat="43.1994567" lon="11.4754067"><ele>199.0</ele><time>2026-04-26T08:18:48.298Z</time></trkpt><trkpt lat="43.199385" lon="11.4753017"><ele>199.0</ele><time>2026-04-26T08:18:49.299Z</time></trkpt><trkpt lat="43.19932" lon="11.4751933"><ele>199.0</ele><time>2026-04-26T08:18:50.299Z</time></trkpt><trkpt lat="43.1992583" lon="11.4750833"><ele>199.0</ele><time>2026-04-26T08:18:51.299Z</time></trkpt><trkpt lat="43.1992" lon="11.4749683"><ele>199.0</ele><time>2026-04-26T08:18:52.299Z</time></trkpt><trkpt lat="43.1991383" lon="11.474855"><ele>199.0</ele><time>2026-04-26T08:18:53.299Z</time></trkpt><trkpt lat="43.19908" lon="11.4747433"><ele>199.0</ele><time>2026-04-26T08:18:54.295Z</time></trkpt><trkpt lat="43.1990217" lon="11.4746333"><ele>199.0</ele><time>2026-04-26T08:18:55.297Z</time></trkpt><trkpt lat="43.1989667" lon="11.4745217"><ele>199.0</ele><time>2026-04-26T08:18:56.297Z</time></trkpt><trkpt lat="43.1989217" lon="11.4744067"><ele>199.0</ele><time>2026-04-26T08:18:57.296Z</time></trkpt><trkpt lat="43.19889" lon="11.4742833"><ele>200.2</ele><time>2026-04-26T08:18:58.294Z</time></trkpt><trkpt lat="43.19887" lon="11.474155"><ele>201.39999999999998</ele><time>2026-04-26T08:18:59.297Z</time></trkpt><trkpt lat="43.198865" lon="11.47402"><ele>202.6</ele><time>2026-04-26T08:19:00.296Z</time></trkpt><trkpt lat="43.198865" lon="11.47389"><ele>203.8</ele><time>2026-04-26T08:19:01.296Z</time></trkpt><trkpt lat="43.1988617" lon="11.47377"><ele>205.0</ele><time>2026-04-26T08:19:02.297Z</time></trkpt><trkpt lat="43.1988483" lon="11.4736583"><ele>206.8</ele><time>2026-04-26T08:19:03.296Z</time></trkpt><trkpt lat="43.1988233" lon="11.473545"><ele>208.6</ele><time>2026-04-26T08:19:04.298Z</time></trkpt><trkpt lat="43.1987867" lon="11.47343"><ele>210.39999999999998</ele><time>2026-04-26T08:19:05.296Z</time></trkpt><trkpt lat="43.1987417" lon="11.4733167"><ele>212.2</ele><time>2026-04-26T08:19:06.297Z</time></trkpt><trkpt lat="43.198685" lon="11.4732033"><ele>214.0</ele><time>2026-04-26T08:19:07.298Z</time></trkpt><trkpt lat="43.1986283" lon="11.4730867"><ele>213.99999999999997</ele><time>2026-04-26T08:19:08.297Z</time></trkpt><trkpt lat="43.198575" lon="11.4729783"><ele>214.0</ele><time>2026-04-26T08:19:09.296Z</time></trkpt><trkpt lat="43.1985333" lon="11.4728667"><ele>214.0</ele><time>2026-04-26T08:19:10.297Z</time></trkpt><trkpt lat="43.1985083" lon="11.472755"><ele>214.0</ele><time>2026-04-26T08:19:11.298Z</time></trkpt><trkpt lat="43.1984933" lon="11.4726633"><ele>213.99999999999997</ele><time>2026-04-26T08:19:12.296Z</time></trkpt><trkpt lat="43.1984867" lon="11.4725767"><ele>214.0</ele><time>2026-04-26T08:19:13.297Z</time></trkpt><trkpt lat="43.19849" lon="11.472485"><ele>213.83333333333331</ele><time>2026-04-26T08:19:14.298Z</time></trkpt><trkpt lat="43.1985" lon="11.4723867"><ele>213.66666666666666</ele><time>2026-04-26T08:19:15.298Z</time></trkpt><trkpt lat="43.1985167" lon="11.472285"><ele>213.5</ele><time>2026-04-26T08:19:16.298Z</time></trkpt><trkpt lat="43.1985267" lon="11.4721717"><ele>213.33333333333331</ele><time>2026-04-26T08:19:17.299Z</time></trkpt><trkpt lat="43.1985383" lon="11.4720533"><ele>213.16666666666666</ele><time>2026-04-26T08:19:18.299Z</time></trkpt><trkpt lat="43.1985417" lon="11.47193"><ele>213.0</ele><time>2026-04-26T08:19:19.298Z</time></trkpt><trkpt lat="43.19854" lon="11.4718"><ele>212.5</ele><time>2026-04-26T08:19:20.299Z</time></trkpt><trkpt lat="43.1985317" lon="11.4716817"><ele>212.0</ele><time>2026-04-26T08:19:21.299Z</time></trkpt><trkpt lat="43.198515" lon="11.4715633"><ele>211.5</ele><time>2026-04-26T08:19:22.299Z</time></trkpt><trkpt lat="43.1984883" lon="11.471445"><ele>211.0</ele><time>2026-04-26T08:19:23.298Z</time></trkpt><trkpt lat="43.1984517" lon="11.471335"><ele>210.5</ele><time>2026-04-26T08:19:24.299Z</time></trkpt><trkpt lat="43.1984133" lon="11.4712333"><ele>210.0</ele><time>2026-04-26T08:19:25.299Z</time></trkpt><trkpt lat="43.198375" lon="11.47114"><ele>209.14285714285714</ele><time>2026-04-26T08:19:26.3Z</time></trkpt><trkpt lat="43.1983317" lon="11.4710583"><ele>208.28571428571428</ele><time>2026-04-26T08:19:27.298Z</time></trkpt><trkpt lat="43.1982883" lon="11.4709817"><ele>207.42857142857144</ele><time>2026-04-26T08:19:28.297Z</time></trkpt><trkpt lat="43.1982383" lon="11.4709133"><ele>206.57142857142856</ele><time>2026-04-26T08:19:29.296Z</time></trkpt><trkpt lat="43.198185" lon="11.47085"><ele>205.71428571428572</ele><time>2026-04-26T08:19:30.296Z</time></trkpt><trkpt lat="43.19812" lon="11.4707917"><ele>204.85714285714286</ele><time>2026-04-26T08:19:31.296Z</time></trkpt><trkpt lat="43.198055" lon="11.4707367"><ele>204.0</ele><time>2026-04-26T08:19:32.297Z</time></trkpt><trkpt lat="43.1979933" lon="11.4706867"><ele>203.33333333333334</ele><time>2026-04-26T08:19:33.295Z</time></trkpt><trkpt lat="43.1979317" lon="11.4706483"><ele>202.66666666666669</ele><time>2026-04-26T08:19:34.296Z</time></trkpt><trkpt lat="43.1978667" lon="11.4706233"><ele>202.0</ele><time>2026-04-26T08:19:35.296Z</time></trkpt><trkpt lat="43.1977983" lon="11.4706017"><ele>201.33333333333334</ele><time>2026-04-26T08:19:36.297Z</time></trkpt><trkpt lat="43.19772" lon="11.4705883"><ele>200.66666666666669</ele><time>2026-04-26T08:19:37.297Z</time></trkpt><trkpt lat="43.1976333" lon="11.4705733"><ele>200.0</ele><time>2026-04-26T08:19:38.297Z</time></trkpt><trkpt lat="43.1975567" lon="11.4705533"><ele>200.00000000000003</ele><time>2026-04-26T08:19:39.296Z</time></trkpt><trkpt lat="43.1974817" lon="11.4705267"><ele>200.0</ele><time>2026-04-26T08:19:40.296Z</time></trkpt><trkpt lat="43.19741" lon="11.4704817"><ele>200.0</ele><time>2026-04-26T08:19:41.296Z</time></trkpt><trkpt lat="43.19735" lon="11.4704217"><ele>200.0</ele><time>2026-04-26T08:19:42.296Z</time></trkpt><trkpt lat="43.197295" lon="11.4703483"><ele>200.00000000000003</ele><time>2026-04-26T08:19:43.296Z</time></trkpt><trkpt lat="43.19725" lon="11.47026"><ele>200.0</ele><time>2026-04-26T08:19:44.296Z</time></trkpt><trkpt lat="43.1972133" lon="11.4701483"><ele>197.00000000000003</ele><time>2026-04-26T08:19:45.299Z</time></trkpt><trkpt lat="43.1971783" lon="11.4700367"><ele>194.0</ele><time>2026-04-26T08:19:46.299Z</time></trkpt><trkpt lat="43.19714" lon="11.4699317"><ele>191.0</ele><time>2026-04-26T08:19:47.298Z</time></trkpt><trkpt lat="43.197105" lon="11.4698233"><ele>188.0</ele><time>2026-04-26T08:19:48.295Z</time></trkpt><trkpt lat="43.19706" lon="11.4697183"><ele>185.0</ele><time>2026-04-26T08:19:49.298Z</time></trkpt><trkpt lat="43.19702" lon="11.4696117"><ele>182.0</ele><time>2026-04-26T08:19:50.299Z</time></trkpt><trkpt lat="43.196975" lon="11.469505"><ele>181.83333333333331</ele><time>2026-04-26T08:19:51.299Z</time></trkpt><trkpt lat="43.1969233" lon="11.4694117"><ele>181.66666666666666</ele><time>2026-04-26T08:19:52.298Z</time></trkpt><trkpt lat="43.1968683" lon="11.469325"><ele>181.5</ele><time>2026-04-26T08:19:53.298Z</time></trkpt><trkpt lat="43.1968117" lon="11.469235"><ele>181.33333333333334</ele><time>2026-04-26T08:19:54.296Z</time></trkpt><trkpt lat="43.1967533" lon="11.4691417"><ele>181.16666666666669</ele><time>2026-04-26T08:19:55.296Z</time></trkpt><trkpt lat="43.1966983" lon="11.4690517"><ele>181.0</ele><time>2026-04-26T08:19:56.297Z</time></trkpt><trkpt lat="43.1966533" lon="11.468965"><ele>181.0</ele><time>2026-04-26T08:19:57.296Z</time></trkpt><trkpt lat="43.1966217" lon="11.46887"><ele>181.0</ele><time>2026-04-26T08:19:58.295Z</time></trkpt><trkpt lat="43.196605" lon="11.4687633"><ele>181.0</ele><time>2026-04-26T08:19:59.297Z</time></trkpt><trkpt lat="43.1965867" lon="11.468655"><ele>181.0</ele><time>2026-04-26T08:20:00.297Z</time></trkpt><trkpt lat="43.1965633" lon="11.4685433"><ele>181.0</ele><time>2026-04-26T08:20:01.299Z</time></trkpt><trkpt lat="43.1965283" lon="11.4684367"><ele>181.0</ele><time>2026-04-26T08:20:02.299Z</time></trkpt><trkpt lat="43.1964767" lon="11.4683333"><ele>178.20000000000002</ele><time>2026-04-26T08:20:03.296Z</time></trkpt><trkpt lat="43.19642" lon="11.4682267"><ele>175.4</ele><time>2026-04-26T08:20:04.295Z</time></trkpt><trkpt lat="43.1963583" lon="11.4681233"><ele>172.6</ele><time>2026-04-26T08:20:05.297Z</time></trkpt><trkpt lat="43.1962967" lon="11.46802"><ele>169.8</ele><time>2026-04-26T08:20:06.296Z</time></trkpt><trkpt lat="43.19623" lon="11.4679267"><ele>167.0</ele><time>2026-04-26T08:20:07.297Z</time></trkpt><trkpt lat="43.196155" lon="11.4678467"><ele>166.66666666666666</ele><time>2026-04-26T08:20:08.299Z</time></trkpt><trkpt lat="43.1960767" lon="11.46778"><ele>166.33333333333331</ele><time>2026-04-26T08:20:09.298Z</time></trkpt><trkpt lat="43.1959933" lon="11.4677267"><ele>166.0</ele><time>2026-04-26T08:20:10.297Z</time></trkpt><trkpt lat="43.1959067" lon="11.4676883"><ele>165.66666666666666</ele><time>2026-04-26T08:20:11.299Z</time></trkpt><trkpt lat="43.1958217" lon="11.46766"><ele>165.33333333333334</ele><time>2026-04-26T08:20:12.298Z</time></trkpt><trkpt lat="43.1957383" lon="11.4676317"><ele>165.0</ele><time>2026-04-26T08:20:13.298Z</time></trkpt><trkpt lat="43.1956617" lon="11.467595"><ele>164.16666666666666</ele><time>2026-04-26T08:20:14.298Z</time></trkpt><trkpt lat="43.1955933" lon="11.4675383"><ele>163.33333333333334</ele><time>2026-04-26T08:20:15.299Z</time></trkpt><trkpt lat="43.1955417" lon="11.46745"><ele>162.5</ele><time>2026-04-26T08:20:16.298Z</time></trkpt><trkpt lat="43.195505" lon="11.46734"><ele>161.66666666666669</ele><time>2026-04-26T08:20:17.299Z</time></trkpt><trkpt lat="43.1954867" lon="11.46722"><ele>160.83333333333334</ele><time>2026-04-26T08:20:18.299Z</time></trkpt><trkpt lat="43.195475" lon="11.467095"><ele>160.0</ele><time>2026-04-26T08:20:19.298Z</time></trkpt><trkpt lat="43.1954617" lon="11.466965"><ele>159.66666666666669</ele><time>2026-04-26T08:20:20.3Z</time></trkpt><trkpt lat="43.1954483" lon="11.46684"><ele>159.33333333333334</ele><time>2026-04-26T08:20:21.298Z</time></trkpt><trkpt lat="43.1954333" lon="11.466715"><ele>159.0</ele><time>2026-04-26T08:20:22.298Z</time></trkpt><trkpt lat="43.1954117" lon="11.4665983"><ele>158.66666666666666</ele><time>2026-04-26T08:20:23.299Z</time></trkpt><trkpt lat="43.195385" lon="11.46649"><ele>158.33333333333331</ele><time>2026-04-26T08:20:24.295Z</time></trkpt><trkpt lat="43.195355" lon="11.4663917"><ele>158.0</ele><time>2026-04-26T08:20:25.297Z</time></trkpt><trkpt lat="43.195315" lon="11.466305"><ele>157.57142857142858</ele><time>2026-04-26T08:20:26.297Z</time></trkpt><trkpt lat="43.195265" lon="11.4662267"><ele>157.14285714285714</ele><time>2026-04-26T08:20:27.296Z</time></trkpt><trkpt lat="43.1952067" lon="11.4661517"><ele>156.71428571428572</ele><time>2026-04-26T08:20:28.302Z</time></trkpt><trkpt lat="43.19515" lon="11.4660767"><ele>156.28571428571428</ele><time>2026-04-26T08:20:29.296Z</time></trkpt><trkpt lat="43.1950967" lon="11.466005"><ele>155.85714285714286</ele><time>2026-04-26T08:20:30.297Z</time></trkpt><trkpt lat="43.1950483" lon="11.4659367"><ele>155.42857142857144</ele><time>2026-04-26T08:20:31.296Z</time></trkpt><trkpt lat="43.1950017" lon="11.4658733"><ele>155.0</ele><time>2026-04-26T08:20:32.297Z</time></trkpt><trkpt lat="43.194925" lon="11.4657533"><ele>155.0</ele><time>2026-04-26T08:20:34.296Z</time></trkpt><trkpt lat="43.1948517" lon="11.4656883"><ele>155.0</ele><time>2026-04-26T08:20:36.295Z</time></trkpt><trkpt lat="43.1947583" lon="11.465715"><ele>155.0</ele><time>2026-04-26T08:20:38.297Z</time></trkpt><trkpt lat="43.194655" lon="11.4658067"><ele>155.0</ele><time>2026-04-26T08:20:40.299Z</time></trkpt><trkpt lat="43.1946017" lon="11.46586"><ele>155.0</ele><time>2026-04-26T08:20:41.298Z</time></trkpt><trkpt lat="43.1945467" lon="11.4659117"><ele>155.0</ele><time>2026-04-26T08:20:42.297Z</time></trkpt><trkpt lat="43.1944883" lon="11.4659667"><ele>155.0</ele><time>2026-04-26T08:20:43.298Z</time></trkpt><trkpt lat="43.1944283" lon="11.4660317"><ele>155.0</ele><time>2026-04-26T08:20:44.298Z</time></trkpt><trkpt lat="43.1943633" lon="11.4660983"><ele>155.0</ele><time>2026-04-26T08:20:45.298Z</time></trkpt><trkpt lat="43.1942967" lon="11.466165"><ele>155.0</ele><time>2026-04-26T08:20:46.299Z</time></trkpt><trkpt lat="43.1942217" lon="11.46624"><ele>155.0</ele><time>2026-04-26T08:20:47.299Z</time></trkpt><trkpt lat="43.19414" lon="11.4663167"><ele>155.0</ele><time>2026-04-26T08:20:48.299Z</time></trkpt><trkpt lat="43.194055" lon="11.4663933"><ele>155.2</ele><time>2026-04-26T08:20:49.3Z</time></trkpt><trkpt lat="43.1939733" lon="11.4664717"><ele>155.4</ele><time>2026-04-26T08:20:50.298Z</time></trkpt><trkpt lat="43.1938883" lon="11.4665533"><ele>155.6</ele><time>2026-04-26T08:20:51.299Z</time></trkpt><trkpt lat="43.193805" lon="11.4666367"><ele>155.8</ele><time>2026-04-26T08:20:52.299Z</time></trkpt><trkpt lat="43.19372" lon="11.4667083"><ele>156.0</ele><time>2026-04-26T08:20:53.3Z</time></trkpt><trkpt lat="43.1936317" lon="11.4667767"><ele>156.0</ele><time>2026-04-26T08:20:54.295Z</time></trkpt><trkpt lat="43.1935467" lon="11.4668483"><ele>156.0</ele><time>2026-04-26T08:20:55.296Z</time></trkpt><trkpt lat="43.1934633" lon="11.4669233"><ele>156.0</ele><time>2026-04-26T08:20:56.299Z</time></trkpt><trkpt lat="43.1933817" lon="11.467"><ele>156.0</ele><time>2026-04-26T08:20:57.298Z</time></trkpt><trkpt lat="43.1933" lon="11.467075"><ele>156.0</ele><time>2026-04-26T08:20:58.298Z</time></trkpt><trkpt lat="43.193215" lon="11.4671533"><ele>156.0</ele><time>2026-04-26T08:20:59.299Z</time></trkpt><trkpt lat="43.1931267" lon="11.4672333"><ele>156.0</ele><time>2026-04-26T08:21:00.298Z</time></trkpt><trkpt lat="43.1930367" lon="11.46732"><ele>156.0</ele><time>2026-04-26T08:21:01.299Z</time></trkpt><trkpt lat="43.1929467" lon="11.4674067"><ele>156.0</ele><time>2026-04-26T08:21:02.299Z</time></trkpt><trkpt lat="43.1928567" lon="11.4674933"><ele>156.0</ele><time>2026-04-26T08:21:03.299Z</time></trkpt><trkpt lat="43.1927683" lon="11.4675833"><ele>156.0</ele><time>2026-04-26T08:21:04.298Z</time></trkpt><trkpt lat="43.1926767" lon="11.46767"><ele>156.0</ele><time>2026-04-26T08:21:05.296Z</time></trkpt><trkpt lat="43.1925867" lon="11.46776"><ele>156.0</ele><time>2026-04-26T08:21:06.299Z</time></trkpt><trkpt lat="43.1924967" lon="11.46785"><ele>156.0</ele><time>2026-04-26T08:21:07.296Z</time></trkpt><trkpt lat="43.192405" lon="11.4679383"><ele>156.0</ele><time>2026-04-26T08:21:08.295Z</time></trkpt><trkpt lat="43.192315" lon="11.4680283"><ele>156.6</ele><time>2026-04-26T08:21:09.295Z</time></trkpt><trkpt lat="43.1922267" lon="11.4681183"><ele>157.2</ele><time>2026-04-26T08:21:10.296Z</time></trkpt><trkpt lat="43.1921417" lon="11.4682067"><ele>157.8</ele><time>2026-04-26T08:21:11.297Z</time></trkpt><trkpt lat="43.192055" lon="11.468295"><ele>158.4</ele><time>2026-04-26T08:21:12.296Z</time></trkpt><trkpt lat="43.1919683" lon="11.4683783"><ele>159.0</ele><time>2026-04-26T08:21:13.296Z</time></trkpt><trkpt lat="43.191885" lon="11.4684633"><ele>159.0</ele><time>2026-04-26T08:21:14.298Z</time></trkpt><trkpt lat="43.1918" lon="11.46854"><ele>159.0</ele><time>2026-04-26T08:21:15.299Z</time></trkpt><trkpt lat="43.191715" lon="11.4686133"><ele>159.0</ele><time>2026-04-26T08:21:16.298Z</time></trkpt><trkpt lat="43.1916283" lon="11.4686883"><ele>159.0</ele><time>2026-04-26T08:21:17.298Z</time></trkpt><trkpt lat="43.191545" lon="11.46877"><ele>159.0</ele><time>2026-04-26T08:21:18.298Z</time></trkpt><trkpt lat="43.19146" lon="11.4688533"><ele>158.6</ele><time>2026-04-26T08:21:19.296Z</time></trkpt><trkpt lat="43.1913767" lon="11.4689433"><ele>158.2</ele><time>2026-04-26T08:21:20.3Z</time></trkpt><trkpt lat="43.1912967" lon="11.4690433"><ele>157.79999999999998</ele><time>2026-04-26T08:21:21.298Z</time></trkpt><trkpt lat="43.191225" lon="11.4691567"><ele>157.4</ele><time>2026-04-26T08:21:22.299Z</time></trkpt><trkpt lat="43.1911617" lon="11.46928"><ele>157.0</ele><time>2026-04-26T08:21:23.298Z</time></trkpt><trkpt lat="43.1911067" lon="11.46941"><ele>157.0</ele><time>2026-04-26T08:21:24.295Z</time></trkpt><trkpt lat="43.1910567" lon="11.4695417"><ele>157.0</ele><time>2026-04-26T08:21:25.296Z</time></trkpt><trkpt lat="43.19101" lon="11.4696683"><ele>157.0</ele><time>2026-04-26T08:21:26.298Z</time></trkpt><trkpt lat="43.1909617" lon="11.46979"><ele>157.0</ele><time>2026-04-26T08:21:27.298Z</time></trkpt><trkpt lat="43.1909133" lon="11.4699083"><ele>157.0</ele><time>2026-04-26T08:21:28.299Z</time></trkpt><trkpt lat="43.1908583" lon="11.4700233"><ele>157.6</ele><time>2026-04-26T08:21:29.298Z</time></trkpt><trkpt lat="43.190805" lon="11.4701317"><ele>158.2</ele><time>2026-04-26T08:21:30.298Z</time></trkpt><trkpt lat="43.1907483" lon="11.4702317"><ele>158.8</ele><time>2026-04-26T08:21:31.299Z</time></trkpt><trkpt lat="43.1906867" lon="11.470325"><ele>159.4</ele><time>2026-04-26T08:21:32.297Z</time></trkpt><trkpt lat="43.1906217" lon="11.470415"><ele>160.0</ele><time>2026-04-26T08:21:33.299Z</time></trkpt><trkpt lat="43.1905483" lon="11.4705"><ele>161.0</ele><time>2026-04-26T08:21:34.298Z</time></trkpt><trkpt lat="43.1904783" lon="11.4705833"><ele>162.0</ele><time>2026-04-26T08:21:35.298Z</time></trkpt><trkpt lat="43.1904067" lon="11.470665"><ele>163.0</ele><time>2026-04-26T08:21:36.298Z</time></trkpt><trkpt lat="43.1903317" lon="11.4707483"><ele>164.0</ele><time>2026-04-26T08:21:37.298Z</time></trkpt><trkpt lat="43.1902517" lon="11.4708267"><ele>165.0</ele><time>2026-04-26T08:21:38.299Z</time></trkpt><trkpt lat="43.1901717" lon="11.4709033"><ele>165.0</ele><time>2026-04-26T08:21:39.298Z</time></trkpt><trkpt lat="43.1900883" lon="11.470975"><ele>165.0</ele><time>2026-04-26T08:21:40.298Z</time></trkpt><trkpt lat="43.19" lon="11.4710367"><ele>165.0</ele><time>2026-04-26T08:21:41.298Z</time></trkpt><trkpt lat="43.1899033" lon="11.47109"><ele>165.0</ele><time>2026-04-26T08:21:42.295Z</time></trkpt><trkpt lat="43.1898067" lon="11.4711417"><ele>165.0</ele><time>2026-04-26T08:21:43.298Z</time></trkpt><trkpt lat="43.1897117" lon="11.4712017"><ele>165.4</ele><time>2026-04-26T08:21:44.3Z</time></trkpt><trkpt lat="43.1896167" lon="11.4712617"><ele>165.8</ele><time>2026-04-26T08:21:45.299Z</time></trkpt><trkpt lat="43.1895283" lon="11.47133"><ele>166.2</ele><time>2026-04-26T08:21:46.296Z</time></trkpt><trkpt lat="43.1894467" lon="11.47141"><ele>166.6</ele><time>2026-04-26T08:21:47.297Z</time></trkpt><trkpt lat="43.1893717" lon="11.4715017"><ele>167.0</ele><time>2026-04-26T08:21:48.296Z</time></trkpt><trkpt lat="43.1893" lon="11.4716017"><ele>167.0</ele><time>2026-04-26T08:21:49.296Z</time></trkpt><trkpt lat="43.18924" lon="11.4717033"><ele>167.0</ele><time>2026-04-26T08:21:50.297Z</time></trkpt><trkpt lat="43.1891917" lon="11.47182"><ele>167.0</ele><time>2026-04-26T08:21:51.296Z</time></trkpt><trkpt lat="43.1891517" lon="11.471945"><ele>167.0</ele><time>2026-04-26T08:21:52.297Z</time></trkpt><trkpt lat="43.1891167" lon="11.472075"><ele>167.0</ele><time>2026-04-26T08:21:53.297Z</time></trkpt><trkpt lat="43.1890833" lon="11.4722067"><ele>168.0</ele><time>2026-04-26T08:21:54.299Z</time></trkpt><trkpt lat="43.1890483" lon="11.4723333"><ele>169.0</ele><time>2026-04-26T08:21:55.298Z</time></trkpt><trkpt lat="43.1890217" lon="11.4724617"><ele>170.0</ele><time>2026-04-26T08:21:56.3Z</time></trkpt><trkpt lat="43.18899" lon="11.4725883"><ele>171.0</ele><time>2026-04-26T08:21:57.299Z</time></trkpt><trkpt lat="43.1889517" lon="11.4727117"><ele>172.0</ele><time>2026-04-26T08:21:58.298Z</time></trkpt><trkpt lat="43.188905" lon="11.472835"><ele>170.6</ele><time>2026-04-26T08:21:59.298Z</time></trkpt><trkpt lat="43.188855" lon="11.4729517"><ele>169.2</ele><time>2026-04-26T08:22:00.299Z</time></trkpt><trkpt lat="43.188805" lon="11.473065"><ele>167.8</ele><time>2026-04-26T08:22:01.298Z</time></trkpt><trkpt lat="43.1887567" lon="11.4731783"><ele>166.4</ele><time>2026-04-26T08:22:02.299Z</time></trkpt><trkpt lat="43.1887083" lon="11.4733017"><ele>165.0</ele><time>2026-04-26T08:22:03.298Z</time></trkpt><trkpt lat="43.1886633" lon="11.4734267"><ele>165.0</ele><time>2026-04-26T08:22:04.298Z</time></trkpt><trkpt lat="43.1886217" lon="11.4735417"><ele>165.0</ele><time>2026-04-26T08:22:05.298Z</time></trkpt><trkpt lat="43.1885817" lon="11.4736517"><ele>165.0</ele><time>2026-04-26T08:22:06.3Z</time></trkpt><trkpt lat="43.1885417" lon="11.47376"><ele>165.0</ele><time>2026-04-26T08:22:07.298Z</time></trkpt><trkpt lat="43.188505" lon="11.47386"><ele>165.0</ele><time>2026-04-26T08:22:08.3Z</time></trkpt><trkpt lat="43.188455" lon="11.4739567"><ele>165.0</ele><time>2026-04-26T08:22:09.299Z</time></trkpt><trkpt lat="43.18839" lon="11.4740417"><ele>165.0</ele><time>2026-04-26T08:22:10.299Z</time></trkpt><trkpt lat="43.1883167" lon="11.4741217"><ele>165.0</ele><time>2026-04-26T08:22:11.298Z</time></trkpt><trkpt lat="43.1882383" lon="11.47419"><ele>165.0</ele><time>2026-04-26T08:22:12.298Z</time></trkpt><trkpt lat="43.1881617" lon="11.4742483"><ele>165.0</ele><time>2026-04-26T08:22:13.297Z</time></trkpt><trkpt lat="43.1880917" lon="11.47431"><ele>165.0</ele><time>2026-04-26T08:22:14.299Z</time></trkpt><trkpt lat="43.1880333" lon="11.4743833"><ele>165.0</ele><time>2026-04-26T08:22:15.299Z</time></trkpt><trkpt lat="43.1879867" lon="11.47447"><ele>164.0</ele><time>2026-04-26T08:22:16.298Z</time></trkpt><trkpt lat="43.1879533" lon="11.4745667"><ele>163.0</ele><time>2026-04-26T08:22:17.295Z</time></trkpt><trkpt lat="43.187925" lon="11.4746683"><ele>162.0</ele><time>2026-04-26T08:22:18.295Z</time></trkpt><trkpt lat="43.1878967" lon="11.4747633"><ele>161.0</ele><time>2026-04-26T08:22:19.296Z</time></trkpt><trkpt lat="43.18787" lon="11.4748417"><ele>160.0</ele><time>2026-04-26T08:22:20.296Z</time></trkpt><trkpt lat="43.187795" lon="11.4749517"><ele>159.0</ele><time>2026-04-26T08:22:22.296Z</time></trkpt><trkpt lat="43.18768" lon="11.47497"><ele>159.0</ele><time>2026-04-26T08:22:24.3Z</time></trkpt><trkpt lat="43.1875533" lon="11.47494"><ele>159.0</ele><time>2026-04-26T08:22:26.298Z</time></trkpt><trkpt lat="43.18749" lon="11.4748933"><ele>159.0</ele><time>2026-04-26T08:22:27.298Z</time></trkpt><trkpt lat="43.187425" lon="11.4748533"><ele>159.0</ele><time>2026-04-26T08:22:28.298Z</time></trkpt><trkpt lat="43.1873617" lon="11.4748133"><ele>159.0</ele><time>2026-04-26T08:22:29.299Z</time></trkpt><trkpt lat="43.1872917" lon="11.4747833"><ele>159.0</ele><time>2026-04-26T08:22:30.299Z</time></trkpt><trkpt lat="43.1872183" lon="11.47477"><ele>158.2</ele><time>2026-04-26T08:22:31.297Z</time></trkpt><trkpt lat="43.1871417" lon="11.474765"><ele>157.4</ele><time>2026-04-26T08:22:32.297Z</time></trkpt><trkpt lat="43.1870533" lon="11.4747667"><ele>156.6</ele><time>2026-04-26T08:22:33.296Z</time></trkpt><trkpt lat="43.18696" lon="11.4747733"><ele>155.8</ele><time>2026-04-26T08:22:34.298Z</time></trkpt><trkpt lat="43.186865" lon="11.47479"><ele>155.0</ele><time>2026-04-26T08:22:35.298Z</time></trkpt><trkpt lat="43.18677" lon="11.474805"><ele>155.0</ele><time>2026-04-26T08:22:36.298Z</time></trkpt><trkpt lat="43.1866717" lon="11.4748233"><ele>155.0</ele><time>2026-04-26T08:22:37.298Z</time></trkpt><trkpt lat="43.1865717" lon="11.4748317"><ele>155.0</ele><time>2026-04-26T08:22:38.297Z</time></trkpt><trkpt lat="43.1864783" lon="11.47483"><ele>155.0</ele><time>2026-04-26T08:22:39.298Z</time></trkpt><trkpt lat="43.1863817" lon="11.474825"><ele>155.0</ele><time>2026-04-26T08:22:40.296Z</time></trkpt><trkpt lat="43.186285" lon="11.4748167"><ele>154.8</ele><time>2026-04-26T08:22:41.297Z</time></trkpt><trkpt lat="43.18619" lon="11.4748317"><ele>154.6</ele><time>2026-04-26T08:22:42.296Z</time></trkpt><trkpt lat="43.1860917" lon="11.4748567"><ele>154.4</ele><time>2026-04-26T08:22:43.297Z</time></trkpt><trkpt lat="43.1859967" lon="11.474895"><ele>154.2</ele><time>2026-04-26T08:22:44.299Z</time></trkpt><trkpt lat="43.1859" lon="11.474945"><ele>154.0</ele><time>2026-04-26T08:22:45.299Z</time></trkpt><trkpt lat="43.1858067" lon="11.475005"><ele>154.0</ele><time>2026-04-26T08:22:46.298Z</time></trkpt><trkpt lat="43.1857167" lon="11.4750717"><ele>154.0</ele><time>2026-04-26T08:22:47.296Z</time></trkpt><trkpt lat="43.1856267" lon="11.475145"><ele>154.0</ele><time>2026-04-26T08:22:48.295Z</time></trkpt><trkpt lat="43.1855367" lon="11.47522"><ele>154.0</ele><time>2026-04-26T08:22:49.296Z</time></trkpt><trkpt lat="43.1854483" lon="11.4752983"><ele>154.0</ele><time>2026-04-26T08:22:50.298Z</time></trkpt><trkpt lat="43.1853583" lon="11.4753783"><ele>154.2</ele><time>2026-04-26T08:22:51.296Z</time></trkpt><trkpt lat="43.1852683" lon="11.4754567"><ele>154.4</ele><time>2026-04-26T08:22:52.295Z</time></trkpt><trkpt lat="43.1851783" lon="11.4755333"><ele>154.6</ele><time>2026-04-26T08:22:53.296Z</time></trkpt><trkpt lat="43.18509" lon="11.4756117"><ele>154.8</ele><time>2026-04-26T08:22:54.296Z</time></trkpt><trkpt lat="43.1850017" lon="11.47569"><ele>155.0</ele><time>2026-04-26T08:22:55.296Z</time></trkpt><trkpt lat="43.18491" lon="11.4757683"><ele>154.8</ele><time>2026-04-26T08:22:56.298Z</time></trkpt><trkpt lat="43.1848167" lon="11.475845"><ele>154.6</ele><time>2026-04-26T08:22:57.296Z</time></trkpt><trkpt lat="43.1847267" lon="11.4759217"><ele>154.4</ele><time>2026-04-26T08:22:58.297Z</time></trkpt><trkpt lat="43.1846333" lon="11.476"><ele>154.2</ele><time>2026-04-26T08:22:59.298Z</time></trkpt><trkpt lat="43.1845383" lon="11.4760767"><ele>154.0</ele><time>2026-04-26T08:23:00.295Z</time></trkpt><trkpt lat="43.184445" lon="11.4761517"><ele>154.0</ele><time>2026-04-26T08:23:01.297Z</time></trkpt><trkpt lat="43.1843517" lon="11.4762267"><ele>154.0</ele><time>2026-04-26T08:23:02.3Z</time></trkpt><trkpt lat="43.18426" lon="11.4763"><ele>154.0</ele><time>2026-04-26T08:23:03.298Z</time></trkpt><trkpt lat="43.1841633" lon="11.4763733"><ele>154.0</ele><time>2026-04-26T08:23:04.299Z</time></trkpt><trkpt lat="43.184065" lon="11.4764483"><ele>154.0</ele><time>2026-04-26T08:23:05.298Z</time></trkpt><trkpt lat="43.1839667" lon="11.4765233"><ele>153.75</ele><time>2026-04-26T08:23:06.298Z</time></trkpt><trkpt lat="43.18387" lon="11.4766017"><ele>153.5</ele><time>2026-04-26T08:23:07.299Z</time></trkpt><trkpt lat="43.1837717" lon="11.4766817"><ele>153.25</ele><time>2026-04-26T08:23:08.298Z</time></trkpt><trkpt lat="43.1836733" lon="11.4767633"><ele>153.0</ele><time>2026-04-26T08:23:09.298Z</time></trkpt><trkpt lat="43.183575" lon="11.4768433"><ele>153.0</ele><time>2026-04-26T08:23:10.299Z</time></trkpt><trkpt lat="43.1834767" lon="11.4769217"><ele>153.0</ele><time>2026-04-26T08:23:11.298Z</time></trkpt><trkpt lat="43.1833783" lon="11.4770017"><ele>153.0</ele><time>2026-04-26T08:23:12.298Z</time></trkpt><trkpt lat="43.1832783" lon="11.4770833"><ele>153.0</ele><time>2026-04-26T08:23:13.299Z</time></trkpt><trkpt lat="43.18318" lon="11.477165"><ele>153.5</ele><time>2026-04-26T08:23:14.299Z</time></trkpt><trkpt lat="43.18308" lon="11.477245"><ele>154.0</ele><time>2026-04-26T08:23:15.299Z</time></trkpt><trkpt lat="43.18298" lon="11.4773283"><ele>154.5</ele><time>2026-04-26T08:23:16.299Z</time></trkpt><trkpt lat="43.1828833" lon="11.4774117"><ele>155.0</ele><time>2026-04-26T08:23:17.295Z</time></trkpt><trkpt lat="43.1827867" lon="11.4774933"><ele>155.0</ele><time>2026-04-26T08:23:18.295Z</time></trkpt><trkpt lat="43.18269" lon="11.4775717"><ele>155.0</ele><time>2026-04-26T08:23:19.296Z</time></trkpt><trkpt lat="43.182595" lon="11.47765"><ele>155.0</ele><time>2026-04-26T08:23:20.297Z</time></trkpt><trkpt lat="43.1825133" lon="11.4777217"><ele>155.0</ele><time>2026-04-26T08:23:21.296Z</time></trkpt><trkpt lat="43.182435" lon="11.47778"><ele>155.0</ele><time>2026-04-26T08:23:22.296Z</time></trkpt><trkpt lat="43.182355" lon="11.47782"><ele>155.2</ele><time>2026-04-26T08:23:23.296Z</time></trkpt><trkpt lat="43.18227" lon="11.4778233"><ele>155.4</ele><time>2026-04-26T08:23:24.298Z</time></trkpt><trkpt lat="43.1821767" lon="11.4778017"><ele>155.6</ele><time>2026-04-26T08:23:25.299Z</time></trkpt><trkpt lat="43.182085" lon="11.4777717"><ele>155.8</ele><time>2026-04-26T08:23:26.297Z</time></trkpt><trkpt lat="43.18199" lon="11.4777383"><ele>156.0</ele><time>2026-04-26T08:23:27.296Z</time></trkpt><trkpt lat="43.181895" lon="11.477705"><ele>156.0</ele><time>2026-04-26T08:23:28.297Z</time></trkpt><trkpt lat="43.1817967" lon="11.4776767"><ele>156.0</ele><time>2026-04-26T08:23:29.297Z</time></trkpt><trkpt lat="43.1817" lon="11.4776483"><ele>156.0</ele><time>2026-04-26T08:23:30.296Z</time></trkpt><trkpt lat="43.1816033" lon="11.4776183"><ele>156.0</ele><time>2026-04-26T08:23:31.296Z</time></trkpt><trkpt lat="43.1815033" lon="11.4775917"><ele>156.0</ele><time>2026-04-26T08:23:32.296Z</time></trkpt><trkpt lat="43.181405" lon="11.4775617"><ele>156.0</ele><time>2026-04-26T08:23:33.298Z</time></trkpt><trkpt lat="43.1813083" lon="11.477535"><ele>156.0</ele><time>2026-04-26T08:23:34.297Z</time></trkpt><trkpt lat="43.1812117" lon="11.477505"><ele>156.0</ele><time>2026-04-26T08:23:35.297Z</time></trkpt><trkpt lat="43.1811133" lon="11.4774783"><ele>156.0</ele><time>2026-04-26T08:23:36.297Z</time></trkpt><trkpt lat="43.181015" lon="11.4774517"><ele>156.0</ele><time>2026-04-26T08:23:37.297Z</time></trkpt><trkpt lat="43.180915" lon="11.4774317"><ele>156.0</ele><time>2026-04-26T08:23:38.297Z</time></trkpt><trkpt lat="43.1808133" lon="11.47741"><ele>156.0</ele><time>2026-04-26T08:23:39.297Z</time></trkpt><trkpt lat="43.18071" lon="11.4773867"><ele>156.0</ele><time>2026-04-26T08:23:40.296Z</time></trkpt><trkpt lat="43.180605" lon="11.4773617"><ele>156.0</ele><time>2026-04-26T08:23:41.296Z</time></trkpt><trkpt lat="43.1805" lon="11.4773433"><ele>156.0</ele><time>2026-04-26T08:23:42.296Z</time></trkpt><trkpt lat="43.1804" lon="11.4773317"><ele>155.8</ele><time>2026-04-26T08:23:43.297Z</time></trkpt><trkpt lat="43.1803" lon="11.47731"><ele>155.6</ele><time>2026-04-26T08:23:44.296Z</time></trkpt><trkpt lat="43.1802017" lon="11.4772817"><ele>155.4</ele><time>2026-04-26T08:23:45.298Z</time></trkpt><trkpt lat="43.180105" lon="11.477255"><ele>155.2</ele><time>2026-04-26T08:23:46.299Z</time></trkpt><trkpt lat="43.180005" lon="11.4772267"><ele>155.0</ele><time>2026-04-26T08:23:47.299Z</time></trkpt><trkpt lat="43.1799033" lon="11.4771967"><ele>155.0</ele><time>2026-04-26T08:23:48.298Z</time></trkpt><trkpt lat="43.1798017" lon="11.477165"><ele>155.0</ele><time>2026-04-26T08:23:49.298Z</time></trkpt><trkpt lat="43.1797" lon="11.477135"><ele>155.0</ele><time>2026-04-26T08:23:50.299Z</time></trkpt><trkpt lat="43.1796" lon="11.4771067"><ele>155.0</ele><time>2026-04-26T08:23:51.298Z</time></trkpt><trkpt lat="43.1794983" lon="11.4770817"><ele>155.0</ele><time>2026-04-26T08:23:52.299Z</time></trkpt><trkpt lat="43.1794" lon="11.4770667"><ele>154.8</ele><time>2026-04-26T08:23:53.298Z</time></trkpt><trkpt lat="43.1793" lon="11.4770633"><ele>154.6</ele><time>2026-04-26T08:23:54.296Z</time></trkpt><trkpt lat="43.1792033" lon="11.4770733"><ele>154.4</ele><time>2026-04-26T08:23:55.298Z</time></trkpt><trkpt lat="43.1791017" lon="11.4770883"><ele>154.2</ele><time>2026-04-26T08:23:56.299Z</time></trkpt><trkpt lat="43.1789967" lon="11.4771083"><ele>154.0</ele><time>2026-04-26T08:23:57.299Z</time></trkpt><trkpt lat="43.1788983" lon="11.4771317"><ele>154.6</ele><time>2026-04-26T08:23:58.299Z</time></trkpt><trkpt lat="43.178805" lon="11.4771583"><ele>155.2</ele><time>2026-04-26T08:23:59.299Z</time></trkpt><trkpt lat="43.1787083" lon="11.4771917"><ele>155.79999999999998</ele><time>2026-04-26T08:24:00.299Z</time></trkpt><trkpt lat="43.17861" lon="11.4772217"><ele>156.4</ele><time>2026-04-26T08:24:01.298Z</time></trkpt><trkpt lat="43.1785133" lon="11.4772467"><ele>157.0</ele><time>2026-04-26T08:24:02.299Z</time></trkpt><trkpt lat="43.178415" lon="11.47727"><ele>157.0</ele><time>2026-04-26T08:24:03.299Z</time></trkpt><trkpt lat="43.1783167" lon="11.47729"><ele>157.0</ele><time>2026-04-26T08:24:04.298Z</time></trkpt><trkpt lat="43.1782183" lon="11.4773083"><ele>157.0</ele><time>2026-04-26T08:24:05.3Z</time></trkpt><trkpt lat="43.1781233" lon="11.4773233"><ele>157.0</ele><time>2026-04-26T08:24:06.295Z</time></trkpt><trkpt lat="43.178025" lon="11.47734"><ele>157.0</ele><time>2026-04-26T08:24:07.297Z</time></trkpt><trkpt lat="43.177925" lon="11.47735"><ele>157.8</ele><time>2026-04-26T08:24:08.299Z</time></trkpt><trkpt lat="43.177825" lon="11.4773667"><ele>158.6</ele><time>2026-04-26T08:24:09.295Z</time></trkpt><trkpt lat="43.1777267" lon="11.4773817"><ele>159.4</ele><time>2026-04-26T08:24:10.295Z</time></trkpt><trkpt lat="43.1776267" lon="11.4773967"><ele>160.20000000000002</ele><time>2026-04-26T08:24:11.296Z</time></trkpt><trkpt lat="43.1775283" lon="11.4774117"><ele>161.0</ele><time>2026-04-26T08:24:12.296Z</time></trkpt><trkpt lat="43.17743" lon="11.47743"><ele>162.60000000000002</ele><time>2026-04-26T08:24:13.297Z</time></trkpt><trkpt lat="43.1773317" lon="11.4774433"><ele>164.2</ele><time>2026-04-26T08:24:14.297Z</time></trkpt><trkpt lat="43.1772367" lon="11.4774583"><ele>165.8</ele><time>2026-04-26T08:24:15.298Z</time></trkpt><trkpt lat="43.1771417" lon="11.4774783"><ele>167.39999999999998</ele><time>2026-04-26T08:24:16.299Z</time></trkpt><trkpt lat="43.1770483" lon="11.4775033"><ele>169.0</ele><time>2026-04-26T08:24:17.3Z</time></trkpt><trkpt lat="43.1769667" lon="11.477535"><ele>169.0</ele><time>2026-04-26T08:24:18.299Z</time></trkpt><trkpt lat="43.176895" lon="11.4775767"><ele>169.0</ele><time>2026-04-26T08:24:19.3Z</time></trkpt><trkpt lat="43.17683" lon="11.4776383"><ele>169.0</ele><time>2026-04-26T08:24:20.299Z</time></trkpt><trkpt lat="43.1767717" lon="11.4777283"><ele>169.0</ele><time>2026-04-26T08:24:21.299Z</time></trkpt><trkpt lat="43.1767317" lon="11.477845"><ele>169.0</ele><time>2026-04-26T08:24:22.299Z</time></trkpt><trkpt lat="43.176705" lon="11.47797"><ele>169.0</ele><time>2026-04-26T08:24:23.3Z</time></trkpt><trkpt lat="43.17669" lon="11.478095"><ele>171.0</ele><time>2026-04-26T08:24:24.296Z</time></trkpt><trkpt lat="43.1766767" lon="11.4782217"><ele>173.0</ele><time>2026-04-26T08:24:25.297Z</time></trkpt><trkpt lat="43.1766633" lon="11.4783483"><ele>175.0</ele><time>2026-04-26T08:24:26.296Z</time></trkpt><trkpt lat="43.176655" lon="11.4784817"><ele>177.0</ele><time>2026-04-26T08:24:27.296Z</time></trkpt><trkpt lat="43.1766583" lon="11.4786167"><ele>179.0</ele><time>2026-04-26T08:24:28.296Z</time></trkpt><trkpt lat="43.176665" lon="11.47875"><ele>180.6</ele><time>2026-04-26T08:24:29.296Z</time></trkpt><trkpt lat="43.1766783" lon="11.4788783"><ele>182.2</ele><time>2026-04-26T08:24:30.297Z</time></trkpt><trkpt lat="43.1766933" lon="11.4790067"><ele>183.79999999999998</ele><time>2026-04-26T08:24:31.296Z</time></trkpt><trkpt lat="43.176705" lon="11.47914"><ele>185.39999999999998</ele><time>2026-04-26T08:24:32.298Z</time></trkpt><trkpt lat="43.1767067" lon="11.4792733"><ele>187.0</ele><time>2026-04-26T08:24:33.297Z</time></trkpt><trkpt lat="43.1766917" lon="11.4794067"><ele>187.0</ele><time>2026-04-26T08:24:34.303Z</time></trkpt><trkpt lat="43.1766617" lon="11.4795333"><ele>187.0</ele><time>2026-04-26T08:24:35.299Z</time></trkpt><trkpt lat="43.17662" lon="11.4796467"><ele>187.0</ele><time>2026-04-26T08:24:36.3Z</time></trkpt><trkpt lat="43.1765683" lon="11.47974"><ele>187.0</ele><time>2026-04-26T08:24:37.298Z</time></trkpt><trkpt lat="43.1765133" lon="11.4798217"><ele>187.0</ele><time>2026-04-26T08:24:38.298Z</time></trkpt><trkpt lat="43.1764533" lon="11.479895"><ele>187.0</ele><time>2026-04-26T08:24:39.298Z</time></trkpt><trkpt lat="43.1763983" lon="11.4799683"><ele>188.0</ele><time>2026-04-26T08:24:40.299Z</time></trkpt><trkpt lat="43.1763483" lon="11.480035"><ele>189.0</ele><time>2026-04-26T08:24:41.298Z</time></trkpt><trkpt lat="43.1763033" lon="11.4800983"><ele>190.0</ele><time>2026-04-26T08:24:42.299Z</time></trkpt><trkpt lat="43.1762333" lon="11.4802467"><ele>191.0</ele><time>2026-04-26T08:24:44.299Z</time></trkpt><trkpt lat="43.1762117" lon="11.480335"><ele>191.99999999999997</ele><time>2026-04-26T08:24:45.299Z</time></trkpt><trkpt lat="43.176195" lon="11.4804333"><ele>193.0</ele><time>2026-04-26T08:24:46.3Z</time></trkpt><trkpt lat="43.1761817" lon="11.48054"><ele>193.83333333333331</ele><time>2026-04-26T08:24:47.299Z</time></trkpt><trkpt lat="43.1761633" lon="11.4806533"><ele>194.66666666666666</ele><time>2026-04-26T08:24:48.3Z</time></trkpt><trkpt lat="43.1761483" lon="11.48077"><ele>195.5</ele><time>2026-04-26T08:24:49.298Z</time></trkpt><trkpt lat="43.17613" lon="11.4808917"><ele>196.33333333333331</ele><time>2026-04-26T08:24:50.3Z</time></trkpt><trkpt lat="43.176115" lon="11.481015"><ele>197.16666666666666</ele><time>2026-04-26T08:24:51.298Z</time></trkpt><trkpt lat="43.1760933" lon="11.481135"><ele>198.0</ele><time>2026-04-26T08:24:52.298Z</time></trkpt><trkpt lat="43.17607" lon="11.4812533"><ele>199.5</ele><time>2026-04-26T08:24:53.299Z</time></trkpt><trkpt lat="43.1760383" lon="11.4813633"><ele>201.0</ele><time>2026-04-26T08:24:54.296Z</time></trkpt><trkpt lat="43.1759983" lon="11.4814617"><ele>202.5</ele><time>2026-04-26T08:24:55.296Z</time></trkpt><trkpt lat="43.1759517" lon="11.48154"><ele>204.0</ele><time>2026-04-26T08:24:56.297Z</time></trkpt><trkpt lat="43.1759017" lon="11.4816067"><ele>205.5</ele><time>2026-04-26T08:24:57.296Z</time></trkpt><trkpt lat="43.1758517" lon="11.4816617"><ele>207.0</ele><time>2026-04-26T08:24:58.296Z</time></trkpt><trkpt lat="43.175765" lon="11.4817867"><ele>207.0</ele><time>2026-04-26T08:25:00.296Z</time></trkpt><trkpt lat="43.1757267" lon="11.4818717"><ele>207.0</ele><time>2026-04-26T08:25:01.299Z</time></trkpt><trkpt lat="43.1756967" lon="11.4819733"><ele>207.0</ele><time>2026-04-26T08:25:02.299Z</time></trkpt><trkpt lat="43.1756717" lon="11.48208"><ele>207.0</ele><time>2026-04-26T08:25:03.297Z</time></trkpt><trkpt lat="43.175655" lon="11.4821883"><ele>207.0</ele><time>2026-04-26T08:25:04.298Z</time></trkpt><trkpt lat="43.1756383" lon="11.48229"><ele>207.0</ele><time>2026-04-26T08:25:05.296Z</time></trkpt><trkpt lat="43.1756267" lon="11.4823883"><ele>206.71428571428572</ele><time>2026-04-26T08:25:06.297Z</time></trkpt><trkpt lat="43.1756233" lon="11.4824817"><ele>206.42857142857144</ele><time>2026-04-26T08:25:07.297Z</time></trkpt><trkpt lat="43.1756333" lon="11.48257"><ele>206.14285714285717</ele><time>2026-04-26T08:25:08.299Z</time></trkpt><trkpt lat="43.1756567" lon="11.4826583"><ele>205.85714285714286</ele><time>2026-04-26T08:25:09.296Z</time></trkpt><trkpt lat="43.1756917" lon="11.4827367"><ele>205.57142857142856</ele><time>2026-04-26T08:25:10.297Z</time></trkpt><trkpt lat="43.17572" lon="11.48282"><ele>205.2857142857143</ele><time>2026-04-26T08:25:11.298Z</time></trkpt><trkpt lat="43.1757367" lon="11.48291"><ele>205.0</ele><time>2026-04-26T08:25:12.299Z</time></trkpt><trkpt lat="43.1757467" lon="11.4830083"><ele>207.66666666666666</ele><time>2026-04-26T08:25:13.298Z</time></trkpt><trkpt lat="43.175755" lon="11.48311"><ele>210.33333333333331</ele><time>2026-04-26T08:25:14.299Z</time></trkpt><trkpt lat="43.17576" lon="11.4832167"><ele>213.0</ele><time>2026-04-26T08:25:15.299Z</time></trkpt><trkpt lat="43.175765" lon="11.4833267"><ele>215.66666666666669</ele><time>2026-04-26T08:25:16.299Z</time></trkpt><trkpt lat="43.1757733" lon="11.48344"><ele>218.33333333333334</ele><time>2026-04-26T08:25:17.296Z</time></trkpt><trkpt lat="43.1757833" lon="11.4835533"><ele>221.0</ele><time>2026-04-26T08:25:18.297Z</time></trkpt><trkpt lat="43.1757933" lon="11.4836683"><ele>222.33333333333334</ele><time>2026-04-26T08:25:19.297Z</time></trkpt><trkpt lat="43.175805" lon="11.48378"><ele>223.66666666666669</ele><time>2026-04-26T08:25:20.297Z</time></trkpt><trkpt lat="43.1758133" lon="11.4838867"><ele>225.0</ele><time>2026-04-26T08:25:21.296Z</time></trkpt><trkpt lat="43.17582" lon="11.4839917"><ele>226.33333333333331</ele><time>2026-04-26T08:25:22.295Z</time></trkpt><trkpt lat="43.1758233" lon="11.4840983"><ele>227.66666666666666</ele><time>2026-04-26T08:25:23.297Z</time></trkpt><trkpt lat="43.1758167" lon="11.4842033"><ele>229.0</ele><time>2026-04-26T08:25:24.299Z</time></trkpt><trkpt lat="43.1757917" lon="11.4843017"><ele>228.99999999999997</ele><time>2026-04-26T08:25:25.299Z</time></trkpt><trkpt lat="43.1757633" lon="11.48439"><ele>229.0</ele><time>2026-04-26T08:25:26.3Z</time></trkpt><trkpt lat="43.17573" lon="11.4844717"><ele>229.0</ele><time>2026-04-26T08:25:27.298Z</time></trkpt><trkpt lat="43.175695" lon="11.4845467"><ele>229.0</ele><time>2026-04-26T08:25:28.299Z</time></trkpt><trkpt lat="43.1756583" lon="11.48462"><ele>228.99999999999997</ele><time>2026-04-26T08:25:29.298Z</time></trkpt><trkpt lat="43.1755883" lon="11.4847617"><ele>229.0</ele><time>2026-04-26T08:25:31.297Z</time></trkpt><trkpt lat="43.17552" lon="11.4849"><ele>228.99999999999997</ele><time>2026-04-26T08:25:33.298Z</time></trkpt><trkpt lat="43.17546" lon="11.4849883"><ele>229.0</ele><time>2026-04-26T08:25:35.297Z</time></trkpt><trkpt lat="43.175395" lon="11.4850067"><ele>229.0</ele><time>2026-04-26T08:25:37.298Z</time></trkpt><trkpt lat="43.1752917" lon="11.4849683"><ele>229.0</ele><time>2026-04-26T08:25:39.298Z</time></trkpt><trkpt lat="43.17523" lon="11.48493"><ele>228.99999999999997</ele><time>2026-04-26T08:25:40.298Z</time></trkpt><trkpt lat="43.175165" lon="11.4848867"><ele>229.0</ele><time>2026-04-26T08:25:41.299Z</time></trkpt><trkpt lat="43.1751017" lon="11.4848467"><ele>229.0</ele><time>2026-04-26T08:25:42.298Z</time></trkpt><trkpt lat="43.1750433" lon="11.4848133"><ele>229.0</ele><time>2026-04-26T08:25:43.296Z</time></trkpt><trkpt lat="43.174985" lon="11.4847783"><ele>229.0</ele><time>2026-04-26T08:25:44.298Z</time></trkpt><trkpt lat="43.1749233" lon="11.4847417"><ele>229.0</ele><time>2026-04-26T08:25:45.299Z</time></trkpt><trkpt lat="43.1748617" lon="11.4847033"><ele>229.0</ele><time>2026-04-26T08:25:46.299Z</time></trkpt><trkpt lat="43.1748" lon="11.4846617"><ele>229.0</ele><time>2026-04-26T08:25:47.298Z</time></trkpt><trkpt lat="43.1747367" lon="11.4846167"><ele>229.0</ele><time>2026-04-26T08:25:48.299Z</time></trkpt><trkpt lat="43.17467" lon="11.48457"><ele>228.99999999999997</ele><time>2026-04-26T08:25:49.298Z</time></trkpt><trkpt lat="43.1746017" lon="11.4845283"><ele>229.0</ele><time>2026-04-26T08:25:50.298Z</time></trkpt><trkpt lat="43.174535" lon="11.4844867"><ele>229.0</ele><time>2026-04-26T08:25:51.299Z</time></trkpt><trkpt lat="43.174465" lon="11.4844533"><ele>229.0</ele><time>2026-04-26T08:25:52.297Z</time></trkpt><trkpt lat="43.1743917" lon="11.4844333"><ele>228.99999999999997</ele><time>2026-04-26T08:25:53.298Z</time></trkpt><trkpt lat="43.1743167" lon="11.484415"><ele>229.0</ele><time>2026-04-26T08:25:54.294Z</time></trkpt><trkpt lat="43.17424" lon="11.4843917"><ele>228.99999999999997</ele><time>2026-04-26T08:25:55.298Z</time></trkpt><trkpt lat="43.1741633" lon="11.4843733"><ele>229.0</ele><time>2026-04-26T08:25:56.299Z</time></trkpt><trkpt lat="43.1740867" lon="11.4843567"><ele>229.0</ele><time>2026-04-26T08:25:57.298Z</time></trkpt><trkpt lat="43.1740117" lon="11.4843367"><ele>229.0</ele><time>2026-04-26T08:25:58.298Z</time></trkpt><trkpt lat="43.1739383" lon="11.4843133"><ele>228.99999999999997</ele><time>2026-04-26T08:25:59.298Z</time></trkpt><trkpt lat="43.1738633" lon="11.4842933"><ele>229.0</ele><time>2026-04-26T08:26:00.297Z</time></trkpt><trkpt lat="43.1737883" lon="11.4842617"><ele>229.0</ele><time>2026-04-26T08:26:01.298Z</time></trkpt><trkpt lat="43.1737133" lon="11.4842283"><ele>229.0</ele><time>2026-04-26T08:26:02.299Z</time></trkpt><trkpt lat="43.1736383" lon="11.4842067"><ele>229.0</ele><time>2026-04-26T08:26:03.298Z</time></trkpt><trkpt lat="43.1735633" lon="11.48418"><ele>229.0</ele><time>2026-04-26T08:26:04.296Z</time></trkpt><trkpt lat="43.1734917" lon="11.484155"><ele>229.0</ele><time>2026-04-26T08:26:05.296Z</time></trkpt><trkpt lat="43.1734217" lon="11.4841367"><ele>229.0</ele><time>2026-04-26T08:26:06.296Z</time></trkpt><trkpt lat="43.1733533" lon="11.4841117"><ele>229.0</ele><time>2026-04-26T08:26:07.298Z</time></trkpt><trkpt lat="43.1732767" lon="11.4840867"><ele>228.99999999999997</ele><time>2026-04-26T08:26:08.298Z</time></trkpt><trkpt lat="43.1732017" lon="11.4840633"><ele>229.0</ele><time>2026-04-26T08:26:09.298Z</time></trkpt><trkpt lat="43.17313" lon="11.4840367"><ele>229.0</ele><time>2026-04-26T08:26:10.296Z</time></trkpt><trkpt lat="43.1730567" lon="11.48401"><ele>229.0</ele><time>2026-04-26T08:26:11.295Z</time></trkpt><trkpt lat="43.172985" lon="11.483985"><ele>228.99999999999997</ele><time>2026-04-26T08:26:12.297Z</time></trkpt><trkpt lat="43.1729083" lon="11.4839667"><ele>229.0</ele><time>2026-04-26T08:26:13.297Z</time></trkpt><trkpt lat="43.1728333" lon="11.48394"><ele>228.33333333333331</ele><time>2026-04-26T08:26:14.295Z</time></trkpt><trkpt lat="43.17276" lon="11.483905"><ele>227.66666666666666</ele><time>2026-04-26T08:26:15.295Z</time></trkpt><trkpt lat="43.1726833" lon="11.4838717"><ele>227.0</ele><time>2026-04-26T08:26:16.298Z</time></trkpt><trkpt lat="43.172605" lon="11.4838383"><ele>226.33333333333331</ele><time>2026-04-26T08:26:17.298Z</time></trkpt><trkpt lat="43.17253" lon="11.4838033"><ele>225.66666666666666</ele><time>2026-04-26T08:26:18.294Z</time></trkpt><trkpt lat="43.17245" lon="11.4837617"><ele>225.0</ele><time>2026-04-26T08:26:19.298Z</time></trkpt><trkpt lat="43.1723733" lon="11.4837133"><ele>222.66666666666666</ele><time>2026-04-26T08:26:20.298Z</time></trkpt><trkpt lat="43.1722983" lon="11.4836483"><ele>220.33333333333331</ele><time>2026-04-26T08:26:21.298Z</time></trkpt><trkpt lat="43.1722267" lon="11.4835783"><ele>218.0</ele><time>2026-04-26T08:26:22.298Z</time></trkpt><trkpt lat="43.1721567" lon="11.4835"><ele>215.66666666666666</ele><time>2026-04-26T08:26:23.297Z</time></trkpt><trkpt lat="43.1720833" lon="11.4834267"><ele>213.33333333333331</ele><time>2026-04-26T08:26:24.295Z</time></trkpt><trkpt lat="43.1720117" lon="11.4833517"><ele>211.0</ele><time>2026-04-26T08:26:25.297Z</time></trkpt><trkpt lat="43.1719383" lon="11.4832717"><ele>211.0</ele><time>2026-04-26T08:26:26.299Z</time></trkpt><trkpt lat="43.1718617" lon="11.483185"><ele>211.0</ele><time>2026-04-26T08:26:27.298Z</time></trkpt><trkpt lat="43.17179" lon="11.48309"><ele>211.0</ele><time>2026-04-26T08:26:28.297Z</time></trkpt><trkpt lat="43.171725" lon="11.4829833"><ele>211.0</ele><time>2026-04-26T08:26:29.296Z</time></trkpt><trkpt lat="43.1716667" lon="11.482875"><ele>211.0</ele><time>2026-04-26T08:26:30.295Z</time></trkpt><trkpt lat="43.171615" lon="11.482765"><ele>210.99999999999997</ele><time>2026-04-26T08:26:31.296Z</time></trkpt><trkpt lat="43.17157" lon="11.4826567"><ele>211.0</ele><time>2026-04-26T08:26:32.298Z</time></trkpt><trkpt lat="43.1715283" lon="11.4825583"><ele>211.0</ele><time>2026-04-26T08:26:33.297Z</time></trkpt><trkpt lat="43.1714917" lon="11.482475"><ele>211.0</ele><time>2026-04-26T08:26:34.297Z</time></trkpt><trkpt lat="43.1714567" lon="11.4824017"><ele>210.99999999999997</ele><time>2026-04-26T08:26:35.299Z</time></trkpt><trkpt lat="43.1714" lon="11.48228"><ele>211.0</ele><time>2026-04-26T08:26:37.296Z</time></trkpt><trkpt lat="43.17137" lon="11.4821917"><ele>209.4</ele><time>2026-04-26T08:26:39.294Z</time></trkpt><trkpt lat="43.171345" lon="11.48207"><ele>207.8</ele><time>2026-04-26T08:26:42.3Z</time></trkpt><trkpt lat="43.1713283" lon="11.4819617"><ele>206.20000000000002</ele><time>2026-04-26T08:26:44.297Z</time></trkpt><trkpt lat="43.1712967" lon="11.4818017"><ele>204.60000000000002</ele><time>2026-04-26T08:26:46.298Z</time></trkpt><trkpt lat="43.1712817" lon="11.4816967"><ele>203.0</ele><time>2026-04-26T08:26:47.296Z</time></trkpt><trkpt lat="43.1712667" lon="11.48159"><ele>203.00000000000003</ele><time>2026-04-26T08:26:48.298Z</time></trkpt><trkpt lat="43.171255" lon="11.48149"><ele>203.0</ele><time>2026-04-26T08:26:49.297Z</time></trkpt><trkpt lat="43.1712383" lon="11.4813917"><ele>203.0</ele><time>2026-04-26T08:26:50.297Z</time></trkpt><trkpt lat="43.1712217" lon="11.4812917"><ele>203.0</ele><time>2026-04-26T08:26:51.299Z</time></trkpt><trkpt lat="43.1712033" lon="11.4811917"><ele>203.00000000000003</ele><time>2026-04-26T08:26:52.297Z</time></trkpt><trkpt lat="43.1711833" lon="11.4810783"><ele>203.0</ele><time>2026-04-26T08:26:53.298Z</time></trkpt><trkpt lat="43.17116" lon="11.48097"><ele>203.0</ele><time>2026-04-26T08:26:54.297Z</time></trkpt><trkpt lat="43.171135" lon="11.48085"><ele>203.0</ele><time>2026-04-26T08:26:55.298Z</time></trkpt><trkpt lat="43.1711067" lon="11.48072"><ele>203.0</ele><time>2026-04-26T08:26:56.298Z</time></trkpt><trkpt lat="43.17108" lon="11.480585"><ele>203.0</ele><time>2026-04-26T08:26:57.297Z</time></trkpt><trkpt lat="43.1710533" lon="11.4804483"><ele>203.0</ele><time>2026-04-26T08:26:58.297Z</time></trkpt><trkpt lat="43.1710233" lon="11.480315"><ele>203.16666666666669</ele><time>2026-04-26T08:26:59.298Z</time></trkpt><trkpt lat="43.1709883" lon="11.48019"><ele>203.33333333333334</ele><time>2026-04-26T08:27:00.294Z</time></trkpt><trkpt lat="43.1709517" lon="11.48007"><ele>203.5</ele><time>2026-04-26T08:27:01.297Z</time></trkpt><trkpt lat="43.1709133" lon="11.47996"><ele>203.66666666666669</ele><time>2026-04-26T08:27:02.298Z</time></trkpt><trkpt lat="43.1708683" lon="11.479865"><ele>203.83333333333334</ele><time>2026-04-26T08:27:03.297Z</time></trkpt><trkpt lat="43.1708133" lon="11.4797767"><ele>204.0</ele><time>2026-04-26T08:27:04.298Z</time></trkpt><trkpt lat="43.1707483" lon="11.4797017"><ele>203.39999999999998</ele><time>2026-04-26T08:27:05.297Z</time></trkpt><trkpt lat="43.1706717" lon="11.4796267"><ele>202.8</ele><time>2026-04-26T08:27:06.298Z</time></trkpt><trkpt lat="43.1705917" lon="11.47957"><ele>202.2</ele><time>2026-04-26T08:27:07.297Z</time></trkpt><trkpt lat="43.1705067" lon="11.4795167"><ele>201.60000000000002</ele><time>2026-04-26T08:27:08.297Z</time></trkpt><trkpt lat="43.170415" lon="11.47947"><ele>201.0</ele><time>2026-04-26T08:27:09.297Z</time></trkpt><trkpt lat="43.1703167" lon="11.479435"><ele>201.0</ele><time>2026-04-26T08:27:10.298Z</time></trkpt><trkpt lat="43.170215" lon="11.4794"><ele>201.0</ele><time>2026-04-26T08:27:11.296Z</time></trkpt><trkpt lat="43.1701167" lon="11.47936"><ele>201.0</ele><time>2026-04-26T08:27:12.299Z</time></trkpt><trkpt lat="43.1700217" lon="11.4793117"><ele>201.0</ele><time>2026-04-26T08:27:13.298Z</time></trkpt><trkpt lat="43.1699367" lon="11.47925"><ele>201.0</ele><time>2026-04-26T08:27:14.298Z</time></trkpt><trkpt lat="43.16986" lon="11.47917"><ele>200.0</ele><time>2026-04-26T08:27:15.297Z</time></trkpt><trkpt lat="43.1697917" lon="11.479075"><ele>199.0</ele><time>2026-04-26T08:27:16.297Z</time></trkpt><trkpt lat="43.16973" lon="11.4789667"><ele>198.0</ele><time>2026-04-26T08:27:17.297Z</time></trkpt><trkpt lat="43.1696733" lon="11.4788517"><ele>197.0</ele><time>2026-04-26T08:27:18.294Z</time></trkpt><trkpt lat="43.1696183" lon="11.47874"><ele>196.0</ele><time>2026-04-26T08:27:19.295Z</time></trkpt><trkpt lat="43.169565" lon="11.4786267"><ele>195.99999999999997</ele><time>2026-04-26T08:27:20.296Z</time></trkpt><trkpt lat="43.169515" lon="11.4785183"><ele>196.0</ele><time>2026-04-26T08:27:21.295Z</time></trkpt><trkpt lat="43.169465" lon="11.4784167"><ele>196.0</ele><time>2026-04-26T08:27:22.297Z</time></trkpt><trkpt lat="43.1694133" lon="11.478315"><ele>196.0</ele><time>2026-04-26T08:27:23.297Z</time></trkpt><trkpt lat="43.1693567" lon="11.4782283"><ele>195.99999999999997</ele><time>2026-04-26T08:27:24.295Z</time></trkpt><trkpt lat="43.1692917" lon="11.4781483"><ele>196.0</ele><time>2026-04-26T08:27:25.295Z</time></trkpt><trkpt lat="43.16922" lon="11.47808"><ele>196.0</ele><time>2026-04-26T08:27:26.297Z</time></trkpt><trkpt lat="43.1691383" lon="11.4780283"><ele>196.0</ele><time>2026-04-26T08:27:27.295Z</time></trkpt><trkpt lat="43.1690467" lon="11.47799"><ele>196.0</ele><time>2026-04-26T08:27:28.296Z</time></trkpt><trkpt lat="43.1689467" lon="11.4779617"><ele>196.0</ele><time>2026-04-26T08:27:29.295Z</time></trkpt><trkpt lat="43.1688433" lon="11.47794"><ele>196.0</ele><time>2026-04-26T08:27:30.295Z</time></trkpt><trkpt lat="43.1687417" lon="11.4779167"><ele>196.0</ele><time>2026-04-26T08:27:31.297Z</time></trkpt><trkpt lat="43.1686383" lon="11.477895"><ele>196.0</ele><time>2026-04-26T08:27:32.296Z</time></trkpt><trkpt lat="43.168535" lon="11.4778733"><ele>196.0</ele><time>2026-04-26T08:27:33.294Z</time></trkpt><trkpt lat="43.1684317" lon="11.4778483"><ele>196.0</ele><time>2026-04-26T08:27:34.297Z</time></trkpt><trkpt lat="43.1683333" lon="11.4778233"><ele>196.0</ele><time>2026-04-26T08:27:35.298Z</time></trkpt><trkpt lat="43.1682417" lon="11.477805"><ele>195.60000000000002</ele><time>2026-04-26T08:27:36.295Z</time></trkpt><trkpt lat="43.16815" lon="11.4777983"><ele>195.2</ele><time>2026-04-26T08:27:37.297Z</time></trkpt><trkpt lat="43.1680583" lon="11.4777967"><ele>194.8</ele><time>2026-04-26T08:27:38.295Z</time></trkpt><trkpt lat="43.1679633" lon="11.4778"><ele>194.39999999999998</ele><time>2026-04-26T08:27:39.298Z</time></trkpt><trkpt lat="43.1678667" lon="11.4778033"><ele>194.0</ele><time>2026-04-26T08:27:40.298Z</time></trkpt><trkpt lat="43.16777" lon="11.4778"><ele>194.0</ele><time>2026-04-26T08:27:41.299Z</time></trkpt><trkpt lat="43.1676717" lon="11.477795"><ele>194.0</ele><time>2026-04-26T08:27:42.297Z</time></trkpt><trkpt lat="43.16757" lon="11.4777933"><ele>194.0</ele><time>2026-04-26T08:27:43.297Z</time></trkpt><trkpt lat="43.1674683" lon="11.47779"><ele>194.0</ele><time>2026-04-26T08:27:44.298Z</time></trkpt><trkpt lat="43.16737" lon="11.4777767"><ele>194.0</ele><time>2026-04-26T08:27:45.298Z</time></trkpt><trkpt lat="43.167275" lon="11.47775"><ele>193.75</ele><time>2026-04-26T08:27:46.297Z</time></trkpt><trkpt lat="43.1671867" lon="11.4777183"><ele>193.5</ele><time>2026-04-26T08:27:47.395Z</time></trkpt><trkpt lat="43.1670217" lon="11.4776167"><ele>193.25</ele><time>2026-04-26T08:27:49.296Z</time></trkpt><trkpt lat="43.1669467" lon="11.47755"><ele>193.0</ele><time>2026-04-26T08:27:50.296Z</time></trkpt><trkpt lat="43.166875" lon="11.4774733"><ele>193.0</ele><time>2026-04-26T08:27:51.294Z</time></trkpt><trkpt lat="43.166805" lon="11.4773967"><ele>193.0</ele><time>2026-04-26T08:27:52.297Z</time></trkpt><trkpt lat="43.1667317" lon="11.4773133"><ele>193.0</ele><time>2026-04-26T08:27:53.296Z</time></trkpt><trkpt lat="43.1666567" lon="11.477225"><ele>193.0</ele><time>2026-04-26T08:27:54.295Z</time></trkpt><trkpt lat="43.166575" lon="11.4771467"><ele>193.0</ele><time>2026-04-26T08:27:55.297Z</time></trkpt><trkpt lat="43.1664867" lon="11.4770683"><ele>192.60000000000002</ele><time>2026-04-26T08:27:56.297Z</time></trkpt><trkpt lat="43.1663967" lon="11.4769983"><ele>192.20000000000002</ele><time>2026-04-26T08:27:57.295Z</time></trkpt><trkpt lat="43.1663067" lon="11.476935"><ele>191.8</ele><time>2026-04-26T08:27:58.297Z</time></trkpt><trkpt lat="43.1662233" lon="11.4768783"><ele>191.4</ele><time>2026-04-26T08:27:59.296Z</time></trkpt><trkpt lat="43.1661433" lon="11.4768217"><ele>191.0</ele><time>2026-04-26T08:28:00.295Z</time></trkpt><trkpt lat="43.166065" lon="11.47677"><ele>191.0</ele><time>2026-04-26T08:28:01.297Z</time></trkpt><trkpt lat="43.165985" lon="11.4767167"><ele>191.0</ele><time>2026-04-26T08:28:02.297Z</time></trkpt><trkpt lat="43.165905" lon="11.4766633"><ele>191.0</ele><time>2026-04-26T08:28:03.297Z</time></trkpt><trkpt lat="43.165825" lon="11.4766117"><ele>191.0</ele><time>2026-04-26T08:28:04.295Z</time></trkpt><trkpt lat="43.165745" lon="11.4765583"><ele>191.0</ele><time>2026-04-26T08:28:05.296Z</time></trkpt><trkpt lat="43.1656617" lon="11.476505"><ele>191.0</ele><time>2026-04-26T08:28:06.298Z</time></trkpt><trkpt lat="43.16558" lon="11.4764517"><ele>190.20000000000002</ele><time>2026-04-26T08:28:07.298Z</time></trkpt><trkpt lat="43.1654967" lon="11.4764017"><ele>189.4</ele><time>2026-04-26T08:28:08.299Z</time></trkpt><trkpt lat="43.1654117" lon="11.4763533"><ele>188.6</ele><time>2026-04-26T08:28:09.296Z</time></trkpt><trkpt lat="43.1653217" lon="11.4763117"><ele>187.8</ele><time>2026-04-26T08:28:10.296Z</time></trkpt><trkpt lat="43.165235" lon="11.4762733"><ele>187.0</ele><time>2026-04-26T08:28:11.298Z</time></trkpt><trkpt lat="43.1651467" lon="11.4762417"><ele>187.0</ele><time>2026-04-26T08:28:12.299Z</time></trkpt><trkpt lat="43.165055" lon="11.4762167"><ele>187.0</ele><time>2026-04-26T08:28:13.299Z</time></trkpt><trkpt lat="43.1649633" lon="11.4761867"><ele>187.0</ele><time>2026-04-26T08:28:14.298Z</time></trkpt><trkpt lat="43.164875" lon="11.47616"><ele>187.0</ele><time>2026-04-26T08:28:15.299Z</time></trkpt><trkpt lat="43.1647883" lon="11.476135"><ele>187.0</ele><time>2026-04-26T08:28:16.298Z</time></trkpt><trkpt lat="43.1647017" lon="11.476105"><ele>187.0</ele><time>2026-04-26T08:28:17.298Z</time></trkpt><trkpt lat="43.1646133" lon="11.4760683"><ele>187.0</ele><time>2026-04-26T08:28:18.294Z</time></trkpt><trkpt lat="43.1645233" lon="11.4760333"><ele>187.0</ele><time>2026-04-26T08:28:19.295Z</time></trkpt><trkpt lat="43.1644333" lon="11.4759917"><ele>187.0</ele><time>2026-04-26T08:28:20.297Z</time></trkpt><trkpt lat="43.1643483" lon="11.4759433"><ele>187.0</ele><time>2026-04-26T08:28:21.295Z</time></trkpt><trkpt lat="43.1642633" lon="11.4758883"><ele>187.0</ele><time>2026-04-26T08:28:22.297Z</time></trkpt><trkpt lat="43.16418" lon="11.475835"><ele>187.0</ele><time>2026-04-26T08:28:23.297Z</time></trkpt><trkpt lat="43.1640967" lon="11.4757833"><ele>187.0</ele><time>2026-04-26T08:28:24.295Z</time></trkpt><trkpt lat="43.1640133" lon="11.47573"><ele>187.0</ele><time>2026-04-26T08:28:25.295Z</time></trkpt><trkpt lat="43.1639317" lon="11.4756817"><ele>187.0</ele><time>2026-04-26T08:28:26.298Z</time></trkpt><trkpt lat="43.1638483" lon="11.4756417"><ele>187.0</ele><time>2026-04-26T08:28:27.296Z</time></trkpt><trkpt lat="43.1637617" lon="11.475605"><ele>187.0</ele><time>2026-04-26T08:28:28.296Z</time></trkpt><trkpt lat="43.163675" lon="11.4755717"><ele>187.0</ele><time>2026-04-26T08:28:29.296Z</time></trkpt><trkpt lat="43.1635883" lon="11.47554"><ele>187.0</ele><time>2026-04-26T08:28:30.296Z</time></trkpt><trkpt lat="43.1635033" lon="11.4754983"><ele>187.0</ele><time>2026-04-26T08:28:31.295Z</time></trkpt><trkpt lat="43.1634233" lon="11.4754567"><ele>187.0</ele><time>2026-04-26T08:28:32.298Z</time></trkpt><trkpt lat="43.163345" lon="11.475415"><ele>187.5</ele><time>2026-04-26T08:28:33.298Z</time></trkpt><trkpt lat="43.16327" lon="11.4753733"><ele>188.0</ele><time>2026-04-26T08:28:34.298Z</time></trkpt><trkpt lat="43.1631967" lon="11.4753367"><ele>188.5</ele><time>2026-04-26T08:28:35.299Z</time></trkpt><trkpt lat="43.1631267" lon="11.4753017"><ele>189.0</ele><time>2026-04-26T08:28:36.297Z</time></trkpt><trkpt lat="43.1630517" lon="11.4752683"><ele>189.5</ele><time>2026-04-26T08:28:37.298Z</time></trkpt><trkpt lat="43.1629783" lon="11.47523"><ele>190.0</ele><time>2026-04-26T08:28:38.299Z</time></trkpt><trkpt lat="43.162905" lon="11.4751917"><ele>190.0</ele><time>2026-04-26T08:28:39.294Z</time></trkpt><trkpt lat="43.1628317" lon="11.475155"><ele>190.0</ele><time>2026-04-26T08:28:40.298Z</time></trkpt><trkpt lat="43.1627583" lon="11.4751067"><ele>190.0</ele><time>2026-04-26T08:28:41.296Z</time></trkpt><trkpt lat="43.1626833" lon="11.475055"><ele>190.0</ele><time>2026-04-26T08:28:42.299Z</time></trkpt><trkpt lat="43.1626" lon="11.4750117"><ele>190.0</ele><time>2026-04-26T08:28:43.297Z</time></trkpt><trkpt lat="43.162515" lon="11.4749817"><ele>190.0</ele><time>2026-04-26T08:28:44.296Z</time></trkpt><trkpt lat="43.1624233" lon="11.4749633"><ele>188.0</ele><time>2026-04-26T08:28:45.297Z</time></trkpt><trkpt lat="43.16233" lon="11.4749467"><ele>186.0</ele><time>2026-04-26T08:28:46.297Z</time></trkpt><trkpt lat="43.162235" lon="11.4749117"><ele>184.0</ele><time>2026-04-26T08:28:47.297Z</time></trkpt><trkpt lat="43.1621483" lon="11.4748583"><ele>182.0</ele><time>2026-04-26T08:28:48.297Z</time></trkpt><trkpt lat="43.1620733" lon="11.474785"><ele>180.0</ele><time>2026-04-26T08:28:49.298Z</time></trkpt><trkpt lat="43.1620133" lon="11.474695"><ele>180.5</ele><time>2026-04-26T08:28:50.297Z</time></trkpt><trkpt lat="43.1619633" lon="11.4745967"><ele>181.0</ele><time>2026-04-26T08:28:51.295Z</time></trkpt><trkpt lat="43.1619317" lon="11.4744833"><ele>181.5</ele><time>2026-04-26T08:28:52.297Z</time></trkpt><trkpt lat="43.1619267" lon="11.474355"><ele>182.0</ele><time>2026-04-26T08:28:53.296Z</time></trkpt><trkpt lat="43.1619267" lon="11.4742383"><ele>182.5</ele><time>2026-04-26T08:28:54.295Z</time></trkpt><trkpt lat="43.16193" lon="11.47413"><ele>183.0</ele><time>2026-04-26T08:28:55.297Z</time></trkpt><trkpt lat="43.16193" lon="11.4740283"><ele>183.0</ele><time>2026-04-26T08:28:56.298Z</time></trkpt><trkpt lat="43.161915" lon="11.4739217"><ele>183.0</ele><time>2026-04-26T08:28:57.295Z</time></trkpt><trkpt lat="43.1618883" lon="11.4738217"><ele>183.0</ele><time>2026-04-26T08:28:58.296Z</time></trkpt><trkpt lat="43.1618583" lon="11.473725"><ele>183.0</ele><time>2026-04-26T08:28:59.297Z</time></trkpt><trkpt lat="43.1618317" lon="11.473635"><ele>183.0</ele><time>2026-04-26T08:29:00.299Z</time></trkpt><trkpt lat="43.1618133" lon="11.4735383"><ele>183.0</ele><time>2026-04-26T08:29:01.299Z</time></trkpt><trkpt lat="43.1618017" lon="11.473435"><ele>182.28571428571428</ele><time>2026-04-26T08:29:02.297Z</time></trkpt><trkpt lat="43.1618067" lon="11.4733333"><ele>181.57142857142858</ele><time>2026-04-26T08:29:03.296Z</time></trkpt><trkpt lat="43.1618167" lon="11.473245"><ele>180.85714285714283</ele><time>2026-04-26T08:29:04.295Z</time></trkpt><trkpt lat="43.16184" lon="11.473155"><ele>180.14285714285714</ele><time>2026-04-26T08:29:05.296Z</time></trkpt><trkpt lat="43.16187" lon="11.4730633"><ele>179.42857142857142</ele><time>2026-04-26T08:29:06.296Z</time></trkpt><trkpt lat="43.1619067" lon="11.4729767"><ele>178.7142857142857</ele><time>2026-04-26T08:29:07.297Z</time></trkpt><trkpt lat="43.16195" lon="11.4728833"><ele>178.0</ele><time>2026-04-26T08:29:08.296Z</time></trkpt><trkpt lat="43.1620017" lon="11.4727917"><ele>177.0</ele><time>2026-04-26T08:29:09.297Z</time></trkpt><trkpt lat="43.1620517" lon="11.4726967"><ele>176.0</ele><time>2026-04-26T08:29:10.297Z</time></trkpt><trkpt lat="43.1621" lon="11.4726067"><ele>175.0</ele><time>2026-04-26T08:29:11.297Z</time></trkpt><trkpt lat="43.1621417" lon="11.47251"><ele>174.0</ele><time>2026-04-26T08:29:12.295Z</time></trkpt><trkpt lat="43.1621833" lon="11.4724133"><ele>173.0</ele><time>2026-04-26T08:29:13.297Z</time></trkpt><trkpt lat="43.1622283" lon="11.472315"><ele>172.0</ele><time>2026-04-26T08:29:14.296Z</time></trkpt><trkpt lat="43.1622783" lon="11.4722233"><ele>172.0</ele><time>2026-04-26T08:29:15.298Z</time></trkpt><trkpt lat="43.1623317" lon="11.4721233"><ele>172.0</ele><time>2026-04-26T08:29:16.298Z</time></trkpt><trkpt lat="43.16238" lon="11.4720217"><ele>172.0</ele><time>2026-04-26T08:29:17.294Z</time></trkpt><trkpt lat="43.1624283" lon="11.4719283"><ele>172.0</ele><time>2026-04-26T08:29:18.295Z</time></trkpt><trkpt lat="43.1624733" lon="11.4718333"><ele>172.0</ele><time>2026-04-26T08:29:19.297Z</time></trkpt><trkpt lat="43.162515" lon="11.47174"><ele>172.0</ele><time>2026-04-26T08:29:20.296Z</time></trkpt><trkpt lat="43.1625567" lon="11.4716433"><ele>171.0</ele><time>2026-04-26T08:29:21.296Z</time></trkpt><trkpt lat="43.162585" lon="11.471535"><ele>170.0</ele><time>2026-04-26T08:29:22.296Z</time></trkpt><trkpt lat="43.1626083" lon="11.4714183"><ele>169.0</ele><time>2026-04-26T08:29:23.297Z</time></trkpt><trkpt lat="43.1626217" lon="11.4712783"><ele>168.0</ele><time>2026-04-26T08:29:24.3Z</time></trkpt><trkpt lat="43.1626283" lon="11.4711333"><ele>167.0</ele><time>2026-04-26T08:29:25.298Z</time></trkpt><trkpt lat="43.1626333" lon="11.4709817"><ele>166.0</ele><time>2026-04-26T08:29:26.297Z</time></trkpt><trkpt lat="43.16264" lon="11.470835"><ele>165.0</ele><time>2026-04-26T08:29:27.294Z</time></trkpt><trkpt lat="43.162645" lon="11.470695"><ele>164.0</ele><time>2026-04-26T08:29:28.296Z</time></trkpt><trkpt lat="43.16265" lon="11.4705567"><ele>163.0</ele><time>2026-04-26T08:29:29.298Z</time></trkpt><trkpt lat="43.1626567" lon="11.4704283"><ele>162.0</ele><time>2026-04-26T08:29:30.295Z</time></trkpt><trkpt lat="43.162665" lon="11.4703033"><ele>161.16666666666666</ele><time>2026-04-26T08:29:31.298Z</time></trkpt><trkpt lat="43.1626733" lon="11.4701867"><ele>160.33333333333334</ele><time>2026-04-26T08:29:32.296Z</time></trkpt><trkpt lat="43.16269" lon="11.4700717"><ele>159.5</ele><time>2026-04-26T08:29:33.295Z</time></trkpt><trkpt lat="43.1627117" lon="11.4699583"><ele>158.66666666666669</ele><time>2026-04-26T08:29:34.296Z</time></trkpt><trkpt lat="43.162745" lon="11.4698483"><ele>157.83333333333334</ele><time>2026-04-26T08:29:35.296Z</time></trkpt><trkpt lat="43.1627883" lon="11.46974"><ele>157.0</ele><time>2026-04-26T08:29:36.295Z</time></trkpt><trkpt lat="43.162845" lon="11.4696383"><ele>156.2</ele><time>2026-04-26T08:29:37.296Z</time></trkpt><trkpt lat="43.16291" lon="11.4695433"><ele>155.39999999999998</ele><time>2026-04-26T08:29:38.296Z</time></trkpt><trkpt lat="43.1629867" lon="11.46946"><ele>154.60000000000002</ele><time>2026-04-26T08:29:39.298Z</time></trkpt><trkpt lat="43.1630617" lon="11.46938"><ele>153.8</ele><time>2026-04-26T08:29:40.297Z</time></trkpt><trkpt lat="43.1631417" lon="11.46931"><ele>153.0</ele><time>2026-04-26T08:29:41.298Z</time></trkpt><trkpt lat="43.1632233" lon="11.4692483"><ele>153.0</ele><time>2026-04-26T08:29:42.295Z</time></trkpt><trkpt lat="43.1633083" lon="11.4692017"><ele>153.0</ele><time>2026-04-26T08:29:43.297Z</time></trkpt><trkpt lat="43.1633917" lon="11.4691683"><ele>153.0</ele><time>2026-04-26T08:29:44.298Z</time></trkpt><trkpt lat="43.1634733" lon="11.4691383"><ele>153.0</ele><time>2026-04-26T08:29:45.298Z</time></trkpt><trkpt lat="43.1635533" lon="11.4691117"><ele>153.0</ele><time>2026-04-26T08:29:46.299Z</time></trkpt><trkpt lat="43.163635" lon="11.46909"><ele>153.0</ele><time>2026-04-26T08:29:47.297Z</time></trkpt><trkpt lat="43.16372" lon="11.4690733"><ele>153.0</ele><time>2026-04-26T08:29:48.295Z</time></trkpt><trkpt lat="43.163805" lon="11.469055"><ele>153.0</ele><time>2026-04-26T08:29:49.298Z</time></trkpt><trkpt lat="43.163885" lon="11.4690333"><ele>153.0</ele><time>2026-04-26T08:29:50.297Z</time></trkpt><trkpt lat="43.163955" lon="11.4690017"><ele>153.0</ele><time>2026-04-26T08:29:51.299Z</time></trkpt><trkpt lat="43.1640133" lon="11.4689567"><ele>153.0</ele><time>2026-04-26T08:29:52.295Z</time></trkpt><trkpt lat="43.164065" lon="11.468895"><ele>153.0</ele><time>2026-04-26T08:29:53.295Z</time></trkpt><trkpt lat="43.1641067" lon="11.4688133"><ele>153.0</ele><time>2026-04-26T08:29:54.295Z</time></trkpt><trkpt lat="43.16413" lon="11.4687217"><ele>152.42857142857142</ele><time>2026-04-26T08:29:55.296Z</time></trkpt><trkpt lat="43.1641333" lon="11.4686217"><ele>151.85714285714286</ele><time>2026-04-26T08:29:56.299Z</time></trkpt><trkpt lat="43.1641217" lon="11.4685217"><ele>151.28571428571428</ele><time>2026-04-26T08:29:57.298Z</time></trkpt><trkpt lat="43.1640983" lon="11.468425"><ele>150.71428571428572</ele><time>2026-04-26T08:29:58.296Z</time></trkpt><trkpt lat="43.1640717" lon="11.4683333"><ele>150.14285714285714</ele><time>2026-04-26T08:29:59.296Z</time></trkpt><trkpt lat="43.1640417" lon="11.4682483"><ele>149.57142857142856</ele><time>2026-04-26T08:30:00.295Z</time></trkpt><trkpt lat="43.1640133" lon="11.4681617"><ele>149.0</ele><time>2026-04-26T08:30:01.297Z</time></trkpt><trkpt lat="43.1639867" lon="11.4680817"><ele>148.5</ele><time>2026-04-26T08:30:02.297Z</time></trkpt><trkpt lat="43.1639617" lon="11.468"><ele>148.0</ele><time>2026-04-26T08:30:03.295Z</time></trkpt><trkpt lat="43.1639233" lon="11.4678667"><ele>147.5</ele><time>2026-04-26T08:30:05.297Z</time></trkpt><trkpt lat="43.1638983" lon="11.467765"><ele>147.0</ele><time>2026-04-26T08:30:07.296Z</time></trkpt><trkpt lat="43.1638433" lon="11.46771"><ele>146.5</ele><time>2026-04-26T08:30:32.295Z</time></trkpt><trkpt lat="43.1637667" lon="11.4677117"><ele>146.0</ele><time>2026-04-26T08:30:34.298Z</time></trkpt><trkpt lat="43.16366" lon="11.4677583"><ele>146.0</ele><time>2026-04-26T08:30:36.295Z</time></trkpt><trkpt lat="43.1635867" lon="11.4678067"><ele>146.0</ele><time>2026-04-26T08:30:37.299Z</time></trkpt><trkpt lat="43.163495" lon="11.4678733"><ele>146.0</ele><time>2026-04-26T08:30:38.296Z</time></trkpt><trkpt lat="43.1633933" lon="11.467945"><ele>146.0</ele><time>2026-04-26T08:30:39.294Z</time></trkpt><trkpt lat="43.163285" lon="11.4680233"><ele>146.0</ele><time>2026-04-26T08:30:40.296Z</time></trkpt><trkpt lat="43.16317" lon="11.4681"><ele>146.5</ele><time>2026-04-26T08:30:41.298Z</time></trkpt><trkpt lat="43.1630517" lon="11.4681717"><ele>147.0</ele><time>2026-04-26T08:30:42.296Z</time></trkpt><trkpt lat="43.1629267" lon="11.4682367"><ele>147.5</ele><time>2026-04-26T08:30:43.297Z</time></trkpt><trkpt lat="43.1627983" lon="11.4682917"><ele>148.0</ele><time>2026-04-26T08:30:44.296Z</time></trkpt><trkpt lat="43.1626667" lon="11.4683333"><ele>148.0</ele><time>2026-04-26T08:30:45.298Z</time></trkpt><trkpt lat="43.162535" lon="11.468365"><ele>148.0</ele><time>2026-04-26T08:30:46.299Z</time></trkpt><trkpt lat="43.1624" lon="11.4683917"><ele>148.0</ele><time>2026-04-26T08:30:47.299Z</time></trkpt><trkpt lat="43.1622667" lon="11.46842"><ele>148.0</ele><time>2026-04-26T08:30:48.298Z</time></trkpt><trkpt lat="43.1621333" lon="11.468445"><ele>148.75</ele><time>2026-04-26T08:30:49.297Z</time></trkpt><trkpt lat="43.1619983" lon="11.4684667"><ele>149.5</ele><time>2026-04-26T08:30:50.298Z</time></trkpt><trkpt lat="43.161865" lon="11.46849"><ele>150.25</ele><time>2026-04-26T08:30:51.298Z</time></trkpt><trkpt lat="43.16173" lon="11.4685183"><ele>151.0</ele><time>2026-04-26T08:30:52.299Z</time></trkpt><trkpt lat="43.1615933" lon="11.4685433"><ele>150.5</ele><time>2026-04-26T08:30:53.298Z</time></trkpt><trkpt lat="43.1614567" lon="11.4685667"><ele>150.0</ele><time>2026-04-26T08:30:54.298Z</time></trkpt><trkpt lat="43.1613183" lon="11.4685917"><ele>149.5</ele><time>2026-04-26T08:30:55.297Z</time></trkpt><trkpt lat="43.16118" lon="11.4686217"><ele>149.0</ele><time>2026-04-26T08:30:56.297Z</time></trkpt><trkpt lat="43.16104" lon="11.4686533"><ele>149.0</ele><time>2026-04-26T08:30:57.296Z</time></trkpt><trkpt lat="43.1609" lon="11.4686933"><ele>149.0</ele><time>2026-04-26T08:30:58.295Z</time></trkpt><trkpt lat="43.1607617" lon="11.4687583"><ele>149.0</ele><time>2026-04-26T08:30:59.296Z</time></trkpt><trkpt lat="43.1606233" lon="11.4688433"><ele>149.0</ele><time>2026-04-26T08:31:00.297Z</time></trkpt><trkpt lat="43.16049" lon="11.4689467"><ele>148.0</ele><time>2026-04-26T08:31:01.297Z</time></trkpt><trkpt lat="43.16036" lon="11.46906"><ele>147.0</ele><time>2026-04-26T08:31:02.296Z</time></trkpt><trkpt lat="43.1602333" lon="11.4691817"><ele>146.0</ele><time>2026-04-26T08:31:03.297Z</time></trkpt><trkpt lat="43.1601033" lon="11.469305"><ele>146.0</ele><time>2026-04-26T08:31:04.297Z</time></trkpt><trkpt lat="43.1599783" lon="11.4694283"><ele>146.0</ele><time>2026-04-26T08:31:05.297Z</time></trkpt><trkpt lat="43.1598517" lon="11.4695517"><ele>146.0</ele><time>2026-04-26T08:31:06.297Z</time></trkpt><trkpt lat="43.1597233" lon="11.4696717"><ele>146.33333333333331</ele><time>2026-04-26T08:31:07.296Z</time></trkpt><trkpt lat="43.1595967" lon="11.4697933"><ele>146.66666666666666</ele><time>2026-04-26T08:31:08.296Z</time></trkpt><trkpt lat="43.1594717" lon="11.4699133"><ele>147.0</ele><time>2026-04-26T08:31:09.298Z</time></trkpt><trkpt lat="43.159345" lon="11.4700317"><ele>147.0</ele><time>2026-04-26T08:31:10.297Z</time></trkpt><trkpt lat="43.1592217" lon="11.4701483"><ele>147.0</ele><time>2026-04-26T08:31:11.299Z</time></trkpt><trkpt lat="43.159095" lon="11.4702617"><ele>147.0</ele><time>2026-04-26T08:31:12.298Z</time></trkpt><trkpt lat="43.1589683" lon="11.4703733"><ele>147.0</ele><time>2026-04-26T08:31:13.299Z</time></trkpt><trkpt lat="43.1588433" lon="11.47048"><ele>147.0</ele><time>2026-04-26T08:31:14.298Z</time></trkpt><trkpt lat="43.1587167" lon="11.4705833"><ele>147.0</ele><time>2026-04-26T08:31:15.299Z</time></trkpt><trkpt lat="43.1585833" lon="11.4706883"><ele>147.0</ele><time>2026-04-26T08:31:16.299Z</time></trkpt><trkpt lat="43.1584467" lon="11.4707967"><ele>147.0</ele><time>2026-04-26T08:31:17.298Z</time></trkpt><trkpt lat="43.158305" lon="11.4709067"><ele>147.0</ele><time>2026-04-26T08:31:18.298Z</time></trkpt><trkpt lat="43.15816" lon="11.47101"><ele>147.0</ele><time>2026-04-26T08:31:19.297Z</time></trkpt><trkpt lat="43.15801" lon="11.4711067"><ele>146.66666666666666</ele><time>2026-04-26T08:31:20.299Z</time></trkpt><trkpt lat="43.157855" lon="11.4711933"><ele>146.33333333333331</ele><time>2026-04-26T08:31:21.298Z</time></trkpt><trkpt lat="43.1576883" lon="11.4712667"><ele>146.0</ele><time>2026-04-26T08:31:22.298Z</time></trkpt><trkpt lat="43.157515" lon="11.471325"><ele>147.0</ele><time>2026-04-26T08:31:23.298Z</time></trkpt><trkpt lat="43.15733" lon="11.4713683"><ele>148.0</ele><time>2026-04-26T08:31:24.299Z</time></trkpt><trkpt lat="43.1571383" lon="11.4714133"><ele>149.0</ele><time>2026-04-26T08:31:25.297Z</time></trkpt><trkpt lat="43.15694" lon="11.471455"><ele>149.0</ele><time>2026-04-26T08:31:26.299Z</time></trkpt><trkpt lat="43.156735" lon="11.4715017"><ele>149.0</ele><time>2026-04-26T08:31:27.298Z</time></trkpt><trkpt lat="43.156515" lon="11.4715517"><ele>149.0</ele><time>2026-04-26T08:31:28.296Z</time></trkpt><trkpt lat="43.15628" lon="11.4716067"><ele>148.5</ele><time>2026-04-26T08:31:29.297Z</time></trkpt><trkpt lat="43.1560233" lon="11.471665"><ele>148.0</ele><time>2026-04-26T08:31:30.299Z</time></trkpt><trkpt lat="43.155755" lon="11.471725"><ele>146.5</ele><time>2026-04-26T08:31:31.294Z</time></trkpt><trkpt lat="43.1554733" lon="11.4717883"><ele>145.0</ele><time>2026-04-26T08:31:32.298Z</time></trkpt><trkpt lat="43.1551767" lon="11.4718583"><ele>145.0</ele><time>2026-04-26T08:31:33.294Z</time></trkpt><trkpt lat="43.1548883" lon="11.4719267"><ele>145.0</ele><time>2026-04-26T08:31:34.299Z</time></trkpt><trkpt lat="43.1546133" lon="11.4719917"><ele>144.5</ele><time>2026-04-26T08:31:35.298Z</time></trkpt><trkpt lat="43.1543683" lon="11.47205"><ele>144.0</ele><time>2026-04-26T08:31:36.298Z</time></trkpt><trkpt lat="43.1541483" lon="11.4721"><ele>143.66666666666666</ele><time>2026-04-26T08:31:37.298Z</time></trkpt><trkpt lat="43.153945" lon="11.4721417"><ele>143.33333333333331</ele><time>2026-04-26T08:31:38.3Z</time></trkpt><trkpt lat="43.1537667" lon="11.4721783"><ele>143.0</ele><time>2026-04-26T08:31:39.299Z</time></trkpt><trkpt lat="43.1536017" lon="11.4722167"><ele>143.0</ele><time>2026-04-26T08:31:40.298Z</time></trkpt><trkpt lat="43.1534467" lon="11.4722517"><ele>143.0</ele><time>2026-04-26T08:31:41.297Z</time></trkpt><trkpt lat="43.1533017" lon="11.472285"><ele>143.0</ele><time>2026-04-26T08:31:42.299Z</time></trkpt><trkpt lat="43.1531633" lon="11.4723183"><ele>143.0</ele><time>2026-04-26T08:31:43.297Z</time></trkpt><trkpt lat="43.1530333" lon="11.4723467"><ele>143.0</ele><time>2026-04-26T08:31:44.299Z</time></trkpt><trkpt lat="43.152905" lon="11.4723767"><ele>143.0</ele><time>2026-04-26T08:31:45.299Z</time></trkpt><trkpt lat="43.1527733" lon="11.4724067"><ele>143.0</ele><time>2026-04-26T08:31:46.298Z</time></trkpt><trkpt lat="43.152635" lon="11.4724383"><ele>143.0</ele><time>2026-04-26T08:31:47.297Z</time></trkpt><trkpt lat="43.15249" lon="11.4724733"><ele>143.0</ele><time>2026-04-26T08:31:48.299Z</time></trkpt><trkpt lat="43.1523417" lon="11.4725133"><ele>143.0</ele><time>2026-04-26T08:31:49.298Z</time></trkpt><trkpt lat="43.15219" lon="11.4725733"><ele>143.0</ele><time>2026-04-26T08:31:50.299Z</time></trkpt><trkpt lat="43.1520367" lon="11.4726433"><ele>143.0</ele><time>2026-04-26T08:31:51.299Z</time></trkpt><trkpt lat="43.15188" lon="11.4727233"><ele>143.0</ele><time>2026-04-26T08:31:52.297Z</time></trkpt><trkpt lat="43.1517267" lon="11.472815"><ele>143.0</ele><time>2026-04-26T08:31:53.298Z</time></trkpt><trkpt lat="43.1515767" lon="11.4729217"><ele>144.66666666666666</ele><time>2026-04-26T08:31:54.299Z</time></trkpt><trkpt lat="43.15143" lon="11.4730433"><ele>146.33333333333334</ele><time>2026-04-26T08:31:55.297Z</time></trkpt><trkpt lat="43.151285" lon="11.473175"><ele>148.0</ele><time>2026-04-26T08:31:56.3Z</time></trkpt><trkpt lat="43.151145" lon="11.47331"><ele>148.0</ele><time>2026-04-26T08:31:57.298Z</time></trkpt><trkpt lat="43.1510067" lon="11.4734483"><ele>148.0</ele><time>2026-04-26T08:31:58.295Z</time></trkpt><trkpt lat="43.15087" lon="11.473585"><ele>148.0</ele><time>2026-04-26T08:31:59.298Z</time></trkpt><trkpt lat="43.150735" lon="11.47372"><ele>147.66666666666669</ele><time>2026-04-26T08:32:00.297Z</time></trkpt><trkpt lat="43.1506" lon="11.4738517"><ele>147.33333333333334</ele><time>2026-04-26T08:32:01.297Z</time></trkpt><trkpt lat="43.150465" lon="11.4739767"><ele>147.0</ele><time>2026-04-26T08:32:02.298Z</time></trkpt><trkpt lat="43.15033" lon="11.47409"><ele>147.0</ele><time>2026-04-26T08:32:03.297Z</time></trkpt><trkpt lat="43.1501883" lon="11.4741883"><ele>147.0</ele><time>2026-04-26T08:32:04.298Z</time></trkpt><trkpt lat="43.150045" lon="11.47428"><ele>147.0</ele><time>2026-04-26T08:32:05.298Z</time></trkpt><trkpt lat="43.1499" lon="11.47437"><ele>147.33333333333334</ele><time>2026-04-26T08:32:06.298Z</time></trkpt><trkpt lat="43.1497567" lon="11.4744567"><ele>147.66666666666669</ele><time>2026-04-26T08:32:07.298Z</time></trkpt><trkpt lat="43.1496117" lon="11.4745433"><ele>148.0</ele><time>2026-04-26T08:32:08.298Z</time></trkpt><trkpt lat="43.14947" lon="11.47463"><ele>148.0</ele><time>2026-04-26T08:32:09.296Z</time></trkpt><trkpt lat="43.1493283" lon="11.4747133"><ele>148.0</ele><time>2026-04-26T08:32:10.298Z</time></trkpt><trkpt lat="43.149185" lon="11.4747867"><ele>148.0</ele><time>2026-04-26T08:32:11.298Z</time></trkpt><trkpt lat="43.1490383" lon="11.4748567"><ele>147.33333333333334</ele><time>2026-04-26T08:32:12.297Z</time></trkpt><trkpt lat="43.1488917" lon="11.47492"><ele>146.66666666666666</ele><time>2026-04-26T08:32:13.299Z</time></trkpt><trkpt lat="43.1487383" lon="11.4749817"><ele>146.0</ele><time>2026-04-26T08:32:14.297Z</time></trkpt><trkpt lat="43.1485867" lon="11.4750417"><ele>146.0</ele><time>2026-04-26T08:32:15.3Z</time></trkpt><trkpt lat="43.148435" lon="11.4750983"><ele>146.0</ele><time>2026-04-26T08:32:16.298Z</time></trkpt><trkpt lat="43.1482817" lon="11.475155"><ele>146.0</ele><time>2026-04-26T08:32:17.299Z</time></trkpt><trkpt lat="43.1481267" lon="11.475215"><ele>145.33333333333331</ele><time>2026-04-26T08:32:18.297Z</time></trkpt><trkpt lat="43.14797" lon="11.4752717"><ele>144.66666666666666</ele><time>2026-04-26T08:32:19.299Z</time></trkpt><trkpt lat="43.1478167" lon="11.4753283"><ele>144.0</ele><time>2026-04-26T08:32:20.298Z</time></trkpt><trkpt lat="43.147665" lon="11.4753833"><ele>145.33333333333334</ele><time>2026-04-26T08:32:21.299Z</time></trkpt><trkpt lat="43.14751" lon="11.4754383"><ele>146.66666666666669</ele><time>2026-04-26T08:32:22.299Z</time></trkpt><trkpt lat="43.1473567" lon="11.4754933"><ele>148.0</ele><time>2026-04-26T08:32:23.299Z</time></trkpt><trkpt lat="43.1472033" lon="11.4755483"><ele>148.0</ele><time>2026-04-26T08:32:24.298Z</time></trkpt><trkpt lat="43.14705" lon="11.4756067"><ele>148.0</ele><time>2026-04-26T08:32:25.299Z</time></trkpt><trkpt lat="43.1468933" lon="11.475665"><ele>148.0</ele><time>2026-04-26T08:32:26.298Z</time></trkpt><trkpt lat="43.146735" lon="11.475725"><ele>148.0</ele><time>2026-04-26T08:32:27.298Z</time></trkpt><trkpt lat="43.14658" lon="11.4757867"><ele>148.0</ele><time>2026-04-26T08:32:28.297Z</time></trkpt><trkpt lat="43.1464267" lon="11.4758467"><ele>148.0</ele><time>2026-04-26T08:32:29.299Z</time></trkpt><trkpt lat="43.1462717" lon="11.4759117"><ele>147.0</ele><time>2026-04-26T08:32:30.299Z</time></trkpt><trkpt lat="43.1461183" lon="11.4759767"><ele>146.0</ele><time>2026-04-26T08:32:31.298Z</time></trkpt><trkpt lat="43.145965" lon="11.4760333"><ele>145.0</ele><time>2026-04-26T08:32:32.296Z</time></trkpt><trkpt lat="43.14581" lon="11.4760883"><ele>144.0</ele><time>2026-04-26T08:32:33.295Z</time></trkpt><trkpt lat="43.145655" lon="11.4761383"><ele>143.0</ele><time>2026-04-26T08:32:34.297Z</time></trkpt><trkpt lat="43.1454967" lon="11.47618"><ele>142.0</ele><time>2026-04-26T08:32:35.296Z</time></trkpt><trkpt lat="43.14534" lon="11.4762117"><ele>142.0</ele><time>2026-04-26T08:32:36.298Z</time></trkpt><trkpt lat="43.1451833" lon="11.4762333"><ele>142.0</ele><time>2026-04-26T08:32:37.299Z</time></trkpt><trkpt lat="43.1450267" lon="11.4762433"><ele>142.0</ele><time>2026-04-26T08:32:38.299Z</time></trkpt><trkpt lat="43.1448783" lon="11.4762383"><ele>142.0</ele><time>2026-04-26T08:32:39.3Z</time></trkpt><trkpt lat="43.1447417" lon="11.47622"><ele>142.0</ele><time>2026-04-26T08:32:40.298Z</time></trkpt><trkpt lat="43.144615" lon="11.4761917"><ele>142.0</ele><time>2026-04-26T08:32:41.299Z</time></trkpt><trkpt lat="43.14449" lon="11.4761733"><ele>142.0</ele><time>2026-04-26T08:32:42.295Z</time></trkpt><trkpt lat="43.144365" lon="11.47618"><ele>142.0</ele><time>2026-04-26T08:32:43.295Z</time></trkpt><trkpt lat="43.1442467" lon="11.4762283"><ele>142.0</ele><time>2026-04-26T08:32:44.296Z</time></trkpt><trkpt lat="43.1441317" lon="11.4763133"><ele>142.0</ele><time>2026-04-26T08:32:45.299Z</time></trkpt><trkpt lat="43.1440267" lon="11.4764167"><ele>142.0</ele><time>2026-04-26T08:32:46.298Z</time></trkpt><trkpt lat="43.1439183" lon="11.4765267"><ele>142.25</ele><time>2026-04-26T08:32:47.298Z</time></trkpt><trkpt lat="43.1438133" lon="11.4766367"><ele>142.5</ele><time>2026-04-26T08:32:48.298Z</time></trkpt><trkpt lat="43.14371" lon="11.476745"><ele>142.75</ele><time>2026-04-26T08:32:49.298Z</time></trkpt><trkpt lat="43.1436083" lon="11.476855"><ele>143.0</ele><time>2026-04-26T08:32:50.299Z</time></trkpt><trkpt lat="43.14351" lon="11.4769617"><ele>143.0</ele><time>2026-04-26T08:32:51.299Z</time></trkpt><trkpt lat="43.143415" lon="11.47707"><ele>143.0</ele><time>2026-04-26T08:32:52.298Z</time></trkpt><trkpt lat="43.14333" lon="11.477185"><ele>143.0</ele><time>2026-04-26T08:32:53.298Z</time></trkpt><trkpt lat="43.1432533" lon="11.47731"><ele>143.0</ele><time>2026-04-26T08:32:54.299Z</time></trkpt><trkpt lat="43.1431833" lon="11.4774467"><ele>143.0</ele><time>2026-04-26T08:32:55.296Z</time></trkpt><trkpt lat="43.1431233" lon="11.477595"><ele>143.0</ele><time>2026-04-26T08:32:56.296Z</time></trkpt><trkpt lat="43.1430717" lon="11.4777517"><ele>143.0</ele><time>2026-04-26T08:32:57.295Z</time></trkpt><trkpt lat="43.14303" lon="11.4779167"><ele>143.0</ele><time>2026-04-26T08:32:58.299Z</time></trkpt><trkpt lat="43.142995" lon="11.478085"><ele>143.0</ele><time>2026-04-26T08:32:59.298Z</time></trkpt><trkpt lat="43.142965" lon="11.4782517"><ele>143.0</ele><time>2026-04-26T08:33:00.298Z</time></trkpt><trkpt lat="43.1429383" lon="11.4784183"><ele>143.0</ele><time>2026-04-26T08:33:01.298Z</time></trkpt><trkpt lat="43.1429067" lon="11.4785833"><ele>143.0</ele><time>2026-04-26T08:33:02.299Z</time></trkpt><trkpt lat="43.142885" lon="11.4787483"><ele>143.0</ele><time>2026-04-26T08:33:03.296Z</time></trkpt><trkpt lat="43.1428583" lon="11.4789133"><ele>143.0</ele><time>2026-04-26T08:33:04.295Z</time></trkpt><trkpt lat="43.142835" lon="11.4790783"><ele>143.0</ele><time>2026-04-26T08:33:05.297Z</time></trkpt><trkpt lat="43.1428083" lon="11.4792417"><ele>143.0</ele><time>2026-04-26T08:33:06.295Z</time></trkpt><trkpt lat="43.1427817" lon="11.4794"><ele>143.0</ele><time>2026-04-26T08:33:07.297Z</time></trkpt><trkpt lat="43.14275" lon="11.4795533"><ele>143.0</ele><time>2026-04-26T08:33:08.298Z</time></trkpt><trkpt lat="43.1427117" lon="11.4797017"><ele>143.0</ele><time>2026-04-26T08:33:09.296Z</time></trkpt><trkpt lat="43.142665" lon="11.4798417"><ele>143.0</ele><time>2026-04-26T08:33:10.298Z</time></trkpt><trkpt lat="43.1426067" lon="11.479975"><ele>143.25</ele><time>2026-04-26T08:33:11.299Z</time></trkpt><trkpt lat="43.1425317" lon="11.4801017"><ele>143.5</ele><time>2026-04-26T08:33:12.298Z</time></trkpt><trkpt lat="43.142445" lon="11.480225"><ele>143.75</ele><time>2026-04-26T08:33:13.298Z</time></trkpt><trkpt lat="43.1423517" lon="11.480335"><ele>144.0</ele><time>2026-04-26T08:33:14.299Z</time></trkpt><trkpt lat="43.1422533" lon="11.4804433"><ele>143.5</ele><time>2026-04-26T08:33:15.299Z</time></trkpt><trkpt lat="43.1421633" lon="11.4805583"><ele>143.0</ele><time>2026-04-26T08:33:16.298Z</time></trkpt><trkpt lat="43.1420733" lon="11.4806683"><ele>142.5</ele><time>2026-04-26T08:33:17.299Z</time></trkpt><trkpt lat="43.1419783" lon="11.4807783"><ele>142.0</ele><time>2026-04-26T08:33:18.298Z</time></trkpt><trkpt lat="43.141885" lon="11.4808883"><ele>142.0</ele><time>2026-04-26T08:33:19.298Z</time></trkpt><trkpt lat="43.1417933" lon="11.4809967"><ele>142.0</ele><time>2026-04-26T08:33:20.298Z</time></trkpt><trkpt lat="43.1417033" lon="11.481105"><ele>142.0</ele><time>2026-04-26T08:33:21.297Z</time></trkpt><trkpt lat="43.1416083" lon="11.48121"><ele>142.0</ele><time>2026-04-26T08:33:22.298Z</time></trkpt><trkpt lat="43.1415133" lon="11.4813133"><ele>141.75</ele><time>2026-04-26T08:33:23.298Z</time></trkpt><trkpt lat="43.141415" lon="11.4814067"><ele>141.5</ele><time>2026-04-26T08:33:24.295Z</time></trkpt><trkpt lat="43.1413117" lon="11.48149"><ele>141.25</ele><time>2026-04-26T08:33:25.297Z</time></trkpt><trkpt lat="43.141205" lon="11.4815683"><ele>141.0</ele><time>2026-04-26T08:33:26.297Z</time></trkpt><trkpt lat="43.1411033" lon="11.4816433"><ele>141.0</ele><time>2026-04-26T08:33:27.295Z</time></trkpt><trkpt lat="43.1409983" lon="11.48172"><ele>141.0</ele><time>2026-04-26T08:33:28.295Z</time></trkpt><trkpt lat="43.1408917" lon="11.4817967"><ele>141.0</ele><time>2026-04-26T08:33:29.296Z</time></trkpt><trkpt lat="43.140785" lon="11.48187"><ele>141.0</ele><time>2026-04-26T08:33:30.298Z</time></trkpt><trkpt lat="43.1406767" lon="11.4819467"><ele>141.25</ele><time>2026-04-26T08:33:31.298Z</time></trkpt><trkpt lat="43.1405683" lon="11.482015"><ele>141.5</ele><time>2026-04-26T08:33:32.298Z</time></trkpt><trkpt lat="43.14046" lon="11.4820917"><ele>141.75</ele><time>2026-04-26T08:33:33.298Z</time></trkpt><trkpt lat="43.140355" lon="11.482165"><ele>142.0</ele><time>2026-04-26T08:33:34.296Z</time></trkpt><trkpt lat="43.1402483" lon="11.4822433"><ele>142.25</ele><time>2026-04-26T08:33:35.297Z</time></trkpt><trkpt lat="43.1401433" lon="11.48232"><ele>142.5</ele><time>2026-04-26T08:33:36.295Z</time></trkpt><trkpt lat="43.14004" lon="11.4823967"><ele>142.75</ele><time>2026-04-26T08:33:37.297Z</time></trkpt><trkpt lat="43.1399383" lon="11.482475"><ele>143.0</ele><time>2026-04-26T08:33:38.298Z</time></trkpt><trkpt lat="43.139835" lon="11.4825533"><ele>144.0</ele><time>2026-04-26T08:33:39.296Z</time></trkpt><trkpt lat="43.1397317" lon="11.4826267"><ele>145.0</ele><time>2026-04-26T08:33:40.295Z</time></trkpt><trkpt lat="43.1396317" lon="11.4827033"><ele>146.0</ele><time>2026-04-26T08:33:41.296Z</time></trkpt><trkpt lat="43.1395283" lon="11.482775"><ele>147.0</ele><time>2026-04-26T08:33:42.295Z</time></trkpt><trkpt lat="43.1394217" lon="11.4828417"><ele>147.0</ele><time>2026-04-26T08:33:43.297Z</time></trkpt><trkpt lat="43.1393183" lon="11.4829083"><ele>147.0</ele><time>2026-04-26T08:33:44.298Z</time></trkpt><trkpt lat="43.1392133" lon="11.48297"><ele>147.0</ele><time>2026-04-26T08:33:45.299Z</time></trkpt><trkpt lat="43.1391083" lon="11.4830333"><ele>147.0</ele><time>2026-04-26T08:33:46.298Z</time></trkpt><trkpt lat="43.139" lon="11.4830867"><ele>146.75</ele><time>2026-04-26T08:33:47.297Z</time></trkpt><trkpt lat="43.1388933" lon="11.4831383"><ele>146.5</ele><time>2026-04-26T08:33:48.296Z</time></trkpt><trkpt lat="43.1387833" lon="11.4831833"><ele>146.25</ele><time>2026-04-26T08:33:49.298Z</time></trkpt><trkpt lat="43.138675" lon="11.4832217"><ele>146.0</ele><time>2026-04-26T08:33:50.297Z</time></trkpt><trkpt lat="43.138565" lon="11.483255"><ele>146.0</ele><time>2026-04-26T08:33:51.297Z</time></trkpt><trkpt lat="43.1384533" lon="11.4832817"><ele>146.0</ele><time>2026-04-26T08:33:52.297Z</time></trkpt><trkpt lat="43.1383433" lon="11.4833067"><ele>146.0</ele><time>2026-04-26T08:33:53.298Z</time></trkpt><trkpt lat="43.1382333" lon="11.4833233"><ele>146.0</ele><time>2026-04-26T08:33:54.296Z</time></trkpt><trkpt lat="43.1381217" lon="11.483335"><ele>146.0</ele><time>2026-04-26T08:33:55.298Z</time></trkpt><trkpt lat="43.1380117" lon="11.4833417"><ele>146.2</ele><time>2026-04-26T08:33:56.298Z</time></trkpt><trkpt lat="43.137905" lon="11.48335"><ele>146.39999999999998</ele><time>2026-04-26T08:33:57.297Z</time></trkpt><trkpt lat="43.137795" lon="11.483355"><ele>146.6</ele><time>2026-04-26T08:33:58.298Z</time></trkpt><trkpt lat="43.1376867" lon="11.4833567"><ele>146.79999999999998</ele><time>2026-04-26T08:33:59.298Z</time></trkpt><trkpt lat="43.1375767" lon="11.4833583"><ele>147.0</ele><time>2026-04-26T08:34:00.297Z</time></trkpt><trkpt lat="43.1374667" lon="11.4833633"><ele>146.75</ele><time>2026-04-26T08:34:01.299Z</time></trkpt><trkpt lat="43.137355" lon="11.4833633"><ele>146.5</ele><time>2026-04-26T08:34:02.298Z</time></trkpt><trkpt lat="43.1372417" lon="11.4833633"><ele>146.25</ele><time>2026-04-26T08:34:03.297Z</time></trkpt><trkpt lat="43.1371267" lon="11.4833633"><ele>146.0</ele><time>2026-04-26T08:34:04.298Z</time></trkpt><trkpt lat="43.1370083" lon="11.483365"><ele>146.0</ele><time>2026-04-26T08:34:05.299Z</time></trkpt><trkpt lat="43.1368933" lon="11.4833667"><ele>146.0</ele><time>2026-04-26T08:34:06.299Z</time></trkpt><trkpt lat="43.1367767" lon="11.48337"><ele>146.0</ele><time>2026-04-26T08:34:07.299Z</time></trkpt><trkpt lat="43.1366617" lon="11.4833767"><ele>146.0</ele><time>2026-04-26T08:34:08.298Z</time></trkpt><trkpt lat="43.13655" lon="11.4833783"><ele>146.0</ele><time>2026-04-26T08:34:09.298Z</time></trkpt><trkpt lat="43.1364383" lon="11.483385"><ele>146.0</ele><time>2026-04-26T08:34:10.296Z</time></trkpt><trkpt lat="43.1363267" lon="11.4833917"><ele>146.0</ele><time>2026-04-26T08:34:11.296Z</time></trkpt><trkpt lat="43.136215" lon="11.483395"><ele>146.0</ele><time>2026-04-26T08:34:12.295Z</time></trkpt><trkpt lat="43.1361033" lon="11.4833967"><ele>146.0</ele><time>2026-04-26T08:34:13.298Z</time></trkpt><trkpt lat="43.1359917" lon="11.4833983"><ele>146.0</ele><time>2026-04-26T08:34:14.298Z</time></trkpt><trkpt lat="43.1358767" lon="11.483395"><ele>146.0</ele><time>2026-04-26T08:34:15.298Z</time></trkpt><trkpt lat="43.135765" lon="11.483385"><ele>146.0</ele><time>2026-04-26T08:34:16.298Z</time></trkpt><trkpt lat="43.1356533" lon="11.4833733"><ele>146.0</ele><time>2026-04-26T08:34:17.296Z</time></trkpt><trkpt lat="43.1355433" lon="11.4833617"><ele>146.0</ele><time>2026-04-26T08:34:18.295Z</time></trkpt><trkpt lat="43.1354333" lon="11.4833467"><ele>146.0</ele><time>2026-04-26T08:34:19.296Z</time></trkpt><trkpt lat="43.1353233" lon="11.4833283"><ele>146.0</ele><time>2026-04-26T08:34:20.297Z</time></trkpt><trkpt lat="43.13521" lon="11.4833083"><ele>146.0</ele><time>2026-04-26T08:34:21.295Z</time></trkpt><trkpt lat="43.1351" lon="11.48329"><ele>146.0</ele><time>2026-04-26T08:34:22.296Z</time></trkpt><trkpt lat="43.1349917" lon="11.4832683"><ele>146.0</ele><time>2026-04-26T08:34:23.296Z</time></trkpt><trkpt lat="43.1348817" lon="11.4832433"><ele>145.75</ele><time>2026-04-26T08:34:24.299Z</time></trkpt><trkpt lat="43.1347683" lon="11.48322"><ele>145.5</ele><time>2026-04-26T08:34:25.298Z</time></trkpt><trkpt lat="43.13465" lon="11.4831983"><ele>145.25</ele><time>2026-04-26T08:34:26.298Z</time></trkpt><trkpt lat="43.1345317" lon="11.4831767"><ele>145.0</ele><time>2026-04-26T08:34:27.295Z</time></trkpt><trkpt lat="43.1344167" lon="11.4831533"><ele>145.0</ele><time>2026-04-26T08:34:28.296Z</time></trkpt><trkpt lat="43.1343033" lon="11.4831317"><ele>145.0</ele><time>2026-04-26T08:34:29.297Z</time></trkpt><trkpt lat="43.1341867" lon="11.48311"><ele>145.0</ele><time>2026-04-26T08:34:30.3Z</time></trkpt><trkpt lat="43.1340683" lon="11.48309"><ele>145.0</ele><time>2026-04-26T08:34:31.297Z</time></trkpt><trkpt lat="43.1339467" lon="11.48306"><ele>145.0</ele><time>2026-04-26T08:34:32.299Z</time></trkpt><trkpt lat="43.1338183" lon="11.4830283"><ele>145.0</ele><time>2026-04-26T08:34:33.298Z</time></trkpt><trkpt lat="43.1336883" lon="11.4829917"><ele>145.0</ele><time>2026-04-26T08:34:34.299Z</time></trkpt><trkpt lat="43.1335567" lon="11.4829467"><ele>145.0</ele><time>2026-04-26T08:34:35.298Z</time></trkpt><trkpt lat="43.1334233" lon="11.4828983"><ele>145.0</ele><time>2026-04-26T08:34:36.299Z</time></trkpt><trkpt lat="43.1332933" lon="11.4828467"><ele>145.0</ele><time>2026-04-26T08:34:37.296Z</time></trkpt><trkpt lat="43.1331633" lon="11.4828033"><ele>145.0</ele><time>2026-04-26T08:34:38.298Z</time></trkpt><trkpt lat="43.1330383" lon="11.482755"><ele>145.0</ele><time>2026-04-26T08:34:39.299Z</time></trkpt><trkpt lat="43.1329133" lon="11.48271"><ele>144.5</ele><time>2026-04-26T08:34:40.296Z</time></trkpt><trkpt lat="43.1327883" lon="11.4826617"><ele>144.0</ele><time>2026-04-26T08:34:41.299Z</time></trkpt><trkpt lat="43.1326633" lon="11.4826133"><ele>143.5</ele><time>2026-04-26T08:34:42.297Z</time></trkpt><trkpt lat="43.13254" lon="11.4825667"><ele>143.0</ele><time>2026-04-26T08:34:43.299Z</time></trkpt><trkpt lat="43.1324183" lon="11.4825183"><ele>143.25</ele><time>2026-04-26T08:34:44.299Z</time></trkpt><trkpt lat="43.1322967" lon="11.4824683"><ele>143.5</ele><time>2026-04-26T08:34:45.298Z</time></trkpt><trkpt lat="43.1321733" lon="11.4824267"><ele>143.75</ele><time>2026-04-26T08:34:46.298Z</time></trkpt><trkpt lat="43.1320483" lon="11.4823883"><ele>144.0</ele><time>2026-04-26T08:34:47.298Z</time></trkpt><trkpt lat="43.13192" lon="11.4823617"><ele>144.0</ele><time>2026-04-26T08:34:48.296Z</time></trkpt><trkpt lat="43.1317867" lon="11.4823533"><ele>144.0</ele><time>2026-04-26T08:34:49.296Z</time></trkpt><trkpt lat="43.1316533" lon="11.4823583"><ele>144.0</ele><time>2026-04-26T08:34:50.296Z</time></trkpt><trkpt lat="43.1315217" lon="11.4823633"><ele>144.0</ele><time>2026-04-26T08:34:51.295Z</time></trkpt><trkpt lat="43.1313883" lon="11.48237"><ele>143.25</ele><time>2026-04-26T08:34:52.296Z</time></trkpt><trkpt lat="43.1312533" lon="11.4823783"><ele>142.5</ele><time>2026-04-26T08:34:53.297Z</time></trkpt><trkpt lat="43.1311183" lon="11.48239"><ele>141.75</ele><time>2026-04-26T08:34:54.295Z</time></trkpt><trkpt lat="43.130985" lon="11.4824017"><ele>141.0</ele><time>2026-04-26T08:34:55.297Z</time></trkpt><trkpt lat="43.13085" lon="11.4824133"><ele>141.25</ele><time>2026-04-26T08:34:56.297Z</time></trkpt><trkpt lat="43.1307167" lon="11.4824267"><ele>141.5</ele><time>2026-04-26T08:34:57.296Z</time></trkpt><trkpt lat="43.1305833" lon="11.48244"><ele>141.75</ele><time>2026-04-26T08:34:58.296Z</time></trkpt><trkpt lat="43.13045" lon="11.48245"><ele>142.0</ele><time>2026-04-26T08:34:59.298Z</time></trkpt><trkpt lat="43.1303167" lon="11.4824633"><ele>142.0</ele><time>2026-04-26T08:35:00.296Z</time></trkpt><trkpt lat="43.130185" lon="11.482475"><ele>142.0</ele><time>2026-04-26T08:35:01.298Z</time></trkpt><trkpt lat="43.1300567" lon="11.4824867"><ele>142.0</ele><time>2026-04-26T08:35:02.297Z</time></trkpt><trkpt lat="43.1299317" lon="11.4824967"><ele>142.0</ele><time>2026-04-26T08:35:03.295Z</time></trkpt><trkpt lat="43.1298083" lon="11.4825033"><ele>142.5</ele><time>2026-04-26T08:35:04.296Z</time></trkpt><trkpt lat="43.129685" lon="11.48251"><ele>143.0</ele><time>2026-04-26T08:35:05.298Z</time></trkpt><trkpt lat="43.1295633" lon="11.4825167"><ele>143.5</ele><time>2026-04-26T08:35:06.295Z</time></trkpt><trkpt lat="43.1294383" lon="11.4825283"><ele>144.0</ele><time>2026-04-26T08:35:07.299Z</time></trkpt><trkpt lat="43.129315" lon="11.48254"><ele>144.0</ele><time>2026-04-26T08:35:08.299Z</time></trkpt><trkpt lat="43.129195" lon="11.48255"><ele>144.0</ele><time>2026-04-26T08:35:09.298Z</time></trkpt><trkpt lat="43.1290717" lon="11.4825617"><ele>144.0</ele><time>2026-04-26T08:35:10.299Z</time></trkpt><trkpt lat="43.1289483" lon="11.4825717"><ele>144.0</ele><time>2026-04-26T08:35:11.298Z</time></trkpt><trkpt lat="43.128825" lon="11.48258"><ele>144.25</ele><time>2026-04-26T08:35:12.296Z</time></trkpt><trkpt lat="43.1287" lon="11.48259"><ele>144.5</ele><time>2026-04-26T08:35:13.297Z</time></trkpt><trkpt lat="43.1285767" lon="11.4826"><ele>144.75</ele><time>2026-04-26T08:35:14.297Z</time></trkpt><trkpt lat="43.1284517" lon="11.4826117"><ele>145.0</ele><time>2026-04-26T08:35:15.298Z</time></trkpt><trkpt lat="43.1283283" lon="11.4826233"><ele>145.0</ele><time>2026-04-26T08:35:16.299Z</time></trkpt><trkpt lat="43.1282033" lon="11.4826367"><ele>145.0</ele><time>2026-04-26T08:35:17.297Z</time></trkpt><trkpt lat="43.12808" lon="11.4826483"><ele>145.0</ele><time>2026-04-26T08:35:18.296Z</time></trkpt><trkpt lat="43.127955" lon="11.4826583"><ele>145.0</ele><time>2026-04-26T08:35:19.297Z</time></trkpt><trkpt lat="43.1278317" lon="11.4826683"><ele>145.0</ele><time>2026-04-26T08:35:20.298Z</time></trkpt><trkpt lat="43.1277067" lon="11.4826817"><ele>145.0</ele><time>2026-04-26T08:35:21.297Z</time></trkpt><trkpt lat="43.1275817" lon="11.4826933"><ele>145.0</ele><time>2026-04-26T08:35:22.298Z</time></trkpt><trkpt lat="43.1274583" lon="11.4827033"><ele>145.0</ele><time>2026-04-26T08:35:23.298Z</time></trkpt><trkpt lat="43.1273317" lon="11.482715"><ele>144.75</ele><time>2026-04-26T08:35:24.296Z</time></trkpt><trkpt lat="43.127205" lon="11.4827267"><ele>144.5</ele><time>2026-04-26T08:35:25.299Z</time></trkpt><trkpt lat="43.1270783" lon="11.4827367"><ele>144.25</ele><time>2026-04-26T08:35:26.298Z</time></trkpt><trkpt lat="43.1269517" lon="11.4827467"><ele>144.0</ele><time>2026-04-26T08:35:27.298Z</time></trkpt><trkpt lat="43.1268217" lon="11.4827583"><ele>144.0</ele><time>2026-04-26T08:35:28.298Z</time></trkpt><trkpt lat="43.126695" lon="11.48277"><ele>144.0</ele><time>2026-04-26T08:35:29.297Z</time></trkpt><trkpt lat="43.1265667" lon="11.48278"><ele>144.0</ele><time>2026-04-26T08:35:30.298Z</time></trkpt><trkpt lat="43.1264383" lon="11.4827917"><ele>144.0</ele><time>2026-04-26T08:35:31.297Z</time></trkpt><trkpt lat="43.1263067" lon="11.4828017"><ele>143.5</ele><time>2026-04-26T08:35:32.296Z</time></trkpt><trkpt lat="43.12618" lon="11.48281"><ele>143.0</ele><time>2026-04-26T08:35:33.296Z</time></trkpt><trkpt lat="43.1260617" lon="11.4828217"><ele>142.5</ele><time>2026-04-26T08:35:34.297Z</time></trkpt><trkpt lat="43.1259533" lon="11.4828283"><ele>142.0</ele><time>2026-04-26T08:35:35.297Z</time></trkpt><trkpt lat="43.1258467" lon="11.4828417"><ele>142.0</ele><time>2026-04-26T08:35:36.296Z</time></trkpt><trkpt lat="43.1257417" lon="11.48285"><ele>142.0</ele><time>2026-04-26T08:35:37.297Z</time></trkpt><trkpt lat="43.125635" lon="11.48286"><ele>142.0</ele><time>2026-04-26T08:35:38.297Z</time></trkpt><trkpt lat="43.125525" lon="11.48287"><ele>142.0</ele><time>2026-04-26T08:35:39.296Z</time></trkpt><trkpt lat="43.1254133" lon="11.48288"><ele>142.0</ele><time>2026-04-26T08:35:40.298Z</time></trkpt><trkpt lat="43.1252967" lon="11.4828933"><ele>141.75</ele><time>2026-04-26T08:35:41.296Z</time></trkpt><trkpt lat="43.1251767" lon="11.482905"><ele>141.5</ele><time>2026-04-26T08:35:42.296Z</time></trkpt><trkpt lat="43.1250567" lon="11.4829167"><ele>141.25</ele><time>2026-04-26T08:35:43.295Z</time></trkpt><trkpt lat="43.1249367" lon="11.4829267"><ele>141.0</ele><time>2026-04-26T08:35:44.297Z</time></trkpt><trkpt lat="43.124815" lon="11.4829383"><ele>141.5</ele><time>2026-04-26T08:35:45.299Z</time></trkpt><trkpt lat="43.124695" lon="11.4829483"><ele>142.0</ele><time>2026-04-26T08:35:46.295Z</time></trkpt><trkpt lat="43.124575" lon="11.4829617"><ele>142.5</ele><time>2026-04-26T08:35:47.298Z</time></trkpt><trkpt lat="43.124455" lon="11.482975"><ele>143.0</ele><time>2026-04-26T08:35:48.299Z</time></trkpt><trkpt lat="43.124335" lon="11.4829883"><ele>143.0</ele><time>2026-04-26T08:35:49.298Z</time></trkpt><trkpt lat="43.124215" lon="11.4829967"><ele>143.0</ele><time>2026-04-26T08:35:50.299Z</time></trkpt><trkpt lat="43.124095" lon="11.4830067"><ele>143.0</ele><time>2026-04-26T08:35:51.298Z</time></trkpt><trkpt lat="43.1239733" lon="11.483015"><ele>143.0</ele><time>2026-04-26T08:35:52.297Z</time></trkpt><trkpt lat="43.123855" lon="11.4830267"><ele>143.5</ele><time>2026-04-26T08:35:53.299Z</time></trkpt><trkpt lat="43.1237367" lon="11.4830367"><ele>144.0</ele><time>2026-04-26T08:35:54.299Z</time></trkpt><trkpt lat="43.1236167" lon="11.483045"><ele>144.5</ele><time>2026-04-26T08:35:55.298Z</time></trkpt><trkpt lat="43.1234983" lon="11.4830533"><ele>145.0</ele><time>2026-04-26T08:35:56.299Z</time></trkpt><trkpt lat="43.1233817" lon="11.4830633"><ele>145.0</ele><time>2026-04-26T08:35:57.298Z</time></trkpt><trkpt lat="43.1232667" lon="11.483075"><ele>145.0</ele><time>2026-04-26T08:35:58.298Z</time></trkpt><trkpt lat="43.1231533" lon="11.4830867"><ele>145.0</ele><time>2026-04-26T08:35:59.298Z</time></trkpt><trkpt lat="43.12304" lon="11.4830983"><ele>145.0</ele><time>2026-04-26T08:36:00.298Z</time></trkpt><trkpt lat="43.1229283" lon="11.4831083"><ele>144.8</ele><time>2026-04-26T08:36:01.299Z</time></trkpt><trkpt lat="43.1228167" lon="11.48312"><ele>144.6</ele><time>2026-04-26T08:36:02.299Z</time></trkpt><trkpt lat="43.1227067" lon="11.4831317"><ele>144.4</ele><time>2026-04-26T08:36:03.299Z</time></trkpt><trkpt lat="43.122595" lon="11.48314"><ele>144.2</ele><time>2026-04-26T08:36:04.298Z</time></trkpt><trkpt lat="43.1224883" lon="11.48315"><ele>144.0</ele><time>2026-04-26T08:36:05.295Z</time></trkpt><trkpt lat="43.1223817" lon="11.48316"><ele>144.0</ele><time>2026-04-26T08:36:06.295Z</time></trkpt><trkpt lat="43.1222717" lon="11.48317"><ele>144.0</ele><time>2026-04-26T08:36:07.295Z</time></trkpt><trkpt lat="43.12216" lon="11.4831783"><ele>144.0</ele><time>2026-04-26T08:36:08.296Z</time></trkpt><trkpt lat="43.1220483" lon="11.4831883"><ele>144.0</ele><time>2026-04-26T08:36:09.295Z</time></trkpt><trkpt lat="43.1219367" lon="11.4831983"><ele>144.0</ele><time>2026-04-26T08:36:10.297Z</time></trkpt><trkpt lat="43.1218267" lon="11.4832083"><ele>144.0</ele><time>2026-04-26T08:36:11.295Z</time></trkpt><trkpt lat="43.121715" lon="11.4832183"><ele>144.0</ele><time>2026-04-26T08:36:12.296Z</time></trkpt><trkpt lat="43.1216" lon="11.4832283"><ele>144.0</ele><time>2026-04-26T08:36:13.298Z</time></trkpt><trkpt lat="43.1214733" lon="11.4832367"><ele>144.0</ele><time>2026-04-26T08:36:14.298Z</time></trkpt><trkpt lat="43.1213333" lon="11.483245"><ele>143.75</ele><time>2026-04-26T08:36:15.298Z</time></trkpt><trkpt lat="43.1211917" lon="11.48325"><ele>143.5</ele><time>2026-04-26T08:36:16.298Z</time></trkpt><trkpt lat="43.1210517" lon="11.48326"><ele>143.25</ele><time>2026-04-26T08:36:17.299Z</time></trkpt><trkpt lat="43.1209183" lon="11.4832733"><ele>143.0</ele><time>2026-04-26T08:36:18.298Z</time></trkpt><trkpt lat="43.1207917" lon="11.4832833"><ele>142.75</ele><time>2026-04-26T08:36:19.299Z</time></trkpt><trkpt lat="43.1206667" lon="11.483295"><ele>142.5</ele><time>2026-04-26T08:36:20.298Z</time></trkpt><trkpt lat="43.12054" lon="11.4833083"><ele>142.25</ele><time>2026-04-26T08:36:21.295Z</time></trkpt><trkpt lat="43.1204133" lon="11.4833217"><ele>142.0</ele><time>2026-04-26T08:36:22.296Z</time></trkpt><trkpt lat="43.1202883" lon="11.4833367"><ele>142.0</ele><time>2026-04-26T08:36:23.299Z</time></trkpt><trkpt lat="43.120165" lon="11.4833517"><ele>142.0</ele><time>2026-04-26T08:36:24.296Z</time></trkpt><trkpt lat="43.120045" lon="11.4833683"><ele>142.0</ele><time>2026-04-26T08:36:25.299Z</time></trkpt><trkpt lat="43.1199283" lon="11.4833867"><ele>142.0</ele><time>2026-04-26T08:36:26.299Z</time></trkpt><trkpt lat="43.119815" lon="11.4834083"><ele>142.0</ele><time>2026-04-26T08:36:27.299Z</time></trkpt><trkpt lat="43.119705" lon="11.4834333"><ele>142.0</ele><time>2026-04-26T08:36:28.298Z</time></trkpt><trkpt lat="43.1195983" lon="11.483455"><ele>142.0</ele><time>2026-04-26T08:36:29.299Z</time></trkpt><trkpt lat="43.1194967" lon="11.483475"><ele>142.0</ele><time>2026-04-26T08:36:30.298Z</time></trkpt><trkpt lat="43.1194033" lon="11.4834917"><ele>142.0</ele><time>2026-04-26T08:36:31.298Z</time></trkpt><trkpt lat="43.1193167" lon="11.4834967"><ele>142.0</ele><time>2026-04-26T08:36:32.3Z</time></trkpt><trkpt lat="43.1192333" lon="11.4834817"><ele>142.0</ele><time>2026-04-26T08:36:33.294Z</time></trkpt><trkpt lat="43.1191483" lon="11.4834433"><ele>142.0</ele><time>2026-04-26T08:36:34.295Z</time></trkpt><trkpt lat="43.119075" lon="11.483375"><ele>142.0</ele><time>2026-04-26T08:36:35.298Z</time></trkpt><trkpt lat="43.1190133" lon="11.483285"><ele>142.0</ele><time>2026-04-26T08:36:36.296Z</time></trkpt><trkpt lat="43.11897" lon="11.48317"><ele>142.0</ele><time>2026-04-26T08:36:37.296Z</time></trkpt><trkpt lat="43.1189417" lon="11.483045"><ele>141.79999999999998</ele><time>2026-04-26T08:36:38.3Z</time></trkpt><trkpt lat="43.118925" lon="11.4829133"><ele>141.6</ele><time>2026-04-26T08:36:39.298Z</time></trkpt><trkpt lat="43.11891" lon="11.482785"><ele>141.39999999999998</ele><time>2026-04-26T08:36:40.298Z</time></trkpt><trkpt lat="43.1188917" lon="11.4826533"><ele>141.2</ele><time>2026-04-26T08:36:41.299Z</time></trkpt><trkpt lat="43.1188633" lon="11.4825217"><ele>141.0</ele><time>2026-04-26T08:36:42.294Z</time></trkpt><trkpt lat="43.1188217" lon="11.4823833"><ele>141.0</ele><time>2026-04-26T08:36:43.299Z</time></trkpt><trkpt lat="43.1187617" lon="11.4822483"><ele>141.0</ele><time>2026-04-26T08:36:44.296Z</time></trkpt><trkpt lat="43.1186767" lon="11.4821183"><ele>141.0</ele><time>2026-04-26T08:36:45.299Z</time></trkpt><trkpt lat="43.118565" lon="11.482"><ele>141.0</ele><time>2026-04-26T08:36:46.299Z</time></trkpt><trkpt lat="43.1184317" lon="11.4818967"><ele>141.33333333333334</ele><time>2026-04-26T08:36:47.298Z</time></trkpt><trkpt lat="43.1182783" lon="11.4818017"><ele>141.66666666666669</ele><time>2026-04-26T08:36:48.294Z</time></trkpt><trkpt lat="43.1181117" lon="11.48172"><ele>142.0</ele><time>2026-04-26T08:36:49.299Z</time></trkpt><trkpt lat="43.11794" lon="11.481645"><ele>143.33333333333334</ele><time>2026-04-26T08:36:50.299Z</time></trkpt><trkpt lat="43.117775" lon="11.4815783"><ele>144.66666666666666</ele><time>2026-04-26T08:36:51.298Z</time></trkpt><trkpt lat="43.1176183" lon="11.48151"><ele>146.0</ele><time>2026-04-26T08:36:52.298Z</time></trkpt><trkpt lat="43.1174683" lon="11.4814433"><ele>148.75</ele><time>2026-04-26T08:36:53.298Z</time></trkpt><trkpt lat="43.1173233" lon="11.4813783"><ele>151.5</ele><time>2026-04-26T08:36:54.296Z</time></trkpt><trkpt lat="43.117185" lon="11.4813167"><ele>154.25</ele><time>2026-04-26T08:36:55.296Z</time></trkpt><trkpt lat="43.1170483" lon="11.481255"><ele>157.0</ele><time>2026-04-26T08:36:56.297Z</time></trkpt><trkpt lat="43.1169133" lon="11.4811983"><ele>157.75</ele><time>2026-04-26T08:36:57.299Z</time></trkpt><trkpt lat="43.1167783" lon="11.4811417"><ele>158.5</ele><time>2026-04-26T08:36:58.298Z</time></trkpt><trkpt lat="43.1166467" lon="11.4810833"><ele>159.25</ele><time>2026-04-26T08:36:59.299Z</time></trkpt><trkpt lat="43.1165133" lon="11.4810267"><ele>160.0</ele><time>2026-04-26T08:37:00.298Z</time></trkpt><trkpt lat="43.1163767" lon="11.4809667"><ele>160.5</ele><time>2026-04-26T08:37:01.299Z</time></trkpt><trkpt lat="43.1162417" lon="11.4809017"><ele>161.0</ele><time>2026-04-26T08:37:02.298Z</time></trkpt><trkpt lat="43.1161033" lon="11.4808417"><ele>161.5</ele><time>2026-04-26T08:37:03.298Z</time></trkpt><trkpt lat="43.1159617" lon="11.4807767"><ele>162.0</ele><time>2026-04-26T08:37:04.296Z</time></trkpt><trkpt lat="43.1158167" lon="11.4807083"><ele>163.0</ele><time>2026-04-26T08:37:05.298Z</time></trkpt><trkpt lat="43.1156683" lon="11.4806433"><ele>164.0</ele><time>2026-04-26T08:37:06.298Z</time></trkpt><trkpt lat="43.1155117" lon="11.4805817"><ele>165.0</ele><time>2026-04-26T08:37:07.296Z</time></trkpt><trkpt lat="43.11535" lon="11.4805267"><ele>165.0</ele><time>2026-04-26T08:37:08.3Z</time></trkpt><trkpt lat="43.11519" lon="11.48048"><ele>165.0</ele><time>2026-04-26T08:37:09.296Z</time></trkpt><trkpt lat="43.1150283" lon="11.480435"><ele>165.0</ele><time>2026-04-26T08:37:10.297Z</time></trkpt><trkpt lat="43.1148617" lon="11.4804"><ele>165.0</ele><time>2026-04-26T08:37:11.297Z</time></trkpt><trkpt lat="43.1146933" lon="11.4803683"><ele>165.0</ele><time>2026-04-26T08:37:12.3Z</time></trkpt><trkpt lat="43.114525" lon="11.4803467"><ele>165.0</ele><time>2026-04-26T08:37:13.298Z</time></trkpt><trkpt lat="43.1143633" lon="11.4803217"><ele>165.0</ele><time>2026-04-26T08:37:14.299Z</time></trkpt><trkpt lat="43.1142017" lon="11.4802933"><ele>165.0</ele><time>2026-04-26T08:37:15.299Z</time></trkpt><trkpt lat="43.1140383" lon="11.4802733"><ele>165.0</ele><time>2026-04-26T08:37:16.299Z</time></trkpt><trkpt lat="43.1138767" lon="11.48025"><ele>163.33333333333334</ele><time>2026-04-26T08:37:17.296Z</time></trkpt><trkpt lat="43.113715" lon="11.480225"><ele>161.66666666666669</ele><time>2026-04-26T08:37:18.295Z</time></trkpt><trkpt lat="43.1135567" lon="11.4801983"><ele>160.0</ele><time>2026-04-26T08:37:19.297Z</time></trkpt><trkpt lat="43.1134" lon="11.48017"><ele>160.0</ele><time>2026-04-26T08:37:20.297Z</time></trkpt><trkpt lat="43.1132433" lon="11.4801317"><ele>160.0</ele><time>2026-04-26T08:37:21.295Z</time></trkpt><trkpt lat="43.113085" lon="11.480095"><ele>160.0</ele><time>2026-04-26T08:37:22.297Z</time></trkpt><trkpt lat="43.1129317" lon="11.4800533"><ele>158.33333333333334</ele><time>2026-04-26T08:37:23.298Z</time></trkpt><trkpt lat="43.1127783" lon="11.480005"><ele>156.66666666666666</ele><time>2026-04-26T08:37:24.3Z</time></trkpt><trkpt lat="43.1126317" lon="11.47995"><ele>155.0</ele><time>2026-04-26T08:37:25.299Z</time></trkpt><trkpt lat="43.112485" lon="11.4798933"><ele>154.75</ele><time>2026-04-26T08:37:26.299Z</time></trkpt><trkpt lat="43.1123433" lon="11.4798367"><ele>154.5</ele><time>2026-04-26T08:37:27.298Z</time></trkpt><trkpt lat="43.1122033" lon="11.47978"><ele>154.25</ele><time>2026-04-26T08:37:28.298Z</time></trkpt><trkpt lat="43.1120633" lon="11.479725"><ele>154.0</ele><time>2026-04-26T08:37:29.298Z</time></trkpt><trkpt lat="43.1119267" lon="11.47967"><ele>154.0</ele><time>2026-04-26T08:37:30.298Z</time></trkpt><trkpt lat="43.1117883" lon="11.4796183"><ele>154.0</ele><time>2026-04-26T08:37:31.299Z</time></trkpt><trkpt lat="43.1116483" lon="11.4795633"><ele>154.0</ele><time>2026-04-26T08:37:32.299Z</time></trkpt><trkpt lat="43.1115067" lon="11.4795117"><ele>154.0</ele><time>2026-04-26T08:37:33.298Z</time></trkpt><trkpt lat="43.1113633" lon="11.4794683"><ele>153.5</ele><time>2026-04-26T08:37:34.298Z</time></trkpt><trkpt lat="43.1112217" lon="11.479435"><ele>153.0</ele><time>2026-04-26T08:37:35.297Z</time></trkpt><trkpt lat="43.11108" lon="11.4794167"><ele>152.5</ele><time>2026-04-26T08:37:36.296Z</time></trkpt><trkpt lat="43.1109317" lon="11.4794017"><ele>152.0</ele><time>2026-04-26T08:37:37.299Z</time></trkpt><trkpt lat="43.1107817" lon="11.4793917"><ele>151.0</ele><time>2026-04-26T08:37:38.299Z</time></trkpt><trkpt lat="43.1106317" lon="11.4793733"><ele>150.0</ele><time>2026-04-26T08:37:39.296Z</time></trkpt><trkpt lat="43.1104767" lon="11.4793633"><ele>149.0</ele><time>2026-04-26T08:37:40.297Z</time></trkpt><trkpt lat="43.11032" lon="11.4793533"><ele>149.0</ele><time>2026-04-26T08:37:41.297Z</time></trkpt><trkpt lat="43.110165" lon="11.4793417"><ele>149.0</ele><time>2026-04-26T08:37:42.297Z</time></trkpt><trkpt lat="43.1100083" lon="11.47933"><ele>149.0</ele><time>2026-04-26T08:37:43.297Z</time></trkpt><trkpt lat="43.1098533" lon="11.4793183"><ele>148.0</ele><time>2026-04-26T08:37:44.297Z</time></trkpt><trkpt lat="43.1096983" lon="11.4793083"><ele>147.0</ele><time>2026-04-26T08:37:45.299Z</time></trkpt><trkpt lat="43.1095433" lon="11.4793"><ele>146.0</ele><time>2026-04-26T08:37:46.298Z</time></trkpt><trkpt lat="43.1093917" lon="11.47929"><ele>146.0</ele><time>2026-04-26T08:37:47.298Z</time></trkpt><trkpt lat="43.1092383" lon="11.47928"><ele>146.0</ele><time>2026-04-26T08:37:48.298Z</time></trkpt><trkpt lat="43.1090867" lon="11.47927"><ele>146.0</ele><time>2026-04-26T08:37:49.299Z</time></trkpt><trkpt lat="43.108935" lon="11.4792533"><ele>144.75</ele><time>2026-04-26T08:37:50.3Z</time></trkpt><trkpt lat="43.1087883" lon="11.4792467"><ele>143.5</ele><time>2026-04-26T08:37:51.298Z</time></trkpt><trkpt lat="43.10864" lon="11.4792367"><ele>142.25</ele><time>2026-04-26T08:37:52.298Z</time></trkpt><trkpt lat="43.1084917" lon="11.4792233"><ele>141.0</ele><time>2026-04-26T08:37:53.298Z</time></trkpt><trkpt lat="43.1083433" lon="11.4792167"><ele>140.0</ele><time>2026-04-26T08:37:54.296Z</time></trkpt><trkpt lat="43.1081933" lon="11.4792133"><ele>139.0</ele><time>2026-04-26T08:37:55.296Z</time></trkpt><trkpt lat="43.1080417" lon="11.4792117"><ele>138.0</ele><time>2026-04-26T08:37:56.296Z</time></trkpt><trkpt lat="43.1078867" lon="11.4792133"><ele>138.0</ele><time>2026-04-26T08:37:57.296Z</time></trkpt><trkpt lat="43.1077317" lon="11.4792183"><ele>138.0</ele><time>2026-04-26T08:37:58.297Z</time></trkpt><trkpt lat="43.1075783" lon="11.479225"><ele>138.0</ele><time>2026-04-26T08:37:59.296Z</time></trkpt><trkpt lat="43.10742" lon="11.4792317"><ele>137.66666666666666</ele><time>2026-04-26T08:38:00.296Z</time></trkpt><trkpt lat="43.1072617" lon="11.4792367"><ele>137.33333333333331</ele><time>2026-04-26T08:38:01.297Z</time></trkpt><trkpt lat="43.1071083" lon="11.4792417"><ele>137.0</ele><time>2026-04-26T08:38:02.299Z</time></trkpt><trkpt lat="43.106955" lon="11.4792467"><ele>137.0</ele><time>2026-04-26T08:38:03.295Z</time></trkpt><trkpt lat="43.1068017" lon="11.4792533"><ele>137.0</ele><time>2026-04-26T08:38:04.296Z</time></trkpt><trkpt lat="43.1066483" lon="11.4792617"><ele>137.0</ele><time>2026-04-26T08:38:05.298Z</time></trkpt><trkpt lat="43.1064967" lon="11.4792733"><ele>138.33333333333331</ele><time>2026-04-26T08:38:06.296Z</time></trkpt><trkpt lat="43.106345" lon="11.47929"><ele>139.66666666666666</ele><time>2026-04-26T08:38:07.296Z</time></trkpt><trkpt lat="43.1061917" lon="11.4793017"><ele>141.0</ele><time>2026-04-26T08:38:08.298Z</time></trkpt><trkpt lat="43.10604" lon="11.4793067"><ele>141.0</ele><time>2026-04-26T08:38:09.295Z</time></trkpt><trkpt lat="43.1058867" lon="11.4793067"><ele>141.0</ele><time>2026-04-26T08:38:10.297Z</time></trkpt><trkpt lat="43.105735" lon="11.479305"><ele>141.0</ele><time>2026-04-26T08:38:11.298Z</time></trkpt><trkpt lat="43.1055817" lon="11.479305"><ele>142.5</ele><time>2026-04-26T08:38:12.296Z</time></trkpt><trkpt lat="43.1054317" lon="11.47931"><ele>144.0</ele><time>2026-04-26T08:38:13.297Z</time></trkpt><trkpt lat="43.1052883" lon="11.47932"><ele>145.5</ele><time>2026-04-26T08:38:14.297Z</time></trkpt><trkpt lat="43.1051483" lon="11.4793317"><ele>147.0</ele><time>2026-04-26T08:38:15.298Z</time></trkpt><trkpt lat="43.1050183" lon="11.4793383"><ele>148.2</ele><time>2026-04-26T08:38:16.298Z</time></trkpt><trkpt lat="43.1049033" lon="11.4793433"><ele>149.39999999999998</ele><time>2026-04-26T08:38:17.299Z</time></trkpt><trkpt lat="43.1047983" lon="11.4793517"><ele>150.60000000000002</ele><time>2026-04-26T08:38:18.298Z</time></trkpt><trkpt lat="43.1047017" lon="11.4793617"><ele>151.8</ele><time>2026-04-26T08:38:19.299Z</time></trkpt><trkpt lat="43.104615" lon="11.4793683"><ele>153.0</ele><time>2026-04-26T08:38:20.298Z</time></trkpt><trkpt lat="43.10454" lon="11.4793583"><ele>153.0</ele><time>2026-04-26T08:38:21.299Z</time></trkpt><trkpt lat="43.104445" lon="11.4792717"><ele>153.0</ele><time>2026-04-26T08:38:23.298Z</time></trkpt><trkpt lat="43.1044333" lon="11.4791483"><ele>153.0</ele><time>2026-04-26T08:38:24.297Z</time></trkpt><trkpt lat="43.1044133" lon="11.47905"><ele>153.0</ele><time>2026-04-26T08:38:25.298Z</time></trkpt><trkpt lat="43.1043967" lon="11.4789433"><ele>153.0</ele><time>2026-04-26T08:38:26.299Z</time></trkpt><trkpt lat="43.1043767" lon="11.4788317"><ele>153.0</ele><time>2026-04-26T08:38:27.295Z</time></trkpt><trkpt lat="43.1043617" lon="11.4787117"><ele>153.0</ele><time>2026-04-26T08:38:28.297Z</time></trkpt><trkpt lat="43.1043433" lon="11.4785767"><ele>153.0</ele><time>2026-04-26T08:38:29.296Z</time></trkpt><trkpt lat="43.1043233" lon="11.4784383"><ele>153.0</ele><time>2026-04-26T08:38:30.3Z</time></trkpt><trkpt lat="43.1043083" lon="11.4782983"><ele>153.0</ele><time>2026-04-26T08:38:31.298Z</time></trkpt><trkpt lat="43.104295" lon="11.4781633"><ele>153.0</ele><time>2026-04-26T08:38:32.297Z</time></trkpt><trkpt lat="43.1042767" lon="11.47803"><ele>153.0</ele><time>2026-04-26T08:38:33.296Z</time></trkpt><trkpt lat="43.1042583" lon="11.4779"><ele>153.0</ele><time>2026-04-26T08:38:34.299Z</time></trkpt><trkpt lat="43.1042433" lon="11.4777667"><ele>153.0</ele><time>2026-04-26T08:38:35.299Z</time></trkpt><trkpt lat="43.1042267" lon="11.4776333"><ele>153.0</ele><time>2026-04-26T08:38:36.296Z</time></trkpt><trkpt lat="43.1042117" lon="11.4775033"><ele>153.0</ele><time>2026-04-26T08:38:37.297Z</time></trkpt><trkpt lat="43.104195" lon="11.4773717"><ele>153.0</ele><time>2026-04-26T08:38:38.299Z</time></trkpt><trkpt lat="43.10418" lon="11.4772383"><ele>153.0</ele><time>2026-04-26T08:38:39.295Z</time></trkpt><trkpt lat="43.1041633" lon="11.4771067"><ele>153.0</ele><time>2026-04-26T08:38:40.298Z</time></trkpt><trkpt lat="43.1041517" lon="11.476975"><ele>153.0</ele><time>2026-04-26T08:38:41.296Z</time></trkpt><trkpt lat="43.1041417" lon="11.4768433"><ele>153.0</ele><time>2026-04-26T08:38:42.296Z</time></trkpt><trkpt lat="43.1041383" lon="11.4767233"><ele>153.16666666666666</ele><time>2026-04-26T08:38:43.296Z</time></trkpt><trkpt lat="43.104135" lon="11.4766033"><ele>153.33333333333334</ele><time>2026-04-26T08:38:44.298Z</time></trkpt><trkpt lat="43.1041267" lon="11.476485"><ele>153.5</ele><time>2026-04-26T08:38:45.298Z</time></trkpt><trkpt lat="43.1041067" lon="11.4763733"><ele>153.66666666666669</ele><time>2026-04-26T08:38:46.298Z</time></trkpt><trkpt lat="43.10408" lon="11.4762617"><ele>153.83333333333334</ele><time>2026-04-26T08:38:47.299Z</time></trkpt><trkpt lat="43.1040467" lon="11.476145"><ele>154.0</ele><time>2026-04-26T08:38:48.296Z</time></trkpt><trkpt lat="43.104005" lon="11.476035"><ele>152.0</ele><time>2026-04-26T08:38:49.299Z</time></trkpt><trkpt lat="43.103955" lon="11.4759283"><ele>150.0</ele><time>2026-04-26T08:38:50.3Z</time></trkpt><trkpt lat="43.1039017" lon="11.4758133"><ele>148.0</ele><time>2026-04-26T08:38:51.298Z</time></trkpt><trkpt lat="43.1038567" lon="11.4756883"><ele>146.0</ele><time>2026-04-26T08:38:52.298Z</time></trkpt><trkpt lat="43.1038067" lon="11.47556"><ele>144.0</ele><time>2026-04-26T08:38:53.298Z</time></trkpt><trkpt lat="43.1037583" lon="11.4754267"><ele>143.0</ele><time>2026-04-26T08:38:54.298Z</time></trkpt><trkpt lat="43.10371" lon="11.4752967"><ele>142.0</ele><time>2026-04-26T08:38:55.296Z</time></trkpt><trkpt lat="43.10366" lon="11.4751617"><ele>141.0</ele><time>2026-04-26T08:38:56.296Z</time></trkpt><trkpt lat="43.1036117" lon="11.47503"><ele>140.0</ele><time>2026-04-26T08:38:57.297Z</time></trkpt><trkpt lat="43.103565" lon="11.4749033"><ele>139.0</ele><time>2026-04-26T08:38:58.296Z</time></trkpt><trkpt lat="43.1035217" lon="11.47478"><ele>139.0</ele><time>2026-04-26T08:38:59.297Z</time></trkpt><trkpt lat="43.1034817" lon="11.4746567"><ele>139.0</ele><time>2026-04-26T08:39:00.297Z</time></trkpt><trkpt lat="43.1034433" lon="11.47453"><ele>139.0</ele><time>2026-04-26T08:39:01.297Z</time></trkpt><trkpt lat="43.1034017" lon="11.4744117"><ele>139.0</ele><time>2026-04-26T08:39:02.296Z</time></trkpt><trkpt lat="43.103355" lon="11.4743"><ele>139.0</ele><time>2026-04-26T08:39:03.296Z</time></trkpt><trkpt lat="43.1033017" lon="11.4741967"><ele>140.2</ele><time>2026-04-26T08:39:04.296Z</time></trkpt><trkpt lat="43.1032383" lon="11.4741"><ele>141.4</ele><time>2026-04-26T08:39:05.296Z</time></trkpt><trkpt lat="43.1031667" lon="11.4740117"><ele>142.6</ele><time>2026-04-26T08:39:06.297Z</time></trkpt><trkpt lat="43.10309" lon="11.4739283"><ele>143.8</ele><time>2026-04-26T08:39:07.297Z</time></trkpt><trkpt lat="43.1030133" lon="11.4738517"><ele>145.0</ele><time>2026-04-26T08:39:08.296Z</time></trkpt><trkpt lat="43.1029383" lon="11.4737767"><ele>146.8</ele><time>2026-04-26T08:39:09.299Z</time></trkpt><trkpt lat="43.1028733" lon="11.473685"><ele>148.6</ele><time>2026-04-26T08:39:10.297Z</time></trkpt><trkpt lat="43.102815" lon="11.4735817"><ele>150.4</ele><time>2026-04-26T08:39:11.297Z</time></trkpt><trkpt lat="43.102765" lon="11.4734667"><ele>152.2</ele><time>2026-04-26T08:39:12.295Z</time></trkpt><trkpt lat="43.102715" lon="11.4733483"><ele>154.0</ele><time>2026-04-26T08:39:13.298Z</time></trkpt><trkpt lat="43.10267" lon="11.473225"><ele>154.0</ele><time>2026-04-26T08:39:14.299Z</time></trkpt><trkpt lat="43.1026283" lon="11.4731033"><ele>154.0</ele><time>2026-04-26T08:39:15.299Z</time></trkpt><trkpt lat="43.1025917" lon="11.47297"><ele>154.0</ele><time>2026-04-26T08:39:16.299Z</time></trkpt><trkpt lat="43.102555" lon="11.472845"><ele>154.0</ele><time>2026-04-26T08:39:17.298Z</time></trkpt><trkpt lat="43.10252" lon="11.4727167"><ele>154.0</ele><time>2026-04-26T08:39:18.297Z</time></trkpt><trkpt lat="43.1024783" lon="11.4725917"><ele>154.6</ele><time>2026-04-26T08:39:19.297Z</time></trkpt><trkpt lat="43.1024367" lon="11.4724717"><ele>155.2</ele><time>2026-04-26T08:39:20.298Z</time></trkpt><trkpt lat="43.1023933" lon="11.4723567"><ele>155.79999999999998</ele><time>2026-04-26T08:39:21.296Z</time></trkpt><trkpt lat="43.1023417" lon="11.4722417"><ele>156.4</ele><time>2026-04-26T08:39:22.296Z</time></trkpt><trkpt lat="43.10229" lon="11.4721317"><ele>157.0</ele><time>2026-04-26T08:39:23.297Z</time></trkpt><trkpt lat="43.102235" lon="11.472025"><ele>158.66666666666669</ele><time>2026-04-26T08:39:24.295Z</time></trkpt><trkpt lat="43.1021833" lon="11.4719233"><ele>160.33333333333334</ele><time>2026-04-26T08:39:25.298Z</time></trkpt><trkpt lat="43.1021317" lon="11.4718233"><ele>162.0</ele><time>2026-04-26T08:39:26.297Z</time></trkpt><trkpt lat="43.1020833" lon="11.471725"><ele>163.66666666666666</ele><time>2026-04-26T08:39:27.296Z</time></trkpt><trkpt lat="43.1020333" lon="11.47163"><ele>165.33333333333331</ele><time>2026-04-26T08:39:28.297Z</time></trkpt><trkpt lat="43.1019833" lon="11.47153"><ele>167.0</ele><time>2026-04-26T08:39:29.298Z</time></trkpt><trkpt lat="43.1019283" lon="11.471435"><ele>167.0</ele><time>2026-04-26T08:39:30.295Z</time></trkpt><trkpt lat="43.1018667" lon="11.4713483"><ele>167.0</ele><time>2026-04-26T08:39:31.299Z</time></trkpt><trkpt lat="43.1017933" lon="11.471265"><ele>167.0</ele><time>2026-04-26T08:39:32.296Z</time></trkpt><trkpt lat="43.10172" lon="11.4711833"><ele>167.0</ele><time>2026-04-26T08:39:33.298Z</time></trkpt><trkpt lat="43.1016467" lon="11.4710967"><ele>167.0</ele><time>2026-04-26T08:39:34.299Z</time></trkpt><trkpt lat="43.1015767" lon="11.4710033"><ele>164.2</ele><time>2026-04-26T08:39:35.297Z</time></trkpt><trkpt lat="43.1015117" lon="11.4708967"><ele>161.39999999999998</ele><time>2026-04-26T08:39:36.296Z</time></trkpt><trkpt lat="43.101455" lon="11.4707867"><ele>158.60000000000002</ele><time>2026-04-26T08:39:37.297Z</time></trkpt><trkpt lat="43.1013983" lon="11.4706733"><ele>155.8</ele><time>2026-04-26T08:39:38.298Z</time></trkpt><trkpt lat="43.1013433" lon="11.47056"><ele>153.0</ele><time>2026-04-26T08:39:39.297Z</time></trkpt><trkpt lat="43.101295" lon="11.4704517"><ele>151.83333333333334</ele><time>2026-04-26T08:39:40.297Z</time></trkpt><trkpt lat="43.1012483" lon="11.4703433"><ele>150.66666666666666</ele><time>2026-04-26T08:39:41.296Z</time></trkpt><trkpt lat="43.1012033" lon="11.470235"><ele>149.5</ele><time>2026-04-26T08:39:42.295Z</time></trkpt><trkpt lat="43.101165" lon="11.4701233"><ele>148.33333333333331</ele><time>2026-04-26T08:39:43.297Z</time></trkpt><trkpt lat="43.1011333" lon="11.470015"><ele>147.16666666666666</ele><time>2026-04-26T08:39:44.299Z</time></trkpt><trkpt lat="43.1011067" lon="11.4699167"><ele>146.0</ele><time>2026-04-26T08:39:45.299Z</time></trkpt><trkpt lat="43.101085" lon="11.46982"><ele>146.0</ele><time>2026-04-26T08:39:46.299Z</time></trkpt><trkpt lat="43.10107" lon="11.4697317"><ele>146.0</ele><time>2026-04-26T08:39:47.299Z</time></trkpt><trkpt lat="43.101065" lon="11.4696383"><ele>146.0</ele><time>2026-04-26T08:39:48.296Z</time></trkpt><trkpt lat="43.1010633" lon="11.4695367"><ele>146.0</ele><time>2026-04-26T08:39:49.296Z</time></trkpt><trkpt lat="43.1010767" lon="11.46942"><ele>146.0</ele><time>2026-04-26T08:39:50.297Z</time></trkpt><trkpt lat="43.1011017" lon="11.4692933"><ele>146.0</ele><time>2026-04-26T08:39:51.295Z</time></trkpt><trkpt lat="43.10114" lon="11.4691583"><ele>145.25</ele><time>2026-04-26T08:39:52.297Z</time></trkpt><trkpt lat="43.10119" lon="11.46902"><ele>144.5</ele><time>2026-04-26T08:39:53.296Z</time></trkpt><trkpt lat="43.1012433" lon="11.46888"><ele>143.75</ele><time>2026-04-26T08:39:54.295Z</time></trkpt><trkpt lat="43.1013" lon="11.4687367"><ele>143.0</ele><time>2026-04-26T08:39:55.298Z</time></trkpt><trkpt lat="43.1013633" lon="11.4685967"><ele>142.75</ele><time>2026-04-26T08:39:56.296Z</time></trkpt><trkpt lat="43.10143" lon="11.46846"><ele>142.5</ele><time>2026-04-26T08:39:57.295Z</time></trkpt><trkpt lat="43.1014983" lon="11.4683267"><ele>142.25</ele><time>2026-04-26T08:39:58.296Z</time></trkpt><trkpt lat="43.1015717" lon="11.4681967"><ele>142.0</ele><time>2026-04-26T08:39:59.297Z</time></trkpt><trkpt lat="43.101645" lon="11.468075"><ele>141.79999999999998</ele><time>2026-04-26T08:40:00.296Z</time></trkpt><trkpt lat="43.1017167" lon="11.4679567"><ele>141.6</ele><time>2026-04-26T08:40:01.297Z</time></trkpt><trkpt lat="43.101785" lon="11.46784"><ele>141.39999999999998</ele><time>2026-04-26T08:40:02.299Z</time></trkpt><trkpt lat="43.1018533" lon="11.467725"><ele>141.2</ele><time>2026-04-26T08:40:03.295Z</time></trkpt><trkpt lat="43.10192" lon="11.467605"><ele>141.0</ele><time>2026-04-26T08:40:04.296Z</time></trkpt><trkpt lat="43.101985" lon="11.46748"><ele>141.0</ele><time>2026-04-26T08:40:05.296Z</time></trkpt><trkpt lat="43.102045" lon="11.4673467"><ele>141.0</ele><time>2026-04-26T08:40:06.296Z</time></trkpt><trkpt lat="43.102105" lon="11.467215"><ele>141.0</ele><time>2026-04-26T08:40:07.297Z</time></trkpt><trkpt lat="43.1021667" lon="11.4670867"><ele>141.0</ele><time>2026-04-26T08:40:08.299Z</time></trkpt><trkpt lat="43.10223" lon="11.46696"><ele>141.2</ele><time>2026-04-26T08:40:09.296Z</time></trkpt><trkpt lat="43.1022883" lon="11.46683"><ele>141.39999999999998</ele><time>2026-04-26T08:40:10.298Z</time></trkpt><trkpt lat="43.1023483" lon="11.4667033"><ele>141.6</ele><time>2026-04-26T08:40:11.296Z</time></trkpt><trkpt lat="43.1024083" lon="11.4665783"><ele>141.79999999999998</ele><time>2026-04-26T08:40:12.297Z</time></trkpt><trkpt lat="43.1024667" lon="11.46645"><ele>142.0</ele><time>2026-04-26T08:40:13.296Z</time></trkpt><trkpt lat="43.102525" lon="11.4663217"><ele>142.2</ele><time>2026-04-26T08:40:14.297Z</time></trkpt><trkpt lat="43.102585" lon="11.4661917"><ele>142.39999999999998</ele><time>2026-04-26T08:40:15.298Z</time></trkpt><trkpt lat="43.1026433" lon="11.4660617"><ele>142.60000000000002</ele><time>2026-04-26T08:40:16.298Z</time></trkpt><trkpt lat="43.1027067" lon="11.4659333"><ele>142.8</ele><time>2026-04-26T08:40:17.299Z</time></trkpt><trkpt lat="43.10277" lon="11.4658067"><ele>143.0</ele><time>2026-04-26T08:40:18.295Z</time></trkpt><trkpt lat="43.1028333" lon="11.4656833"><ele>143.0</ele><time>2026-04-26T08:40:19.297Z</time></trkpt><trkpt lat="43.102895" lon="11.4655617"><ele>143.0</ele><time>2026-04-26T08:40:20.298Z</time></trkpt><trkpt lat="43.1029517" lon="11.46544"><ele>143.0</ele><time>2026-04-26T08:40:21.295Z</time></trkpt><trkpt lat="43.1030017" lon="11.4653183"><ele>143.0</ele><time>2026-04-26T08:40:22.295Z</time></trkpt><trkpt lat="43.10305" lon="11.4652"><ele>143.0</ele><time>2026-04-26T08:40:23.297Z</time></trkpt><trkpt lat="43.1030983" lon="11.4650767"><ele>143.20000000000002</ele><time>2026-04-26T08:40:24.297Z</time></trkpt><trkpt lat="43.10315" lon="11.46495"><ele>143.4</ele><time>2026-04-26T08:40:25.299Z</time></trkpt><trkpt lat="43.1032033" lon="11.4648267"><ele>143.60000000000002</ele><time>2026-04-26T08:40:26.299Z</time></trkpt><trkpt lat="43.1032567" lon="11.4647017"><ele>143.8</ele><time>2026-04-26T08:40:27.295Z</time></trkpt><trkpt lat="43.1033083" lon="11.4645717"><ele>144.0</ele><time>2026-04-26T08:40:28.296Z</time></trkpt><trkpt lat="43.1033617" lon="11.464435"><ele>144.0</ele><time>2026-04-26T08:40:29.298Z</time></trkpt><trkpt lat="43.103405" lon="11.4642883"><ele>144.0</ele><time>2026-04-26T08:40:30.298Z</time></trkpt><trkpt lat="43.1034417" lon="11.4641483"><ele>144.0</ele><time>2026-04-26T08:40:31.298Z</time></trkpt><trkpt lat="43.1034733" lon="11.4640133"><ele>144.0</ele><time>2026-04-26T08:40:32.299Z</time></trkpt><trkpt lat="43.103505" lon="11.463875"><ele>144.0</ele><time>2026-04-26T08:40:33.298Z</time></trkpt><trkpt lat="43.1035383" lon="11.4637417"><ele>144.4</ele><time>2026-04-26T08:40:34.298Z</time></trkpt><trkpt lat="43.1035617" lon="11.463605"><ele>144.8</ele><time>2026-04-26T08:40:35.299Z</time></trkpt><trkpt lat="43.1035817" lon="11.4634617"><ele>145.2</ele><time>2026-04-26T08:40:36.299Z</time></trkpt><trkpt lat="43.1035967" lon="11.463315"><ele>145.6</ele><time>2026-04-26T08:40:37.298Z</time></trkpt><trkpt lat="43.1036167" lon="11.4631717"><ele>146.0</ele><time>2026-04-26T08:40:38.298Z</time></trkpt><trkpt lat="43.1036383" lon="11.4630233"><ele>146.0</ele><time>2026-04-26T08:40:39.298Z</time></trkpt><trkpt lat="43.1036567" lon="11.4628783"><ele>146.0</ele><time>2026-04-26T08:40:40.299Z</time></trkpt><trkpt lat="43.1036783" lon="11.4627317"><ele>146.0</ele><time>2026-04-26T08:40:41.299Z</time></trkpt><trkpt lat="43.1037033" lon="11.46259"><ele>146.0</ele><time>2026-04-26T08:40:42.299Z</time></trkpt><trkpt lat="43.1037283" lon="11.46245"><ele>146.0</ele><time>2026-04-26T08:40:43.298Z</time></trkpt><trkpt lat="43.1037583" lon="11.4623033"><ele>146.0</ele><time>2026-04-26T08:40:44.297Z</time></trkpt><trkpt lat="43.1037833" lon="11.4621583"><ele>146.0</ele><time>2026-04-26T08:40:45.296Z</time></trkpt><trkpt lat="43.1038067" lon="11.4620167"><ele>146.0</ele><time>2026-04-26T08:40:46.3Z</time></trkpt><trkpt lat="43.10383" lon="11.4618817"><ele>146.0</ele><time>2026-04-26T08:40:47.297Z</time></trkpt><trkpt lat="43.1038533" lon="11.46175"><ele>146.0</ele><time>2026-04-26T08:40:48.298Z</time></trkpt><trkpt lat="43.1038783" lon="11.46163"><ele>145.83333333333331</ele><time>2026-04-26T08:40:49.297Z</time></trkpt><trkpt lat="43.1038917" lon="11.4615183"><ele>145.66666666666666</ele><time>2026-04-26T08:40:50.296Z</time></trkpt><trkpt lat="43.1038933" lon="11.461405"><ele>145.5</ele><time>2026-04-26T08:40:51.295Z</time></trkpt><trkpt lat="43.1038883" lon="11.4612883"><ele>145.33333333333334</ele><time>2026-04-26T08:40:52.299Z</time></trkpt><trkpt lat="43.10387" lon="11.4611667"><ele>145.16666666666669</ele><time>2026-04-26T08:40:53.296Z</time></trkpt><trkpt lat="43.103835" lon="11.46106"><ele>145.0</ele><time>2026-04-26T08:40:54.296Z</time></trkpt><trkpt lat="43.1037883" lon="11.4609633"><ele>144.66666666666669</ele><time>2026-04-26T08:40:55.296Z</time></trkpt><trkpt lat="43.1037467" lon="11.4608633"><ele>144.33333333333334</ele><time>2026-04-26T08:40:56.297Z</time></trkpt><trkpt lat="43.1037167" lon="11.4607617"><ele>144.0</ele><time>2026-04-26T08:40:57.296Z</time></trkpt><trkpt lat="43.1036983" lon="11.4606483"><ele>143.66666666666666</ele><time>2026-04-26T08:40:58.296Z</time></trkpt><trkpt lat="43.1036917" lon="11.4605233"><ele>143.33333333333331</ele><time>2026-04-26T08:40:59.299Z</time></trkpt><trkpt lat="43.1036933" lon="11.4603867"><ele>143.0</ele><time>2026-04-26T08:41:00.296Z</time></trkpt><trkpt lat="43.1037" lon="11.4602417"><ele>142.75</ele><time>2026-04-26T08:41:01.296Z</time></trkpt><trkpt lat="43.10371" lon="11.4600867"><ele>142.5</ele><time>2026-04-26T08:41:02.299Z</time></trkpt><trkpt lat="43.1037183" lon="11.459925"><ele>142.25</ele><time>2026-04-26T08:41:03.299Z</time></trkpt><trkpt lat="43.1037233" lon="11.4597567"><ele>142.0</ele><time>2026-04-26T08:41:04.297Z</time></trkpt><trkpt lat="43.10373" lon="11.4595883"><ele>142.0</ele><time>2026-04-26T08:41:05.297Z</time></trkpt><trkpt lat="43.1037333" lon="11.4594283"><ele>142.0</ele><time>2026-04-26T08:41:06.3Z</time></trkpt><trkpt lat="43.1037417" lon="11.4592717"><ele>142.0</ele><time>2026-04-26T08:41:07.299Z</time></trkpt><trkpt lat="43.1037483" lon="11.4591167"><ele>142.0</ele><time>2026-04-26T08:41:08.299Z</time></trkpt><trkpt lat="43.1037517" lon="11.458965"><ele>142.0</ele><time>2026-04-26T08:41:09.301Z</time></trkpt><trkpt lat="43.103755" lon="11.4588167"><ele>142.0</ele><time>2026-04-26T08:41:10.298Z</time></trkpt><trkpt lat="43.1037567" lon="11.4586667"><ele>142.0</ele><time>2026-04-26T08:41:11.298Z</time></trkpt><trkpt lat="43.1037617" lon="11.45851"><ele>142.0</ele><time>2026-04-26T08:41:12.299Z</time></trkpt><trkpt lat="43.103765" lon="11.458355"><ele>142.0</ele><time>2026-04-26T08:41:13.3Z</time></trkpt><trkpt lat="43.10377" lon="11.4582"><ele>142.0</ele><time>2026-04-26T08:41:14.298Z</time></trkpt><trkpt lat="43.103775" lon="11.4580467"><ele>142.0</ele><time>2026-04-26T08:41:15.298Z</time></trkpt><trkpt lat="43.10378" lon="11.4579067"><ele>142.0</ele><time>2026-04-26T08:41:16.299Z</time></trkpt><trkpt lat="43.1037883" lon="11.4577733"><ele>142.0</ele><time>2026-04-26T08:41:17.297Z</time></trkpt><trkpt lat="43.1038083" lon="11.4576467"><ele>142.0</ele><time>2026-04-26T08:41:18.296Z</time></trkpt><trkpt lat="43.10384" lon="11.45753"><ele>142.0</ele><time>2026-04-26T08:41:19.298Z</time></trkpt><trkpt lat="43.10389" lon="11.45742"><ele>142.0</ele><time>2026-04-26T08:41:20.297Z</time></trkpt><trkpt lat="43.1039517" lon="11.45732"><ele>142.0</ele><time>2026-04-26T08:41:21.296Z</time></trkpt><trkpt lat="43.104025" lon="11.4572233"><ele>142.0</ele><time>2026-04-26T08:41:22.296Z</time></trkpt><trkpt lat="43.1041033" lon="11.45713"><ele>142.0</ele><time>2026-04-26T08:41:23.298Z</time></trkpt><trkpt lat="43.104185" lon="11.457035"><ele>141.2</ele><time>2026-04-26T08:41:24.298Z</time></trkpt><trkpt lat="43.10427" lon="11.456945"><ele>140.39999999999998</ele><time>2026-04-26T08:41:25.3Z</time></trkpt><trkpt lat="43.10436" lon="11.4568567"><ele>139.60000000000002</ele><time>2026-04-26T08:41:26.299Z</time></trkpt><trkpt lat="43.1044467" lon="11.4567667"><ele>138.8</ele><time>2026-04-26T08:41:27.299Z</time></trkpt><trkpt lat="43.1045317" lon="11.45668"><ele>138.0</ele><time>2026-04-26T08:41:28.298Z</time></trkpt><trkpt lat="43.104615" lon="11.4565967"><ele>138.0</ele><time>2026-04-26T08:41:29.299Z</time></trkpt><trkpt lat="43.1046967" lon="11.456505"><ele>138.0</ele><time>2026-04-26T08:41:30.298Z</time></trkpt><trkpt lat="43.10478" lon="11.4564183"><ele>138.0</ele><time>2026-04-26T08:41:31.298Z</time></trkpt><trkpt lat="43.1048583" lon="11.45633"><ele>138.0</ele><time>2026-04-26T08:41:32.299Z</time></trkpt><trkpt lat="43.1049317" lon="11.4562433"><ele>138.0</ele><time>2026-04-26T08:41:33.298Z</time></trkpt><trkpt lat="43.1050033" lon="11.4561533"><ele>139.33333333333334</ele><time>2026-04-26T08:41:34.299Z</time></trkpt><trkpt lat="43.1050733" lon="11.456065"><ele>140.66666666666666</ele><time>2026-04-26T08:41:35.3Z</time></trkpt><trkpt lat="43.1051433" lon="11.4559783"><ele>142.0</ele><time>2026-04-26T08:41:36.3Z</time></trkpt><trkpt lat="43.1052" lon="11.4558933"><ele>143.33333333333331</ele><time>2026-04-26T08:41:37.298Z</time></trkpt><trkpt lat="43.1052533" lon="11.45581"><ele>144.66666666666666</ele><time>2026-04-26T08:41:38.297Z</time></trkpt><trkpt lat="43.105305" lon="11.45572"><ele>146.0</ele><time>2026-04-26T08:41:39.295Z</time></trkpt><trkpt lat="43.1053517" lon="11.455625"><ele>146.0</ele><time>2026-04-26T08:41:40.299Z</time></trkpt><trkpt lat="43.1053967" lon="11.4555317"><ele>146.0</ele><time>2026-04-26T08:41:41.298Z</time></trkpt><trkpt lat="43.10544" lon="11.455445"><ele>146.0</ele><time>2026-04-26T08:41:42.298Z</time></trkpt><trkpt lat="43.10548" lon="11.4553683"><ele>146.0</ele><time>2026-04-26T08:41:43.299Z</time></trkpt><trkpt lat="43.1055417" lon="11.4552483"><ele>146.0</ele><time>2026-04-26T08:41:45.298Z</time></trkpt><trkpt lat="43.1055383" lon="11.4551283"><ele>146.0</ele><time>2026-04-26T08:41:47.296Z</time></trkpt><trkpt lat="43.1054617" lon="11.4550317"><ele>146.5</ele><time>2026-04-26T08:41:49.298Z</time></trkpt><trkpt lat="43.1054" lon="11.4550017"><ele>147.0</ele><time>2026-04-26T08:41:50.299Z</time></trkpt><trkpt lat="43.1053317" lon="11.454975"><ele>147.5</ele><time>2026-04-26T08:41:51.295Z</time></trkpt><trkpt lat="43.1052533" lon="11.4549567"><ele>148.0</ele><time>2026-04-26T08:41:52.297Z</time></trkpt><trkpt lat="43.1051683" lon="11.4549417"><ele>148.5</ele><time>2026-04-26T08:41:53.297Z</time></trkpt><trkpt lat="43.1050767" lon="11.4549283"><ele>149.0</ele><time>2026-04-26T08:41:54.295Z</time></trkpt><trkpt lat="43.1049833" lon="11.45491"><ele>148.0</ele><time>2026-04-26T08:41:55.299Z</time></trkpt><trkpt lat="43.10489" lon="11.4548867"><ele>147.0</ele><time>2026-04-26T08:41:56.299Z</time></trkpt><trkpt lat="43.10479" lon="11.4548567"><ele>146.0</ele><time>2026-04-26T08:41:57.298Z</time></trkpt><trkpt lat="43.10469" lon="11.454825"><ele>145.0</ele><time>2026-04-26T08:41:58.298Z</time></trkpt><trkpt lat="43.10459" lon="11.4547917"><ele>144.0</ele><time>2026-04-26T08:41:59.299Z</time></trkpt><trkpt lat="43.1044833" lon="11.4547517"><ele>144.0</ele><time>2026-04-26T08:42:00.298Z</time></trkpt><trkpt lat="43.1043817" lon="11.4547183"><ele>144.0</ele><time>2026-04-26T08:42:01.299Z</time></trkpt><trkpt lat="43.1042767" lon="11.4546833"><ele>144.0</ele><time>2026-04-26T08:42:02.301Z</time></trkpt><trkpt lat="43.10417" lon="11.454645"><ele>144.0</ele><time>2026-04-26T08:42:03.299Z</time></trkpt><trkpt lat="43.104065" lon="11.45461"><ele>144.0</ele><time>2026-04-26T08:42:04.298Z</time></trkpt><trkpt lat="43.1039583" lon="11.454575"><ele>144.2</ele><time>2026-04-26T08:42:05.299Z</time></trkpt><trkpt lat="43.1038517" lon="11.45454"><ele>144.4</ele><time>2026-04-26T08:42:06.299Z</time></trkpt><trkpt lat="43.103745" lon="11.454505"><ele>144.6</ele><time>2026-04-26T08:42:07.298Z</time></trkpt><trkpt lat="43.1036417" lon="11.4544767"><ele>144.8</ele><time>2026-04-26T08:42:08.299Z</time></trkpt><trkpt lat="43.103535" lon="11.4544467"><ele>145.0</ele><time>2026-04-26T08:42:09.298Z</time></trkpt><trkpt lat="43.1034283" lon="11.4544217"><ele>145.0</ele><time>2026-04-26T08:42:10.299Z</time></trkpt><trkpt lat="43.1033233" lon="11.4543917"><ele>145.0</ele><time>2026-04-26T08:42:11.298Z</time></trkpt><trkpt lat="43.1032217" lon="11.4543617"><ele>145.0</ele><time>2026-04-26T08:42:12.299Z</time></trkpt><trkpt lat="43.1031217" lon="11.4543383"><ele>145.0</ele><time>2026-04-26T08:42:13.3Z</time></trkpt><trkpt lat="43.1030183" lon="11.4543133"><ele>145.0</ele><time>2026-04-26T08:42:14.299Z</time></trkpt><trkpt lat="43.1029167" lon="11.4542833"><ele>145.0</ele><time>2026-04-26T08:42:15.298Z</time></trkpt><trkpt lat="43.102815" lon="11.4542567"><ele>145.0</ele><time>2026-04-26T08:42:16.298Z</time></trkpt><trkpt lat="43.1027133" lon="11.4542233"><ele>145.0</ele><time>2026-04-26T08:42:17.298Z</time></trkpt><trkpt lat="43.1026117" lon="11.4541917"><ele>145.0</ele><time>2026-04-26T08:42:18.298Z</time></trkpt><trkpt lat="43.10251" lon="11.45416"><ele>145.0</ele><time>2026-04-26T08:42:19.299Z</time></trkpt><trkpt lat="43.10241" lon="11.4541283"><ele>145.2</ele><time>2026-04-26T08:42:20.298Z</time></trkpt><trkpt lat="43.1023117" lon="11.454105"><ele>145.4</ele><time>2026-04-26T08:42:21.298Z</time></trkpt><trkpt lat="43.1022167" lon="11.4540817"><ele>145.6</ele><time>2026-04-26T08:42:22.299Z</time></trkpt><trkpt lat="43.102125" lon="11.4540583"><ele>145.8</ele><time>2026-04-26T08:42:23.299Z</time></trkpt><trkpt lat="43.1020417" lon="11.4540317"><ele>146.0</ele><time>2026-04-26T08:42:24.299Z</time></trkpt><trkpt lat="43.1019633" lon="11.4539983"><ele>146.0</ele><time>2026-04-26T08:42:25.298Z</time></trkpt><trkpt lat="43.1018883" lon="11.4539483"><ele>146.0</ele><time>2026-04-26T08:42:26.3Z</time></trkpt><trkpt lat="43.101825" lon="11.4538767"><ele>146.0</ele><time>2026-04-26T08:42:27.299Z</time></trkpt><trkpt lat="43.101775" lon="11.4537883"><ele>146.0</ele><time>2026-04-26T08:42:28.299Z</time></trkpt><trkpt lat="43.1017433" lon="11.4536733"><ele>146.0</ele><time>2026-04-26T08:42:29.298Z</time></trkpt><trkpt lat="43.101725" lon="11.4535367"><ele>146.0</ele><time>2026-04-26T08:42:30.299Z</time></trkpt><trkpt lat="43.1017267" lon="11.4534017"><ele>146.6</ele><time>2026-04-26T08:42:31.299Z</time></trkpt><trkpt lat="43.1017333" lon="11.453265"><ele>147.2</ele><time>2026-04-26T08:42:32.299Z</time></trkpt><trkpt lat="43.1017383" lon="11.4531333"><ele>147.8</ele><time>2026-04-26T08:42:33.301Z</time></trkpt><trkpt lat="43.1017517" lon="11.4530033"><ele>148.4</ele><time>2026-04-26T08:42:34.299Z</time></trkpt><trkpt lat="43.1017567" lon="11.4528883"><ele>149.0</ele><time>2026-04-26T08:42:35.298Z</time></trkpt><trkpt lat="43.1017467" lon="11.4527833"><ele>149.33333333333331</ele><time>2026-04-26T08:42:36.299Z</time></trkpt><trkpt lat="43.1017183" lon="11.4526933"><ele>149.66666666666666</ele><time>2026-04-26T08:42:37.298Z</time></trkpt><trkpt lat="43.1016717" lon="11.452615"><ele>150.0</ele><time>2026-04-26T08:42:38.3Z</time></trkpt><trkpt lat="43.101605" lon="11.4525533"><ele>150.33333333333334</ele><time>2026-04-26T08:42:39.298Z</time></trkpt><trkpt lat="43.1015183" lon="11.4525167"><ele>150.66666666666669</ele><time>2026-04-26T08:42:40.298Z</time></trkpt><trkpt lat="43.1014267" lon="11.4524783"><ele>151.0</ele><time>2026-04-26T08:42:41.3Z</time></trkpt><trkpt lat="43.1013367" lon="11.4524367"><ele>151.2</ele><time>2026-04-26T08:42:42.298Z</time></trkpt><trkpt lat="43.10125" lon="11.4523933"><ele>151.39999999999998</ele><time>2026-04-26T08:42:43.299Z</time></trkpt><trkpt lat="43.1011683" lon="11.4523483"><ele>151.6</ele><time>2026-04-26T08:42:44.299Z</time></trkpt><trkpt lat="43.1010833" lon="11.4523033"><ele>151.79999999999998</ele><time>2026-04-26T08:42:45.298Z</time></trkpt><trkpt lat="43.101" lon="11.4522567"><ele>152.0</ele><time>2026-04-26T08:42:46.298Z</time></trkpt><trkpt lat="43.1009167" lon="11.4522117"><ele>152.0</ele><time>2026-04-26T08:42:47.299Z</time></trkpt><trkpt lat="43.1008317" lon="11.45217"><ele>152.0</ele><time>2026-04-26T08:42:48.299Z</time></trkpt><trkpt lat="43.10075" lon="11.4521183"><ele>152.0</ele><time>2026-04-26T08:42:49.299Z</time></trkpt><trkpt lat="43.1006683" lon="11.45207"><ele>152.0</ele><time>2026-04-26T08:42:50.3Z</time></trkpt><trkpt lat="43.1005867" lon="11.4520167"><ele>152.0</ele><time>2026-04-26T08:42:51.299Z</time></trkpt><trkpt lat="43.1005033" lon="11.4519667"><ele>154.0</ele><time>2026-04-26T08:42:52.298Z</time></trkpt><trkpt lat="43.1004217" lon="11.4519117"><ele>156.0</ele><time>2026-04-26T08:42:53.299Z</time></trkpt><trkpt lat="43.1003433" lon="11.451855"><ele>158.0</ele><time>2026-04-26T08:42:54.299Z</time></trkpt><trkpt lat="43.100265" lon="11.451805"><ele>160.0</ele><time>2026-04-26T08:42:55.299Z</time></trkpt><trkpt lat="43.100185" lon="11.4517567"><ele>162.0</ele><time>2026-04-26T08:42:56.3Z</time></trkpt><trkpt lat="43.1001033" lon="11.4517117"><ele>164.0</ele><time>2026-04-26T08:42:57.299Z</time></trkpt><trkpt lat="43.1000183" lon="11.4516683"><ele>164.0</ele><time>2026-04-26T08:42:58.299Z</time></trkpt><trkpt lat="43.0999367" lon="11.45163"><ele>164.0</ele><time>2026-04-26T08:42:59.298Z</time></trkpt><trkpt lat="43.0998567" lon="11.451585"><ele>164.0</ele><time>2026-04-26T08:43:00.298Z</time></trkpt><trkpt lat="43.0997883" lon="11.45153"><ele>164.0</ele><time>2026-04-26T08:43:01.3Z</time></trkpt><trkpt lat="43.0997317" lon="11.45146"><ele>164.0</ele><time>2026-04-26T08:43:02.299Z</time></trkpt><trkpt lat="43.0997" lon="11.451365"><ele>164.0</ele><time>2026-04-26T08:43:03.299Z</time></trkpt><trkpt lat="43.0996833" lon="11.45126"><ele>166.2</ele><time>2026-04-26T08:43:04.299Z</time></trkpt><trkpt lat="43.0996733" lon="11.4511517"><ele>168.39999999999998</ele><time>2026-04-26T08:43:05.298Z</time></trkpt><trkpt lat="43.0996733" lon="11.45103"><ele>170.6</ele><time>2026-04-26T08:43:06.3Z</time></trkpt><trkpt lat="43.0996733" lon="11.4508983"><ele>172.8</ele><time>2026-04-26T08:43:07.3Z</time></trkpt><trkpt lat="43.0996733" lon="11.4507633"><ele>175.0</ele><time>2026-04-26T08:43:08.298Z</time></trkpt><trkpt lat="43.0996717" lon="11.45063"><ele>175.0</ele><time>2026-04-26T08:43:09.297Z</time></trkpt><trkpt lat="43.0996717" lon="11.450495"><ele>175.0</ele><time>2026-04-26T08:43:10.3Z</time></trkpt><trkpt lat="43.099675" lon="11.450365"><ele>175.0</ele><time>2026-04-26T08:43:11.298Z</time></trkpt><trkpt lat="43.09968" lon="11.4502517"><ele>175.0</ele><time>2026-04-26T08:43:12.298Z</time></trkpt><trkpt lat="43.0996817" lon="11.4501517"><ele>175.0</ele><time>2026-04-26T08:43:13.298Z</time></trkpt><trkpt lat="43.099685" lon="11.4500617"><ele>175.0</ele><time>2026-04-26T08:43:14.299Z</time></trkpt><trkpt lat="43.099685" lon="11.4499733"><ele>176.0</ele><time>2026-04-26T08:43:15.299Z</time></trkpt><trkpt lat="43.0996867" lon="11.449885"><ele>177.0</ele><time>2026-04-26T08:43:16.298Z</time></trkpt><trkpt lat="43.0996817" lon="11.4497317"><ele>178.0</ele><time>2026-04-26T08:43:18.299Z</time></trkpt><trkpt lat="43.0996433" lon="11.4496317"><ele>179.0</ele><time>2026-04-26T08:43:20.299Z</time></trkpt><trkpt lat="43.09958" lon="11.4495983"><ele>180.0</ele><time>2026-04-26T08:43:22.302Z</time></trkpt><trkpt lat="43.0994683" lon="11.4496233"><ele>181.0</ele><time>2026-04-26T08:43:24.298Z</time></trkpt><trkpt lat="43.0994017" lon="11.4496383"><ele>181.0</ele><time>2026-04-26T08:43:25.297Z</time></trkpt><trkpt lat="43.0993333" lon="11.449655"><ele>181.0</ele><time>2026-04-26T08:43:26.299Z</time></trkpt><trkpt lat="43.0992583" lon="11.4496733"><ele>181.0</ele><time>2026-04-26T08:43:27.295Z</time></trkpt><trkpt lat="43.0991833" lon="11.4496917"><ele>181.0</ele><time>2026-04-26T08:43:28.299Z</time></trkpt><trkpt lat="43.099105" lon="11.4497083"><ele>181.0</ele><time>2026-04-26T08:43:29.298Z</time></trkpt><trkpt lat="43.0990217" lon="11.4497267"><ele>181.0</ele><time>2026-04-26T08:43:30.296Z</time></trkpt><trkpt lat="43.0989383" lon="11.44974"><ele>181.0</ele><time>2026-04-26T08:43:31.296Z</time></trkpt><trkpt lat="43.0988533" lon="11.449755"><ele>181.0</ele><time>2026-04-26T08:43:32.297Z</time></trkpt><trkpt lat="43.0987667" lon="11.44977"><ele>181.0</ele><time>2026-04-26T08:43:33.296Z</time></trkpt><trkpt lat="43.0986817" lon="11.44979"><ele>181.0</ele><time>2026-04-26T08:43:34.295Z</time></trkpt><trkpt lat="43.0985883" lon="11.4498033"><ele>181.0</ele><time>2026-04-26T08:43:35.297Z</time></trkpt><trkpt lat="43.0985" lon="11.4498183"><ele>181.0</ele><time>2026-04-26T08:43:36.296Z</time></trkpt><trkpt lat="43.09841" lon="11.4498317"><ele>181.0</ele><time>2026-04-26T08:43:37.299Z</time></trkpt><trkpt lat="43.09832" lon="11.4498483"><ele>181.0</ele><time>2026-04-26T08:43:38.298Z</time></trkpt><trkpt lat="43.0982317" lon="11.4498683"><ele>181.0</ele><time>2026-04-26T08:43:39.301Z</time></trkpt><trkpt lat="43.098145" lon="11.4498833"><ele>181.0</ele><time>2026-04-26T08:43:40.298Z</time></trkpt><trkpt lat="43.0980533" lon="11.4498983"><ele>181.0</ele><time>2026-04-26T08:43:41.299Z</time></trkpt><trkpt lat="43.0979567" lon="11.4499133"><ele>181.20000000000002</ele><time>2026-04-26T08:43:42.298Z</time></trkpt><trkpt lat="43.0978633" lon="11.4499333"><ele>181.4</ele><time>2026-04-26T08:43:43.298Z</time></trkpt><trkpt lat="43.0977717" lon="11.4499567"><ele>181.6</ele><time>2026-04-26T08:43:44.298Z</time></trkpt><trkpt lat="43.097675" lon="11.4499767"><ele>181.8</ele><time>2026-04-26T08:43:45.296Z</time></trkpt><trkpt lat="43.097575" lon="11.4499967"><ele>182.0</ele><time>2026-04-26T08:43:46.299Z</time></trkpt><trkpt lat="43.0974767" lon="11.4500133"><ele>181.8</ele><time>2026-04-26T08:43:47.3Z</time></trkpt><trkpt lat="43.09738" lon="11.45003"><ele>181.6</ele><time>2026-04-26T08:43:48.299Z</time></trkpt><trkpt lat="43.0972783" lon="11.4500533"><ele>181.4</ele><time>2026-04-26T08:43:49.298Z</time></trkpt><trkpt lat="43.097175" lon="11.4500733"><ele>181.20000000000002</ele><time>2026-04-26T08:43:50.299Z</time></trkpt><trkpt lat="43.09707" lon="11.45009"><ele>181.0</ele><time>2026-04-26T08:43:51.298Z</time></trkpt><trkpt lat="43.0969667" lon="11.4501083"><ele>181.0</ele><time>2026-04-26T08:43:52.305Z</time></trkpt><trkpt lat="43.0968633" lon="11.4501233"><ele>181.0</ele><time>2026-04-26T08:43:53.299Z</time></trkpt><trkpt lat="43.09676" lon="11.45014"><ele>181.0</ele><time>2026-04-26T08:43:54.298Z</time></trkpt><trkpt lat="43.0966567" lon="11.4501617"><ele>181.0</ele><time>2026-04-26T08:43:55.299Z</time></trkpt><trkpt lat="43.096555" lon="11.45018"><ele>181.0</ele><time>2026-04-26T08:43:56.3Z</time></trkpt><trkpt lat="43.096455" lon="11.4501967"><ele>180.0</ele><time>2026-04-26T08:43:57.299Z</time></trkpt><trkpt lat="43.0963567" lon="11.450215"><ele>179.0</ele><time>2026-04-26T08:43:58.298Z</time></trkpt><trkpt lat="43.09626" lon="11.45023"><ele>178.0</ele><time>2026-04-26T08:43:59.3Z</time></trkpt><trkpt lat="43.0961617" lon="11.4502467"><ele>177.0</ele><time>2026-04-26T08:44:00.298Z</time></trkpt><trkpt lat="43.09606" lon="11.4502683"><ele>176.0</ele><time>2026-04-26T08:44:01.299Z</time></trkpt><trkpt lat="43.09596" lon="11.4502883"><ele>176.0</ele><time>2026-04-26T08:44:02.298Z</time></trkpt><trkpt lat="43.0958567" lon="11.4503017"><ele>176.0</ele><time>2026-04-26T08:44:03.299Z</time></trkpt><trkpt lat="43.0957483" lon="11.4502967"><ele>176.0</ele><time>2026-04-26T08:44:04.298Z</time></trkpt><trkpt lat="43.095645" lon="11.4502817"><ele>176.0</ele><time>2026-04-26T08:44:05.298Z</time></trkpt><trkpt lat="43.0955383" lon="11.45026"><ele>176.0</ele><time>2026-04-26T08:44:06.3Z</time></trkpt><trkpt lat="43.095435" lon="11.45023"><ele>175.8</ele><time>2026-04-26T08:44:07.298Z</time></trkpt><trkpt lat="43.0953367" lon="11.4501933"><ele>175.60000000000002</ele><time>2026-04-26T08:44:08.3Z</time></trkpt><trkpt lat="43.0952383" lon="11.4501517"><ele>175.4</ele><time>2026-04-26T08:44:09.3Z</time></trkpt><trkpt lat="43.0951467" lon="11.4501067"><ele>175.2</ele><time>2026-04-26T08:44:10.299Z</time></trkpt><trkpt lat="43.0950567" lon="11.450065"><ele>175.0</ele><time>2026-04-26T08:44:11.298Z</time></trkpt><trkpt lat="43.0949633" lon="11.4500283"><ele>175.0</ele><time>2026-04-26T08:44:12.299Z</time></trkpt><trkpt lat="43.094875" lon="11.4500067"><ele>175.0</ele><time>2026-04-26T08:44:13.298Z</time></trkpt><trkpt lat="43.0947917" lon="11.4499867"><ele>175.0</ele><time>2026-04-26T08:44:14.299Z</time></trkpt><trkpt lat="43.0947117" lon="11.4499767"><ele>175.0</ele><time>2026-04-26T08:44:15.298Z</time></trkpt><trkpt lat="43.0946283" lon="11.44998"><ele>175.0</ele><time>2026-04-26T08:44:16.298Z</time></trkpt><trkpt lat="43.0945367" lon="11.4499867"><ele>175.0</ele><time>2026-04-26T08:44:17.298Z</time></trkpt><trkpt lat="43.0944383" lon="11.4499883"><ele>175.0</ele><time>2026-04-26T08:44:18.3Z</time></trkpt><trkpt lat="43.0943367" lon="11.4499817"><ele>175.0</ele><time>2026-04-26T08:44:19.298Z</time></trkpt><trkpt lat="43.0942367" lon="11.4499783"><ele>175.0</ele><time>2026-04-26T08:44:20.299Z</time></trkpt><trkpt lat="43.0941383" lon="11.4499717"><ele>175.0</ele><time>2026-04-26T08:44:21.3Z</time></trkpt><trkpt lat="43.09404" lon="11.449965"><ele>175.0</ele><time>2026-04-26T08:44:22.299Z</time></trkpt><trkpt lat="43.0939433" lon="11.449955"><ele>176.2</ele><time>2026-04-26T08:44:23.298Z</time></trkpt><trkpt lat="43.093845" lon="11.44995"><ele>177.4</ele><time>2026-04-26T08:44:24.299Z</time></trkpt><trkpt lat="43.0937467" lon="11.449945"><ele>178.60000000000002</ele><time>2026-04-26T08:44:25.298Z</time></trkpt><trkpt lat="43.0936483" lon="11.449945"><ele>179.8</ele><time>2026-04-26T08:44:26.298Z</time></trkpt><trkpt lat="43.0935467" lon="11.4499433"><ele>181.0</ele><time>2026-04-26T08:44:27.298Z</time></trkpt><trkpt lat="43.0934483" lon="11.4499317"><ele>181.0</ele><time>2026-04-26T08:44:28.295Z</time></trkpt><trkpt lat="43.0933517" lon="11.449925"><ele>181.0</ele><time>2026-04-26T08:44:29.296Z</time></trkpt><trkpt lat="43.0932517" lon="11.4499217"><ele>181.0</ele><time>2026-04-26T08:44:30.297Z</time></trkpt><trkpt lat="43.0931483" lon="11.4499133"><ele>181.0</ele><time>2026-04-26T08:44:31.298Z</time></trkpt><trkpt lat="43.0930467" lon="11.449905"><ele>181.0</ele><time>2026-04-26T08:44:32.297Z</time></trkpt><trkpt lat="43.0929417" lon="11.4498933"><ele>181.4</ele><time>2026-04-26T08:44:33.296Z</time></trkpt><trkpt lat="43.0928367" lon="11.4498767"><ele>181.8</ele><time>2026-04-26T08:44:34.296Z</time></trkpt><trkpt lat="43.0927333" lon="11.4498583"><ele>182.20000000000002</ele><time>2026-04-26T08:44:35.296Z</time></trkpt><trkpt lat="43.092635" lon="11.4498433"><ele>182.60000000000002</ele><time>2026-04-26T08:44:36.297Z</time></trkpt><trkpt lat="43.0925383" lon="11.44983"><ele>183.0</ele><time>2026-04-26T08:44:37.297Z</time></trkpt><trkpt lat="43.0924467" lon="11.4498217"><ele>183.0</ele><time>2026-04-26T08:44:38.297Z</time></trkpt><trkpt lat="43.0923567" lon="11.4498183"><ele>183.0</ele><time>2026-04-26T08:44:39.296Z</time></trkpt><trkpt lat="43.092265" lon="11.449815"><ele>183.0</ele><time>2026-04-26T08:44:40.299Z</time></trkpt><trkpt lat="43.092175" lon="11.449815"><ele>183.0</ele><time>2026-04-26T08:44:41.297Z</time></trkpt><trkpt lat="43.0920817" lon="11.4498217"><ele>183.0</ele><time>2026-04-26T08:44:42.298Z</time></trkpt><trkpt lat="43.09199" lon="11.4498333"><ele>183.0</ele><time>2026-04-26T08:44:43.298Z</time></trkpt><trkpt lat="43.0919" lon="11.449855"><ele>183.0</ele><time>2026-04-26T08:44:44.297Z</time></trkpt><trkpt lat="43.091805" lon="11.449885"><ele>183.0</ele><time>2026-04-26T08:44:45.299Z</time></trkpt><trkpt lat="43.0917067" lon="11.4499167"><ele>183.0</ele><time>2026-04-26T08:44:46.298Z</time></trkpt><trkpt lat="43.0916083" lon="11.44995"><ele>183.0</ele><time>2026-04-26T08:44:47.298Z</time></trkpt><trkpt lat="43.0915117" lon="11.44998"><ele>183.0</ele><time>2026-04-26T08:44:48.3Z</time></trkpt><trkpt lat="43.09141" lon="11.4500083"><ele>183.0</ele><time>2026-04-26T08:44:49.299Z</time></trkpt><trkpt lat="43.091305" lon="11.4500333"><ele>183.0</ele><time>2026-04-26T08:44:50.3Z</time></trkpt><trkpt lat="43.0911933" lon="11.4500533"><ele>183.0</ele><time>2026-04-26T08:44:51.299Z</time></trkpt><trkpt lat="43.09108" lon="11.4500633"><ele>183.0</ele><time>2026-04-26T08:44:52.3Z</time></trkpt><trkpt lat="43.090965" lon="11.4500717"><ele>183.0</ele><time>2026-04-26T08:44:53.299Z</time></trkpt><trkpt lat="43.0908483" lon="11.4500683"><ele>183.0</ele><time>2026-04-26T08:44:54.3Z</time></trkpt><trkpt lat="43.0907333" lon="11.45006"><ele>183.0</ele><time>2026-04-26T08:44:55.299Z</time></trkpt><trkpt lat="43.090615" lon="11.4500483"><ele>183.0</ele><time>2026-04-26T08:44:56.299Z</time></trkpt><trkpt lat="43.0904967" lon="11.4500383"><ele>183.4</ele><time>2026-04-26T08:44:57.298Z</time></trkpt><trkpt lat="43.09038" lon="11.45003"><ele>183.8</ele><time>2026-04-26T08:44:58.299Z</time></trkpt><trkpt lat="43.0902683" lon="11.4500233"><ele>184.2</ele><time>2026-04-26T08:44:59.298Z</time></trkpt><trkpt lat="43.0901617" lon="11.450015"><ele>184.6</ele><time>2026-04-26T08:45:00.299Z</time></trkpt><trkpt lat="43.0900617" lon="11.4500017"><ele>185.0</ele><time>2026-04-26T08:45:01.3Z</time></trkpt><trkpt lat="43.089965" lon="11.4499783"><ele>185.2</ele><time>2026-04-26T08:45:02.299Z</time></trkpt><trkpt lat="43.08987" lon="11.4499467"><ele>185.4</ele><time>2026-04-26T08:45:03.299Z</time></trkpt><trkpt lat="43.0897783" lon="11.4498983"><ele>185.60000000000002</ele><time>2026-04-26T08:45:04.299Z</time></trkpt><trkpt lat="43.089685" lon="11.4498383"><ele>185.8</ele><time>2026-04-26T08:45:05.3Z</time></trkpt><trkpt lat="43.0895917" lon="11.4497717"><ele>186.0</ele><time>2026-04-26T08:45:06.299Z</time></trkpt><trkpt lat="43.089495" lon="11.4497033"><ele>186.0</ele><time>2026-04-26T08:45:07.299Z</time></trkpt><trkpt lat="43.089395" lon="11.4496333"><ele>186.0</ele><time>2026-04-26T08:45:08.3Z</time></trkpt><trkpt lat="43.0893017" lon="11.4495617"><ele>186.0</ele><time>2026-04-26T08:45:09.298Z</time></trkpt><trkpt lat="43.0892167" lon="11.4494867"><ele>186.0</ele><time>2026-04-26T08:45:10.299Z</time></trkpt><trkpt lat="43.08914" lon="11.44941"><ele>186.0</ele><time>2026-04-26T08:45:11.297Z</time></trkpt><trkpt lat="43.0890667" lon="11.4493267"><ele>186.4</ele><time>2026-04-26T08:45:12.298Z</time></trkpt><trkpt lat="43.0890017" lon="11.4492283"><ele>186.8</ele><time>2026-04-26T08:45:13.298Z</time></trkpt><trkpt lat="43.0889417" lon="11.449125"><ele>187.20000000000002</ele><time>2026-04-26T08:45:14.299Z</time></trkpt><trkpt lat="43.08889" lon="11.4490117"><ele>187.60000000000002</ele><time>2026-04-26T08:45:15.298Z</time></trkpt><trkpt lat="43.088845" lon="11.4488883"><ele>188.0</ele><time>2026-04-26T08:45:16.297Z</time></trkpt><trkpt lat="43.0888117" lon="11.44876"><ele>188.8</ele><time>2026-04-26T08:45:17.297Z</time></trkpt><trkpt lat="43.08879" lon="11.4486283"><ele>189.60000000000002</ele><time>2026-04-26T08:45:18.298Z</time></trkpt><trkpt lat="43.0887733" lon="11.44849"><ele>190.39999999999998</ele><time>2026-04-26T08:45:19.297Z</time></trkpt><trkpt lat="43.0887633" lon="11.4483583"><ele>191.2</ele><time>2026-04-26T08:45:20.299Z</time></trkpt><trkpt lat="43.0887583" lon="11.448225"><ele>192.0</ele><time>2026-04-26T08:45:21.297Z</time></trkpt><trkpt lat="43.0887617" lon="11.4480917"><ele>193.0</ele><time>2026-04-26T08:45:22.299Z</time></trkpt><trkpt lat="43.088775" lon="11.44796"><ele>194.0</ele><time>2026-04-26T08:45:23.298Z</time></trkpt><trkpt lat="43.0887933" lon="11.4478317"><ele>195.0</ele><time>2026-04-26T08:45:24.298Z</time></trkpt><trkpt lat="43.0888167" lon="11.4477017"><ele>196.0</ele><time>2026-04-26T08:45:25.297Z</time></trkpt><trkpt lat="43.0888383" lon="11.44757"><ele>197.0</ele><time>2026-04-26T08:45:26.299Z</time></trkpt><trkpt lat="43.0888617" lon="11.447435"><ele>197.0</ele><time>2026-04-26T08:45:27.297Z</time></trkpt><trkpt lat="43.08888" lon="11.4473033"><ele>197.0</ele><time>2026-04-26T08:45:28.299Z</time></trkpt><trkpt lat="43.0888933" lon="11.44717"><ele>197.0</ele><time>2026-04-26T08:45:29.299Z</time></trkpt><trkpt lat="43.0888967" lon="11.4470383"><ele>197.0</ele><time>2026-04-26T08:45:30.298Z</time></trkpt><trkpt lat="43.0888933" lon="11.446915"><ele>197.0</ele><time>2026-04-26T08:45:31.299Z</time></trkpt><trkpt lat="43.088885" lon="11.446795"><ele>196.66666666666669</ele><time>2026-04-26T08:45:32.298Z</time></trkpt><trkpt lat="43.0888683" lon="11.4466817"><ele>196.33333333333334</ele><time>2026-04-26T08:45:33.298Z</time></trkpt><trkpt lat="43.0888467" lon="11.4465767"><ele>196.0</ele><time>2026-04-26T08:45:34.297Z</time></trkpt><trkpt lat="43.0888117" lon="11.4464867"><ele>195.66666666666669</ele><time>2026-04-26T08:45:35.298Z</time></trkpt><trkpt lat="43.0887633" lon="11.4464167"><ele>195.33333333333334</ele><time>2026-04-26T08:45:36.298Z</time></trkpt><trkpt lat="43.0886983" lon="11.4463717"><ele>195.0</ele><time>2026-04-26T08:45:37.298Z</time></trkpt><trkpt lat="43.08863" lon="11.4463267"><ele>195.0</ele><time>2026-04-26T08:45:38.298Z</time></trkpt><trkpt lat="43.088555" lon="11.4462967"><ele>195.0</ele><time>2026-04-26T08:45:39.298Z</time></trkpt><trkpt lat="43.0884833" lon="11.44629"><ele>195.0</ele><time>2026-04-26T08:45:40.299Z</time></trkpt><trkpt lat="43.0884167" lon="11.44629"><ele>195.0</ele><time>2026-04-26T08:45:41.298Z</time></trkpt><trkpt lat="43.088355" lon="11.4463083"><ele>195.0</ele><time>2026-04-26T08:45:42.298Z</time></trkpt><trkpt lat="43.0882433" lon="11.44637"><ele>195.0</ele><time>2026-04-26T08:45:44.299Z</time></trkpt><trkpt lat="43.0881833" lon="11.4464"><ele>194.71428571428572</ele><time>2026-04-26T08:45:45.297Z</time></trkpt><trkpt lat="43.0881167" lon="11.4464267"><ele>194.42857142857142</ele><time>2026-04-26T08:45:46.298Z</time></trkpt><trkpt lat="43.0880483" lon="11.4464517"><ele>194.14285714285717</ele><time>2026-04-26T08:45:47.296Z</time></trkpt><trkpt lat="43.0879767" lon="11.4464733"><ele>193.85714285714286</ele><time>2026-04-26T08:45:48.295Z</time></trkpt><trkpt lat="43.0879017" lon="11.4464833"><ele>193.57142857142858</ele><time>2026-04-26T08:45:49.296Z</time></trkpt><trkpt lat="43.087825" lon="11.4464817"><ele>193.2857142857143</ele><time>2026-04-26T08:45:50.296Z</time></trkpt><trkpt lat="43.0877483" lon="11.4464733"><ele>193.0</ele><time>2026-04-26T08:45:51.295Z</time></trkpt><trkpt lat="43.08767" lon="11.446455"><ele>192.99999999999997</ele><time>2026-04-26T08:45:52.296Z</time></trkpt><trkpt lat="43.0875967" lon="11.4464233"><ele>193.0</ele><time>2026-04-26T08:45:53.297Z</time></trkpt><trkpt lat="43.0875233" lon="11.4463833"><ele>193.0</ele><time>2026-04-26T08:45:54.298Z</time></trkpt><trkpt lat="43.0874517" lon="11.4463367"><ele>193.0</ele><time>2026-04-26T08:45:55.297Z</time></trkpt><trkpt lat="43.0873833" lon="11.4462833"><ele>192.99999999999997</ele><time>2026-04-26T08:45:56.298Z</time></trkpt><trkpt lat="43.08731" lon="11.4462267"><ele>193.0</ele><time>2026-04-26T08:45:57.298Z</time></trkpt><trkpt lat="43.08723" lon="11.4461817"><ele>192.83333333333331</ele><time>2026-04-26T08:45:58.298Z</time></trkpt><trkpt lat="43.08715" lon="11.4461467"><ele>192.66666666666666</ele><time>2026-04-26T08:45:59.297Z</time></trkpt><trkpt lat="43.087065" lon="11.4461317"><ele>192.5</ele><time>2026-04-26T08:46:00.299Z</time></trkpt><trkpt lat="43.08698" lon="11.4461217"><ele>192.33333333333331</ele><time>2026-04-26T08:46:01.297Z</time></trkpt><trkpt lat="43.086895" lon="11.4461133"><ele>192.16666666666666</ele><time>2026-04-26T08:46:02.299Z</time></trkpt><trkpt lat="43.0868183" lon="11.4461017"><ele>192.0</ele><time>2026-04-26T08:46:03.297Z</time></trkpt><trkpt lat="43.086745" lon="11.4460867"><ele>192.0</ele><time>2026-04-26T08:46:04.297Z</time></trkpt><trkpt lat="43.0866817" lon="11.4460617"><ele>192.0</ele><time>2026-04-26T08:46:05.298Z</time></trkpt><trkpt lat="43.0866233" lon="11.4460133"><ele>192.0</ele><time>2026-04-26T08:46:06.299Z</time></trkpt><trkpt lat="43.0865383" lon="11.4458883"><ele>192.0</ele><time>2026-04-26T08:46:08.298Z</time></trkpt><trkpt lat="43.086515" lon="11.4458017"><ele>192.0</ele><time>2026-04-26T08:46:09.299Z</time></trkpt><trkpt lat="43.0865083" lon="11.4457067"><ele>192.0</ele><time>2026-04-26T08:46:10.297Z</time></trkpt><trkpt lat="43.086515" lon="11.4456033"><ele>191.99999999999997</ele><time>2026-04-26T08:46:11.298Z</time></trkpt><trkpt lat="43.0865183" lon="11.4455"><ele>192.0</ele><time>2026-04-26T08:46:12.298Z</time></trkpt><trkpt lat="43.0865067" lon="11.4454017"><ele>192.0</ele><time>2026-04-26T08:46:13.296Z</time></trkpt><trkpt lat="43.0864867" lon="11.445305"><ele>192.0</ele><time>2026-04-26T08:46:14.298Z</time></trkpt><trkpt lat="43.0864583" lon="11.445215"><ele>192.0</ele><time>2026-04-26T08:46:15.297Z</time></trkpt><trkpt lat="43.0864283" lon="11.4451233"><ele>191.99999999999997</ele><time>2026-04-26T08:46:16.297Z</time></trkpt><trkpt lat="43.0863967" lon="11.4450283"><ele>192.0</ele><time>2026-04-26T08:46:17.295Z</time></trkpt><trkpt lat="43.0863633" lon="11.4449267"><ele>192.0</ele><time>2026-04-26T08:46:18.295Z</time></trkpt><trkpt lat="43.086325" lon="11.444825"><ele>192.0</ele><time>2026-04-26T08:46:19.295Z</time></trkpt><trkpt lat="43.0862883" lon="11.44472"><ele>192.0</ele><time>2026-04-26T08:46:20.297Z</time></trkpt><trkpt lat="43.08625" lon="11.4446133"><ele>192.0</ele><time>2026-04-26T08:46:21.295Z</time></trkpt><trkpt lat="43.0862133" lon="11.4445117"><ele>192.0</ele><time>2026-04-26T08:46:22.295Z</time></trkpt><trkpt lat="43.0861817" lon="11.4444117"><ele>192.0</ele><time>2026-04-26T08:46:23.295Z</time></trkpt><trkpt lat="43.0861667" lon="11.4443083"><ele>192.66666666666666</ele><time>2026-04-26T08:46:24.298Z</time></trkpt><trkpt lat="43.0861767" lon="11.4442067"><ele>193.33333333333331</ele><time>2026-04-26T08:46:25.298Z</time></trkpt><trkpt lat="43.0862033" lon="11.4441133"><ele>194.0</ele><time>2026-04-26T08:46:26.299Z</time></trkpt><trkpt lat="43.086245" lon="11.4440267"><ele>194.66666666666666</ele><time>2026-04-26T08:46:27.298Z</time></trkpt><trkpt lat="43.0863017" lon="11.443945"><ele>195.33333333333331</ele><time>2026-04-26T08:46:28.297Z</time></trkpt><trkpt lat="43.0863667" lon="11.443865"><ele>196.0</ele><time>2026-04-26T08:46:29.299Z</time></trkpt><trkpt lat="43.0864367" lon="11.443785"><ele>195.33333333333331</ele><time>2026-04-26T08:46:30.294Z</time></trkpt><trkpt lat="43.0865083" lon="11.443715"><ele>194.66666666666666</ele><time>2026-04-26T08:46:31.299Z</time></trkpt><trkpt lat="43.08658" lon="11.4436433"><ele>194.0</ele><time>2026-04-26T08:46:32.298Z</time></trkpt><trkpt lat="43.0866433" lon="11.4435783"><ele>193.33333333333331</ele><time>2026-04-26T08:46:33.298Z</time></trkpt><trkpt lat="43.08672" lon="11.443465"><ele>192.66666666666666</ele><time>2026-04-26T08:46:35.299Z</time></trkpt><trkpt lat="43.0867667" lon="11.443385"><ele>192.0</ele><time>2026-04-26T08:46:37.299Z</time></trkpt><trkpt lat="43.0868233" lon="11.4432733"><ele>192.0</ele><time>2026-04-26T08:46:40.299Z</time></trkpt><trkpt lat="43.0868767" lon="11.443165"><ele>192.0</ele><time>2026-04-26T08:46:42.298Z</time></trkpt><trkpt lat="43.0869433" lon="11.4430367"><ele>192.0</ele><time>2026-04-26T08:46:44.296Z</time></trkpt><trkpt lat="43.0869867" lon="11.4429617"><ele>192.0</ele><time>2026-04-26T08:46:45.298Z</time></trkpt><trkpt lat="43.0870317" lon="11.4428817"><ele>192.0</ele><time>2026-04-26T08:46:46.297Z</time></trkpt><trkpt lat="43.0870817" lon="11.4427983"><ele>192.0</ele><time>2026-04-26T08:46:47.296Z</time></trkpt><trkpt lat="43.0871317" lon="11.442705"><ele>193.8</ele><time>2026-04-26T08:46:48.295Z</time></trkpt><trkpt lat="43.0871833" lon="11.4426083"><ele>195.6</ele><time>2026-04-26T08:46:49.296Z</time></trkpt><trkpt lat="43.0872383" lon="11.4425117"><ele>197.4</ele><time>2026-04-26T08:46:50.298Z</time></trkpt><trkpt lat="43.0872967" lon="11.442415"><ele>199.20000000000002</ele><time>2026-04-26T08:46:51.294Z</time></trkpt><trkpt lat="43.087355" lon="11.4423167"><ele>201.0</ele><time>2026-04-26T08:46:52.296Z</time></trkpt><trkpt lat="43.0874117" lon="11.4422183"><ele>199.66666666666666</ele><time>2026-04-26T08:46:53.296Z</time></trkpt><trkpt lat="43.0874667" lon="11.4421183"><ele>198.33333333333331</ele><time>2026-04-26T08:46:54.295Z</time></trkpt><trkpt lat="43.087515" lon="11.4420167"><ele>197.0</ele><time>2026-04-26T08:46:55.296Z</time></trkpt><trkpt lat="43.0875567" lon="11.4419133"><ele>195.66666666666666</ele><time>2026-04-26T08:46:56.296Z</time></trkpt><trkpt lat="43.0875883" lon="11.4418"><ele>194.33333333333331</ele><time>2026-04-26T08:46:57.295Z</time></trkpt><trkpt lat="43.0876117" lon="11.441685"><ele>193.0</ele><time>2026-04-26T08:46:58.299Z</time></trkpt><trkpt lat="43.08763" lon="11.4415633"><ele>192.99999999999997</ele><time>2026-04-26T08:46:59.298Z</time></trkpt><trkpt lat="43.0876467" lon="11.4414467"><ele>193.0</ele><time>2026-04-26T08:47:00.297Z</time></trkpt><trkpt lat="43.0876633" lon="11.4413383"><ele>193.0</ele><time>2026-04-26T08:47:01.298Z</time></trkpt><trkpt lat="43.0876933" lon="11.4412283"><ele>193.0</ele><time>2026-04-26T08:47:02.298Z</time></trkpt><trkpt lat="43.0877317" lon="11.441125"><ele>192.99999999999997</ele><time>2026-04-26T08:47:03.298Z</time></trkpt><trkpt lat="43.0877833" lon="11.4410333"><ele>193.0</ele><time>2026-04-26T08:47:04.298Z</time></trkpt><trkpt lat="43.0878483" lon="11.4409517"><ele>192.0</ele><time>2026-04-26T08:47:05.297Z</time></trkpt><trkpt lat="43.087925" lon="11.4408917"><ele>191.0</ele><time>2026-04-26T08:47:06.298Z</time></trkpt><trkpt lat="43.08801" lon="11.440835"><ele>190.0</ele><time>2026-04-26T08:47:07.296Z</time></trkpt><trkpt lat="43.0880967" lon="11.4407767"><ele>189.0</ele><time>2026-04-26T08:47:08.295Z</time></trkpt><trkpt lat="43.0881867" lon="11.4407183"><ele>188.0</ele><time>2026-04-26T08:47:09.298Z</time></trkpt><trkpt lat="43.0882783" lon="11.4406567"><ele>188.0</ele><time>2026-04-26T08:47:10.296Z</time></trkpt><trkpt lat="43.0883683" lon="11.4405967"><ele>188.0</ele><time>2026-04-26T08:47:11.296Z</time></trkpt><trkpt lat="43.08845" lon="11.4405383"><ele>188.0</ele><time>2026-04-26T08:47:12.299Z</time></trkpt><trkpt lat="43.0885267" lon="11.440485"><ele>188.0</ele><time>2026-04-26T08:47:13.295Z</time></trkpt><trkpt lat="43.0886" lon="11.44043"><ele>188.0</ele><time>2026-04-26T08:47:14.298Z</time></trkpt><trkpt lat="43.08867" lon="11.440365"><ele>188.0</ele><time>2026-04-26T08:47:15.298Z</time></trkpt><trkpt lat="43.08873" lon="11.4402867"><ele>190.2</ele><time>2026-04-26T08:47:16.297Z</time></trkpt><trkpt lat="43.0887733" lon="11.4401933"><ele>192.4</ele><time>2026-04-26T08:47:17.298Z</time></trkpt><trkpt lat="43.0888033" lon="11.4400733"><ele>194.6</ele><time>2026-04-26T08:47:18.296Z</time></trkpt><trkpt lat="43.0888217" lon="11.439935"><ele>196.79999999999998</ele><time>2026-04-26T08:47:19.295Z</time></trkpt><trkpt lat="43.0888267" lon="11.4397867"><ele>199.0</ele><time>2026-04-26T08:47:20.296Z</time></trkpt><trkpt lat="43.088825" lon="11.4396283"><ele>200.0</ele><time>2026-04-26T08:47:21.296Z</time></trkpt><trkpt lat="43.08882" lon="11.4394683"><ele>201.0</ele><time>2026-04-26T08:47:22.297Z</time></trkpt><trkpt lat="43.0888183" lon="11.4393117"><ele>202.0</ele><time>2026-04-26T08:47:23.298Z</time></trkpt><trkpt lat="43.0888183" lon="11.4391633"><ele>203.0</ele><time>2026-04-26T08:47:24.297Z</time></trkpt><trkpt lat="43.0888167" lon="11.4390183"><ele>204.0</ele><time>2026-04-26T08:47:25.298Z</time></trkpt><trkpt lat="43.088815" lon="11.4388767"><ele>204.0</ele><time>2026-04-26T08:47:26.299Z</time></trkpt><trkpt lat="43.0888133" lon="11.4387367"><ele>204.0</ele><time>2026-04-26T08:47:27.297Z</time></trkpt><trkpt lat="43.0888117" lon="11.4386017"><ele>204.0</ele><time>2026-04-26T08:47:28.298Z</time></trkpt><trkpt lat="43.08881" lon="11.438475"><ele>204.0</ele><time>2026-04-26T08:47:29.298Z</time></trkpt><trkpt lat="43.088815" lon="11.4383583"><ele>204.0</ele><time>2026-04-26T08:47:30.298Z</time></trkpt><trkpt lat="43.088825" lon="11.4382417"><ele>204.0</ele><time>2026-04-26T08:47:31.297Z</time></trkpt><trkpt lat="43.0888333" lon="11.438125"><ele>204.0</ele><time>2026-04-26T08:47:32.299Z</time></trkpt><trkpt lat="43.088845" lon="11.4380117"><ele>204.0</ele><time>2026-04-26T08:47:33.298Z</time></trkpt><trkpt lat="43.088855" lon="11.4379"><ele>204.0</ele><time>2026-04-26T08:47:34.297Z</time></trkpt><trkpt lat="43.0888583" lon="11.4377883"><ele>204.0</ele><time>2026-04-26T08:47:35.299Z</time></trkpt><trkpt lat="43.0888583" lon="11.43767"><ele>204.0</ele><time>2026-04-26T08:47:36.297Z</time></trkpt><trkpt lat="43.0888533" lon="11.4375567"><ele>203.6</ele><time>2026-04-26T08:47:37.299Z</time></trkpt><trkpt lat="43.08884" lon="11.4374383"><ele>203.2</ele><time>2026-04-26T08:47:38.297Z</time></trkpt><trkpt lat="43.088815" lon="11.43731"><ele>202.79999999999998</ele><time>2026-04-26T08:47:39.295Z</time></trkpt><trkpt lat="43.0887833" lon="11.4371817"><ele>202.39999999999998</ele><time>2026-04-26T08:47:40.298Z</time></trkpt><trkpt lat="43.0887467" lon="11.437055"><ele>202.0</ele><time>2026-04-26T08:47:41.298Z</time></trkpt><trkpt lat="43.0887117" lon="11.4369317"><ele>200.6</ele><time>2026-04-26T08:47:42.294Z</time></trkpt><trkpt lat="43.0886783" lon="11.4368117"><ele>199.2</ele><time>2026-04-26T08:47:43.298Z</time></trkpt><trkpt lat="43.0886467" lon="11.4366933"><ele>197.8</ele><time>2026-04-26T08:47:44.299Z</time></trkpt><trkpt lat="43.088615" lon="11.4365717"><ele>196.4</ele><time>2026-04-26T08:47:45.297Z</time></trkpt><trkpt lat="43.08858" lon="11.4364517"><ele>195.0</ele><time>2026-04-26T08:47:46.297Z</time></trkpt><trkpt lat="43.088545" lon="11.4363333"><ele>194.6</ele><time>2026-04-26T08:47:47.299Z</time></trkpt><trkpt lat="43.08851" lon="11.4362167"><ele>194.2</ele><time>2026-04-26T08:47:48.299Z</time></trkpt><trkpt lat="43.0884867" lon="11.436095"><ele>193.8</ele><time>2026-04-26T08:47:49.298Z</time></trkpt><trkpt lat="43.0884767" lon="11.43597"><ele>193.4</ele><time>2026-04-26T08:47:50.298Z</time></trkpt><trkpt lat="43.0884883" lon="11.4358467"><ele>193.0</ele><time>2026-04-26T08:47:51.299Z</time></trkpt><trkpt lat="43.0885233" lon="11.4357267"><ele>193.0</ele><time>2026-04-26T08:47:52.298Z</time></trkpt><trkpt lat="43.088575" lon="11.435615"><ele>193.0</ele><time>2026-04-26T08:47:53.298Z</time></trkpt><trkpt lat="43.08864" lon="11.4355133"><ele>193.0</ele><time>2026-04-26T08:47:54.297Z</time></trkpt><trkpt lat="43.08871" lon="11.4354233"><ele>193.0</ele><time>2026-04-26T08:47:55.297Z</time></trkpt><trkpt lat="43.0887867" lon="11.4353383"><ele>193.0</ele><time>2026-04-26T08:47:56.298Z</time></trkpt><trkpt lat="43.0888683" lon="11.4352583"><ele>193.60000000000002</ele><time>2026-04-26T08:47:57.302Z</time></trkpt><trkpt lat="43.088945" lon="11.4351767"><ele>194.20000000000002</ele><time>2026-04-26T08:47:58.298Z</time></trkpt><trkpt lat="43.0890283" lon="11.435095"><ele>194.8</ele><time>2026-04-26T08:47:59.299Z</time></trkpt><trkpt lat="43.0891117" lon="11.4350033"><ele>195.4</ele><time>2026-04-26T08:48:00.298Z</time></trkpt><trkpt lat="43.089195" lon="11.4349033"><ele>196.0</ele><time>2026-04-26T08:48:01.295Z</time></trkpt><trkpt lat="43.08928" lon="11.434805"><ele>194.0</ele><time>2026-04-26T08:48:02.298Z</time></trkpt><trkpt lat="43.0893683" lon="11.43471"><ele>192.0</ele><time>2026-04-26T08:48:03.295Z</time></trkpt><trkpt lat="43.0894483" lon="11.43461"><ele>190.0</ele><time>2026-04-26T08:48:04.298Z</time></trkpt><trkpt lat="43.08953" lon="11.4345167"><ele>188.0</ele><time>2026-04-26T08:48:05.298Z</time></trkpt><trkpt lat="43.0896167" lon="11.4344267"><ele>186.0</ele><time>2026-04-26T08:48:06.299Z</time></trkpt><trkpt lat="43.0897117" lon="11.4343433"><ele>186.0</ele><time>2026-04-26T08:48:07.298Z</time></trkpt><trkpt lat="43.0898067" lon="11.43427"><ele>186.0</ele><time>2026-04-26T08:48:08.297Z</time></trkpt><trkpt lat="43.0899017" lon="11.4342117"><ele>186.0</ele><time>2026-04-26T08:48:09.299Z</time></trkpt><trkpt lat="43.09" lon="11.4341667"><ele>186.0</ele><time>2026-04-26T08:48:10.299Z</time></trkpt><trkpt lat="43.0900983" lon="11.43413"><ele>186.0</ele><time>2026-04-26T08:48:11.298Z</time></trkpt><trkpt lat="43.0902017" lon="11.4341067"><ele>185.20000000000002</ele><time>2026-04-26T08:48:12.3Z</time></trkpt><trkpt lat="43.0903067" lon="11.4340867"><ele>184.4</ele><time>2026-04-26T08:48:13.298Z</time></trkpt><trkpt lat="43.0904117" lon="11.4340633"><ele>183.6</ele><time>2026-04-26T08:48:14.298Z</time></trkpt><trkpt lat="43.0905167" lon="11.4340433"><ele>182.8</ele><time>2026-04-26T08:48:15.298Z</time></trkpt><trkpt lat="43.0906217" lon="11.43404"><ele>182.0</ele><time>2026-04-26T08:48:16.299Z</time></trkpt><trkpt lat="43.0907233" lon="11.4340533"><ele>182.0</ele><time>2026-04-26T08:48:17.3Z</time></trkpt><trkpt lat="43.0908217" lon="11.43408"><ele>182.0</ele><time>2026-04-26T08:48:18.297Z</time></trkpt><trkpt lat="43.090915" lon="11.4341233"><ele>182.0</ele><time>2026-04-26T08:48:19.297Z</time></trkpt><trkpt lat="43.0910067" lon="11.4341833"><ele>182.0</ele><time>2026-04-26T08:48:20.3Z</time></trkpt><trkpt lat="43.0910967" lon="11.4342517"><ele>182.0</ele><time>2026-04-26T08:48:21.298Z</time></trkpt><trkpt lat="43.0911817" lon="11.4343217"><ele>182.0</ele><time>2026-04-26T08:48:22.302Z</time></trkpt><trkpt lat="43.0912717" lon="11.4343933"><ele>182.0</ele><time>2026-04-26T08:48:23.298Z</time></trkpt><trkpt lat="43.0913617" lon="11.4344633"><ele>182.0</ele><time>2026-04-26T08:48:24.297Z</time></trkpt><trkpt lat="43.0914533" lon="11.4345383"><ele>182.0</ele><time>2026-04-26T08:48:25.295Z</time></trkpt><trkpt lat="43.09155" lon="11.434605"><ele>182.0</ele><time>2026-04-26T08:48:26.3Z</time></trkpt><trkpt lat="43.09164" lon="11.43467"><ele>181.2</ele><time>2026-04-26T08:48:27.295Z</time></trkpt><trkpt lat="43.0917267" lon="11.4347267"><ele>180.39999999999998</ele><time>2026-04-26T08:48:28.299Z</time></trkpt><trkpt lat="43.09181" lon="11.4347783"><ele>179.60000000000002</ele><time>2026-04-26T08:48:29.299Z</time></trkpt><trkpt lat="43.0918983" lon="11.434815"><ele>178.8</ele><time>2026-04-26T08:48:30.299Z</time></trkpt><trkpt lat="43.091985" lon="11.4348383"><ele>178.0</ele><time>2026-04-26T08:48:31.297Z</time></trkpt><trkpt lat="43.0920783" lon="11.43485"><ele>178.0</ele><time>2026-04-26T08:48:32.299Z</time></trkpt><trkpt lat="43.0921767" lon="11.4348467"><ele>178.0</ele><time>2026-04-26T08:48:33.299Z</time></trkpt><trkpt lat="43.092275" lon="11.4348283"><ele>178.0</ele><time>2026-04-26T08:48:34.297Z</time></trkpt><trkpt lat="43.0923683" lon="11.4347983"><ele>178.0</ele><time>2026-04-26T08:48:35.298Z</time></trkpt><trkpt lat="43.0924617" lon="11.43476"><ele>178.0</ele><time>2026-04-26T08:48:36.295Z</time></trkpt><trkpt lat="43.0925533" lon="11.4347117"><ele>178.2</ele><time>2026-04-26T08:48:37.296Z</time></trkpt><trkpt lat="43.092645" lon="11.43465"><ele>178.4</ele><time>2026-04-26T08:48:38.297Z</time></trkpt><trkpt lat="43.0927317" lon="11.43458"><ele>178.6</ele><time>2026-04-26T08:48:39.298Z</time></trkpt><trkpt lat="43.09282" lon="11.4345"><ele>178.79999999999998</ele><time>2026-04-26T08:48:40.297Z</time></trkpt><trkpt lat="43.0929083" lon="11.4344217"><ele>179.0</ele><time>2026-04-26T08:48:41.298Z</time></trkpt><trkpt lat="43.0929967" lon="11.4343483"><ele>179.79999999999998</ele><time>2026-04-26T08:48:42.298Z</time></trkpt><trkpt lat="43.09309" lon="11.43428"><ele>180.6</ele><time>2026-04-26T08:48:43.298Z</time></trkpt><trkpt lat="43.09319" lon="11.434225"><ele>181.4</ele><time>2026-04-26T08:48:44.299Z</time></trkpt><trkpt lat="43.093295" lon="11.4341967"><ele>182.2</ele><time>2026-04-26T08:48:45.299Z</time></trkpt><trkpt lat="43.0933933" lon="11.4341883"><ele>183.0</ele><time>2026-04-26T08:48:46.298Z</time></trkpt><trkpt lat="43.09349" lon="11.434195"><ele>183.0</ele><time>2026-04-26T08:48:47.296Z</time></trkpt><trkpt lat="43.09358" lon="11.4342067"><ele>183.0</ele><time>2026-04-26T08:48:48.296Z</time></trkpt><trkpt lat="43.09367" lon="11.434215"><ele>183.0</ele><time>2026-04-26T08:48:49.296Z</time></trkpt><trkpt lat="43.09376" lon="11.4342217"><ele>183.0</ele><time>2026-04-26T08:48:50.298Z</time></trkpt><trkpt lat="43.093845" lon="11.434235"><ele>183.0</ele><time>2026-04-26T08:48:51.3Z</time></trkpt><trkpt lat="43.0939233" lon="11.4342483"><ele>183.0</ele><time>2026-04-26T08:48:52.299Z</time></trkpt><trkpt lat="43.0939917" lon="11.4342583"><ele>182.2</ele><time>2026-04-26T08:48:53.299Z</time></trkpt><trkpt lat="43.0941067" lon="11.43425"><ele>181.4</ele><time>2026-04-26T08:48:55.298Z</time></trkpt><trkpt lat="43.0941933" lon="11.4342017"><ele>180.6</ele><time>2026-04-26T08:48:57.299Z</time></trkpt><trkpt lat="43.0942433" lon="11.4340933"><ele>179.79999999999998</ele><time>2026-04-26T08:48:59.299Z</time></trkpt><trkpt lat="43.094265" lon="11.433955"><ele>179.0</ele><time>2026-04-26T08:49:01.299Z</time></trkpt><trkpt lat="43.0942333" lon="11.4337933"><ele>178.66666666666666</ele><time>2026-04-26T08:49:03.299Z</time></trkpt><trkpt lat="43.0941983" lon="11.4337067"><ele>178.33333333333331</ele><time>2026-04-26T08:49:04.298Z</time></trkpt><trkpt lat="43.0941567" lon="11.43362"><ele>178.0</ele><time>2026-04-26T08:49:05.298Z</time></trkpt><trkpt lat="43.0941117" lon="11.433535"><ele>177.66666666666666</ele><time>2026-04-26T08:49:06.298Z</time></trkpt><trkpt lat="43.0940633" lon="11.4334517"><ele>177.33333333333334</ele><time>2026-04-26T08:49:07.297Z</time></trkpt><trkpt lat="43.0940167" lon="11.4333717"><ele>177.0</ele><time>2026-04-26T08:49:08.3Z</time></trkpt><trkpt lat="43.0939667" lon="11.4332933"><ele>176.83333333333334</ele><time>2026-04-26T08:49:09.299Z</time></trkpt><trkpt lat="43.093915" lon="11.4332183"><ele>176.66666666666666</ele><time>2026-04-26T08:49:10.298Z</time></trkpt><trkpt lat="43.0938617" lon="11.4331383"><ele>176.5</ele><time>2026-04-26T08:49:11.299Z</time></trkpt><trkpt lat="43.093805" lon="11.4330583"><ele>176.33333333333331</ele><time>2026-04-26T08:49:12.297Z</time></trkpt><trkpt lat="43.0937433" lon="11.43298"><ele>176.16666666666666</ele><time>2026-04-26T08:49:13.298Z</time></trkpt><trkpt lat="43.09368" lon="11.4329067"><ele>176.0</ele><time>2026-04-26T08:49:14.298Z</time></trkpt><trkpt lat="43.0936133" lon="11.4328317"><ele>176.0</ele><time>2026-04-26T08:49:15.298Z</time></trkpt><trkpt lat="43.093545" lon="11.4327533"><ele>176.0</ele><time>2026-04-26T08:49:16.298Z</time></trkpt><trkpt lat="43.0934733" lon="11.4326667"><ele>176.0</ele><time>2026-04-26T08:49:17.297Z</time></trkpt><trkpt lat="43.0934" lon="11.432575"><ele>176.0</ele><time>2026-04-26T08:49:18.295Z</time></trkpt><trkpt lat="43.0933233" lon="11.432485"><ele>176.0</ele><time>2026-04-26T08:49:19.297Z</time></trkpt><trkpt lat="43.09325" lon="11.432395"><ele>175.4</ele><time>2026-04-26T08:49:20.298Z</time></trkpt><trkpt lat="43.0931733" lon="11.43231"><ele>174.8</ele><time>2026-04-26T08:49:21.295Z</time></trkpt><trkpt lat="43.0931" lon="11.4322233"><ele>174.20000000000002</ele><time>2026-04-26T08:49:22.296Z</time></trkpt><trkpt lat="43.0930233" lon="11.4321383"><ele>173.60000000000002</ele><time>2026-04-26T08:49:23.298Z</time></trkpt><trkpt lat="43.092945" lon="11.43206"><ele>173.0</ele><time>2026-04-26T08:49:24.295Z</time></trkpt><trkpt lat="43.0928633" lon="11.4319933"><ele>173.0</ele><time>2026-04-26T08:49:25.298Z</time></trkpt><trkpt lat="43.0927783" lon="11.43194"><ele>173.0</ele><time>2026-04-26T08:49:26.296Z</time></trkpt><trkpt lat="43.0926883" lon="11.4318983"><ele>173.0</ele><time>2026-04-26T08:49:27.298Z</time></trkpt><trkpt lat="43.0925967" lon="11.4318683"><ele>173.0</ele><time>2026-04-26T08:49:28.299Z</time></trkpt><trkpt lat="43.0925067" lon="11.43184"><ele>173.0</ele><time>2026-04-26T08:49:29.297Z</time></trkpt><trkpt lat="43.0924233" lon="11.4318017"><ele>173.33333333333331</ele><time>2026-04-26T08:49:30.298Z</time></trkpt><trkpt lat="43.0923433" lon="11.43175"><ele>173.66666666666666</ele><time>2026-04-26T08:49:31.298Z</time></trkpt><trkpt lat="43.0922767" lon="11.4316733"><ele>174.0</ele><time>2026-04-26T08:49:32.299Z</time></trkpt><trkpt lat="43.0922267" lon="11.431575"><ele>174.33333333333334</ele><time>2026-04-26T08:49:33.298Z</time></trkpt><trkpt lat="43.0922083" lon="11.4314583"><ele>174.66666666666669</ele><time>2026-04-26T08:49:34.298Z</time></trkpt><trkpt lat="43.0922133" lon="11.431335"><ele>175.0</ele><time>2026-04-26T08:49:35.298Z</time></trkpt><trkpt lat="43.0922367" lon="11.4312083"><ele>175.0</ele><time>2026-04-26T08:49:36.298Z</time></trkpt><trkpt lat="43.09227" lon="11.4310817"><ele>175.0</ele><time>2026-04-26T08:49:37.299Z</time></trkpt><trkpt lat="43.09231" lon="11.4309517"><ele>175.0</ele><time>2026-04-26T08:49:38.298Z</time></trkpt><trkpt lat="43.0923467" lon="11.4308233"><ele>175.0</ele><time>2026-04-26T08:49:39.298Z</time></trkpt><trkpt lat="43.0923867" lon="11.430695"><ele>175.0</ele><time>2026-04-26T08:49:40.298Z</time></trkpt><trkpt lat="43.09243" lon="11.4305633"><ele>174.2</ele><time>2026-04-26T08:49:41.298Z</time></trkpt><trkpt lat="43.0924683" lon="11.4304317"><ele>173.4</ele><time>2026-04-26T08:49:42.299Z</time></trkpt><trkpt lat="43.0925117" lon="11.4302983"><ele>172.60000000000002</ele><time>2026-04-26T08:49:43.299Z</time></trkpt><trkpt lat="43.092555" lon="11.4301667"><ele>171.8</ele><time>2026-04-26T08:49:44.298Z</time></trkpt><trkpt lat="43.0925983" lon="11.4300383"><ele>171.0</ele><time>2026-04-26T08:49:45.298Z</time></trkpt><trkpt lat="43.0926433" lon="11.429915"><ele>171.0</ele><time>2026-04-26T08:49:46.299Z</time></trkpt><trkpt lat="43.0926883" lon="11.4297933"><ele>171.0</ele><time>2026-04-26T08:49:47.298Z</time></trkpt><trkpt lat="43.0927317" lon="11.4296717"><ele>171.0</ele><time>2026-04-26T08:49:48.294Z</time></trkpt><trkpt lat="43.0927783" lon="11.42956"><ele>171.0</ele><time>2026-04-26T08:49:49.299Z</time></trkpt><trkpt lat="43.0928283" lon="11.429455"><ele>171.0</ele><time>2026-04-26T08:49:50.299Z</time></trkpt><trkpt lat="43.0928867" lon="11.4293583"><ele>172.0</ele><time>2026-04-26T08:49:51.299Z</time></trkpt><trkpt lat="43.0929567" lon="11.4292783"><ele>173.0</ele><time>2026-04-26T08:49:52.299Z</time></trkpt><trkpt lat="43.0930367" lon="11.4292117"><ele>174.0</ele><time>2026-04-26T08:49:53.298Z</time></trkpt><trkpt lat="43.093125" lon="11.4291767"><ele>175.0</ele><time>2026-04-26T08:49:54.297Z</time></trkpt><trkpt lat="43.0932167" lon="11.4291683"><ele>176.0</ele><time>2026-04-26T08:49:55.3Z</time></trkpt><trkpt lat="43.0933117" lon="11.4291917"><ele>176.20000000000002</ele><time>2026-04-26T08:49:56.299Z</time></trkpt><trkpt lat="43.0934033" lon="11.4292333"><ele>176.4</ele><time>2026-04-26T08:49:57.298Z</time></trkpt><trkpt lat="43.0934933" lon="11.4292767"><ele>176.6</ele><time>2026-04-26T08:49:58.297Z</time></trkpt><trkpt lat="43.0935867" lon="11.4293167"><ele>176.8</ele><time>2026-04-26T08:49:59.298Z</time></trkpt><trkpt lat="43.0936783" lon="11.42935"><ele>177.0</ele><time>2026-04-26T08:50:00.299Z</time></trkpt><trkpt lat="43.0937717" lon="11.42938"><ele>177.0</ele><time>2026-04-26T08:50:01.298Z</time></trkpt><trkpt lat="43.09386" lon="11.4294117"><ele>177.0</ele><time>2026-04-26T08:50:02.299Z</time></trkpt><trkpt lat="43.09394" lon="11.4294417"><ele>177.0</ele><time>2026-04-26T08:50:03.294Z</time></trkpt><trkpt lat="43.0940083" lon="11.4294583"><ele>177.0</ele><time>2026-04-26T08:50:04.298Z</time></trkpt><trkpt lat="43.0940717" lon="11.429455"><ele>177.0</ele><time>2026-04-26T08:50:05.298Z</time></trkpt><trkpt lat="43.0941867" lon="11.4294083"><ele>177.0</ele><time>2026-04-26T08:50:07.298Z</time></trkpt><trkpt lat="43.0942783" lon="11.429315"><ele>178.0</ele><time>2026-04-26T08:50:09.298Z</time></trkpt><trkpt lat="43.0943467" lon="11.4292"><ele>179.0</ele><time>2026-04-26T08:50:11.298Z</time></trkpt><trkpt lat="43.0944017" lon="11.4290767"><ele>180.0</ele><time>2026-04-26T08:50:13.298Z</time></trkpt><trkpt lat="43.0944517" lon="11.4289567"><ele>181.0</ele><time>2026-04-26T08:50:15.298Z</time></trkpt><trkpt lat="43.0944967" lon="11.4288483"><ele>182.0</ele><time>2026-04-26T08:50:17.298Z</time></trkpt><trkpt lat="43.0945283" lon="11.4287483"><ele>182.66666666666666</ele><time>2026-04-26T08:50:19.298Z</time></trkpt><trkpt lat="43.09455" lon="11.4286367"><ele>183.33333333333331</ele><time>2026-04-26T08:50:22.298Z</time></trkpt><trkpt lat="43.094515" lon="11.4285617"><ele>184.0</ele><time>2026-04-26T08:50:24.295Z</time></trkpt><trkpt lat="43.0944383" lon="11.4284933"><ele>184.66666666666666</ele><time>2026-04-26T08:50:26.299Z</time></trkpt><trkpt lat="43.09433" lon="11.428415"><ele>185.33333333333334</ele><time>2026-04-26T08:50:28.299Z</time></trkpt><trkpt lat="43.09427" lon="11.4283667"><ele>186.0</ele><time>2026-04-26T08:50:29.299Z</time></trkpt><trkpt lat="43.0942083" lon="11.4283183"><ele>186.0</ele><time>2026-04-26T08:50:30.299Z</time></trkpt><trkpt lat="43.094145" lon="11.4282667"><ele>186.0</ele><time>2026-04-26T08:50:31.298Z</time></trkpt><trkpt lat="43.0940683" lon="11.4282167"><ele>186.0</ele><time>2026-04-26T08:50:32.3Z</time></trkpt><trkpt lat="43.0939917" lon="11.4281617"><ele>186.0</ele><time>2026-04-26T08:50:33.299Z</time></trkpt><trkpt lat="43.0939133" lon="11.428105"><ele>186.0</ele><time>2026-04-26T08:50:34.299Z</time></trkpt><trkpt lat="43.09383" lon="11.4280483"><ele>186.0</ele><time>2026-04-26T08:50:35.298Z</time></trkpt><trkpt lat="43.0937433" lon="11.4279933"><ele>187.0</ele><time>2026-04-26T08:50:36.298Z</time></trkpt><trkpt lat="43.09366" lon="11.4279367"><ele>188.0</ele><time>2026-04-26T08:50:37.299Z</time></trkpt><trkpt lat="43.0935783" lon="11.4278767"><ele>189.0</ele><time>2026-04-26T08:50:38.298Z</time></trkpt><trkpt lat="43.0934983" lon="11.427815"><ele>190.0</ele><time>2026-04-26T08:50:39.298Z</time></trkpt><trkpt lat="43.0934133" lon="11.4277567"><ele>191.0</ele><time>2026-04-26T08:50:40.299Z</time></trkpt><trkpt lat="43.09333" lon="11.4276983"><ele>191.60000000000002</ele><time>2026-04-26T08:50:41.298Z</time></trkpt><trkpt lat="43.0932467" lon="11.427645"><ele>192.2</ele><time>2026-04-26T08:50:42.298Z</time></trkpt><trkpt lat="43.093165" lon="11.42759"><ele>192.8</ele><time>2026-04-26T08:50:43.299Z</time></trkpt><trkpt lat="43.093085" lon="11.4275233"><ele>193.39999999999998</ele><time>2026-04-26T08:50:44.299Z</time></trkpt><trkpt lat="43.0930033" lon="11.42746"><ele>194.0</ele><time>2026-04-26T08:50:45.298Z</time></trkpt><trkpt lat="43.0929233" lon="11.4273917"><ele>194.0</ele><time>2026-04-26T08:50:46.299Z</time></trkpt><trkpt lat="43.0928433" lon="11.4273267"><ele>194.0</ele><time>2026-04-26T08:50:47.299Z</time></trkpt><trkpt lat="43.0927583" lon="11.4272667"><ele>194.0</ele><time>2026-04-26T08:50:48.299Z</time></trkpt><trkpt lat="43.0926717" lon="11.4272033"><ele>194.0</ele><time>2026-04-26T08:50:49.296Z</time></trkpt><trkpt lat="43.0925733" lon="11.4271217"><ele>194.0</ele><time>2026-04-26T08:50:50.297Z</time></trkpt><trkpt lat="43.0924633" lon="11.42704"><ele>195.5</ele><time>2026-04-26T08:50:51.3Z</time></trkpt><trkpt lat="43.0923533" lon="11.4269683"><ele>197.0</ele><time>2026-04-26T08:50:52.299Z</time></trkpt><trkpt lat="43.0922467" lon="11.426895"><ele>198.5</ele><time>2026-04-26T08:50:53.299Z</time></trkpt><trkpt lat="43.0921417" lon="11.4268217"><ele>200.0</ele><time>2026-04-26T08:50:54.298Z</time></trkpt><trkpt lat="43.0920383" lon="11.42675"><ele>200.0</ele><time>2026-04-26T08:50:55.298Z</time></trkpt><trkpt lat="43.0919383" lon="11.4266783"><ele>200.0</ele><time>2026-04-26T08:50:56.299Z</time></trkpt><trkpt lat="43.0918417" lon="11.4266033"><ele>200.0</ele><time>2026-04-26T08:50:57.299Z</time></trkpt><trkpt lat="43.0917417" lon="11.4265317"><ele>200.0</ele><time>2026-04-26T08:50:58.298Z</time></trkpt><trkpt lat="43.0916467" lon="11.4264517"><ele>200.0</ele><time>2026-04-26T08:50:59.297Z</time></trkpt><trkpt lat="43.0915483" lon="11.42638"><ele>199.8</ele><time>2026-04-26T08:51:00.298Z</time></trkpt><trkpt lat="43.09145" lon="11.4263133"><ele>199.6</ele><time>2026-04-26T08:51:01.299Z</time></trkpt><trkpt lat="43.0913517" lon="11.4262433"><ele>199.39999999999998</ele><time>2026-04-26T08:51:02.298Z</time></trkpt><trkpt lat="43.091255" lon="11.4261783"><ele>199.2</ele><time>2026-04-26T08:51:03.298Z</time></trkpt><trkpt lat="43.0911633" lon="11.4261033"><ele>199.0</ele><time>2026-04-26T08:51:04.298Z</time></trkpt><trkpt lat="43.0910683" lon="11.4260417"><ele>199.79999999999998</ele><time>2026-04-26T08:51:05.299Z</time></trkpt><trkpt lat="43.090965" lon="11.4259933"><ele>200.6</ele><time>2026-04-26T08:51:06.299Z</time></trkpt><trkpt lat="43.0908617" lon="11.4259567"><ele>201.4</ele><time>2026-04-26T08:51:07.299Z</time></trkpt><trkpt lat="43.0907533" lon="11.4259233"><ele>202.2</ele><time>2026-04-26T08:51:08.298Z</time></trkpt><trkpt lat="43.090645" lon="11.4258917"><ele>203.0</ele><time>2026-04-26T08:51:09.298Z</time></trkpt><trkpt lat="43.0905383" lon="11.4258533"><ele>204.5</ele><time>2026-04-26T08:51:10.298Z</time></trkpt><trkpt lat="43.0904233" lon="11.42582"><ele>206.0</ele><time>2026-04-26T08:51:11.297Z</time></trkpt><trkpt lat="43.090305" lon="11.4257833"><ele>207.5</ele><time>2026-04-26T08:51:12.301Z</time></trkpt><trkpt lat="43.090185" lon="11.4257417"><ele>209.0</ele><time>2026-04-26T08:51:13.298Z</time></trkpt><trkpt lat="43.0900617" lon="11.4257167"><ele>209.0</ele><time>2026-04-26T08:51:14.298Z</time></trkpt><trkpt lat="43.08994" lon="11.42569"><ele>209.0</ele><time>2026-04-26T08:51:15.299Z</time></trkpt><trkpt lat="43.0898183" lon="11.425665"><ele>209.0</ele><time>2026-04-26T08:51:16.298Z</time></trkpt><trkpt lat="43.0896967" lon="11.4256367"><ele>209.0</ele><time>2026-04-26T08:51:17.298Z</time></trkpt><trkpt lat="43.0895733" lon="11.4256033"><ele>210.25</ele><time>2026-04-26T08:51:18.295Z</time></trkpt><trkpt lat="43.0894533" lon="11.425565"><ele>211.5</ele><time>2026-04-26T08:51:19.296Z</time></trkpt><trkpt lat="43.0893367" lon="11.4255317"><ele>212.75</ele><time>2026-04-26T08:51:20.297Z</time></trkpt><trkpt lat="43.089225" lon="11.4254933"><ele>214.0</ele><time>2026-04-26T08:51:21.295Z</time></trkpt><trkpt lat="43.0891283" lon="11.42545"><ele>218.33333333333331</ele><time>2026-04-26T08:51:22.296Z</time></trkpt><trkpt lat="43.0890483" lon="11.4253883"><ele>222.66666666666666</ele><time>2026-04-26T08:51:23.297Z</time></trkpt><trkpt lat="43.0889783" lon="11.4253217"><ele>227.0</ele><time>2026-04-26T08:51:24.296Z</time></trkpt><trkpt lat="43.088925" lon="11.4252333"><ele>231.33333333333331</ele><time>2026-04-26T08:51:25.296Z</time></trkpt><trkpt lat="43.0888967" lon="11.4251267"><ele>235.66666666666666</ele><time>2026-04-26T08:51:26.298Z</time></trkpt><trkpt lat="43.0888867" lon="11.4250167"><ele>240.0</ele><time>2026-04-26T08:51:27.295Z</time></trkpt><trkpt lat="43.0888917" lon="11.4248983"><ele>240.0</ele><time>2026-04-26T08:51:28.296Z</time></trkpt><trkpt lat="43.0889033" lon="11.424775"><ele>240.0</ele><time>2026-04-26T08:51:29.297Z</time></trkpt><trkpt lat="43.0889267" lon="11.4246467"><ele>240.0</ele><time>2026-04-26T08:51:30.296Z</time></trkpt><trkpt lat="43.0889633" lon="11.42451"><ele>240.0</ele><time>2026-04-26T08:51:31.3Z</time></trkpt><trkpt lat="43.0889833" lon="11.4243783"><ele>240.0</ele><time>2026-04-26T08:51:32.298Z</time></trkpt><trkpt lat="43.0890083" lon="11.4242417"><ele>239.6</ele><time>2026-04-26T08:51:33.298Z</time></trkpt><trkpt lat="43.0890383" lon="11.424105"><ele>239.2</ele><time>2026-04-26T08:51:34.298Z</time></trkpt><trkpt lat="43.0890633" lon="11.423965"><ele>238.8</ele><time>2026-04-26T08:51:35.298Z</time></trkpt><trkpt lat="43.0890867" lon="11.4238283"><ele>238.4</ele><time>2026-04-26T08:51:36.299Z</time></trkpt><trkpt lat="43.0891117" lon="11.4236967"><ele>238.0</ele><time>2026-04-26T08:51:37.298Z</time></trkpt><trkpt lat="43.0891217" lon="11.423565"><ele>238.0</ele><time>2026-04-26T08:51:38.299Z</time></trkpt><trkpt lat="43.08913" lon="11.4234383"><ele>238.0</ele><time>2026-04-26T08:51:39.298Z</time></trkpt><trkpt lat="43.0891233" lon="11.4233167"><ele>238.0</ele><time>2026-04-26T08:51:40.298Z</time></trkpt><trkpt lat="43.0891067" lon="11.4231967"><ele>238.0</ele><time>2026-04-26T08:51:41.299Z</time></trkpt><trkpt lat="43.0890767" lon="11.42308"><ele>238.0</ele><time>2026-04-26T08:51:42.299Z</time></trkpt><trkpt lat="43.08904" lon="11.4229667"><ele>243.0</ele><time>2026-04-26T08:51:43.297Z</time></trkpt><trkpt lat="43.0889967" lon="11.422845"><ele>248.0</ele><time>2026-04-26T08:51:44.298Z</time></trkpt><trkpt lat="43.088955" lon="11.422725"><ele>253.0</ele><time>2026-04-26T08:51:45.299Z</time></trkpt><trkpt lat="43.0889133" lon="11.4226067"><ele>258.0</ele><time>2026-04-26T08:51:46.298Z</time></trkpt><trkpt lat="43.0888683" lon="11.42248"><ele>263.0</ele><time>2026-04-26T08:51:47.298Z</time></trkpt><trkpt lat="43.0888217" lon="11.422355"><ele>263.0</ele><time>2026-04-26T08:51:48.296Z</time></trkpt><trkpt lat="43.0887767" lon="11.4222383"><ele>263.0</ele><time>2026-04-26T08:51:49.296Z</time></trkpt><trkpt lat="43.0887417" lon="11.4221367"><ele>263.0</ele><time>2026-04-26T08:51:50.298Z</time></trkpt><trkpt lat="43.0887067" lon="11.4220383"><ele>263.0</ele><time>2026-04-26T08:51:51.298Z</time></trkpt><trkpt lat="43.0886717" lon="11.421945"><ele>263.0</ele><time>2026-04-26T08:51:52.296Z</time></trkpt><trkpt lat="43.0886283" lon="11.4218583"><ele>263.0</ele><time>2026-04-26T08:51:53.299Z</time></trkpt><trkpt lat="43.088575" lon="11.4217817"><ele>262.1428571428571</ele><time>2026-04-26T08:51:54.296Z</time></trkpt><trkpt lat="43.088515" lon="11.421725"><ele>261.2857142857143</ele><time>2026-04-26T08:51:55.297Z</time></trkpt><trkpt lat="43.08845" lon="11.42169"><ele>260.42857142857144</ele><time>2026-04-26T08:51:56.298Z</time></trkpt><trkpt lat="43.0883817" lon="11.4216733"><ele>259.57142857142856</ele><time>2026-04-26T08:51:57.296Z</time></trkpt><trkpt lat="43.0883133" lon="11.421675"><ele>258.7142857142857</ele><time>2026-04-26T08:51:58.295Z</time></trkpt><trkpt lat="43.0882467" lon="11.4217083"><ele>257.85714285714283</ele><time>2026-04-26T08:51:59.298Z</time></trkpt><trkpt lat="43.088185" lon="11.4217667"><ele>257.0</ele><time>2026-04-26T08:52:00.299Z</time></trkpt><trkpt lat="43.0881383" lon="11.4218467"><ele>260.6666666666667</ele><time>2026-04-26T08:52:01.298Z</time></trkpt><trkpt lat="43.0881083" lon="11.4219417"><ele>264.33333333333337</ele><time>2026-04-26T08:52:02.298Z</time></trkpt><trkpt lat="43.0880833" lon="11.42204"><ele>268.0</ele><time>2026-04-26T08:52:03.298Z</time></trkpt><trkpt lat="43.0880683" lon="11.4221467"><ele>271.6666666666667</ele><time>2026-04-26T08:52:04.296Z</time></trkpt><trkpt lat="43.0880517" lon="11.4222567"><ele>275.3333333333333</ele><time>2026-04-26T08:52:05.298Z</time></trkpt><trkpt lat="43.08803" lon="11.42237"><ele>279.0</ele><time>2026-04-26T08:52:06.298Z</time></trkpt><trkpt lat="43.0880033" lon="11.4224917"><ele>279.59999999999997</ele><time>2026-04-26T08:52:07.299Z</time></trkpt><trkpt lat="43.0879767" lon="11.4226217"><ele>280.2</ele><time>2026-04-26T08:52:08.297Z</time></trkpt><trkpt lat="43.0879517" lon="11.42275"><ele>280.79999999999995</ele><time>2026-04-26T08:52:09.296Z</time></trkpt><trkpt lat="43.087925" lon="11.4228783"><ele>281.4</ele><time>2026-04-26T08:52:10.298Z</time></trkpt><trkpt lat="43.08789" lon="11.4229967"><ele>282.0</ele><time>2026-04-26T08:52:11.295Z</time></trkpt><trkpt lat="43.087855" lon="11.4231067"><ele>282.1666666666667</ele><time>2026-04-26T08:52:12.298Z</time></trkpt><trkpt lat="43.0878133" lon="11.4232067"><ele>282.3333333333333</ele><time>2026-04-26T08:52:13.303Z</time></trkpt><trkpt lat="43.0877683" lon="11.4233017"><ele>282.5</ele><time>2026-04-26T08:52:14.298Z</time></trkpt><trkpt lat="43.0877317" lon="11.4233933"><ele>282.66666666666663</ele><time>2026-04-26T08:52:15.295Z</time></trkpt><trkpt lat="43.0876917" lon="11.4234617"><ele>282.8333333333333</ele><time>2026-04-26T08:52:16.299Z</time></trkpt><trkpt lat="43.087585" lon="11.42351"><ele>283.0</ele><time>2026-04-26T08:52:18.294Z</time></trkpt><trkpt lat="43.0874983" lon="11.423475"><ele>283.0</ele><time>2026-04-26T08:52:20.297Z</time></trkpt><trkpt lat="43.0874567" lon="11.4233433"><ele>283.0</ele><time>2026-04-26T08:52:22.297Z</time></trkpt><trkpt lat="43.08746" lon="11.4232417"><ele>283.0</ele><time>2026-04-26T08:52:23.296Z</time></trkpt><trkpt lat="43.087445" lon="11.4231367"><ele>283.0</ele><time>2026-04-26T08:52:24.296Z</time></trkpt><trkpt lat="43.0874233" lon="11.423025"><ele>283.0</ele><time>2026-04-26T08:52:25.298Z</time></trkpt><trkpt lat="43.0873983" lon="11.4229217"><ele>283.0</ele><time>2026-04-26T08:52:26.297Z</time></trkpt><trkpt lat="43.087375" lon="11.4228333"><ele>288.4</ele><time>2026-04-26T08:52:27.295Z</time></trkpt><trkpt lat="43.087315" lon="11.422695"><ele>293.8</ele><time>2026-04-26T08:52:29.298Z</time></trkpt><trkpt lat="43.0872533" lon="11.42265"><ele>299.2</ele><time>2026-04-26T08:52:31.299Z</time></trkpt><trkpt lat="43.0871567" lon="11.4227183"><ele>304.6</ele><time>2026-04-26T08:52:33.298Z</time></trkpt><trkpt lat="43.087125" lon="11.4228233"><ele>310.0</ele><time>2026-04-26T08:52:34.299Z</time></trkpt><trkpt lat="43.08709" lon="11.4229267"><ele>310.0</ele><time>2026-04-26T08:52:35.298Z</time></trkpt><trkpt lat="43.0870683" lon="11.4230517"><ele>310.0</ele><time>2026-04-26T08:52:36.299Z</time></trkpt><trkpt lat="43.087055" lon="11.4231717"><ele>310.0</ele><time>2026-04-26T08:52:37.298Z</time></trkpt><trkpt lat="43.0870333" lon="11.4232883"><ele>310.0</ele><time>2026-04-26T08:52:38.298Z</time></trkpt><trkpt lat="43.0870133" lon="11.4233967"><ele>310.0</ele><time>2026-04-26T08:52:39.298Z</time></trkpt><trkpt lat="43.086985" lon="11.42351"><ele>310.0</ele><time>2026-04-26T08:52:40.299Z</time></trkpt><trkpt lat="43.08695" lon="11.42361"><ele>310.0</ele><time>2026-04-26T08:52:41.298Z</time></trkpt><trkpt lat="43.086905" lon="11.4237"><ele>310.0</ele><time>2026-04-26T08:52:42.295Z</time></trkpt><trkpt lat="43.0868517" lon="11.42377"><ele>310.0</ele><time>2026-04-26T08:52:43.298Z</time></trkpt><trkpt lat="43.0868" lon="11.423825"><ele>310.0</ele><time>2026-04-26T08:52:44.299Z</time></trkpt><trkpt lat="43.08668" lon="11.4238617"><ele>310.0</ele><time>2026-04-26T08:52:46.301Z</time></trkpt><trkpt lat="43.0866117" lon="11.423845"><ele>310.0</ele><time>2026-04-26T08:52:47.297Z</time></trkpt><trkpt lat="43.0865417" lon="11.4238183"><ele>312.7142857142857</ele><time>2026-04-26T08:52:48.295Z</time></trkpt><trkpt lat="43.08648" lon="11.4237833"><ele>315.42857142857144</ele><time>2026-04-26T08:52:49.296Z</time></trkpt><trkpt lat="43.086425" lon="11.4237317"><ele>318.1428571428571</ele><time>2026-04-26T08:52:50.297Z</time></trkpt><trkpt lat="43.08639" lon="11.42366"><ele>320.8571428571429</ele><time>2026-04-26T08:52:51.296Z</time></trkpt><trkpt lat="43.0863767" lon="11.4235017"><ele>323.57142857142856</ele><time>2026-04-26T08:52:53.296Z</time></trkpt><trkpt lat="43.0863933" lon="11.4234133"><ele>326.2857142857143</ele><time>2026-04-26T08:52:54.296Z</time></trkpt><trkpt lat="43.086425" lon="11.4233333"><ele>329.0</ele><time>2026-04-26T08:52:55.296Z</time></trkpt><trkpt lat="43.0864583" lon="11.4232483"><ele>329.0</ele><time>2026-04-26T08:52:56.296Z</time></trkpt><trkpt lat="43.0864867" lon="11.4231583"><ele>329.0</ele><time>2026-04-26T08:52:57.296Z</time></trkpt><trkpt lat="43.08651" lon="11.4230717"><ele>329.0</ele><time>2026-04-26T08:52:58.296Z</time></trkpt><trkpt lat="43.0865217" lon="11.4229833"><ele>329.0</ele><time>2026-04-26T08:52:59.299Z</time></trkpt><trkpt lat="43.08652" lon="11.4228967"><ele>329.0</ele><time>2026-04-26T08:53:00.297Z</time></trkpt><trkpt lat="43.0865033" lon="11.4227467"><ele>329.0</ele><time>2026-04-26T08:53:02.3Z</time></trkpt><trkpt lat="43.0864517" lon="11.4226467"><ele>328.83333333333337</ele><time>2026-04-26T08:53:04.299Z</time></trkpt><trkpt lat="43.0863433" lon="11.4226017"><ele>328.6666666666667</ele><time>2026-04-26T08:53:06.299Z</time></trkpt><trkpt lat="43.0862317" lon="11.422655"><ele>328.5</ele><time>2026-04-26T08:53:08.3Z</time></trkpt><trkpt lat="43.0861767" lon="11.42272"><ele>328.3333333333333</ele><time>2026-04-26T08:53:09.298Z</time></trkpt><trkpt lat="43.0861367" lon="11.4227967"><ele>328.16666666666663</ele><time>2026-04-26T08:53:10.298Z</time></trkpt><trkpt lat="43.086095" lon="11.422875"><ele>328.0</ele><time>2026-04-26T08:53:11.3Z</time></trkpt><trkpt lat="43.086055" lon="11.422955"><ele>328.16666666666663</ele><time>2026-04-26T08:53:12.298Z</time></trkpt><trkpt lat="43.0860167" lon="11.4230333"><ele>328.3333333333333</ele><time>2026-04-26T08:53:13.298Z</time></trkpt><trkpt lat="43.085975" lon="11.4231117"><ele>328.5</ele><time>2026-04-26T08:53:14.299Z</time></trkpt><trkpt lat="43.08593" lon="11.4231817"><ele>328.6666666666667</ele><time>2026-04-26T08:53:15.298Z</time></trkpt><trkpt lat="43.085875" lon="11.4232383"><ele>328.83333333333337</ele><time>2026-04-26T08:53:16.299Z</time></trkpt><trkpt lat="43.08576" lon="11.4232817"><ele>329.0</ele><time>2026-04-26T08:53:18.294Z</time></trkpt><trkpt lat="43.0856467" lon="11.42322"><ele>331.6666666666667</ele><time>2026-04-26T08:53:20.297Z</time></trkpt><trkpt lat="43.0855967" lon="11.42313"><ele>334.33333333333337</ele><time>2026-04-26T08:53:21.296Z</time></trkpt><trkpt lat="43.0855583" lon="11.4230317"><ele>337.0</ele><time>2026-04-26T08:53:22.297Z</time></trkpt><trkpt lat="43.0855233" lon="11.422925"><ele>339.6666666666667</ele><time>2026-04-26T08:53:23.298Z</time></trkpt><trkpt lat="43.0854917" lon="11.4228083"><ele>342.3333333333333</ele><time>2026-04-26T08:53:24.299Z</time></trkpt><trkpt lat="43.0854617" lon="11.422675"><ele>345.0</ele><time>2026-04-26T08:53:25.298Z</time></trkpt><trkpt lat="43.08543" lon="11.4225367"><ele>345.8</ele><time>2026-04-26T08:53:26.299Z</time></trkpt><trkpt lat="43.085395" lon="11.4223967"><ele>346.6</ele><time>2026-04-26T08:53:27.298Z</time></trkpt><trkpt lat="43.085355" lon="11.4222683"><ele>347.4</ele><time>2026-04-26T08:53:28.298Z</time></trkpt><trkpt lat="43.0853117" lon="11.4221533"><ele>348.2</ele><time>2026-04-26T08:53:29.299Z</time></trkpt><trkpt lat="43.0852617" lon="11.4220483"><ele>349.0</ele><time>2026-04-26T08:53:30.299Z</time></trkpt><trkpt lat="43.0851967" lon="11.4219583"><ele>348.2</ele><time>2026-04-26T08:53:31.299Z</time></trkpt><trkpt lat="43.0851217" lon="11.4218783"><ele>347.4</ele><time>2026-04-26T08:53:32.299Z</time></trkpt><trkpt lat="43.085045" lon="11.4218067"><ele>346.6</ele><time>2026-04-26T08:53:33.298Z</time></trkpt><trkpt lat="43.0849583" lon="11.42175"><ele>345.8</ele><time>2026-04-26T08:53:34.298Z</time></trkpt><trkpt lat="43.08486" lon="11.42171"><ele>345.0</ele><time>2026-04-26T08:53:35.298Z</time></trkpt><trkpt lat="43.0847617" lon="11.4216717"><ele>345.0</ele><time>2026-04-26T08:53:36.299Z</time></trkpt><trkpt lat="43.08466" lon="11.4216383"><ele>345.0</ele><time>2026-04-26T08:53:37.299Z</time></trkpt><trkpt lat="43.08456" lon="11.4215967"><ele>345.0</ele><time>2026-04-26T08:53:38.298Z</time></trkpt><trkpt lat="43.0844583" lon="11.4215583"><ele>345.0</ele><time>2026-04-26T08:53:39.298Z</time></trkpt><trkpt lat="43.0843633" lon="11.4215083"><ele>345.0</ele><time>2026-04-26T08:53:40.299Z</time></trkpt><trkpt lat="43.0842733" lon="11.4214433"><ele>345.0</ele><time>2026-04-26T08:53:41.298Z</time></trkpt><trkpt lat="43.0841817" lon="11.4213733"><ele>345.0</ele><time>2026-04-26T08:53:42.299Z</time></trkpt><trkpt lat="43.08409" lon="11.421295"><ele>345.0</ele><time>2026-04-26T08:53:43.299Z</time></trkpt><trkpt lat="43.0840033" lon="11.4212267"><ele>345.0</ele><time>2026-04-26T08:53:44.299Z</time></trkpt><trkpt lat="43.0839167" lon="11.42116"><ele>345.0</ele><time>2026-04-26T08:53:45.298Z</time></trkpt><trkpt lat="43.0838317" lon="11.4210917"><ele>345.4</ele><time>2026-04-26T08:53:46.298Z</time></trkpt><trkpt lat="43.0837433" lon="11.4210317"><ele>345.8</ele><time>2026-04-26T08:53:47.297Z</time></trkpt><trkpt lat="43.0836517" lon="11.4209767"><ele>346.20000000000005</ele><time>2026-04-26T08:53:48.296Z</time></trkpt><trkpt lat="43.0835583" lon="11.4209317"><ele>346.6</ele><time>2026-04-26T08:53:49.297Z</time></trkpt><trkpt lat="43.0834617" lon="11.4209017"><ele>347.0</ele><time>2026-04-26T08:53:50.296Z</time></trkpt><trkpt lat="43.0833633" lon="11.4208717"><ele>348.6</ele><time>2026-04-26T08:53:51.295Z</time></trkpt><trkpt lat="43.0832617" lon="11.4208417"><ele>350.20000000000005</ele><time>2026-04-26T08:53:52.296Z</time></trkpt><trkpt lat="43.083155" lon="11.42081"><ele>351.8</ele><time>2026-04-26T08:53:53.297Z</time></trkpt><trkpt lat="43.0830467" lon="11.420775"><ele>353.4</ele><time>2026-04-26T08:53:54.299Z</time></trkpt><trkpt lat="43.0829333" lon="11.4207367"><ele>355.0</ele><time>2026-04-26T08:53:55.299Z</time></trkpt><trkpt lat="43.0828217" lon="11.4206917"><ele>355.0</ele><time>2026-04-26T08:53:56.298Z</time></trkpt><trkpt lat="43.0827117" lon="11.4206533"><ele>355.0</ele><time>2026-04-26T08:53:57.298Z</time></trkpt><trkpt lat="43.0826067" lon="11.4206217"><ele>355.0</ele><time>2026-04-26T08:53:58.298Z</time></trkpt><trkpt lat="43.0825017" lon="11.4205867"><ele>355.0</ele><time>2026-04-26T08:53:59.299Z</time></trkpt><trkpt lat="43.0823983" lon="11.4205617"><ele>355.0</ele><time>2026-04-26T08:54:00.298Z</time></trkpt><trkpt lat="43.0822883" lon="11.42055"><ele>354.8</ele><time>2026-04-26T08:54:01.298Z</time></trkpt><trkpt lat="43.08217" lon="11.4205483"><ele>354.6</ele><time>2026-04-26T08:54:02.299Z</time></trkpt><trkpt lat="43.08206" lon="11.42054"><ele>354.4</ele><time>2026-04-26T08:54:03.299Z</time></trkpt><trkpt lat="43.0819533" lon="11.4205267"><ele>354.2</ele><time>2026-04-26T08:54:04.299Z</time></trkpt><trkpt lat="43.0818483" lon="11.420495"><ele>354.0</ele><time>2026-04-26T08:54:05.298Z</time></trkpt><trkpt lat="43.0817517" lon="11.4204467"><ele>355.0</ele><time>2026-04-26T08:54:06.295Z</time></trkpt><trkpt lat="43.0816617" lon="11.4203867"><ele>356.0</ele><time>2026-04-26T08:54:07.297Z</time></trkpt><trkpt lat="43.0815767" lon="11.420315"><ele>357.0</ele><time>2026-04-26T08:54:08.3Z</time></trkpt><trkpt lat="43.0815017" lon="11.42022"><ele>358.0</ele><time>2026-04-26T08:54:09.295Z</time></trkpt><trkpt lat="43.0814283" lon="11.42012"><ele>359.0</ele><time>2026-04-26T08:54:10.299Z</time></trkpt><trkpt lat="43.081365" lon="11.420015"><ele>360.4</ele><time>2026-04-26T08:54:11.299Z</time></trkpt><trkpt lat="43.0813083" lon="11.4199067"><ele>361.79999999999995</ele><time>2026-04-26T08:54:12.299Z</time></trkpt><trkpt lat="43.0812533" lon="11.4198033"><ele>363.20000000000005</ele><time>2026-04-26T08:54:13.298Z</time></trkpt><trkpt lat="43.0811933" lon="11.4197083"><ele>364.6</ele><time>2026-04-26T08:54:14.298Z</time></trkpt><trkpt lat="43.0811283" lon="11.4196217"><ele>366.0</ele><time>2026-04-26T08:54:15.298Z</time></trkpt><trkpt lat="43.081055" lon="11.419545"><ele>366.0</ele><time>2026-04-26T08:54:16.299Z</time></trkpt><trkpt lat="43.08097" lon="11.4194817"><ele>366.0</ele><time>2026-04-26T08:54:17.299Z</time></trkpt><trkpt lat="43.0808817" lon="11.419435"><ele>366.0</ele><time>2026-04-26T08:54:18.297Z</time></trkpt><trkpt lat="43.0807917" lon="11.4194017"><ele>366.0</ele><time>2026-04-26T08:54:19.297Z</time></trkpt><trkpt lat="43.0807" lon="11.41938"><ele>366.0</ele><time>2026-04-26T08:54:20.299Z</time></trkpt><trkpt lat="43.080605" lon="11.419365"><ele>369.8</ele><time>2026-04-26T08:54:21.298Z</time></trkpt><trkpt lat="43.0805067" lon="11.4193483"><ele>373.6</ele><time>2026-04-26T08:54:22.298Z</time></trkpt><trkpt lat="43.0804083" lon="11.4193217"><ele>377.4</ele><time>2026-04-26T08:54:23.298Z</time></trkpt><trkpt lat="43.08032" lon="11.4192767"><ele>381.2</ele><time>2026-04-26T08:54:24.298Z</time></trkpt><trkpt lat="43.08025" lon="11.4192"><ele>385.0</ele><time>2026-04-26T08:54:25.297Z</time></trkpt><trkpt lat="43.0801933" lon="11.4191117"><ele>385.00000000000006</ele><time>2026-04-26T08:54:26.299Z</time></trkpt><trkpt lat="43.08015" lon="11.419015"><ele>385.0</ele><time>2026-04-26T08:54:27.298Z</time></trkpt><trkpt lat="43.0801083" lon="11.4189217"><ele>385.0</ele><time>2026-04-26T08:54:28.299Z</time></trkpt><trkpt lat="43.080065" lon="11.4188333"><ele>385.0</ele><time>2026-04-26T08:54:29.299Z</time></trkpt><trkpt lat="43.08" lon="11.4187533"><ele>385.00000000000006</ele><time>2026-04-26T08:54:30.298Z</time></trkpt><trkpt lat="43.0799283" lon="11.4186833"><ele>385.0</ele><time>2026-04-26T08:54:31.296Z</time></trkpt><trkpt lat="43.0798483" lon="11.41862"><ele>387.4</ele><time>2026-04-26T08:54:32.298Z</time></trkpt><trkpt lat="43.07976" lon="11.4185683"><ele>389.8</ele><time>2026-04-26T08:54:33.298Z</time></trkpt><trkpt lat="43.0796633" lon="11.4185233"><ele>392.20000000000005</ele><time>2026-04-26T08:54:34.298Z</time></trkpt><trkpt lat="43.0795667" lon="11.4184833"><ele>394.6</ele><time>2026-04-26T08:54:35.299Z</time></trkpt><trkpt lat="43.0794717" lon="11.41844"><ele>397.0</ele><time>2026-04-26T08:54:36.299Z</time></trkpt><trkpt lat="43.07938" lon="11.4183933"><ele>397.00000000000006</ele><time>2026-04-26T08:54:37.296Z</time></trkpt><trkpt lat="43.07929" lon="11.4183467"><ele>397.0</ele><time>2026-04-26T08:54:38.298Z</time></trkpt><trkpt lat="43.07921" lon="11.4182933"><ele>397.0</ele><time>2026-04-26T08:54:39.298Z</time></trkpt><trkpt lat="43.0791333" lon="11.41823"><ele>397.0</ele><time>2026-04-26T08:54:40.299Z</time></trkpt><trkpt lat="43.0790717" lon="11.4181583"><ele>397.00000000000006</ele><time>2026-04-26T08:54:41.299Z</time></trkpt><trkpt lat="43.0790117" lon="11.4180917"><ele>397.0</ele><time>2026-04-26T08:54:42.298Z</time></trkpt><trkpt lat="43.0789517" lon="11.41803"><ele>396.6666666666667</ele><time>2026-04-26T08:54:43.298Z</time></trkpt><trkpt lat="43.07888" lon="11.4179817"><ele>396.33333333333337</ele><time>2026-04-26T08:54:44.298Z</time></trkpt><trkpt lat="43.0787967" lon="11.4179483"><ele>396.0</ele><time>2026-04-26T08:54:45.299Z</time></trkpt><trkpt lat="43.0787083" lon="11.4179233"><ele>395.66666666666663</ele><time>2026-04-26T08:54:46.298Z</time></trkpt><trkpt lat="43.0786167" lon="11.417915"><ele>395.3333333333333</ele><time>2026-04-26T08:54:47.299Z</time></trkpt><trkpt lat="43.0785233" lon="11.41791"><ele>395.0</ele><time>2026-04-26T08:54:48.295Z</time></trkpt><trkpt lat="43.078425" lon="11.4179133"><ele>395.0</ele><time>2026-04-26T08:54:49.298Z</time></trkpt><trkpt lat="43.0783283" lon="11.4179083"><ele>395.0</ele><time>2026-04-26T08:54:50.3Z</time></trkpt><trkpt lat="43.078235" lon="11.4178917"><ele>395.0</ele><time>2026-04-26T08:54:51.296Z</time></trkpt><trkpt lat="43.0781417" lon="11.41788"><ele>395.0</ele><time>2026-04-26T08:54:52.296Z</time></trkpt><trkpt lat="43.0780533" lon="11.4178717"><ele>395.0</ele><time>2026-04-26T08:54:53.298Z</time></trkpt><trkpt lat="43.07797" lon="11.4178683"><ele>397.3333333333333</ele><time>2026-04-26T08:54:54.299Z</time></trkpt><trkpt lat="43.07789" lon="11.4178733"><ele>399.66666666666663</ele><time>2026-04-26T08:54:55.296Z</time></trkpt><trkpt lat="43.07781" lon="11.4178817"><ele>402.0</ele><time>2026-04-26T08:54:56.299Z</time></trkpt><trkpt lat="43.0777267" lon="11.4178883"><ele>404.33333333333337</ele><time>2026-04-26T08:54:57.298Z</time></trkpt><trkpt lat="43.077645" lon="11.41789"><ele>406.6666666666667</ele><time>2026-04-26T08:54:58.298Z</time></trkpt><trkpt lat="43.0775617" lon="11.41788"><ele>409.0</ele><time>2026-04-26T08:54:59.298Z</time></trkpt><trkpt lat="43.07748" lon="11.4178583"><ele>412.00000000000006</ele><time>2026-04-26T08:55:00.298Z</time></trkpt><trkpt lat="43.0773983" lon="11.4178267"><ele>415.0</ele><time>2026-04-26T08:55:01.299Z</time></trkpt><trkpt lat="43.0773167" lon="11.4177833"><ele>418.0</ele><time>2026-04-26T08:55:02.299Z</time></trkpt><trkpt lat="43.07724" lon="11.417735"><ele>421.0</ele><time>2026-04-26T08:55:03.298Z</time></trkpt><trkpt lat="43.0771667" lon="11.4176867"><ele>424.00000000000006</ele><time>2026-04-26T08:55:04.298Z</time></trkpt><trkpt lat="43.077105" lon="11.4176367"><ele>427.0</ele><time>2026-04-26T08:55:05.298Z</time></trkpt><trkpt lat="43.0770067" lon="11.4175467"><ele>427.00000000000006</ele><time>2026-04-26T08:55:07.3Z</time></trkpt><trkpt lat="43.0769233" lon="11.4174117"><ele>427.0</ele><time>2026-04-26T08:55:09.298Z</time></trkpt><trkpt lat="43.0768883" lon="11.4173233"><ele>427.0</ele><time>2026-04-26T08:55:10.298Z</time></trkpt><trkpt lat="43.0768617" lon="11.41723"><ele>427.0</ele><time>2026-04-26T08:55:11.298Z</time></trkpt><trkpt lat="43.0768317" lon="11.4171383"><ele>427.00000000000006</ele><time>2026-04-26T08:55:12.299Z</time></trkpt><trkpt lat="43.0768033" lon="11.4170483"><ele>427.0</ele><time>2026-04-26T08:55:13.298Z</time></trkpt><trkpt lat="43.076765" lon="11.4169733"><ele>427.50000000000006</ele><time>2026-04-26T08:55:14.301Z</time></trkpt><trkpt lat="43.07672" lon="11.4169117"><ele>428.0</ele><time>2026-04-26T08:55:15.298Z</time></trkpt><trkpt lat="43.0766033" lon="11.4168417"><ele>428.5</ele><time>2026-04-26T08:55:17.3Z</time></trkpt><trkpt lat="43.0765367" lon="11.4168233"><ele>429.0</ele><time>2026-04-26T08:55:18.298Z</time></trkpt><trkpt lat="43.076465" lon="11.4168067"><ele>429.50000000000006</ele><time>2026-04-26T08:55:19.299Z</time></trkpt><trkpt lat="43.0763933" lon="11.41679"><ele>430.0</ele><time>2026-04-26T08:55:20.298Z</time></trkpt><trkpt lat="43.076315" lon="11.416775"><ele>430.00000000000006</ele><time>2026-04-26T08:55:21.298Z</time></trkpt><trkpt lat="43.076235" lon="11.4167483"><ele>430.0</ele><time>2026-04-26T08:55:22.296Z</time></trkpt><trkpt lat="43.076155" lon="11.4167167"><ele>430.0</ele><time>2026-04-26T08:55:23.298Z</time></trkpt><trkpt lat="43.076075" lon="11.4166767"><ele>430.0</ele><time>2026-04-26T08:55:24.298Z</time></trkpt><trkpt lat="43.07599" lon="11.4166283"><ele>430.00000000000006</ele><time>2026-04-26T08:55:25.298Z</time></trkpt><trkpt lat="43.0759133" lon="11.4165717"><ele>430.0</ele><time>2026-04-26T08:55:26.298Z</time></trkpt><trkpt lat="43.0758367" lon="11.4165133"><ele>430.6666666666667</ele><time>2026-04-26T08:55:27.302Z</time></trkpt><trkpt lat="43.07576" lon="11.416455"><ele>431.33333333333337</ele><time>2026-04-26T08:55:28.299Z</time></trkpt><trkpt lat="43.07568" lon="11.4164"><ele>432.0</ele><time>2026-04-26T08:55:29.297Z</time></trkpt><trkpt lat="43.0756033" lon="11.4163433"><ele>432.66666666666663</ele><time>2026-04-26T08:55:30.299Z</time></trkpt><trkpt lat="43.0755217" lon="11.41629"><ele>433.3333333333333</ele><time>2026-04-26T08:55:31.299Z</time></trkpt><trkpt lat="43.0754417" lon="11.4162383"><ele>434.0</ele><time>2026-04-26T08:55:32.299Z</time></trkpt><trkpt lat="43.0753667" lon="11.41618"><ele>434.16666666666663</ele><time>2026-04-26T08:55:33.298Z</time></trkpt><trkpt lat="43.0752917" lon="11.4161217"><ele>434.3333333333333</ele><time>2026-04-26T08:55:34.298Z</time></trkpt><trkpt lat="43.0752233" lon="11.4160567"><ele>434.5</ele><time>2026-04-26T08:55:35.299Z</time></trkpt><trkpt lat="43.0751567" lon="11.416"><ele>434.66666666666663</ele><time>2026-04-26T08:55:36.299Z</time></trkpt><trkpt lat="43.0750833" lon="11.41595"><ele>434.8333333333333</ele><time>2026-04-26T08:55:37.299Z</time></trkpt><trkpt lat="43.075005" lon="11.4159083"><ele>435.0</ele><time>2026-04-26T08:55:38.299Z</time></trkpt><trkpt lat="43.0749283" lon="11.41587"><ele>435.8333333333333</ele><time>2026-04-26T08:55:39.299Z</time></trkpt><trkpt lat="43.07485" lon="11.4158317"><ele>436.66666666666663</ele><time>2026-04-26T08:55:40.299Z</time></trkpt><trkpt lat="43.0747683" lon="11.4158083"><ele>437.5</ele><time>2026-04-26T08:55:41.299Z</time></trkpt><trkpt lat="43.0746883" lon="11.4157867"><ele>438.3333333333333</ele><time>2026-04-26T08:55:42.299Z</time></trkpt><trkpt lat="43.0746083" lon="11.415765"><ele>439.16666666666663</ele><time>2026-04-26T08:55:43.299Z</time></trkpt><trkpt lat="43.0745333" lon="11.4157417"><ele>440.0</ele><time>2026-04-26T08:55:44.3Z</time></trkpt><trkpt lat="43.0744633" lon="11.4157033"><ele>439.99999999999994</ele><time>2026-04-26T08:55:45.298Z</time></trkpt><trkpt lat="43.0744017" lon="11.4156433"><ele>440.0</ele><time>2026-04-26T08:55:46.299Z</time></trkpt><trkpt lat="43.0743617" lon="11.4155633"><ele>440.0</ele><time>2026-04-26T08:55:47.299Z</time></trkpt><trkpt lat="43.07433" lon="11.4154683"><ele>440.0</ele><time>2026-04-26T08:55:48.299Z</time></trkpt><trkpt lat="43.07432" lon="11.4153733"><ele>440.0</ele><time>2026-04-26T08:55:49.298Z</time></trkpt><trkpt lat="43.0743267" lon="11.4152717"><ele>439.99999999999994</ele><time>2026-04-26T08:55:50.298Z</time></trkpt><trkpt lat="43.0743267" lon="11.415175"><ele>440.0</ele><time>2026-04-26T08:55:51.298Z</time></trkpt><trkpt lat="43.0743217" lon="11.41508"><ele>441.4285714285714</ele><time>2026-04-26T08:55:52.299Z</time></trkpt><trkpt lat="43.0743067" lon="11.4149833"><ele>442.8571428571429</ele><time>2026-04-26T08:55:53.298Z</time></trkpt><trkpt lat="43.0742883" lon="11.4148833"><ele>444.28571428571433</ele><time>2026-04-26T08:55:54.298Z</time></trkpt><trkpt lat="43.074265" lon="11.4147833"><ele>445.7142857142857</ele><time>2026-04-26T08:55:55.299Z</time></trkpt><trkpt lat="43.0742417" lon="11.4146883"><ele>447.14285714285717</ele><time>2026-04-26T08:55:56.3Z</time></trkpt><trkpt lat="43.074215" lon="11.4146017"><ele>448.5714285714286</ele><time>2026-04-26T08:55:57.295Z</time></trkpt><trkpt lat="43.0741817" lon="11.414525"><ele>450.00000000000006</ele><time>2026-04-26T08:55:58.298Z</time></trkpt><trkpt lat="43.07408" lon="11.4144133"><ele>453.0</ele><time>2026-04-26T08:56:00.298Z</time></trkpt><trkpt lat="43.074" lon="11.41439"><ele>456.0</ele><time>2026-04-26T08:56:01.298Z</time></trkpt><trkpt lat="43.0739217" lon="11.4143767"><ele>459.0</ele><time>2026-04-26T08:56:02.298Z</time></trkpt><trkpt lat="43.0738433" lon="11.4143733"><ele>462.0</ele><time>2026-04-26T08:56:03.3Z</time></trkpt><trkpt lat="43.07377" lon="11.4143733"><ele>465.0</ele><time>2026-04-26T08:56:04.299Z</time></trkpt><trkpt lat="43.0736967" lon="11.414375"><ele>468.0</ele><time>2026-04-26T08:56:05.299Z</time></trkpt><trkpt lat="43.0736233" lon="11.4143717"><ele>468.0</ele><time>2026-04-26T08:56:06.298Z</time></trkpt><trkpt lat="43.07355" lon="11.414355"><ele>468.0</ele><time>2026-04-26T08:56:07.298Z</time></trkpt><trkpt lat="43.0734733" lon="11.4143317"><ele>468.0</ele><time>2026-04-26T08:56:08.298Z</time></trkpt><trkpt lat="43.073395" lon="11.4143067"><ele>468.0</ele><time>2026-04-26T08:56:09.299Z</time></trkpt><trkpt lat="43.0733133" lon="11.4142883"><ele>468.0</ele><time>2026-04-26T08:56:10.299Z</time></trkpt><trkpt lat="43.07323" lon="11.4142717"><ele>468.0</ele><time>2026-04-26T08:56:11.298Z</time></trkpt><trkpt lat="43.0731483" lon="11.4142583"><ele>469.5</ele><time>2026-04-26T08:56:12.299Z</time></trkpt><trkpt lat="43.0730633" lon="11.4142583"><ele>471.0</ele><time>2026-04-26T08:56:13.299Z</time></trkpt><trkpt lat="43.0729833" lon="11.4142617"><ele>472.5</ele><time>2026-04-26T08:56:14.299Z</time></trkpt><trkpt lat="43.0729083" lon="11.41427"><ele>474.0</ele><time>2026-04-26T08:56:15.298Z</time></trkpt><trkpt lat="43.0728317" lon="11.4142733"><ele>475.5</ele><time>2026-04-26T08:56:16.3Z</time></trkpt><trkpt lat="43.072755" lon="11.414275"><ele>477.0</ele><time>2026-04-26T08:56:17.298Z</time></trkpt><trkpt lat="43.0726783" lon="11.4142683"><ele>477.0</ele><time>2026-04-26T08:56:18.298Z</time></trkpt><trkpt lat="43.0725983" lon="11.414245"><ele>477.0</ele><time>2026-04-26T08:56:19.298Z</time></trkpt><trkpt lat="43.0725217" lon="11.4142133"><ele>477.0</ele><time>2026-04-26T08:56:20.299Z</time></trkpt><trkpt lat="43.0724467" lon="11.41417"><ele>477.0</ele><time>2026-04-26T08:56:21.299Z</time></trkpt><trkpt lat="43.072375" lon="11.414125"><ele>477.0</ele><time>2026-04-26T08:56:22.298Z</time></trkpt><trkpt lat="43.072305" lon="11.4140817"><ele>477.0</ele><time>2026-04-26T08:56:23.298Z</time></trkpt><trkpt lat="43.0722317" lon="11.4140333"><ele>476.6666666666667</ele><time>2026-04-26T08:56:24.299Z</time></trkpt><trkpt lat="43.0721517" lon="11.4139867"><ele>476.33333333333337</ele><time>2026-04-26T08:56:25.298Z</time></trkpt><trkpt lat="43.0720667" lon="11.4139433"><ele>476.0</ele><time>2026-04-26T08:56:26.298Z</time></trkpt><trkpt lat="43.0719817" lon="11.4139083"><ele>475.6666666666667</ele><time>2026-04-26T08:56:27.298Z</time></trkpt><trkpt lat="43.071895" lon="11.4138717"><ele>475.33333333333337</ele><time>2026-04-26T08:56:28.296Z</time></trkpt><trkpt lat="43.07181" lon="11.4138317"><ele>475.0</ele><time>2026-04-26T08:56:29.298Z</time></trkpt><trkpt lat="43.0717317" lon="11.4137817"><ele>476.83333333333337</ele><time>2026-04-26T08:56:30.298Z</time></trkpt><trkpt lat="43.071655" lon="11.4137233"><ele>478.6666666666667</ele><time>2026-04-26T08:56:31.296Z</time></trkpt><trkpt lat="43.071585" lon="11.413665"><ele>480.5</ele><time>2026-04-26T08:56:32.298Z</time></trkpt><trkpt lat="43.07152" lon="11.4136033"><ele>482.33333333333337</ele><time>2026-04-26T08:56:33.299Z</time></trkpt><trkpt lat="43.0714433" lon="11.4135733"><ele>484.1666666666667</ele><time>2026-04-26T08:56:34.299Z</time></trkpt><trkpt lat="43.0713617" lon="11.41356"><ele>486.0</ele><time>2026-04-26T08:56:35.298Z</time></trkpt><trkpt lat="43.0712817" lon="11.4135583"><ele>486.0</ele><time>2026-04-26T08:56:36.299Z</time></trkpt><trkpt lat="43.0712" lon="11.4135783"><ele>486.0</ele><time>2026-04-26T08:56:37.299Z</time></trkpt><trkpt lat="43.0711133" lon="11.4135967"><ele>486.0</ele><time>2026-04-26T08:56:38.3Z</time></trkpt><trkpt lat="43.0710267" lon="11.4135933"><ele>486.0</ele><time>2026-04-26T08:56:39.298Z</time></trkpt><trkpt lat="43.0709467" lon="11.4135617"><ele>486.0</ele><time>2026-04-26T08:56:40.299Z</time></trkpt><trkpt lat="43.0708717" lon="11.4135117"><ele>486.0</ele><time>2026-04-26T08:56:41.299Z</time></trkpt><trkpt lat="43.0708" lon="11.4134483"><ele>487.5</ele><time>2026-04-26T08:56:42.299Z</time></trkpt><trkpt lat="43.0707383" lon="11.4133667"><ele>489.0</ele><time>2026-04-26T08:56:43.296Z</time></trkpt><trkpt lat="43.0706783" lon="11.4132883"><ele>490.5</ele><time>2026-04-26T08:56:44.296Z</time></trkpt><trkpt lat="43.0706167" lon="11.4132117"><ele>492.0</ele><time>2026-04-26T08:56:45.3Z</time></trkpt><trkpt lat="43.0705533" lon="11.4131333"><ele>493.5</ele><time>2026-04-26T08:56:46.298Z</time></trkpt><trkpt lat="43.0704883" lon="11.41306"><ele>495.0</ele><time>2026-04-26T08:56:47.295Z</time></trkpt><trkpt lat="43.0704267" lon="11.4129967"><ele>495.0</ele><time>2026-04-26T08:56:48.299Z</time></trkpt><trkpt lat="43.0703733" lon="11.4129417"><ele>495.0</ele><time>2026-04-26T08:56:49.298Z</time></trkpt><trkpt lat="43.0702683" lon="11.412895"><ele>495.0</ele><time>2026-04-26T08:56:51.295Z</time></trkpt><trkpt lat="43.0701633" lon="11.4129617"><ele>495.0</ele><time>2026-04-26T08:56:53.298Z</time></trkpt><trkpt lat="43.0701217" lon="11.4130417"><ele>495.0</ele><time>2026-04-26T08:56:54.298Z</time></trkpt><trkpt lat="43.0700817" lon="11.4131383"><ele>495.0</ele><time>2026-04-26T08:56:55.299Z</time></trkpt><trkpt lat="43.0700417" lon="11.4132317"><ele>495.0</ele><time>2026-04-26T08:56:56.298Z</time></trkpt><trkpt lat="43.0700083" lon="11.4133317"><ele>495.0</ele><time>2026-04-26T08:56:57.298Z</time></trkpt><trkpt lat="43.06999" lon="11.4134317"><ele>495.0</ele><time>2026-04-26T08:56:58.297Z</time></trkpt><trkpt lat="43.0699733" lon="11.4135333"><ele>495.0</ele><time>2026-04-26T08:56:59.297Z</time></trkpt><trkpt lat="43.0699667" lon="11.4136433"><ele>495.0</ele><time>2026-04-26T08:57:00.296Z</time></trkpt><trkpt lat="43.06997" lon="11.4137567"><ele>495.0</ele><time>2026-04-26T08:57:01.297Z</time></trkpt><trkpt lat="43.0699767" lon="11.4138767"><ele>494.8333333333333</ele><time>2026-04-26T08:57:02.299Z</time></trkpt><trkpt lat="43.069985" lon="11.4139933"><ele>494.66666666666663</ele><time>2026-04-26T08:57:03.296Z</time></trkpt><trkpt lat="43.0699917" lon="11.4141083"><ele>494.5</ele><time>2026-04-26T08:57:04.297Z</time></trkpt><trkpt lat="43.0699967" lon="11.4142183"><ele>494.3333333333333</ele><time>2026-04-26T08:57:05.297Z</time></trkpt><trkpt lat="43.069995" lon="11.4143267"><ele>494.16666666666663</ele><time>2026-04-26T08:57:06.296Z</time></trkpt><trkpt lat="43.0699833" lon="11.414435"><ele>494.0</ele><time>2026-04-26T08:57:07.296Z</time></trkpt><trkpt lat="43.069965" lon="11.414535"><ele>494.8333333333333</ele><time>2026-04-26T08:57:08.299Z</time></trkpt><trkpt lat="43.06994" lon="11.4146333"><ele>495.66666666666663</ele><time>2026-04-26T08:57:09.295Z</time></trkpt><trkpt lat="43.0699033" lon="11.4147267"><ele>496.5</ele><time>2026-04-26T08:57:10.297Z</time></trkpt><trkpt lat="43.0698633" lon="11.414815"><ele>497.33333333333337</ele><time>2026-04-26T08:57:11.297Z</time></trkpt><trkpt lat="43.069815" lon="11.4148933"><ele>498.1666666666667</ele><time>2026-04-26T08:57:12.296Z</time></trkpt><trkpt lat="43.069755" lon="11.41496"><ele>499.0</ele><time>2026-04-26T08:57:13.297Z</time></trkpt><trkpt lat="43.06968" lon="11.4150167"><ele>499.00000000000006</ele><time>2026-04-26T08:57:14.297Z</time></trkpt><trkpt lat="43.069605" lon="11.4150683"><ele>499.0</ele><time>2026-04-26T08:57:15.3Z</time></trkpt><trkpt lat="43.0695267" lon="11.4151217"><ele>499.0</ele><time>2026-04-26T08:57:16.299Z</time></trkpt><trkpt lat="43.0694533" lon="11.4151867"><ele>499.0</ele><time>2026-04-26T08:57:17.299Z</time></trkpt><trkpt lat="43.0693867" lon="11.4152567"><ele>499.00000000000006</ele><time>2026-04-26T08:57:18.298Z</time></trkpt><trkpt lat="43.06932" lon="11.4153267"><ele>499.0</ele><time>2026-04-26T08:57:19.298Z</time></trkpt><trkpt lat="43.069245" lon="11.4153883"><ele>499.0</ele><time>2026-04-26T08:57:20.3Z</time></trkpt><trkpt lat="43.069165" lon="11.415445"><ele>499.0</ele><time>2026-04-26T08:57:21.296Z</time></trkpt><trkpt lat="43.0690783" lon="11.41549"><ele>499.0</ele><time>2026-04-26T08:57:22.296Z</time></trkpt><trkpt lat="43.0689883" lon="11.415525"><ele>499.0</ele><time>2026-04-26T08:57:23.298Z</time></trkpt><trkpt lat="43.0689017" lon="11.4155517"><ele>499.0</ele><time>2026-04-26T08:57:24.299Z</time></trkpt><trkpt lat="43.0688067" lon="11.4155783"><ele>496.79999999999995</ele><time>2026-04-26T08:57:25.299Z</time></trkpt><trkpt lat="43.0687133" lon="11.4156117"><ele>494.59999999999997</ele><time>2026-04-26T08:57:26.298Z</time></trkpt><trkpt lat="43.0686267" lon="11.41566"><ele>492.4</ele><time>2026-04-26T08:57:27.298Z</time></trkpt><trkpt lat="43.0685467" lon="11.41572"><ele>490.2</ele><time>2026-04-26T08:57:28.298Z</time></trkpt><trkpt lat="43.0684717" lon="11.4157917"><ele>488.0</ele><time>2026-04-26T08:57:29.298Z</time></trkpt><trkpt lat="43.068405" lon="11.4158717"><ele>488.0</ele><time>2026-04-26T08:57:30.298Z</time></trkpt><trkpt lat="43.0683383" lon="11.415955"><ele>487.99999999999994</ele><time>2026-04-26T08:57:31.298Z</time></trkpt><trkpt lat="43.0682717" lon="11.4160383"><ele>487.99999999999994</ele><time>2026-04-26T08:57:32.3Z</time></trkpt><trkpt lat="43.0682" lon="11.4161167"><ele>488.0</ele><time>2026-04-26T08:57:33.299Z</time></trkpt><trkpt lat="43.0681267" lon="11.4161867"><ele>488.0</ele><time>2026-04-26T08:57:34.299Z</time></trkpt><trkpt lat="43.0680517" lon="11.41625"><ele>487.8333333333333</ele><time>2026-04-26T08:57:35.298Z</time></trkpt><trkpt lat="43.067975" lon="11.416305"><ele>487.66666666666663</ele><time>2026-04-26T08:57:36.3Z</time></trkpt><trkpt lat="43.0679" lon="11.41636"><ele>487.5</ele><time>2026-04-26T08:57:37.299Z</time></trkpt><trkpt lat="43.0678317" lon="11.4164233"><ele>487.33333333333337</ele><time>2026-04-26T08:57:38.3Z</time></trkpt><trkpt lat="43.0677667" lon="11.4165"><ele>487.1666666666667</ele><time>2026-04-26T08:57:39.3Z</time></trkpt><trkpt lat="43.0677167" lon="11.4165917"><ele>487.0</ele><time>2026-04-26T08:57:40.299Z</time></trkpt><trkpt lat="43.06768" lon="11.4167033"><ele>488.40000000000003</ele><time>2026-04-26T08:57:41.298Z</time></trkpt><trkpt lat="43.0676483" lon="11.4168283"><ele>489.80000000000007</ele><time>2026-04-26T08:57:42.299Z</time></trkpt><trkpt lat="43.06761" lon="11.4169467"><ele>491.2</ele><time>2026-04-26T08:57:43.299Z</time></trkpt><trkpt lat="43.0675617" lon="11.4170533"><ele>492.6</ele><time>2026-04-26T08:57:44.299Z</time></trkpt><trkpt lat="43.06751" lon="11.4171567"><ele>494.0</ele><time>2026-04-26T08:57:45.298Z</time></trkpt><trkpt lat="43.0674533" lon="11.4172567"><ele>495.66666666666663</ele><time>2026-04-26T08:57:46.296Z</time></trkpt><trkpt lat="43.06739" lon="11.4173483"><ele>497.3333333333333</ele><time>2026-04-26T08:57:47.296Z</time></trkpt><trkpt lat="43.067325" lon="11.4174317"><ele>499.0</ele><time>2026-04-26T08:57:48.296Z</time></trkpt><trkpt lat="43.0672517" lon="11.4174983"><ele>500.66666666666663</ele><time>2026-04-26T08:57:49.296Z</time></trkpt><trkpt lat="43.0671717" lon="11.4175517"><ele>502.3333333333333</ele><time>2026-04-26T08:57:50.297Z</time></trkpt><trkpt lat="43.0670867" lon="11.417595"><ele>504.0</ele><time>2026-04-26T08:57:51.296Z</time></trkpt><trkpt lat="43.0670017" lon="11.4176333"><ele>504.0</ele><time>2026-04-26T08:57:52.297Z</time></trkpt><trkpt lat="43.06692" lon="11.4176767"><ele>504.0</ele><time>2026-04-26T08:57:53.297Z</time></trkpt><trkpt lat="43.0668483" lon="11.4177283"><ele>504.0</ele><time>2026-04-26T08:57:54.299Z</time></trkpt><trkpt lat="43.06678" lon="11.4177917"><ele>504.0</ele><time>2026-04-26T08:57:55.299Z</time></trkpt><trkpt lat="43.0667283" lon="11.41788"><ele>504.0</ele><time>2026-04-26T08:57:56.3Z</time></trkpt><trkpt lat="43.0666867" lon="11.4179833"><ele>504.0</ele><time>2026-04-26T08:57:57.299Z</time></trkpt><trkpt lat="43.066655" lon="11.4180967"><ele>502.6</ele><time>2026-04-26T08:57:58.297Z</time></trkpt><trkpt lat="43.066625" lon="11.41822"><ele>501.2</ele><time>2026-04-26T08:57:59.298Z</time></trkpt><trkpt lat="43.0665983" lon="11.4183433"><ele>499.80000000000007</ele><time>2026-04-26T08:58:00.299Z</time></trkpt><trkpt lat="43.06658" lon="11.41847"><ele>498.40000000000003</ele><time>2026-04-26T08:58:01.298Z</time></trkpt><trkpt lat="43.0665633" lon="11.418595"><ele>497.0</ele><time>2026-04-26T08:58:02.297Z</time></trkpt><trkpt lat="43.06655" lon="11.4187167"><ele>494.3333333333333</ele><time>2026-04-26T08:58:03.297Z</time></trkpt><trkpt lat="43.0665417" lon="11.41884"><ele>491.66666666666663</ele><time>2026-04-26T08:58:04.296Z</time></trkpt><trkpt lat="43.0665417" lon="11.4189583"><ele>489.0</ele><time>2026-04-26T08:58:05.296Z</time></trkpt><trkpt lat="43.0665467" lon="11.4190783"><ele>486.33333333333337</ele><time>2026-04-26T08:58:06.299Z</time></trkpt><trkpt lat="43.0665533" lon="11.4191967"><ele>483.6666666666667</ele><time>2026-04-26T08:58:07.299Z</time></trkpt><trkpt lat="43.06656" lon="11.4193133"><ele>481.0</ele><time>2026-04-26T08:58:08.3Z</time></trkpt><trkpt lat="43.066565" lon="11.41943"><ele>481.00000000000006</ele><time>2026-04-26T08:58:09.298Z</time></trkpt><trkpt lat="43.0665683" lon="11.419545"><ele>481.0</ele><time>2026-04-26T08:58:10.299Z</time></trkpt><trkpt lat="43.06657" lon="11.4196617"><ele>481.0</ele><time>2026-04-26T08:58:11.298Z</time></trkpt><trkpt lat="43.0665633" lon="11.4197767"><ele>481.0</ele><time>2026-04-26T08:58:12.299Z</time></trkpt><trkpt lat="43.06655" lon="11.4198883"><ele>481.00000000000006</ele><time>2026-04-26T08:58:13.3Z</time></trkpt><trkpt lat="43.0665233" lon="11.419995"><ele>481.0</ele><time>2026-04-26T08:58:14.3Z</time></trkpt><trkpt lat="43.066485" lon="11.4200967"><ele>481.6666666666667</ele><time>2026-04-26T08:58:15.299Z</time></trkpt><trkpt lat="43.066445" lon="11.4201917"><ele>482.33333333333337</ele><time>2026-04-26T08:58:16.299Z</time></trkpt><trkpt lat="43.0664033" lon="11.42029"><ele>483.0</ele><time>2026-04-26T08:58:17.297Z</time></trkpt><trkpt lat="43.0663583" lon="11.4203917"><ele>483.66666666666663</ele><time>2026-04-26T08:58:18.297Z</time></trkpt><trkpt lat="43.0663133" lon="11.4204933"><ele>484.3333333333333</ele><time>2026-04-26T08:58:19.296Z</time></trkpt><trkpt lat="43.0662667" lon="11.4205983"><ele>485.0</ele><time>2026-04-26T08:58:20.297Z</time></trkpt><trkpt lat="43.0662133" lon="11.4206983"><ele>486.16666666666663</ele><time>2026-04-26T08:58:21.297Z</time></trkpt><trkpt lat="43.0661583" lon="11.4207983"><ele>487.3333333333333</ele><time>2026-04-26T08:58:22.297Z</time></trkpt><trkpt lat="43.0661" lon="11.4208933"><ele>488.5</ele><time>2026-04-26T08:58:23.297Z</time></trkpt><trkpt lat="43.0660433" lon="11.4209833"><ele>489.66666666666663</ele><time>2026-04-26T08:58:24.299Z</time></trkpt><trkpt lat="43.0659883" lon="11.4210767"><ele>490.8333333333333</ele><time>2026-04-26T08:58:25.298Z</time></trkpt><trkpt lat="43.0659317" lon="11.4211717"><ele>492.0</ele><time>2026-04-26T08:58:26.299Z</time></trkpt><trkpt lat="43.0658783" lon="11.4212717"><ele>492.8333333333333</ele><time>2026-04-26T08:58:27.299Z</time></trkpt><trkpt lat="43.0658283" lon="11.4213717"><ele>493.66666666666663</ele><time>2026-04-26T08:58:28.299Z</time></trkpt><trkpt lat="43.0657817" lon="11.4214733"><ele>494.5</ele><time>2026-04-26T08:58:29.3Z</time></trkpt><trkpt lat="43.0657333" lon="11.4215717"><ele>495.3333333333333</ele><time>2026-04-26T08:58:30.3Z</time></trkpt><trkpt lat="43.0656817" lon="11.4216667"><ele>496.16666666666663</ele><time>2026-04-26T08:58:31.299Z</time></trkpt><trkpt lat="43.0656217" lon="11.4217517"><ele>497.0</ele><time>2026-04-26T08:58:32.3Z</time></trkpt><trkpt lat="43.065555" lon="11.4218267"><ele>496.49999999999994</ele><time>2026-04-26T08:58:33.299Z</time></trkpt><trkpt lat="43.0654867" lon="11.4218967"><ele>496.0</ele><time>2026-04-26T08:58:34.299Z</time></trkpt><trkpt lat="43.0654183" lon="11.421965"><ele>495.5</ele><time>2026-04-26T08:58:35.296Z</time></trkpt><trkpt lat="43.0653483" lon="11.422035"><ele>495.0</ele><time>2026-04-26T08:58:36.3Z</time></trkpt><trkpt lat="43.0652783" lon="11.4221"><ele>494.49999999999994</ele><time>2026-04-26T08:58:37.299Z</time></trkpt><trkpt lat="43.0652017" lon="11.4221483"><ele>494.0</ele><time>2026-04-26T08:58:38.298Z</time></trkpt><trkpt lat="43.06512" lon="11.4221833"><ele>493.99999999999994</ele><time>2026-04-26T08:58:39.299Z</time></trkpt><trkpt lat="43.0650367" lon="11.4222067"><ele>494.0</ele><time>2026-04-26T08:58:40.298Z</time></trkpt><trkpt lat="43.0649483" lon="11.4222217"><ele>494.0</ele><time>2026-04-26T08:58:41.3Z</time></trkpt><trkpt lat="43.0648667" lon="11.4222283"><ele>494.0</ele><time>2026-04-26T08:58:42.299Z</time></trkpt><trkpt lat="43.0647833" lon="11.4222283"><ele>493.99999999999994</ele><time>2026-04-26T08:58:43.298Z</time></trkpt><trkpt lat="43.0647017" lon="11.4222283"><ele>494.0</ele><time>2026-04-26T08:58:44.298Z</time></trkpt><trkpt lat="43.0646183" lon="11.422225"><ele>492.66666666666663</ele><time>2026-04-26T08:58:45.299Z</time></trkpt><trkpt lat="43.0645317" lon="11.4222133"><ele>491.3333333333333</ele><time>2026-04-26T08:58:46.299Z</time></trkpt><trkpt lat="43.0644467" lon="11.42219"><ele>490.0</ele><time>2026-04-26T08:58:47.297Z</time></trkpt><trkpt lat="43.0643683" lon="11.4221583"><ele>488.66666666666663</ele><time>2026-04-26T08:58:48.296Z</time></trkpt><trkpt lat="43.064295" lon="11.4221183"><ele>487.3333333333333</ele><time>2026-04-26T08:58:49.299Z</time></trkpt><trkpt lat="43.0642183" lon="11.4220767"><ele>486.0</ele><time>2026-04-26T08:58:50.295Z</time></trkpt><trkpt lat="43.0641517" lon="11.42203"><ele>484.0</ele><time>2026-04-26T08:58:51.294Z</time></trkpt><trkpt lat="43.0640867" lon="11.421995"><ele>482.0</ele><time>2026-04-26T08:58:52.295Z</time></trkpt><trkpt lat="43.06402" lon="11.4219717"><ele>480.0</ele><time>2026-04-26T08:58:53.296Z</time></trkpt><trkpt lat="43.0639483" lon="11.421965"><ele>478.0</ele><time>2026-04-26T08:58:54.298Z</time></trkpt><trkpt lat="43.06387" lon="11.421975"><ele>476.0</ele><time>2026-04-26T08:58:55.298Z</time></trkpt><trkpt lat="43.06379" lon="11.4219883"><ele>474.0</ele><time>2026-04-26T08:58:56.298Z</time></trkpt><trkpt lat="43.0637133" lon="11.4219967"><ele>472.0</ele><time>2026-04-26T08:58:57.299Z</time></trkpt><trkpt lat="43.0636483" lon="11.422005"><ele>472.00000000000006</ele><time>2026-04-26T08:58:58.297Z</time></trkpt><trkpt lat="43.063545" lon="11.42206"><ele>472.0</ele><time>2026-04-26T08:59:00.299Z</time></trkpt><trkpt lat="43.0634783" lon="11.4221833"><ele>472.0</ele><time>2026-04-26T08:59:02.296Z</time></trkpt><trkpt lat="43.0634733" lon="11.42227"><ele>472.0</ele><time>2026-04-26T08:59:03.297Z</time></trkpt><trkpt lat="43.063485" lon="11.4223583"><ele>472.00000000000006</ele><time>2026-04-26T08:59:04.299Z</time></trkpt><trkpt lat="43.06351" lon="11.4224483"><ele>472.0</ele><time>2026-04-26T08:59:05.297Z</time></trkpt><trkpt lat="43.0635383" lon="11.4225433"><ele>472.00000000000006</ele><time>2026-04-26T08:59:06.298Z</time></trkpt><trkpt lat="43.06355" lon="11.42265"><ele>472.0</ele><time>2026-04-26T08:59:07.298Z</time></trkpt><trkpt lat="43.06355" lon="11.4227633"><ele>472.0</ele><time>2026-04-26T08:59:08.299Z</time></trkpt><trkpt lat="43.0635333" lon="11.4228717"><ele>472.0</ele><time>2026-04-26T08:59:09.298Z</time></trkpt><trkpt lat="43.0635033" lon="11.42297"><ele>472.00000000000006</ele><time>2026-04-26T08:59:10.295Z</time></trkpt><trkpt lat="43.0634683" lon="11.4230633"><ele>472.0</ele><time>2026-04-26T08:59:11.296Z</time></trkpt><trkpt lat="43.0634333" lon="11.4231517"><ele>471.57142857142856</ele><time>2026-04-26T08:59:12.295Z</time></trkpt><trkpt lat="43.0634017" lon="11.4232383"><ele>471.14285714285717</ele><time>2026-04-26T08:59:13.299Z</time></trkpt><trkpt lat="43.063375" lon="11.4233283"><ele>470.7142857142857</ele><time>2026-04-26T08:59:14.298Z</time></trkpt><trkpt lat="43.0633617" lon="11.42342"><ele>470.2857142857143</ele><time>2026-04-26T08:59:15.298Z</time></trkpt><trkpt lat="43.063355" lon="11.4235183"><ele>469.8571428571429</ele><time>2026-04-26T08:59:16.295Z</time></trkpt><trkpt lat="43.0633617" lon="11.4236217"><ele>469.42857142857144</ele><time>2026-04-26T08:59:17.296Z</time></trkpt><trkpt lat="43.0633767" lon="11.42373"><ele>469.0</ele><time>2026-04-26T08:59:18.296Z</time></trkpt><trkpt lat="43.06339" lon="11.4238383"><ele>468.33333333333337</ele><time>2026-04-26T08:59:19.296Z</time></trkpt><trkpt lat="43.0634" lon="11.4239433"><ele>467.6666666666667</ele><time>2026-04-26T08:59:20.296Z</time></trkpt><trkpt lat="43.0634033" lon="11.4240433"><ele>467.0</ele><time>2026-04-26T08:59:21.296Z</time></trkpt><trkpt lat="43.0633867" lon="11.4241483"><ele>466.33333333333337</ele><time>2026-04-26T08:59:22.296Z</time></trkpt><trkpt lat="43.0633567" lon="11.4242533"><ele>465.6666666666667</ele><time>2026-04-26T08:59:23.296Z</time></trkpt><trkpt lat="43.0633217" lon="11.424355"><ele>465.0</ele><time>2026-04-26T08:59:24.298Z</time></trkpt><trkpt lat="43.06329" lon="11.4244583"><ele>464.5</ele><time>2026-04-26T08:59:25.299Z</time></trkpt><trkpt lat="43.0632683" lon="11.4245667"><ele>464.0</ele><time>2026-04-26T08:59:26.299Z</time></trkpt><trkpt lat="43.063255" lon="11.4246767"><ele>463.5</ele><time>2026-04-26T08:59:27.3Z</time></trkpt><trkpt lat="43.0632433" lon="11.4247833"><ele>463.0</ele><time>2026-04-26T08:59:28.297Z</time></trkpt><trkpt lat="43.0632267" lon="11.42489"><ele>462.5</ele><time>2026-04-26T08:59:29.297Z</time></trkpt><trkpt lat="43.0632033" lon="11.4249933"><ele>462.0</ele><time>2026-04-26T08:59:30.3Z</time></trkpt><trkpt lat="43.06317" lon="11.4250933"><ele>462.0</ele><time>2026-04-26T08:59:31.298Z</time></trkpt><trkpt lat="43.0631233" lon="11.42519"><ele>462.0</ele><time>2026-04-26T08:59:32.299Z</time></trkpt><trkpt lat="43.0630683" lon="11.42528"><ele>462.0</ele><time>2026-04-26T08:59:33.299Z</time></trkpt><trkpt lat="43.0630167" lon="11.4253667"><ele>462.0</ele><time>2026-04-26T08:59:34.298Z</time></trkpt><trkpt lat="43.0629633" lon="11.42545"><ele>462.0</ele><time>2026-04-26T08:59:35.296Z</time></trkpt><trkpt lat="43.0629133" lon="11.4255417"><ele>462.0</ele><time>2026-04-26T08:59:36.298Z</time></trkpt><trkpt lat="43.0628733" lon="11.4256383"><ele>462.6666666666667</ele><time>2026-04-26T08:59:37.296Z</time></trkpt><trkpt lat="43.0628483" lon="11.4257467"><ele>463.33333333333337</ele><time>2026-04-26T08:59:38.299Z</time></trkpt><trkpt lat="43.062835" lon="11.4258567"><ele>464.0</ele><time>2026-04-26T08:59:39.294Z</time></trkpt><trkpt lat="43.0628283" lon="11.42598"><ele>464.6666666666667</ele><time>2026-04-26T08:59:40.298Z</time></trkpt><trkpt lat="43.062825" lon="11.4260967"><ele>465.33333333333337</ele><time>2026-04-26T08:59:41.299Z</time></trkpt><trkpt lat="43.062825" lon="11.42622"><ele>466.0</ele><time>2026-04-26T08:59:42.298Z</time></trkpt><trkpt lat="43.0628317" lon="11.426345"><ele>466.6666666666667</ele><time>2026-04-26T08:59:43.3Z</time></trkpt><trkpt lat="43.0628417" lon="11.4264683"><ele>467.33333333333337</ele><time>2026-04-26T08:59:44.299Z</time></trkpt><trkpt lat="43.0628583" lon="11.42659"><ele>468.0</ele><time>2026-04-26T08:59:45.298Z</time></trkpt><trkpt lat="43.0628767" lon="11.4267083"><ele>468.66666666666663</ele><time>2026-04-26T08:59:46.297Z</time></trkpt><trkpt lat="43.0628883" lon="11.426825"><ele>469.3333333333333</ele><time>2026-04-26T08:59:47.299Z</time></trkpt><trkpt lat="43.0628867" lon="11.4269417"><ele>470.0</ele><time>2026-04-26T08:59:48.297Z</time></trkpt><trkpt lat="43.062875" lon="11.4270533"><ele>469.3333333333333</ele><time>2026-04-26T08:59:49.3Z</time></trkpt><trkpt lat="43.06284" lon="11.427155"><ele>468.66666666666663</ele><time>2026-04-26T08:59:50.299Z</time></trkpt><trkpt lat="43.0627867" lon="11.4272433"><ele>468.0</ele><time>2026-04-26T08:59:51.295Z</time></trkpt><trkpt lat="43.06272" lon="11.4273167"><ele>467.33333333333337</ele><time>2026-04-26T08:59:52.297Z</time></trkpt><trkpt lat="43.0626483" lon="11.427375"><ele>466.6666666666667</ele><time>2026-04-26T08:59:53.298Z</time></trkpt><trkpt lat="43.062575" lon="11.427415"><ele>466.0</ele><time>2026-04-26T08:59:54.298Z</time></trkpt><trkpt lat="43.0625017" lon="11.4274517"><ele>466.8</ele><time>2026-04-26T08:59:55.297Z</time></trkpt><trkpt lat="43.06242" lon="11.4274933"><ele>467.6</ele><time>2026-04-26T08:59:56.298Z</time></trkpt><trkpt lat="43.0623383" lon="11.4275367"><ele>468.4</ele><time>2026-04-26T08:59:57.3Z</time></trkpt><trkpt lat="43.0622517" lon="11.4275717"><ele>469.2</ele><time>2026-04-26T08:59:58.296Z</time></trkpt><trkpt lat="43.0621617" lon="11.4276"><ele>470.0</ele><time>2026-04-26T08:59:59.295Z</time></trkpt><trkpt lat="43.06207" lon="11.4276183"><ele>469.99999999999994</ele><time>2026-04-26T09:00:00.3Z</time></trkpt><trkpt lat="43.0619783" lon="11.427625"><ele>470.0</ele><time>2026-04-26T09:00:01.296Z</time></trkpt><trkpt lat="43.06189" lon="11.4276067"><ele>470.0</ele><time>2026-04-26T09:00:02.297Z</time></trkpt><trkpt lat="43.0618067" lon="11.42757"><ele>470.0</ele><time>2026-04-26T09:00:03.295Z</time></trkpt><trkpt lat="43.0617233" lon="11.4275217"><ele>469.99999999999994</ele><time>2026-04-26T09:00:04.295Z</time></trkpt><trkpt lat="43.061645" lon="11.427465"><ele>470.0</ele><time>2026-04-26T09:00:05.296Z</time></trkpt><trkpt lat="43.0615667" lon="11.4274167"><ele>470.16666666666663</ele><time>2026-04-26T09:00:06.296Z</time></trkpt><trkpt lat="43.0614833" lon="11.4273817"><ele>470.3333333333333</ele><time>2026-04-26T09:00:07.296Z</time></trkpt><trkpt lat="43.0613983" lon="11.4273667"><ele>470.5</ele><time>2026-04-26T09:00:08.297Z</time></trkpt><trkpt lat="43.0613117" lon="11.4273767"><ele>470.66666666666663</ele><time>2026-04-26T09:00:09.297Z</time></trkpt><trkpt lat="43.0612283" lon="11.4274"><ele>470.8333333333333</ele><time>2026-04-26T09:00:10.296Z</time></trkpt><trkpt lat="43.0611433" lon="11.4274317"><ele>471.0</ele><time>2026-04-26T09:00:11.299Z</time></trkpt><trkpt lat="43.0610567" lon="11.4274633"><ele>471.0</ele><time>2026-04-26T09:00:12.298Z</time></trkpt><trkpt lat="43.0609667" lon="11.4274867"><ele>471.0</ele><time>2026-04-26T09:00:13.298Z</time></trkpt><trkpt lat="43.0608783" lon="11.4274933"><ele>471.0</ele><time>2026-04-26T09:00:14.299Z</time></trkpt><trkpt lat="43.0607917" lon="11.427465"><ele>471.0</ele><time>2026-04-26T09:00:15.299Z</time></trkpt><trkpt lat="43.0607117" lon="11.427415"><ele>471.0</ele><time>2026-04-26T09:00:16.297Z</time></trkpt><trkpt lat="43.0606417" lon="11.4273583"><ele>471.0</ele><time>2026-04-26T09:00:17.298Z</time></trkpt><trkpt lat="43.0605833" lon="11.4273083"><ele>472.6</ele><time>2026-04-26T09:00:18.297Z</time></trkpt><trkpt lat="43.060495" lon="11.4272333"><ele>474.20000000000005</ele><time>2026-04-26T09:00:20.298Z</time></trkpt><trkpt lat="43.0604067" lon="11.427245"><ele>475.79999999999995</ele><time>2026-04-26T09:00:22.297Z</time></trkpt><trkpt lat="43.06032" lon="11.42736"><ele>477.4</ele><time>2026-04-26T09:00:24.298Z</time></trkpt><trkpt lat="43.060295" lon="11.42745"><ele>479.0</ele><time>2026-04-26T09:00:25.298Z</time></trkpt><trkpt lat="43.0602767" lon="11.4275467"><ele>478.99999999999994</ele><time>2026-04-26T09:00:26.298Z</time></trkpt><trkpt lat="43.0602517" lon="11.4276317"><ele>479.0</ele><time>2026-04-26T09:00:27.296Z</time></trkpt><trkpt lat="43.0601683" lon="11.42775"><ele>479.0</ele><time>2026-04-26T09:00:29.296Z</time></trkpt><trkpt lat="43.0601083" lon="11.4277967"><ele>479.0</ele><time>2026-04-26T09:00:30.296Z</time></trkpt><trkpt lat="43.0600433" lon="11.42784"><ele>478.99999999999994</ele><time>2026-04-26T09:00:31.297Z</time></trkpt><trkpt lat="43.05998" lon="11.4278767"><ele>479.0</ele><time>2026-04-26T09:00:32.297Z</time></trkpt><trkpt lat="43.059915" lon="11.4278983"><ele>480.0</ele><time>2026-04-26T09:00:33.295Z</time></trkpt><trkpt lat="43.0598017" lon="11.4278783"><ele>481.0</ele><time>2026-04-26T09:00:35.297Z</time></trkpt><trkpt lat="43.0597033" lon="11.4277717"><ele>482.0</ele><time>2026-04-26T09:00:37.296Z</time></trkpt><trkpt lat="43.0596533" lon="11.42769"><ele>483.0</ele><time>2026-04-26T09:00:38.296Z</time></trkpt><trkpt lat="43.0595983" lon="11.4276083"><ele>484.0</ele><time>2026-04-26T09:00:39.296Z</time></trkpt><trkpt lat="43.0595417" lon="11.4275217"><ele>484.0</ele><time>2026-04-26T09:00:40.295Z</time></trkpt><trkpt lat="43.0594833" lon="11.42744"><ele>483.99999999999994</ele><time>2026-04-26T09:00:41.298Z</time></trkpt><trkpt lat="43.059425" lon="11.4273717"><ele>484.0</ele><time>2026-04-26T09:00:42.297Z</time></trkpt><trkpt lat="43.0593717" lon="11.4273067"><ele>484.0</ele><time>2026-04-26T09:00:43.298Z</time></trkpt><trkpt lat="43.059315" lon="11.4272617"><ele>483.99999999999994</ele><time>2026-04-26T09:00:44.301Z</time></trkpt><trkpt lat="43.0592533" lon="11.4272317"><ele>484.0</ele><time>2026-04-26T09:00:45.297Z</time></trkpt><trkpt lat="43.0591883" lon="11.4272367"><ele>484.0</ele><time>2026-04-26T09:00:46.299Z</time></trkpt><trkpt lat="43.059125" lon="11.427265"><ele>486.50000000000006</ele><time>2026-04-26T09:00:47.298Z</time></trkpt><trkpt lat="43.0590617" lon="11.427315"><ele>489.0</ele><time>2026-04-26T09:00:48.295Z</time></trkpt><trkpt lat="43.0590067" lon="11.4273667"><ele>491.5</ele><time>2026-04-26T09:00:49.299Z</time></trkpt><trkpt lat="43.05898" lon="11.427525"><ele>494.0</ele><time>2026-04-26T09:00:51.299Z</time></trkpt><trkpt lat="43.0590167" lon="11.4276317"><ele>496.50000000000006</ele><time>2026-04-26T09:00:52.298Z</time></trkpt><trkpt lat="43.059065" lon="11.4277517"><ele>499.0</ele><time>2026-04-26T09:00:53.298Z</time></trkpt><trkpt lat="43.0591117" lon="11.4278733"><ele>497.8571428571429</ele><time>2026-04-26T09:00:54.298Z</time></trkpt><trkpt lat="43.0591383" lon="11.4279783"><ele>496.7142857142857</ele><time>2026-04-26T09:00:55.297Z</time></trkpt><trkpt lat="43.0591617" lon="11.4280833"><ele>495.57142857142856</ele><time>2026-04-26T09:00:56.297Z</time></trkpt><trkpt lat="43.0591633" lon="11.4281767"><ele>494.42857142857144</ele><time>2026-04-26T09:00:57.299Z</time></trkpt><trkpt lat="43.0591433" lon="11.4282633"><ele>493.2857142857142</ele><time>2026-04-26T09:00:58.295Z</time></trkpt><trkpt lat="43.0590983" lon="11.4283317"><ele>492.1428571428571</ele><time>2026-04-26T09:00:59.297Z</time></trkpt><trkpt lat="43.0590383" lon="11.4283833"><ele>491.0</ele><time>2026-04-26T09:01:00.297Z</time></trkpt><trkpt lat="43.0589717" lon="11.4284167"><ele>490.99999999999994</ele><time>2026-04-26T09:01:01.295Z</time></trkpt><trkpt lat="43.0589017" lon="11.4284617"><ele>491.0</ele><time>2026-04-26T09:01:02.296Z</time></trkpt><trkpt lat="43.0588367" lon="11.428515"><ele>491.0</ele><time>2026-04-26T09:01:03.296Z</time></trkpt><trkpt lat="43.0587767" lon="11.4285767"><ele>491.0</ele><time>2026-04-26T09:01:04.295Z</time></trkpt><trkpt lat="43.058715" lon="11.4286517"><ele>490.99999999999994</ele><time>2026-04-26T09:01:05.296Z</time></trkpt><trkpt lat="43.05866" lon="11.4287383"><ele>491.0</ele><time>2026-04-26T09:01:06.297Z</time></trkpt><trkpt lat="43.0586133" lon="11.4288317"><ele>490.16666666666663</ele><time>2026-04-26T09:01:07.296Z</time></trkpt><trkpt lat="43.0585717" lon="11.4289333"><ele>489.3333333333333</ele><time>2026-04-26T09:01:08.297Z</time></trkpt><trkpt lat="43.0585367" lon="11.429035"><ele>488.5</ele><time>2026-04-26T09:01:09.296Z</time></trkpt><trkpt lat="43.0585017" lon="11.42914"><ele>487.66666666666663</ele><time>2026-04-26T09:01:10.295Z</time></trkpt><trkpt lat="43.0584633" lon="11.4292467"><ele>486.8333333333333</ele><time>2026-04-26T09:01:11.299Z</time></trkpt><trkpt lat="43.0584317" lon="11.4293567"><ele>486.0</ele><time>2026-04-26T09:01:12.298Z</time></trkpt><trkpt lat="43.0584" lon="11.4294683"><ele>486.0</ele><time>2026-04-26T09:01:13.298Z</time></trkpt><trkpt lat="43.0583683" lon="11.4295817"><ele>486.0</ele><time>2026-04-26T09:01:14.299Z</time></trkpt><trkpt lat="43.0583433" lon="11.4296983"><ele>486.0</ele><time>2026-04-26T09:01:15.298Z</time></trkpt><trkpt lat="43.05832" lon="11.4298183"><ele>486.0</ele><time>2026-04-26T09:01:16.299Z</time></trkpt><trkpt lat="43.0583033" lon="11.429935"><ele>486.0</ele><time>2026-04-26T09:01:17.299Z</time></trkpt><trkpt lat="43.0582867" lon="11.4300533"><ele>486.0</ele><time>2026-04-26T09:01:18.299Z</time></trkpt><trkpt lat="43.0582783" lon="11.430175"><ele>485.8333333333333</ele><time>2026-04-26T09:01:19.297Z</time></trkpt><trkpt lat="43.0582767" lon="11.4302983"><ele>485.66666666666663</ele><time>2026-04-26T09:01:20.297Z</time></trkpt><trkpt lat="43.0582817" lon="11.430425"><ele>485.5</ele><time>2026-04-26T09:01:21.295Z</time></trkpt><trkpt lat="43.0582867" lon="11.43055"><ele>485.3333333333333</ele><time>2026-04-26T09:01:22.298Z</time></trkpt><trkpt lat="43.0582833" lon="11.4306683"><ele>485.16666666666663</ele><time>2026-04-26T09:01:23.298Z</time></trkpt><trkpt lat="43.0582633" lon="11.4307817"><ele>485.0</ele><time>2026-04-26T09:01:24.299Z</time></trkpt><trkpt lat="43.0582267" lon="11.4308783"><ele>484.16666666666663</ele><time>2026-04-26T09:01:25.298Z</time></trkpt><trkpt lat="43.0581767" lon="11.4309617"><ele>483.3333333333333</ele><time>2026-04-26T09:01:26.3Z</time></trkpt><trkpt lat="43.0581033" lon="11.43102"><ele>482.5</ele><time>2026-04-26T09:01:27.299Z</time></trkpt><trkpt lat="43.05802" lon="11.4310667"><ele>481.66666666666663</ele><time>2026-04-26T09:01:28.295Z</time></trkpt><trkpt lat="43.057935" lon="11.43112"><ele>480.8333333333333</ele><time>2026-04-26T09:01:29.296Z</time></trkpt><trkpt lat="43.0578483" lon="11.431175"><ele>480.0</ele><time>2026-04-26T09:01:30.296Z</time></trkpt><trkpt lat="43.057765" lon="11.43123"><ele>480.0</ele><time>2026-04-26T09:01:31.295Z</time></trkpt><trkpt lat="43.0576833" lon="11.4312867"><ele>480.0</ele><time>2026-04-26T09:01:32.297Z</time></trkpt><trkpt lat="43.0576083" lon="11.43134"><ele>480.0</ele><time>2026-04-26T09:01:33.298Z</time></trkpt><trkpt lat="43.0575367" lon="11.4314017"><ele>480.0</ele><time>2026-04-26T09:01:34.296Z</time></trkpt><trkpt lat="43.0574717" lon="11.4314717"><ele>480.0</ele><time>2026-04-26T09:01:35.296Z</time></trkpt><trkpt lat="43.0574167" lon="11.431545"><ele>480.0</ele><time>2026-04-26T09:01:36.295Z</time></trkpt><trkpt lat="43.0573667" lon="11.43161"><ele>481.8</ele><time>2026-04-26T09:01:37.298Z</time></trkpt><trkpt lat="43.05732" lon="11.4316733"><ele>483.6</ele><time>2026-04-26T09:01:38.297Z</time></trkpt><trkpt lat="43.0572417" lon="11.4317883"><ele>485.4</ele><time>2026-04-26T09:01:40.295Z</time></trkpt><trkpt lat="43.0571633" lon="11.4319133"><ele>487.2</ele><time>2026-04-26T09:01:42.298Z</time></trkpt><trkpt lat="43.0571" lon="11.4320167"><ele>489.0</ele><time>2026-04-26T09:01:44.299Z</time></trkpt><trkpt lat="43.0570617" lon="11.4321067"><ele>489.1666666666667</ele><time>2026-04-26T09:01:46.297Z</time></trkpt><trkpt lat="43.057015" lon="11.43219"><ele>489.33333333333337</ele><time>2026-04-26T09:01:49.298Z</time></trkpt><trkpt lat="43.056945" lon="11.4322467"><ele>489.5</ele><time>2026-04-26T09:01:51.298Z</time></trkpt><trkpt lat="43.05684" lon="11.4322933"><ele>489.6666666666667</ele><time>2026-04-26T09:01:53.297Z</time></trkpt><trkpt lat="43.0567267" lon="11.4322717"><ele>489.83333333333337</ele><time>2026-04-26T09:01:55.298Z</time></trkpt><trkpt lat="43.0566667" lon="11.4322367"><ele>490.0</ele><time>2026-04-26T09:01:56.298Z</time></trkpt><trkpt lat="43.05661" lon="11.4321933"><ele>490.00000000000006</ele><time>2026-04-26T09:01:57.297Z</time></trkpt><trkpt lat="43.0565517" lon="11.4321533"><ele>490.0</ele><time>2026-04-26T09:01:58.295Z</time></trkpt><trkpt lat="43.0564817" lon="11.4321083"><ele>490.0</ele><time>2026-04-26T09:01:59.296Z</time></trkpt><trkpt lat="43.0564117" lon="11.4320567"><ele>490.0</ele><time>2026-04-26T09:02:00.295Z</time></trkpt><trkpt lat="43.0563367" lon="11.4320083"><ele>490.00000000000006</ele><time>2026-04-26T09:02:01.299Z</time></trkpt><trkpt lat="43.05626" lon="11.4319617"><ele>490.0</ele><time>2026-04-26T09:02:02.297Z</time></trkpt><trkpt lat="43.0561767" lon="11.431915"><ele>488.83333333333337</ele><time>2026-04-26T09:02:03.296Z</time></trkpt><trkpt lat="43.05609" lon="11.4318717"><ele>487.6666666666667</ele><time>2026-04-26T09:02:04.295Z</time></trkpt><trkpt lat="43.0560017" lon="11.4318383"><ele>486.5</ele><time>2026-04-26T09:02:05.296Z</time></trkpt><trkpt lat="43.05592" lon="11.4318067"><ele>485.33333333333337</ele><time>2026-04-26T09:02:06.297Z</time></trkpt><trkpt lat="43.0558383" lon="11.43178"><ele>484.1666666666667</ele><time>2026-04-26T09:02:07.295Z</time></trkpt><trkpt lat="43.0557617" lon="11.4317683"><ele>483.0</ele><time>2026-04-26T09:02:08.296Z</time></trkpt><trkpt lat="43.0556817" lon="11.4317567"><ele>482.1666666666667</ele><time>2026-04-26T09:02:09.294Z</time></trkpt><trkpt lat="43.0555983" lon="11.4317383"><ele>481.33333333333337</ele><time>2026-04-26T09:02:10.295Z</time></trkpt><trkpt lat="43.055525" lon="11.4317233"><ele>480.5</ele><time>2026-04-26T09:02:11.295Z</time></trkpt><trkpt lat="43.0554583" lon="11.4317"><ele>479.6666666666667</ele><time>2026-04-26T09:02:12.297Z</time></trkpt><trkpt lat="43.0553867" lon="11.4316533"><ele>478.83333333333337</ele><time>2026-04-26T09:02:13.295Z</time></trkpt><trkpt lat="43.0553317" lon="11.431585"><ele>478.0</ele><time>2026-04-26T09:02:14.296Z</time></trkpt><trkpt lat="43.0552783" lon="11.4315167"><ele>478.00000000000006</ele><time>2026-04-26T09:02:15.295Z</time></trkpt><trkpt lat="43.05522" lon="11.4314417"><ele>478.0</ele><time>2026-04-26T09:02:16.296Z</time></trkpt><trkpt lat="43.05516" lon="11.4313733"><ele>478.0</ele><time>2026-04-26T09:02:17.299Z</time></trkpt><trkpt lat="43.0551" lon="11.4313067"><ele>478.0</ele><time>2026-04-26T09:02:18.298Z</time></trkpt><trkpt lat="43.05504" lon="11.43123"><ele>478.00000000000006</ele><time>2026-04-26T09:02:19.295Z</time></trkpt><trkpt lat="43.0549783" lon="11.4311517"><ele>478.0</ele><time>2026-04-26T09:02:20.3Z</time></trkpt><trkpt lat="43.05491" lon="11.4310783"><ele>475.59999999999997</ele><time>2026-04-26T09:02:21.299Z</time></trkpt><trkpt lat="43.0548383" lon="11.4310183"><ele>473.19999999999993</ele><time>2026-04-26T09:02:22.297Z</time></trkpt><trkpt lat="43.0547583" lon="11.430965"><ele>470.8</ele><time>2026-04-26T09:02:23.299Z</time></trkpt><trkpt lat="43.0546667" lon="11.4309217"><ele>468.4</ele><time>2026-04-26T09:02:24.3Z</time></trkpt><trkpt lat="43.0545667" lon="11.4308917"><ele>466.0</ele><time>2026-04-26T09:02:25.298Z</time></trkpt><trkpt lat="43.0544683" lon="11.4308733"><ele>466.0</ele><time>2026-04-26T09:02:26.298Z</time></trkpt><trkpt lat="43.05437" lon="11.4308533"><ele>466.0</ele><time>2026-04-26T09:02:27.299Z</time></trkpt><trkpt lat="43.0542683" lon="11.43083"><ele>466.0</ele><time>2026-04-26T09:02:28.298Z</time></trkpt><trkpt lat="43.0541817" lon="11.4308133"><ele>466.0</ele><time>2026-04-26T09:02:29.296Z</time></trkpt><trkpt lat="43.0541" lon="11.4307967"><ele>466.0</ele><time>2026-04-26T09:02:30.296Z</time></trkpt><trkpt lat="43.05402" lon="11.4307867"><ele>464.6666666666667</ele><time>2026-04-26T09:02:31.296Z</time></trkpt><trkpt lat="43.053945" lon="11.4307817"><ele>463.33333333333337</ele><time>2026-04-26T09:02:32.3Z</time></trkpt><trkpt lat="43.05387" lon="11.4307767"><ele>462.0</ele><time>2026-04-26T09:02:33.295Z</time></trkpt><trkpt lat="43.053795" lon="11.4307733"><ele>460.66666666666663</ele><time>2026-04-26T09:02:34.299Z</time></trkpt><trkpt lat="43.0537183" lon="11.430765"><ele>459.3333333333333</ele><time>2026-04-26T09:02:35.296Z</time></trkpt><trkpt lat="43.0536333" lon="11.4307467"><ele>458.0</ele><time>2026-04-26T09:02:36.297Z</time></trkpt><trkpt lat="43.05354" lon="11.4307233"><ele>458.0</ele><time>2026-04-26T09:02:37.295Z</time></trkpt><trkpt lat="43.0534483" lon="11.4306867"><ele>457.99999999999994</ele><time>2026-04-26T09:02:38.296Z</time></trkpt><trkpt lat="43.0533567" lon="11.430655"><ele>457.99999999999994</ele><time>2026-04-26T09:02:39.294Z</time></trkpt><trkpt lat="43.0532683" lon="11.4306117"><ele>458.0</ele><time>2026-04-26T09:02:40.296Z</time></trkpt><trkpt lat="43.0531767" lon="11.4305733"><ele>458.0</ele><time>2026-04-26T09:02:41.297Z</time></trkpt><trkpt lat="43.053085" lon="11.43053"><ele>455.59999999999997</ele><time>2026-04-26T09:02:42.295Z</time></trkpt><trkpt lat="43.052995" lon="11.4304817"><ele>453.19999999999993</ele><time>2026-04-26T09:02:43.298Z</time></trkpt><trkpt lat="43.0529" lon="11.4304233"><ele>450.8</ele><time>2026-04-26T09:02:44.301Z</time></trkpt><trkpt lat="43.052805" lon="11.4303583"><ele>448.4</ele><time>2026-04-26T09:02:45.299Z</time></trkpt><trkpt lat="43.05271" lon="11.4302883"><ele>446.0</ele><time>2026-04-26T09:02:46.299Z</time></trkpt><trkpt lat="43.052615" lon="11.4302183"><ele>446.0</ele><time>2026-04-26T09:02:47.298Z</time></trkpt><trkpt lat="43.05252" lon="11.4301533"><ele>446.0</ele><time>2026-04-26T09:02:48.298Z</time></trkpt><trkpt lat="43.0524283" lon="11.430095"><ele>446.0</ele><time>2026-04-26T09:02:49.298Z</time></trkpt><trkpt lat="43.0523383" lon="11.430045"><ele>446.0</ele><time>2026-04-26T09:02:50.299Z</time></trkpt><trkpt lat="43.052245" lon="11.4299967"><ele>446.0</ele><time>2026-04-26T09:02:51.3Z</time></trkpt><trkpt lat="43.052155" lon="11.4299517"><ele>443.20000000000005</ele><time>2026-04-26T09:02:52.298Z</time></trkpt><trkpt lat="43.0520683" lon="11.4299067"><ele>440.40000000000003</ele><time>2026-04-26T09:02:53.3Z</time></trkpt><trkpt lat="43.0519817" lon="11.4298633"><ele>437.6</ele><time>2026-04-26T09:02:54.299Z</time></trkpt><trkpt lat="43.051895" lon="11.4298233"><ele>434.8</ele><time>2026-04-26T09:02:55.298Z</time></trkpt><trkpt lat="43.0518" lon="11.4297867"><ele>432.0</ele><time>2026-04-26T09:02:56.298Z</time></trkpt><trkpt lat="43.0517067" lon="11.429755"><ele>432.0</ele><time>2026-04-26T09:02:57.299Z</time></trkpt><trkpt lat="43.0516133" lon="11.4297183"><ele>432.00000000000006</ele><time>2026-04-26T09:02:58.296Z</time></trkpt><trkpt lat="43.0515217" lon="11.4296767"><ele>432.00000000000006</ele><time>2026-04-26T09:02:59.295Z</time></trkpt><trkpt lat="43.0514317" lon="11.429625"><ele>432.0</ele><time>2026-04-26T09:03:00.296Z</time></trkpt><trkpt lat="43.0513433" lon="11.4295617"><ele>432.0</ele><time>2026-04-26T09:03:01.296Z</time></trkpt><trkpt lat="43.0512583" lon="11.4294883"><ele>432.8</ele><time>2026-04-26T09:03:02.296Z</time></trkpt><trkpt lat="43.0511733" lon="11.42941"><ele>433.6</ele><time>2026-04-26T09:03:03.298Z</time></trkpt><trkpt lat="43.05109" lon="11.4293267"><ele>434.40000000000003</ele><time>2026-04-26T09:03:04.296Z</time></trkpt><trkpt lat="43.0510083" lon="11.4292417"><ele>435.20000000000005</ele><time>2026-04-26T09:03:05.296Z</time></trkpt><trkpt lat="43.0509283" lon="11.4291567"><ele>436.0</ele><time>2026-04-26T09:03:06.297Z</time></trkpt><trkpt lat="43.050855" lon="11.42907"><ele>436.20000000000005</ele><time>2026-04-26T09:03:07.297Z</time></trkpt><trkpt lat="43.0507817" lon="11.4289917"><ele>436.40000000000003</ele><time>2026-04-26T09:03:08.296Z</time></trkpt><trkpt lat="43.050705" lon="11.4289183"><ele>436.6</ele><time>2026-04-26T09:03:09.296Z</time></trkpt><trkpt lat="43.05063" lon="11.4288483"><ele>436.8</ele><time>2026-04-26T09:03:10.296Z</time></trkpt><trkpt lat="43.0505567" lon="11.4287817"><ele>437.0</ele><time>2026-04-26T09:03:11.3Z</time></trkpt><trkpt lat="43.0504833" lon="11.4287117"><ele>436.99999999999994</ele><time>2026-04-26T09:03:12.301Z</time></trkpt><trkpt lat="43.0504083" lon="11.4286433"><ele>437.0</ele><time>2026-04-26T09:03:13.298Z</time></trkpt><trkpt lat="43.050335" lon="11.428575"><ele>437.0</ele><time>2026-04-26T09:03:14.298Z</time></trkpt><trkpt lat="43.0502667" lon="11.4285017"><ele>437.0</ele><time>2026-04-26T09:03:15.298Z</time></trkpt><trkpt lat="43.0501983" lon="11.4284367"><ele>436.99999999999994</ele><time>2026-04-26T09:03:16.299Z</time></trkpt><trkpt lat="43.0501267" lon="11.4283867"><ele>437.0</ele><time>2026-04-26T09:03:17.299Z</time></trkpt><trkpt lat="43.05005" lon="11.4283433"><ele>436.99999999999994</ele><time>2026-04-26T09:03:18.295Z</time></trkpt><trkpt lat="43.04997" lon="11.428305"><ele>437.0</ele><time>2026-04-26T09:03:19.296Z</time></trkpt><trkpt lat="43.0498817" lon="11.4282817"><ele>437.0</ele><time>2026-04-26T09:03:20.297Z</time></trkpt><trkpt lat="43.0497933" lon="11.428245"><ele>437.0</ele><time>2026-04-26T09:03:21.298Z</time></trkpt><trkpt lat="43.04971" lon="11.4281883"><ele>436.99999999999994</ele><time>2026-04-26T09:03:22.298Z</time></trkpt><trkpt lat="43.04964" lon="11.4281167"><ele>437.0</ele><time>2026-04-26T09:03:23.297Z</time></trkpt><trkpt lat="43.0495767" lon="11.4280383"><ele>435.49999999999994</ele><time>2026-04-26T09:03:24.297Z</time></trkpt><trkpt lat="43.049515" lon="11.42796"><ele>434.0</ele><time>2026-04-26T09:03:25.298Z</time></trkpt><trkpt lat="43.0494517" lon="11.4278833"><ele>432.5</ele><time>2026-04-26T09:03:26.298Z</time></trkpt><trkpt lat="43.0493833" lon="11.4278083"><ele>431.0</ele><time>2026-04-26T09:03:27.296Z</time></trkpt><trkpt lat="43.04931" lon="11.4277367"><ele>429.49999999999994</ele><time>2026-04-26T09:03:28.297Z</time></trkpt><trkpt lat="43.04923" lon="11.4276767"><ele>428.0</ele><time>2026-04-26T09:03:29.296Z</time></trkpt><trkpt lat="43.0491483" lon="11.4276167"><ele>427.8333333333333</ele><time>2026-04-26T09:03:30.298Z</time></trkpt><trkpt lat="43.04907" lon="11.4275533"><ele>427.66666666666663</ele><time>2026-04-26T09:03:31.295Z</time></trkpt><trkpt lat="43.0489967" lon="11.4274867"><ele>427.5</ele><time>2026-04-26T09:03:32.296Z</time></trkpt><trkpt lat="43.0489283" lon="11.427415"><ele>427.33333333333337</ele><time>2026-04-26T09:03:33.297Z</time></trkpt><trkpt lat="43.04886" lon="11.42734"><ele>427.1666666666667</ele><time>2026-04-26T09:03:34.3Z</time></trkpt><trkpt lat="43.0487983" lon="11.427255"><ele>427.0</ele><time>2026-04-26T09:03:35.298Z</time></trkpt><trkpt lat="43.04874" lon="11.4271517"><ele>425.20000000000005</ele><time>2026-04-26T09:03:36.298Z</time></trkpt><trkpt lat="43.0486833" lon="11.427045"><ele>423.40000000000003</ele><time>2026-04-26T09:03:37.298Z</time></trkpt><trkpt lat="43.04862" lon="11.426945"><ele>421.6</ele><time>2026-04-26T09:03:38.299Z</time></trkpt><trkpt lat="43.0485533" lon="11.4268583"><ele>419.79999999999995</ele><time>2026-04-26T09:03:39.298Z</time></trkpt><trkpt lat="43.048485" lon="11.4267717"><ele>418.0</ele><time>2026-04-26T09:03:40.3Z</time></trkpt><trkpt lat="43.0484183" lon="11.4266833"><ele>418.00000000000006</ele><time>2026-04-26T09:03:41.298Z</time></trkpt><trkpt lat="43.0483617" lon="11.4265833"><ele>418.0</ele><time>2026-04-26T09:03:42.297Z</time></trkpt><trkpt lat="43.0483133" lon="11.42648"><ele>418.0</ele><time>2026-04-26T09:03:43.298Z</time></trkpt><trkpt lat="43.0482633" lon="11.4263783"><ele>418.0</ele><time>2026-04-26T09:03:44.298Z</time></trkpt><trkpt lat="43.0482217" lon="11.4262817"><ele>418.00000000000006</ele><time>2026-04-26T09:03:45.297Z</time></trkpt><trkpt lat="43.0481833" lon="11.4261767"><ele>418.0</ele><time>2026-04-26T09:03:46.297Z</time></trkpt><trkpt lat="43.0481467" lon="11.4260767"><ele>415.79999999999995</ele><time>2026-04-26T09:03:47.297Z</time></trkpt><trkpt lat="43.0481083" lon="11.4259783"><ele>413.6</ele><time>2026-04-26T09:03:48.298Z</time></trkpt><trkpt lat="43.048065" lon="11.4258767"><ele>411.4</ele><time>2026-04-26T09:03:49.295Z</time></trkpt><trkpt lat="43.04801" lon="11.425775"><ele>409.20000000000005</ele><time>2026-04-26T09:03:50.295Z</time></trkpt><trkpt lat="43.0479517" lon="11.4256717"><ele>407.0</ele><time>2026-04-26T09:03:51.296Z</time></trkpt><trkpt lat="43.0478883" lon="11.4255633"><ele>405.0</ele><time>2026-04-26T09:03:52.296Z</time></trkpt><trkpt lat="43.0478167" lon="11.4254533"><ele>403.0</ele><time>2026-04-26T09:03:53.297Z</time></trkpt><trkpt lat="43.0477433" lon="11.4253433"><ele>401.0</ele><time>2026-04-26T09:03:54.295Z</time></trkpt><trkpt lat="43.0476683" lon="11.4252317"><ele>399.0</ele><time>2026-04-26T09:03:55.296Z</time></trkpt><trkpt lat="43.0475967" lon="11.42512"><ele>397.0</ele><time>2026-04-26T09:03:56.298Z</time></trkpt><trkpt lat="43.0475283" lon="11.4250133"><ele>397.0</ele><time>2026-04-26T09:03:57.294Z</time></trkpt><trkpt lat="43.047465" lon="11.4249133"><ele>397.0</ele><time>2026-04-26T09:03:58.303Z</time></trkpt><trkpt lat="43.0474033" lon="11.4248267"><ele>397.0</ele><time>2026-04-26T09:03:59.299Z</time></trkpt><trkpt lat="43.047335" lon="11.42475"><ele>397.0</ele><time>2026-04-26T09:04:00.3Z</time></trkpt><trkpt lat="43.0472567" lon="11.4246867"><ele>397.0</ele><time>2026-04-26T09:04:01.301Z</time></trkpt><trkpt lat="43.047175" lon="11.42463"><ele>395.40000000000003</ele><time>2026-04-26T09:04:02.301Z</time></trkpt><trkpt lat="43.0470917" lon="11.42457"><ele>393.8</ele><time>2026-04-26T09:04:03.299Z</time></trkpt><trkpt lat="43.0470133" lon="11.4244983"><ele>392.2</ele><time>2026-04-26T09:04:04.299Z</time></trkpt><trkpt lat="43.0469517" lon="11.42441"><ele>390.6</ele><time>2026-04-26T09:04:05.298Z</time></trkpt><trkpt lat="43.0469017" lon="11.4243017"><ele>389.0</ele><time>2026-04-26T09:04:06.3Z</time></trkpt><trkpt lat="43.046865" lon="11.4241733"><ele>389.0</ele><time>2026-04-26T09:04:07.299Z</time></trkpt><trkpt lat="43.0468283" lon="11.42405"><ele>389.0</ele><time>2026-04-26T09:04:08.299Z</time></trkpt><trkpt lat="43.04679" lon="11.423925"><ele>389.0</ele><time>2026-04-26T09:04:09.299Z</time></trkpt><trkpt lat="43.0467483" lon="11.4238017"><ele>389.0</ele><time>2026-04-26T09:04:10.299Z</time></trkpt><trkpt lat="43.04671" lon="11.42368"><ele>389.0</ele><time>2026-04-26T09:04:11.298Z</time></trkpt><trkpt lat="43.046665" lon="11.4235633"><ele>388.6</ele><time>2026-04-26T09:04:12.299Z</time></trkpt><trkpt lat="43.0466183" lon="11.4234483"><ele>388.2</ele><time>2026-04-26T09:04:13.299Z</time></trkpt><trkpt lat="43.0465767" lon="11.4233333"><ele>387.8</ele><time>2026-04-26T09:04:14.297Z</time></trkpt><trkpt lat="43.0465333" lon="11.4232183"><ele>387.40000000000003</ele><time>2026-04-26T09:04:15.298Z</time></trkpt><trkpt lat="43.04649" lon="11.4231033"><ele>387.0</ele><time>2026-04-26T09:04:16.295Z</time></trkpt><trkpt lat="43.04645" lon="11.42299"><ele>389.1666666666667</ele><time>2026-04-26T09:04:17.297Z</time></trkpt><trkpt lat="43.046415" lon="11.4228783"><ele>391.33333333333337</ele><time>2026-04-26T09:04:18.296Z</time></trkpt><trkpt lat="43.0463783" lon="11.4227683"><ele>393.5</ele><time>2026-04-26T09:04:19.296Z</time></trkpt><trkpt lat="43.04634" lon="11.42266"><ele>395.6666666666667</ele><time>2026-04-26T09:04:20.296Z</time></trkpt><trkpt lat="43.0463033" lon="11.4225667"><ele>397.83333333333337</ele><time>2026-04-26T09:04:21.297Z</time></trkpt><trkpt lat="43.046265" lon="11.4224767"><ele>400.0</ele><time>2026-04-26T09:04:22.297Z</time></trkpt><trkpt lat="43.0462267" lon="11.4223867"><ele>400.00000000000006</ele><time>2026-04-26T09:04:23.297Z</time></trkpt><trkpt lat="43.046195" lon="11.42231"><ele>400.0</ele><time>2026-04-26T09:04:24.297Z</time></trkpt><trkpt lat="43.0461433" lon="11.42219"><ele>400.0</ele><time>2026-04-26T09:04:26.298Z</time></trkpt><trkpt lat="43.0461233" lon="11.422085"><ele>400.0</ele><time>2026-04-26T09:04:28.295Z</time></trkpt><trkpt lat="43.0461317" lon="11.4219883"><ele>400.00000000000006</ele><time>2026-04-26T09:04:30.3Z</time></trkpt><trkpt lat="43.04615" lon="11.42189"><ele>400.0</ele><time>2026-04-26T09:04:32.3Z</time></trkpt><trkpt lat="43.0461733" lon="11.421725"><ele>400.00000000000006</ele><time>2026-04-26T09:04:34.298Z</time></trkpt><trkpt lat="43.0461883" lon="11.421635"><ele>400.0</ele><time>2026-04-26T09:04:35.299Z</time></trkpt><trkpt lat="43.04621" lon="11.42154"><ele>400.0</ele><time>2026-04-26T09:04:36.298Z</time></trkpt><trkpt lat="43.04624" lon="11.4214383"><ele>400.0</ele><time>2026-04-26T09:04:37.299Z</time></trkpt><trkpt lat="43.0462817" lon="11.421345"><ele>400.00000000000006</ele><time>2026-04-26T09:04:38.3Z</time></trkpt><trkpt lat="43.046325" lon="11.421245"><ele>400.0</ele><time>2026-04-26T09:04:39.298Z</time></trkpt><trkpt lat="43.04637" lon="11.42114"><ele>400.00000000000006</ele><time>2026-04-26T09:04:40.298Z</time></trkpt><trkpt lat="43.046405" lon="11.42103"><ele>400.0</ele><time>2026-04-26T09:04:41.297Z</time></trkpt><trkpt lat="43.0464333" lon="11.4209233"><ele>400.0</ele><time>2026-04-26T09:04:42.299Z</time></trkpt><trkpt lat="43.0464567" lon="11.420825"><ele>400.0</ele><time>2026-04-26T09:04:43.299Z</time></trkpt><trkpt lat="43.0464683" lon="11.4207333"><ele>400.00000000000006</ele><time>2026-04-26T09:04:44.3Z</time></trkpt><trkpt lat="43.04647" lon="11.4206383"><ele>400.0</ele><time>2026-04-26T09:04:45.299Z</time></trkpt><trkpt lat="43.046455" lon="11.4205383"><ele>398.2</ele><time>2026-04-26T09:04:46.295Z</time></trkpt><trkpt lat="43.0464167" lon="11.42045"><ele>396.4</ele><time>2026-04-26T09:04:47.295Z</time></trkpt><trkpt lat="43.046365" lon="11.420365"><ele>394.6</ele><time>2026-04-26T09:04:48.296Z</time></trkpt><trkpt lat="43.0463017" lon="11.4202667"><ele>392.8</ele><time>2026-04-26T09:04:49.297Z</time></trkpt><trkpt lat="43.0462333" lon="11.42016"><ele>391.0</ele><time>2026-04-26T09:04:50.298Z</time></trkpt><trkpt lat="43.0461683" lon="11.4200433"><ele>391.0</ele><time>2026-04-26T09:04:51.297Z</time></trkpt><trkpt lat="43.0461033" lon="11.4199267"><ele>391.0</ele><time>2026-04-26T09:04:52.296Z</time></trkpt><trkpt lat="43.046045" lon="11.419815"><ele>391.0</ele><time>2026-04-26T09:04:53.298Z</time></trkpt><trkpt lat="43.0459917" lon="11.41971"><ele>391.0</ele><time>2026-04-26T09:04:54.298Z</time></trkpt><trkpt lat="43.0459417" lon="11.4196183"><ele>391.0</ele><time>2026-04-26T09:04:55.297Z</time></trkpt><trkpt lat="43.0458917" lon="11.4195217"><ele>389.6</ele><time>2026-04-26T09:04:56.297Z</time></trkpt><trkpt lat="43.0458417" lon="11.4194267"><ele>388.20000000000005</ele><time>2026-04-26T09:04:57.297Z</time></trkpt><trkpt lat="43.0457883" lon="11.4193283"><ele>386.79999999999995</ele><time>2026-04-26T09:04:58.296Z</time></trkpt><trkpt lat="43.0457267" lon="11.4192283"><ele>385.4</ele><time>2026-04-26T09:04:59.296Z</time></trkpt><trkpt lat="43.045655" lon="11.41913"><ele>384.0</ele><time>2026-04-26T09:05:00.298Z</time></trkpt><trkpt lat="43.04558" lon="11.419055"><ele>383.6</ele><time>2026-04-26T09:05:01.297Z</time></trkpt><trkpt lat="43.0455017" lon="11.4189817"><ele>383.2</ele><time>2026-04-26T09:05:02.297Z</time></trkpt><trkpt lat="43.0454233" lon="11.4189133"><ele>382.8</ele><time>2026-04-26T09:05:03.299Z</time></trkpt><trkpt lat="43.0453483" lon="11.418845"><ele>382.40000000000003</ele><time>2026-04-26T09:05:04.298Z</time></trkpt><trkpt lat="43.0452717" lon="11.4187767"><ele>382.0</ele><time>2026-04-26T09:05:05.299Z</time></trkpt><trkpt lat="43.0451967" lon="11.4187117"><ele>381.6</ele><time>2026-04-26T09:05:06.299Z</time></trkpt><trkpt lat="43.0451233" lon="11.418645"><ele>381.20000000000005</ele><time>2026-04-26T09:05:07.298Z</time></trkpt><trkpt lat="43.0450517" lon="11.41857"><ele>380.8</ele><time>2026-04-26T09:05:08.298Z</time></trkpt><trkpt lat="43.0449817" lon="11.4184917"><ele>380.4</ele><time>2026-04-26T09:05:09.299Z</time></trkpt><trkpt lat="43.04491" lon="11.41841"><ele>380.0</ele><time>2026-04-26T09:05:10.298Z</time></trkpt><trkpt lat="43.0448367" lon="11.4183283"><ele>378.6</ele><time>2026-04-26T09:05:11.299Z</time></trkpt><trkpt lat="43.0447633" lon="11.418245"><ele>377.2</ele><time>2026-04-26T09:05:12.299Z</time></trkpt><trkpt lat="43.04469" lon="11.4181567"><ele>375.79999999999995</ele><time>2026-04-26T09:05:13.298Z</time></trkpt><trkpt lat="43.0446133" lon="11.4180717"><ele>374.4</ele><time>2026-04-26T09:05:14.297Z</time></trkpt><trkpt lat="43.0445417" lon="11.417985"><ele>373.0</ele><time>2026-04-26T09:05:15.3Z</time></trkpt><trkpt lat="43.0444683" lon="11.417895"><ele>373.0</ele><time>2026-04-26T09:05:16.299Z</time></trkpt><trkpt lat="43.0443967" lon="11.4178117"><ele>373.0</ele><time>2026-04-26T09:05:17.296Z</time></trkpt><trkpt lat="43.0443233" lon="11.417735"><ele>373.0</ele><time>2026-04-26T09:05:18.298Z</time></trkpt><trkpt lat="43.04425" lon="11.4176583"><ele>373.0</ele><time>2026-04-26T09:05:19.295Z</time></trkpt><trkpt lat="43.0441783" lon="11.4175867"><ele>373.0</ele><time>2026-04-26T09:05:20.296Z</time></trkpt><trkpt lat="43.044105" lon="11.4175117"><ele>372.0</ele><time>2026-04-26T09:05:21.295Z</time></trkpt><trkpt lat="43.044035" lon="11.4174267"><ele>371.0</ele><time>2026-04-26T09:05:22.296Z</time></trkpt><trkpt lat="43.0439667" lon="11.4173317"><ele>370.0</ele><time>2026-04-26T09:05:23.296Z</time></trkpt><trkpt lat="43.0439017" lon="11.417235"><ele>369.0</ele><time>2026-04-26T09:05:24.298Z</time></trkpt><trkpt lat="43.0438367" lon="11.417135"><ele>368.0</ele><time>2026-04-26T09:05:25.298Z</time></trkpt><trkpt lat="43.0437733" lon="11.4170367"><ele>368.0</ele><time>2026-04-26T09:05:26.298Z</time></trkpt><trkpt lat="43.0437117" lon="11.4169383"><ele>368.0</ele><time>2026-04-26T09:05:27.297Z</time></trkpt><trkpt lat="43.0436517" lon="11.416835"><ele>368.0</ele><time>2026-04-26T09:05:28.296Z</time></trkpt><trkpt lat="43.04359" lon="11.416725"><ele>368.0</ele><time>2026-04-26T09:05:29.298Z</time></trkpt><trkpt lat="43.0435333" lon="11.41662"><ele>368.0</ele><time>2026-04-26T09:05:30.3Z</time></trkpt><trkpt lat="43.04348" lon="11.4165183"><ele>368.0</ele><time>2026-04-26T09:05:31.299Z</time></trkpt><trkpt lat="43.0434283" lon="11.4164183"><ele>368.0</ele><time>2026-04-26T09:05:32.299Z</time></trkpt><trkpt lat="43.04337" lon="11.416315"><ele>368.0</ele><time>2026-04-26T09:05:33.3Z</time></trkpt><trkpt lat="43.0433083" lon="11.416215"><ele>368.0</ele><time>2026-04-26T09:05:34.299Z</time></trkpt><trkpt lat="43.0432433" lon="11.4161117"><ele>368.0</ele><time>2026-04-26T09:05:35.3Z</time></trkpt><trkpt lat="43.04318" lon="11.4160017"><ele>366.59999999999997</ele><time>2026-04-26T09:05:36.299Z</time></trkpt><trkpt lat="43.043115" lon="11.41589"><ele>365.2</ele><time>2026-04-26T09:05:37.3Z</time></trkpt><trkpt lat="43.0430533" lon="11.4157783"><ele>363.8</ele><time>2026-04-26T09:05:38.299Z</time></trkpt><trkpt lat="43.0429967" lon="11.4156617"><ele>362.4</ele><time>2026-04-26T09:05:39.298Z</time></trkpt><trkpt lat="43.0429433" lon="11.41554"><ele>361.0</ele><time>2026-04-26T09:05:40.299Z</time></trkpt><trkpt lat="43.0428933" lon="11.415425"><ele>360.8</ele><time>2026-04-26T09:05:41.299Z</time></trkpt><trkpt lat="43.0428433" lon="11.4153117"><ele>360.6</ele><time>2026-04-26T09:05:42.299Z</time></trkpt><trkpt lat="43.04279" lon="11.4151967"><ele>360.4</ele><time>2026-04-26T09:05:43.3Z</time></trkpt><trkpt lat="43.04273" lon="11.4150883"><ele>360.2</ele><time>2026-04-26T09:05:44.298Z</time></trkpt><trkpt lat="43.0426617" lon="11.4149867"><ele>360.0</ele><time>2026-04-26T09:05:45.298Z</time></trkpt><trkpt lat="43.0425883" lon="11.4148867"><ele>360.0</ele><time>2026-04-26T09:05:46.298Z</time></trkpt><trkpt lat="43.0425133" lon="11.4147883"><ele>360.0</ele><time>2026-04-26T09:05:47.296Z</time></trkpt><trkpt lat="43.0424383" lon="11.4146967"><ele>360.0</ele><time>2026-04-26T09:05:48.296Z</time></trkpt><trkpt lat="43.042365" lon="11.41461"><ele>360.0</ele><time>2026-04-26T09:05:49.296Z</time></trkpt><trkpt lat="43.0422967" lon="11.4145267"><ele>360.0</ele><time>2026-04-26T09:05:50.297Z</time></trkpt><trkpt lat="43.04223" lon="11.4144483"><ele>358.2</ele><time>2026-04-26T09:05:51.297Z</time></trkpt><trkpt lat="43.0421633" lon="11.4143667"><ele>356.4</ele><time>2026-04-26T09:05:52.296Z</time></trkpt><trkpt lat="43.0421017" lon="11.4142767"><ele>354.6</ele><time>2026-04-26T09:05:53.296Z</time></trkpt><trkpt lat="43.0420467" lon="11.4141767"><ele>352.8</ele><time>2026-04-26T09:05:54.298Z</time></trkpt><trkpt lat="43.042" lon="11.414065"><ele>351.0</ele><time>2026-04-26T09:05:55.298Z</time></trkpt><trkpt lat="43.0419617" lon="11.413945"><ele>351.0</ele><time>2026-04-26T09:05:56.298Z</time></trkpt><trkpt lat="43.0419217" lon="11.4138267"><ele>351.0</ele><time>2026-04-26T09:05:57.299Z</time></trkpt><trkpt lat="43.041885" lon="11.41371"><ele>351.0</ele><time>2026-04-26T09:05:58.298Z</time></trkpt><trkpt lat="43.04185" lon="11.4135917"><ele>351.0</ele><time>2026-04-26T09:05:59.298Z</time></trkpt><trkpt lat="43.0418083" lon="11.4134767"><ele>351.0</ele><time>2026-04-26T09:06:00.298Z</time></trkpt><trkpt lat="43.04177" lon="11.4133617"><ele>349.8</ele><time>2026-04-26T09:06:01.3Z</time></trkpt><trkpt lat="43.0417333" lon="11.4132417"><ele>348.6</ele><time>2026-04-26T09:06:02.298Z</time></trkpt><trkpt lat="43.0416967" lon="11.4131233"><ele>347.4</ele><time>2026-04-26T09:06:03.298Z</time></trkpt><trkpt lat="43.0416617" lon="11.413005"><ele>346.2</ele><time>2026-04-26T09:06:04.298Z</time></trkpt><trkpt lat="43.0416267" lon="11.412885"><ele>345.0</ele><time>2026-04-26T09:06:05.299Z</time></trkpt><trkpt lat="43.04159" lon="11.41276"><ele>342.2</ele><time>2026-04-26T09:06:06.299Z</time></trkpt><trkpt lat="43.04156" lon="11.4126317"><ele>339.4</ele><time>2026-04-26T09:06:07.3Z</time></trkpt><trkpt lat="43.0415433" lon="11.4125"><ele>336.6</ele><time>2026-04-26T09:06:08.3Z</time></trkpt><trkpt lat="43.04153" lon="11.4123617"><ele>333.8</ele><time>2026-04-26T09:06:09.298Z</time></trkpt><trkpt lat="43.0415233" lon="11.41222"><ele>331.0</ele><time>2026-04-26T09:06:10.3Z</time></trkpt><trkpt lat="43.0415217" lon="11.4120767"><ele>329.6</ele><time>2026-04-26T09:06:11.298Z</time></trkpt><trkpt lat="43.0415217" lon="11.4119333"><ele>328.20000000000005</ele><time>2026-04-26T09:06:12.299Z</time></trkpt><trkpt lat="43.0415233" lon="11.41179"><ele>326.79999999999995</ele><time>2026-04-26T09:06:13.298Z</time></trkpt><trkpt lat="43.0415283" lon="11.411645"><ele>325.4</ele><time>2026-04-26T09:06:14.3Z</time></trkpt><trkpt lat="43.0415333" lon="11.4115"><ele>324.0</ele><time>2026-04-26T09:06:15.298Z</time></trkpt><trkpt lat="43.04154" lon="11.4113517"><ele>323.6</ele><time>2026-04-26T09:06:16.298Z</time></trkpt><trkpt lat="43.0415467" lon="11.4112"><ele>323.2</ele><time>2026-04-26T09:06:17.299Z</time></trkpt><trkpt lat="43.0415583" lon="11.4110467"><ele>322.8</ele><time>2026-04-26T09:06:18.299Z</time></trkpt><trkpt lat="43.0415733" lon="11.4109"><ele>322.40000000000003</ele><time>2026-04-26T09:06:19.298Z</time></trkpt><trkpt lat="43.0415883" lon="11.41076"><ele>322.0</ele><time>2026-04-26T09:06:20.299Z</time></trkpt><trkpt lat="43.0416017" lon="11.41062"><ele>321.8</ele><time>2026-04-26T09:06:21.299Z</time></trkpt><trkpt lat="43.04162" lon="11.410485"><ele>321.6</ele><time>2026-04-26T09:06:22.299Z</time></trkpt><trkpt lat="43.0416383" lon="11.4103533"><ele>321.40000000000003</ele><time>2026-04-26T09:06:23.298Z</time></trkpt><trkpt lat="43.041655" lon="11.4102183"><ele>321.20000000000005</ele><time>2026-04-26T09:06:24.298Z</time></trkpt><trkpt lat="43.0416733" lon="11.4100817"><ele>321.0</ele><time>2026-04-26T09:06:25.298Z</time></trkpt><trkpt lat="43.04169" lon="11.4099433"><ele>321.0</ele><time>2026-04-26T09:06:26.299Z</time></trkpt><trkpt lat="43.0417" lon="11.4098033"><ele>321.0</ele><time>2026-04-26T09:06:27.298Z</time></trkpt><trkpt lat="43.04171" lon="11.4096617"><ele>321.0</ele><time>2026-04-26T09:06:28.298Z</time></trkpt><trkpt lat="43.04172" lon="11.4095183"><ele>321.0</ele><time>2026-04-26T09:06:29.299Z</time></trkpt><trkpt lat="43.041725" lon="11.4093733"><ele>321.0</ele><time>2026-04-26T09:06:30.3Z</time></trkpt><trkpt lat="43.0417267" lon="11.40923"><ele>319.40000000000003</ele><time>2026-04-26T09:06:31.298Z</time></trkpt><trkpt lat="43.0417267" lon="11.4090883"><ele>317.8</ele><time>2026-04-26T09:06:32.298Z</time></trkpt><trkpt lat="43.04173" lon="11.40895"><ele>316.20000000000005</ele><time>2026-04-26T09:06:33.299Z</time></trkpt><trkpt lat="43.041735" lon="11.4088133"><ele>314.6</ele><time>2026-04-26T09:06:34.299Z</time></trkpt><trkpt lat="43.04174" lon="11.408675"><ele>313.0</ele><time>2026-04-26T09:06:35.298Z</time></trkpt><trkpt lat="43.0417467" lon="11.40854"><ele>311.66666666666663</ele><time>2026-04-26T09:06:36.299Z</time></trkpt><trkpt lat="43.0417517" lon="11.4084083"><ele>310.3333333333333</ele><time>2026-04-26T09:06:37.298Z</time></trkpt><trkpt lat="43.0417583" lon="11.4082833"><ele>309.0</ele><time>2026-04-26T09:06:38.299Z</time></trkpt><trkpt lat="43.0417633" lon="11.4081683"><ele>307.6666666666667</ele><time>2026-04-26T09:06:39.297Z</time></trkpt><trkpt lat="43.04177" lon="11.4080633"><ele>306.33333333333337</ele><time>2026-04-26T09:06:40.298Z</time></trkpt><trkpt lat="43.0417683" lon="11.4079667"><ele>305.0</ele><time>2026-04-26T09:06:41.299Z</time></trkpt><trkpt lat="43.04175" lon="11.4078733"><ele>303.5</ele><time>2026-04-26T09:06:42.299Z</time></trkpt><trkpt lat="43.0417167" lon="11.40779"><ele>302.0</ele><time>2026-04-26T09:06:43.298Z</time></trkpt><trkpt lat="43.0416683" lon="11.4077233"><ele>300.5</ele><time>2026-04-26T09:06:44.3Z</time></trkpt><trkpt lat="43.0416033" lon="11.4076783"><ele>299.0</ele><time>2026-04-26T09:06:45.299Z</time></trkpt><trkpt lat="43.0415233" lon="11.407665"><ele>297.5</ele><time>2026-04-26T09:06:46.3Z</time></trkpt><trkpt lat="43.0414233" lon="11.4076633"><ele>296.0</ele><time>2026-04-26T09:06:47.298Z</time></trkpt><trkpt lat="43.0413217" lon="11.4076583"><ele>296.0</ele><time>2026-04-26T09:06:48.299Z</time></trkpt><trkpt lat="43.0412183" lon="11.4076483"><ele>296.0</ele><time>2026-04-26T09:06:49.299Z</time></trkpt><trkpt lat="43.04112" lon="11.4076283"><ele>296.0</ele><time>2026-04-26T09:06:50.3Z</time></trkpt><trkpt lat="43.0410283" lon="11.4075983"><ele>296.0</ele><time>2026-04-26T09:06:51.3Z</time></trkpt><trkpt lat="43.0409367" lon="11.40758"><ele>296.0</ele><time>2026-04-26T09:06:52.299Z</time></trkpt><trkpt lat="43.0408433" lon="11.4075633"><ele>295.1666666666667</ele><time>2026-04-26T09:06:53.298Z</time></trkpt><trkpt lat="43.0407567" lon="11.4075533"><ele>294.33333333333337</ele><time>2026-04-26T09:06:54.297Z</time></trkpt><trkpt lat="43.040675" lon="11.4075433"><ele>293.5</ele><time>2026-04-26T09:06:55.299Z</time></trkpt><trkpt lat="43.0405933" lon="11.4075517"><ele>292.6666666666667</ele><time>2026-04-26T09:06:56.297Z</time></trkpt><trkpt lat="43.040515" lon="11.4075683"><ele>291.8333333333333</ele><time>2026-04-26T09:06:57.297Z</time></trkpt><trkpt lat="43.040435" lon="11.4076067"><ele>291.0</ele><time>2026-04-26T09:06:58.298Z</time></trkpt><trkpt lat="43.0403567" lon="11.4076567"><ele>291.0</ele><time>2026-04-26T09:06:59.299Z</time></trkpt><trkpt lat="43.0402767" lon="11.4077133"><ele>291.0</ele><time>2026-04-26T09:07:00.296Z</time></trkpt><trkpt lat="43.0402017" lon="11.4077733"><ele>291.0</ele><time>2026-04-26T09:07:01.297Z</time></trkpt><trkpt lat="43.0401267" lon="11.40783"><ele>291.0</ele><time>2026-04-26T09:07:02.297Z</time></trkpt><trkpt lat="43.0400517" lon="11.4078817"><ele>291.0</ele><time>2026-04-26T09:07:03.298Z</time></trkpt><trkpt lat="43.0399833" lon="11.4079283"><ele>291.0</ele><time>2026-04-26T09:07:04.297Z</time></trkpt><trkpt lat="43.03992" lon="11.40797"><ele>290.6</ele><time>2026-04-26T09:07:05.296Z</time></trkpt><trkpt lat="43.0398583" lon="11.4080033"><ele>290.20000000000005</ele><time>2026-04-26T09:07:06.296Z</time></trkpt><trkpt lat="43.039745" lon="11.4080517"><ele>289.79999999999995</ele><time>2026-04-26T09:07:08.299Z</time></trkpt><trkpt lat="43.03968" lon="11.4080617"><ele>289.4</ele><time>2026-04-26T09:07:09.299Z</time></trkpt><trkpt lat="43.03955" lon="11.4080967"><ele>289.0</ele><time>2026-04-26T09:07:11.298Z</time></trkpt><trkpt lat="43.0394767" lon="11.4081117"><ele>289.0</ele><time>2026-04-26T09:07:12.301Z</time></trkpt><trkpt lat="43.0394033" lon="11.408125"><ele>289.0</ele><time>2026-04-26T09:07:13.298Z</time></trkpt><trkpt lat="43.03933" lon="11.40814"><ele>289.0</ele><time>2026-04-26T09:07:14.3Z</time></trkpt><trkpt lat="43.039255" lon="11.4081583"><ele>289.0</ele><time>2026-04-26T09:07:15.297Z</time></trkpt><trkpt lat="43.0391767" lon="11.4081833"><ele>289.0</ele><time>2026-04-26T09:07:16.298Z</time></trkpt><trkpt lat="43.0391" lon="11.4082133"><ele>289.0</ele><time>2026-04-26T09:07:17.299Z</time></trkpt><trkpt lat="43.0390233" lon="11.408245"><ele>287.4</ele><time>2026-04-26T09:07:18.298Z</time></trkpt><trkpt lat="43.0389433" lon="11.40828"><ele>285.79999999999995</ele><time>2026-04-26T09:07:19.298Z</time></trkpt><trkpt lat="43.0388617" lon="11.4083167"><ele>284.20000000000005</ele><time>2026-04-26T09:07:20.3Z</time></trkpt><trkpt lat="43.0387733" lon="11.408365"><ele>282.6</ele><time>2026-04-26T09:07:21.299Z</time></trkpt><trkpt lat="43.038685" lon="11.4084133"><ele>281.0</ele><time>2026-04-26T09:07:22.3Z</time></trkpt><trkpt lat="43.0385933" lon="11.4084617"><ele>281.0</ele><time>2026-04-26T09:07:23.3Z</time></trkpt><trkpt lat="43.0384983" lon="11.4085117"><ele>281.0</ele><time>2026-04-26T09:07:24.298Z</time></trkpt><trkpt lat="43.0384083" lon="11.4085683"><ele>281.0</ele><time>2026-04-26T09:07:25.298Z</time></trkpt><trkpt lat="43.0383183" lon="11.40863"><ele>281.0</ele><time>2026-04-26T09:07:26.3Z</time></trkpt><trkpt lat="43.038235" lon="11.4087"><ele>281.0</ele><time>2026-04-26T09:07:27.299Z</time></trkpt><trkpt lat="43.0381617" lon="11.4087867"><ele>280.2</ele><time>2026-04-26T09:07:28.298Z</time></trkpt><trkpt lat="43.03809" lon="11.40888"><ele>279.40000000000003</ele><time>2026-04-26T09:07:29.3Z</time></trkpt><trkpt lat="43.0380233" lon="11.4089767"><ele>278.6</ele><time>2026-04-26T09:07:30.298Z</time></trkpt><trkpt lat="43.037955" lon="11.4090767"><ele>277.8</ele><time>2026-04-26T09:07:31.299Z</time></trkpt><trkpt lat="43.0378883" lon="11.4091733"><ele>277.0</ele><time>2026-04-26T09:07:32.299Z</time></trkpt><trkpt lat="43.037825" lon="11.40926"><ele>277.0</ele><time>2026-04-26T09:07:33.299Z</time></trkpt><trkpt lat="43.0377683" lon="11.4093383"><ele>277.0</ele><time>2026-04-26T09:07:34.298Z</time></trkpt><trkpt lat="43.0377117" lon="11.4094067"><ele>277.0</ele><time>2026-04-26T09:07:35.299Z</time></trkpt><trkpt lat="43.0376533" lon="11.4094617"><ele>277.0</ele><time>2026-04-26T09:07:36.299Z</time></trkpt><trkpt lat="43.0375917" lon="11.40949"><ele>277.0</ele><time>2026-04-26T09:07:37.299Z</time></trkpt><trkpt lat="43.03752" lon="11.4094967"><ele>277.0</ele><time>2026-04-26T09:07:38.3Z</time></trkpt><trkpt lat="43.0374467" lon="11.4094433"><ele>277.0</ele><time>2026-04-26T09:07:39.3Z</time></trkpt><trkpt lat="43.037375" lon="11.4093617"><ele>276.6</ele><time>2026-04-26T09:07:40.298Z</time></trkpt><trkpt lat="43.03731" lon="11.4092533"><ele>276.2</ele><time>2026-04-26T09:07:41.299Z</time></trkpt><trkpt lat="43.0372467" lon="11.4091383"><ele>275.8</ele><time>2026-04-26T09:07:42.298Z</time></trkpt><trkpt lat="43.0371767" lon="11.4090267"><ele>275.4</ele><time>2026-04-26T09:07:43.299Z</time></trkpt><trkpt lat="43.03711" lon="11.4089183"><ele>275.0</ele><time>2026-04-26T09:07:44.301Z</time></trkpt><trkpt lat="43.0370433" lon="11.4088133"><ele>274.0</ele><time>2026-04-26T09:07:45.296Z</time></trkpt><trkpt lat="43.0369767" lon="11.40871"><ele>273.0</ele><time>2026-04-26T09:07:46.299Z</time></trkpt><trkpt lat="43.0369133" lon="11.40861"><ele>272.0</ele><time>2026-04-26T09:07:47.298Z</time></trkpt><trkpt lat="43.0368533" lon="11.4085067"><ele>271.0</ele><time>2026-04-26T09:07:48.3Z</time></trkpt><trkpt lat="43.0368017" lon="11.4084117"><ele>270.0</ele><time>2026-04-26T09:07:49.301Z</time></trkpt><trkpt lat="43.0367567" lon="11.4083367"><ele>270.0</ele><time>2026-04-26T09:07:50.301Z</time></trkpt><trkpt lat="43.0366683" lon="11.4082433"><ele>270.0</ele><time>2026-04-26T09:07:52.298Z</time></trkpt><trkpt lat="43.0365583" lon="11.408255"><ele>270.0</ele><time>2026-04-26T09:07:54.299Z</time></trkpt><trkpt lat="43.0364983" lon="11.4082983"><ele>270.0</ele><time>2026-04-26T09:07:55.299Z</time></trkpt><trkpt lat="43.0364333" lon="11.4083667"><ele>270.0</ele><time>2026-04-26T09:07:56.298Z</time></trkpt><trkpt lat="43.0363683" lon="11.4084533"><ele>270.4</ele><time>2026-04-26T09:07:57.298Z</time></trkpt><trkpt lat="43.0363017" lon="11.4085467"><ele>270.8</ele><time>2026-04-26T09:07:58.3Z</time></trkpt><trkpt lat="43.0362317" lon="11.4086433"><ele>271.2</ele><time>2026-04-26T09:07:59.299Z</time></trkpt><trkpt lat="43.0361617" lon="11.40874"><ele>271.6</ele><time>2026-04-26T09:08:00.299Z</time></trkpt><trkpt lat="43.0360883" lon="11.4088417"><ele>272.0</ele><time>2026-04-26T09:08:01.298Z</time></trkpt><trkpt lat="43.0360133" lon="11.4089467"><ele>272.0</ele><time>2026-04-26T09:08:02.298Z</time></trkpt><trkpt lat="43.0359367" lon="11.409055"><ele>272.0</ele><time>2026-04-26T09:08:03.298Z</time></trkpt><trkpt lat="43.03586" lon="11.4091617"><ele>272.0</ele><time>2026-04-26T09:08:04.299Z</time></trkpt><trkpt lat="43.035785" lon="11.4092633"><ele>272.0</ele><time>2026-04-26T09:08:05.299Z</time></trkpt><trkpt lat="43.0357083" lon="11.4093633"><ele>272.0</ele><time>2026-04-26T09:08:06.3Z</time></trkpt><trkpt lat="43.0356267" lon="11.409455"><ele>271.6</ele><time>2026-04-26T09:08:07.298Z</time></trkpt><trkpt lat="43.035545" lon="11.409545"><ele>271.2</ele><time>2026-04-26T09:08:08.296Z</time></trkpt><trkpt lat="43.0354617" lon="11.4096333"><ele>270.8</ele><time>2026-04-26T09:08:09.296Z</time></trkpt><trkpt lat="43.035375" lon="11.409715"><ele>270.4</ele><time>2026-04-26T09:08:10.299Z</time></trkpt><trkpt lat="43.0352867" lon="11.409795"><ele>270.0</ele><time>2026-04-26T09:08:11.299Z</time></trkpt><trkpt lat="43.0351983" lon="11.40987"><ele>270.8</ele><time>2026-04-26T09:08:12.298Z</time></trkpt><trkpt lat="43.0351067" lon="11.4099417"><ele>271.6</ele><time>2026-04-26T09:08:13.298Z</time></trkpt><trkpt lat="43.0350133" lon="11.4100117"><ele>272.4</ele><time>2026-04-26T09:08:14.299Z</time></trkpt><trkpt lat="43.0349217" lon="11.4100783"><ele>273.2</ele><time>2026-04-26T09:08:15.298Z</time></trkpt><trkpt lat="43.0348317" lon="11.410145"><ele>274.0</ele><time>2026-04-26T09:08:16.298Z</time></trkpt><trkpt lat="43.0347433" lon="11.410205"><ele>274.0</ele><time>2026-04-26T09:08:17.301Z</time></trkpt><trkpt lat="43.03465" lon="11.4102617"><ele>274.0</ele><time>2026-04-26T09:08:18.298Z</time></trkpt><trkpt lat="43.0345533" lon="11.4103117"><ele>274.0</ele><time>2026-04-26T09:08:19.298Z</time></trkpt><trkpt lat="43.0344567" lon="11.410355"><ele>274.0</ele><time>2026-04-26T09:08:20.299Z</time></trkpt><trkpt lat="43.0343633" lon="11.4103917"><ele>274.0</ele><time>2026-04-26T09:08:21.299Z</time></trkpt><trkpt lat="43.0342717" lon="11.41042"><ele>274.0</ele><time>2026-04-26T09:08:22.299Z</time></trkpt><trkpt lat="43.0341783" lon="11.410435"><ele>274.0</ele><time>2026-04-26T09:08:23.298Z</time></trkpt><trkpt lat="43.0340817" lon="11.410445"><ele>274.0</ele><time>2026-04-26T09:08:24.3Z</time></trkpt><trkpt lat="43.0339817" lon="11.41045"><ele>274.0</ele><time>2026-04-26T09:08:25.297Z</time></trkpt><trkpt lat="43.0338783" lon="11.4104567"><ele>274.0</ele><time>2026-04-26T09:08:26.298Z</time></trkpt><trkpt lat="43.033775" lon="11.41047"><ele>273.8</ele><time>2026-04-26T09:08:27.296Z</time></trkpt><trkpt lat="43.03367" lon="11.4104833"><ele>273.59999999999997</ele><time>2026-04-26T09:08:28.296Z</time></trkpt><trkpt lat="43.0335633" lon="11.4105017"><ele>273.4</ele><time>2026-04-26T09:08:29.298Z</time></trkpt><trkpt lat="43.0334617" lon="11.4105183"><ele>273.2</ele><time>2026-04-26T09:08:30.297Z</time></trkpt><trkpt lat="43.0333567" lon="11.4105383"><ele>273.0</ele><time>2026-04-26T09:08:31.296Z</time></trkpt><trkpt lat="43.033255" lon="11.4105567"><ele>271.0</ele><time>2026-04-26T09:08:32.296Z</time></trkpt><trkpt lat="43.0331533" lon="11.4105817"><ele>269.0</ele><time>2026-04-26T09:08:33.297Z</time></trkpt><trkpt lat="43.0330533" lon="11.4105983"><ele>267.0</ele><time>2026-04-26T09:08:34.296Z</time></trkpt><trkpt lat="43.0329533" lon="11.410615"><ele>265.0</ele><time>2026-04-26T09:08:35.298Z</time></trkpt><trkpt lat="43.032855" lon="11.4106333"><ele>263.0</ele><time>2026-04-26T09:08:36.295Z</time></trkpt><trkpt lat="43.0327617" lon="11.410645"><ele>263.0</ele><time>2026-04-26T09:08:37.3Z</time></trkpt><trkpt lat="43.0326667" lon="11.4106667"><ele>263.0</ele><time>2026-04-26T09:08:38.297Z</time></trkpt><trkpt lat="43.03257" lon="11.4106983"><ele>263.0</ele><time>2026-04-26T09:08:39.296Z</time></trkpt><trkpt lat="43.0324733" lon="11.4107283"><ele>263.0</ele><time>2026-04-26T09:08:40.298Z</time></trkpt><trkpt lat="43.0323783" lon="11.4107567"><ele>263.0</ele><time>2026-04-26T09:08:41.299Z</time></trkpt><trkpt lat="43.0322883" lon="11.4107883"><ele>260.8</ele><time>2026-04-26T09:08:42.301Z</time></trkpt><trkpt lat="43.0321983" lon="11.4108267"><ele>258.6</ele><time>2026-04-26T09:08:43.299Z</time></trkpt><trkpt lat="43.0321067" lon="11.410865"><ele>256.4</ele><time>2026-04-26T09:08:44.299Z</time></trkpt><trkpt lat="43.032015" lon="11.410905"><ele>254.2</ele><time>2026-04-26T09:08:45.299Z</time></trkpt><trkpt lat="43.03192" lon="11.4109517"><ele>252.0</ele><time>2026-04-26T09:08:46.299Z</time></trkpt><trkpt lat="43.0318267" lon="11.4110017"><ele>252.0</ele><time>2026-04-26T09:08:47.3Z</time></trkpt><trkpt lat="43.0317317" lon="11.4110433"><ele>252.0</ele><time>2026-04-26T09:08:48.298Z</time></trkpt><trkpt lat="43.0316317" lon="11.41109"><ele>252.0</ele><time>2026-04-26T09:08:49.299Z</time></trkpt><trkpt lat="43.0315317" lon="11.4111333"><ele>252.0</ele><time>2026-04-26T09:08:50.298Z</time></trkpt><trkpt lat="43.031435" lon="11.41117"><ele>252.0</ele><time>2026-04-26T09:08:51.298Z</time></trkpt><trkpt lat="43.0313417" lon="11.4112033"><ele>252.2</ele><time>2026-04-26T09:08:52.299Z</time></trkpt><trkpt lat="43.031245" lon="11.4112417"><ele>252.39999999999998</ele><time>2026-04-26T09:08:53.3Z</time></trkpt><trkpt lat="43.03115" lon="11.4112733"><ele>252.60000000000002</ele><time>2026-04-26T09:08:54.298Z</time></trkpt><trkpt lat="43.0310533" lon="11.4113067"><ele>252.8</ele><time>2026-04-26T09:08:55.298Z</time></trkpt><trkpt lat="43.0309583" lon="11.41134"><ele>253.0</ele><time>2026-04-26T09:08:56.299Z</time></trkpt><trkpt lat="43.0308633" lon="11.4113783"><ele>250.2</ele><time>2026-04-26T09:08:57.298Z</time></trkpt><trkpt lat="43.0307683" lon="11.41142"><ele>247.4</ele><time>2026-04-26T09:08:58.3Z</time></trkpt><trkpt lat="43.03068" lon="11.4114733"><ele>244.59999999999997</ele><time>2026-04-26T09:08:59.296Z</time></trkpt><trkpt lat="43.0305917" lon="11.4115367"><ele>241.79999999999998</ele><time>2026-04-26T09:09:00.3Z</time></trkpt><trkpt lat="43.030505" lon="11.4116"><ele>239.0</ele><time>2026-04-26T09:09:01.297Z</time></trkpt><trkpt lat="43.0304233" lon="11.4116817"><ele>239.0</ele><time>2026-04-26T09:09:02.3Z</time></trkpt><trkpt lat="43.0303467" lon="11.4117667"><ele>238.99999999999997</ele><time>2026-04-26T09:09:03.299Z</time></trkpt><trkpt lat="43.0302733" lon="11.4118583"><ele>238.99999999999997</ele><time>2026-04-26T09:09:04.3Z</time></trkpt><trkpt lat="43.0301983" lon="11.4119517"><ele>239.0</ele><time>2026-04-26T09:09:05.296Z</time></trkpt><trkpt lat="43.0301283" lon="11.4120533"><ele>239.0</ele><time>2026-04-26T09:09:06.296Z</time></trkpt><trkpt lat="43.0300617" lon="11.4121633"><ele>239.2</ele><time>2026-04-26T09:09:07.296Z</time></trkpt><trkpt lat="43.03" lon="11.41228"><ele>239.39999999999998</ele><time>2026-04-26T09:09:08.297Z</time></trkpt><trkpt lat="43.02994" lon="11.4123967"><ele>239.6</ele><time>2026-04-26T09:09:09.296Z</time></trkpt><trkpt lat="43.0298817" lon="11.412515"><ele>239.8</ele><time>2026-04-26T09:09:10.296Z</time></trkpt><trkpt lat="43.029825" lon="11.4126367"><ele>240.0</ele><time>2026-04-26T09:09:11.296Z</time></trkpt><trkpt lat="43.0297683" lon="11.412755"><ele>240.0</ele><time>2026-04-26T09:09:12.296Z</time></trkpt><trkpt lat="43.02971" lon="11.4128733"><ele>240.0</ele><time>2026-04-26T09:09:13.296Z</time></trkpt><trkpt lat="43.0296483" lon="11.412985"><ele>240.0</ele><time>2026-04-26T09:09:14.296Z</time></trkpt><trkpt lat="43.029585" lon="11.4130983"><ele>240.0</ele><time>2026-04-26T09:09:15.298Z</time></trkpt><trkpt lat="43.0295183" lon="11.4132167"><ele>240.0</ele><time>2026-04-26T09:09:16.297Z</time></trkpt><trkpt lat="43.0294467" lon="11.4133383"><ele>240.0</ele><time>2026-04-26T09:09:17.299Z</time></trkpt><trkpt lat="43.0293717" lon="11.4134567"><ele>240.0</ele><time>2026-04-26T09:09:18.299Z</time></trkpt><trkpt lat="43.0293033" lon="11.4135783"><ele>240.0</ele><time>2026-04-26T09:09:19.3Z</time></trkpt><trkpt lat="43.0292317" lon="11.4136983"><ele>240.0</ele><time>2026-04-26T09:09:20.3Z</time></trkpt><trkpt lat="43.0291583" lon="11.4138183"><ele>239.25</ele><time>2026-04-26T09:09:21.299Z</time></trkpt><trkpt lat="43.0290817" lon="11.413945"><ele>238.5</ele><time>2026-04-26T09:09:22.295Z</time></trkpt><trkpt lat="43.0290017" lon="11.414075"><ele>237.75</ele><time>2026-04-26T09:09:23.298Z</time></trkpt><trkpt lat="43.02892" lon="11.4141933"><ele>237.0</ele><time>2026-04-26T09:09:24.3Z</time></trkpt><trkpt lat="43.0288383" lon="11.41432"><ele>237.0</ele><time>2026-04-26T09:09:25.3Z</time></trkpt><trkpt lat="43.0287567" lon="11.4144517"><ele>237.0</ele><time>2026-04-26T09:09:26.299Z</time></trkpt><trkpt lat="43.028675" lon="11.41458"><ele>237.0</ele><time>2026-04-26T09:09:27.299Z</time></trkpt><trkpt lat="43.0285967" lon="11.4147067"><ele>237.0</ele><time>2026-04-26T09:09:28.302Z</time></trkpt><trkpt lat="43.0285183" lon="11.41483"><ele>237.5</ele><time>2026-04-26T09:09:29.298Z</time></trkpt><trkpt lat="43.0284417" lon="11.414955"><ele>238.0</ele><time>2026-04-26T09:09:30.295Z</time></trkpt><trkpt lat="43.0283667" lon="11.4150767"><ele>238.5</ele><time>2026-04-26T09:09:31.297Z</time></trkpt><trkpt lat="43.0282967" lon="11.4151967"><ele>239.0</ele><time>2026-04-26T09:09:32.297Z</time></trkpt><trkpt lat="43.0282267" lon="11.415315"><ele>239.0</ele><time>2026-04-26T09:09:33.296Z</time></trkpt><trkpt lat="43.0281583" lon="11.4154317"><ele>238.99999999999997</ele><time>2026-04-26T09:09:34.297Z</time></trkpt><trkpt lat="43.0280883" lon="11.4155483"><ele>238.99999999999997</ele><time>2026-04-26T09:09:35.297Z</time></trkpt><trkpt lat="43.02802" lon="11.415665"><ele>239.0</ele><time>2026-04-26T09:09:36.297Z</time></trkpt><trkpt lat="43.0279533" lon="11.415785"><ele>239.0</ele><time>2026-04-26T09:09:37.298Z</time></trkpt><trkpt lat="43.0278867" lon="11.4159067"><ele>240.2</ele><time>2026-04-26T09:09:38.298Z</time></trkpt><trkpt lat="43.02782" lon="11.41603"><ele>241.39999999999998</ele><time>2026-04-26T09:09:39.296Z</time></trkpt><trkpt lat="43.02775" lon="11.4161533"><ele>242.6</ele><time>2026-04-26T09:09:40.297Z</time></trkpt><trkpt lat="43.0276783" lon="11.41627"><ele>243.8</ele><time>2026-04-26T09:09:41.298Z</time></trkpt><trkpt lat="43.0276133" lon="11.41638"><ele>245.0</ele><time>2026-04-26T09:09:42.297Z</time></trkpt><trkpt lat="43.02755" lon="11.4164883"><ele>246.0</ele><time>2026-04-26T09:09:43.297Z</time></trkpt><trkpt lat="43.0274867" lon="11.4165983"><ele>247.0</ele><time>2026-04-26T09:09:44.297Z</time></trkpt><trkpt lat="43.0274233" lon="11.4167117"><ele>248.0</ele><time>2026-04-26T09:09:45.298Z</time></trkpt><trkpt lat="43.0273567" lon="11.4168283"><ele>249.0</ele><time>2026-04-26T09:09:46.297Z</time></trkpt><trkpt lat="43.0272883" lon="11.416945"><ele>250.0</ele><time>2026-04-26T09:09:47.298Z</time></trkpt><trkpt lat="43.0272167" lon="11.4170617"><ele>249.0</ele><time>2026-04-26T09:09:48.298Z</time></trkpt><trkpt lat="43.027145" lon="11.4171767"><ele>248.0</ele><time>2026-04-26T09:09:49.298Z</time></trkpt><trkpt lat="43.027075" lon="11.41729"><ele>247.0</ele><time>2026-04-26T09:09:50.297Z</time></trkpt><trkpt lat="43.0270033" lon="11.4174"><ele>246.0</ele><time>2026-04-26T09:09:51.297Z</time></trkpt><trkpt lat="43.0269317" lon="11.417505"><ele>245.0</ele><time>2026-04-26T09:09:52.297Z</time></trkpt><trkpt lat="43.0268583" lon="11.4176117"><ele>245.0</ele><time>2026-04-26T09:09:53.296Z</time></trkpt><trkpt lat="43.0267833" lon="11.4177167"><ele>245.0</ele><time>2026-04-26T09:09:54.299Z</time></trkpt><trkpt lat="43.0267067" lon="11.41782"><ele>245.0</ele><time>2026-04-26T09:09:55.298Z</time></trkpt><trkpt lat="43.0266283" lon="11.4179217"><ele>245.0</ele><time>2026-04-26T09:09:56.299Z</time></trkpt><trkpt lat="43.0265517" lon="11.41802"><ele>245.0</ele><time>2026-04-26T09:09:57.299Z</time></trkpt><trkpt lat="43.0264733" lon="11.4181167"><ele>245.2</ele><time>2026-04-26T09:09:58.299Z</time></trkpt><trkpt lat="43.0263967" lon="11.4182117"><ele>245.4</ele><time>2026-04-26T09:09:59.298Z</time></trkpt><trkpt lat="43.0263233" lon="11.4183033"><ele>245.60000000000002</ele><time>2026-04-26T09:10:00.301Z</time></trkpt><trkpt lat="43.0262433" lon="11.4183967"><ele>245.8</ele><time>2026-04-26T09:10:01.296Z</time></trkpt><trkpt lat="43.0261667" lon="11.4184933"><ele>246.0</ele><time>2026-04-26T09:10:02.298Z</time></trkpt><trkpt lat="43.0260917" lon="11.4185917"><ele>246.0</ele><time>2026-04-26T09:10:03.296Z</time></trkpt><trkpt lat="43.0260133" lon="11.4186917"><ele>246.00000000000003</ele><time>2026-04-26T09:10:04.296Z</time></trkpt><trkpt lat="43.0259367" lon="11.4187933"><ele>246.00000000000003</ele><time>2026-04-26T09:10:05.299Z</time></trkpt><trkpt lat="43.02586" lon="11.4188933"><ele>246.0</ele><time>2026-04-26T09:10:06.295Z</time></trkpt><trkpt lat="43.0257833" lon="11.418995"><ele>246.0</ele><time>2026-04-26T09:10:07.299Z</time></trkpt><trkpt lat="43.0257067" lon="11.419095"><ele>243.60000000000002</ele><time>2026-04-26T09:10:08.3Z</time></trkpt><trkpt lat="43.02563" lon="11.4191917"><ele>241.20000000000002</ele><time>2026-04-26T09:10:09.298Z</time></trkpt><trkpt lat="43.0255533" lon="11.419285"><ele>238.79999999999998</ele><time>2026-04-26T09:10:10.299Z</time></trkpt><trkpt lat="43.0254833" lon="11.419375"><ele>236.39999999999998</ele><time>2026-04-26T09:10:11.298Z</time></trkpt><trkpt lat="43.0254117" lon="11.419465"><ele>234.0</ele><time>2026-04-26T09:10:12.3Z</time></trkpt><trkpt lat="43.02534" lon="11.4195517"><ele>234.0</ele><time>2026-04-26T09:10:13.298Z</time></trkpt><trkpt lat="43.0252683" lon="11.4196433"><ele>233.99999999999997</ele><time>2026-04-26T09:10:14.299Z</time></trkpt><trkpt lat="43.0251933" lon="11.4197333"><ele>233.99999999999997</ele><time>2026-04-26T09:10:15.3Z</time></trkpt><trkpt lat="43.0251183" lon="11.4198183"><ele>234.0</ele><time>2026-04-26T09:10:16.298Z</time></trkpt><trkpt lat="43.0250433" lon="11.4198983"><ele>234.0</ele><time>2026-04-26T09:10:17.297Z</time></trkpt><trkpt lat="43.0249667" lon="11.41997"><ele>233.39999999999998</ele><time>2026-04-26T09:10:18.297Z</time></trkpt><trkpt lat="43.0248833" lon="11.4200367"><ele>232.79999999999998</ele><time>2026-04-26T09:10:19.297Z</time></trkpt><trkpt lat="43.02479" lon="11.420085"><ele>232.20000000000002</ele><time>2026-04-26T09:10:20.298Z</time></trkpt><trkpt lat="43.0246883" lon="11.4201133"><ele>231.60000000000002</ele><time>2026-04-26T09:10:21.298Z</time></trkpt><trkpt lat="43.0245833" lon="11.4201233"><ele>231.0</ele><time>2026-04-26T09:10:22.296Z</time></trkpt><trkpt lat="43.0244767" lon="11.420125"><ele>231.0</ele><time>2026-04-26T09:10:23.297Z</time></trkpt><trkpt lat="43.0243717" lon="11.4201233"><ele>231.00000000000003</ele><time>2026-04-26T09:10:24.299Z</time></trkpt><trkpt lat="43.02427" lon="11.4201217"><ele>231.00000000000003</ele><time>2026-04-26T09:10:25.298Z</time></trkpt><trkpt lat="43.0241683" lon="11.4201183"><ele>231.0</ele><time>2026-04-26T09:10:26.299Z</time></trkpt><trkpt lat="43.02407" lon="11.4201133"><ele>231.0</ele><time>2026-04-26T09:10:27.298Z</time></trkpt><trkpt lat="43.0239733" lon="11.4201117"><ele>230.0</ele><time>2026-04-26T09:10:28.299Z</time></trkpt><trkpt lat="43.0238783" lon="11.4201133"><ele>229.00000000000003</ele><time>2026-04-26T09:10:29.3Z</time></trkpt><trkpt lat="43.0237833" lon="11.4201133"><ele>228.00000000000003</ele><time>2026-04-26T09:10:30.299Z</time></trkpt><trkpt lat="43.02369" lon="11.420105"><ele>227.0</ele><time>2026-04-26T09:10:31.3Z</time></trkpt><trkpt lat="43.0235967" lon="11.4200883"><ele>226.0</ele><time>2026-04-26T09:10:32.3Z</time></trkpt><trkpt lat="43.0235" lon="11.420065"><ele>226.0</ele><time>2026-04-26T09:10:33.299Z</time></trkpt><trkpt lat="43.023405" lon="11.4200317"><ele>226.00000000000003</ele><time>2026-04-26T09:10:34.296Z</time></trkpt><trkpt lat="43.02331" lon="11.4199883"><ele>226.00000000000003</ele><time>2026-04-26T09:10:35.296Z</time></trkpt><trkpt lat="43.023215" lon="11.4199333"><ele>226.0</ele><time>2026-04-26T09:10:36.296Z</time></trkpt><trkpt lat="43.0231233" lon="11.419865"><ele>226.0</ele><time>2026-04-26T09:10:37.296Z</time></trkpt><trkpt lat="43.0230317" lon="11.4197933"><ele>226.20000000000002</ele><time>2026-04-26T09:10:38.298Z</time></trkpt><trkpt lat="43.022945" lon="11.4197233"><ele>226.40000000000003</ele><time>2026-04-26T09:10:39.296Z</time></trkpt><trkpt lat="43.02286" lon="11.419655"><ele>226.6</ele><time>2026-04-26T09:10:40.295Z</time></trkpt><trkpt lat="43.0227767" lon="11.4195867"><ele>226.8</ele><time>2026-04-26T09:10:41.297Z</time></trkpt><trkpt lat="43.0226917" lon="11.41952"><ele>227.0</ele><time>2026-04-26T09:10:42.296Z</time></trkpt><trkpt lat="43.0226083" lon="11.4194533"><ele>226.39999999999998</ele><time>2026-04-26T09:10:43.297Z</time></trkpt><trkpt lat="43.0225217" lon="11.4193833"><ele>225.79999999999998</ele><time>2026-04-26T09:10:44.298Z</time></trkpt><trkpt lat="43.0224333" lon="11.4193133"><ele>225.2</ele><time>2026-04-26T09:10:45.296Z</time></trkpt><trkpt lat="43.0223467" lon="11.4192417"><ele>224.6</ele><time>2026-04-26T09:10:46.297Z</time></trkpt><trkpt lat="43.0222617" lon="11.41917"><ele>224.0</ele><time>2026-04-26T09:10:47.299Z</time></trkpt><trkpt lat="43.0221767" lon="11.4191"><ele>224.00000000000003</ele><time>2026-04-26T09:10:48.297Z</time></trkpt><trkpt lat="43.022095" lon="11.4190383"><ele>224.0</ele><time>2026-04-26T09:10:49.297Z</time></trkpt><trkpt lat="43.0220133" lon="11.4189783"><ele>224.0</ele><time>2026-04-26T09:10:50.3Z</time></trkpt><trkpt lat="43.0219333" lon="11.4189283"><ele>224.0</ele><time>2026-04-26T09:10:51.296Z</time></trkpt><trkpt lat="43.0218567" lon="11.4188883"><ele>224.00000000000003</ele><time>2026-04-26T09:10:52.297Z</time></trkpt><trkpt lat="43.02178" lon="11.41885"><ele>224.0</ele><time>2026-04-26T09:10:53.297Z</time></trkpt><trkpt lat="43.021705" lon="11.418815"><ele>223.16666666666669</ele><time>2026-04-26T09:10:54.3Z</time></trkpt><trkpt lat="43.0216317" lon="11.418785"><ele>222.33333333333334</ele><time>2026-04-26T09:10:55.3Z</time></trkpt><trkpt lat="43.0215617" lon="11.41875"><ele>221.5</ele><time>2026-04-26T09:10:56.3Z</time></trkpt><trkpt lat="43.0214917" lon="11.4187217"><ele>220.66666666666669</ele><time>2026-04-26T09:10:57.296Z</time></trkpt><trkpt lat="43.0214267" lon="11.4186983"><ele>219.83333333333334</ele><time>2026-04-26T09:10:58.299Z</time></trkpt><trkpt lat="43.021365" lon="11.41868"><ele>219.0</ele><time>2026-04-26T09:10:59.298Z</time></trkpt><trkpt lat="43.0212583" lon="11.4186433"><ele>219.0</ele><time>2026-04-26T09:11:01.298Z</time></trkpt><trkpt lat="43.0211767" lon="11.418615"><ele>219.0</ele><time>2026-04-26T09:11:03.298Z</time></trkpt><trkpt lat="43.0210967" lon="11.4186217"><ele>219.0</ele><time>2026-04-26T09:11:06.298Z</time></trkpt><trkpt lat="43.0210817" lon="11.4187117"><ele>219.0</ele><time>2026-04-26T09:25:40.299Z</time></trkpt><trkpt lat="43.0211217" lon="11.4187783"><ele>219.0</ele><time>2026-04-26T09:25:43.298Z</time></trkpt><trkpt lat="43.0211717" lon="11.4188633"><ele>219.0</ele><time>2026-04-26T09:25:46.299Z</time></trkpt><trkpt lat="43.0212233" lon="11.4189667"><ele>220.14285714285717</ele><time>2026-04-26T09:25:49.296Z</time></trkpt><trkpt lat="43.0212633" lon="11.4190367"><ele>221.28571428571428</ele><time>2026-04-26T09:25:51.299Z</time></trkpt><trkpt lat="43.0213033" lon="11.4191083"><ele>222.42857142857144</ele><time>2026-04-26T09:25:53.299Z</time></trkpt><trkpt lat="43.0213417" lon="11.41918"><ele>223.57142857142858</ele><time>2026-04-26T09:25:55.3Z</time></trkpt><trkpt lat="43.0213817" lon="11.41926"><ele>224.71428571428572</ele><time>2026-04-26T09:25:57.297Z</time></trkpt><trkpt lat="43.0214283" lon="11.4193533"><ele>225.85714285714286</ele><time>2026-04-26T09:25:59.298Z</time></trkpt><trkpt lat="43.02149" lon="11.4194533"><ele>227.0</ele><time>2026-04-26T09:26:01.299Z</time></trkpt><trkpt lat="43.0215533" lon="11.41956"><ele>228.0</ele><time>2026-04-26T09:26:03.299Z</time></trkpt><trkpt lat="43.0216183" lon="11.41967"><ele>229.0</ele><time>2026-04-26T09:26:05.299Z</time></trkpt><trkpt lat="43.021685" lon="11.419785"><ele>230.0</ele><time>2026-04-26T09:26:07.299Z</time></trkpt><trkpt lat="43.0217517" lon="11.4199017"><ele>231.0</ele><time>2026-04-26T09:26:09.299Z</time></trkpt><trkpt lat="43.02182" lon="11.4200233"><ele>232.0</ele><time>2026-04-26T09:26:11.299Z</time></trkpt><trkpt lat="43.0218933" lon="11.42015"><ele>232.00000000000003</ele><time>2026-04-26T09:26:13.298Z</time></trkpt><trkpt lat="43.0219333" lon="11.4202183"><ele>232.0</ele><time>2026-04-26T09:26:14.298Z</time></trkpt><trkpt lat="43.0219717" lon="11.4202867"><ele>232.00000000000003</ele><time>2026-04-26T09:26:15.298Z</time></trkpt><trkpt lat="43.0220133" lon="11.4203567"><ele>232.00000000000003</ele><time>2026-04-26T09:26:16.3Z</time></trkpt><trkpt lat="43.022055" lon="11.4204283"><ele>232.0</ele><time>2026-04-26T09:26:17.297Z</time></trkpt><trkpt lat="43.0221" lon="11.4205033"><ele>232.00000000000003</ele><time>2026-04-26T09:26:18.297Z</time></trkpt><trkpt lat="43.0221417" lon="11.4205767"><ele>232.00000000000003</ele><time>2026-04-26T09:26:19.298Z</time></trkpt><trkpt lat="43.0221817" lon="11.4206467"><ele>232.00000000000003</ele><time>2026-04-26T09:26:20.298Z</time></trkpt><trkpt lat="43.0222183" lon="11.4207217"><ele>232.0</ele><time>2026-04-26T09:26:21.298Z</time></trkpt><trkpt lat="43.0222517" lon="11.4207967"><ele>232.00000000000003</ele><time>2026-04-26T09:26:22.299Z</time></trkpt><trkpt lat="43.0222783" lon="11.4208783"><ele>232.00000000000003</ele><time>2026-04-26T09:26:23.298Z</time></trkpt><trkpt lat="43.0223033" lon="11.4209617"><ele>232.0</ele><time>2026-04-26T09:26:24.298Z</time></trkpt><trkpt lat="43.02232" lon="11.42105"><ele>232.00000000000003</ele><time>2026-04-26T09:26:25.299Z</time></trkpt><trkpt lat="43.0223233" lon="11.421145"><ele>232.00000000000003</ele><time>2026-04-26T09:26:26.3Z</time></trkpt><trkpt lat="43.022315" lon="11.4212383"><ele>230.33333333333331</ele><time>2026-04-26T09:26:27.299Z</time></trkpt><trkpt lat="43.0223" lon="11.4213367"><ele>228.66666666666666</ele><time>2026-04-26T09:26:28.298Z</time></trkpt><trkpt lat="43.02227" lon="11.421435"><ele>227.0</ele><time>2026-04-26T09:26:29.298Z</time></trkpt><trkpt lat="43.0222333" lon="11.4215367"><ele>225.33333333333331</ele><time>2026-04-26T09:26:30.3Z</time></trkpt><trkpt lat="43.0221917" lon="11.4216433"><ele>223.66666666666666</ele><time>2026-04-26T09:26:31.299Z</time></trkpt><trkpt lat="43.0221467" lon="11.4217533"><ele>222.0</ele><time>2026-04-26T09:26:32.299Z</time></trkpt><trkpt lat="43.0221033" lon="11.4218617"><ele>222.0</ele><time>2026-04-26T09:26:33.299Z</time></trkpt><trkpt lat="43.022055" lon="11.4219717"><ele>222.0</ele><time>2026-04-26T09:26:34.305Z</time></trkpt><trkpt lat="43.022005" lon="11.4220833"><ele>222.0</ele><time>2026-04-26T09:26:35.299Z</time></trkpt><trkpt lat="43.0219567" lon="11.422195"><ele>222.0</ele><time>2026-04-26T09:26:36.299Z</time></trkpt><trkpt lat="43.0219083" lon="11.4223083"><ele>222.0</ele><time>2026-04-26T09:26:37.299Z</time></trkpt><trkpt lat="43.0218633" lon="11.42242"><ele>220.8</ele><time>2026-04-26T09:26:38.299Z</time></trkpt><trkpt lat="43.0218183" lon="11.4225333"><ele>219.6</ele><time>2026-04-26T09:26:39.299Z</time></trkpt><trkpt lat="43.0217717" lon="11.422645"><ele>218.40000000000003</ele><time>2026-04-26T09:26:40.298Z</time></trkpt><trkpt lat="43.021725" lon="11.4227567"><ele>217.20000000000002</ele><time>2026-04-26T09:26:41.299Z</time></trkpt><trkpt lat="43.02168" lon="11.422865"><ele>216.0</ele><time>2026-04-26T09:26:42.298Z</time></trkpt><trkpt lat="43.021635" lon="11.4229733"><ele>215.4</ele><time>2026-04-26T09:26:43.299Z</time></trkpt><trkpt lat="43.02159" lon="11.4230817"><ele>214.8</ele><time>2026-04-26T09:26:44.298Z</time></trkpt><trkpt lat="43.0215433" lon="11.42319"><ele>214.20000000000002</ele><time>2026-04-26T09:26:45.298Z</time></trkpt><trkpt lat="43.0214933" lon="11.4232967"><ele>213.60000000000002</ele><time>2026-04-26T09:26:46.298Z</time></trkpt><trkpt lat="43.02144" lon="11.423405"><ele>213.0</ele><time>2026-04-26T09:26:47.299Z</time></trkpt><trkpt lat="43.0213817" lon="11.4235167"><ele>213.0</ele><time>2026-04-26T09:26:48.297Z</time></trkpt><trkpt lat="43.02132" lon="11.4236333"><ele>213.0</ele><time>2026-04-26T09:26:49.298Z</time></trkpt><trkpt lat="43.0212517" lon="11.4237517"><ele>213.0</ele><time>2026-04-26T09:26:50.299Z</time></trkpt><trkpt lat="43.0211783" lon="11.4238683"><ele>213.0</ele><time>2026-04-26T09:26:51.298Z</time></trkpt><trkpt lat="43.0210983" lon="11.423985"><ele>213.0</ele><time>2026-04-26T09:26:52.298Z</time></trkpt><trkpt lat="43.0210017" lon="11.4240967"><ele>214.25</ele><time>2026-04-26T09:26:53.298Z</time></trkpt><trkpt lat="43.0208967" lon="11.4242067"><ele>215.5</ele><time>2026-04-26T09:26:54.298Z</time></trkpt><trkpt lat="43.0207867" lon="11.42432"><ele>216.75</ele><time>2026-04-26T09:26:55.298Z</time></trkpt><trkpt lat="43.020675" lon="11.42444"><ele>218.0</ele><time>2026-04-26T09:26:56.3Z</time></trkpt><trkpt lat="43.0205617" lon="11.424565"><ele>221.0</ele><time>2026-04-26T09:26:57.299Z</time></trkpt><trkpt lat="43.0204517" lon="11.4246983"><ele>224.0</ele><time>2026-04-26T09:26:58.298Z</time></trkpt><trkpt lat="43.0203467" lon="11.4248483"><ele>227.0</ele><time>2026-04-26T09:26:59.299Z</time></trkpt><trkpt lat="43.0202483" lon="11.42501"><ele>227.0</ele><time>2026-04-26T09:27:00.298Z</time></trkpt><trkpt lat="43.0201567" lon="11.4251783"><ele>227.0</ele><time>2026-04-26T09:27:01.299Z</time></trkpt><trkpt lat="43.0200733" lon="11.42535"><ele>227.0</ele><time>2026-04-26T09:27:02.299Z</time></trkpt><trkpt lat="43.0199933" lon="11.4255217"><ele>230.25</ele><time>2026-04-26T09:27:03.299Z</time></trkpt><trkpt lat="43.019915" lon="11.425695"><ele>233.5</ele><time>2026-04-26T09:27:04.298Z</time></trkpt><trkpt lat="43.0198383" lon="11.4258683"><ele>236.75</ele><time>2026-04-26T09:27:05.297Z</time></trkpt><trkpt lat="43.0197617" lon="11.42604"><ele>240.0</ele><time>2026-04-26T09:27:06.298Z</time></trkpt><trkpt lat="43.019685" lon="11.4262117"><ele>241.33333333333331</ele><time>2026-04-26T09:27:07.298Z</time></trkpt><trkpt lat="43.0196083" lon="11.4263883"><ele>242.66666666666666</ele><time>2026-04-26T09:27:08.3Z</time></trkpt><trkpt lat="43.0195283" lon="11.4265667"><ele>244.0</ele><time>2026-04-26T09:27:09.298Z</time></trkpt><trkpt lat="43.019445" lon="11.4267433"><ele>244.0</ele><time>2026-04-26T09:27:10.298Z</time></trkpt><trkpt lat="43.0193667" lon="11.42692"><ele>244.0</ele><time>2026-04-26T09:27:11.297Z</time></trkpt><trkpt lat="43.01929" lon="11.427095"><ele>244.0</ele><time>2026-04-26T09:27:12.295Z</time></trkpt><trkpt lat="43.0192133" lon="11.42727"><ele>244.0</ele><time>2026-04-26T09:27:13.297Z</time></trkpt><trkpt lat="43.0191383" lon="11.4274467"><ele>246.0</ele><time>2026-04-26T09:27:14.296Z</time></trkpt><trkpt lat="43.0190667" lon="11.427625"><ele>248.0</ele><time>2026-04-26T09:27:15.298Z</time></trkpt><trkpt lat="43.0189933" lon="11.4278067"><ele>250.0</ele><time>2026-04-26T09:27:16.295Z</time></trkpt><trkpt lat="43.0189283" lon="11.42799"><ele>252.0</ele><time>2026-04-26T09:27:17.3Z</time></trkpt><trkpt lat="43.0188667" lon="11.428175"><ele>252.0</ele><time>2026-04-26T09:27:18.296Z</time></trkpt><trkpt lat="43.01881" lon="11.428355"><ele>252.0</ele><time>2026-04-26T09:27:19.295Z</time></trkpt><trkpt lat="43.01875" lon="11.4285317"><ele>252.0</ele><time>2026-04-26T09:27:20.297Z</time></trkpt><trkpt lat="43.0186933" lon="11.42871"><ele>252.0</ele><time>2026-04-26T09:27:21.296Z</time></trkpt><trkpt lat="43.0186433" lon="11.4288833"><ele>251.5</ele><time>2026-04-26T09:27:22.297Z</time></trkpt><trkpt lat="43.018595" lon="11.4290517"><ele>251.0</ele><time>2026-04-26T09:27:23.296Z</time></trkpt><trkpt lat="43.018545" lon="11.4292167"><ele>250.5</ele><time>2026-04-26T09:27:24.296Z</time></trkpt><trkpt lat="43.0184983" lon="11.42938"><ele>250.0</ele><time>2026-04-26T09:27:25.297Z</time></trkpt><trkpt lat="43.0184533" lon="11.429545"><ele>249.5</ele><time>2026-04-26T09:27:26.297Z</time></trkpt><trkpt lat="43.0184067" lon="11.42971"><ele>249.0</ele><time>2026-04-26T09:27:27.295Z</time></trkpt><trkpt lat="43.0183583" lon="11.4298767"><ele>248.5</ele><time>2026-04-26T09:27:28.296Z</time></trkpt><trkpt lat="43.0183133" lon="11.430045"><ele>248.0</ele><time>2026-04-26T09:27:29.299Z</time></trkpt><trkpt lat="43.0182683" lon="11.4302117"><ele>248.0</ele><time>2026-04-26T09:27:30.299Z</time></trkpt><trkpt lat="43.0182217" lon="11.4303767"><ele>248.0</ele><time>2026-04-26T09:27:31.299Z</time></trkpt><trkpt lat="43.018175" lon="11.4305433"><ele>248.0</ele><time>2026-04-26T09:27:32.3Z</time></trkpt><trkpt lat="43.0181267" lon="11.4307117"><ele>248.0</ele><time>2026-04-26T09:27:33.298Z</time></trkpt><trkpt lat="43.0180783" lon="11.4308817"><ele>246.5</ele><time>2026-04-26T09:27:34.299Z</time></trkpt><trkpt lat="43.0180283" lon="11.4310517"><ele>245.0</ele><time>2026-04-26T09:27:35.299Z</time></trkpt><trkpt lat="43.01798" lon="11.43122"><ele>243.5</ele><time>2026-04-26T09:27:36.298Z</time></trkpt><trkpt lat="43.0179283" lon="11.4313867"><ele>242.0</ele><time>2026-04-26T09:27:37.298Z</time></trkpt><trkpt lat="43.0178783" lon="11.4315533"><ele>241.25</ele><time>2026-04-26T09:27:38.301Z</time></trkpt><trkpt lat="43.0178283" lon="11.43172"><ele>240.5</ele><time>2026-04-26T09:27:39.298Z</time></trkpt><trkpt lat="43.0177783" lon="11.431885"><ele>239.75</ele><time>2026-04-26T09:27:40.299Z</time></trkpt><trkpt lat="43.0177317" lon="11.4320483"><ele>239.0</ele><time>2026-04-26T09:27:41.298Z</time></trkpt><trkpt lat="43.0176833" lon="11.432215"><ele>239.0</ele><time>2026-04-26T09:27:42.3Z</time></trkpt><trkpt lat="43.017635" lon="11.4323833"><ele>239.0</ele><time>2026-04-26T09:27:43.298Z</time></trkpt><trkpt lat="43.017585" lon="11.4325517"><ele>239.0</ele><time>2026-04-26T09:27:44.298Z</time></trkpt><trkpt lat="43.0175367" lon="11.4327183"><ele>239.0</ele><time>2026-04-26T09:27:45.299Z</time></trkpt><trkpt lat="43.0174867" lon="11.432885"><ele>240.0</ele><time>2026-04-26T09:27:46.299Z</time></trkpt><trkpt lat="43.017435" lon="11.433055"><ele>241.0</ele><time>2026-04-26T09:27:47.299Z</time></trkpt><trkpt lat="43.017385" lon="11.4332267"><ele>242.0</ele><time>2026-04-26T09:27:48.297Z</time></trkpt><trkpt lat="43.01733" lon="11.4334067"><ele>243.0</ele><time>2026-04-26T09:27:49.296Z</time></trkpt><trkpt lat="43.017275" lon="11.4335967"><ele>243.0</ele><time>2026-04-26T09:27:50.297Z</time></trkpt><trkpt lat="43.0172167" lon="11.4337917"><ele>243.0</ele><time>2026-04-26T09:27:51.296Z</time></trkpt><trkpt lat="43.0171583" lon="11.4339917"><ele>243.0</ele><time>2026-04-26T09:27:52.297Z</time></trkpt><trkpt lat="43.0170983" lon="11.4341967"><ele>245.0</ele><time>2026-04-26T09:27:53.298Z</time></trkpt><trkpt lat="43.0170367" lon="11.4344017"><ele>247.0</ele><time>2026-04-26T09:27:54.296Z</time></trkpt><trkpt lat="43.0169767" lon="11.4346117"><ele>249.0</ele><time>2026-04-26T09:27:55.296Z</time></trkpt><trkpt lat="43.0169167" lon="11.4348233"><ele>249.66666666666669</ele><time>2026-04-26T09:27:56.297Z</time></trkpt><trkpt lat="43.016855" lon="11.435035"><ele>250.33333333333334</ele><time>2026-04-26T09:27:57.296Z</time></trkpt><trkpt lat="43.016795" lon="11.4352433"><ele>251.0</ele><time>2026-04-26T09:27:58.297Z</time></trkpt><trkpt lat="43.0167333" lon="11.4354517"><ele>252.0</ele><time>2026-04-26T09:27:59.298Z</time></trkpt><trkpt lat="43.01667" lon="11.4356567"><ele>253.0</ele><time>2026-04-26T09:28:00.299Z</time></trkpt><trkpt lat="43.0166083" lon="11.4358617"><ele>254.0</ele><time>2026-04-26T09:28:01.299Z</time></trkpt><trkpt lat="43.0165483" lon="11.4360633"><ele>254.66666666666669</ele><time>2026-04-26T09:28:02.298Z</time></trkpt><trkpt lat="43.01649" lon="11.436265"><ele>255.33333333333331</ele><time>2026-04-26T09:28:03.298Z</time></trkpt><trkpt lat="43.01643" lon="11.4364633"><ele>256.0</ele><time>2026-04-26T09:28:04.299Z</time></trkpt><trkpt lat="43.0163683" lon="11.4366583"><ele>257.0</ele><time>2026-04-26T09:28:05.298Z</time></trkpt><trkpt lat="43.01631" lon="11.4368533"><ele>258.0</ele><time>2026-04-26T09:28:06.298Z</time></trkpt><trkpt lat="43.0162517" lon="11.437045"><ele>259.0</ele><time>2026-04-26T09:28:07.296Z</time></trkpt><trkpt lat="43.016195" lon="11.4372367"><ele>260.5</ele><time>2026-04-26T09:28:08.299Z</time></trkpt><trkpt lat="43.0161417" lon="11.4374217"><ele>262.0</ele><time>2026-04-26T09:28:09.298Z</time></trkpt><trkpt lat="43.0160917" lon="11.4376"><ele>263.5</ele><time>2026-04-26T09:28:10.298Z</time></trkpt><trkpt lat="43.0160433" lon="11.43777"><ele>265.0</ele><time>2026-04-26T09:28:11.299Z</time></trkpt><trkpt lat="43.0159967" lon="11.43793"><ele>266.0</ele><time>2026-04-26T09:28:12.298Z</time></trkpt><trkpt lat="43.0159533" lon="11.4380817"><ele>267.0</ele><time>2026-04-26T09:28:13.298Z</time></trkpt><trkpt lat="43.0159117" lon="11.4382267"><ele>268.0</ele><time>2026-04-26T09:28:14.299Z</time></trkpt><trkpt lat="43.0158733" lon="11.4383533"><ele>269.0</ele><time>2026-04-26T09:28:15.299Z</time></trkpt><trkpt lat="43.0158367" lon="11.43847"><ele>270.0</ele><time>2026-04-26T09:28:16.298Z</time></trkpt><trkpt lat="43.0158" lon="11.4385717"><ele>270.6666666666667</ele><time>2026-04-26T09:28:17.299Z</time></trkpt><trkpt lat="43.0157633" lon="11.4386617"><ele>271.3333333333333</ele><time>2026-04-26T09:28:18.296Z</time></trkpt><trkpt lat="43.0157283" lon="11.4387333"><ele>272.0</ele><time>2026-04-26T09:28:19.296Z</time></trkpt><trkpt lat="43.0156617" lon="11.43882"><ele>272.66666666666663</ele><time>2026-04-26T09:28:21.296Z</time></trkpt><trkpt lat="43.015585" lon="11.4388083"><ele>273.3333333333333</ele><time>2026-04-26T09:28:24.297Z</time></trkpt><trkpt lat="43.0155317" lon="11.4386933"><ele>274.0</ele><time>2026-04-26T09:28:26.298Z</time></trkpt><trkpt lat="43.0155067" lon="11.4386133"><ele>274.0</ele><time>2026-04-26T09:28:27.297Z</time></trkpt><trkpt lat="43.0154767" lon="11.4385283"><ele>274.0</ele><time>2026-04-26T09:28:28.296Z</time></trkpt><trkpt lat="43.0154417" lon="11.43844"><ele>274.0</ele><time>2026-04-26T09:28:29.299Z</time></trkpt><trkpt lat="43.0153983" lon="11.438345"><ele>274.0</ele><time>2026-04-26T09:28:30.299Z</time></trkpt><trkpt lat="43.0153517" lon="11.4382517"><ele>274.0</ele><time>2026-04-26T09:28:31.298Z</time></trkpt><trkpt lat="43.0153067" lon="11.4381633"><ele>274.0</ele><time>2026-04-26T09:28:32.298Z</time></trkpt><trkpt lat="43.01526" lon="11.4380733"><ele>274.0</ele><time>2026-04-26T09:28:33.298Z</time></trkpt><trkpt lat="43.015215" lon="11.4379783"><ele>274.0</ele><time>2026-04-26T09:28:34.3Z</time></trkpt><trkpt lat="43.0151683" lon="11.437875"><ele>274.0</ele><time>2026-04-26T09:28:35.298Z</time></trkpt><trkpt lat="43.0151267" lon="11.43777"><ele>274.0</ele><time>2026-04-26T09:28:36.298Z</time></trkpt><trkpt lat="43.0150867" lon="11.43766"><ele>274.0</ele><time>2026-04-26T09:28:37.298Z</time></trkpt><trkpt lat="43.0150517" lon="11.4375483"><ele>274.0</ele><time>2026-04-26T09:28:38.299Z</time></trkpt><trkpt lat="43.015015" lon="11.4374333"><ele>271.59999999999997</ele><time>2026-04-26T09:28:39.294Z</time></trkpt><trkpt lat="43.014985" lon="11.4373133"><ele>269.2</ele><time>2026-04-26T09:28:40.298Z</time></trkpt><trkpt lat="43.01496" lon="11.4371917"><ele>266.79999999999995</ele><time>2026-04-26T09:28:41.296Z</time></trkpt><trkpt lat="43.0149367" lon="11.4370667"><ele>264.4</ele><time>2026-04-26T09:28:42.298Z</time></trkpt><trkpt lat="43.0149217" lon="11.4369433"><ele>262.0</ele><time>2026-04-26T09:28:43.298Z</time></trkpt><trkpt lat="43.0149067" lon="11.436815"><ele>261.4</ele><time>2026-04-26T09:28:44.299Z</time></trkpt><trkpt lat="43.0148967" lon="11.436685"><ele>260.79999999999995</ele><time>2026-04-26T09:28:45.299Z</time></trkpt><trkpt lat="43.01489" lon="11.43655"><ele>260.2</ele><time>2026-04-26T09:28:46.298Z</time></trkpt><trkpt lat="43.0148817" lon="11.4364167"><ele>259.59999999999997</ele><time>2026-04-26T09:28:47.295Z</time></trkpt><trkpt lat="43.014875" lon="11.43628"><ele>259.0</ele><time>2026-04-26T09:28:48.297Z</time></trkpt><trkpt lat="43.0148683" lon="11.4361417"><ele>258.59999999999997</ele><time>2026-04-26T09:28:49.296Z</time></trkpt><trkpt lat="43.0148617" lon="11.4359983"><ele>258.2</ele><time>2026-04-26T09:28:50.297Z</time></trkpt><trkpt lat="43.0148567" lon="11.4358517"><ele>257.79999999999995</ele><time>2026-04-26T09:28:51.295Z</time></trkpt><trkpt lat="43.0148517" lon="11.435705"><ele>257.4</ele><time>2026-04-26T09:28:52.295Z</time></trkpt><trkpt lat="43.014845" lon="11.4355617"><ele>257.0</ele><time>2026-04-26T09:28:53.297Z</time></trkpt><trkpt lat="43.0148383" lon="11.4354217"><ele>256.8</ele><time>2026-04-26T09:28:54.295Z</time></trkpt><trkpt lat="43.0148283" lon="11.43528"><ele>256.6</ele><time>2026-04-26T09:28:55.296Z</time></trkpt><trkpt lat="43.014815" lon="11.435135"><ele>256.40000000000003</ele><time>2026-04-26T09:28:56.297Z</time></trkpt><trkpt lat="43.0147983" lon="11.4349883"><ele>256.2</ele><time>2026-04-26T09:28:57.295Z</time></trkpt><trkpt lat="43.01478" lon="11.4348433"><ele>256.0</ele><time>2026-04-26T09:28:58.295Z</time></trkpt><trkpt lat="43.0147633" lon="11.4346983"><ele>255.8</ele><time>2026-04-26T09:28:59.299Z</time></trkpt><trkpt lat="43.014745" lon="11.434555"><ele>255.60000000000002</ele><time>2026-04-26T09:29:00.296Z</time></trkpt><trkpt lat="43.0147317" lon="11.4344117"><ele>255.4</ele><time>2026-04-26T09:29:01.298Z</time></trkpt><trkpt lat="43.0147167" lon="11.4342717"><ele>255.2</ele><time>2026-04-26T09:29:02.299Z</time></trkpt><trkpt lat="43.0147067" lon="11.4341333"><ele>255.0</ele><time>2026-04-26T09:29:03.296Z</time></trkpt><trkpt lat="43.0147" lon="11.4339983"><ele>255.0</ele><time>2026-04-26T09:29:04.299Z</time></trkpt><trkpt lat="43.0147083" lon="11.4338633"><ele>255.0</ele><time>2026-04-26T09:29:05.299Z</time></trkpt><trkpt lat="43.0147333" lon="11.43373"><ele>255.0</ele><time>2026-04-26T09:29:06.3Z</time></trkpt><trkpt lat="43.0147733" lon="11.433605"><ele>255.0</ele><time>2026-04-26T09:29:07.3Z</time></trkpt><trkpt lat="43.01482" lon="11.43349"><ele>255.0</ele><time>2026-04-26T09:29:08.299Z</time></trkpt><trkpt lat="43.0148667" lon="11.43338"><ele>254.2</ele><time>2026-04-26T09:29:09.298Z</time></trkpt><trkpt lat="43.01491" lon="11.4332683"><ele>253.4</ele><time>2026-04-26T09:29:10.3Z</time></trkpt><trkpt lat="43.0149483" lon="11.43315"><ele>252.60000000000002</ele><time>2026-04-26T09:29:11.297Z</time></trkpt><trkpt lat="43.0149733" lon="11.43302"><ele>251.8</ele><time>2026-04-26T09:29:12.299Z</time></trkpt><trkpt lat="43.0149867" lon="11.432885"><ele>251.0</ele><time>2026-04-26T09:29:13.298Z</time></trkpt><trkpt lat="43.0149867" lon="11.4327417"><ele>250.25</ele><time>2026-04-26T09:29:14.3Z</time></trkpt><trkpt lat="43.0149767" lon="11.4325933"><ele>249.5</ele><time>2026-04-26T09:29:15.299Z</time></trkpt><trkpt lat="43.0149567" lon="11.4324417"><ele>248.75</ele><time>2026-04-26T09:29:16.298Z</time></trkpt><trkpt lat="43.01493" lon="11.4322883"><ele>248.0</ele><time>2026-04-26T09:29:17.296Z</time></trkpt><trkpt lat="43.0149033" lon="11.4321333"><ele>247.25</ele><time>2026-04-26T09:29:18.296Z</time></trkpt><trkpt lat="43.0148783" lon="11.43198"><ele>246.5</ele><time>2026-04-26T09:29:19.296Z</time></trkpt><trkpt lat="43.01485" lon="11.431825"><ele>245.75</ele><time>2026-04-26T09:29:20.296Z</time></trkpt><trkpt lat="43.0148217" lon="11.4316667"><ele>245.0</ele><time>2026-04-26T09:29:21.296Z</time></trkpt><trkpt lat="43.0147967" lon="11.4315083"><ele>245.0</ele><time>2026-04-26T09:29:22.296Z</time></trkpt><trkpt lat="43.01477" lon="11.4313517"><ele>245.0</ele><time>2026-04-26T09:29:23.297Z</time></trkpt><trkpt lat="43.0147367" lon="11.4312017"><ele>245.0</ele><time>2026-04-26T09:29:24.297Z</time></trkpt><trkpt lat="43.0146983" lon="11.4310567"><ele>245.0</ele><time>2026-04-26T09:29:25.3Z</time></trkpt><trkpt lat="43.0146533" lon="11.43092"><ele>244.0</ele><time>2026-04-26T09:29:26.299Z</time></trkpt><trkpt lat="43.0145983" lon="11.430795"><ele>243.0</ele><time>2026-04-26T09:29:27.299Z</time></trkpt><trkpt lat="43.0145317" lon="11.4306833"><ele>242.0</ele><time>2026-04-26T09:29:28.3Z</time></trkpt><trkpt lat="43.0144483" lon="11.4305933"><ele>241.0</ele><time>2026-04-26T09:29:29.298Z</time></trkpt><trkpt lat="43.0143583" lon="11.43053"><ele>240.0</ele><time>2026-04-26T09:29:30.297Z</time></trkpt><trkpt lat="43.014265" lon="11.430465"><ele>239.2</ele><time>2026-04-26T09:29:31.299Z</time></trkpt><trkpt lat="43.01418" lon="11.4303917"><ele>238.4</ele><time>2026-04-26T09:29:32.299Z</time></trkpt><trkpt lat="43.0141017" lon="11.430305"><ele>237.60000000000002</ele><time>2026-04-26T09:29:33.299Z</time></trkpt><trkpt lat="43.0140317" lon="11.43021"><ele>236.8</ele><time>2026-04-26T09:29:34.296Z</time></trkpt><trkpt lat="43.0139817" lon="11.4300967"><ele>236.0</ele><time>2026-04-26T09:29:35.3Z</time></trkpt><trkpt lat="43.0139383" lon="11.4299767"><ele>236.0</ele><time>2026-04-26T09:29:36.302Z</time></trkpt><trkpt lat="43.0139133" lon="11.429845"><ele>236.00000000000003</ele><time>2026-04-26T09:29:37.296Z</time></trkpt><trkpt lat="43.0138817" lon="11.4297083"><ele>236.00000000000003</ele><time>2026-04-26T09:29:38.3Z</time></trkpt><trkpt lat="43.0138517" lon="11.4295717"><ele>236.0</ele><time>2026-04-26T09:29:39.299Z</time></trkpt><trkpt lat="43.01382" lon="11.4294433"><ele>236.0</ele><time>2026-04-26T09:29:40.299Z</time></trkpt><trkpt lat="43.0137733" lon="11.4293267"><ele>234.8</ele><time>2026-04-26T09:29:41.298Z</time></trkpt><trkpt lat="43.0137133" lon="11.429235"><ele>233.60000000000002</ele><time>2026-04-26T09:29:42.295Z</time></trkpt><trkpt lat="43.01364" lon="11.4291517"><ele>232.4</ele><time>2026-04-26T09:29:43.297Z</time></trkpt><trkpt lat="43.0135533" lon="11.4290817"><ele>231.2</ele><time>2026-04-26T09:29:44.296Z</time></trkpt><trkpt lat="43.013465" lon="11.42902"><ele>230.0</ele><time>2026-04-26T09:29:45.296Z</time></trkpt><trkpt lat="43.0133667" lon="11.4289633"><ele>230.0</ele><time>2026-04-26T09:29:46.297Z</time></trkpt><trkpt lat="43.013265" lon="11.4289067"><ele>230.0</ele><time>2026-04-26T09:29:47.297Z</time></trkpt><trkpt lat="43.0131633" lon="11.4288567"><ele>230.0</ele><time>2026-04-26T09:29:48.298Z</time></trkpt><trkpt lat="43.01306" lon="11.4288083"><ele>230.0</ele><time>2026-04-26T09:29:49.296Z</time></trkpt><trkpt lat="43.0129517" lon="11.4287767"><ele>230.0</ele><time>2026-04-26T09:29:50.299Z</time></trkpt><trkpt lat="43.012845" lon="11.4287333"><ele>229.6</ele><time>2026-04-26T09:29:51.298Z</time></trkpt><trkpt lat="43.0127383" lon="11.42869"><ele>229.2</ele><time>2026-04-26T09:29:52.296Z</time></trkpt><trkpt lat="43.0126317" lon="11.4286533"><ele>228.8</ele><time>2026-04-26T09:29:53.298Z</time></trkpt><trkpt lat="43.0125283" lon="11.4286117"><ele>228.4</ele><time>2026-04-26T09:29:54.297Z</time></trkpt><trkpt lat="43.012425" lon="11.4285583"><ele>228.0</ele><time>2026-04-26T09:29:55.296Z</time></trkpt><trkpt lat="43.012325" lon="11.4284867"><ele>228.0</ele><time>2026-04-26T09:29:56.298Z</time></trkpt><trkpt lat="43.0122267" lon="11.4284"><ele>228.0</ele><time>2026-04-26T09:29:57.298Z</time></trkpt><trkpt lat="43.0121333" lon="11.4283117"><ele>228.0</ele><time>2026-04-26T09:29:58.296Z</time></trkpt><trkpt lat="43.012035" lon="11.42822"><ele>228.0</ele><time>2026-04-26T09:29:59.295Z</time></trkpt><trkpt lat="43.0119333" lon="11.4281283"><ele>228.0</ele><time>2026-04-26T09:30:00.297Z</time></trkpt><trkpt lat="43.0118317" lon="11.42804"><ele>228.0</ele><time>2026-04-26T09:30:01.296Z</time></trkpt><trkpt lat="43.0117333" lon="11.4279483"><ele>228.0</ele><time>2026-04-26T09:30:02.296Z</time></trkpt><trkpt lat="43.01164" lon="11.4278533"><ele>228.0</ele><time>2026-04-26T09:30:03.296Z</time></trkpt><trkpt lat="43.01155" lon="11.4277583"><ele>227.5</ele><time>2026-04-26T09:30:04.296Z</time></trkpt><trkpt lat="43.011465" lon="11.4276583"><ele>227.0</ele><time>2026-04-26T09:30:05.299Z</time></trkpt><trkpt lat="43.011385" lon="11.4275483"><ele>226.5</ele><time>2026-04-26T09:30:06.295Z</time></trkpt><trkpt lat="43.0113083" lon="11.4274267"><ele>226.0</ele><time>2026-04-26T09:30:07.297Z</time></trkpt><trkpt lat="43.011235" lon="11.4272967"><ele>226.0</ele><time>2026-04-26T09:30:08.297Z</time></trkpt><trkpt lat="43.0111633" lon="11.4271617"><ele>226.0</ele><time>2026-04-26T09:30:09.295Z</time></trkpt><trkpt lat="43.0110967" lon="11.42702"><ele>226.0</ele><time>2026-04-26T09:30:10.296Z</time></trkpt><trkpt lat="43.0110333" lon="11.4268767"><ele>226.0</ele><time>2026-04-26T09:30:11.298Z</time></trkpt><trkpt lat="43.0109683" lon="11.426735"><ele>226.25</ele><time>2026-04-26T09:30:12.296Z</time></trkpt><trkpt lat="43.0109017" lon="11.4265967"><ele>226.5</ele><time>2026-04-26T09:30:13.295Z</time></trkpt><trkpt lat="43.0108317" lon="11.4264583"><ele>226.75</ele><time>2026-04-26T09:30:14.296Z</time></trkpt><trkpt lat="43.0107567" lon="11.4263233"><ele>227.0</ele><time>2026-04-26T09:30:15.296Z</time></trkpt><trkpt lat="43.0106767" lon="11.426185"><ele>227.0</ele><time>2026-04-26T09:30:16.298Z</time></trkpt><trkpt lat="43.0105967" lon="11.4260467"><ele>227.0</ele><time>2026-04-26T09:30:17.299Z</time></trkpt><trkpt lat="43.0105183" lon="11.4259067"><ele>227.0</ele><time>2026-04-26T09:30:18.299Z</time></trkpt><trkpt lat="43.0104517" lon="11.4257617"><ele>227.0</ele><time>2026-04-26T09:30:19.298Z</time></trkpt><trkpt lat="43.0103933" lon="11.4256183"><ele>226.25</ele><time>2026-04-26T09:30:20.301Z</time></trkpt><trkpt lat="43.0103433" lon="11.4254633"><ele>225.5</ele><time>2026-04-26T09:30:21.298Z</time></trkpt><trkpt lat="43.0103017" lon="11.4252917"><ele>224.75</ele><time>2026-04-26T09:30:22.296Z</time></trkpt><trkpt lat="43.0102617" lon="11.425105"><ele>224.0</ele><time>2026-04-26T09:30:23.297Z</time></trkpt><trkpt lat="43.010225" lon="11.4249133"><ele>224.0</ele><time>2026-04-26T09:30:24.298Z</time></trkpt><trkpt lat="43.010185" lon="11.4247133"><ele>224.0</ele><time>2026-04-26T09:30:25.297Z</time></trkpt><trkpt lat="43.010145" lon="11.4245167"><ele>224.0</ele><time>2026-04-26T09:30:26.301Z</time></trkpt><trkpt lat="43.0101083" lon="11.4243267"><ele>224.0</ele><time>2026-04-26T09:30:27.296Z</time></trkpt><trkpt lat="43.0100717" lon="11.4241383"><ele>223.25</ele><time>2026-04-26T09:30:28.295Z</time></trkpt><trkpt lat="43.0100317" lon="11.42395"><ele>222.5</ele><time>2026-04-26T09:30:29.297Z</time></trkpt><trkpt lat="43.0099967" lon="11.4237583"><ele>221.75</ele><time>2026-04-26T09:30:30.296Z</time></trkpt><trkpt lat="43.0099483" lon="11.4235717"><ele>221.0</ele><time>2026-04-26T09:30:31.295Z</time></trkpt><trkpt lat="43.009905" lon="11.4233817"><ele>219.5</ele><time>2026-04-26T09:30:32.297Z</time></trkpt><trkpt lat="43.0098567" lon="11.4231983"><ele>218.0</ele><time>2026-04-26T09:30:33.295Z</time></trkpt><trkpt lat="43.0098017" lon="11.42302"><ele>216.5</ele><time>2026-04-26T09:30:34.296Z</time></trkpt><trkpt lat="43.0097433" lon="11.4228483"><ele>215.0</ele><time>2026-04-26T09:30:35.297Z</time></trkpt><trkpt lat="43.0096883" lon="11.4226767"><ele>215.0</ele><time>2026-04-26T09:30:36.296Z</time></trkpt><trkpt lat="43.00963" lon="11.4225033"><ele>215.0</ele><time>2026-04-26T09:30:37.296Z</time></trkpt><trkpt lat="43.00957" lon="11.4223267"><ele>215.0</ele><time>2026-04-26T09:30:38.298Z</time></trkpt><trkpt lat="43.0095067" lon="11.4221483"><ele>215.0</ele><time>2026-04-26T09:30:39.294Z</time></trkpt><trkpt lat="43.0094517" lon="11.4219683"><ele>216.0</ele><time>2026-04-26T09:30:40.295Z</time></trkpt><trkpt lat="43.009395" lon="11.4217983"><ele>217.0</ele><time>2026-04-26T09:30:41.297Z</time></trkpt><trkpt lat="43.009325" lon="11.4216333"><ele>218.0</ele><time>2026-04-26T09:30:42.298Z</time></trkpt><trkpt lat="43.0092483" lon="11.421485"><ele>219.0</ele><time>2026-04-26T09:30:43.297Z</time></trkpt><trkpt lat="43.0091533" lon="11.421355"><ele>220.75</ele><time>2026-04-26T09:30:44.3Z</time></trkpt><trkpt lat="43.0090433" lon="11.4212517"><ele>222.5</ele><time>2026-04-26T09:30:45.298Z</time></trkpt><trkpt lat="43.0089317" lon="11.4211633"><ele>224.25</ele><time>2026-04-26T09:30:46.297Z</time></trkpt><trkpt lat="43.00882" lon="11.4210817"><ele>226.0</ele><time>2026-04-26T09:30:47.298Z</time></trkpt><trkpt lat="43.0087083" lon="11.4209983"><ele>226.0</ele><time>2026-04-26T09:30:48.297Z</time></trkpt><trkpt lat="43.0085983" lon="11.4209183"><ele>226.0</ele><time>2026-04-26T09:30:49.298Z</time></trkpt><trkpt lat="43.0084883" lon="11.420835"><ele>226.0</ele><time>2026-04-26T09:30:50.299Z</time></trkpt><trkpt lat="43.00838" lon="11.42075"><ele>226.0</ele><time>2026-04-26T09:30:51.298Z</time></trkpt><trkpt lat="43.0082767" lon="11.4206667"><ele>227.5</ele><time>2026-04-26T09:30:52.298Z</time></trkpt><trkpt lat="43.0081783" lon="11.4205833"><ele>229.0</ele><time>2026-04-26T09:30:53.298Z</time></trkpt><trkpt lat="43.0080817" lon="11.4205017"><ele>230.5</ele><time>2026-04-26T09:30:54.298Z</time></trkpt><trkpt lat="43.0079867" lon="11.4204233"><ele>232.0</ele><time>2026-04-26T09:30:55.297Z</time></trkpt><trkpt lat="43.00789" lon="11.420345"><ele>232.2</ele><time>2026-04-26T09:30:56.297Z</time></trkpt><trkpt lat="43.0077967" lon="11.4202667"><ele>232.39999999999998</ele><time>2026-04-26T09:30:57.297Z</time></trkpt><trkpt lat="43.0077033" lon="11.4201883"><ele>232.60000000000002</ele><time>2026-04-26T09:30:58.295Z</time></trkpt><trkpt lat="43.0076117" lon="11.4201083"><ele>232.8</ele><time>2026-04-26T09:30:59.295Z</time></trkpt><trkpt lat="43.00752" lon="11.4200283"><ele>233.0</ele><time>2026-04-26T09:31:00.295Z</time></trkpt><trkpt lat="43.0074283" lon="11.41995"><ele>233.0</ele><time>2026-04-26T09:31:01.296Z</time></trkpt><trkpt lat="43.0073383" lon="11.419875"><ele>233.0</ele><time>2026-04-26T09:31:02.296Z</time></trkpt><trkpt lat="43.0072467" lon="11.4198"><ele>233.0</ele><time>2026-04-26T09:31:03.294Z</time></trkpt><trkpt lat="43.0071533" lon="11.4197233"><ele>233.0</ele><time>2026-04-26T09:31:04.296Z</time></trkpt><trkpt lat="43.0070583" lon="11.4196433"><ele>233.0</ele><time>2026-04-26T09:31:05.296Z</time></trkpt><trkpt lat="43.0069617" lon="11.4195617"><ele>233.0</ele><time>2026-04-26T09:31:06.294Z</time></trkpt><trkpt lat="43.0068667" lon="11.419465"><ele>233.0</ele><time>2026-04-26T09:31:07.295Z</time></trkpt><trkpt lat="43.0067717" lon="11.4193567"><ele>233.0</ele><time>2026-04-26T09:31:08.295Z</time></trkpt><trkpt lat="43.006675" lon="11.4192383"><ele>233.0</ele><time>2026-04-26T09:31:09.295Z</time></trkpt><trkpt lat="43.0065783" lon="11.419105"><ele>233.0</ele><time>2026-04-26T09:31:10.296Z</time></trkpt><trkpt lat="43.0064833" lon="11.4189617"><ele>233.0</ele><time>2026-04-26T09:31:11.299Z</time></trkpt><trkpt lat="43.0063917" lon="11.4188017"><ele>233.0</ele><time>2026-04-26T09:31:12.3Z</time></trkpt><trkpt lat="43.0063" lon="11.418635"><ele>233.0</ele><time>2026-04-26T09:31:13.298Z</time></trkpt><trkpt lat="43.0062117" lon="11.4184667"><ele>232.0</ele><time>2026-04-26T09:31:14.298Z</time></trkpt><trkpt lat="43.0061283" lon="11.4183033"><ele>231.0</ele><time>2026-04-26T09:31:15.299Z</time></trkpt><trkpt lat="43.006045" lon="11.4181467"><ele>230.0</ele><time>2026-04-26T09:31:16.298Z</time></trkpt><trkpt lat="43.0059667" lon="11.417995"><ele>229.0</ele><time>2026-04-26T09:31:17.299Z</time></trkpt><trkpt lat="43.0058917" lon="11.4178467"><ele>228.25</ele><time>2026-04-26T09:31:18.297Z</time></trkpt><trkpt lat="43.0058167" lon="11.4176983"><ele>227.5</ele><time>2026-04-26T09:31:19.3Z</time></trkpt><trkpt lat="43.00574" lon="11.4175517"><ele>226.75</ele><time>2026-04-26T09:31:20.298Z</time></trkpt><trkpt lat="43.005665" lon="11.417395"><ele>226.0</ele><time>2026-04-26T09:31:21.297Z</time></trkpt><trkpt lat="43.00559" lon="11.41723"><ele>225.25</ele><time>2026-04-26T09:31:22.297Z</time></trkpt><trkpt lat="43.0055117" lon="11.4170617"><ele>224.5</ele><time>2026-04-26T09:31:23.298Z</time></trkpt><trkpt lat="43.005435" lon="11.4168933"><ele>223.75</ele><time>2026-04-26T09:31:24.297Z</time></trkpt><trkpt lat="43.0053583" lon="11.4167267"><ele>223.0</ele><time>2026-04-26T09:31:25.298Z</time></trkpt><trkpt lat="43.0052833" lon="11.4165617"><ele>223.0</ele><time>2026-04-26T09:31:26.299Z</time></trkpt><trkpt lat="43.00521" lon="11.4163983"><ele>223.0</ele><time>2026-04-26T09:31:27.298Z</time></trkpt><trkpt lat="43.0051417" lon="11.41624"><ele>223.0</ele><time>2026-04-26T09:31:28.295Z</time></trkpt><trkpt lat="43.0050733" lon="11.4160833"><ele>223.0</ele><time>2026-04-26T09:31:29.297Z</time></trkpt><trkpt lat="43.0050033" lon="11.4159267"><ele>223.25</ele><time>2026-04-26T09:31:30.294Z</time></trkpt><trkpt lat="43.0049333" lon="11.4157683"><ele>223.5</ele><time>2026-04-26T09:31:31.297Z</time></trkpt><trkpt lat="43.0048617" lon="11.415605"><ele>223.75</ele><time>2026-04-26T09:31:32.297Z</time></trkpt><trkpt lat="43.0047883" lon="11.4154417"><ele>224.0</ele><time>2026-04-26T09:31:33.295Z</time></trkpt><trkpt lat="43.0047133" lon="11.41527"><ele>226.0</ele><time>2026-04-26T09:31:34.296Z</time></trkpt><trkpt lat="43.0046317" lon="11.4150967"><ele>228.0</ele><time>2026-04-26T09:31:35.296Z</time></trkpt><trkpt lat="43.004545" lon="11.4149233"><ele>230.0</ele><time>2026-04-26T09:31:36.296Z</time></trkpt><trkpt lat="43.004455" lon="11.41476"><ele>231.0</ele><time>2026-04-26T09:31:37.295Z</time></trkpt><trkpt lat="43.0043617" lon="11.4146017"><ele>232.0</ele><time>2026-04-26T09:31:38.297Z</time></trkpt><trkpt lat="43.0042683" lon="11.4144417"><ele>233.0</ele><time>2026-04-26T09:31:39.295Z</time></trkpt><trkpt lat="43.004175" lon="11.4142783"><ele>233.0</ele><time>2026-04-26T09:31:40.296Z</time></trkpt><trkpt lat="43.0040833" lon="11.4141183"><ele>233.0</ele><time>2026-04-26T09:31:41.299Z</time></trkpt><trkpt lat="43.0039917" lon="11.4139583"><ele>233.0</ele><time>2026-04-26T09:31:42.298Z</time></trkpt><trkpt lat="43.003905" lon="11.4138"><ele>233.0</ele><time>2026-04-26T09:31:43.297Z</time></trkpt><trkpt lat="43.003815" lon="11.41365"><ele>232.75</ele><time>2026-04-26T09:31:44.298Z</time></trkpt><trkpt lat="43.0037283" lon="11.4134967"><ele>232.5</ele><time>2026-04-26T09:31:45.298Z</time></trkpt><trkpt lat="43.00364" lon="11.413345"><ele>232.25</ele><time>2026-04-26T09:31:46.299Z</time></trkpt><trkpt lat="43.0035533" lon="11.4131967"><ele>232.0</ele><time>2026-04-26T09:31:47.295Z</time></trkpt><trkpt lat="43.003465" lon="11.4130467"><ele>232.0</ele><time>2026-04-26T09:31:48.298Z</time></trkpt><trkpt lat="43.0033783" lon="11.4128933"><ele>232.0</ele><time>2026-04-26T09:31:49.295Z</time></trkpt><trkpt lat="43.0032917" lon="11.41274"><ele>232.0</ele><time>2026-04-26T09:31:50.296Z</time></trkpt><trkpt lat="43.003205" lon="11.412585"><ele>232.0</ele><time>2026-04-26T09:31:51.297Z</time></trkpt><trkpt lat="43.00312" lon="11.4124267"><ele>232.0</ele><time>2026-04-26T09:31:52.298Z</time></trkpt><trkpt lat="43.0030333" lon="11.412275"><ele>232.0</ele><time>2026-04-26T09:31:53.297Z</time></trkpt><trkpt lat="43.002945" lon="11.4121267"><ele>232.0</ele><time>2026-04-26T09:31:54.297Z</time></trkpt><trkpt lat="43.0028617" lon="11.41198"><ele>232.0</ele><time>2026-04-26T09:31:55.298Z</time></trkpt><trkpt lat="43.00278" lon="11.4118317"><ele>233.5</ele><time>2026-04-26T09:31:56.299Z</time></trkpt><trkpt lat="43.0026983" lon="11.4116933"><ele>235.0</ele><time>2026-04-26T09:31:57.298Z</time></trkpt><trkpt lat="43.002615" lon="11.4115567"><ele>236.5</ele><time>2026-04-26T09:31:58.296Z</time></trkpt><trkpt lat="43.002535" lon="11.411425"><ele>238.0</ele><time>2026-04-26T09:31:59.296Z</time></trkpt><trkpt lat="43.0024567" lon="11.4112933"><ele>238.25</ele><time>2026-04-26T09:32:00.295Z</time></trkpt><trkpt lat="43.00238" lon="11.4111567"><ele>238.5</ele><time>2026-04-26T09:32:01.296Z</time></trkpt><trkpt lat="43.0023017" lon="11.4110133"><ele>238.75</ele><time>2026-04-26T09:32:02.297Z</time></trkpt><trkpt lat="43.00222" lon="11.4108933"><ele>239.0</ele><time>2026-04-26T09:32:03.298Z</time></trkpt><trkpt lat="43.002135" lon="11.4107933"><ele>239.0</ele><time>2026-04-26T09:32:04.299Z</time></trkpt><trkpt lat="43.0020383" lon="11.41071"><ele>239.0</ele><time>2026-04-26T09:32:05.299Z</time></trkpt><trkpt lat="43.0019333" lon="11.410655"><ele>239.0</ele><time>2026-04-26T09:32:06.295Z</time></trkpt><trkpt lat="43.0018133" lon="11.41064"><ele>239.0</ele><time>2026-04-26T09:32:07.297Z</time></trkpt><trkpt lat="43.0016883" lon="11.410655"><ele>238.75</ele><time>2026-04-26T09:32:08.296Z</time></trkpt><trkpt lat="43.0015567" lon="11.4106867"><ele>238.5</ele><time>2026-04-26T09:32:09.297Z</time></trkpt><trkpt lat="43.0014183" lon="11.4107233"><ele>238.25</ele><time>2026-04-26T09:32:10.297Z</time></trkpt><trkpt lat="43.0012717" lon="11.4107617"><ele>238.0</ele><time>2026-04-26T09:32:11.297Z</time></trkpt><trkpt lat="43.00112" lon="11.4107983"><ele>238.0</ele><time>2026-04-26T09:32:12.298Z</time></trkpt><trkpt lat="43.0009733" lon="11.41083"><ele>238.0</ele><time>2026-04-26T09:32:13.297Z</time></trkpt><trkpt lat="43.0008217" lon="11.410865"><ele>238.0</ele><time>2026-04-26T09:32:14.298Z</time></trkpt><trkpt lat="43.0006733" lon="11.4108933"><ele>239.33333333333331</ele><time>2026-04-26T09:32:15.298Z</time></trkpt><trkpt lat="43.0005217" lon="11.4109267"><ele>240.66666666666669</ele><time>2026-04-26T09:32:16.297Z</time></trkpt><trkpt lat="43.00037" lon="11.4109583"><ele>242.0</ele><time>2026-04-26T09:32:17.297Z</time></trkpt><trkpt lat="43.0002217" lon="11.41099"><ele>242.0</ele><time>2026-04-26T09:32:18.299Z</time></trkpt><trkpt lat="43.0000767" lon="11.411015"><ele>242.0</ele><time>2026-04-26T09:32:19.299Z</time></trkpt><trkpt lat="42.9999333" lon="11.4110417"><ele>242.0</ele><time>2026-04-26T09:32:20.298Z</time></trkpt><trkpt lat="42.99979" lon="11.4110667"><ele>242.0</ele><time>2026-04-26T09:32:21.298Z</time></trkpt><trkpt lat="42.99965" lon="11.4110983"><ele>242.0</ele><time>2026-04-26T09:32:22.295Z</time></trkpt><trkpt lat="42.9995133" lon="11.411125"><ele>242.0</ele><time>2026-04-26T09:32:23.298Z</time></trkpt><trkpt lat="42.9993767" lon="11.41115"><ele>242.0</ele><time>2026-04-26T09:32:24.297Z</time></trkpt><trkpt lat="42.9992467" lon="11.4111767"><ele>242.0</ele><time>2026-04-26T09:32:25.297Z</time></trkpt><trkpt lat="42.99912" lon="11.411205"><ele>242.5</ele><time>2026-04-26T09:32:26.298Z</time></trkpt><trkpt lat="42.99899" lon="11.4112333"><ele>243.0</ele><time>2026-04-26T09:32:27.297Z</time></trkpt><trkpt lat="42.9988617" lon="11.4112617"><ele>243.5</ele><time>2026-04-26T09:32:28.295Z</time></trkpt><trkpt lat="42.998735" lon="11.41129"><ele>244.0</ele><time>2026-04-26T09:32:29.295Z</time></trkpt><trkpt lat="42.9986117" lon="11.411315"><ele>244.75</ele><time>2026-04-26T09:32:30.294Z</time></trkpt><trkpt lat="42.998485" lon="11.4113383"><ele>245.5</ele><time>2026-04-26T09:32:31.295Z</time></trkpt><trkpt lat="42.9983583" lon="11.411365"><ele>246.25</ele><time>2026-04-26T09:32:32.296Z</time></trkpt><trkpt lat="42.99823" lon="11.41139"><ele>247.0</ele><time>2026-04-26T09:32:33.294Z</time></trkpt><trkpt lat="42.9981017" lon="11.411415"><ele>248.25</ele><time>2026-04-26T09:32:34.296Z</time></trkpt><trkpt lat="42.99797" lon="11.4114417"><ele>249.5</ele><time>2026-04-26T09:32:35.295Z</time></trkpt><trkpt lat="42.9978367" lon="11.4114683"><ele>250.75</ele><time>2026-04-26T09:32:36.295Z</time></trkpt><trkpt lat="42.9977033" lon="11.411495"><ele>252.0</ele><time>2026-04-26T09:32:37.295Z</time></trkpt><trkpt lat="42.9975717" lon="11.4115217"><ele>252.0</ele><time>2026-04-26T09:32:38.299Z</time></trkpt><trkpt lat="42.99744" lon="11.4115467"><ele>252.0</ele><time>2026-04-26T09:32:39.299Z</time></trkpt><trkpt lat="42.9973117" lon="11.4115683"><ele>252.0</ele><time>2026-04-26T09:32:40.296Z</time></trkpt><trkpt lat="42.997185" lon="11.4115883"><ele>252.0</ele><time>2026-04-26T09:32:41.298Z</time></trkpt><trkpt lat="42.9970583" lon="11.4116083"><ele>252.0</ele><time>2026-04-26T09:32:42.298Z</time></trkpt><trkpt lat="42.9969317" lon="11.4116233"><ele>252.0</ele><time>2026-04-26T09:32:43.297Z</time></trkpt><trkpt lat="42.996815" lon="11.4116383"><ele>252.0</ele><time>2026-04-26T09:32:44.299Z</time></trkpt><trkpt lat="42.9967033" lon="11.4116533"><ele>252.0</ele><time>2026-04-26T09:32:45.298Z</time></trkpt><trkpt lat="42.9965917" lon="11.4116717"><ele>252.75</ele><time>2026-04-26T09:32:46.299Z</time></trkpt><trkpt lat="42.9964817" lon="11.4116983"><ele>253.5</ele><time>2026-04-26T09:32:47.296Z</time></trkpt><trkpt lat="42.9963683" lon="11.4117383"><ele>254.25</ele><time>2026-04-26T09:32:48.298Z</time></trkpt><trkpt lat="42.9962517" lon="11.4117833"><ele>255.0</ele><time>2026-04-26T09:32:49.298Z</time></trkpt><trkpt lat="42.996135" lon="11.411825"><ele>255.0</ele><time>2026-04-26T09:32:50.3Z</time></trkpt><trkpt lat="42.9960183" lon="11.4118683"><ele>255.0</ele><time>2026-04-26T09:32:51.298Z</time></trkpt><trkpt lat="42.9959033" lon="11.4119117"><ele>255.0</ele><time>2026-04-26T09:32:52.299Z</time></trkpt><trkpt lat="42.99579" lon="11.4119483"><ele>255.0</ele><time>2026-04-26T09:32:53.298Z</time></trkpt><trkpt lat="42.995675" lon="11.4119867"><ele>254.5</ele><time>2026-04-26T09:32:54.298Z</time></trkpt><trkpt lat="42.9955567" lon="11.4120217"><ele>254.0</ele><time>2026-04-26T09:32:55.299Z</time></trkpt><trkpt lat="42.9954383" lon="11.4120533"><ele>253.5</ele><time>2026-04-26T09:32:56.3Z</time></trkpt><trkpt lat="42.9953167" lon="11.41208"><ele>253.0</ele><time>2026-04-26T09:32:57.298Z</time></trkpt><trkpt lat="42.9951917" lon="11.4121"><ele>253.0</ele><time>2026-04-26T09:32:58.295Z</time></trkpt><trkpt lat="42.9950683" lon="11.4121017"><ele>253.0</ele><time>2026-04-26T09:32:59.295Z</time></trkpt><trkpt lat="42.9949433" lon="11.41209"><ele>253.0</ele><time>2026-04-26T09:33:00.3Z</time></trkpt><trkpt lat="42.9948183" lon="11.4120567"><ele>253.0</ele><time>2026-04-26T09:33:01.295Z</time></trkpt><trkpt lat="42.9946917" lon="11.4120067"><ele>252.5</ele><time>2026-04-26T09:33:02.299Z</time></trkpt><trkpt lat="42.994565" lon="11.41193"><ele>252.0</ele><time>2026-04-26T09:33:03.298Z</time></trkpt><trkpt lat="42.9944433" lon="11.4118433"><ele>251.5</ele><time>2026-04-26T09:33:04.295Z</time></trkpt><trkpt lat="42.9943233" lon="11.41175"><ele>251.0</ele><time>2026-04-26T09:33:05.295Z</time></trkpt><trkpt lat="42.9942083" lon="11.4116517"><ele>250.75</ele><time>2026-04-26T09:33:06.295Z</time></trkpt><trkpt lat="42.99409" lon="11.4115517"><ele>250.5</ele><time>2026-04-26T09:33:07.296Z</time></trkpt><trkpt lat="42.993975" lon="11.41145"><ele>250.25</ele><time>2026-04-26T09:33:08.297Z</time></trkpt><trkpt lat="42.9938583" lon="11.4113467"><ele>250.0</ele><time>2026-04-26T09:33:09.295Z</time></trkpt><trkpt lat="42.9937433" lon="11.41124"><ele>249.0</ele><time>2026-04-26T09:33:10.298Z</time></trkpt><trkpt lat="42.9936317" lon="11.4111333"><ele>248.0</ele><time>2026-04-26T09:33:11.298Z</time></trkpt><trkpt lat="42.993525" lon="11.4110217"><ele>247.0</ele><time>2026-04-26T09:33:12.298Z</time></trkpt><trkpt lat="42.9934183" lon="11.4109083"><ele>246.0</ele><time>2026-04-26T09:33:13.297Z</time></trkpt><trkpt lat="42.9933133" lon="11.4107967"><ele>246.0</ele><time>2026-04-26T09:33:14.298Z</time></trkpt><trkpt lat="42.9932067" lon="11.4106933"><ele>246.0</ele><time>2026-04-26T09:33:15.297Z</time></trkpt><trkpt lat="42.9930983" lon="11.410605"><ele>246.0</ele><time>2026-04-26T09:33:16.299Z</time></trkpt><trkpt lat="42.99298" lon="11.410535"><ele>246.0</ele><time>2026-04-26T09:33:17.297Z</time></trkpt><trkpt lat="42.99286" lon="11.4104783"><ele>245.5</ele><time>2026-04-26T09:33:18.298Z</time></trkpt><trkpt lat="42.992735" lon="11.4104417"><ele>245.0</ele><time>2026-04-26T09:33:19.297Z</time></trkpt><trkpt lat="42.9926067" lon="11.4104117"><ele>244.5</ele><time>2026-04-26T09:33:20.299Z</time></trkpt><trkpt lat="42.9924767" lon="11.4103883"><ele>244.0</ele><time>2026-04-26T09:33:21.299Z</time></trkpt><trkpt lat="42.9923467" lon="11.4103717"><ele>244.0</ele><time>2026-04-26T09:33:22.299Z</time></trkpt><trkpt lat="42.9922183" lon="11.4103517"><ele>244.0</ele><time>2026-04-26T09:33:23.297Z</time></trkpt><trkpt lat="42.992085" lon="11.4103333"><ele>244.0</ele><time>2026-04-26T09:33:24.298Z</time></trkpt><trkpt lat="42.9919467" lon="11.410325"><ele>244.0</ele><time>2026-04-26T09:33:25.298Z</time></trkpt><trkpt lat="42.991805" lon="11.4103317"><ele>244.25</ele><time>2026-04-26T09:33:26.299Z</time></trkpt><trkpt lat="42.9916583" lon="11.4103417"><ele>244.5</ele><time>2026-04-26T09:33:27.299Z</time></trkpt><trkpt lat="42.99151" lon="11.4103483"><ele>244.75</ele><time>2026-04-26T09:33:28.297Z</time></trkpt><trkpt lat="42.99136" lon="11.4103467"><ele>245.0</ele><time>2026-04-26T09:33:29.298Z</time></trkpt><trkpt lat="42.9912067" lon="11.4103367"><ele>245.0</ele><time>2026-04-26T09:33:30.299Z</time></trkpt><trkpt lat="42.991055" lon="11.4103217"><ele>245.0</ele><time>2026-04-26T09:33:31.299Z</time></trkpt><trkpt lat="42.990905" lon="11.4103017"><ele>245.0</ele><time>2026-04-26T09:33:32.299Z</time></trkpt><trkpt lat="42.9907567" lon="11.41028"><ele>244.75</ele><time>2026-04-26T09:33:33.298Z</time></trkpt><trkpt lat="42.9906117" lon="11.41026"><ele>244.5</ele><time>2026-04-26T09:33:34.298Z</time></trkpt><trkpt lat="42.99047" lon="11.4102483"><ele>244.25</ele><time>2026-04-26T09:33:35.298Z</time></trkpt><trkpt lat="42.9903333" lon="11.4102467"><ele>244.0</ele><time>2026-04-26T09:33:36.298Z</time></trkpt><trkpt lat="42.9902033" lon="11.4102567"><ele>244.0</ele><time>2026-04-26T09:33:37.298Z</time></trkpt><trkpt lat="42.9900733" lon="11.41029"><ele>244.0</ele><time>2026-04-26T09:33:38.298Z</time></trkpt><trkpt lat="42.9899483" lon="11.4103417"><ele>244.0</ele><time>2026-04-26T09:33:39.299Z</time></trkpt><trkpt lat="42.9898233" lon="11.4103933"><ele>244.0</ele><time>2026-04-26T09:33:40.298Z</time></trkpt><trkpt lat="42.9897" lon="11.410435"><ele>244.0</ele><time>2026-04-26T09:33:41.298Z</time></trkpt><trkpt lat="42.9895717" lon="11.410465"><ele>244.0</ele><time>2026-04-26T09:33:42.298Z</time></trkpt><trkpt lat="42.9894333" lon="11.4104833"><ele>244.0</ele><time>2026-04-26T09:33:43.298Z</time></trkpt><trkpt lat="42.98929" lon="11.41049"><ele>244.0</ele><time>2026-04-26T09:33:44.298Z</time></trkpt><trkpt lat="42.989145" lon="11.41049"><ele>242.5</ele><time>2026-04-26T09:33:45.299Z</time></trkpt><trkpt lat="42.9889967" lon="11.4104867"><ele>241.0</ele><time>2026-04-26T09:33:46.298Z</time></trkpt><trkpt lat="42.98885" lon="11.4104783"><ele>239.5</ele><time>2026-04-26T09:33:47.297Z</time></trkpt><trkpt lat="42.9887" lon="11.4104617"><ele>238.0</ele><time>2026-04-26T09:33:48.294Z</time></trkpt><trkpt lat="42.9885517" lon="11.4104417"><ele>238.0</ele><time>2026-04-26T09:33:49.296Z</time></trkpt><trkpt lat="42.9884067" lon="11.4104183"><ele>238.0</ele><time>2026-04-26T09:33:50.297Z</time></trkpt><trkpt lat="42.9882617" lon="11.4103933"><ele>238.0</ele><time>2026-04-26T09:33:51.297Z</time></trkpt><trkpt lat="42.9881183" lon="11.41037"><ele>238.0</ele><time>2026-04-26T09:33:52.296Z</time></trkpt><trkpt lat="42.987975" lon="11.410345"><ele>237.5</ele><time>2026-04-26T09:33:53.297Z</time></trkpt><trkpt lat="42.9878317" lon="11.4103183"><ele>237.0</ele><time>2026-04-26T09:33:54.298Z</time></trkpt><trkpt lat="42.98769" lon="11.4102883"><ele>236.5</ele><time>2026-04-26T09:33:55.297Z</time></trkpt><trkpt lat="42.987545" lon="11.4102567"><ele>236.0</ele><time>2026-04-26T09:33:56.299Z</time></trkpt><trkpt lat="42.9874" lon="11.4102233"><ele>236.0</ele><time>2026-04-26T09:33:57.299Z</time></trkpt><trkpt lat="42.9872567" lon="11.4101917"><ele>236.0</ele><time>2026-04-26T09:33:58.299Z</time></trkpt><trkpt lat="42.9871117" lon="11.4101583"><ele>236.0</ele><time>2026-04-26T09:33:59.297Z</time></trkpt><trkpt lat="42.9869667" lon="11.4101233"><ele>236.0</ele><time>2026-04-26T09:34:00.298Z</time></trkpt><trkpt lat="42.98682" lon="11.4100917"><ele>235.0</ele><time>2026-04-26T09:34:01.299Z</time></trkpt><trkpt lat="42.986675" lon="11.4100617"><ele>234.0</ele><time>2026-04-26T09:34:02.299Z</time></trkpt><trkpt lat="42.9865333" lon="11.4100267"><ele>233.0</ele><time>2026-04-26T09:34:03.3Z</time></trkpt><trkpt lat="42.9863933" lon="11.4099867"><ele>232.0</ele><time>2026-04-26T09:34:04.297Z</time></trkpt><trkpt lat="42.9862567" lon="11.40995"><ele>232.0</ele><time>2026-04-26T09:34:05.298Z</time></trkpt><trkpt lat="42.9861217" lon="11.4099033"><ele>232.0</ele><time>2026-04-26T09:34:06.298Z</time></trkpt><trkpt lat="42.9859867" lon="11.4098433"><ele>232.0</ele><time>2026-04-26T09:34:07.299Z</time></trkpt><trkpt lat="42.98586" lon="11.4097717"><ele>232.0</ele><time>2026-04-26T09:34:08.298Z</time></trkpt><trkpt lat="42.9857383" lon="11.409695"><ele>229.75</ele><time>2026-04-26T09:34:09.298Z</time></trkpt><trkpt lat="42.9856117" lon="11.4096167"><ele>227.5</ele><time>2026-04-26T09:34:10.298Z</time></trkpt><trkpt lat="42.98548" lon="11.4095467"><ele>225.25</ele><time>2026-04-26T09:34:11.299Z</time></trkpt><trkpt lat="42.985355" lon="11.4094833"><ele>223.0</ele><time>2026-04-26T09:34:12.296Z</time></trkpt><trkpt lat="42.9852217" lon="11.4094367"><ele>223.0</ele><time>2026-04-26T09:34:13.297Z</time></trkpt><trkpt lat="42.9850883" lon="11.409385"><ele>223.0</ele><time>2026-04-26T09:34:14.3Z</time></trkpt><trkpt lat="42.9849483" lon="11.4093383"><ele>223.0</ele><time>2026-04-26T09:34:15.298Z</time></trkpt><trkpt lat="42.9848133" lon="11.409285"><ele>223.0</ele><time>2026-04-26T09:34:16.298Z</time></trkpt><trkpt lat="42.98468" lon="11.4092217"><ele>222.5</ele><time>2026-04-26T09:34:17.297Z</time></trkpt><trkpt lat="42.9845517" lon="11.409145"><ele>222.0</ele><time>2026-04-26T09:34:18.298Z</time></trkpt><trkpt lat="42.9844283" lon="11.40906"><ele>221.5</ele><time>2026-04-26T09:34:19.296Z</time></trkpt><trkpt lat="42.98431" lon="11.4089667"><ele>221.0</ele><time>2026-04-26T09:34:20.297Z</time></trkpt><trkpt lat="42.9841967" lon="11.40887"><ele>218.0</ele><time>2026-04-26T09:34:21.296Z</time></trkpt><trkpt lat="42.9840817" lon="11.4087783"><ele>215.0</ele><time>2026-04-26T09:34:22.295Z</time></trkpt><trkpt lat="42.9839717" lon="11.408685"><ele>212.0</ele><time>2026-04-26T09:34:23.295Z</time></trkpt><trkpt lat="42.9838583" lon="11.4085917"><ele>209.0</ele><time>2026-04-26T09:34:24.299Z</time></trkpt><trkpt lat="42.9837467" lon="11.4084967"><ele>209.0</ele><time>2026-04-26T09:34:25.296Z</time></trkpt><trkpt lat="42.9836333" lon="11.4084"><ele>209.0</ele><time>2026-04-26T09:34:26.298Z</time></trkpt><trkpt lat="42.98352" lon="11.4083"><ele>209.0</ele><time>2026-04-26T09:34:27.299Z</time></trkpt><trkpt lat="42.9834067" lon="11.4082"><ele>209.0</ele><time>2026-04-26T09:34:28.295Z</time></trkpt><trkpt lat="42.9832917" lon="11.4081033"><ele>209.5</ele><time>2026-04-26T09:34:29.296Z</time></trkpt><trkpt lat="42.983175" lon="11.40801"><ele>210.0</ele><time>2026-04-26T09:34:30.296Z</time></trkpt><trkpt lat="42.9830617" lon="11.40792"><ele>210.5</ele><time>2026-04-26T09:34:31.297Z</time></trkpt><trkpt lat="42.9829533" lon="11.407835"><ele>211.0</ele><time>2026-04-26T09:34:32.297Z</time></trkpt><trkpt lat="42.9828517" lon="11.4077533"><ele>210.0</ele><time>2026-04-26T09:34:33.299Z</time></trkpt><trkpt lat="42.9827567" lon="11.4076767"><ele>209.0</ele><time>2026-04-26T09:34:34.295Z</time></trkpt><trkpt lat="42.98267" lon="11.4076067"><ele>208.0</ele><time>2026-04-26T09:34:35.295Z</time></trkpt><trkpt lat="42.98259" lon="11.4075517"><ele>207.0</ele><time>2026-04-26T09:34:36.295Z</time></trkpt><trkpt lat="42.9825167" lon="11.4075117"><ele>206.0</ele><time>2026-04-26T09:34:37.295Z</time></trkpt><trkpt lat="42.9823967" lon="11.4075117"><ele>206.0</ele><time>2026-04-26T09:34:39.295Z</time></trkpt><trkpt lat="42.9823117" lon="11.4076567"><ele>206.0</ele><time>2026-04-26T09:34:41.297Z</time></trkpt><trkpt lat="42.9822833" lon="11.4077733"><ele>206.0</ele><time>2026-04-26T09:34:42.295Z</time></trkpt><trkpt lat="42.9822517" lon="11.4079033"><ele>206.0</ele><time>2026-04-26T09:34:43.298Z</time></trkpt><trkpt lat="42.982215" lon="11.4080217"><ele>206.0</ele><time>2026-04-26T09:34:44.297Z</time></trkpt><trkpt lat="42.9821733" lon="11.4081467"><ele>207.0</ele><time>2026-04-26T09:34:45.295Z</time></trkpt><trkpt lat="42.982125" lon="11.4082833"><ele>208.0</ele><time>2026-04-26T09:34:46.295Z</time></trkpt><trkpt lat="42.9820617" lon="11.4084267"><ele>209.0</ele><time>2026-04-26T09:34:47.301Z</time></trkpt><trkpt lat="42.981985" lon="11.4085683"><ele>210.0</ele><time>2026-04-26T09:34:48.296Z</time></trkpt><trkpt lat="42.9818917" lon="11.4087"><ele>210.0</ele><time>2026-04-26T09:34:49.296Z</time></trkpt><trkpt lat="42.9817833" lon="11.4088183"><ele>210.0</ele><time>2026-04-26T09:34:50.296Z</time></trkpt><trkpt lat="42.9816583" lon="11.4089133"><ele>210.0</ele><time>2026-04-26T09:34:51.296Z</time></trkpt><trkpt lat="42.9815267" lon="11.40898"><ele>210.0</ele><time>2026-04-26T09:34:52.296Z</time></trkpt><trkpt lat="42.9813917" lon="11.40902"><ele>211.25</ele><time>2026-04-26T09:34:53.296Z</time></trkpt><trkpt lat="42.9812583" lon="11.4090433"><ele>212.5</ele><time>2026-04-26T09:34:54.298Z</time></trkpt><trkpt lat="42.9811283" lon="11.4090633"><ele>213.75</ele><time>2026-04-26T09:34:55.299Z</time></trkpt><trkpt lat="42.980995" lon="11.409085"><ele>215.0</ele><time>2026-04-26T09:34:56.298Z</time></trkpt><trkpt lat="42.9808617" lon="11.40911"><ele>215.5</ele><time>2026-04-26T09:34:57.299Z</time></trkpt><trkpt lat="42.9807333" lon="11.4091467"><ele>216.0</ele><time>2026-04-26T09:34:58.299Z</time></trkpt><trkpt lat="42.98061" lon="11.4091717"><ele>216.5</ele><time>2026-04-26T09:34:59.297Z</time></trkpt><trkpt lat="42.9804917" lon="11.4092017"><ele>217.0</ele><time>2026-04-26T09:35:00.298Z</time></trkpt><trkpt lat="42.9803767" lon="11.409235"><ele>217.0</ele><time>2026-04-26T09:35:01.299Z</time></trkpt><trkpt lat="42.9802617" lon="11.409275"><ele>217.0</ele><time>2026-04-26T09:35:02.298Z</time></trkpt><trkpt lat="42.980145" lon="11.4093167"><ele>217.0</ele><time>2026-04-26T09:35:03.299Z</time></trkpt><trkpt lat="42.980025" lon="11.409335"><ele>217.0</ele><time>2026-04-26T09:35:04.298Z</time></trkpt><trkpt lat="42.9798983" lon="11.4093317"><ele>215.25</ele><time>2026-04-26T09:35:05.298Z</time></trkpt><trkpt lat="42.97977" lon="11.4093133"><ele>213.5</ele><time>2026-04-26T09:35:06.299Z</time></trkpt><trkpt lat="42.9796467" lon="11.409295"><ele>211.75</ele><time>2026-04-26T09:35:07.297Z</time></trkpt><trkpt lat="42.9795267" lon="11.40928"><ele>210.0</ele><time>2026-04-26T09:35:08.298Z</time></trkpt><trkpt lat="42.9794067" lon="11.4092683"><ele>210.0</ele><time>2026-04-26T09:35:09.295Z</time></trkpt><trkpt lat="42.9792883" lon="11.40927"><ele>210.0</ele><time>2026-04-26T09:35:10.299Z</time></trkpt><trkpt lat="42.9791717" lon="11.4092917"><ele>210.0</ele><time>2026-04-26T09:35:11.299Z</time></trkpt><trkpt lat="42.979055" lon="11.4093483"><ele>210.0</ele><time>2026-04-26T09:35:12.299Z</time></trkpt><trkpt lat="42.97894" lon="11.4093983"><ele>207.5</ele><time>2026-04-26T09:35:13.299Z</time></trkpt><trkpt lat="42.9788267" lon="11.4094417"><ele>205.0</ele><time>2026-04-26T09:35:14.301Z</time></trkpt><trkpt lat="42.9787167" lon="11.40947"><ele>202.5</ele><time>2026-04-26T09:35:15.299Z</time></trkpt><trkpt lat="42.9786017" lon="11.4094733"><ele>200.0</ele><time>2026-04-26T09:35:16.298Z</time></trkpt><trkpt lat="42.9784833" lon="11.4094467"><ele>200.0</ele><time>2026-04-26T09:35:17.296Z</time></trkpt><trkpt lat="42.9783617" lon="11.4093967"><ele>200.0</ele><time>2026-04-26T09:35:18.296Z</time></trkpt><trkpt lat="42.978235" lon="11.409345"><ele>200.0</ele><time>2026-04-26T09:35:19.297Z</time></trkpt><trkpt lat="42.9781083" lon="11.4092867"><ele>200.0</ele><time>2026-04-26T09:35:20.298Z</time></trkpt><trkpt lat="42.9779833" lon="11.4092283"><ele>197.75</ele><time>2026-04-26T09:35:21.295Z</time></trkpt><trkpt lat="42.977855" lon="11.40917"><ele>195.5</ele><time>2026-04-26T09:35:22.295Z</time></trkpt><trkpt lat="42.9777217" lon="11.4091083"><ele>193.25</ele><time>2026-04-26T09:35:23.296Z</time></trkpt><trkpt lat="42.977595" lon="11.409045"><ele>191.0</ele><time>2026-04-26T09:35:24.3Z</time></trkpt><trkpt lat="42.9774683" lon="11.40897"><ele>189.25</ele><time>2026-04-26T09:35:25.299Z</time></trkpt><trkpt lat="42.9773433" lon="11.4088983"><ele>187.5</ele><time>2026-04-26T09:35:26.298Z</time></trkpt><trkpt lat="42.97722" lon="11.4088233"><ele>185.75</ele><time>2026-04-26T09:35:27.298Z</time></trkpt><trkpt lat="42.9770983" lon="11.4087433"><ele>184.0</ele><time>2026-04-26T09:35:28.299Z</time></trkpt><trkpt lat="42.9769817" lon="11.408675"><ele>182.6</ele><time>2026-04-26T09:35:29.299Z</time></trkpt><trkpt lat="42.9768717" lon="11.40861"><ele>181.2</ele><time>2026-04-26T09:35:30.3Z</time></trkpt><trkpt lat="42.9767683" lon="11.40856"><ele>179.79999999999998</ele><time>2026-04-26T09:35:31.299Z</time></trkpt><trkpt lat="42.976675" lon="11.4085317"><ele>178.39999999999998</ele><time>2026-04-26T09:35:32.298Z</time></trkpt><trkpt lat="42.976585" lon="11.4085267"><ele>177.0</ele><time>2026-04-26T09:35:33.299Z</time></trkpt><trkpt lat="42.9764933" lon="11.408545"><ele>176.6</ele><time>2026-04-26T09:35:34.298Z</time></trkpt><trkpt lat="42.97642" lon="11.408615"><ele>176.2</ele><time>2026-04-26T09:35:35.299Z</time></trkpt><trkpt lat="42.97636" lon="11.4087167"><ele>175.8</ele><time>2026-04-26T09:35:36.295Z</time></trkpt><trkpt lat="42.9763233" lon="11.40883"><ele>175.4</ele><time>2026-04-26T09:35:37.299Z</time></trkpt><trkpt lat="42.9763" lon="11.408955"><ele>175.0</ele><time>2026-04-26T09:35:38.299Z</time></trkpt><trkpt lat="42.9763083" lon="11.4091117"><ele>175.0</ele><time>2026-04-26T09:35:39.3Z</time></trkpt><trkpt lat="42.976285" lon="11.4092633"><ele>175.0</ele><time>2026-04-26T09:35:40.298Z</time></trkpt><trkpt lat="42.97625" lon="11.4094083"><ele>175.0</ele><time>2026-04-26T09:35:41.299Z</time></trkpt><trkpt lat="42.9762" lon="11.4095517"><ele>175.0</ele><time>2026-04-26T09:35:42.3Z</time></trkpt><trkpt lat="42.9761317" lon="11.4096833"><ele>176.0</ele><time>2026-04-26T09:35:43.298Z</time></trkpt><trkpt lat="42.9760517" lon="11.4097967"><ele>177.0</ele><time>2026-04-26T09:35:44.302Z</time></trkpt><trkpt lat="42.9759633" lon="11.40989"><ele>178.0</ele><time>2026-04-26T09:35:45.298Z</time></trkpt><trkpt lat="42.9758617" lon="11.4099617"><ele>179.0</ele><time>2026-04-26T09:35:46.298Z</time></trkpt><trkpt lat="42.9757583" lon="11.4100233"><ele>176.0</ele><time>2026-04-26T09:35:47.298Z</time></trkpt><trkpt lat="42.975655" lon="11.41008"><ele>173.0</ele><time>2026-04-26T09:35:48.299Z</time></trkpt><trkpt lat="42.9755517" lon="11.4101333"><ele>170.0</ele><time>2026-04-26T09:35:49.298Z</time></trkpt><trkpt lat="42.97545" lon="11.4101983"><ele>167.0</ele><time>2026-04-26T09:35:50.3Z</time></trkpt><trkpt lat="42.97536" lon="11.41028"><ele>164.0</ele><time>2026-04-26T09:35:51.298Z</time></trkpt><trkpt lat="42.9752883" lon="11.4103783"><ele>164.6</ele><time>2026-04-26T09:35:52.299Z</time></trkpt><trkpt lat="42.97523" lon="11.4104933"><ele>165.2</ele><time>2026-04-26T09:35:53.296Z</time></trkpt><trkpt lat="42.9751817" lon="11.41062"><ele>165.79999999999998</ele><time>2026-04-26T09:35:54.299Z</time></trkpt><trkpt lat="42.975145" lon="11.410755"><ele>166.39999999999998</ele><time>2026-04-26T09:35:55.299Z</time></trkpt><trkpt lat="42.9751083" lon="11.4108883"><ele>167.0</ele><time>2026-04-26T09:35:56.298Z</time></trkpt><trkpt lat="42.975055" lon="11.4110083"><ele>164.79999999999998</ele><time>2026-04-26T09:35:57.298Z</time></trkpt><trkpt lat="42.9749917" lon="11.411115"><ele>162.6</ele><time>2026-04-26T09:35:58.295Z</time></trkpt><trkpt lat="42.9749183" lon="11.411215"><ele>160.39999999999998</ele><time>2026-04-26T09:35:59.296Z</time></trkpt><trkpt lat="42.9748417" lon="11.4113117"><ele>158.2</ele><time>2026-04-26T09:36:00.295Z</time></trkpt><trkpt lat="42.97476" lon="11.4114117"><ele>156.0</ele><time>2026-04-26T09:36:01.298Z</time></trkpt><trkpt lat="42.9746717" lon="11.4115167"><ele>156.0</ele><time>2026-04-26T09:36:02.3Z</time></trkpt><trkpt lat="42.9745817" lon="11.4116283"><ele>156.0</ele><time>2026-04-26T09:36:03.299Z</time></trkpt><trkpt lat="42.9744883" lon="11.4117433"><ele>156.0</ele><time>2026-04-26T09:36:04.297Z</time></trkpt><trkpt lat="42.97439" lon="11.411865"><ele>156.0</ele><time>2026-04-26T09:36:05.299Z</time></trkpt><trkpt lat="42.974285" lon="11.4119883"><ele>152.66666666666666</ele><time>2026-04-26T09:36:06.296Z</time></trkpt><trkpt lat="42.9741717" lon="11.4121217"><ele>149.33333333333331</ele><time>2026-04-26T09:36:07.299Z</time></trkpt><trkpt lat="42.97405" lon="11.412265"><ele>146.0</ele><time>2026-04-26T09:36:08.299Z</time></trkpt><trkpt lat="42.97393" lon="11.4124167"><ele>146.0</ele><time>2026-04-26T09:36:09.298Z</time></trkpt><trkpt lat="42.9738067" lon="11.4125733"><ele>146.0</ele><time>2026-04-26T09:36:10.298Z</time></trkpt><trkpt lat="42.9736867" lon="11.4127233"><ele>146.0</ele><time>2026-04-26T09:36:11.299Z</time></trkpt><trkpt lat="42.973565" lon="11.4128717"><ele>144.33333333333331</ele><time>2026-04-26T09:36:12.299Z</time></trkpt><trkpt lat="42.9734417" lon="11.4130267"><ele>142.66666666666666</ele><time>2026-04-26T09:36:13.299Z</time></trkpt><trkpt lat="42.9733183" lon="11.4131817"><ele>141.0</ele><time>2026-04-26T09:36:14.298Z</time></trkpt><trkpt lat="42.9731883" lon="11.413345"><ele>139.66666666666666</ele><time>2026-04-26T09:36:15.299Z</time></trkpt><trkpt lat="42.9730583" lon="11.4135083"><ele>138.33333333333331</ele><time>2026-04-26T09:36:16.3Z</time></trkpt><trkpt lat="42.9729283" lon="11.41367"><ele>137.0</ele><time>2026-04-26T09:36:17.299Z</time></trkpt><trkpt lat="42.972805" lon="11.4138267"><ele>134.33333333333331</ele><time>2026-04-26T09:36:18.299Z</time></trkpt><trkpt lat="42.9726867" lon="11.41398"><ele>131.66666666666666</ele><time>2026-04-26T09:36:19.299Z</time></trkpt><trkpt lat="42.9725717" lon="11.4141317"><ele>129.0</ele><time>2026-04-26T09:36:20.298Z</time></trkpt><trkpt lat="42.9724667" lon="11.41428"><ele>129.0</ele><time>2026-04-26T09:36:21.298Z</time></trkpt><trkpt lat="42.9723583" lon="11.414425"><ele>129.0</ele><time>2026-04-26T09:36:22.298Z</time></trkpt><trkpt lat="42.9722483" lon="11.414565"><ele>129.0</ele><time>2026-04-26T09:36:23.298Z</time></trkpt><trkpt lat="42.972135" lon="11.4146933"><ele>129.0</ele><time>2026-04-26T09:36:24.298Z</time></trkpt><trkpt lat="42.9720067" lon="11.4148133"><ele>126.66666666666666</ele><time>2026-04-26T09:36:25.298Z</time></trkpt><trkpt lat="42.9718667" lon="11.4149233"><ele>124.33333333333333</ele><time>2026-04-26T09:36:26.299Z</time></trkpt><trkpt lat="42.9717183" lon="11.415025"><ele>122.0</ele><time>2026-04-26T09:36:27.299Z</time></trkpt><trkpt lat="42.971565" lon="11.4151217"><ele>121.66666666666666</ele><time>2026-04-26T09:36:28.299Z</time></trkpt><trkpt lat="42.971415" lon="11.4152133"><ele>121.33333333333334</ele><time>2026-04-26T09:36:29.299Z</time></trkpt><trkpt lat="42.971265" lon="11.4153017"><ele>121.0</ele><time>2026-04-26T09:36:30.299Z</time></trkpt><trkpt lat="42.9711183" lon="11.4153867"><ele>121.0</ele><time>2026-04-26T09:36:31.298Z</time></trkpt><trkpt lat="42.9709717" lon="11.41547"><ele>121.0</ele><time>2026-04-26T09:36:32.298Z</time></trkpt><trkpt lat="42.9708267" lon="11.4155533"><ele>121.0</ele><time>2026-04-26T09:36:33.298Z</time></trkpt><trkpt lat="42.97068" lon="11.4156383"><ele>119.0</ele><time>2026-04-26T09:36:34.299Z</time></trkpt><trkpt lat="42.970535" lon="11.41572"><ele>117.0</ele><time>2026-04-26T09:36:35.298Z</time></trkpt><trkpt lat="42.9703917" lon="11.4158017"><ele>115.0</ele><time>2026-04-26T09:36:36.299Z</time></trkpt><trkpt lat="42.9702467" lon="11.4158833"><ele>115.0</ele><time>2026-04-26T09:36:37.298Z</time></trkpt><trkpt lat="42.9701017" lon="11.415965"><ele>115.0</ele><time>2026-04-26T09:36:38.299Z</time></trkpt><trkpt lat="42.9699517" lon="11.41605"><ele>115.0</ele><time>2026-04-26T09:36:39.298Z</time></trkpt><trkpt lat="42.969805" lon="11.41613"><ele>114.5</ele><time>2026-04-26T09:36:40.297Z</time></trkpt><trkpt lat="42.9696633" lon="11.416215"><ele>114.0</ele><time>2026-04-26T09:36:41.298Z</time></trkpt><trkpt lat="42.96953" lon="11.4162867"><ele>113.5</ele><time>2026-04-26T09:36:42.3Z</time></trkpt><trkpt lat="42.969405" lon="11.4163517"><ele>113.0</ele><time>2026-04-26T09:36:43.298Z</time></trkpt><trkpt lat="42.9692883" lon="11.41642"><ele>112.60000000000001</ele><time>2026-04-26T09:36:44.3Z</time></trkpt><trkpt lat="42.9691817" lon="11.4164933"><ele>112.20000000000002</ele><time>2026-04-26T09:36:45.3Z</time></trkpt><trkpt lat="42.9690817" lon="11.4165717"><ele>111.8</ele><time>2026-04-26T09:36:46.3Z</time></trkpt><trkpt lat="42.9689917" lon="11.41665"><ele>111.4</ele><time>2026-04-26T09:36:47.298Z</time></trkpt><trkpt lat="42.968905" lon="11.416735"><ele>111.0</ele><time>2026-04-26T09:36:48.298Z</time></trkpt><trkpt lat="42.9688317" lon="11.4168317"><ele>111.0</ele><time>2026-04-26T09:36:49.298Z</time></trkpt><trkpt lat="42.9687817" lon="11.4169517"><ele>111.0</ele><time>2026-04-26T09:36:50.298Z</time></trkpt><trkpt lat="42.9687583" lon="11.4170917"><ele>111.0</ele><time>2026-04-26T09:36:51.298Z</time></trkpt><trkpt lat="42.9687617" lon="11.4172417"><ele>111.0</ele><time>2026-04-26T09:36:52.298Z</time></trkpt><trkpt lat="42.968795" lon="11.417395"><ele>111.0</ele><time>2026-04-26T09:36:53.299Z</time></trkpt><trkpt lat="42.9688417" lon="11.4175533"><ele>111.4</ele><time>2026-04-26T09:36:54.299Z</time></trkpt><trkpt lat="42.9688883" lon="11.4177083"><ele>111.8</ele><time>2026-04-26T09:36:55.298Z</time></trkpt><trkpt lat="42.96892" lon="11.41785"><ele>112.20000000000002</ele><time>2026-04-26T09:36:56.298Z</time></trkpt><trkpt lat="42.9689283" lon="11.41799"><ele>112.60000000000001</ele><time>2026-04-26T09:36:57.299Z</time></trkpt><trkpt lat="42.9689117" lon="11.4181283"><ele>113.0</ele><time>2026-04-26T09:36:58.299Z</time></trkpt><trkpt lat="42.9688667" lon="11.41826"><ele>116.5</ele><time>2026-04-26T09:36:59.298Z</time></trkpt><trkpt lat="42.9688017" lon="11.4183783"><ele>120.0</ele><time>2026-04-26T09:37:00.298Z</time></trkpt><trkpt lat="42.96871" lon="11.4184833"><ele>123.5</ele><time>2026-04-26T09:37:01.299Z</time></trkpt><trkpt lat="42.96862" lon="11.4185933"><ele>127.0</ele><time>2026-04-26T09:37:02.299Z</time></trkpt><trkpt lat="42.96853" lon="11.4187017"><ele>129.25</ele><time>2026-04-26T09:37:03.294Z</time></trkpt><trkpt lat="42.9684567" lon="11.41882"><ele>131.5</ele><time>2026-04-26T09:37:04.299Z</time></trkpt><trkpt lat="42.9684067" lon="11.4189533"><ele>133.75</ele><time>2026-04-26T09:37:05.3Z</time></trkpt><trkpt lat="42.9683717" lon="11.419105"><ele>136.0</ele><time>2026-04-26T09:37:06.298Z</time></trkpt><trkpt lat="42.9683483" lon="11.419265"><ele>136.0</ele><time>2026-04-26T09:37:07.299Z</time></trkpt><trkpt lat="42.9683333" lon="11.4194333"><ele>136.0</ele><time>2026-04-26T09:37:08.296Z</time></trkpt><trkpt lat="42.9683233" lon="11.4196017"><ele>136.0</ele><time>2026-04-26T09:37:09.298Z</time></trkpt><trkpt lat="42.9683217" lon="11.4197717"><ele>136.0</ele><time>2026-04-26T09:37:10.298Z</time></trkpt><trkpt lat="42.9683333" lon="11.4199483"><ele>136.5</ele><time>2026-04-26T09:37:11.295Z</time></trkpt><trkpt lat="42.9683633" lon="11.4201317"><ele>137.0</ele><time>2026-04-26T09:37:12.299Z</time></trkpt><trkpt lat="42.9684017" lon="11.4203283"><ele>137.5</ele><time>2026-04-26T09:37:13.299Z</time></trkpt><trkpt lat="42.9684517" lon="11.4205367"><ele>138.0</ele><time>2026-04-26T09:37:14.299Z</time></trkpt><trkpt lat="42.9685017" lon="11.4207467"><ele>138.0</ele><time>2026-04-26T09:37:15.298Z</time></trkpt><trkpt lat="42.968545" lon="11.4209567"><ele>138.0</ele><time>2026-04-26T09:37:16.299Z</time></trkpt><trkpt lat="42.96859" lon="11.4211617"><ele>138.0</ele><time>2026-04-26T09:37:17.297Z</time></trkpt><trkpt lat="42.968635" lon="11.4213633"><ele>138.66666666666666</ele><time>2026-04-26T09:37:18.296Z</time></trkpt><trkpt lat="42.96868" lon="11.4215617"><ele>139.33333333333331</ele><time>2026-04-26T09:37:19.295Z</time></trkpt><trkpt lat="42.9687283" lon="11.4217567"><ele>140.0</ele><time>2026-04-26T09:37:20.296Z</time></trkpt><trkpt lat="42.96877" lon="11.4219533"><ele>140.0</ele><time>2026-04-26T09:37:21.295Z</time></trkpt><trkpt lat="42.9688067" lon="11.422155"><ele>140.0</ele><time>2026-04-26T09:37:22.296Z</time></trkpt><trkpt lat="42.9688333" lon="11.4223583"><ele>140.0</ele><time>2026-04-26T09:37:23.298Z</time></trkpt><trkpt lat="42.9688433" lon="11.42256"><ele>140.0</ele><time>2026-04-26T09:37:24.297Z</time></trkpt><trkpt lat="42.9688417" lon="11.42276"><ele>140.0</ele><time>2026-04-26T09:37:25.299Z</time></trkpt><trkpt lat="42.9688267" lon="11.4229583"><ele>140.0</ele><time>2026-04-26T09:37:26.299Z</time></trkpt><trkpt lat="42.96881" lon="11.4231567"><ele>140.0</ele><time>2026-04-26T09:37:27.295Z</time></trkpt><trkpt lat="42.96879" lon="11.423355"><ele>140.5</ele><time>2026-04-26T09:37:28.297Z</time></trkpt><trkpt lat="42.9687633" lon="11.423555"><ele>141.0</ele><time>2026-04-26T09:37:29.299Z</time></trkpt><trkpt lat="42.9687317" lon="11.4237533"><ele>141.5</ele><time>2026-04-26T09:37:30.299Z</time></trkpt><trkpt lat="42.9687" lon="11.4239483"><ele>142.0</ele><time>2026-04-26T09:37:31.297Z</time></trkpt><trkpt lat="42.968655" lon="11.424135"><ele>142.0</ele><time>2026-04-26T09:37:32.299Z</time></trkpt><trkpt lat="42.9686" lon="11.4243117"><ele>142.0</ele><time>2026-04-26T09:37:33.295Z</time></trkpt><trkpt lat="42.96854" lon="11.42448"><ele>142.0</ele><time>2026-04-26T09:37:34.296Z</time></trkpt><trkpt lat="42.96848" lon="11.4246483"><ele>142.0</ele><time>2026-04-26T09:37:35.297Z</time></trkpt><trkpt lat="42.9684183" lon="11.424815"><ele>138.75</ele><time>2026-04-26T09:37:36.296Z</time></trkpt><trkpt lat="42.968355" lon="11.4249767"><ele>135.5</ele><time>2026-04-26T09:37:37.297Z</time></trkpt><trkpt lat="42.968295" lon="11.4251383"><ele>132.25</ele><time>2026-04-26T09:37:38.298Z</time></trkpt><trkpt lat="42.9682383" lon="11.4252933"><ele>129.0</ele><time>2026-04-26T09:37:39.295Z</time></trkpt><trkpt lat="42.9681883" lon="11.4254433"><ele>128.5</ele><time>2026-04-26T09:37:40.297Z</time></trkpt><trkpt lat="42.96814" lon="11.4255883"><ele>128.0</ele><time>2026-04-26T09:37:41.299Z</time></trkpt><trkpt lat="42.9680917" lon="11.42573"><ele>127.5</ele><time>2026-04-26T09:37:42.299Z</time></trkpt><trkpt lat="42.968045" lon="11.425875"><ele>127.0</ele><time>2026-04-26T09:37:43.298Z</time></trkpt><trkpt lat="42.968" lon="11.4260183"><ele>127.0</ele><time>2026-04-26T09:37:44.3Z</time></trkpt><trkpt lat="42.9679517" lon="11.426155"><ele>126.99999999999999</ele><time>2026-04-26T09:37:45.299Z</time></trkpt><trkpt lat="42.9679" lon="11.4262833"><ele>126.99999999999999</ele><time>2026-04-26T09:37:46.298Z</time></trkpt><trkpt lat="42.96784" lon="11.4264"><ele>127.0</ele><time>2026-04-26T09:37:47.298Z</time></trkpt><trkpt lat="42.9677783" lon="11.4265033"><ele>127.0</ele><time>2026-04-26T09:37:48.3Z</time></trkpt><trkpt lat="42.9677133" lon="11.4265983"><ele>128.14285714285714</ele><time>2026-04-26T09:37:49.298Z</time></trkpt><trkpt lat="42.96765" lon="11.4266867"><ele>129.28571428571428</ele><time>2026-04-26T09:37:50.299Z</time></trkpt><trkpt lat="42.9675883" lon="11.426765"><ele>130.42857142857142</ele><time>2026-04-26T09:37:51.299Z</time></trkpt><trkpt lat="42.96753" lon="11.4268283"><ele>131.57142857142856</ele><time>2026-04-26T09:37:52.299Z</time></trkpt><trkpt lat="42.96747" lon="11.42686"><ele>132.7142857142857</ele><time>2026-04-26T09:37:53.3Z</time></trkpt><trkpt lat="42.9674067" lon="11.426855"><ele>133.85714285714286</ele><time>2026-04-26T09:37:54.3Z</time></trkpt><trkpt lat="42.9673517" lon="11.4268117"><ele>135.0</ele><time>2026-04-26T09:37:55.3Z</time></trkpt><trkpt lat="42.9673017" lon="11.4267467"><ele>132.33333333333334</ele><time>2026-04-26T09:37:56.3Z</time></trkpt><trkpt lat="42.9672467" lon="11.4266767"><ele>129.66666666666666</ele><time>2026-04-26T09:37:57.299Z</time></trkpt><trkpt lat="42.967185" lon="11.426605"><ele>127.0</ele><time>2026-04-26T09:37:58.299Z</time></trkpt><trkpt lat="42.9671117" lon="11.42654"><ele>124.33333333333333</ele><time>2026-04-26T09:37:59.298Z</time></trkpt><trkpt lat="42.9670317" lon="11.4264767"><ele>121.66666666666666</ele><time>2026-04-26T09:38:00.299Z</time></trkpt><trkpt lat="42.966945" lon="11.4264183"><ele>119.0</ele><time>2026-04-26T09:38:01.298Z</time></trkpt><trkpt lat="42.96685" lon="11.4263667"><ele>119.0</ele><time>2026-04-26T09:38:02.299Z</time></trkpt><trkpt lat="42.9667533" lon="11.426325"><ele>119.0</ele><time>2026-04-26T09:38:03.299Z</time></trkpt><trkpt lat="42.966655" lon="11.42629"><ele>119.0</ele><time>2026-04-26T09:38:04.298Z</time></trkpt><trkpt lat="42.9665567" lon="11.42626"><ele>119.0</ele><time>2026-04-26T09:38:05.299Z</time></trkpt><trkpt lat="42.9664583" lon="11.4262333"><ele>119.0</ele><time>2026-04-26T09:38:06.299Z</time></trkpt><trkpt lat="42.9663617" lon="11.42621"><ele>117.80000000000001</ele><time>2026-04-26T09:38:07.298Z</time></trkpt><trkpt lat="42.9662617" lon="11.4261883"><ele>116.60000000000001</ele><time>2026-04-26T09:38:08.299Z</time></trkpt><trkpt lat="42.9661617" lon="11.426165"><ele>115.4</ele><time>2026-04-26T09:38:09.298Z</time></trkpt><trkpt lat="42.9660583" lon="11.4261433"><ele>114.2</ele><time>2026-04-26T09:38:10.299Z</time></trkpt><trkpt lat="42.965955" lon="11.4261183"><ele>113.0</ele><time>2026-04-26T09:38:11.3Z</time></trkpt><trkpt lat="42.9658517" lon="11.426095"><ele>112.2</ele><time>2026-04-26T09:38:12.299Z</time></trkpt><trkpt lat="42.9657483" lon="11.42607"><ele>111.4</ele><time>2026-04-26T09:38:13.299Z</time></trkpt><trkpt lat="42.9656467" lon="11.4260483"><ele>110.60000000000001</ele><time>2026-04-26T09:38:14.299Z</time></trkpt><trkpt lat="42.9655467" lon="11.4260267"><ele>109.80000000000001</ele><time>2026-04-26T09:38:15.299Z</time></trkpt><trkpt lat="42.965445" lon="11.426"><ele>109.0</ele><time>2026-04-26T09:38:16.298Z</time></trkpt><trkpt lat="42.9653433" lon="11.42598"><ele>109.0</ele><time>2026-04-26T09:38:17.299Z</time></trkpt><trkpt lat="42.9652417" lon="11.4259617"><ele>109.0</ele><time>2026-04-26T09:38:18.299Z</time></trkpt><trkpt lat="42.9651483" lon="11.4259417"><ele>109.0</ele><time>2026-04-26T09:38:19.297Z</time></trkpt><trkpt lat="42.9650583" lon="11.4259167"><ele>109.0</ele><time>2026-04-26T09:38:20.297Z</time></trkpt><trkpt lat="42.96497" lon="11.4258917"><ele>109.0</ele><time>2026-04-26T09:38:21.298Z</time></trkpt><trkpt lat="42.96488" lon="11.425865"><ele>108.0</ele><time>2026-04-26T09:38:22.296Z</time></trkpt><trkpt lat="42.9647883" lon="11.42584"><ele>107.0</ele><time>2026-04-26T09:38:23.298Z</time></trkpt><trkpt lat="42.9647" lon="11.4258167"><ele>106.0</ele><time>2026-04-26T09:38:24.298Z</time></trkpt><trkpt lat="42.96461" lon="11.4257933"><ele>105.0</ele><time>2026-04-26T09:38:25.298Z</time></trkpt><trkpt lat="42.9645183" lon="11.4257717"><ele>104.0</ele><time>2026-04-26T09:38:26.298Z</time></trkpt><trkpt lat="42.964425" lon="11.4257567"><ele>104.0</ele><time>2026-04-26T09:38:27.298Z</time></trkpt><trkpt lat="42.9643317" lon="11.4257433"><ele>104.0</ele><time>2026-04-26T09:38:28.298Z</time></trkpt><trkpt lat="42.96424" lon="11.42573"><ele>104.0</ele><time>2026-04-26T09:38:29.298Z</time></trkpt><trkpt lat="42.9641483" lon="11.42572"><ele>104.0</ele><time>2026-04-26T09:38:30.298Z</time></trkpt><trkpt lat="42.9640567" lon="11.425715"><ele>104.0</ele><time>2026-04-26T09:38:31.299Z</time></trkpt><trkpt lat="42.9639633" lon="11.4257117"><ele>103.80000000000001</ele><time>2026-04-26T09:38:32.299Z</time></trkpt><trkpt lat="42.96387" lon="11.4257067"><ele>103.60000000000001</ele><time>2026-04-26T09:38:33.301Z</time></trkpt><trkpt lat="42.963775" lon="11.4257033"><ele>103.4</ele><time>2026-04-26T09:38:34.3Z</time></trkpt><trkpt lat="42.963675" lon="11.4256983"><ele>103.2</ele><time>2026-04-26T09:38:35.299Z</time></trkpt><trkpt lat="42.9635733" lon="11.425695"><ele>103.0</ele><time>2026-04-26T09:38:36.298Z</time></trkpt><trkpt lat="42.9634667" lon="11.4256917"><ele>102.75</ele><time>2026-04-26T09:38:37.297Z</time></trkpt><trkpt lat="42.9633567" lon="11.4256867"><ele>102.5</ele><time>2026-04-26T09:38:38.298Z</time></trkpt><trkpt lat="42.963245" lon="11.425685"><ele>102.25</ele><time>2026-04-26T09:38:39.3Z</time></trkpt><trkpt lat="42.96313" lon="11.4256817"><ele>102.0</ele><time>2026-04-26T09:38:40.295Z</time></trkpt><trkpt lat="42.9630067" lon="11.4256767"><ele>102.0</ele><time>2026-04-26T09:38:41.295Z</time></trkpt><trkpt lat="42.96287" lon="11.4256717"><ele>102.0</ele><time>2026-04-26T09:38:42.297Z</time></trkpt><trkpt lat="42.9627267" lon="11.4256683"><ele>102.0</ele><time>2026-04-26T09:38:43.3Z</time></trkpt><trkpt lat="42.96257" lon="11.425665"><ele>102.0</ele><time>2026-04-26T09:38:44.298Z</time></trkpt><trkpt lat="42.9624067" lon="11.4256617"><ele>101.33333333333334</ele><time>2026-04-26T09:38:45.299Z</time></trkpt><trkpt lat="42.9622367" lon="11.4256567"><ele>100.66666666666667</ele><time>2026-04-26T09:38:46.299Z</time></trkpt><trkpt lat="42.9620617" lon="11.4256517"><ele>100.0</ele><time>2026-04-26T09:38:47.296Z</time></trkpt><trkpt lat="42.9618783" lon="11.4256467"><ele>100.33333333333334</ele><time>2026-04-26T09:38:48.297Z</time></trkpt><trkpt lat="42.9616917" lon="11.4256367"><ele>100.66666666666666</ele><time>2026-04-26T09:38:49.298Z</time></trkpt><trkpt lat="42.9614983" lon="11.42563"><ele>101.0</ele><time>2026-04-26T09:38:50.295Z</time></trkpt><trkpt lat="42.96131" lon="11.42562"><ele>101.0</ele><time>2026-04-26T09:38:51.299Z</time></trkpt><trkpt lat="42.961125" lon="11.4256167"><ele>101.0</ele><time>2026-04-26T09:38:52.298Z</time></trkpt><trkpt lat="42.96095" lon="11.4256133"><ele>101.0</ele><time>2026-04-26T09:38:53.299Z</time></trkpt><trkpt lat="42.960785" lon="11.4256083"><ele>101.0</ele><time>2026-04-26T09:38:54.299Z</time></trkpt><trkpt lat="42.96062" lon="11.4256017"><ele>101.0</ele><time>2026-04-26T09:38:55.299Z</time></trkpt><trkpt lat="42.9604517" lon="11.4255967"><ele>101.0</ele><time>2026-04-26T09:38:56.3Z</time></trkpt><trkpt lat="42.960285" lon="11.4255883"><ele>101.0</ele><time>2026-04-26T09:38:57.299Z</time></trkpt><trkpt lat="42.9601167" lon="11.4255833"><ele>101.0</ele><time>2026-04-26T09:38:58.299Z</time></trkpt><trkpt lat="42.95995" lon="11.42558"><ele>101.0</ele><time>2026-04-26T09:38:59.3Z</time></trkpt><trkpt lat="42.9597833" lon="11.4255783"><ele>101.33333333333333</ele><time>2026-04-26T09:39:00.3Z</time></trkpt><trkpt lat="42.9596167" lon="11.4255767"><ele>101.66666666666666</ele><time>2026-04-26T09:39:01.298Z</time></trkpt><trkpt lat="42.9594517" lon="11.4255683"><ele>102.0</ele><time>2026-04-26T09:39:02.298Z</time></trkpt><trkpt lat="42.959285" lon="11.425565"><ele>102.0</ele><time>2026-04-26T09:39:03.295Z</time></trkpt><trkpt lat="42.9591183" lon="11.4255633"><ele>102.0</ele><time>2026-04-26T09:39:04.299Z</time></trkpt><trkpt lat="42.9589517" lon="11.42556"><ele>102.0</ele><time>2026-04-26T09:39:05.299Z</time></trkpt><trkpt lat="42.9587817" lon="11.425555"><ele>102.0</ele><time>2026-04-26T09:39:06.299Z</time></trkpt><trkpt lat="42.958615" lon="11.42555"><ele>102.0</ele><time>2026-04-26T09:39:07.298Z</time></trkpt><trkpt lat="42.9584467" lon="11.4255417"><ele>102.0</ele><time>2026-04-26T09:39:08.299Z</time></trkpt><trkpt lat="42.9582783" lon="11.4255333"><ele>103.66666666666666</ele><time>2026-04-26T09:39:09.298Z</time></trkpt><trkpt lat="42.9581133" lon="11.4255217"><ele>105.33333333333333</ele><time>2026-04-26T09:39:10.299Z</time></trkpt><trkpt lat="42.9579467" lon="11.4255117"><ele>107.0</ele><time>2026-04-26T09:39:11.298Z</time></trkpt><trkpt lat="42.9577833" lon="11.4255"><ele>107.0</ele><time>2026-04-26T09:39:12.299Z</time></trkpt><trkpt lat="42.9576233" lon="11.4254933"><ele>107.0</ele><time>2026-04-26T09:39:13.298Z</time></trkpt><trkpt lat="42.957465" lon="11.4254967"><ele>107.0</ele><time>2026-04-26T09:39:14.299Z</time></trkpt><trkpt lat="42.9573067" lon="11.4255117"><ele>109.66666666666666</ele><time>2026-04-26T09:39:15.298Z</time></trkpt><trkpt lat="42.957145" lon="11.4255333"><ele>112.33333333333334</ele><time>2026-04-26T09:39:16.298Z</time></trkpt><trkpt lat="42.95699" lon="11.42557"><ele>115.0</ele><time>2026-04-26T09:39:17.299Z</time></trkpt><trkpt lat="42.9568417" lon="11.4256183"><ele>117.0</ele><time>2026-04-26T09:39:18.298Z</time></trkpt><trkpt lat="42.9566933" lon="11.4256767"><ele>119.0</ele><time>2026-04-26T09:39:19.297Z</time></trkpt><trkpt lat="42.9565467" lon="11.425745"><ele>121.0</ele><time>2026-04-26T09:39:20.297Z</time></trkpt><trkpt lat="42.9563983" lon="11.4258183"><ele>121.0</ele><time>2026-04-26T09:39:21.297Z</time></trkpt><trkpt lat="42.9562433" lon="11.42589"><ele>121.0</ele><time>2026-04-26T09:39:22.295Z</time></trkpt><trkpt lat="42.9560883" lon="11.4259483"><ele>121.0</ele><time>2026-04-26T09:39:23.297Z</time></trkpt><trkpt lat="42.9559267" lon="11.4259883"><ele>123.33333333333334</ele><time>2026-04-26T09:39:24.296Z</time></trkpt><trkpt lat="42.9557667" lon="11.426015"><ele>125.66666666666666</ele><time>2026-04-26T09:39:25.296Z</time></trkpt><trkpt lat="42.9556067" lon="11.42603"><ele>128.0</ele><time>2026-04-26T09:39:26.298Z</time></trkpt><trkpt lat="42.9554467" lon="11.4260267"><ele>128.0</ele><time>2026-04-26T09:39:27.297Z</time></trkpt><trkpt lat="42.9552983" lon="11.4260033"><ele>128.0</ele><time>2026-04-26T09:39:28.298Z</time></trkpt><trkpt lat="42.9551633" lon="11.4259517"><ele>128.0</ele><time>2026-04-26T09:39:29.3Z</time></trkpt><trkpt lat="42.9550367" lon="11.4258783"><ele>128.0</ele><time>2026-04-26T09:39:30.3Z</time></trkpt><trkpt lat="42.954915" lon="11.42579"><ele>129.0</ele><time>2026-04-26T09:39:31.3Z</time></trkpt><trkpt lat="42.9548" lon="11.4256883"><ele>130.0</ele><time>2026-04-26T09:39:32.299Z</time></trkpt><trkpt lat="42.9546867" lon="11.425585"><ele>131.0</ele><time>2026-04-26T09:39:33.3Z</time></trkpt><trkpt lat="42.9545783" lon="11.4254867"><ele>132.0</ele><time>2026-04-26T09:39:34.301Z</time></trkpt><trkpt lat="42.9544733" lon="11.4253967"><ele>132.0</ele><time>2026-04-26T09:39:35.298Z</time></trkpt><trkpt lat="42.9543667" lon="11.4253167"><ele>132.0</ele><time>2026-04-26T09:39:36.3Z</time></trkpt><trkpt lat="42.9542567" lon="11.42525"><ele>132.0</ele><time>2026-04-26T09:39:37.299Z</time></trkpt><trkpt lat="42.9541417" lon="11.4251983"><ele>132.0</ele><time>2026-04-26T09:39:38.301Z</time></trkpt><trkpt lat="42.9540233" lon="11.4251667"><ele>133.25</ele><time>2026-04-26T09:39:39.299Z</time></trkpt><trkpt lat="42.9539017" lon="11.42515"><ele>134.5</ele><time>2026-04-26T09:39:40.299Z</time></trkpt><trkpt lat="42.95378" lon="11.425145"><ele>135.75</ele><time>2026-04-26T09:39:41.299Z</time></trkpt><trkpt lat="42.9536583" lon="11.4251367"><ele>137.0</ele><time>2026-04-26T09:39:42.299Z</time></trkpt><trkpt lat="42.95354" lon="11.42512"><ele>137.0</ele><time>2026-04-26T09:39:43.297Z</time></trkpt><trkpt lat="42.95343" lon="11.42509"><ele>137.0</ele><time>2026-04-26T09:39:44.298Z</time></trkpt><trkpt lat="42.9533317" lon="11.4250383"><ele>137.0</ele><time>2026-04-26T09:39:45.294Z</time></trkpt><trkpt lat="42.9532433" lon="11.4249667"><ele>137.0</ele><time>2026-04-26T09:39:46.298Z</time></trkpt><trkpt lat="42.9531683" lon="11.424895"><ele>137.0</ele><time>2026-04-26T09:39:47.298Z</time></trkpt><trkpt lat="42.9531" lon="11.4248317"><ele>137.83333333333331</ele><time>2026-04-26T09:39:48.294Z</time></trkpt><trkpt lat="42.9530317" lon="11.42478"><ele>138.66666666666666</ele><time>2026-04-26T09:39:49.295Z</time></trkpt><trkpt lat="42.9529667" lon="11.4247483"><ele>139.5</ele><time>2026-04-26T09:39:50.296Z</time></trkpt><trkpt lat="42.9528717" lon="11.424725"><ele>140.33333333333334</ele><time>2026-04-26T09:39:52.297Z</time></trkpt><trkpt lat="42.9528083" lon="11.4247267"><ele>141.16666666666669</ele><time>2026-04-26T09:39:54.296Z</time></trkpt><trkpt lat="42.952745" lon="11.4247333"><ele>142.0</ele><time>2026-04-26T09:42:20.298Z</time></trkpt><trkpt lat="42.95261" lon="11.42484"><ele>143.25</ele><time>2026-04-26T09:42:22.298Z</time></trkpt><trkpt lat="42.9525233" lon="11.42495"><ele>144.5</ele><time>2026-04-26T09:42:23.298Z</time></trkpt><trkpt lat="42.9524467" lon="11.4251067"><ele>145.75</ele><time>2026-04-26T09:42:24.299Z</time></trkpt><trkpt lat="42.9523867" lon="11.4252633"><ele>147.0</ele><time>2026-04-26T09:42:25.297Z</time></trkpt><trkpt lat="42.9523383" lon="11.4254183"><ele>147.0</ele><time>2026-04-26T09:42:26.299Z</time></trkpt><trkpt lat="42.9522983" lon="11.42556"><ele>147.0</ele><time>2026-04-26T09:42:27.298Z</time></trkpt><trkpt lat="42.95226" lon="11.4257017"><ele>147.0</ele><time>2026-04-26T09:42:28.299Z</time></trkpt><trkpt lat="42.9522267" lon="11.4258367"><ele>147.0</ele><time>2026-04-26T09:42:29.295Z</time></trkpt><trkpt lat="42.952195" lon="11.4259717"><ele>147.0</ele><time>2026-04-26T09:42:30.296Z</time></trkpt><trkpt lat="42.9521617" lon="11.42611"><ele>147.0</ele><time>2026-04-26T09:42:31.298Z</time></trkpt><trkpt lat="42.9521283" lon="11.426255"><ele>147.0</ele><time>2026-04-26T09:42:32.298Z</time></trkpt><trkpt lat="42.952095" lon="11.4264117"><ele>147.0</ele><time>2026-04-26T09:42:33.298Z</time></trkpt><trkpt lat="42.95206" lon="11.4265767"><ele>147.0</ele><time>2026-04-26T09:42:34.297Z</time></trkpt><trkpt lat="42.9520267" lon="11.4267467"><ele>147.25</ele><time>2026-04-26T09:42:35.298Z</time></trkpt><trkpt lat="42.9519967" lon="11.42692"><ele>147.5</ele><time>2026-04-26T09:42:36.299Z</time></trkpt><trkpt lat="42.95197" lon="11.4271033"><ele>147.75</ele><time>2026-04-26T09:42:37.298Z</time></trkpt><trkpt lat="42.9519467" lon="11.4272867"><ele>148.0</ele><time>2026-04-26T09:42:38.298Z</time></trkpt><trkpt lat="42.9519283" lon="11.4274717"><ele>149.0</ele><time>2026-04-26T09:42:39.298Z</time></trkpt><trkpt lat="42.95192" lon="11.4276667"><ele>150.0</ele><time>2026-04-26T09:42:40.298Z</time></trkpt><trkpt lat="42.9519183" lon="11.427875"><ele>151.0</ele><time>2026-04-26T09:42:41.297Z</time></trkpt><trkpt lat="42.9519333" lon="11.4280983"><ele>151.33333333333334</ele><time>2026-04-26T09:42:42.298Z</time></trkpt><trkpt lat="42.951965" lon="11.4283433"><ele>151.66666666666666</ele><time>2026-04-26T09:42:43.296Z</time></trkpt><trkpt lat="42.9520217" lon="11.4286017"><ele>152.0</ele><time>2026-04-26T09:42:44.298Z</time></trkpt><trkpt lat="42.952095" lon="11.4288633"><ele>153.33333333333331</ele><time>2026-04-26T09:42:45.297Z</time></trkpt><trkpt lat="42.9521867" lon="11.42912"><ele>154.66666666666666</ele><time>2026-04-26T09:42:46.299Z</time></trkpt><trkpt lat="42.9522833" lon="11.4293717"><ele>156.0</ele><time>2026-04-26T09:42:47.298Z</time></trkpt><trkpt lat="42.952375" lon="11.4296167"><ele>155.33333333333334</ele><time>2026-04-26T09:42:48.298Z</time></trkpt><trkpt lat="42.952465" lon="11.4298567"><ele>154.66666666666669</ele><time>2026-04-26T09:42:49.298Z</time></trkpt><trkpt lat="42.95255" lon="11.4300917"><ele>154.0</ele><time>2026-04-26T09:42:50.298Z</time></trkpt><trkpt lat="42.95263" lon="11.4303233"><ele>155.66666666666669</ele><time>2026-04-26T09:42:51.299Z</time></trkpt><trkpt lat="42.9527067" lon="11.4305567"><ele>157.33333333333334</ele><time>2026-04-26T09:42:52.298Z</time></trkpt><trkpt lat="42.95277" lon="11.43079"><ele>159.0</ele><time>2026-04-26T09:42:53.297Z</time></trkpt><trkpt lat="42.9528233" lon="11.4310283"><ele>159.0</ele><time>2026-04-26T09:42:54.298Z</time></trkpt><trkpt lat="42.9528617" lon="11.4312717"><ele>159.0</ele><time>2026-04-26T09:42:55.299Z</time></trkpt><trkpt lat="42.9528867" lon="11.4315183"><ele>159.0</ele><time>2026-04-26T09:42:56.298Z</time></trkpt><trkpt lat="42.9529" lon="11.4317683"><ele>160.33333333333334</ele><time>2026-04-26T09:42:57.299Z</time></trkpt><trkpt lat="42.9528967" lon="11.4320183"><ele>161.66666666666669</ele><time>2026-04-26T09:42:58.299Z</time></trkpt><trkpt lat="42.9528783" lon="11.4322683"><ele>163.0</ele><time>2026-04-26T09:42:59.295Z</time></trkpt><trkpt lat="42.952845" lon="11.4325217"><ele>164.33333333333334</ele><time>2026-04-26T09:43:00.298Z</time></trkpt><trkpt lat="42.9528017" lon="11.432775"><ele>165.66666666666666</ele><time>2026-04-26T09:43:01.297Z</time></trkpt><trkpt lat="42.9527417" lon="11.4330267"><ele>167.0</ele><time>2026-04-26T09:43:02.296Z</time></trkpt><trkpt lat="42.9526633" lon="11.4332683"><ele>167.0</ele><time>2026-04-26T09:43:03.296Z</time></trkpt><trkpt lat="42.9525717" lon="11.4335033"><ele>167.0</ele><time>2026-04-26T09:43:04.299Z</time></trkpt><trkpt lat="42.9524667" lon="11.4337333"><ele>167.0</ele><time>2026-04-26T09:43:05.299Z</time></trkpt><trkpt lat="42.9523617" lon="11.4339583"><ele>170.66666666666666</ele><time>2026-04-26T09:43:06.298Z</time></trkpt><trkpt lat="42.952255" lon="11.4341833"><ele>174.33333333333334</ele><time>2026-04-26T09:43:07.298Z</time></trkpt><trkpt lat="42.95215" lon="11.4344067"><ele>178.0</ele><time>2026-04-26T09:43:08.299Z</time></trkpt><trkpt lat="42.9520467" lon="11.4346267"><ele>179.33333333333334</ele><time>2026-04-26T09:43:09.298Z</time></trkpt><trkpt lat="42.9519433" lon="11.434845"><ele>180.66666666666666</ele><time>2026-04-26T09:43:10.298Z</time></trkpt><trkpt lat="42.9518417" lon="11.435065"><ele>182.0</ele><time>2026-04-26T09:43:11.299Z</time></trkpt><trkpt lat="42.95174" lon="11.4352833"><ele>186.0</ele><time>2026-04-26T09:43:12.298Z</time></trkpt><trkpt lat="42.9516383" lon="11.435505"><ele>190.0</ele><time>2026-04-26T09:43:13.297Z</time></trkpt><trkpt lat="42.95154" lon="11.4357233"><ele>194.0</ele><time>2026-04-26T09:43:14.298Z</time></trkpt><trkpt lat="42.9514383" lon="11.4359433"><ele>194.0</ele><time>2026-04-26T09:43:15.298Z</time></trkpt><trkpt lat="42.95134" lon="11.4361617"><ele>194.0</ele><time>2026-04-26T09:43:16.299Z</time></trkpt><trkpt lat="42.951245" lon="11.4363733"><ele>194.0</ele><time>2026-04-26T09:43:17.299Z</time></trkpt><trkpt lat="42.9511583" lon="11.43659"><ele>195.33333333333334</ele><time>2026-04-26T09:43:18.304Z</time></trkpt><trkpt lat="42.9510817" lon="11.43682"><ele>196.66666666666669</ele><time>2026-04-26T09:43:19.298Z</time></trkpt><trkpt lat="42.9510133" lon="11.4370567"><ele>198.0</ele><time>2026-04-26T09:43:20.298Z</time></trkpt><trkpt lat="42.95096" lon="11.4373117"><ele>198.0</ele><time>2026-04-26T09:43:21.295Z</time></trkpt><trkpt lat="42.9509117" lon="11.43758"><ele>198.0</ele><time>2026-04-26T09:43:22.298Z</time></trkpt><trkpt lat="42.950865" lon="11.4378517"><ele>198.0</ele><time>2026-04-26T09:43:23.298Z</time></trkpt><trkpt lat="42.9508167" lon="11.4381283"><ele>196.0</ele><time>2026-04-26T09:43:24.299Z</time></trkpt><trkpt lat="42.9507567" lon="11.4384033"><ele>194.0</ele><time>2026-04-26T09:43:25.298Z</time></trkpt><trkpt lat="42.9506833" lon="11.4386683"><ele>192.0</ele><time>2026-04-26T09:43:26.298Z</time></trkpt><trkpt lat="42.95059" lon="11.4389217"><ele>192.0</ele><time>2026-04-26T09:43:27.297Z</time></trkpt><trkpt lat="42.9504783" lon="11.439165"><ele>192.0</ele><time>2026-04-26T09:43:28.298Z</time></trkpt><trkpt lat="42.9503517" lon="11.4393917"><ele>192.0</ele><time>2026-04-26T09:43:29.296Z</time></trkpt><trkpt lat="42.9502167" lon="11.4396067"><ele>192.0</ele><time>2026-04-26T09:43:30.299Z</time></trkpt><trkpt lat="42.9500717" lon="11.4398183"><ele>192.0</ele><time>2026-04-26T09:43:31.298Z</time></trkpt><trkpt lat="42.94992" lon="11.440025"><ele>192.0</ele><time>2026-04-26T09:43:32.298Z</time></trkpt><trkpt lat="42.94977" lon="11.4402317"><ele>192.0</ele><time>2026-04-26T09:43:33.298Z</time></trkpt><trkpt lat="42.9496183" lon="11.4404383"><ele>192.0</ele><time>2026-04-26T09:43:34.298Z</time></trkpt><trkpt lat="42.9494683" lon="11.440645"><ele>192.0</ele><time>2026-04-26T09:43:35.299Z</time></trkpt><trkpt lat="42.94932" lon="11.4408567"><ele>193.33333333333331</ele><time>2026-04-26T09:43:36.301Z</time></trkpt><trkpt lat="42.9491733" lon="11.441065"><ele>194.66666666666666</ele><time>2026-04-26T09:43:37.298Z</time></trkpt><trkpt lat="42.9490267" lon="11.4412733"><ele>196.0</ele><time>2026-04-26T09:43:38.298Z</time></trkpt><trkpt lat="42.94888" lon="11.4414783"><ele>196.33333333333331</ele><time>2026-04-26T09:43:39.298Z</time></trkpt><trkpt lat="42.9487367" lon="11.441685"><ele>196.66666666666669</ele><time>2026-04-26T09:43:40.298Z</time></trkpt><trkpt lat="42.9485983" lon="11.4418867"><ele>197.0</ele><time>2026-04-26T09:43:41.298Z</time></trkpt><trkpt lat="42.9484567" lon="11.4420867"><ele>198.66666666666669</ele><time>2026-04-26T09:43:42.299Z</time></trkpt><trkpt lat="42.9483183" lon="11.4422833"><ele>200.33333333333331</ele><time>2026-04-26T09:43:43.298Z</time></trkpt><trkpt lat="42.9481833" lon="11.4424767"><ele>202.0</ele><time>2026-04-26T09:43:44.298Z</time></trkpt><trkpt lat="42.94805" lon="11.4426683"><ele>202.0</ele><time>2026-04-26T09:43:45.299Z</time></trkpt><trkpt lat="42.9479183" lon="11.44286"><ele>202.0</ele><time>2026-04-26T09:43:46.298Z</time></trkpt><trkpt lat="42.9477867" lon="11.44305"><ele>202.0</ele><time>2026-04-26T09:43:47.299Z</time></trkpt><trkpt lat="42.9476483" lon="11.44324"><ele>203.0</ele><time>2026-04-26T09:43:48.297Z</time></trkpt><trkpt lat="42.9475117" lon="11.4434317"><ele>204.0</ele><time>2026-04-26T09:43:49.298Z</time></trkpt><trkpt lat="42.9473767" lon="11.4436217"><ele>205.0</ele><time>2026-04-26T09:43:50.298Z</time></trkpt><trkpt lat="42.94724" lon="11.443815"><ele>205.0</ele><time>2026-04-26T09:43:51.299Z</time></trkpt><trkpt lat="42.9470983" lon="11.4440117"><ele>205.0</ele><time>2026-04-26T09:43:52.299Z</time></trkpt><trkpt lat="42.9469583" lon="11.4442117"><ele>205.0</ele><time>2026-04-26T09:43:53.298Z</time></trkpt><trkpt lat="42.94682" lon="11.4444167"><ele>205.33333333333331</ele><time>2026-04-26T09:43:54.298Z</time></trkpt><trkpt lat="42.94669" lon="11.444625"><ele>205.66666666666669</ele><time>2026-04-26T09:43:55.298Z</time></trkpt><trkpt lat="42.9465783" lon="11.4448433"><ele>206.0</ele><time>2026-04-26T09:43:56.299Z</time></trkpt><trkpt lat="42.9464817" lon="11.4450767"><ele>206.0</ele><time>2026-04-26T09:43:57.298Z</time></trkpt><trkpt lat="42.9464017" lon="11.4453233"><ele>206.0</ele><time>2026-04-26T09:43:58.297Z</time></trkpt><trkpt lat="42.946335" lon="11.44558"><ele>206.0</ele><time>2026-04-26T09:43:59.299Z</time></trkpt><trkpt lat="42.9462733" lon="11.4458467"><ele>204.66666666666669</ele><time>2026-04-26T09:44:00.298Z</time></trkpt><trkpt lat="42.9462217" lon="11.4461183"><ele>203.33333333333331</ele><time>2026-04-26T09:44:01.296Z</time></trkpt><trkpt lat="42.9461733" lon="11.446385"><ele>202.0</ele><time>2026-04-26T09:44:02.299Z</time></trkpt><trkpt lat="42.94613" lon="11.44664"><ele>198.66666666666666</ele><time>2026-04-26T09:44:03.299Z</time></trkpt><trkpt lat="42.9460833" lon="11.4468833"><ele>195.33333333333331</ele><time>2026-04-26T09:44:04.299Z</time></trkpt><trkpt lat="42.9460417" lon="11.44712"><ele>192.0</ele><time>2026-04-26T09:44:05.295Z</time></trkpt><trkpt lat="42.9460017" lon="11.4473467"><ele>190.33333333333334</ele><time>2026-04-26T09:44:06.295Z</time></trkpt><trkpt lat="42.9459617" lon="11.447565"><ele>188.66666666666669</ele><time>2026-04-26T09:44:07.296Z</time></trkpt><trkpt lat="42.9459233" lon="11.4477767"><ele>187.0</ele><time>2026-04-26T09:44:08.297Z</time></trkpt><trkpt lat="42.945885" lon="11.447985"><ele>189.33333333333334</ele><time>2026-04-26T09:44:09.296Z</time></trkpt><trkpt lat="42.94585" lon="11.4481917"><ele>191.66666666666669</ele><time>2026-04-26T09:44:10.296Z</time></trkpt><trkpt lat="42.9458167" lon="11.4483967"><ele>194.0</ele><time>2026-04-26T09:44:11.299Z</time></trkpt><trkpt lat="42.9457883" lon="11.4486017"><ele>194.0</ele><time>2026-04-26T09:44:12.3Z</time></trkpt><trkpt lat="42.945765" lon="11.4487983"><ele>194.0</ele><time>2026-04-26T09:44:13.297Z</time></trkpt><trkpt lat="42.9457433" lon="11.4489867"><ele>194.0</ele><time>2026-04-26T09:44:14.298Z</time></trkpt><trkpt lat="42.9457267" lon="11.4491617"><ele>194.0</ele><time>2026-04-26T09:44:15.299Z</time></trkpt><trkpt lat="42.9457133" lon="11.4493117"><ele>194.0</ele><time>2026-04-26T09:44:16.299Z</time></trkpt><trkpt lat="42.9457017" lon="11.449425"><ele>194.0</ele><time>2026-04-26T09:44:17.298Z</time></trkpt><trkpt lat="42.9456683" lon="11.4495633"><ele>194.0</ele><time>2026-04-26T09:44:19.299Z</time></trkpt><trkpt lat="42.9455467" lon="11.44955"><ele>194.0</ele><time>2026-04-26T09:44:21.299Z</time></trkpt><trkpt lat="42.9454633" lon="11.4495233"><ele>194.0</ele><time>2026-04-26T09:44:22.298Z</time></trkpt><trkpt lat="42.9453617" lon="11.4494783"><ele>194.0</ele><time>2026-04-26T09:44:23.299Z</time></trkpt><trkpt lat="42.9452667" lon="11.44943"><ele>194.0</ele><time>2026-04-26T09:44:24.298Z</time></trkpt><trkpt lat="42.9451567" lon="11.4493717"><ele>194.0</ele><time>2026-04-26T09:44:25.298Z</time></trkpt><trkpt lat="42.94505" lon="11.449325"><ele>194.0</ele><time>2026-04-26T09:44:26.299Z</time></trkpt><trkpt lat="42.9449417" lon="11.449275"><ele>194.0</ele><time>2026-04-26T09:44:27.3Z</time></trkpt><trkpt lat="42.9448367" lon="11.4492283"><ele>193.79999999999998</ele><time>2026-04-26T09:44:28.299Z</time></trkpt><trkpt lat="42.944735" lon="11.4491817"><ele>193.6</ele><time>2026-04-26T09:44:29.298Z</time></trkpt><trkpt lat="42.944635" lon="11.4491367"><ele>193.4</ele><time>2026-04-26T09:44:30.298Z</time></trkpt><trkpt lat="42.9445383" lon="11.4490917"><ele>193.2</ele><time>2026-04-26T09:44:31.298Z</time></trkpt><trkpt lat="42.94444" lon="11.4490467"><ele>193.0</ele><time>2026-04-26T09:44:32.298Z</time></trkpt><trkpt lat="42.94434" lon="11.4490017"><ele>193.0</ele><time>2026-04-26T09:44:33.298Z</time></trkpt><trkpt lat="42.9442367" lon="11.4489517"><ele>193.0</ele><time>2026-04-26T09:44:34.298Z</time></trkpt><trkpt lat="42.9441283" lon="11.4488933"><ele>193.0</ele><time>2026-04-26T09:44:35.298Z</time></trkpt><trkpt lat="42.94402" lon="11.448825"><ele>193.0</ele><time>2026-04-26T09:44:36.296Z</time></trkpt><trkpt lat="42.9439117" lon="11.4487417"><ele>192.0</ele><time>2026-04-26T09:44:37.295Z</time></trkpt><trkpt lat="42.9438067" lon="11.448645"><ele>191.0</ele><time>2026-04-26T09:44:38.298Z</time></trkpt><trkpt lat="42.9437067" lon="11.4485367"><ele>190.0</ele><time>2026-04-26T09:44:39.298Z</time></trkpt><trkpt lat="42.94361" lon="11.4484183"><ele>189.0</ele><time>2026-04-26T09:44:40.298Z</time></trkpt><trkpt lat="42.943515" lon="11.4482933"><ele>189.0</ele><time>2026-04-26T09:44:41.298Z</time></trkpt><trkpt lat="42.94342" lon="11.4481617"><ele>189.0</ele><time>2026-04-26T09:44:42.298Z</time></trkpt><trkpt lat="42.943325" lon="11.44803"><ele>189.0</ele><time>2026-04-26T09:44:43.299Z</time></trkpt><trkpt lat="42.9432333" lon="11.4479"><ele>189.0</ele><time>2026-04-26T09:44:44.299Z</time></trkpt><trkpt lat="42.9431417" lon="11.4477767"><ele>188.75</ele><time>2026-04-26T09:44:45.298Z</time></trkpt><trkpt lat="42.943055" lon="11.447655"><ele>188.5</ele><time>2026-04-26T09:44:46.299Z</time></trkpt><trkpt lat="42.9429717" lon="11.4475333"><ele>188.25</ele><time>2026-04-26T09:44:47.299Z</time></trkpt><trkpt lat="42.9428883" lon="11.4474133"><ele>188.0</ele><time>2026-04-26T09:44:48.298Z</time></trkpt><trkpt lat="42.94281" lon="11.4472983"><ele>188.0</ele><time>2026-04-26T09:44:49.299Z</time></trkpt><trkpt lat="42.942735" lon="11.4471867"><ele>188.0</ele><time>2026-04-26T09:44:50.299Z</time></trkpt><trkpt lat="42.9426633" lon="11.4470817"><ele>188.0</ele><time>2026-04-26T09:44:51.298Z</time></trkpt><trkpt lat="42.9425883" lon="11.4469933"><ele>188.0</ele><time>2026-04-26T09:44:52.298Z</time></trkpt><trkpt lat="42.9425067" lon="11.44693"><ele>188.0</ele><time>2026-04-26T09:44:53.298Z</time></trkpt><trkpt lat="42.9424133" lon="11.4468883"><ele>187.2</ele><time>2026-04-26T09:44:54.298Z</time></trkpt><trkpt lat="42.94231" lon="11.44686"><ele>186.4</ele><time>2026-04-26T09:44:55.298Z</time></trkpt><trkpt lat="42.942205" lon="11.44683"><ele>185.6</ele><time>2026-04-26T09:44:56.299Z</time></trkpt><trkpt lat="42.9420967" lon="11.4467933"><ele>184.79999999999998</ele><time>2026-04-26T09:44:57.298Z</time></trkpt><trkpt lat="42.9419867" lon="11.4467533"><ele>184.0</ele><time>2026-04-26T09:44:58.298Z</time></trkpt><trkpt lat="42.9418783" lon="11.446715"><ele>184.0</ele><time>2026-04-26T09:44:59.298Z</time></trkpt><trkpt lat="42.941775" lon="11.4466817"><ele>184.0</ele><time>2026-04-26T09:45:00.299Z</time></trkpt><trkpt lat="42.9416717" lon="11.4466517"><ele>184.0</ele><time>2026-04-26T09:45:01.298Z</time></trkpt><trkpt lat="42.94157" lon="11.446625"><ele>184.0</ele><time>2026-04-26T09:45:02.296Z</time></trkpt><trkpt lat="42.9414667" lon="11.446615"><ele>184.0</ele><time>2026-04-26T09:45:03.298Z</time></trkpt><trkpt lat="42.9413567" lon="11.44664"><ele>183.25</ele><time>2026-04-26T09:45:04.301Z</time></trkpt><trkpt lat="42.9412433" lon="11.4466833"><ele>182.5</ele><time>2026-04-26T09:45:05.299Z</time></trkpt><trkpt lat="42.94113" lon="11.4467333"><ele>181.75</ele><time>2026-04-26T09:45:06.295Z</time></trkpt><trkpt lat="42.9410167" lon="11.4467867"><ele>181.0</ele><time>2026-04-26T09:45:07.295Z</time></trkpt><trkpt lat="42.9409017" lon="11.4468417"><ele>179.5</ele><time>2026-04-26T09:45:08.298Z</time></trkpt><trkpt lat="42.9407917" lon="11.4468983"><ele>178.0</ele><time>2026-04-26T09:45:09.297Z</time></trkpt><trkpt lat="42.94068" lon="11.446955"><ele>176.5</ele><time>2026-04-26T09:45:10.298Z</time></trkpt><trkpt lat="42.9405717" lon="11.4470033"><ele>175.0</ele><time>2026-04-26T09:45:11.298Z</time></trkpt><trkpt lat="42.9404717" lon="11.447045"><ele>175.0</ele><time>2026-04-26T09:45:12.299Z</time></trkpt><trkpt lat="42.9403817" lon="11.44709"><ele>175.0</ele><time>2026-04-26T09:45:13.298Z</time></trkpt><trkpt lat="42.9403033" lon="11.4471417"><ele>175.0</ele><time>2026-04-26T09:45:14.298Z</time></trkpt><trkpt lat="42.94024" lon="11.4472117"><ele>175.0</ele><time>2026-04-26T09:45:15.298Z</time></trkpt><trkpt lat="42.9401967" lon="11.4473033"><ele>175.0</ele><time>2026-04-26T09:45:16.298Z</time></trkpt><trkpt lat="42.940185" lon="11.447415"><ele>175.0</ele><time>2026-04-26T09:45:17.298Z</time></trkpt><trkpt lat="42.9402" lon="11.4475383"><ele>175.0</ele><time>2026-04-26T09:45:18.301Z</time></trkpt><trkpt lat="42.9402067" lon="11.4476583"><ele>175.0</ele><time>2026-04-26T09:45:19.298Z</time></trkpt><trkpt lat="42.9401917" lon="11.4477667"><ele>175.0</ele><time>2026-04-26T09:45:20.299Z</time></trkpt><trkpt lat="42.9401533" lon="11.4478617"><ele>175.0</ele><time>2026-04-26T09:45:21.298Z</time></trkpt><trkpt lat="42.9400933" lon="11.4479383"><ele>175.0</ele><time>2026-04-26T09:45:22.298Z</time></trkpt><trkpt lat="42.940015" lon="11.4479767"><ele>175.0</ele><time>2026-04-26T09:45:23.298Z</time></trkpt><trkpt lat="42.939915" lon="11.447935"><ele>175.0</ele><time>2026-04-26T09:45:24.299Z</time></trkpt><trkpt lat="42.939835" lon="11.4478767"><ele>175.0</ele><time>2026-04-26T09:45:25.299Z</time></trkpt><trkpt lat="42.9397517" lon="11.4478067"><ele>175.0</ele><time>2026-04-26T09:45:26.298Z</time></trkpt><trkpt lat="42.9396683" lon="11.4477333"><ele>175.0</ele><time>2026-04-26T09:45:27.298Z</time></trkpt><trkpt lat="42.9395783" lon="11.44766"><ele>175.0</ele><time>2026-04-26T09:45:28.295Z</time></trkpt><trkpt lat="42.9394833" lon="11.4476033"><ele>175.0</ele><time>2026-04-26T09:45:29.295Z</time></trkpt><trkpt lat="42.9393817" lon="11.4475633"><ele>175.0</ele><time>2026-04-26T09:45:30.3Z</time></trkpt><trkpt lat="42.93927" lon="11.4475267"><ele>175.0</ele><time>2026-04-26T09:45:31.298Z</time></trkpt><trkpt lat="42.9391533" lon="11.447485"><ele>175.0</ele><time>2026-04-26T09:45:32.3Z</time></trkpt><trkpt lat="42.939035" lon="11.4474367"><ele>178.25</ele><time>2026-04-26T09:45:33.299Z</time></trkpt><trkpt lat="42.9389133" lon="11.4473967"><ele>181.5</ele><time>2026-04-26T09:45:34.294Z</time></trkpt><trkpt lat="42.9387883" lon="11.4473767"><ele>184.75</ele><time>2026-04-26T09:45:35.299Z</time></trkpt><trkpt lat="42.9386633" lon="11.447385"><ele>188.0</ele><time>2026-04-26T09:45:36.296Z</time></trkpt><trkpt lat="42.9385483" lon="11.4474117"><ele>188.0</ele><time>2026-04-26T09:45:37.299Z</time></trkpt><trkpt lat="42.93846" lon="11.4474467"><ele>188.0</ele><time>2026-04-26T09:45:38.3Z</time></trkpt><trkpt lat="42.9383933" lon="11.44748"><ele>188.0</ele><time>2026-04-26T09:45:39.295Z</time></trkpt><trkpt lat="42.9383067" lon="11.4475383"><ele>188.0</ele><time>2026-04-26T09:45:41.298Z</time></trkpt><trkpt lat="42.9382317" lon="11.4476033"><ele>188.0</ele><time>2026-04-26T09:46:04.298Z</time></trkpt><trkpt lat="42.93816" lon="11.4476917"><ele>188.0</ele><time>2026-04-26T09:46:07.295Z</time></trkpt><trkpt lat="42.9381033" lon="11.4477717"><ele>189.4</ele><time>2026-04-26T09:46:10.297Z</time></trkpt><trkpt lat="42.9380533" lon="11.44788"><ele>190.8</ele><time>2026-04-26T09:46:14.299Z</time></trkpt><trkpt lat="42.93803" lon="11.44798"><ele>192.2</ele><time>2026-04-26T09:46:16.299Z</time></trkpt><trkpt lat="42.938035" lon="11.4480867"><ele>193.6</ele><time>2026-04-26T09:46:18.296Z</time></trkpt><trkpt lat="42.9380867" lon="11.448205"><ele>195.0</ele><time>2026-04-26T09:46:20.297Z</time></trkpt><trkpt lat="42.938155" lon="11.4483417"><ele>196.0</ele><time>2026-04-26T09:46:22.296Z</time></trkpt><trkpt lat="42.9381817" lon="11.448425"><ele>197.0</ele><time>2026-04-26T09:46:23.295Z</time></trkpt><trkpt lat="42.9382033" lon="11.4485133"><ele>198.0</ele><time>2026-04-26T09:46:24.299Z</time></trkpt><trkpt lat="42.9382233" lon="11.44861"><ele>199.0</ele><time>2026-04-26T09:46:25.299Z</time></trkpt><trkpt lat="42.9382333" lon="11.4487133"><ele>200.0</ele><time>2026-04-26T09:46:26.298Z</time></trkpt><trkpt lat="42.93824" lon="11.4488183"><ele>201.0</ele><time>2026-04-26T09:46:27.299Z</time></trkpt><trkpt lat="42.9382433" lon="11.4489183"><ele>202.0</ele><time>2026-04-26T09:46:28.296Z</time></trkpt><trkpt lat="42.9382533" lon="11.449015"><ele>202.99999999999997</ele><time>2026-04-26T09:46:29.296Z</time></trkpt><trkpt lat="42.9382633" lon="11.449115"><ele>204.0</ele><time>2026-04-26T09:46:30.295Z</time></trkpt><trkpt lat="42.938275" lon="11.4492233"><ele>205.0</ele><time>2026-04-26T09:46:31.295Z</time></trkpt><trkpt lat="42.93829" lon="11.44934"><ele>206.0</ele><time>2026-04-26T09:46:32.296Z</time></trkpt><trkpt lat="42.9383017" lon="11.44946"><ele>206.99999999999997</ele><time>2026-04-26T09:46:33.295Z</time></trkpt><trkpt lat="42.9383133" lon="11.449585"><ele>208.0</ele><time>2026-04-26T09:46:34.295Z</time></trkpt><trkpt lat="42.9383267" lon="11.4497167"><ele>208.60000000000002</ele><time>2026-04-26T09:46:35.297Z</time></trkpt><trkpt lat="42.9383383" lon="11.449855"><ele>209.20000000000002</ele><time>2026-04-26T09:46:36.298Z</time></trkpt><trkpt lat="42.9383517" lon="11.4499967"><ele>209.8</ele><time>2026-04-26T09:46:37.299Z</time></trkpt><trkpt lat="42.938365" lon="11.4501467"><ele>210.4</ele><time>2026-04-26T09:46:38.298Z</time></trkpt><trkpt lat="42.9383717" lon="11.4502983"><ele>211.0</ele><time>2026-04-26T09:46:39.298Z</time></trkpt><trkpt lat="42.938375" lon="11.4504467"><ele>212.0</ele><time>2026-04-26T09:46:40.299Z</time></trkpt><trkpt lat="42.9383733" lon="11.4505917"><ele>213.0</ele><time>2026-04-26T09:46:41.298Z</time></trkpt><trkpt lat="42.938365" lon="11.4507333"><ele>214.00000000000003</ele><time>2026-04-26T09:46:42.299Z</time></trkpt><trkpt lat="42.9383517" lon="11.4508767"><ele>215.0</ele><time>2026-04-26T09:46:43.298Z</time></trkpt><trkpt lat="42.9383383" lon="11.451015"><ele>216.0</ele><time>2026-04-26T09:46:44.3Z</time></trkpt><trkpt lat="42.93832" lon="11.4511533"><ele>217.20000000000002</ele><time>2026-04-26T09:46:45.298Z</time></trkpt><trkpt lat="42.9382967" lon="11.4512917"><ele>218.40000000000003</ele><time>2026-04-26T09:46:46.3Z</time></trkpt><trkpt lat="42.9382733" lon="11.45143"><ele>219.6</ele><time>2026-04-26T09:46:47.295Z</time></trkpt><trkpt lat="42.9382517" lon="11.4515667"><ele>220.8</ele><time>2026-04-26T09:46:48.296Z</time></trkpt><trkpt lat="42.938225" lon="11.4517"><ele>222.0</ele><time>2026-04-26T09:46:49.295Z</time></trkpt><trkpt lat="42.9381967" lon="11.4518317"><ele>222.0</ele><time>2026-04-26T09:46:50.297Z</time></trkpt><trkpt lat="42.93816" lon="11.4519567"><ele>222.0</ele><time>2026-04-26T09:46:51.295Z</time></trkpt><trkpt lat="42.9381133" lon="11.452065"><ele>222.0</ele><time>2026-04-26T09:46:52.296Z</time></trkpt><trkpt lat="42.9380483" lon="11.452145"><ele>222.0</ele><time>2026-04-26T09:46:53.297Z</time></trkpt><trkpt lat="42.9379833" lon="11.4521767"><ele>222.0</ele><time>2026-04-26T09:46:54.298Z</time></trkpt><trkpt lat="42.937915" lon="11.4521933"><ele>222.0</ele><time>2026-04-26T09:46:55.297Z</time></trkpt><trkpt lat="42.9378317" lon="11.4521617"><ele>222.0</ele><time>2026-04-26T09:46:56.298Z</time></trkpt><trkpt lat="42.9377467" lon="11.452115"><ele>222.0</ele><time>2026-04-26T09:46:57.298Z</time></trkpt><trkpt lat="42.93766" lon="11.4520833"><ele>222.0</ele><time>2026-04-26T09:46:58.295Z</time></trkpt><trkpt lat="42.937575" lon="11.452085"><ele>222.0</ele><time>2026-04-26T09:46:59.296Z</time></trkpt><trkpt lat="42.93749" lon="11.4521117"><ele>222.0</ele><time>2026-04-26T09:47:00.295Z</time></trkpt><trkpt lat="42.9374017" lon="11.4521717"><ele>223.39999999999998</ele><time>2026-04-26T09:47:01.297Z</time></trkpt><trkpt lat="42.9373133" lon="11.452245"><ele>224.79999999999998</ele><time>2026-04-26T09:47:02.296Z</time></trkpt><trkpt lat="42.9372233" lon="11.452325"><ele>226.2</ele><time>2026-04-26T09:47:03.295Z</time></trkpt><trkpt lat="42.9371317" lon="11.4524167"><ele>227.6</ele><time>2026-04-26T09:47:04.298Z</time></trkpt><trkpt lat="42.93704" lon="11.4525067"><ele>229.0</ele><time>2026-04-26T09:47:05.296Z</time></trkpt><trkpt lat="42.9369467" lon="11.452595"><ele>229.0</ele><time>2026-04-26T09:47:06.295Z</time></trkpt><trkpt lat="42.9368567" lon="11.4526833"><ele>228.99999999999997</ele><time>2026-04-26T09:47:07.296Z</time></trkpt><trkpt lat="42.936765" lon="11.4527683"><ele>228.99999999999997</ele><time>2026-04-26T09:47:08.295Z</time></trkpt><trkpt lat="42.9366717" lon="11.45285"><ele>229.0</ele><time>2026-04-26T09:47:09.297Z</time></trkpt><trkpt lat="42.936585" lon="11.452925"><ele>229.0</ele><time>2026-04-26T09:47:10.296Z</time></trkpt><trkpt lat="42.9364933" lon="11.4529933"><ele>231.39999999999998</ele><time>2026-04-26T09:47:11.296Z</time></trkpt><trkpt lat="42.9363983" lon="11.4530567"><ele>233.79999999999998</ele><time>2026-04-26T09:47:12.296Z</time></trkpt><trkpt lat="42.936305" lon="11.4531083"><ele>236.20000000000002</ele><time>2026-04-26T09:47:13.297Z</time></trkpt><trkpt lat="42.93622" lon="11.4531533"><ele>238.60000000000002</ele><time>2026-04-26T09:47:14.295Z</time></trkpt><trkpt lat="42.9361383" lon="11.4532083"><ele>241.0</ele><time>2026-04-26T09:47:15.297Z</time></trkpt><trkpt lat="42.936065" lon="11.45328"><ele>241.0</ele><time>2026-04-26T09:47:16.298Z</time></trkpt><trkpt lat="42.9359917" lon="11.453375"><ele>241.00000000000003</ele><time>2026-04-26T09:47:17.295Z</time></trkpt><trkpt lat="42.9359217" lon="11.453475"><ele>241.00000000000003</ele><time>2026-04-26T09:47:18.296Z</time></trkpt><trkpt lat="42.935855" lon="11.453575"><ele>241.0</ele><time>2026-04-26T09:47:19.295Z</time></trkpt><trkpt lat="42.9357933" lon="11.4536717"><ele>241.0</ele><time>2026-04-26T09:47:20.296Z</time></trkpt><trkpt lat="42.9357317" lon="11.4537633"><ele>241.83333333333331</ele><time>2026-04-26T09:47:21.296Z</time></trkpt><trkpt lat="42.93567" lon="11.4538533"><ele>242.66666666666666</ele><time>2026-04-26T09:47:22.295Z</time></trkpt><trkpt lat="42.9356083" lon="11.453945"><ele>243.5</ele><time>2026-04-26T09:47:23.296Z</time></trkpt><trkpt lat="42.9355483" lon="11.4540333"><ele>244.33333333333331</ele><time>2026-04-26T09:47:24.298Z</time></trkpt><trkpt lat="42.9354883" lon="11.4541233"><ele>245.16666666666666</ele><time>2026-04-26T09:47:25.297Z</time></trkpt><trkpt lat="42.935435" lon="11.45422"><ele>246.0</ele><time>2026-04-26T09:47:26.298Z</time></trkpt><trkpt lat="42.9353867" lon="11.45432"><ele>246.0</ele><time>2026-04-26T09:47:27.297Z</time></trkpt><trkpt lat="42.9353433" lon="11.4544267"><ele>246.0</ele><time>2026-04-26T09:47:28.297Z</time></trkpt><trkpt lat="42.935305" lon="11.45454"><ele>246.0</ele><time>2026-04-26T09:47:29.298Z</time></trkpt><trkpt lat="42.9352683" lon="11.4546517"><ele>246.0</ele><time>2026-04-26T09:47:30.297Z</time></trkpt><trkpt lat="42.9352317" lon="11.4547617"><ele>246.0</ele><time>2026-04-26T09:47:31.297Z</time></trkpt><trkpt lat="42.9351933" lon="11.4548733"><ele>246.0</ele><time>2026-04-26T09:47:32.301Z</time></trkpt><trkpt lat="42.935155" lon="11.4549883"><ele>244.8</ele><time>2026-04-26T09:47:33.297Z</time></trkpt><trkpt lat="42.9351167" lon="11.455105"><ele>243.60000000000002</ele><time>2026-04-26T09:47:34.296Z</time></trkpt><trkpt lat="42.935075" lon="11.4552233"><ele>242.4</ele><time>2026-04-26T09:47:35.295Z</time></trkpt><trkpt lat="42.9350333" lon="11.45534"><ele>241.2</ele><time>2026-04-26T09:47:36.296Z</time></trkpt><trkpt lat="42.93499" lon="11.45546"><ele>240.0</ele><time>2026-04-26T09:47:37.297Z</time></trkpt><trkpt lat="42.934945" lon="11.45558"><ele>240.0</ele><time>2026-04-26T09:47:38.296Z</time></trkpt><trkpt lat="42.9349" lon="11.4556983"><ele>240.0</ele><time>2026-04-26T09:47:39.295Z</time></trkpt><trkpt lat="42.9348517" lon="11.45582"><ele>240.0</ele><time>2026-04-26T09:47:40.296Z</time></trkpt><trkpt lat="42.9347983" lon="11.45594"><ele>240.0</ele><time>2026-04-26T09:47:41.298Z</time></trkpt><trkpt lat="42.9347367" lon="11.456055"><ele>240.0</ele><time>2026-04-26T09:47:42.295Z</time></trkpt><trkpt lat="42.9346667" lon="11.456165"><ele>240.0</ele><time>2026-04-26T09:47:43.297Z</time></trkpt><trkpt lat="42.9345883" lon="11.4562617"><ele>240.0</ele><time>2026-04-26T09:47:44.299Z</time></trkpt><trkpt lat="42.9345017" lon="11.4563517"><ele>240.0</ele><time>2026-04-26T09:47:45.297Z</time></trkpt><trkpt lat="42.9344117" lon="11.4564467"><ele>240.0</ele><time>2026-04-26T09:47:46.297Z</time></trkpt><trkpt lat="42.93432" lon="11.4565433"><ele>240.0</ele><time>2026-04-26T09:47:47.298Z</time></trkpt><trkpt lat="42.9342283" lon="11.4566367"><ele>240.8</ele><time>2026-04-26T09:47:48.297Z</time></trkpt><trkpt lat="42.934135" lon="11.4567333"><ele>241.6</ele><time>2026-04-26T09:47:49.297Z</time></trkpt><trkpt lat="42.934045" lon="11.4568267"><ele>242.39999999999998</ele><time>2026-04-26T09:47:50.297Z</time></trkpt><trkpt lat="42.93396" lon="11.45692"><ele>243.2</ele><time>2026-04-26T09:47:51.298Z</time></trkpt><trkpt lat="42.9338783" lon="11.4570133"><ele>244.0</ele><time>2026-04-26T09:47:52.298Z</time></trkpt><trkpt lat="42.9338" lon="11.4571167"><ele>245.0</ele><time>2026-04-26T09:47:53.298Z</time></trkpt><trkpt lat="42.933725" lon="11.457235"><ele>246.0</ele><time>2026-04-26T09:47:54.298Z</time></trkpt><trkpt lat="42.9336483" lon="11.4573567"><ele>247.0</ele><time>2026-04-26T09:47:55.298Z</time></trkpt><trkpt lat="42.9335733" lon="11.4574833"><ele>248.0</ele><time>2026-04-26T09:47:56.297Z</time></trkpt><trkpt lat="42.9335" lon="11.45761"><ele>248.0</ele><time>2026-04-26T09:47:57.298Z</time></trkpt><trkpt lat="42.933425" lon="11.4577333"><ele>248.0</ele><time>2026-04-26T09:47:58.298Z</time></trkpt><trkpt lat="42.9333483" lon="11.4578583"><ele>248.0</ele><time>2026-04-26T09:47:59.297Z</time></trkpt><trkpt lat="42.93327" lon="11.4579783"><ele>248.0</ele><time>2026-04-26T09:48:00.298Z</time></trkpt><trkpt lat="42.93319" lon="11.4581033"><ele>249.0</ele><time>2026-04-26T09:48:01.299Z</time></trkpt><trkpt lat="42.933115" lon="11.4582267"><ele>250.0</ele><time>2026-04-26T09:48:02.298Z</time></trkpt><trkpt lat="42.933045" lon="11.4583533"><ele>251.0</ele><time>2026-04-26T09:48:03.295Z</time></trkpt><trkpt lat="42.932975" lon="11.45848"><ele>252.0</ele><time>2026-04-26T09:48:04.297Z</time></trkpt><trkpt lat="42.9329083" lon="11.4585983"><ele>252.0</ele><time>2026-04-26T09:48:05.297Z</time></trkpt><trkpt lat="42.932845" lon="11.4587"><ele>252.0</ele><time>2026-04-26T09:48:06.297Z</time></trkpt><trkpt lat="42.932785" lon="11.4587883"><ele>252.0</ele><time>2026-04-26T09:48:07.298Z</time></trkpt><trkpt lat="42.9327283" lon="11.4588633"><ele>252.0</ele><time>2026-04-26T09:48:08.297Z</time></trkpt><trkpt lat="42.9326783" lon="11.4589267"><ele>252.0</ele><time>2026-04-26T09:48:09.298Z</time></trkpt><trkpt lat="42.9326283" lon="11.45899"><ele>252.0</ele><time>2026-04-26T09:48:10.298Z</time></trkpt><trkpt lat="42.9325767" lon="11.4590517"><ele>252.66666666666666</ele><time>2026-04-26T09:48:11.298Z</time></trkpt><trkpt lat="42.932525" lon="11.459115"><ele>253.33333333333331</ele><time>2026-04-26T09:48:12.297Z</time></trkpt><trkpt lat="42.932465" lon="11.4591867"><ele>254.0</ele><time>2026-04-26T09:48:13.298Z</time></trkpt><trkpt lat="42.9323983" lon="11.4592667"><ele>254.66666666666666</ele><time>2026-04-26T09:48:14.297Z</time></trkpt><trkpt lat="42.9323267" lon="11.4593533"><ele>255.33333333333331</ele><time>2026-04-26T09:48:15.299Z</time></trkpt><trkpt lat="42.9322517" lon="11.4594433"><ele>256.0</ele><time>2026-04-26T09:48:16.298Z</time></trkpt><trkpt lat="42.93217" lon="11.459535"><ele>256.75</ele><time>2026-04-26T09:48:17.299Z</time></trkpt><trkpt lat="42.9320817" lon="11.4596317"><ele>257.5</ele><time>2026-04-26T09:48:18.298Z</time></trkpt><trkpt lat="42.931995" lon="11.459725"><ele>258.25</ele><time>2026-04-26T09:48:19.297Z</time></trkpt><trkpt lat="42.9319067" lon="11.45982"><ele>259.0</ele><time>2026-04-26T09:48:20.297Z</time></trkpt><trkpt lat="42.9318117" lon="11.4599167"><ele>259.5</ele><time>2026-04-26T09:48:21.298Z</time></trkpt><trkpt lat="42.9317133" lon="11.4600167"><ele>260.0</ele><time>2026-04-26T09:48:22.299Z</time></trkpt><trkpt lat="42.93162" lon="11.4601217"><ele>260.5</ele><time>2026-04-26T09:48:23.297Z</time></trkpt><trkpt lat="42.9315283" lon="11.4602283"><ele>261.0</ele><time>2026-04-26T09:48:24.297Z</time></trkpt><trkpt lat="42.9314333" lon="11.4603317"><ele>261.0</ele><time>2026-04-26T09:48:25.297Z</time></trkpt><trkpt lat="42.9313433" lon="11.46043"><ele>261.0</ele><time>2026-04-26T09:48:26.301Z</time></trkpt><trkpt lat="42.9312517" lon="11.460515"><ele>261.0</ele><time>2026-04-26T09:48:27.294Z</time></trkpt><trkpt lat="42.93115" lon="11.460585"><ele>261.0</ele><time>2026-04-26T09:48:28.297Z</time></trkpt><trkpt lat="42.9310467" lon="11.46064"><ele>262.75</ele><time>2026-04-26T09:48:29.297Z</time></trkpt><trkpt lat="42.930935" lon="11.460685"><ele>264.5</ele><time>2026-04-26T09:48:30.299Z</time></trkpt><trkpt lat="42.9308133" lon="11.4607283"><ele>266.25</ele><time>2026-04-26T09:48:31.297Z</time></trkpt><trkpt lat="42.93069" lon="11.460765"><ele>268.0</ele><time>2026-04-26T09:48:32.297Z</time></trkpt><trkpt lat="42.93057" lon="11.4607983"><ele>270.0</ele><time>2026-04-26T09:48:33.297Z</time></trkpt><trkpt lat="42.9304483" lon="11.4608317"><ele>272.0</ele><time>2026-04-26T09:48:34.297Z</time></trkpt><trkpt lat="42.93034" lon="11.4608667"><ele>274.0</ele><time>2026-04-26T09:48:35.296Z</time></trkpt><trkpt lat="42.930245" lon="11.4609033"><ele>276.0</ele><time>2026-04-26T09:48:36.299Z</time></trkpt><trkpt lat="42.9301617" lon="11.460945"><ele>278.0</ele><time>2026-04-26T09:48:37.298Z</time></trkpt><trkpt lat="42.9300867" lon="11.4609917"><ele>279.1666666666667</ele><time>2026-04-26T09:48:38.297Z</time></trkpt><trkpt lat="42.930015" lon="11.4610483"><ele>280.33333333333337</ele><time>2026-04-26T09:48:39.297Z</time></trkpt><trkpt lat="42.9299483" lon="11.4611067"><ele>281.5</ele><time>2026-04-26T09:48:40.297Z</time></trkpt><trkpt lat="42.929885" lon="11.4611733"><ele>282.6666666666667</ele><time>2026-04-26T09:48:41.297Z</time></trkpt><trkpt lat="42.9298217" lon="11.461235"><ele>283.8333333333333</ele><time>2026-04-26T09:48:42.295Z</time></trkpt><trkpt lat="42.9297567" lon="11.4612917"><ele>285.0</ele><time>2026-04-26T09:48:43.296Z</time></trkpt><trkpt lat="42.9296817" lon="11.461355"><ele>286.5</ele><time>2026-04-26T09:48:44.297Z</time></trkpt><trkpt lat="42.9296117" lon="11.46142"><ele>288.0</ele><time>2026-04-26T09:48:45.294Z</time></trkpt><trkpt lat="42.929535" lon="11.46149"><ele>289.5</ele><time>2026-04-26T09:48:46.297Z</time></trkpt><trkpt lat="42.9294633" lon="11.4615583"><ele>291.0</ele><time>2026-04-26T09:48:47.294Z</time></trkpt><trkpt lat="42.9294" lon="11.4616233"><ele>292.5</ele><time>2026-04-26T09:48:48.298Z</time></trkpt><trkpt lat="42.929335" lon="11.4616817"><ele>294.0</ele><time>2026-04-26T09:48:49.297Z</time></trkpt><trkpt lat="42.92927" lon="11.46174"><ele>294.8333333333333</ele><time>2026-04-26T09:48:50.294Z</time></trkpt><trkpt lat="42.9292067" lon="11.4618"><ele>295.6666666666667</ele><time>2026-04-26T09:48:51.296Z</time></trkpt><trkpt lat="42.9291417" lon="11.4618583"><ele>296.5</ele><time>2026-04-26T09:48:52.295Z</time></trkpt><trkpt lat="42.9290817" lon="11.4619083"><ele>297.33333333333337</ele><time>2026-04-26T09:48:53.296Z</time></trkpt><trkpt lat="42.92902" lon="11.4619717"><ele>298.1666666666667</ele><time>2026-04-26T09:48:54.299Z</time></trkpt><trkpt lat="42.9289717" lon="11.4620367"><ele>299.0</ele><time>2026-04-26T09:48:55.297Z</time></trkpt><trkpt lat="42.9288967" lon="11.462135"><ele>301.8</ele><time>2026-04-26T09:48:57.296Z</time></trkpt><trkpt lat="42.9288067" lon="11.462175"><ele>304.59999999999997</ele><time>2026-04-26T09:48:59.298Z</time></trkpt><trkpt lat="42.9286783" lon="11.46219"><ele>307.4</ele><time>2026-04-26T09:49:01.298Z</time></trkpt><trkpt lat="42.92861" lon="11.4622033"><ele>310.2</ele><time>2026-04-26T09:49:02.295Z</time></trkpt><trkpt lat="42.928545" lon="11.4622267"><ele>313.0</ele><time>2026-04-26T09:49:03.298Z</time></trkpt><trkpt lat="42.9284333" lon="11.4623067"><ele>313.2857142857143</ele><time>2026-04-26T09:49:05.3Z</time></trkpt><trkpt lat="42.9283817" lon="11.4623683"><ele>313.57142857142856</ele><time>2026-04-26T09:49:06.295Z</time></trkpt><trkpt lat="42.9283417" lon="11.4624383"><ele>313.8571428571429</ele><time>2026-04-26T09:49:07.298Z</time></trkpt><trkpt lat="42.928305" lon="11.4625167"><ele>314.1428571428571</ele><time>2026-04-26T09:49:08.302Z</time></trkpt><trkpt lat="42.928275" lon="11.4625933"><ele>314.42857142857144</ele><time>2026-04-26T09:49:09.298Z</time></trkpt><trkpt lat="42.9282417" lon="11.4626767"><ele>314.7142857142857</ele><time>2026-04-26T09:49:10.297Z</time></trkpt><trkpt lat="42.9282117" lon="11.4627633"><ele>315.0</ele><time>2026-04-26T09:49:11.298Z</time></trkpt><trkpt lat="42.92818" lon="11.4628533"><ele>315.0</ele><time>2026-04-26T09:49:12.298Z</time></trkpt><trkpt lat="42.92815" lon="11.46294"><ele>315.0</ele><time>2026-04-26T09:49:13.295Z</time></trkpt><trkpt lat="42.9281183" lon="11.46302"><ele>315.0</ele><time>2026-04-26T09:49:14.299Z</time></trkpt><trkpt lat="42.9280817" lon="11.4630967"><ele>315.0</ele><time>2026-04-26T09:49:15.298Z</time></trkpt><trkpt lat="42.9280417" lon="11.463175"><ele>315.0</ele><time>2026-04-26T09:49:16.295Z</time></trkpt><trkpt lat="42.9280017" lon="11.4632517"><ele>315.0</ele><time>2026-04-26T09:49:17.296Z</time></trkpt><trkpt lat="42.9279633" lon="11.4633283"><ele>315.0</ele><time>2026-04-26T09:49:18.297Z</time></trkpt><trkpt lat="42.92789" lon="11.4634567"><ele>316.14285714285717</ele><time>2026-04-26T09:49:20.297Z</time></trkpt><trkpt lat="42.927845" lon="11.4635217"><ele>317.2857142857143</ele><time>2026-04-26T09:49:21.295Z</time></trkpt><trkpt lat="42.9277983" lon="11.4635883"><ele>318.42857142857144</ele><time>2026-04-26T09:49:22.295Z</time></trkpt><trkpt lat="42.92774" lon="11.4636567"><ele>319.57142857142856</ele><time>2026-04-26T09:49:23.295Z</time></trkpt><trkpt lat="42.927685" lon="11.463725"><ele>320.7142857142857</ele><time>2026-04-26T09:49:24.299Z</time></trkpt><trkpt lat="42.9276317" lon="11.4637917"><ele>321.8571428571429</ele><time>2026-04-26T09:49:25.295Z</time></trkpt><trkpt lat="42.9275733" lon="11.4638467"><ele>323.0</ele><time>2026-04-26T09:49:26.299Z</time></trkpt><trkpt lat="42.9275083" lon="11.4639"><ele>324.8571428571429</ele><time>2026-04-26T09:49:27.297Z</time></trkpt><trkpt lat="42.9274467" lon="11.4639433"><ele>326.7142857142857</ele><time>2026-04-26T09:49:28.297Z</time></trkpt><trkpt lat="42.9273817" lon="11.4639817"><ele>328.57142857142856</ele><time>2026-04-26T09:49:29.295Z</time></trkpt><trkpt lat="42.92732" lon="11.4640133"><ele>330.42857142857144</ele><time>2026-04-26T09:49:30.297Z</time></trkpt><trkpt lat="42.92724" lon="11.4640433"><ele>332.2857142857143</ele><time>2026-04-26T09:49:31.295Z</time></trkpt><trkpt lat="42.92716" lon="11.464075"><ele>334.14285714285717</ele><time>2026-04-26T09:49:32.298Z</time></trkpt><trkpt lat="42.9270867" lon="11.4641033"><ele>336.0</ele><time>2026-04-26T09:49:33.298Z</time></trkpt><trkpt lat="42.927025" lon="11.4641417"><ele>336.0</ele><time>2026-04-26T09:49:34.298Z</time></trkpt><trkpt lat="42.9269683" lon="11.4641883"><ele>336.0</ele><time>2026-04-26T09:49:35.298Z</time></trkpt><trkpt lat="42.9269117" lon="11.46425"><ele>336.0</ele><time>2026-04-26T09:49:36.299Z</time></trkpt><trkpt lat="42.9268467" lon="11.4643067"><ele>336.0</ele><time>2026-04-26T09:49:37.294Z</time></trkpt><trkpt lat="42.92678" lon="11.4643683"><ele>336.0</ele><time>2026-04-26T09:49:38.297Z</time></trkpt><trkpt lat="42.92671" lon="11.4644367"><ele>336.0</ele><time>2026-04-26T09:49:39.295Z</time></trkpt><trkpt lat="42.9266367" lon="11.4645017"><ele>337.0</ele><time>2026-04-26T09:49:40.296Z</time></trkpt><trkpt lat="42.9265667" lon="11.464565"><ele>338.0</ele><time>2026-04-26T09:49:41.297Z</time></trkpt><trkpt lat="42.9265" lon="11.464625"><ele>339.0</ele><time>2026-04-26T09:49:42.297Z</time></trkpt><trkpt lat="42.9264317" lon="11.4646867"><ele>340.0</ele><time>2026-04-26T09:49:43.299Z</time></trkpt><trkpt lat="42.92636" lon="11.4647517"><ele>341.0</ele><time>2026-04-26T09:49:44.298Z</time></trkpt><trkpt lat="42.9262917" lon="11.4648217"><ele>342.0</ele><time>2026-04-26T09:49:45.297Z</time></trkpt><trkpt lat="42.9262233" lon="11.4648867"><ele>342.0</ele><time>2026-04-26T09:49:46.297Z</time></trkpt><trkpt lat="42.926165" lon="11.4649433"><ele>342.0</ele><time>2026-04-26T09:49:47.298Z</time></trkpt><trkpt lat="42.9260767" lon="11.4650517"><ele>342.0</ele><time>2026-04-26T09:49:49.296Z</time></trkpt><trkpt lat="42.926045" lon="11.4651783"><ele>342.0</ele><time>2026-04-26T09:49:51.295Z</time></trkpt><trkpt lat="42.926045" lon="11.465315"><ele>342.0</ele><time>2026-04-26T09:49:53.296Z</time></trkpt><trkpt lat="42.9260967" lon="11.4654217"><ele>342.3333333333333</ele><time>2026-04-26T09:49:55.298Z</time></trkpt><trkpt lat="42.9261567" lon="11.4654983"><ele>342.6666666666667</ele><time>2026-04-26T09:49:57.295Z</time></trkpt><trkpt lat="42.9262167" lon="11.4655667"><ele>343.0</ele><time>2026-04-26T09:49:59.295Z</time></trkpt><trkpt lat="42.9262683" lon="11.4656417"><ele>343.33333333333337</ele><time>2026-04-26T09:50:01.298Z</time></trkpt><trkpt lat="42.9263267" lon="11.465725"><ele>343.6666666666667</ele><time>2026-04-26T09:50:03.296Z</time></trkpt><trkpt lat="42.9264017" lon="11.4658017"><ele>344.0</ele><time>2026-04-26T09:50:05.295Z</time></trkpt><trkpt lat="42.92649" lon="11.4658767"><ele>344.0</ele><time>2026-04-26T09:50:07.297Z</time></trkpt><trkpt lat="42.9265817" lon="11.4659267"><ele>344.0</ele><time>2026-04-26T09:50:09.297Z</time></trkpt><trkpt lat="42.9266667" lon="11.4659967"><ele>344.0</ele><time>2026-04-26T09:50:11.298Z</time></trkpt><trkpt lat="42.9267617" lon="11.466095"><ele>344.0</ele><time>2026-04-26T09:50:13.295Z</time></trkpt><trkpt lat="42.926815" lon="11.4661683"><ele>344.0</ele><time>2026-04-26T09:50:14.295Z</time></trkpt><trkpt lat="42.9268583" lon="11.4662483"><ele>342.83333333333337</ele><time>2026-04-26T09:50:15.298Z</time></trkpt><trkpt lat="42.926905" lon="11.46631"><ele>341.6666666666667</ele><time>2026-04-26T09:50:16.297Z</time></trkpt><trkpt lat="42.92695" lon="11.4663717"><ele>340.5</ele><time>2026-04-26T09:50:17.298Z</time></trkpt><trkpt lat="42.9270317" lon="11.4664817"><ele>339.3333333333333</ele><time>2026-04-26T09:50:19.297Z</time></trkpt><trkpt lat="42.9270783" lon="11.4665867"><ele>338.16666666666663</ele><time>2026-04-26T09:50:21.3Z</time></trkpt><trkpt lat="42.927065" lon="11.4666783"><ele>337.0</ele><time>2026-04-26T09:50:23.297Z</time></trkpt><trkpt lat="42.926975" lon="11.466765"><ele>337.00000000000006</ele><time>2026-04-26T09:50:25.298Z</time></trkpt><trkpt lat="42.9269117" lon="11.4667933"><ele>337.0</ele><time>2026-04-26T09:50:26.297Z</time></trkpt><trkpt lat="42.9268433" lon="11.46682"><ele>337.0</ele><time>2026-04-26T09:50:27.297Z</time></trkpt><trkpt lat="42.9267767" lon="11.4668417"><ele>337.0</ele><time>2026-04-26T09:50:28.297Z</time></trkpt><trkpt lat="42.9267133" lon="11.4668767"><ele>337.0</ele><time>2026-04-26T09:50:29.294Z</time></trkpt><trkpt lat="42.9266417" lon="11.4669183"><ele>337.00000000000006</ele><time>2026-04-26T09:50:30.298Z</time></trkpt><trkpt lat="42.9265683" lon="11.4669633"><ele>337.0</ele><time>2026-04-26T09:50:31.297Z</time></trkpt><trkpt lat="42.9264967" lon="11.4670067"><ele>338.28571428571433</ele><time>2026-04-26T09:50:32.299Z</time></trkpt><trkpt lat="42.9264283" lon="11.4670367"><ele>339.57142857142856</ele><time>2026-04-26T09:50:33.299Z</time></trkpt><trkpt lat="42.9263617" lon="11.467065"><ele>340.8571428571429</ele><time>2026-04-26T09:50:34.297Z</time></trkpt><trkpt lat="42.9262917" lon="11.46709"><ele>342.14285714285717</ele><time>2026-04-26T09:50:35.295Z</time></trkpt><trkpt lat="42.9262167" lon="11.4671117"><ele>343.42857142857144</ele><time>2026-04-26T09:50:36.3Z</time></trkpt><trkpt lat="42.9261417" lon="11.4671367"><ele>344.7142857142857</ele><time>2026-04-26T09:50:37.297Z</time></trkpt><trkpt lat="42.9260667" lon="11.467165"><ele>346.0</ele><time>2026-04-26T09:50:38.298Z</time></trkpt><trkpt lat="42.92599" lon="11.4671883"><ele>346.0</ele><time>2026-04-26T09:50:39.298Z</time></trkpt><trkpt lat="42.9259117" lon="11.4672167"><ele>346.0</ele><time>2026-04-26T09:50:40.298Z</time></trkpt><trkpt lat="42.92583" lon="11.467245"><ele>346.0</ele><time>2026-04-26T09:50:41.298Z</time></trkpt><trkpt lat="42.9257433" lon="11.467265"><ele>346.0</ele><time>2026-04-26T09:50:42.298Z</time></trkpt><trkpt lat="42.9256567" lon="11.46727"><ele>346.0</ele><time>2026-04-26T09:50:43.296Z</time></trkpt><trkpt lat="42.925585" lon="11.4672567"><ele>346.0</ele><time>2026-04-26T09:50:44.299Z</time></trkpt><trkpt lat="42.92552" lon="11.4672217"><ele>347.66666666666663</ele><time>2026-04-26T09:50:45.298Z</time></trkpt><trkpt lat="42.92546" lon="11.4671667"><ele>349.3333333333333</ele><time>2026-04-26T09:50:46.299Z</time></trkpt><trkpt lat="42.9254033" lon="11.4670983"><ele>351.0</ele><time>2026-04-26T09:50:47.299Z</time></trkpt><trkpt lat="42.9253433" lon="11.4670333"><ele>352.6666666666667</ele><time>2026-04-26T09:50:48.299Z</time></trkpt><trkpt lat="42.9252883" lon="11.466975"><ele>354.33333333333337</ele><time>2026-04-26T09:50:49.299Z</time></trkpt><trkpt lat="42.9251967" lon="11.4668983"><ele>356.0</ele><time>2026-04-26T09:50:51.298Z</time></trkpt><trkpt lat="42.92513" lon="11.4669083"><ele>356.0</ele><time>2026-04-26T09:50:53.299Z</time></trkpt><trkpt lat="42.925075" lon="11.467015"><ele>356.0</ele><time>2026-04-26T09:50:55.297Z</time></trkpt><trkpt lat="42.9250283" lon="11.467105"><ele>356.0</ele><time>2026-04-26T09:50:56.297Z</time></trkpt><trkpt lat="42.9249817" lon="11.467185"><ele>356.0</ele><time>2026-04-26T09:50:57.299Z</time></trkpt><trkpt lat="42.9249233" lon="11.4672483"><ele>356.0</ele><time>2026-04-26T09:50:58.298Z</time></trkpt><trkpt lat="42.9248583" lon="11.4672867"><ele>356.0</ele><time>2026-04-26T09:50:59.298Z</time></trkpt><trkpt lat="42.9247867" lon="11.467305"><ele>356.99999999999994</ele><time>2026-04-26T09:51:00.294Z</time></trkpt><trkpt lat="42.9247083" lon="11.4673033"><ele>358.0</ele><time>2026-04-26T09:51:01.296Z</time></trkpt><trkpt lat="42.9246317" lon="11.467275"><ele>359.0</ele><time>2026-04-26T09:51:02.297Z</time></trkpt><trkpt lat="42.9245633" lon="11.4672367"><ele>360.0</ele><time>2026-04-26T09:51:03.295Z</time></trkpt><trkpt lat="42.9245017" lon="11.46721"><ele>361.0</ele><time>2026-04-26T09:51:04.297Z</time></trkpt><trkpt lat="42.9244333" lon="11.4671883"><ele>361.99999999999994</ele><time>2026-04-26T09:51:05.295Z</time></trkpt><trkpt lat="42.92437" lon="11.4671683"><ele>363.0</ele><time>2026-04-26T09:51:06.299Z</time></trkpt><trkpt lat="42.9243033" lon="11.4671433"><ele>363.0</ele><time>2026-04-26T09:51:07.294Z</time></trkpt><trkpt lat="42.9242333" lon="11.4671217"><ele>363.0</ele><time>2026-04-26T09:51:08.299Z</time></trkpt><trkpt lat="42.924165" lon="11.4671133"><ele>363.0</ele><time>2026-04-26T09:51:09.296Z</time></trkpt><trkpt lat="42.924095" lon="11.4671133"><ele>363.0</ele><time>2026-04-26T09:51:10.297Z</time></trkpt><trkpt lat="42.9240117" lon="11.467125"><ele>363.0</ele><time>2026-04-26T09:51:11.295Z</time></trkpt><trkpt lat="42.9239283" lon="11.46715"><ele>363.0</ele><time>2026-04-26T09:51:12.297Z</time></trkpt><trkpt lat="42.9238417" lon="11.4671717"><ele>365.0</ele><time>2026-04-26T09:51:13.296Z</time></trkpt><trkpt lat="42.9237683" lon="11.4671933"><ele>367.0</ele><time>2026-04-26T09:51:14.298Z</time></trkpt><trkpt lat="42.923695" lon="11.4672283"><ele>369.0</ele><time>2026-04-26T09:51:15.294Z</time></trkpt><trkpt lat="42.9236117" lon="11.4672717"><ele>371.0</ele><time>2026-04-26T09:51:16.294Z</time></trkpt><trkpt lat="42.9235217" lon="11.46731"><ele>373.0</ele><time>2026-04-26T09:51:17.295Z</time></trkpt><trkpt lat="42.9234283" lon="11.4673433"><ele>375.0</ele><time>2026-04-26T09:51:18.295Z</time></trkpt><trkpt lat="42.9233367" lon="11.467365"><ele>377.3333333333333</ele><time>2026-04-26T09:51:19.295Z</time></trkpt><trkpt lat="42.9232467" lon="11.4673867"><ele>379.66666666666663</ele><time>2026-04-26T09:51:20.296Z</time></trkpt><trkpt lat="42.923165" lon="11.467405"><ele>382.0</ele><time>2026-04-26T09:51:21.295Z</time></trkpt><trkpt lat="42.9230917" lon="11.467425"><ele>384.3333333333333</ele><time>2026-04-26T09:51:22.295Z</time></trkpt><trkpt lat="42.9230267" lon="11.4674367"><ele>386.66666666666663</ele><time>2026-04-26T09:51:23.295Z</time></trkpt><trkpt lat="42.9229067" lon="11.46749"><ele>389.0</ele><time>2026-04-26T09:51:25.295Z</time></trkpt><trkpt lat="42.922845" lon="11.4675383"><ele>389.0</ele><time>2026-04-26T09:51:26.297Z</time></trkpt><trkpt lat="42.9227833" lon="11.4675933"><ele>389.0</ele><time>2026-04-26T09:51:27.297Z</time></trkpt><trkpt lat="42.9227117" lon="11.4676533"><ele>389.0</ele><time>2026-04-26T09:51:28.299Z</time></trkpt><trkpt lat="42.92262" lon="11.467715"><ele>389.0</ele><time>2026-04-26T09:51:29.298Z</time></trkpt><trkpt lat="42.92252" lon="11.4677783"><ele>389.0</ele><time>2026-04-26T09:51:30.298Z</time></trkpt><trkpt lat="42.9224083" lon="11.4678533"><ele>391.0</ele><time>2026-04-26T09:51:31.299Z</time></trkpt><trkpt lat="42.9223" lon="11.4679167"><ele>393.0</ele><time>2026-04-26T09:51:32.297Z</time></trkpt><trkpt lat="42.9221883" lon="11.46799"><ele>395.0</ele><time>2026-04-26T09:51:33.299Z</time></trkpt><trkpt lat="42.9220733" lon="11.4680533"><ele>397.0</ele><time>2026-04-26T09:51:34.297Z</time></trkpt><trkpt lat="42.921965" lon="11.468105"><ele>397.1666666666667</ele><time>2026-04-26T09:51:35.295Z</time></trkpt><trkpt lat="42.9218733" lon="11.4681517"><ele>397.33333333333337</ele><time>2026-04-26T09:51:36.301Z</time></trkpt><trkpt lat="42.921795" lon="11.468195"><ele>397.5</ele><time>2026-04-26T09:51:37.298Z</time></trkpt><trkpt lat="42.9217183" lon="11.4682233"><ele>397.66666666666663</ele><time>2026-04-26T09:51:38.298Z</time></trkpt><trkpt lat="42.9216333" lon="11.4682333"><ele>397.8333333333333</ele><time>2026-04-26T09:51:39.297Z</time></trkpt><trkpt lat="42.9215467" lon="11.4682333"><ele>398.0</ele><time>2026-04-26T09:51:40.298Z</time></trkpt><trkpt lat="42.92146" lon="11.4682233"><ele>398.66666666666663</ele><time>2026-04-26T09:51:41.294Z</time></trkpt><trkpt lat="42.9213833" lon="11.4682267"><ele>399.3333333333333</ele><time>2026-04-26T09:51:42.295Z</time></trkpt><trkpt lat="42.9213117" lon="11.46825"><ele>400.0</ele><time>2026-04-26T09:51:43.297Z</time></trkpt><trkpt lat="42.9212333" lon="11.4682767"><ele>400.66666666666663</ele><time>2026-04-26T09:51:44.298Z</time></trkpt><trkpt lat="42.921155" lon="11.4683"><ele>401.3333333333333</ele><time>2026-04-26T09:51:45.294Z</time></trkpt><trkpt lat="42.9210733" lon="11.4683317"><ele>402.0</ele><time>2026-04-26T09:51:46.299Z</time></trkpt><trkpt lat="42.921" lon="11.4683667"><ele>402.0</ele><time>2026-04-26T09:51:47.299Z</time></trkpt><trkpt lat="42.9209383" lon="11.4684083"><ele>402.0</ele><time>2026-04-26T09:51:48.298Z</time></trkpt><trkpt lat="42.9208833" lon="11.4684683"><ele>402.0</ele><time>2026-04-26T09:51:49.297Z</time></trkpt><trkpt lat="42.9208317" lon="11.46855"><ele>402.0</ele><time>2026-04-26T09:51:50.296Z</time></trkpt><trkpt lat="42.9207783" lon="11.4686467"><ele>402.0</ele><time>2026-04-26T09:51:51.296Z</time></trkpt><trkpt lat="42.9207183" lon="11.4687483"><ele>402.0</ele><time>2026-04-26T09:51:52.295Z</time></trkpt><trkpt lat="42.92066" lon="11.4688433"><ele>402.1666666666667</ele><time>2026-04-26T09:51:53.297Z</time></trkpt><trkpt lat="42.9205917" lon="11.46892"><ele>402.33333333333337</ele><time>2026-04-26T09:51:54.297Z</time></trkpt><trkpt lat="42.92052" lon="11.46897"><ele>402.5</ele><time>2026-04-26T09:51:55.299Z</time></trkpt><trkpt lat="42.9204383" lon="11.46899"><ele>402.6666666666667</ele><time>2026-04-26T09:51:56.297Z</time></trkpt><trkpt lat="42.9203467" lon="11.4690033"><ele>402.83333333333337</ele><time>2026-04-26T09:51:57.298Z</time></trkpt><trkpt lat="42.9202483" lon="11.4690033"><ele>403.0</ele><time>2026-04-26T09:51:58.296Z</time></trkpt><trkpt lat="42.9201517" lon="11.46899"><ele>404.33333333333337</ele><time>2026-04-26T09:51:59.296Z</time></trkpt><trkpt lat="42.9200617" lon="11.4689767"><ele>405.6666666666667</ele><time>2026-04-26T09:52:00.298Z</time></trkpt><trkpt lat="42.9199717" lon="11.4689767"><ele>407.0</ele><time>2026-04-26T09:52:01.297Z</time></trkpt><trkpt lat="42.91988" lon="11.4689917"><ele>408.33333333333337</ele><time>2026-04-26T09:52:02.296Z</time></trkpt><trkpt lat="42.9197933" lon="11.4690133"><ele>409.6666666666667</ele><time>2026-04-26T09:52:03.295Z</time></trkpt><trkpt lat="42.91972" lon="11.46904"><ele>411.0</ele><time>2026-04-26T09:52:04.298Z</time></trkpt><trkpt lat="42.919655" lon="11.4690817"><ele>411.0</ele><time>2026-04-26T09:52:05.295Z</time></trkpt><trkpt lat="42.9196" lon="11.46913"><ele>411.0</ele><time>2026-04-26T09:52:06.296Z</time></trkpt><trkpt lat="42.9195533" lon="11.4692033"><ele>411.0</ele><time>2026-04-26T09:52:07.295Z</time></trkpt><trkpt lat="42.9195" lon="11.4692833"><ele>411.0</ele><time>2026-04-26T09:52:08.298Z</time></trkpt><trkpt lat="42.9194467" lon="11.4693717"><ele>411.0</ele><time>2026-04-26T09:52:09.294Z</time></trkpt><trkpt lat="42.9193917" lon="11.4694617"><ele>411.0</ele><time>2026-04-26T09:52:10.295Z</time></trkpt><trkpt lat="42.919325" lon="11.4695433"><ele>409.8</ele><time>2026-04-26T09:52:11.299Z</time></trkpt><trkpt lat="42.9192417" lon="11.469625"><ele>408.6</ele><time>2026-04-26T09:52:12.294Z</time></trkpt><trkpt lat="42.919155" lon="11.4697"><ele>407.4</ele><time>2026-04-26T09:52:13.298Z</time></trkpt><trkpt lat="42.91906" lon="11.4697717"><ele>406.2</ele><time>2026-04-26T09:52:14.295Z</time></trkpt><trkpt lat="42.9189483" lon="11.46983"><ele>405.0</ele><time>2026-04-26T09:52:15.3Z</time></trkpt><trkpt lat="42.9188267" lon="11.4698767"><ele>407.4</ele><time>2026-04-26T09:52:16.297Z</time></trkpt><trkpt lat="42.91871" lon="11.4699233"><ele>409.8</ele><time>2026-04-26T09:52:17.298Z</time></trkpt><trkpt lat="42.918605" lon="11.46996"><ele>412.20000000000005</ele><time>2026-04-26T09:52:18.294Z</time></trkpt><trkpt lat="42.9185067" lon="11.470005"><ele>414.6</ele><time>2026-04-26T09:52:19.296Z</time></trkpt><trkpt lat="42.9184183" lon="11.4700467"><ele>417.0</ele><time>2026-04-26T09:52:20.297Z</time></trkpt><trkpt lat="42.9183467" lon="11.47008"><ele>420.0</ele><time>2026-04-26T09:52:21.296Z</time></trkpt><trkpt lat="42.9182717" lon="11.470095"><ele>423.0</ele><time>2026-04-26T09:52:22.295Z</time></trkpt><trkpt lat="42.91817" lon="11.4700567"><ele>426.00000000000006</ele><time>2026-04-26T09:52:24.297Z</time></trkpt><trkpt lat="42.9180783" lon="11.4699517"><ele>429.0</ele><time>2026-04-26T09:52:26.296Z</time></trkpt><trkpt lat="42.9180467" lon="11.4698567"><ele>432.0</ele><time>2026-04-26T09:52:27.295Z</time></trkpt><trkpt lat="42.91802" lon="11.469745"><ele>432.0</ele><time>2026-04-26T09:52:28.297Z</time></trkpt><trkpt lat="42.9180067" lon="11.4696117"><ele>432.00000000000006</ele><time>2026-04-26T09:52:29.296Z</time></trkpt><trkpt lat="42.9180083" lon="11.4694617"><ele>432.00000000000006</ele><time>2026-04-26T09:52:30.296Z</time></trkpt><trkpt lat="42.9180117" lon="11.4693183"><ele>432.0</ele><time>2026-04-26T09:52:31.299Z</time></trkpt><trkpt lat="42.91802" lon="11.46919"><ele>432.0</ele><time>2026-04-26T09:52:32.296Z</time></trkpt><trkpt lat="42.9180167" lon="11.4690717"><ele>432.6</ele><time>2026-04-26T09:52:33.296Z</time></trkpt><trkpt lat="42.918005" lon="11.4689717"><ele>433.20000000000005</ele><time>2026-04-26T09:52:34.296Z</time></trkpt><trkpt lat="42.917985" lon="11.46888"><ele>433.8</ele><time>2026-04-26T09:52:35.297Z</time></trkpt><trkpt lat="42.9179183" lon="11.4687633"><ele>434.4</ele><time>2026-04-26T09:52:37.299Z</time></trkpt><trkpt lat="42.917795" lon="11.4687533"><ele>435.0</ele><time>2026-04-26T09:52:39.298Z</time></trkpt><trkpt lat="42.917725" lon="11.468795"><ele>435.75</ele><time>2026-04-26T09:52:40.296Z</time></trkpt><trkpt lat="42.9176233" lon="11.4688683"><ele>436.5</ele><time>2026-04-26T09:52:41.299Z</time></trkpt><trkpt lat="42.91751" lon="11.4689217"><ele>437.25</ele><time>2026-04-26T09:52:42.298Z</time></trkpt><trkpt lat="42.91738" lon="11.4689683"><ele>438.0</ele><time>2026-04-26T09:52:43.298Z</time></trkpt><trkpt lat="42.9172467" lon="11.4690133"><ele>438.25</ele><time>2026-04-26T09:52:44.298Z</time></trkpt><trkpt lat="42.9171183" lon="11.4690567"><ele>438.5</ele><time>2026-04-26T09:52:45.298Z</time></trkpt><trkpt lat="42.9169917" lon="11.46909"><ele>438.75</ele><time>2026-04-26T09:52:46.295Z</time></trkpt><trkpt lat="42.9168567" lon="11.46912"><ele>439.0</ele><time>2026-04-26T09:52:47.296Z</time></trkpt><trkpt lat="42.9167183" lon="11.46915"><ele>439.0</ele><time>2026-04-26T09:52:48.296Z</time></trkpt><trkpt lat="42.9165933" lon="11.4691833"><ele>439.0</ele><time>2026-04-26T09:52:49.296Z</time></trkpt><trkpt lat="42.9164817" lon="11.469225"><ele>439.0</ele><time>2026-04-26T09:52:50.296Z</time></trkpt><trkpt lat="42.916375" lon="11.4692633"><ele>439.0</ele><time>2026-04-26T09:52:51.296Z</time></trkpt><trkpt lat="42.91627" lon="11.4692883"><ele>439.0</ele><time>2026-04-26T09:52:52.297Z</time></trkpt><trkpt lat="42.9161617" lon="11.4692917"><ele>439.0</ele><time>2026-04-26T09:52:53.299Z</time></trkpt><trkpt lat="42.9160467" lon="11.4692867"><ele>439.0</ele><time>2026-04-26T09:52:54.297Z</time></trkpt><trkpt lat="42.9159217" lon="11.4692833"><ele>439.0</ele><time>2026-04-26T09:52:55.297Z</time></trkpt><trkpt lat="42.9157917" lon="11.4692717"><ele>438.5</ele><time>2026-04-26T09:52:56.297Z</time></trkpt><trkpt lat="42.9156683" lon="11.4692583"><ele>438.0</ele><time>2026-04-26T09:52:57.297Z</time></trkpt><trkpt lat="42.9155517" lon="11.46924"><ele>437.5</ele><time>2026-04-26T09:52:58.298Z</time></trkpt><trkpt lat="42.91544" lon="11.4692133"><ele>437.0</ele><time>2026-04-26T09:52:59.298Z</time></trkpt><trkpt lat="42.9153333" lon="11.4691867"><ele>437.0</ele><time>2026-04-26T09:53:00.296Z</time></trkpt><trkpt lat="42.9152267" lon="11.4691717"><ele>437.00000000000006</ele><time>2026-04-26T09:53:01.298Z</time></trkpt><trkpt lat="42.9151183" lon="11.4691583"><ele>437.00000000000006</ele><time>2026-04-26T09:53:02.298Z</time></trkpt><trkpt lat="42.91501" lon="11.4691533"><ele>437.0</ele><time>2026-04-26T09:53:03.298Z</time></trkpt><trkpt lat="42.9149017" lon="11.46916"><ele>437.0</ele><time>2026-04-26T09:53:04.298Z</time></trkpt><trkpt lat="42.9147883" lon="11.4691817"><ele>436.8</ele><time>2026-04-26T09:53:05.294Z</time></trkpt><trkpt lat="42.9146733" lon="11.4692133"><ele>436.6</ele><time>2026-04-26T09:53:06.296Z</time></trkpt><trkpt lat="42.9145667" lon="11.4692517"><ele>436.40000000000003</ele><time>2026-04-26T09:53:07.296Z</time></trkpt><trkpt lat="42.914465" lon="11.469295"><ele>436.20000000000005</ele><time>2026-04-26T09:53:08.296Z</time></trkpt><trkpt lat="42.9143683" lon="11.4693267"><ele>436.0</ele><time>2026-04-26T09:53:09.295Z</time></trkpt><trkpt lat="42.9142833" lon="11.4693483"><ele>436.0</ele><time>2026-04-26T09:53:10.295Z</time></trkpt><trkpt lat="42.9141983" lon="11.469375"><ele>436.0</ele><time>2026-04-26T09:53:11.298Z</time></trkpt><trkpt lat="42.9141017" lon="11.4694"><ele>436.0</ele><time>2026-04-26T09:53:12.299Z</time></trkpt><trkpt lat="42.9140033" lon="11.4694"><ele>436.0</ele><time>2026-04-26T09:53:13.296Z</time></trkpt><trkpt lat="42.9139033" lon="11.4693767"><ele>436.0</ele><time>2026-04-26T09:53:14.298Z</time></trkpt><trkpt lat="42.913805" lon="11.469345"><ele>436.0</ele><time>2026-04-26T09:53:15.298Z</time></trkpt><trkpt lat="42.913715" lon="11.4693167"><ele>436.0</ele><time>2026-04-26T09:53:16.294Z</time></trkpt><trkpt lat="42.9136333" lon="11.4693"><ele>436.0</ele><time>2026-04-26T09:53:17.296Z</time></trkpt><trkpt lat="42.9135617" lon="11.4692983"><ele>436.0</ele><time>2026-04-26T09:53:18.295Z</time></trkpt><trkpt lat="42.9134967" lon="11.46931"><ele>436.0</ele><time>2026-04-26T09:53:19.295Z</time></trkpt><trkpt lat="42.9134317" lon="11.4693283"><ele>436.0</ele><time>2026-04-26T09:53:20.295Z</time></trkpt><trkpt lat="42.913375" lon="11.4693667"><ele>436.0</ele><time>2026-04-26T09:53:21.299Z</time></trkpt><trkpt lat="42.913315" lon="11.4694083"><ele>436.6</ele><time>2026-04-26T09:53:22.295Z</time></trkpt><trkpt lat="42.9132683" lon="11.4694717"><ele>437.20000000000005</ele><time>2026-04-26T09:53:23.296Z</time></trkpt><trkpt lat="42.9132067" lon="11.46952"><ele>437.79999999999995</ele><time>2026-04-26T09:53:24.295Z</time></trkpt><trkpt lat="42.9131467" lon="11.4695567"><ele>438.4</ele><time>2026-04-26T09:53:25.296Z</time></trkpt><trkpt lat="42.9130033" lon="11.4696083"><ele>439.0</ele><time>2026-04-26T09:53:27.298Z</time></trkpt><trkpt lat="42.9129017" lon="11.469625"><ele>440.25</ele><time>2026-04-26T09:53:28.299Z</time></trkpt><trkpt lat="42.91279" lon="11.4696383"><ele>441.5</ele><time>2026-04-26T09:53:29.298Z</time></trkpt><trkpt lat="42.9126767" lon="11.46966"><ele>442.75</ele><time>2026-04-26T09:53:30.297Z</time></trkpt><trkpt lat="42.9125517" lon="11.469705"><ele>444.0</ele><time>2026-04-26T09:53:31.295Z</time></trkpt><trkpt lat="42.9124233" lon="11.4697683"><ele>446.0</ele><time>2026-04-26T09:53:32.296Z</time></trkpt><trkpt lat="42.9122933" lon="11.469835"><ele>448.0</ele><time>2026-04-26T09:53:33.296Z</time></trkpt><trkpt lat="42.9121683" lon="11.4698933"><ele>450.0</ele><time>2026-04-26T09:53:34.295Z</time></trkpt><trkpt lat="42.9120533" lon="11.46994"><ele>452.0</ele><time>2026-04-26T09:53:35.296Z</time></trkpt><trkpt lat="42.9119417" lon="11.4699717"><ele>452.0</ele><time>2026-04-26T09:53:36.298Z</time></trkpt><trkpt lat="42.9118283" lon="11.4699933"><ele>452.0</ele><time>2026-04-26T09:53:37.297Z</time></trkpt><trkpt lat="42.9117117" lon="11.4700083"><ele>452.0</ele><time>2026-04-26T09:53:38.295Z</time></trkpt><trkpt lat="42.9115883" lon="11.4700317"><ele>452.0</ele><time>2026-04-26T09:53:39.297Z</time></trkpt><trkpt lat="42.9114683" lon="11.4700467"><ele>454.0</ele><time>2026-04-26T09:53:40.298Z</time></trkpt><trkpt lat="42.911355" lon="11.4700533"><ele>456.00000000000006</ele><time>2026-04-26T09:53:41.298Z</time></trkpt><trkpt lat="42.9112483" lon="11.4700467"><ele>458.00000000000006</ele><time>2026-04-26T09:53:42.299Z</time></trkpt><trkpt lat="42.9111383" lon="11.4700317"><ele>460.0</ele><time>2026-04-26T09:53:43.299Z</time></trkpt><trkpt lat="42.9110333" lon="11.4700083"><ele>462.0</ele><time>2026-04-26T09:53:44.298Z</time></trkpt><trkpt lat="42.910935" lon="11.4699917"><ele>464.40000000000003</ele><time>2026-04-26T09:53:45.298Z</time></trkpt><trkpt lat="42.9108367" lon="11.46999"><ele>466.80000000000007</ele><time>2026-04-26T09:53:46.298Z</time></trkpt><trkpt lat="42.910735" lon="11.4700067"><ele>469.2</ele><time>2026-04-26T09:53:47.296Z</time></trkpt><trkpt lat="42.9106317" lon="11.4700367"><ele>471.6</ele><time>2026-04-26T09:53:48.297Z</time></trkpt><trkpt lat="42.91052" lon="11.47007"><ele>474.0</ele><time>2026-04-26T09:53:49.297Z</time></trkpt><trkpt lat="42.9104067" lon="11.4700933"><ele>474.0</ele><time>2026-04-26T09:53:50.298Z</time></trkpt><trkpt lat="42.9102867" lon="11.4701183"><ele>474.0</ele><time>2026-04-26T09:53:51.295Z</time></trkpt><trkpt lat="42.9101733" lon="11.47015"><ele>474.0</ele><time>2026-04-26T09:53:52.294Z</time></trkpt><trkpt lat="42.91007" lon="11.4701733"><ele>474.0</ele><time>2026-04-26T09:53:53.295Z</time></trkpt><trkpt lat="42.9099733" lon="11.470215"><ele>474.0</ele><time>2026-04-26T09:53:54.298Z</time></trkpt><trkpt lat="42.9098817" lon="11.47027"><ele>475.4</ele><time>2026-04-26T09:53:55.297Z</time></trkpt><trkpt lat="42.9097917" lon="11.470335"><ele>476.79999999999995</ele><time>2026-04-26T09:53:56.297Z</time></trkpt><trkpt lat="42.9097017" lon="11.4704167"><ele>478.20000000000005</ele><time>2026-04-26T09:53:57.298Z</time></trkpt><trkpt lat="42.909615" lon="11.4705067"><ele>479.6</ele><time>2026-04-26T09:53:58.297Z</time></trkpt><trkpt lat="42.90953" lon="11.4706033"><ele>481.0</ele><time>2026-04-26T09:53:59.294Z</time></trkpt><trkpt lat="42.9094467" lon="11.4707"><ele>481.0</ele><time>2026-04-26T09:54:00.298Z</time></trkpt><trkpt lat="42.9093567" lon="11.470795"><ele>481.0</ele><time>2026-04-26T09:54:01.297Z</time></trkpt><trkpt lat="42.9092667" lon="11.4708867"><ele>481.0</ele><time>2026-04-26T09:54:02.298Z</time></trkpt><trkpt lat="42.90918" lon="11.470975"><ele>481.0</ele><time>2026-04-26T09:54:03.294Z</time></trkpt><trkpt lat="42.9091067" lon="11.4710633"><ele>481.0</ele><time>2026-04-26T09:54:04.297Z</time></trkpt><trkpt lat="42.909045" lon="11.4711433"><ele>484.0</ele><time>2026-04-26T09:54:05.297Z</time></trkpt><trkpt lat="42.9089867" lon="11.471215"><ele>487.0</ele><time>2026-04-26T09:54:06.298Z</time></trkpt><trkpt lat="42.9089233" lon="11.4712783"><ele>490.0</ele><time>2026-04-26T09:54:07.294Z</time></trkpt><trkpt lat="42.9088417" lon="11.4713417"><ele>493.0</ele><time>2026-04-26T09:54:08.298Z</time></trkpt><trkpt lat="42.9087433" lon="11.4714"><ele>496.0</ele><time>2026-04-26T09:54:09.295Z</time></trkpt><trkpt lat="42.90863" lon="11.47147"><ele>496.0</ele><time>2026-04-26T09:54:10.296Z</time></trkpt><trkpt lat="42.9085067" lon="11.47154"><ele>496.0</ele><time>2026-04-26T09:54:11.297Z</time></trkpt><trkpt lat="42.9083783" lon="11.4715983"><ele>496.0</ele><time>2026-04-26T09:54:12.296Z</time></trkpt><trkpt lat="42.90826" lon="11.4716483"><ele>496.0</ele><time>2026-04-26T09:54:13.297Z</time></trkpt><trkpt lat="42.9081517" lon="11.4716817"><ele>497.20000000000005</ele><time>2026-04-26T09:54:14.298Z</time></trkpt><trkpt lat="42.90805" lon="11.4717267"><ele>498.40000000000003</ele><time>2026-04-26T09:54:15.297Z</time></trkpt><trkpt lat="42.9079583" lon="11.4717817"><ele>499.6</ele><time>2026-04-26T09:54:16.298Z</time></trkpt><trkpt lat="42.90786" lon="11.4718517"><ele>500.8</ele><time>2026-04-26T09:54:17.297Z</time></trkpt><trkpt lat="42.907765" lon="11.4719333"><ele>502.0</ele><time>2026-04-26T09:54:18.297Z</time></trkpt><trkpt lat="42.9076667" lon="11.4720167"><ele>502.25</ele><time>2026-04-26T09:54:19.297Z</time></trkpt><trkpt lat="42.9075617" lon="11.47209"><ele>502.5</ele><time>2026-04-26T09:54:20.297Z</time></trkpt><trkpt lat="42.9074483" lon="11.4721567"><ele>502.75</ele><time>2026-04-26T09:54:21.297Z</time></trkpt><trkpt lat="42.9073317" lon="11.4721967"><ele>503.0</ele><time>2026-04-26T09:54:22.296Z</time></trkpt><trkpt lat="42.90722" lon="11.4722167"><ele>503.0</ele><time>2026-04-26T09:54:23.296Z</time></trkpt><trkpt lat="42.9071083" lon="11.472225"><ele>502.99999999999994</ele><time>2026-04-26T09:54:24.294Z</time></trkpt><trkpt lat="42.9070017" lon="11.4722167"><ele>502.99999999999994</ele><time>2026-04-26T09:54:25.297Z</time></trkpt><trkpt lat="42.9069" lon="11.4721967"><ele>503.0</ele><time>2026-04-26T09:54:26.295Z</time></trkpt><trkpt lat="42.9068017" lon="11.4721833"><ele>503.0</ele><time>2026-04-26T09:54:27.297Z</time></trkpt><trkpt lat="42.9066983" lon="11.4721933"><ele>505.25</ele><time>2026-04-26T09:54:28.295Z</time></trkpt><trkpt lat="42.906595" lon="11.4722283"><ele>507.5</ele><time>2026-04-26T09:54:29.298Z</time></trkpt><trkpt lat="42.9064933" lon="11.47228"><ele>509.75</ele><time>2026-04-26T09:54:30.298Z</time></trkpt><trkpt lat="42.90639" lon="11.4723517"><ele>512.0</ele><time>2026-04-26T09:54:31.297Z</time></trkpt><trkpt lat="42.9062817" lon="11.4724417"><ele>512.0</ele><time>2026-04-26T09:54:32.298Z</time></trkpt><trkpt lat="42.906165" lon="11.472535"><ele>512.0</ele><time>2026-04-26T09:54:33.298Z</time></trkpt><trkpt lat="42.9060433" lon="11.472615"><ele>512.0</ele><time>2026-04-26T09:54:34.297Z</time></trkpt><trkpt lat="42.905925" lon="11.4726817"><ele>512.0</ele><time>2026-04-26T09:54:35.294Z</time></trkpt><trkpt lat="42.90581" lon="11.4727483"><ele>511.6</ele><time>2026-04-26T09:54:36.297Z</time></trkpt><trkpt lat="42.9057083" lon="11.472815"><ele>511.20000000000005</ele><time>2026-04-26T09:54:37.296Z</time></trkpt><trkpt lat="42.9056233" lon="11.4728767"><ele>510.8</ele><time>2026-04-26T09:54:38.299Z</time></trkpt><trkpt lat="42.9055467" lon="11.4729517"><ele>510.4</ele><time>2026-04-26T09:54:39.297Z</time></trkpt><trkpt lat="42.9054883" lon="11.473045"><ele>510.0</ele><time>2026-04-26T09:54:40.297Z</time></trkpt><trkpt lat="42.9054367" lon="11.47315"><ele>511.2</ele><time>2026-04-26T09:54:41.297Z</time></trkpt><trkpt lat="42.9053767" lon="11.47327"><ele>512.4</ele><time>2026-04-26T09:54:42.295Z</time></trkpt><trkpt lat="42.9053067" lon="11.473385"><ele>513.6</ele><time>2026-04-26T09:54:43.294Z</time></trkpt><trkpt lat="42.9052217" lon="11.4734783"><ele>514.8</ele><time>2026-04-26T09:54:44.297Z</time></trkpt><trkpt lat="42.905125" lon="11.4735633"><ele>516.0</ele><time>2026-04-26T09:54:45.298Z</time></trkpt><trkpt lat="42.905025" lon="11.47364"><ele>516.2</ele><time>2026-04-26T09:54:46.297Z</time></trkpt><trkpt lat="42.9049233" lon="11.4737083"><ele>516.4000000000001</ele><time>2026-04-26T09:54:47.297Z</time></trkpt><trkpt lat="42.9048267" lon="11.4737833"><ele>516.6</ele><time>2026-04-26T09:54:48.296Z</time></trkpt><trkpt lat="42.9047317" lon="11.473865"><ele>516.8000000000001</ele><time>2026-04-26T09:54:49.294Z</time></trkpt><trkpt lat="42.9046383" lon="11.473945"><ele>517.0</ele><time>2026-04-26T09:54:50.297Z</time></trkpt><trkpt lat="42.9045467" lon="11.474025"><ele>517.8000000000001</ele><time>2026-04-26T09:54:51.298Z</time></trkpt><trkpt lat="42.9044533" lon="11.4741067"><ele>518.6</ele><time>2026-04-26T09:54:52.297Z</time></trkpt><trkpt lat="42.904365" lon="11.4741867"><ele>519.4000000000001</ele><time>2026-04-26T09:54:53.297Z</time></trkpt><trkpt lat="42.9042833" lon="11.474265"><ele>520.2</ele><time>2026-04-26T09:54:54.297Z</time></trkpt><trkpt lat="42.9042017" lon="11.4743333"><ele>521.0</ele><time>2026-04-26T09:54:55.298Z</time></trkpt><trkpt lat="42.9041133" lon="11.47439"><ele>522.2</ele><time>2026-04-26T09:54:56.3Z</time></trkpt><trkpt lat="42.9040217" lon="11.4744417"><ele>523.4000000000001</ele><time>2026-04-26T09:54:57.297Z</time></trkpt><trkpt lat="42.9039333" lon="11.47449"><ele>524.6</ele><time>2026-04-26T09:54:58.3Z</time></trkpt><trkpt lat="42.9038467" lon="11.4745433"><ele>525.8000000000001</ele><time>2026-04-26T09:54:59.297Z</time></trkpt><trkpt lat="42.9037667" lon="11.474615"><ele>527.0</ele><time>2026-04-26T09:55:00.297Z</time></trkpt><trkpt lat="42.9036983" lon="11.4746983"><ele>527.8333333333333</ele><time>2026-04-26T09:55:01.297Z</time></trkpt><trkpt lat="42.9036317" lon="11.474785"><ele>528.6666666666666</ele><time>2026-04-26T09:55:02.297Z</time></trkpt><trkpt lat="42.903565" lon="11.474865"><ele>529.5</ele><time>2026-04-26T09:55:03.297Z</time></trkpt><trkpt lat="42.9034983" lon="11.4749317"><ele>530.3333333333334</ele><time>2026-04-26T09:55:04.297Z</time></trkpt><trkpt lat="42.9034333" lon="11.4749867"><ele>531.1666666666667</ele><time>2026-04-26T09:55:05.297Z</time></trkpt><trkpt lat="42.9033733" lon="11.4750383"><ele>532.0</ele><time>2026-04-26T09:55:06.302Z</time></trkpt><trkpt lat="42.9033133" lon="11.4750833"><ele>532.0</ele><time>2026-04-26T09:55:07.298Z</time></trkpt><trkpt lat="42.9032517" lon="11.475125"><ele>532.0</ele><time>2026-04-26T09:55:08.296Z</time></trkpt><trkpt lat="42.9031883" lon="11.475145"><ele>532.0</ele><time>2026-04-26T09:55:09.298Z</time></trkpt><trkpt lat="42.9030533" lon="11.4750817"><ele>532.0</ele><time>2026-04-26T09:55:11.297Z</time></trkpt><trkpt lat="42.9029767" lon="11.4750283"><ele>532.0</ele><time>2026-04-26T09:55:12.297Z</time></trkpt><trkpt lat="42.9028933" lon="11.4749817"><ele>532.0</ele><time>2026-04-26T09:55:13.299Z</time></trkpt><trkpt lat="42.9028083" lon="11.4749467"><ele>532.0</ele><time>2026-04-26T09:55:14.298Z</time></trkpt><trkpt lat="42.9027283" lon="11.4749183"><ele>532.0</ele><time>2026-04-26T09:55:15.297Z</time></trkpt><trkpt lat="42.9026483" lon="11.4749133"><ele>532.0</ele><time>2026-04-26T09:55:16.297Z</time></trkpt><trkpt lat="42.9025733" lon="11.4749317"><ele>532.0</ele><time>2026-04-26T09:55:17.298Z</time></trkpt><trkpt lat="42.9024933" lon="11.47498"><ele>532.0</ele><time>2026-04-26T09:55:18.295Z</time></trkpt><trkpt lat="42.9024067" lon="11.47504"><ele>532.8000000000001</ele><time>2026-04-26T09:55:19.297Z</time></trkpt><trkpt lat="42.9023167" lon="11.47511"><ele>533.6</ele><time>2026-04-26T09:55:20.298Z</time></trkpt><trkpt lat="42.9022217" lon="11.475175"><ele>534.4000000000001</ele><time>2026-04-26T09:55:21.298Z</time></trkpt><trkpt lat="42.9021283" lon="11.4752267"><ele>535.2</ele><time>2026-04-26T09:55:22.298Z</time></trkpt><trkpt lat="42.9020333" lon="11.47527"><ele>536.0</ele><time>2026-04-26T09:55:23.297Z</time></trkpt><trkpt lat="42.9019433" lon="11.4753117"><ele>536.0</ele><time>2026-04-26T09:55:24.297Z</time></trkpt><trkpt lat="42.90186" lon="11.475345"><ele>536.0</ele><time>2026-04-26T09:55:25.295Z</time></trkpt><trkpt lat="42.90178" lon="11.4753733"><ele>536.0</ele><time>2026-04-26T09:55:26.297Z</time></trkpt><trkpt lat="42.9017033" lon="11.4753867"><ele>536.0</ele><time>2026-04-26T09:55:27.298Z</time></trkpt><trkpt lat="42.90163" lon="11.47538"><ele>536.0</ele><time>2026-04-26T09:55:28.295Z</time></trkpt><trkpt lat="42.9015533" lon="11.4753567"><ele>536.0</ele><time>2026-04-26T09:55:29.297Z</time></trkpt><trkpt lat="42.9014767" lon="11.4752983"><ele>536.0</ele><time>2026-04-26T09:55:30.298Z</time></trkpt><trkpt lat="42.9013867" lon="11.4752183"><ele>536.0</ele><time>2026-04-26T09:55:31.297Z</time></trkpt><trkpt lat="42.9012933" lon="11.475145"><ele>536.0</ele><time>2026-04-26T09:55:32.298Z</time></trkpt><trkpt lat="42.90121" lon="11.47508"><ele>536.0</ele><time>2026-04-26T09:55:33.297Z</time></trkpt><trkpt lat="42.9011267" lon="11.47504"><ele>536.0</ele><time>2026-04-26T09:55:34.294Z</time></trkpt><trkpt lat="42.90104" lon="11.4750117"><ele>536.0</ele><time>2026-04-26T09:55:35.295Z</time></trkpt><trkpt lat="42.9009417" lon="11.4750033"><ele>536.0</ele><time>2026-04-26T09:55:36.297Z</time></trkpt><trkpt lat="42.90083" lon="11.475015"><ele>536.0</ele><time>2026-04-26T09:55:37.297Z</time></trkpt><trkpt lat="42.90071" lon="11.47503"><ele>536.0</ele><time>2026-04-26T09:55:38.298Z</time></trkpt><trkpt lat="42.9005867" lon="11.4750483"><ele>538.0</ele><time>2026-04-26T09:55:39.299Z</time></trkpt><trkpt lat="42.9004633" lon="11.4750683"><ele>540.0</ele><time>2026-04-26T09:55:40.299Z</time></trkpt><trkpt lat="42.9003417" lon="11.475085"><ele>542.0</ele><time>2026-04-26T09:55:41.297Z</time></trkpt><trkpt lat="42.9002267" lon="11.4751"><ele>544.0</ele><time>2026-04-26T09:55:42.293Z</time></trkpt><trkpt lat="42.9001117" lon="11.475115"><ele>545.2</ele><time>2026-04-26T09:55:43.298Z</time></trkpt><trkpt lat="42.900005" lon="11.4751283"><ele>546.4</ele><time>2026-04-26T09:55:44.297Z</time></trkpt><trkpt lat="42.899905" lon="11.4751467"><ele>547.6</ele><time>2026-04-26T09:55:45.297Z</time></trkpt><trkpt lat="42.8997983" lon="11.47516"><ele>548.8</ele><time>2026-04-26T09:55:46.298Z</time></trkpt><trkpt lat="42.89969" lon="11.47517"><ele>550.0</ele><time>2026-04-26T09:55:47.297Z</time></trkpt><trkpt lat="42.8995833" lon="11.47517"><ele>550.0</ele><time>2026-04-26T09:55:48.298Z</time></trkpt><trkpt lat="42.8994733" lon="11.4751517"><ele>550.0</ele><time>2026-04-26T09:55:49.299Z</time></trkpt><trkpt lat="42.8993667" lon="11.47513"><ele>550.0</ele><time>2026-04-26T09:55:50.298Z</time></trkpt><trkpt lat="42.8992633" lon="11.4751117"><ele>550.0</ele><time>2026-04-26T09:55:51.299Z</time></trkpt><trkpt lat="42.8991633" lon="11.4751"><ele>550.0</ele><time>2026-04-26T09:55:52.298Z</time></trkpt><trkpt lat="42.8990783" lon="11.4750967"><ele>551.4</ele><time>2026-04-26T09:55:53.297Z</time></trkpt><trkpt lat="42.8989933" lon="11.4750933"><ele>552.8</ele><time>2026-04-26T09:55:54.298Z</time></trkpt><trkpt lat="42.8989033" lon="11.475105"><ele>554.2</ele><time>2026-04-26T09:55:55.295Z</time></trkpt><trkpt lat="42.8987967" lon="11.4751417"><ele>555.6</ele><time>2026-04-26T09:55:56.297Z</time></trkpt><trkpt lat="42.8986867" lon="11.4751933"><ele>557.0</ele><time>2026-04-26T09:55:57.296Z</time></trkpt><trkpt lat="42.8985783" lon="11.4752533"><ele>557.0</ele><time>2026-04-26T09:55:58.294Z</time></trkpt><trkpt lat="42.898485" lon="11.4753283"><ele>557.0</ele><time>2026-04-26T09:55:59.295Z</time></trkpt><trkpt lat="42.8984017" lon="11.475415"><ele>557.0</ele><time>2026-04-26T09:56:00.295Z</time></trkpt><trkpt lat="42.8983183" lon="11.4755"><ele>557.0</ele><time>2026-04-26T09:56:01.296Z</time></trkpt><trkpt lat="42.8982367" lon="11.4755717"><ele>557.0</ele><time>2026-04-26T09:56:02.297Z</time></trkpt><trkpt lat="42.8981417" lon="11.475625"><ele>560.0</ele><time>2026-04-26T09:56:03.295Z</time></trkpt><trkpt lat="42.8980367" lon="11.4756583"><ele>563.0</ele><time>2026-04-26T09:56:04.295Z</time></trkpt><trkpt lat="42.89793" lon="11.4756683"><ele>566.0</ele><time>2026-04-26T09:56:05.295Z</time></trkpt><trkpt lat="42.8978233" lon="11.4756633"><ele>569.0</ele><time>2026-04-26T09:56:06.296Z</time></trkpt><trkpt lat="42.8977183" lon="11.4756533"><ele>572.0</ele><time>2026-04-26T09:56:07.298Z</time></trkpt><trkpt lat="42.8976133" lon="11.4756317"><ele>572.4</ele><time>2026-04-26T09:56:08.296Z</time></trkpt><trkpt lat="42.89751" lon="11.4756033"><ele>572.8000000000001</ele><time>2026-04-26T09:56:09.296Z</time></trkpt><trkpt lat="42.8974083" lon="11.475575"><ele>573.2</ele><time>2026-04-26T09:56:10.294Z</time></trkpt><trkpt lat="42.8973117" lon="11.4755483"><ele>573.6</ele><time>2026-04-26T09:56:11.294Z</time></trkpt><trkpt lat="42.8972117" lon="11.4755217"><ele>574.0</ele><time>2026-04-26T09:56:12.294Z</time></trkpt><trkpt lat="42.8971083" lon="11.475495"><ele>574.0</ele><time>2026-04-26T09:56:13.298Z</time></trkpt><trkpt lat="42.897" lon="11.475475"><ele>574.0</ele><time>2026-04-26T09:56:14.294Z</time></trkpt><trkpt lat="42.89689" lon="11.4754617"><ele>574.0</ele><time>2026-04-26T09:56:15.297Z</time></trkpt><trkpt lat="42.8967783" lon="11.4754483"><ele>574.0</ele><time>2026-04-26T09:56:16.297Z</time></trkpt><trkpt lat="42.896675" lon="11.4754333"><ele>574.0</ele><time>2026-04-26T09:56:17.297Z</time></trkpt><trkpt lat="42.8965767" lon="11.47542"><ele>573.1666666666667</ele><time>2026-04-26T09:56:18.294Z</time></trkpt><trkpt lat="42.8964917" lon="11.475395"><ele>572.3333333333334</ele><time>2026-04-26T09:56:19.297Z</time></trkpt><trkpt lat="42.89641" lon="11.4753767"><ele>571.5</ele><time>2026-04-26T09:56:20.296Z</time></trkpt><trkpt lat="42.8963333" lon="11.4753733"><ele>570.6666666666666</ele><time>2026-04-26T09:56:21.295Z</time></trkpt><trkpt lat="42.8962533" lon="11.4753867"><ele>569.8333333333333</ele><time>2026-04-26T09:56:22.295Z</time></trkpt><trkpt lat="42.8961667" lon="11.4754133"><ele>569.0</ele><time>2026-04-26T09:56:23.297Z</time></trkpt><trkpt lat="42.8960683" lon="11.4754433"><ele>572.0</ele><time>2026-04-26T09:56:24.295Z</time></trkpt><trkpt lat="42.8959567" lon="11.475495"><ele>575.0</ele><time>2026-04-26T09:56:25.295Z</time></trkpt><trkpt lat="42.8958433" lon="11.4755483"><ele>578.0</ele><time>2026-04-26T09:56:26.297Z</time></trkpt><trkpt lat="42.89573" lon="11.4756"><ele>581.0</ele><time>2026-04-26T09:56:27.299Z</time></trkpt><trkpt lat="42.8956183" lon="11.4756567"><ele>582.0</ele><time>2026-04-26T09:56:28.294Z</time></trkpt><trkpt lat="42.895505" lon="11.4757167"><ele>583.0</ele><time>2026-04-26T09:56:29.296Z</time></trkpt><trkpt lat="42.89539" lon="11.4757717"><ele>584.0</ele><time>2026-04-26T09:56:30.296Z</time></trkpt><trkpt lat="42.8952733" lon="11.4758333"><ele>585.0</ele><time>2026-04-26T09:56:31.295Z</time></trkpt><trkpt lat="42.8951583" lon="11.4758917"><ele>584.75</ele><time>2026-04-26T09:56:32.295Z</time></trkpt><trkpt lat="42.8950383" lon="11.4759467"><ele>584.5</ele><time>2026-04-26T09:56:33.298Z</time></trkpt><trkpt lat="42.89493" lon="11.4759983"><ele>584.25</ele><time>2026-04-26T09:56:34.294Z</time></trkpt><trkpt lat="42.89482" lon="11.4760417"><ele>584.0</ele><time>2026-04-26T09:56:35.297Z</time></trkpt><trkpt lat="42.8947083" lon="11.4760733"><ele>584.0</ele><time>2026-04-26T09:56:36.296Z</time></trkpt><trkpt lat="42.8945933" lon="11.4760867"><ele>584.0</ele><time>2026-04-26T09:56:37.297Z</time></trkpt><trkpt lat="42.8944833" lon="11.4760933"><ele>584.0</ele><time>2026-04-26T09:56:38.3Z</time></trkpt><trkpt lat="42.8943683" lon="11.4761133"><ele>584.0</ele><time>2026-04-26T09:56:39.294Z</time></trkpt><trkpt lat="42.8942633" lon="11.476145"><ele>584.0</ele><time>2026-04-26T09:56:40.296Z</time></trkpt><trkpt lat="42.89416" lon="11.47619"><ele>583.8</ele><time>2026-04-26T09:56:41.295Z</time></trkpt><trkpt lat="42.894055" lon="11.476245"><ele>583.5999999999999</ele><time>2026-04-26T09:56:42.296Z</time></trkpt><trkpt lat="42.893955" lon="11.4763017"><ele>583.4</ele><time>2026-04-26T09:56:43.297Z</time></trkpt><trkpt lat="42.8938533" lon="11.4763583"><ele>583.1999999999999</ele><time>2026-04-26T09:56:44.295Z</time></trkpt><trkpt lat="42.89376" lon="11.4764117"><ele>583.0</ele><time>2026-04-26T09:56:45.294Z</time></trkpt><trkpt lat="42.8936583" lon="11.4764683"><ele>583.8</ele><time>2026-04-26T09:56:46.295Z</time></trkpt><trkpt lat="42.8935567" lon="11.4765317"><ele>584.5999999999999</ele><time>2026-04-26T09:56:47.299Z</time></trkpt><trkpt lat="42.8934617" lon="11.4765933"><ele>585.4000000000001</ele><time>2026-04-26T09:56:48.295Z</time></trkpt><trkpt lat="42.8933667" lon="11.4766667"><ele>586.2</ele><time>2026-04-26T09:56:49.297Z</time></trkpt><trkpt lat="42.8932783" lon="11.4767483"><ele>587.0</ele><time>2026-04-26T09:56:50.296Z</time></trkpt><trkpt lat="42.8931833" lon="11.476825"><ele>587.4</ele><time>2026-04-26T09:56:51.295Z</time></trkpt><trkpt lat="42.89309" lon="11.4768933"><ele>587.8000000000001</ele><time>2026-04-26T09:56:52.296Z</time></trkpt><trkpt lat="42.8930017" lon="11.4769533"><ele>588.2</ele><time>2026-04-26T09:56:53.294Z</time></trkpt><trkpt lat="42.8929133" lon="11.4769933"><ele>588.6</ele><time>2026-04-26T09:56:54.295Z</time></trkpt><trkpt lat="42.8928233" lon="11.4770083"><ele>589.0</ele><time>2026-04-26T09:56:55.295Z</time></trkpt><trkpt lat="42.89273" lon="11.4770083"><ele>589.0</ele><time>2026-04-26T09:56:56.296Z</time></trkpt><trkpt lat="42.89264" lon="11.4769917"><ele>589.0</ele><time>2026-04-26T09:56:57.294Z</time></trkpt><trkpt lat="42.8925667" lon="11.4769633"><ele>589.0</ele><time>2026-04-26T09:56:58.298Z</time></trkpt><trkpt lat="42.8925017" lon="11.47693"><ele>589.0</ele><time>2026-04-26T09:56:59.297Z</time></trkpt><trkpt lat="42.89243" lon="11.4767967"><ele>589.0</ele><time>2026-04-26T09:57:01.295Z</time></trkpt><trkpt lat="42.89241" lon="11.4767133"><ele>589.0</ele><time>2026-04-26T09:57:02.297Z</time></trkpt><trkpt lat="42.89239" lon="11.47661"><ele>592.0</ele><time>2026-04-26T09:57:03.297Z</time></trkpt><trkpt lat="42.8923583" lon="11.4764983"><ele>595.0</ele><time>2026-04-26T09:57:04.295Z</time></trkpt><trkpt lat="42.8923233" lon="11.476375"><ele>598.0</ele><time>2026-04-26T09:57:05.295Z</time></trkpt><trkpt lat="42.8923" lon="11.4762567"><ele>601.0</ele><time>2026-04-26T09:57:06.295Z</time></trkpt><trkpt lat="42.892285" lon="11.4761367"><ele>604.0</ele><time>2026-04-26T09:57:07.295Z</time></trkpt><trkpt lat="42.8922767" lon="11.4760117"><ele>604.4</ele><time>2026-04-26T09:57:08.295Z</time></trkpt><trkpt lat="42.8922783" lon="11.47589"><ele>604.8</ele><time>2026-04-26T09:57:09.298Z</time></trkpt><trkpt lat="42.89231" lon="11.4757717"><ele>605.2</ele><time>2026-04-26T09:57:10.297Z</time></trkpt><trkpt lat="42.89234" lon="11.4756517"><ele>605.6</ele><time>2026-04-26T09:57:11.295Z</time></trkpt><trkpt lat="42.8923733" lon="11.47553"><ele>606.0</ele><time>2026-04-26T09:57:12.298Z</time></trkpt><trkpt lat="42.8924067" lon="11.47541"><ele>606.8</ele><time>2026-04-26T09:57:13.295Z</time></trkpt><trkpt lat="42.8924267" lon="11.4753"><ele>607.6</ele><time>2026-04-26T09:57:14.298Z</time></trkpt><trkpt lat="42.8924333" lon="11.4752"><ele>608.4</ele><time>2026-04-26T09:57:15.298Z</time></trkpt><trkpt lat="42.8923967" lon="11.475055"><ele>609.2</ele><time>2026-04-26T09:57:17.297Z</time></trkpt><trkpt lat="42.8922717" lon="11.4749767"><ele>610.0</ele><time>2026-04-26T09:57:19.297Z</time></trkpt><trkpt lat="42.8921917" lon="11.4749583"><ele>610.0</ele><time>2026-04-26T09:57:20.299Z</time></trkpt><trkpt lat="42.8921283" lon="11.47494"><ele>610.0</ele><time>2026-04-26T09:57:21.298Z</time></trkpt><trkpt lat="42.892045" lon="11.47493"><ele>610.0</ele><time>2026-04-26T09:57:23.296Z</time></trkpt><trkpt lat="42.8919717" lon="11.474955"><ele>610.0</ele><time>2026-04-26T09:57:25.298Z</time></trkpt><trkpt lat="42.8918917" lon="11.4750283"><ele>610.0</ele><time>2026-04-26T09:57:53.294Z</time></trkpt><trkpt lat="42.891835" lon="11.4751367"><ele>610.0</ele><time>2026-04-26T09:57:55.297Z</time></trkpt><trkpt lat="42.8917667" lon="11.4752833"><ele>611.5</ele><time>2026-04-26T09:57:57.297Z</time></trkpt><trkpt lat="42.8917233" lon="11.4753683"><ele>613.0</ele><time>2026-04-26T09:57:58.298Z</time></trkpt><trkpt lat="42.891685" lon="11.4754567"><ele>614.5</ele><time>2026-04-26T09:57:59.298Z</time></trkpt><trkpt lat="42.8916467" lon="11.4755467"><ele>616.0</ele><time>2026-04-26T09:58:00.298Z</time></trkpt><trkpt lat="42.8916033" lon="11.4756467"><ele>617.5</ele><time>2026-04-26T09:58:01.297Z</time></trkpt><trkpt lat="42.8915583" lon="11.4757483"><ele>619.0</ele><time>2026-04-26T09:58:02.301Z</time></trkpt><trkpt lat="42.8915117" lon="11.4758483"><ele>619.3333333333334</ele><time>2026-04-26T09:58:03.294Z</time></trkpt><trkpt lat="42.8914717" lon="11.475945"><ele>619.6666666666667</ele><time>2026-04-26T09:58:04.297Z</time></trkpt><trkpt lat="42.8914367" lon="11.4760367"><ele>620.0</ele><time>2026-04-26T09:58:05.298Z</time></trkpt><trkpt lat="42.8913983" lon="11.4761267"><ele>620.3333333333334</ele><time>2026-04-26T09:58:06.297Z</time></trkpt><trkpt lat="42.8913567" lon="11.4762133"><ele>620.6666666666666</ele><time>2026-04-26T09:58:07.297Z</time></trkpt><trkpt lat="42.8913117" lon="11.4763"><ele>621.0</ele><time>2026-04-26T09:58:08.298Z</time></trkpt><trkpt lat="42.8912633" lon="11.4763917"><ele>622.0</ele><time>2026-04-26T09:58:09.299Z</time></trkpt><trkpt lat="42.8912167" lon="11.4764983"><ele>623.0</ele><time>2026-04-26T09:58:10.296Z</time></trkpt><trkpt lat="42.891175" lon="11.4766117"><ele>624.0</ele><time>2026-04-26T09:58:11.297Z</time></trkpt><trkpt lat="42.8911467" lon="11.4767333"><ele>625.0</ele><time>2026-04-26T09:58:12.297Z</time></trkpt><trkpt lat="42.8911267" lon="11.47686"><ele>626.0</ele><time>2026-04-26T09:58:13.294Z</time></trkpt><trkpt lat="42.89111" lon="11.47699"><ele>626.2</ele><time>2026-04-26T09:58:14.296Z</time></trkpt><trkpt lat="42.891095" lon="11.4771217"><ele>626.4000000000001</ele><time>2026-04-26T09:58:15.295Z</time></trkpt><trkpt lat="42.8910817" lon="11.4772567"><ele>626.6</ele><time>2026-04-26T09:58:16.295Z</time></trkpt><trkpt lat="42.8910467" lon="11.47739"><ele>626.8000000000001</ele><time>2026-04-26T09:58:17.296Z</time></trkpt><trkpt lat="42.891" lon="11.4775183"><ele>627.0</ele><time>2026-04-26T09:58:18.296Z</time></trkpt><trkpt lat="42.8909417" lon="11.4776417"><ele>630.5</ele><time>2026-04-26T09:58:19.294Z</time></trkpt><trkpt lat="42.8908817" lon="11.4777633"><ele>634.0</ele><time>2026-04-26T09:58:20.294Z</time></trkpt><trkpt lat="42.8908167" lon="11.4778917"><ele>637.5</ele><time>2026-04-26T09:58:21.294Z</time></trkpt><trkpt lat="42.8907483" lon="11.4780183"><ele>641.0</ele><time>2026-04-26T09:58:22.295Z</time></trkpt><trkpt lat="42.8906817" lon="11.47815"><ele>641.0</ele><time>2026-04-26T09:58:23.295Z</time></trkpt><trkpt lat="42.89061" lon="11.47828"><ele>641.0</ele><time>2026-04-26T09:58:24.297Z</time></trkpt><trkpt lat="42.8905367" lon="11.478405"><ele>641.0</ele><time>2026-04-26T09:58:25.294Z</time></trkpt><trkpt lat="42.89044" lon="11.4785267"><ele>641.0</ele><time>2026-04-26T09:58:26.295Z</time></trkpt><trkpt lat="42.89033" lon="11.47864"><ele>641.0</ele><time>2026-04-26T09:58:27.294Z</time></trkpt><trkpt lat="42.8902167" lon="11.4787467"><ele>641.0</ele><time>2026-04-26T09:58:28.295Z</time></trkpt><trkpt lat="42.8901067" lon="11.4788483"><ele>641.0</ele><time>2026-04-26T09:58:29.295Z</time></trkpt><trkpt lat="42.8900067" lon="11.47896"><ele>641.0</ele><time>2026-04-26T09:58:30.297Z</time></trkpt><trkpt lat="42.8899117" lon="11.47908"><ele>644.5</ele><time>2026-04-26T09:58:31.294Z</time></trkpt><trkpt lat="42.8898233" lon="11.4792067"><ele>648.0</ele><time>2026-04-26T09:58:32.297Z</time></trkpt><trkpt lat="42.8897317" lon="11.4793317"><ele>651.5</ele><time>2026-04-26T09:58:33.297Z</time></trkpt><trkpt lat="42.88964" lon="11.47945"><ele>655.0</ele><time>2026-04-26T09:58:34.294Z</time></trkpt><trkpt lat="42.88954" lon="11.4795533"><ele>657.75</ele><time>2026-04-26T09:58:35.298Z</time></trkpt><trkpt lat="42.8894283" lon="11.4796483"><ele>660.5</ele><time>2026-04-26T09:58:36.296Z</time></trkpt><trkpt lat="42.8893167" lon="11.47974"><ele>663.25</ele><time>2026-04-26T09:58:37.298Z</time></trkpt><trkpt lat="42.8892033" lon="11.479825"><ele>666.0</ele><time>2026-04-26T09:58:38.295Z</time></trkpt><trkpt lat="42.88909" lon="11.4799083"><ele>668.0</ele><time>2026-04-26T09:58:39.296Z</time></trkpt><trkpt lat="42.888975" lon="11.47999"><ele>670.0</ele><time>2026-04-26T09:58:40.296Z</time></trkpt><trkpt lat="42.8888617" lon="11.4800617"><ele>672.0</ele><time>2026-04-26T09:58:41.298Z</time></trkpt><trkpt lat="42.8887483" lon="11.4801233"><ele>674.0</ele><time>2026-04-26T09:58:42.298Z</time></trkpt><trkpt lat="42.8886467" lon="11.4801817"><ele>674.0</ele><time>2026-04-26T09:58:43.296Z</time></trkpt><trkpt lat="42.8885567" lon="11.4802433"><ele>674.0</ele><time>2026-04-26T09:58:44.298Z</time></trkpt><trkpt lat="42.8884733" lon="11.4803067"><ele>674.0</ele><time>2026-04-26T09:58:45.297Z</time></trkpt><trkpt lat="42.888395" lon="11.480385"><ele>674.0</ele><time>2026-04-26T09:58:46.298Z</time></trkpt><trkpt lat="42.88834" lon="11.480475"><ele>674.0</ele><time>2026-04-26T09:58:47.295Z</time></trkpt><trkpt lat="42.8883033" lon="11.4805783"><ele>675.6666666666666</ele><time>2026-04-26T09:58:48.294Z</time></trkpt><trkpt lat="42.8882917" lon="11.4806867"><ele>677.3333333333333</ele><time>2026-04-26T09:58:49.294Z</time></trkpt><trkpt lat="42.8883083" lon="11.4807967"><ele>679.0</ele><time>2026-04-26T09:58:50.296Z</time></trkpt><trkpt lat="42.8883483" lon="11.4808933"><ele>680.6666666666666</ele><time>2026-04-26T09:58:51.295Z</time></trkpt><trkpt lat="42.888405" lon="11.4809683"><ele>682.3333333333334</ele><time>2026-04-26T09:58:52.294Z</time></trkpt><trkpt lat="42.8884683" lon="11.4810217"><ele>684.0</ele><time>2026-04-26T09:58:53.295Z</time></trkpt><trkpt lat="42.8885383" lon="11.4810483"><ele>684.0</ele><time>2026-04-26T09:58:54.297Z</time></trkpt><trkpt lat="42.88864" lon="11.4810833"><ele>684.0</ele><time>2026-04-26T09:58:56.296Z</time></trkpt><trkpt lat="42.888705" lon="11.4811067"><ele>684.0</ele><time>2026-04-26T09:58:58.297Z</time></trkpt><trkpt lat="42.8887667" lon="11.4811367"><ele>684.0</ele><time>2026-04-26T09:59:00.295Z</time></trkpt><trkpt lat="42.8888267" lon="11.48118"><ele>684.0</ele><time>2026-04-26T09:59:02.296Z</time></trkpt><trkpt lat="42.8888217" lon="11.4812783"><ele>684.0</ele><time>2026-04-26T09:59:06.299Z</time></trkpt><trkpt lat="42.8887317" lon="11.4812867"><ele>686.6666666666666</ele><time>2026-04-26T09:59:08.297Z</time></trkpt><trkpt lat="42.8886117" lon="11.4812717"><ele>689.3333333333334</ele><time>2026-04-26T09:59:10.299Z</time></trkpt><trkpt lat="42.888545" lon="11.4812683"><ele>692.0</ele><time>2026-04-26T09:59:11.297Z</time></trkpt><trkpt lat="42.8884717" lon="11.48127"><ele>694.6666666666667</ele><time>2026-04-26T09:59:12.298Z</time></trkpt><trkpt lat="42.888395" lon="11.4812717"><ele>697.3333333333334</ele><time>2026-04-26T09:59:13.297Z</time></trkpt><trkpt lat="42.88831" lon="11.4812733"><ele>700.0</ele><time>2026-04-26T09:59:14.296Z</time></trkpt><trkpt lat="42.8882233" lon="11.4812683"><ele>698.2</ele><time>2026-04-26T09:59:15.297Z</time></trkpt><trkpt lat="42.888135" lon="11.4812583"><ele>696.4</ele><time>2026-04-26T09:59:16.297Z</time></trkpt><trkpt lat="42.888045" lon="11.481245"><ele>694.5999999999999</ele><time>2026-04-26T09:59:17.294Z</time></trkpt><trkpt lat="42.88795" lon="11.4812283"><ele>692.8</ele><time>2026-04-26T09:59:18.297Z</time></trkpt><trkpt lat="42.8878517" lon="11.4811917"><ele>691.0</ele><time>2026-04-26T09:59:19.295Z</time></trkpt><trkpt lat="42.88776" lon="11.481135"><ele>691.0</ele><time>2026-04-26T09:59:20.296Z</time></trkpt><trkpt lat="42.8876733" lon="11.481065"><ele>691.0</ele><time>2026-04-26T09:59:21.295Z</time></trkpt><trkpt lat="42.88759" lon="11.4809833"><ele>691.0</ele><time>2026-04-26T09:59:22.298Z</time></trkpt><trkpt lat="42.8875067" lon="11.48091"><ele>691.0</ele><time>2026-04-26T09:59:23.295Z</time></trkpt><trkpt lat="42.887425" lon="11.480855"><ele>691.0</ele><time>2026-04-26T09:59:24.299Z</time></trkpt><trkpt lat="42.8873333" lon="11.4808133"><ele>692.1666666666667</ele><time>2026-04-26T09:59:25.296Z</time></trkpt><trkpt lat="42.8872433" lon="11.4807733"><ele>693.3333333333334</ele><time>2026-04-26T09:59:26.298Z</time></trkpt><trkpt lat="42.88717" lon="11.4807283"><ele>694.5</ele><time>2026-04-26T09:59:27.297Z</time></trkpt><trkpt lat="42.887105" lon="11.480685"><ele>695.6666666666666</ele><time>2026-04-26T09:59:28.297Z</time></trkpt><trkpt lat="42.8870533" lon="11.480635"><ele>696.8333333333333</ele><time>2026-04-26T09:59:29.296Z</time></trkpt><trkpt lat="42.8869667" lon="11.4805583"><ele>698.0</ele><time>2026-04-26T09:59:31.297Z</time></trkpt><trkpt lat="42.886885" lon="11.4805083"><ele>698.0</ele><time>2026-04-26T09:59:33.297Z</time></trkpt><trkpt lat="42.8868133" lon="11.4804517"><ele>698.0</ele><time>2026-04-26T09:59:35.296Z</time></trkpt><trkpt lat="42.88675" lon="11.48037"><ele>698.0</ele><time>2026-04-26T09:59:37.297Z</time></trkpt><trkpt lat="42.8866817" lon="11.4802583"><ele>698.0</ele><time>2026-04-26T09:59:39.298Z</time></trkpt><trkpt lat="42.8865783" lon="11.48015"><ele>698.0</ele><time>2026-04-26T09:59:41.297Z</time></trkpt><trkpt lat="42.8865233" lon="11.4800833"><ele>698.1666666666666</ele><time>2026-04-26T09:59:42.296Z</time></trkpt><trkpt lat="42.8864683" lon="11.48001"><ele>698.3333333333333</ele><time>2026-04-26T09:59:43.297Z</time></trkpt><trkpt lat="42.8864183" lon="11.4799383"><ele>698.5</ele><time>2026-04-26T09:59:44.296Z</time></trkpt><trkpt lat="42.886355" lon="11.4798133"><ele>698.6666666666666</ele><time>2026-04-26T09:59:46.298Z</time></trkpt><trkpt lat="42.8863217" lon="11.479715"><ele>698.8333333333334</ele><time>2026-04-26T09:59:48.299Z</time></trkpt><trkpt lat="42.8862817" lon="11.47964"><ele>699.0</ele><time>2026-04-26T09:59:51.298Z</time></trkpt><trkpt lat="42.8862133" lon="11.4796633"><ele>699.0</ele><time>2026-04-26T09:59:54.298Z</time></trkpt><trkpt lat="42.8861483" lon="11.479735"><ele>699.0</ele><time>2026-04-26T09:59:56.297Z</time></trkpt><trkpt lat="42.8860733" lon="11.4798367"><ele>699.0</ele><time>2026-04-26T09:59:58.298Z</time></trkpt><trkpt lat="42.886005" lon="11.4799333"><ele>699.0</ele><time>2026-04-26T10:00:00.296Z</time></trkpt><trkpt lat="42.8859333" lon="11.4800217"><ele>699.0</ele><time>2026-04-26T10:00:02.299Z</time></trkpt><trkpt lat="42.8858483" lon="11.4801083"><ele>697.6</ele><time>2026-04-26T10:00:04.298Z</time></trkpt><trkpt lat="42.8857533" lon="11.480165"><ele>696.2</ele><time>2026-04-26T10:00:06.298Z</time></trkpt><trkpt lat="42.885655" lon="11.480195"><ele>694.8000000000001</ele><time>2026-04-26T10:00:08.295Z</time></trkpt><trkpt lat="42.88555" lon="11.480195"><ele>693.4000000000001</ele><time>2026-04-26T10:00:10.295Z</time></trkpt><trkpt lat="42.8854433" lon="11.480155"><ele>692.0</ele><time>2026-04-26T10:00:12.299Z</time></trkpt><trkpt lat="42.885355" lon="11.48009"><ele>692.0</ele><time>2026-04-26T10:00:14.298Z</time></trkpt><trkpt lat="42.8852717" lon="11.4800567"><ele>692.0</ele><time>2026-04-26T10:00:16.299Z</time></trkpt><trkpt lat="42.8851933" lon="11.48004"><ele>692.0</ele><time>2026-04-26T10:00:18.299Z</time></trkpt><trkpt lat="42.8851217" lon="11.4800117"><ele>692.0</ele><time>2026-04-26T10:00:20.298Z</time></trkpt><trkpt lat="42.8850367" lon="11.47997"><ele>692.0</ele><time>2026-04-26T10:00:22.298Z</time></trkpt><trkpt lat="42.8849533" lon="11.47992"><ele>692.0</ele><time>2026-04-26T10:00:24.298Z</time></trkpt><trkpt lat="42.8848683" lon="11.4798733"><ele>692.8333333333333</ele><time>2026-04-26T10:00:26.296Z</time></trkpt><trkpt lat="42.8847767" lon="11.4798367"><ele>693.6666666666666</ele><time>2026-04-26T10:00:28.297Z</time></trkpt><trkpt lat="42.884685" lon="11.4797933"><ele>694.5</ele><time>2026-04-26T10:00:30.295Z</time></trkpt><trkpt lat="42.8846117" lon="11.4797567"><ele>695.3333333333334</ele><time>2026-04-26T10:00:32.296Z</time></trkpt><trkpt lat="42.8845417" lon="11.4797083"><ele>696.1666666666667</ele><time>2026-04-26T10:00:34.296Z</time></trkpt><trkpt lat="42.8844733" lon="11.47967"><ele>697.0</ele><time>2026-04-26T10:00:36.298Z</time></trkpt><trkpt lat="42.8844067" lon="11.479635"><ele>697.1428571428571</ele><time>2026-04-26T10:00:38.295Z</time></trkpt><trkpt lat="42.8843317" lon="11.4795967"><ele>697.2857142857142</ele><time>2026-04-26T10:00:41.298Z</time></trkpt><trkpt lat="42.8842667" lon="11.4795333"><ele>697.4285714285713</ele><time>2026-04-26T10:00:44.296Z</time></trkpt><trkpt lat="42.8842167" lon="11.4794683"><ele>697.5714285714286</ele><time>2026-04-26T10:00:47.297Z</time></trkpt><trkpt lat="42.884145" lon="11.4794083"><ele>697.7142857142857</ele><time>2026-04-26T10:04:50.297Z</time></trkpt><trkpt lat="42.8841" lon="11.4794717"><ele>697.8571428571428</ele><time>2026-04-26T10:04:56.296Z</time></trkpt><trkpt lat="42.88403" lon="11.479485"><ele>698.0</ele><time>2026-04-26T10:05:01.295Z</time></trkpt><trkpt lat="42.8839567" lon="11.4794217"><ele>698.0</ele><time>2026-04-26T10:12:53.292Z</time></trkpt><trkpt lat="42.883835" lon="11.47935"><ele>698.0</ele><time>2026-04-26T10:12:55.297Z</time></trkpt><trkpt lat="42.8837317" lon="11.4793117"><ele>698.0</ele><time>2026-04-26T10:12:56.297Z</time></trkpt><trkpt lat="42.88363" lon="11.4792583"><ele>698.0</ele><time>2026-04-26T10:12:57.297Z</time></trkpt><trkpt lat="42.8835183" lon="11.4792017"><ele>697.75</ele><time>2026-04-26T10:12:58.296Z</time></trkpt><trkpt lat="42.8834017" lon="11.4791383"><ele>697.5</ele><time>2026-04-26T10:12:59.297Z</time></trkpt><trkpt lat="42.88328" lon="11.479065"><ele>697.25</ele><time>2026-04-26T10:13:00.295Z</time></trkpt><trkpt lat="42.8831567" lon="11.4789817"><ele>697.0</ele><time>2026-04-26T10:13:01.297Z</time></trkpt><trkpt lat="42.883045" lon="11.47892"><ele>697.0</ele><time>2026-04-26T10:13:02.298Z</time></trkpt><trkpt lat="42.8829483" lon="11.47889"><ele>697.0</ele><time>2026-04-26T10:13:03.297Z</time></trkpt><trkpt lat="42.8828617" lon="11.4788883"><ele>697.0</ele><time>2026-04-26T10:13:04.296Z</time></trkpt><trkpt lat="42.8827867" lon="11.478895"><ele>697.0</ele><time>2026-04-26T10:13:05.295Z</time></trkpt><trkpt lat="42.8827217" lon="11.478895"><ele>697.0</ele><time>2026-04-26T10:13:06.296Z</time></trkpt><trkpt lat="42.8826133" lon="11.47882"><ele>697.0</ele><time>2026-04-26T10:13:08.297Z</time></trkpt><trkpt lat="42.882575" lon="11.4787417"><ele>697.6666666666667</ele><time>2026-04-26T10:13:09.297Z</time></trkpt><trkpt lat="42.88255" lon="11.47865"><ele>698.3333333333334</ele><time>2026-04-26T10:13:10.296Z</time></trkpt><trkpt lat="42.8825217" lon="11.4785617"><ele>699.0</ele><time>2026-04-26T10:13:11.297Z</time></trkpt><trkpt lat="42.8824833" lon="11.4784867"><ele>699.6666666666666</ele><time>2026-04-26T10:13:12.294Z</time></trkpt><trkpt lat="42.8823617" lon="11.478455"><ele>700.3333333333333</ele><time>2026-04-26T10:13:14.296Z</time></trkpt><trkpt lat="42.882265" lon="11.478475"><ele>701.0</ele><time>2026-04-26T10:13:15.296Z</time></trkpt><trkpt lat="42.882155" lon="11.478495"><ele>701.0</ele><time>2026-04-26T10:13:16.296Z</time></trkpt><trkpt lat="42.88203" lon="11.4785133"><ele>701.0</ele><time>2026-04-26T10:13:17.294Z</time></trkpt><trkpt lat="42.8819033" lon="11.478525"><ele>701.0</ele><time>2026-04-26T10:13:18.294Z</time></trkpt><trkpt lat="42.881775" lon="11.4785233"><ele>701.0</ele><time>2026-04-26T10:13:19.293Z</time></trkpt><trkpt lat="42.88165" lon="11.4785167"><ele>701.8333333333333</ele><time>2026-04-26T10:13:20.294Z</time></trkpt><trkpt lat="42.8815383" lon="11.4785033"><ele>702.6666666666666</ele><time>2026-04-26T10:13:21.294Z</time></trkpt><trkpt lat="42.8814483" lon="11.4784817"><ele>703.5</ele><time>2026-04-26T10:13:22.294Z</time></trkpt><trkpt lat="42.8813733" lon="11.4784517"><ele>704.3333333333334</ele><time>2026-04-26T10:13:23.295Z</time></trkpt><trkpt lat="42.881305" lon="11.4783983"><ele>705.1666666666667</ele><time>2026-04-26T10:13:24.296Z</time></trkpt><trkpt lat="42.8812317" lon="11.478335"><ele>706.0</ele><time>2026-04-26T10:13:25.296Z</time></trkpt><trkpt lat="42.8811567" lon="11.478265"><ele>706.0</ele><time>2026-04-26T10:13:26.297Z</time></trkpt><trkpt lat="42.8810767" lon="11.47819"><ele>706.0</ele><time>2026-04-26T10:13:27.298Z</time></trkpt><trkpt lat="42.8809983" lon="11.4781133"><ele>706.0</ele><time>2026-04-26T10:13:28.296Z</time></trkpt><trkpt lat="42.8809117" lon="11.4780367"><ele>706.0</ele><time>2026-04-26T10:13:29.296Z</time></trkpt><trkpt lat="42.88082" lon="11.4779633"><ele>706.0</ele><time>2026-04-26T10:13:30.296Z</time></trkpt><trkpt lat="42.8807233" lon="11.4779"><ele>707.4</ele><time>2026-04-26T10:13:31.296Z</time></trkpt><trkpt lat="42.8806267" lon="11.477845"><ele>708.8</ele><time>2026-04-26T10:13:32.296Z</time></trkpt><trkpt lat="42.8805217" lon="11.4777967"><ele>710.1999999999999</ele><time>2026-04-26T10:13:33.297Z</time></trkpt><trkpt lat="42.8804167" lon="11.4777567"><ele>711.5999999999999</ele><time>2026-04-26T10:13:34.296Z</time></trkpt><trkpt lat="42.8803083" lon="11.4777217"><ele>713.0</ele><time>2026-04-26T10:13:35.296Z</time></trkpt><trkpt lat="42.8801983" lon="11.4777083"><ele>715.0</ele><time>2026-04-26T10:13:36.293Z</time></trkpt><trkpt lat="42.880095" lon="11.4776917"><ele>717.0</ele><time>2026-04-26T10:13:37.294Z</time></trkpt><trkpt lat="42.8799967" lon="11.4776867"><ele>719.0</ele><time>2026-04-26T10:13:38.296Z</time></trkpt><trkpt lat="42.879895" lon="11.4776883"><ele>721.0</ele><time>2026-04-26T10:13:39.293Z</time></trkpt><trkpt lat="42.8798" lon="11.4776883"><ele>723.0</ele><time>2026-04-26T10:13:40.294Z</time></trkpt><trkpt lat="42.879705" lon="11.4776833"><ele>723.0</ele><time>2026-04-26T10:13:41.297Z</time></trkpt><trkpt lat="42.87961" lon="11.477675"><ele>723.0</ele><time>2026-04-26T10:13:42.293Z</time></trkpt><trkpt lat="42.87952" lon="11.4776583"><ele>723.0</ele><time>2026-04-26T10:13:43.294Z</time></trkpt><trkpt lat="42.8794333" lon="11.477635"><ele>723.0</ele><time>2026-04-26T10:13:44.296Z</time></trkpt><trkpt lat="42.8793567" lon="11.4776"><ele>723.0</ele><time>2026-04-26T10:13:45.297Z</time></trkpt><trkpt lat="42.879285" lon="11.4775567"><ele>723.0</ele><time>2026-04-26T10:13:46.296Z</time></trkpt><trkpt lat="42.8792217" lon="11.4775"><ele>723.8333333333334</ele><time>2026-04-26T10:13:47.296Z</time></trkpt><trkpt lat="42.8791583" lon="11.4774367"><ele>724.6666666666666</ele><time>2026-04-26T10:13:48.293Z</time></trkpt><trkpt lat="42.8791017" lon="11.4773567"><ele>725.5</ele><time>2026-04-26T10:13:49.296Z</time></trkpt><trkpt lat="42.8790483" lon="11.4772717"><ele>726.3333333333333</ele><time>2026-04-26T10:13:50.297Z</time></trkpt><trkpt lat="42.8789933" lon="11.4771833"><ele>727.1666666666666</ele><time>2026-04-26T10:13:51.293Z</time></trkpt><trkpt lat="42.8789367" lon="11.4770883"><ele>728.0</ele><time>2026-04-26T10:13:52.296Z</time></trkpt><trkpt lat="42.878875" lon="11.4769933"><ele>728.0</ele><time>2026-04-26T10:13:53.293Z</time></trkpt><trkpt lat="42.87881" lon="11.4768983"><ele>728.0</ele><time>2026-04-26T10:13:54.295Z</time></trkpt><trkpt lat="42.87874" lon="11.476805"><ele>728.0</ele><time>2026-04-26T10:13:55.296Z</time></trkpt><trkpt lat="42.8786683" lon="11.47671"><ele>728.0</ele><time>2026-04-26T10:13:56.299Z</time></trkpt><trkpt lat="42.8785967" lon="11.4766133"><ele>728.0</ele><time>2026-04-26T10:13:57.298Z</time></trkpt><trkpt lat="42.8785283" lon="11.4765117"><ele>728.0</ele><time>2026-04-26T10:13:58.293Z</time></trkpt><trkpt lat="42.8784633" lon="11.47641"><ele>728.0</ele><time>2026-04-26T10:13:59.294Z</time></trkpt><trkpt lat="42.8784" lon="11.476305"><ele>728.0</ele><time>2026-04-26T10:14:00.294Z</time></trkpt><trkpt lat="42.8783383" lon="11.4761983"><ele>728.0</ele><time>2026-04-26T10:14:01.296Z</time></trkpt><trkpt lat="42.8782817" lon="11.47609"><ele>728.0</ele><time>2026-04-26T10:14:02.295Z</time></trkpt><trkpt lat="42.87823" lon="11.4759783"><ele>729.8</ele><time>2026-04-26T10:14:03.296Z</time></trkpt><trkpt lat="42.8781767" lon="11.4758617"><ele>731.5999999999999</ele><time>2026-04-26T10:14:04.297Z</time></trkpt><trkpt lat="42.8781383" lon="11.47575"><ele>733.4000000000001</ele><time>2026-04-26T10:14:05.297Z</time></trkpt><trkpt lat="42.8781083" lon="11.4756267"><ele>735.2</ele><time>2026-04-26T10:14:06.297Z</time></trkpt><trkpt lat="42.8780817" lon="11.47551"><ele>737.0</ele><time>2026-04-26T10:14:07.294Z</time></trkpt><trkpt lat="42.87806" lon="11.475405"><ele>737.1666666666666</ele><time>2026-04-26T10:14:08.293Z</time></trkpt><trkpt lat="42.8780233" lon="11.4753133"><ele>737.3333333333333</ele><time>2026-04-26T10:14:09.293Z</time></trkpt><trkpt lat="42.87798" lon="11.47522"><ele>737.5</ele><time>2026-04-26T10:14:10.294Z</time></trkpt><trkpt lat="42.87793" lon="11.4751267"><ele>737.6666666666666</ele><time>2026-04-26T10:14:11.293Z</time></trkpt><trkpt lat="42.8778717" lon="11.4750317"><ele>737.8333333333334</ele><time>2026-04-26T10:14:12.294Z</time></trkpt><trkpt lat="42.8778067" lon="11.4749417"><ele>738.0</ele><time>2026-04-26T10:14:13.298Z</time></trkpt><trkpt lat="42.8777383" lon="11.4748483"><ele>738.0</ele><time>2026-04-26T10:14:14.296Z</time></trkpt><trkpt lat="42.8776717" lon="11.4747617"><ele>738.0</ele><time>2026-04-26T10:14:15.296Z</time></trkpt><trkpt lat="42.8776183" lon="11.4746817"><ele>738.0</ele><time>2026-04-26T10:14:16.298Z</time></trkpt><trkpt lat="42.8775783" lon="11.4746"><ele>738.0</ele><time>2026-04-26T10:14:17.297Z</time></trkpt><trkpt lat="42.8775417" lon="11.474505"><ele>738.0</ele><time>2026-04-26T10:14:18.297Z</time></trkpt><trkpt lat="42.8775083" lon="11.4744083"><ele>738.0</ele><time>2026-04-26T10:14:19.293Z</time></trkpt><trkpt lat="42.87749" lon="11.4742967"><ele>740.1666666666666</ele><time>2026-04-26T10:14:20.294Z</time></trkpt><trkpt lat="42.8774783" lon="11.4741717"><ele>742.3333333333334</ele><time>2026-04-26T10:14:21.294Z</time></trkpt><trkpt lat="42.8774667" lon="11.474055"><ele>744.5</ele><time>2026-04-26T10:14:22.294Z</time></trkpt><trkpt lat="42.8774483" lon="11.4739383"><ele>746.6666666666667</ele><time>2026-04-26T10:14:23.294Z</time></trkpt><trkpt lat="42.87743" lon="11.47383"><ele>748.8333333333334</ele><time>2026-04-26T10:14:24.296Z</time></trkpt><trkpt lat="42.877405" lon="11.47373"><ele>751.0</ele><time>2026-04-26T10:14:25.296Z</time></trkpt><trkpt lat="42.87736" lon="11.47363"><ele>751.0</ele><time>2026-04-26T10:14:26.294Z</time></trkpt><trkpt lat="42.8772817" lon="11.4735217"><ele>751.0</ele><time>2026-04-26T10:14:27.293Z</time></trkpt><trkpt lat="42.87718" lon="11.473415"><ele>751.0</ele><time>2026-04-26T10:14:28.296Z</time></trkpt><trkpt lat="42.8770917" lon="11.47332"><ele>751.0</ele><time>2026-04-26T10:14:29.294Z</time></trkpt><trkpt lat="42.8769917" lon="11.4732217"><ele>751.0</ele><time>2026-04-26T10:14:30.296Z</time></trkpt><trkpt lat="42.8768967" lon="11.4731317"><ele>751.0</ele><time>2026-04-26T10:14:31.293Z</time></trkpt><trkpt lat="42.8768067" lon="11.473045"><ele>751.0</ele><time>2026-04-26T10:14:32.297Z</time></trkpt><trkpt lat="42.87672" lon="11.4729533"><ele>751.0</ele><time>2026-04-26T10:14:33.293Z</time></trkpt><trkpt lat="42.8766317" lon="11.4728583"><ele>751.0</ele><time>2026-04-26T10:14:34.294Z</time></trkpt><trkpt lat="42.8765317" lon="11.4727483"><ele>751.0</ele><time>2026-04-26T10:14:35.293Z</time></trkpt><trkpt lat="42.8764533" lon="11.472655"><ele>751.0</ele><time>2026-04-26T10:14:36.295Z</time></trkpt><trkpt lat="42.87637" lon="11.47257"><ele>751.0</ele><time>2026-04-26T10:14:37.293Z</time></trkpt><trkpt lat="42.8762883" lon="11.4724933"><ele>751.0</ele><time>2026-04-26T10:14:38.294Z</time></trkpt><trkpt lat="42.87619" lon="11.4724167"><ele>751.0</ele><time>2026-04-26T10:14:39.293Z</time></trkpt><trkpt lat="42.8760983" lon="11.472335"><ele>751.0</ele><time>2026-04-26T10:14:40.297Z</time></trkpt><trkpt lat="42.8760083" lon="11.4722467"><ele>751.0</ele><time>2026-04-26T10:14:41.294Z</time></trkpt><trkpt lat="42.8759283" lon="11.4721533"><ele>751.0</ele><time>2026-04-26T10:14:42.296Z</time></trkpt><trkpt lat="42.8758583" lon="11.4720583"><ele>751.0</ele><time>2026-04-26T10:14:43.296Z</time></trkpt><trkpt lat="42.8757933" lon="11.4719767"><ele>751.0</ele><time>2026-04-26T10:14:44.297Z</time></trkpt><trkpt lat="42.875725" lon="11.4719133"><ele>751.6666666666667</ele><time>2026-04-26T10:14:45.297Z</time></trkpt><trkpt lat="42.875655" lon="11.4718517"><ele>752.3333333333334</ele><time>2026-04-26T10:14:46.296Z</time></trkpt><trkpt lat="42.87558" lon="11.4718067"><ele>753.0</ele><time>2026-04-26T10:14:47.295Z</time></trkpt><trkpt lat="42.8755117" lon="11.4717667"><ele>753.6666666666666</ele><time>2026-04-26T10:14:48.295Z</time></trkpt><trkpt lat="42.87544" lon="11.47172"><ele>754.3333333333333</ele><time>2026-04-26T10:14:49.294Z</time></trkpt><trkpt lat="42.87537" lon="11.4716783"><ele>755.0</ele><time>2026-04-26T10:14:50.295Z</time></trkpt><trkpt lat="42.8753167" lon="11.47162"><ele>755.0</ele><time>2026-04-26T10:14:51.294Z</time></trkpt><trkpt lat="42.87525" lon="11.4714983"><ele>755.0</ele><time>2026-04-26T10:14:53.294Z</time></trkpt><trkpt lat="42.8752133" lon="11.47132"><ele>755.0</ele><time>2026-04-26T10:14:55.297Z</time></trkpt><trkpt lat="42.8752067" lon="11.471215"><ele>755.0</ele><time>2026-04-26T10:14:56.296Z</time></trkpt><trkpt lat="42.8751883" lon="11.471115"><ele>755.0</ele><time>2026-04-26T10:14:57.294Z</time></trkpt><trkpt lat="42.8751717" lon="11.4710133"><ele>753.4</ele><time>2026-04-26T10:14:58.297Z</time></trkpt><trkpt lat="42.8751367" lon="11.4709283"><ele>751.8</ele><time>2026-04-26T10:14:59.297Z</time></trkpt><trkpt lat="42.87508" lon="11.4708383"><ele>750.2</ele><time>2026-04-26T10:15:00.298Z</time></trkpt><trkpt lat="42.8749967" lon="11.4707333"><ele>748.6</ele><time>2026-04-26T10:15:01.296Z</time></trkpt><trkpt lat="42.8749233" lon="11.4706417"><ele>747.0</ele><time>2026-04-26T10:15:02.296Z</time></trkpt><trkpt lat="42.874845" lon="11.4705517"><ele>750.0</ele><time>2026-04-26T10:15:03.294Z</time></trkpt><trkpt lat="42.8747667" lon="11.4704567"><ele>753.0</ele><time>2026-04-26T10:15:04.297Z</time></trkpt><trkpt lat="42.8746983" lon="11.47037"><ele>756.0</ele><time>2026-04-26T10:15:05.297Z</time></trkpt><trkpt lat="42.8746267" lon="11.4702883"><ele>759.0</ele><time>2026-04-26T10:15:06.297Z</time></trkpt><trkpt lat="42.8745567" lon="11.4702167"><ele>762.0</ele><time>2026-04-26T10:15:07.296Z</time></trkpt><trkpt lat="42.8744883" lon="11.470155"><ele>762.0</ele><time>2026-04-26T10:15:08.296Z</time></trkpt><trkpt lat="42.87442" lon="11.4701033"><ele>762.0</ele><time>2026-04-26T10:15:09.298Z</time></trkpt><trkpt lat="42.874355" lon="11.470055"><ele>762.0</ele><time>2026-04-26T10:15:10.293Z</time></trkpt><trkpt lat="42.8742917" lon="11.4700033"><ele>762.0</ele><time>2026-04-26T10:15:11.297Z</time></trkpt><trkpt lat="42.8742233" lon="11.4699883"><ele>762.0</ele><time>2026-04-26T10:15:12.294Z</time></trkpt><trkpt lat="42.874145" lon="11.47001"><ele>762.0</ele><time>2026-04-26T10:15:13.295Z</time></trkpt><trkpt lat="42.8740617" lon="11.4700783"><ele>764.6</ele><time>2026-04-26T10:15:14.293Z</time></trkpt><trkpt lat="42.8740017" lon="11.470155"><ele>767.2</ele><time>2026-04-26T10:15:15.294Z</time></trkpt><trkpt lat="42.87395" lon="11.47025"><ele>769.8</ele><time>2026-04-26T10:15:16.295Z</time></trkpt><trkpt lat="42.8739033" lon="11.4703767"><ele>772.4</ele><time>2026-04-26T10:15:17.294Z</time></trkpt><trkpt lat="42.8738683" lon="11.47049"><ele>775.0</ele><time>2026-04-26T10:15:18.295Z</time></trkpt><trkpt lat="42.8738283" lon="11.47062"><ele>776.6</ele><time>2026-04-26T10:15:19.293Z</time></trkpt><trkpt lat="42.87378" lon="11.47076"><ele>778.2</ele><time>2026-04-26T10:15:20.295Z</time></trkpt><trkpt lat="42.873735" lon="11.4708917"><ele>779.8</ele><time>2026-04-26T10:15:21.293Z</time></trkpt><trkpt lat="42.8736883" lon="11.4710217"><ele>781.4</ele><time>2026-04-26T10:15:22.296Z</time></trkpt><trkpt lat="42.87364" lon="11.4711317"><ele>783.0</ele><time>2026-04-26T10:15:23.294Z</time></trkpt><trkpt lat="42.87359" lon="11.4712233"><ele>785.6666666666666</ele><time>2026-04-26T10:15:24.294Z</time></trkpt><trkpt lat="42.8735317" lon="11.4712983"><ele>788.3333333333333</ele><time>2026-04-26T10:15:25.294Z</time></trkpt><trkpt lat="42.8734733" lon="11.47136"><ele>791.0</ele><time>2026-04-26T10:15:26.294Z</time></trkpt><trkpt lat="42.8734083" lon="11.471425"><ele>793.6666666666666</ele><time>2026-04-26T10:15:27.293Z</time></trkpt><trkpt lat="42.873325" lon="11.4714733"><ele>796.3333333333333</ele><time>2026-04-26T10:15:28.294Z</time></trkpt><trkpt lat="42.8732367" lon="11.4715117"><ele>799.0</ele><time>2026-04-26T10:15:29.294Z</time></trkpt><trkpt lat="42.87314" lon="11.4715483"><ele>799.0</ele><time>2026-04-26T10:15:30.297Z</time></trkpt><trkpt lat="42.87304" lon="11.4715817"><ele>799.0</ele><time>2026-04-26T10:15:31.294Z</time></trkpt><trkpt lat="42.87293" lon="11.4716133"><ele>799.0</ele><time>2026-04-26T10:15:32.297Z</time></trkpt><trkpt lat="42.8728133" lon="11.4716433"><ele>799.0</ele><time>2026-04-26T10:15:33.294Z</time></trkpt><trkpt lat="42.8726933" lon="11.4716767"><ele>800.5</ele><time>2026-04-26T10:15:34.294Z</time></trkpt><trkpt lat="42.8725733" lon="11.4717117"><ele>802.0</ele><time>2026-04-26T10:15:35.294Z</time></trkpt><trkpt lat="42.8724533" lon="11.4717483"><ele>803.5</ele><time>2026-04-26T10:15:36.295Z</time></trkpt><trkpt lat="42.8723283" lon="11.4717867"><ele>805.0</ele><time>2026-04-26T10:15:37.295Z</time></trkpt><trkpt lat="42.8722133" lon="11.471825"><ele>805.0</ele><time>2026-04-26T10:15:38.294Z</time></trkpt><trkpt lat="42.8720917" lon="11.471865"><ele>805.0</ele><time>2026-04-26T10:15:39.295Z</time></trkpt><trkpt lat="42.871975" lon="11.4719117"><ele>805.0</ele><time>2026-04-26T10:15:40.294Z</time></trkpt><trkpt lat="42.87187" lon="11.471955"><ele>805.0</ele><time>2026-04-26T10:15:41.295Z</time></trkpt><trkpt lat="42.8717733" lon="11.4720167"><ele>805.0</ele><time>2026-04-26T10:15:42.294Z</time></trkpt><trkpt lat="42.8716833" lon="11.472095"><ele>805.0</ele><time>2026-04-26T10:15:43.298Z</time></trkpt><trkpt lat="42.871585" lon="11.4721933"><ele>805.0</ele><time>2026-04-26T10:15:44.296Z</time></trkpt><trkpt lat="42.8714917" lon="11.4723033"><ele>805.0</ele><time>2026-04-26T10:15:45.293Z</time></trkpt><trkpt lat="42.8714067" lon="11.47241"><ele>808.6</ele><time>2026-04-26T10:15:46.293Z</time></trkpt><trkpt lat="42.8713217" lon="11.4725067"><ele>812.2</ele><time>2026-04-26T10:15:47.294Z</time></trkpt><trkpt lat="42.871225" lon="11.4725833"><ele>815.8</ele><time>2026-04-26T10:15:48.295Z</time></trkpt><trkpt lat="42.87113" lon="11.47265"><ele>819.4</ele><time>2026-04-26T10:15:49.294Z</time></trkpt><trkpt lat="42.8710333" lon="11.472705"><ele>823.0</ele><time>2026-04-26T10:15:50.295Z</time></trkpt><trkpt lat="42.8709467" lon="11.4727567"><ele>821.4999999999999</ele><time>2026-04-26T10:15:51.296Z</time></trkpt><trkpt lat="42.8708717" lon="11.4728133"><ele>820.0</ele><time>2026-04-26T10:15:52.293Z</time></trkpt><trkpt lat="42.8708017" lon="11.4728733"><ele>818.5</ele><time>2026-04-26T10:15:53.293Z</time></trkpt><trkpt lat="42.8707383" lon="11.4729283"><ele>817.0</ele><time>2026-04-26T10:15:54.294Z</time></trkpt><trkpt lat="42.8706717" lon="11.473005"><ele>815.4999999999999</ele><time>2026-04-26T10:15:55.294Z</time></trkpt><trkpt lat="42.8706033" lon="11.4730883"><ele>814.0</ele><time>2026-04-26T10:15:56.298Z</time></trkpt><trkpt lat="42.87053" lon="11.4732033"><ele>819.4000000000001</ele><time>2026-04-26T10:15:57.297Z</time></trkpt><trkpt lat="42.8704583" lon="11.4733017"><ele>824.8</ele><time>2026-04-26T10:15:58.295Z</time></trkpt><trkpt lat="42.8703833" lon="11.4733833"><ele>830.2</ele><time>2026-04-26T10:15:59.295Z</time></trkpt><trkpt lat="42.8703067" lon="11.4734383"><ele>835.5999999999999</ele><time>2026-04-26T10:16:00.296Z</time></trkpt><trkpt lat="42.870225" lon="11.4734867"><ele>841.0</ele><time>2026-04-26T10:16:01.294Z</time></trkpt><trkpt lat="42.8701383" lon="11.4735133"><ele>837.75</ele><time>2026-04-26T10:16:02.297Z</time></trkpt><trkpt lat="42.8700483" lon="11.4735367"><ele>834.5</ele><time>2026-04-26T10:16:03.294Z</time></trkpt><trkpt lat="42.86993" lon="11.4735617"><ele>831.25</ele><time>2026-04-26T10:16:04.296Z</time></trkpt><trkpt lat="42.8697983" lon="11.4735933"><ele>828.0</ele><time>2026-04-26T10:16:05.294Z</time></trkpt><trkpt lat="42.8696667" lon="11.4736333"><ele>828.0</ele><time>2026-04-26T10:16:06.297Z</time></trkpt><trkpt lat="42.869545" lon="11.4736733"><ele>828.0</ele><time>2026-04-26T10:16:07.296Z</time></trkpt><trkpt lat="42.869415" lon="11.4737183"><ele>828.0</ele><time>2026-04-26T10:16:08.296Z</time></trkpt><trkpt lat="42.8692983" lon="11.47377"><ele>828.0</ele><time>2026-04-26T10:16:09.293Z</time></trkpt><trkpt lat="42.8691883" lon="11.473845"><ele>834.0</ele><time>2026-04-26T10:16:10.295Z</time></trkpt><trkpt lat="42.86909" lon="11.4739133"><ele>840.0</ele><time>2026-04-26T10:16:11.294Z</time></trkpt><trkpt lat="42.8689933" lon="11.4739883"><ele>846.0</ele><time>2026-04-26T10:16:12.295Z</time></trkpt><trkpt lat="42.8689133" lon="11.4740717"><ele>852.0</ele><time>2026-04-26T10:16:13.294Z</time></trkpt><trkpt lat="42.86884" lon="11.474165"><ele>858.0</ele><time>2026-04-26T10:16:14.296Z</time></trkpt><trkpt lat="42.8687783" lon="11.4742583"><ele>858.0</ele><time>2026-04-26T10:16:15.294Z</time></trkpt><trkpt lat="42.868715" lon="11.47435"><ele>858.0</ele><time>2026-04-26T10:16:16.295Z</time></trkpt><trkpt lat="42.86865" lon="11.4744183"><ele>858.0</ele><time>2026-04-26T10:16:17.295Z</time></trkpt><trkpt lat="42.86858" lon="11.4744733"><ele>858.0</ele><time>2026-04-26T10:16:18.295Z</time></trkpt><trkpt lat="42.8685067" lon="11.474515"><ele>858.0</ele><time>2026-04-26T10:16:19.295Z</time></trkpt><trkpt lat="42.8684367" lon="11.47457"><ele>858.0</ele><time>2026-04-26T10:16:20.296Z</time></trkpt><trkpt lat="42.86837" lon="11.4746283"><ele>861.4</ele><time>2026-04-26T10:16:21.297Z</time></trkpt><trkpt lat="42.8683117" lon="11.4746933"><ele>864.8</ele><time>2026-04-26T10:16:22.294Z</time></trkpt><trkpt lat="42.86825" lon="11.4747717"><ele>868.2</ele><time>2026-04-26T10:16:23.295Z</time></trkpt><trkpt lat="42.868185" lon="11.4748717"><ele>871.6</ele><time>2026-04-26T10:16:24.294Z</time></trkpt><trkpt lat="42.8681317" lon="11.4749817"><ele>875.0</ele><time>2026-04-26T10:16:25.295Z</time></trkpt><trkpt lat="42.86808" lon="11.4751"><ele>875.0</ele><time>2026-04-26T10:16:26.294Z</time></trkpt><trkpt lat="42.86802" lon="11.4752267"><ele>875.0</ele><time>2026-04-26T10:16:27.295Z</time></trkpt><trkpt lat="42.86796" lon="11.4753533"><ele>875.0</ele><time>2026-04-26T10:16:28.296Z</time></trkpt><trkpt lat="42.8678983" lon="11.475465"><ele>875.0</ele><time>2026-04-26T10:16:29.296Z</time></trkpt><trkpt lat="42.8678317" lon="11.475575"><ele>875.0</ele><time>2026-04-26T10:16:30.297Z</time></trkpt><trkpt lat="42.8677583" lon="11.47568"><ele>876.0</ele><time>2026-04-26T10:16:31.295Z</time></trkpt><trkpt lat="42.86768" lon="11.475775"><ele>877.0</ele><time>2026-04-26T10:16:32.295Z</time></trkpt><trkpt lat="42.867605" lon="11.475875"><ele>878.0</ele><time>2026-04-26T10:16:33.295Z</time></trkpt><trkpt lat="42.8675283" lon="11.47597"><ele>879.0</ele><time>2026-04-26T10:16:34.295Z</time></trkpt><trkpt lat="42.867455" lon="11.4760667"><ele>880.0</ele><time>2026-04-26T10:16:35.296Z</time></trkpt><trkpt lat="42.867385" lon="11.4761483"><ele>880.0</ele><time>2026-04-26T10:16:36.296Z</time></trkpt><trkpt lat="42.86731" lon="11.4762217"><ele>880.0</ele><time>2026-04-26T10:16:37.296Z</time></trkpt><trkpt lat="42.8672217" lon="11.476285"><ele>880.0</ele><time>2026-04-26T10:16:38.295Z</time></trkpt><trkpt lat="42.8671167" lon="11.4763417"><ele>880.0</ele><time>2026-04-26T10:16:39.294Z</time></trkpt><trkpt lat="42.8670017" lon="11.47639"><ele>880.0</ele><time>2026-04-26T10:16:40.295Z</time></trkpt><trkpt lat="42.8668917" lon="11.4764383"><ele>883.8333333333333</ele><time>2026-04-26T10:16:41.295Z</time></trkpt><trkpt lat="42.8668033" lon="11.4764883"><ele>887.6666666666666</ele><time>2026-04-26T10:16:42.295Z</time></trkpt><trkpt lat="42.8667267" lon="11.4765333"><ele>891.5</ele><time>2026-04-26T10:16:43.295Z</time></trkpt><trkpt lat="42.8666467" lon="11.47657"><ele>895.3333333333333</ele><time>2026-04-26T10:16:44.296Z</time></trkpt><trkpt lat="42.8665683" lon="11.4765883"><ele>899.1666666666666</ele><time>2026-04-26T10:16:45.296Z</time></trkpt><trkpt lat="42.866485" lon="11.47661"><ele>903.0</ele><time>2026-04-26T10:16:46.296Z</time></trkpt><trkpt lat="42.8663967" lon="11.4766033"><ele>903.0</ele><time>2026-04-26T10:16:47.292Z</time></trkpt><trkpt lat="42.8663117" lon="11.4765717"><ele>903.0</ele><time>2026-04-26T10:16:48.294Z</time></trkpt><trkpt lat="42.8662283" lon="11.47652"><ele>903.0</ele><time>2026-04-26T10:16:49.293Z</time></trkpt><trkpt lat="42.866155" lon="11.476465"><ele>903.0</ele><time>2026-04-26T10:16:50.293Z</time></trkpt><trkpt lat="42.866075" lon="11.47642"><ele>903.0</ele><time>2026-04-26T10:16:51.293Z</time></trkpt><trkpt lat="42.8659917" lon="11.4763967"><ele>903.0</ele><time>2026-04-26T10:16:52.293Z</time></trkpt><trkpt lat="42.86588" lon="11.4764217"><ele>904.5999999999999</ele><time>2026-04-26T10:16:54.293Z</time></trkpt><trkpt lat="42.8658183" lon="11.47646"><ele>906.1999999999999</ele><time>2026-04-26T10:16:55.292Z</time></trkpt><trkpt lat="42.865785" lon="11.4765633"><ele>907.8</ele><time>2026-04-26T10:16:56.294Z</time></trkpt><trkpt lat="42.8657467" lon="11.4766967"><ele>909.4</ele><time>2026-04-26T10:16:57.292Z</time></trkpt><trkpt lat="42.8657133" lon="11.4768383"><ele>911.0</ele><time>2026-04-26T10:16:58.292Z</time></trkpt><trkpt lat="42.865675" lon="11.47696"><ele>911.0000000000001</ele><time>2026-04-26T10:16:59.296Z</time></trkpt><trkpt lat="42.8656367" lon="11.4770717"><ele>911.0</ele><time>2026-04-26T10:17:00.295Z</time></trkpt><trkpt lat="42.8655933" lon="11.47716"><ele>911.0</ele><time>2026-04-26T10:17:01.296Z</time></trkpt><trkpt lat="42.865545" lon="11.4772267"><ele>911.0</ele><time>2026-04-26T10:17:02.295Z</time></trkpt><trkpt lat="42.8654583" lon="11.4772683"><ele>911.0000000000001</ele><time>2026-04-26T10:17:04.296Z</time></trkpt><trkpt lat="42.865355" lon="11.477205"><ele>911.0</ele><time>2026-04-26T10:17:06.295Z</time></trkpt><trkpt lat="42.86529" lon="11.4771567"><ele>911.0</ele><time>2026-04-26T10:17:07.296Z</time></trkpt><trkpt lat="42.86522" lon="11.4770933"><ele>910.9999999999999</ele><time>2026-04-26T10:17:08.298Z</time></trkpt><trkpt lat="42.8651567" lon="11.4770367"><ele>910.9999999999999</ele><time>2026-04-26T10:17:09.295Z</time></trkpt><trkpt lat="42.8650883" lon="11.4769317"><ele>911.0</ele><time>2026-04-26T10:17:10.297Z</time></trkpt><trkpt lat="42.8650133" lon="11.4768167"><ele>911.0</ele><time>2026-04-26T10:17:11.296Z</time></trkpt><trkpt lat="42.8649433" lon="11.4767133"><ele>912.8</ele><time>2026-04-26T10:17:12.296Z</time></trkpt><trkpt lat="42.8648683" lon="11.4766067"><ele>914.5999999999999</ele><time>2026-04-26T10:17:13.296Z</time></trkpt><trkpt lat="42.8648" lon="11.4765033"><ele>916.4</ele><time>2026-04-26T10:17:14.298Z</time></trkpt><trkpt lat="42.864735" lon="11.4764"><ele>918.2</ele><time>2026-04-26T10:17:15.296Z</time></trkpt><trkpt lat="42.86467" lon="11.4763"><ele>920.0</ele><time>2026-04-26T10:17:16.293Z</time></trkpt><trkpt lat="42.8646" lon="11.4762"><ele>920.2</ele><time>2026-04-26T10:17:17.294Z</time></trkpt><trkpt lat="42.8645267" lon="11.47611"><ele>920.4</ele><time>2026-04-26T10:17:18.293Z</time></trkpt><trkpt lat="42.864465" lon="11.47601"><ele>920.5999999999999</ele><time>2026-04-26T10:17:19.294Z</time></trkpt><trkpt lat="42.8644" lon="11.47592"><ele>920.8</ele><time>2026-04-26T10:17:20.294Z</time></trkpt><trkpt lat="42.86434" lon="11.4758333"><ele>921.0</ele><time>2026-04-26T10:17:21.295Z</time></trkpt><trkpt lat="42.8642833" lon="11.475755"><ele>922.7142857142858</ele><time>2026-04-26T10:17:22.295Z</time></trkpt><trkpt lat="42.8642267" lon="11.4756917"><ele>924.4285714285714</ele><time>2026-04-26T10:17:23.293Z</time></trkpt><trkpt lat="42.8641667" lon="11.4756483"><ele>926.1428571428571</ele><time>2026-04-26T10:17:24.298Z</time></trkpt><trkpt lat="42.864105" lon="11.4756233"><ele>927.8571428571429</ele><time>2026-04-26T10:17:25.296Z</time></trkpt><trkpt lat="42.8640383" lon="11.4756317"><ele>929.5714285714284</ele><time>2026-04-26T10:17:26.296Z</time></trkpt><trkpt lat="42.86397" lon="11.4756683"><ele>931.2857142857142</ele><time>2026-04-26T10:17:27.295Z</time></trkpt><trkpt lat="42.8639017" lon="11.4756983"><ele>933.0</ele><time>2026-04-26T10:17:28.296Z</time></trkpt><trkpt lat="42.8638383" lon="11.4757217"><ele>933.0</ele><time>2026-04-26T10:17:29.296Z</time></trkpt><trkpt lat="42.8637183" lon="11.4756983"><ele>933.0</ele><time>2026-04-26T10:17:31.296Z</time></trkpt><trkpt lat="42.86365" lon="11.4756533"><ele>933.0</ele><time>2026-04-26T10:17:32.296Z</time></trkpt><trkpt lat="42.86357" lon="11.4756133"><ele>933.0</ele><time>2026-04-26T10:17:33.296Z</time></trkpt><trkpt lat="42.8634867" lon="11.4755767"><ele>933.0</ele><time>2026-04-26T10:17:34.296Z</time></trkpt><trkpt lat="42.8634" lon="11.4755483"><ele>934.1666666666666</ele><time>2026-04-26T10:17:35.295Z</time></trkpt><trkpt lat="42.8633133" lon="11.4755267"><ele>935.3333333333333</ele><time>2026-04-26T10:17:36.296Z</time></trkpt><trkpt lat="42.8632333" lon="11.4755033"><ele>936.5</ele><time>2026-04-26T10:17:37.296Z</time></trkpt><trkpt lat="42.8631533" lon="11.47548"><ele>937.6666666666666</ele><time>2026-04-26T10:17:38.295Z</time></trkpt><trkpt lat="42.8630733" lon="11.4754517"><ele>938.8333333333333</ele><time>2026-04-26T10:17:39.295Z</time></trkpt><trkpt lat="42.8629933" lon="11.47542"><ele>940.0</ele><time>2026-04-26T10:17:40.295Z</time></trkpt><trkpt lat="42.862915" lon="11.475385"><ele>941.8333333333333</ele><time>2026-04-26T10:17:41.297Z</time></trkpt><trkpt lat="42.86284" lon="11.4753483"><ele>943.6666666666666</ele><time>2026-04-26T10:17:42.295Z</time></trkpt><trkpt lat="42.8627683" lon="11.47531"><ele>945.5</ele><time>2026-04-26T10:17:43.295Z</time></trkpt><trkpt lat="42.8626933" lon="11.475265"><ele>947.3333333333333</ele><time>2026-04-26T10:17:44.296Z</time></trkpt><trkpt lat="42.8626133" lon="11.4752067"><ele>949.1666666666666</ele><time>2026-04-26T10:17:45.295Z</time></trkpt><trkpt lat="42.8625267" lon="11.4751383"><ele>951.0</ele><time>2026-04-26T10:17:46.295Z</time></trkpt><trkpt lat="42.8624317" lon="11.4750667"><ele>951.5999999999999</ele><time>2026-04-26T10:17:47.294Z</time></trkpt><trkpt lat="42.8623367" lon="11.474995"><ele>952.1999999999999</ele><time>2026-04-26T10:17:48.292Z</time></trkpt><trkpt lat="42.8622433" lon="11.4749283"><ele>952.8000000000001</ele><time>2026-04-26T10:17:49.293Z</time></trkpt><trkpt lat="42.8621517" lon="11.4748683"><ele>953.4000000000001</ele><time>2026-04-26T10:17:50.293Z</time></trkpt><trkpt lat="42.86206" lon="11.4748167"><ele>954.0</ele><time>2026-04-26T10:17:51.292Z</time></trkpt><trkpt lat="42.8619733" lon="11.474765"><ele>954.0</ele><time>2026-04-26T10:17:52.294Z</time></trkpt><trkpt lat="42.8618933" lon="11.4747033"><ele>954.0</ele><time>2026-04-26T10:17:53.293Z</time></trkpt><trkpt lat="42.8618217" lon="11.474645"><ele>954.0</ele><time>2026-04-26T10:17:54.295Z</time></trkpt><trkpt lat="42.8617567" lon="11.4745833"><ele>954.0</ele><time>2026-04-26T10:17:55.296Z</time></trkpt><trkpt lat="42.8617" lon="11.474525"><ele>954.0</ele><time>2026-04-26T10:17:56.295Z</time></trkpt><trkpt lat="42.861625" lon="11.474415"><ele>954.0</ele><time>2026-04-26T10:17:58.296Z</time></trkpt><trkpt lat="42.8616167" lon="11.4742967"><ele>957.4000000000001</ele><time>2026-04-26T10:18:00.297Z</time></trkpt><trkpt lat="42.8616467" lon="11.474155"><ele>960.8000000000001</ele><time>2026-04-26T10:18:02.296Z</time></trkpt><trkpt lat="42.8616883" lon="11.4740033"><ele>964.1999999999999</ele><time>2026-04-26T10:18:04.295Z</time></trkpt><trkpt lat="42.8616867" lon="11.4738467"><ele>967.5999999999999</ele><time>2026-04-26T10:18:06.296Z</time></trkpt><trkpt lat="42.8616217" lon="11.4737467"><ele>971.0</ele><time>2026-04-26T10:18:08.297Z</time></trkpt><trkpt lat="42.8615017" lon="11.4737017"><ele>972.0000000000001</ele><time>2026-04-26T10:18:10.295Z</time></trkpt><trkpt lat="42.861385" lon="11.47364"><ele>973.0</ele><time>2026-04-26T10:18:12.295Z</time></trkpt><trkpt lat="42.86132" lon="11.4736083"><ele>974.0</ele><time>2026-04-26T10:18:13.296Z</time></trkpt><trkpt lat="42.8612567" lon="11.4735783"><ele>975.0</ele><time>2026-04-26T10:18:14.296Z</time></trkpt><trkpt lat="42.8611967" lon="11.4735433"><ele>976.0000000000001</ele><time>2026-04-26T10:18:15.296Z</time></trkpt><trkpt lat="42.8611417" lon="11.4734967"><ele>977.0</ele><time>2026-04-26T10:18:16.296Z</time></trkpt><trkpt lat="42.8610867" lon="11.4734333"><ele>977.0000000000001</ele><time>2026-04-26T10:18:17.295Z</time></trkpt><trkpt lat="42.861035" lon="11.47337"><ele>977.0</ele><time>2026-04-26T10:18:18.297Z</time></trkpt><trkpt lat="42.86098" lon="11.4733217"><ele>977.0000000000001</ele><time>2026-04-26T10:18:19.295Z</time></trkpt><trkpt lat="42.860915" lon="11.4732817"><ele>977.0000000000001</ele><time>2026-04-26T10:18:20.296Z</time></trkpt><trkpt lat="42.8608467" lon="11.473245"><ele>977.0</ele><time>2026-04-26T10:18:21.296Z</time></trkpt><trkpt lat="42.86078" lon="11.4732067"><ele>977.0000000000001</ele><time>2026-04-26T10:18:22.295Z</time></trkpt><trkpt lat="42.86072" lon="11.4731767"><ele>977.0000000000001</ele><time>2026-04-26T10:18:23.296Z</time></trkpt><trkpt lat="42.8606583" lon="11.4731417"><ele>978.2857142857144</ele><time>2026-04-26T10:18:24.293Z</time></trkpt><trkpt lat="42.860585" lon="11.4731067"><ele>979.5714285714287</ele><time>2026-04-26T10:18:25.296Z</time></trkpt><trkpt lat="42.860505" lon="11.4730817"><ele>980.8571428571429</ele><time>2026-04-26T10:18:26.296Z</time></trkpt><trkpt lat="42.8604283" lon="11.4730733"><ele>982.1428571428572</ele><time>2026-04-26T10:18:27.293Z</time></trkpt><trkpt lat="42.8603583" lon="11.4730783"><ele>983.4285714285716</ele><time>2026-04-26T10:18:28.296Z</time></trkpt><trkpt lat="42.860295" lon="11.4731033"><ele>984.7142857142857</ele><time>2026-04-26T10:18:29.297Z</time></trkpt><trkpt lat="42.86023" lon="11.4731433"><ele>986.0</ele><time>2026-04-26T10:18:30.296Z</time></trkpt><trkpt lat="42.860155" lon="11.4731767"><ele>986.3333333333334</ele><time>2026-04-26T10:18:31.296Z</time></trkpt><trkpt lat="42.8600833" lon="11.4732033"><ele>986.6666666666667</ele><time>2026-04-26T10:18:32.295Z</time></trkpt><trkpt lat="42.8600133" lon="11.4732117"><ele>987.0</ele><time>2026-04-26T10:18:33.295Z</time></trkpt><trkpt lat="42.8599383" lon="11.4732"><ele>987.3333333333333</ele><time>2026-04-26T10:18:34.296Z</time></trkpt><trkpt lat="42.8598667" lon="11.4731683"><ele>987.6666666666666</ele><time>2026-04-26T10:18:35.297Z</time></trkpt><trkpt lat="42.85977" lon="11.4731033"><ele>988.0</ele><time>2026-04-26T10:18:37.295Z</time></trkpt><trkpt lat="42.8597083" lon="11.4731283"><ele>987.9999999999999</ele><time>2026-04-26T10:18:40.297Z</time></trkpt><trkpt lat="42.8597" lon="11.4732183"><ele>988.0</ele><time>2026-04-26T10:18:42.297Z</time></trkpt><trkpt lat="42.8596833" lon="11.4733083"><ele>988.0</ele><time>2026-04-26T10:18:44.294Z</time></trkpt><trkpt lat="42.8596717" lon="11.4734183"><ele>988.0</ele><time>2026-04-26T10:18:46.293Z</time></trkpt><trkpt lat="42.8596533" lon="11.4735633"><ele>987.9999999999999</ele><time>2026-04-26T10:18:48.297Z</time></trkpt><trkpt lat="42.8596383" lon="11.47365"><ele>988.0</ele><time>2026-04-26T10:18:49.295Z</time></trkpt><trkpt lat="42.859625" lon="11.4737467"><ele>987.1666666666666</ele><time>2026-04-26T10:18:50.295Z</time></trkpt><trkpt lat="42.859615" lon="11.4738467"><ele>986.3333333333333</ele><time>2026-04-26T10:18:51.295Z</time></trkpt><trkpt lat="42.859605" lon="11.4739533"><ele>985.5</ele><time>2026-04-26T10:18:52.295Z</time></trkpt><trkpt lat="42.8596033" lon="11.4740583"><ele>984.6666666666667</ele><time>2026-04-26T10:18:53.296Z</time></trkpt><trkpt lat="42.8595983" lon="11.474165"><ele>983.8333333333334</ele><time>2026-04-26T10:18:54.295Z</time></trkpt><trkpt lat="42.859595" lon="11.4742733"><ele>983.0</ele><time>2026-04-26T10:18:55.292Z</time></trkpt><trkpt lat="42.859595" lon="11.474385"><ele>983.0000000000001</ele><time>2026-04-26T10:18:56.297Z</time></trkpt><trkpt lat="42.859595" lon="11.4745"><ele>983.0</ele><time>2026-04-26T10:18:57.297Z</time></trkpt><trkpt lat="42.8595917" lon="11.4746217"><ele>983.0</ele><time>2026-04-26T10:18:58.294Z</time></trkpt><trkpt lat="42.8595867" lon="11.47474"><ele>983.0</ele><time>2026-04-26T10:18:59.296Z</time></trkpt><trkpt lat="42.859585" lon="11.4748583"><ele>983.0000000000001</ele><time>2026-04-26T10:19:00.293Z</time></trkpt><trkpt lat="42.859585" lon="11.474975"><ele>983.0</ele><time>2026-04-26T10:19:01.293Z</time></trkpt><trkpt lat="42.859575" lon="11.4751"><ele>982.0</ele><time>2026-04-26T10:19:02.294Z</time></trkpt><trkpt lat="42.8595683" lon="11.475225"><ele>981.0</ele><time>2026-04-26T10:19:03.294Z</time></trkpt><trkpt lat="42.8595617" lon="11.4753633"><ele>980.0</ele><time>2026-04-26T10:19:04.293Z</time></trkpt><trkpt lat="42.8595533" lon="11.4754983"><ele>979.0</ele><time>2026-04-26T10:19:05.296Z</time></trkpt><trkpt lat="42.85954" lon="11.475625"><ele>978.0</ele><time>2026-04-26T10:19:06.292Z</time></trkpt><trkpt lat="42.859525" lon="11.475755"><ele>977.1666666666666</ele><time>2026-04-26T10:19:07.293Z</time></trkpt><trkpt lat="42.8595133" lon="11.4758767"><ele>976.3333333333333</ele><time>2026-04-26T10:19:08.294Z</time></trkpt><trkpt lat="42.8594917" lon="11.475995"><ele>975.5</ele><time>2026-04-26T10:19:09.294Z</time></trkpt><trkpt lat="42.8594567" lon="11.47611"><ele>974.6666666666666</ele><time>2026-04-26T10:19:10.296Z</time></trkpt><trkpt lat="42.8594283" lon="11.4762117"><ele>973.8333333333333</ele><time>2026-04-26T10:19:11.293Z</time></trkpt><trkpt lat="42.8594033" lon="11.4763067"><ele>973.0</ele><time>2026-04-26T10:19:12.294Z</time></trkpt><trkpt lat="42.8593867" lon="11.4763933"><ele>972.6666666666666</ele><time>2026-04-26T10:19:13.294Z</time></trkpt><trkpt lat="42.8593817" lon="11.4764817"><ele>972.3333333333333</ele><time>2026-04-26T10:19:14.296Z</time></trkpt><trkpt lat="42.8593983" lon="11.4765717"><ele>972.0</ele><time>2026-04-26T10:19:15.294Z</time></trkpt><trkpt lat="42.8594333" lon="11.4766883"><ele>971.6666666666667</ele><time>2026-04-26T10:19:16.293Z</time></trkpt><trkpt lat="42.859465" lon="11.47682"><ele>971.3333333333334</ele><time>2026-04-26T10:19:17.297Z</time></trkpt><trkpt lat="42.8594867" lon="11.476945"><ele>971.0</ele><time>2026-04-26T10:19:18.294Z</time></trkpt><trkpt lat="42.8595033" lon="11.477075"><ele>972.1999999999999</ele><time>2026-04-26T10:19:19.294Z</time></trkpt><trkpt lat="42.859525" lon="11.4772083"><ele>973.3999999999999</ele><time>2026-04-26T10:19:20.293Z</time></trkpt><trkpt lat="42.859555" lon="11.477345"><ele>974.6</ele><time>2026-04-26T10:19:21.293Z</time></trkpt><trkpt lat="42.8595983" lon="11.47748"><ele>975.8</ele><time>2026-04-26T10:19:22.294Z</time></trkpt><trkpt lat="42.8596433" lon="11.47762"><ele>977.0</ele><time>2026-04-26T10:19:23.295Z</time></trkpt><trkpt lat="42.8596883" lon="11.4777583"><ele>977.0</ele><time>2026-04-26T10:19:24.294Z</time></trkpt><trkpt lat="42.8597367" lon="11.477895"><ele>977.0</ele><time>2026-04-26T10:19:25.298Z</time></trkpt><trkpt lat="42.859785" lon="11.4780333"><ele>977.0</ele><time>2026-04-26T10:19:26.294Z</time></trkpt><trkpt lat="42.85983" lon="11.478165"><ele>977.0</ele><time>2026-04-26T10:19:27.296Z</time></trkpt><trkpt lat="42.859875" lon="11.47829"><ele>977.0</ele><time>2026-04-26T10:19:28.296Z</time></trkpt><trkpt lat="42.859925" lon="11.47841"><ele>977.6</ele><time>2026-04-26T10:19:29.296Z</time></trkpt><trkpt lat="42.8599567" lon="11.478535"><ele>978.2</ele><time>2026-04-26T10:19:30.297Z</time></trkpt><trkpt lat="42.85998" lon="11.47866"><ele>978.8</ele><time>2026-04-26T10:19:31.295Z</time></trkpt><trkpt lat="42.8599983" lon="11.4787833"><ele>979.4</ele><time>2026-04-26T10:19:32.292Z</time></trkpt><trkpt lat="42.8600033" lon="11.47891"><ele>980.0</ele><time>2026-04-26T10:19:33.293Z</time></trkpt><trkpt lat="42.8600067" lon="11.4790367"><ele>980.4</ele><time>2026-04-26T10:19:34.293Z</time></trkpt><trkpt lat="42.8599967" lon="11.4791683"><ele>980.8</ele><time>2026-04-26T10:19:35.292Z</time></trkpt><trkpt lat="42.8599767" lon="11.4792917"><ele>981.2</ele><time>2026-04-26T10:19:36.293Z</time></trkpt><trkpt lat="42.8599567" lon="11.47941"><ele>981.6</ele><time>2026-04-26T10:19:37.294Z</time></trkpt><trkpt lat="42.8599417" lon="11.4795267"><ele>982.0</ele><time>2026-04-26T10:19:38.293Z</time></trkpt><trkpt lat="42.8599383" lon="11.4796517"><ele>981.3333333333333</ele><time>2026-04-26T10:19:39.293Z</time></trkpt><trkpt lat="42.8599417" lon="11.4797767"><ele>980.6666666666666</ele><time>2026-04-26T10:19:40.296Z</time></trkpt><trkpt lat="42.8599383" lon="11.4799"><ele>980.0</ele><time>2026-04-26T10:19:41.293Z</time></trkpt><trkpt lat="42.8599267" lon="11.4800133"><ele>979.3333333333333</ele><time>2026-04-26T10:19:42.297Z</time></trkpt><trkpt lat="42.8599083" lon="11.48012"><ele>978.6666666666666</ele><time>2026-04-26T10:19:43.296Z</time></trkpt><trkpt lat="42.8598667" lon="11.4802267"><ele>978.0</ele><time>2026-04-26T10:19:44.297Z</time></trkpt><trkpt lat="42.8597983" lon="11.4803333"><ele>978.0</ele><time>2026-04-26T10:19:45.295Z</time></trkpt><trkpt lat="42.8597017" lon="11.4804167"><ele>978.0</ele><time>2026-04-26T10:19:46.299Z</time></trkpt><trkpt lat="42.8595933" lon="11.4804933"><ele>978.0</ele><time>2026-04-26T10:19:47.296Z</time></trkpt><trkpt lat="42.85948" lon="11.480555"><ele>978.0</ele><time>2026-04-26T10:19:48.296Z</time></trkpt><trkpt lat="42.8593633" lon="11.4806067"><ele>978.0</ele><time>2026-04-26T10:19:49.296Z</time></trkpt><trkpt lat="42.859245" lon="11.4806467"><ele>978.0</ele><time>2026-04-26T10:19:50.296Z</time></trkpt><trkpt lat="42.8591267" lon="11.48068"><ele>978.0</ele><time>2026-04-26T10:19:51.296Z</time></trkpt><trkpt lat="42.8590133" lon="11.4807033"><ele>978.0</ele><time>2026-04-26T10:19:52.296Z</time></trkpt><trkpt lat="42.8589067" lon="11.480735"><ele>978.0</ele><time>2026-04-26T10:19:53.297Z</time></trkpt><trkpt lat="42.8588017" lon="11.4807617"><ele>978.0</ele><time>2026-04-26T10:19:54.296Z</time></trkpt><trkpt lat="42.8586917" lon="11.48077"><ele>978.0</ele><time>2026-04-26T10:19:55.296Z</time></trkpt><trkpt lat="42.8585833" lon="11.4807567"><ele>978.0</ele><time>2026-04-26T10:19:56.295Z</time></trkpt><trkpt lat="42.8584867" lon="11.4807483"><ele>978.0</ele><time>2026-04-26T10:19:57.295Z</time></trkpt><trkpt lat="42.8583983" lon="11.4807533"><ele>980.1666666666666</ele><time>2026-04-26T10:19:58.296Z</time></trkpt><trkpt lat="42.85832" lon="11.4807717"><ele>982.3333333333333</ele><time>2026-04-26T10:19:59.295Z</time></trkpt><trkpt lat="42.85824" lon="11.48081"><ele>984.5</ele><time>2026-04-26T10:20:00.297Z</time></trkpt><trkpt lat="42.8581617" lon="11.480855"><ele>986.6666666666666</ele><time>2026-04-26T10:20:01.292Z</time></trkpt><trkpt lat="42.8580783" lon="11.4809117"><ele>988.8333333333333</ele><time>2026-04-26T10:20:02.294Z</time></trkpt><trkpt lat="42.857985" lon="11.4809733"><ele>991.0</ele><time>2026-04-26T10:20:03.296Z</time></trkpt><trkpt lat="42.857885" lon="11.4810317"><ele>991.0</ele><time>2026-04-26T10:20:04.294Z</time></trkpt><trkpt lat="42.8577833" lon="11.4810883"><ele>990.9999999999999</ele><time>2026-04-26T10:20:05.296Z</time></trkpt><trkpt lat="42.8576883" lon="11.4811217"><ele>990.9999999999999</ele><time>2026-04-26T10:20:06.296Z</time></trkpt><trkpt lat="42.8576" lon="11.48114"><ele>991.0</ele><time>2026-04-26T10:20:07.296Z</time></trkpt><trkpt lat="42.8575167" lon="11.4811433"><ele>991.0</ele><time>2026-04-26T10:20:08.296Z</time></trkpt><trkpt lat="42.8574433" lon="11.4811283"><ele>991.1666666666666</ele><time>2026-04-26T10:20:09.296Z</time></trkpt><trkpt lat="42.8573733" lon="11.481115"><ele>991.3333333333333</ele><time>2026-04-26T10:20:10.296Z</time></trkpt><trkpt lat="42.8573033" lon="11.4811183"><ele>991.5</ele><time>2026-04-26T10:20:11.296Z</time></trkpt><trkpt lat="42.857225" lon="11.481155"><ele>991.6666666666667</ele><time>2026-04-26T10:20:12.298Z</time></trkpt><trkpt lat="42.8571417" lon="11.4812117"><ele>991.8333333333334</ele><time>2026-04-26T10:20:13.297Z</time></trkpt><trkpt lat="42.8570533" lon="11.4812783"><ele>992.0</ele><time>2026-04-26T10:20:14.296Z</time></trkpt><trkpt lat="42.8569617" lon="11.48134"><ele>992.0</ele><time>2026-04-26T10:20:15.296Z</time></trkpt><trkpt lat="42.856865" lon="11.4813917"><ele>992.0</ele><time>2026-04-26T10:20:16.296Z</time></trkpt><trkpt lat="42.85677" lon="11.4814233"><ele>992.0</ele><time>2026-04-26T10:20:17.294Z</time></trkpt><trkpt lat="42.8566733" lon="11.4814367"><ele>992.0</ele><time>2026-04-26T10:20:18.296Z</time></trkpt><trkpt lat="42.8565667" lon="11.48142"><ele>992.0</ele><time>2026-04-26T10:20:19.296Z</time></trkpt><trkpt lat="42.85646" lon="11.48139"><ele>994.2</ele><time>2026-04-26T10:20:20.295Z</time></trkpt><trkpt lat="42.8563533" lon="11.4813567"><ele>996.4000000000001</ele><time>2026-04-26T10:20:21.296Z</time></trkpt><trkpt lat="42.8562633" lon="11.4813367"><ele>998.5999999999999</ele><time>2026-04-26T10:20:22.297Z</time></trkpt><trkpt lat="42.8561883" lon="11.4813233"><ele>1000.8</ele><time>2026-04-26T10:20:23.298Z</time></trkpt><trkpt lat="42.8561217" lon="11.481315"><ele>1003.0</ele><time>2026-04-26T10:20:24.292Z</time></trkpt><trkpt lat="42.856015" lon="11.4813217"><ele>1004.3333333333333</ele><time>2026-04-26T10:20:26.296Z</time></trkpt><trkpt lat="42.8559417" lon="11.4813633"><ele>1005.6666666666666</ele><time>2026-04-26T10:20:28.296Z</time></trkpt><trkpt lat="42.8558617" lon="11.4813917"><ele>1007.0</ele><time>2026-04-26T10:20:31.292Z</time></trkpt><trkpt lat="42.8558" lon="11.4814117"><ele>1008.3333333333333</ele><time>2026-04-26T10:20:35.295Z</time></trkpt><trkpt lat="42.8557267" lon="11.4814483"><ele>1009.6666666666666</ele><time>2026-04-26T10:20:39.293Z</time></trkpt><trkpt lat="42.8556517" lon="11.4814817"><ele>1011.0</ele><time>2026-04-26T10:20:42.297Z</time></trkpt><trkpt lat="42.8555917" lon="11.481525"><ele>1010.9999999999999</ele><time>2026-04-26T10:20:44.297Z</time></trkpt><trkpt lat="42.8555067" lon="11.481565"><ele>1011.0</ele><time>2026-04-26T10:20:47.296Z</time></trkpt><trkpt lat="42.8555513" lon="11.4814978"><ele>1010.9999999999999</ele><time>2026-04-26T10:23:50.295Z</time></trkpt><trkpt lat="42.8556206" lon="11.4814651"><ele>1010.9999999999999</ele><time>2026-04-26T10:23:57.296Z</time></trkpt><trkpt lat="42.8556857" lon="11.4814356"><ele>1011.0</ele><time>2026-04-26T10:24:27.294Z</time></trkpt><trkpt lat="42.8557184" lon="11.4813563"><ele>1010.9999999999999</ele><time>2026-04-26T10:24:34.296Z</time></trkpt><trkpt lat="42.8557287" lon="11.4812681"><ele>1010.9999999999999</ele><time>2026-04-26T10:24:42.297Z</time></trkpt><trkpt lat="42.8557561" lon="11.4811809"><ele>1010.9999999999999</ele><time>2026-04-26T10:24:53.297Z</time></trkpt><trkpt lat="42.8557309" lon="11.4810998"><ele>1011.0</ele><time>2026-04-26T10:25:01.296Z</time></trkpt><trkpt lat="42.8557292" lon="11.4811877"><ele>1010.9999999999999</ele><time>2026-04-26T10:43:09.294Z</time></trkpt><trkpt lat="42.8557358" lon="11.4812741"><ele>1010.9999999999999</ele><time>2026-04-26T10:43:30.295Z</time></trkpt><trkpt lat="42.8557614" lon="11.4813553"><ele>1011.0</ele><time>2026-04-26T10:47:30.295Z</time></trkpt><trkpt lat="42.8558205" lon="11.4812325"><ele>1010.9999999999999</ele><time>2026-04-26T10:48:51.295Z</time></trkpt><trkpt lat="42.8557528" lon="11.4812089"><ele>1010.9999999999999</ele><time>2026-04-26T10:49:58.295Z</time></trkpt><trkpt lat="42.85567" lon="11.4811362"><ele>1010.9999999999999</ele><time>2026-04-26T10:50:26.295Z</time></trkpt><trkpt lat="42.8557414" lon="11.4811263"><ele>1011.0</ele><time>2026-04-26T10:50:47.295Z</time></trkpt><trkpt lat="42.8557633" lon="11.4812438"><ele>1010.9999999999999</ele><time>2026-04-26T10:51:59.296Z</time></trkpt><trkpt lat="42.8557035" lon="11.4813175"><ele>1010.9999999999999</ele><time>2026-04-26T10:54:25.295Z</time></trkpt><trkpt lat="42.8556309" lon="11.4813376"><ele>1011.0</ele><time>2026-04-26T10:54:29.294Z</time></trkpt><trkpt lat="42.8555886" lon="11.4814081"><ele>1010.9999999999999</ele><time>2026-04-26T10:54:37.295Z</time></trkpt><trkpt lat="42.8555426" lon="11.4814727"><ele>1010.9999999999999</ele><time>2026-04-26T10:54:44.296Z</time></trkpt><trkpt lat="42.8554826" lon="11.4815069"><ele>1011.0</ele><time>2026-04-26T10:54:55.295Z</time></trkpt><trkpt lat="42.8554563" lon="11.4816447"><ele>1010.9999999999999</ele><time>2026-04-26T11:01:18.293Z</time></trkpt><trkpt lat="42.8554533" lon="11.4817897"><ele>1010.9999999999999</ele><time>2026-04-26T11:01:20.294Z</time></trkpt><trkpt lat="42.8554205" lon="11.4819691"><ele>1011.0</ele><time>2026-04-26T11:01:22.292Z</time></trkpt><trkpt lat="42.8553877" lon="11.4820615"><ele>1011.0</ele><time>2026-04-26T11:01:23.292Z</time></trkpt><trkpt lat="42.8553526" lon="11.4821488"><ele>1011.1999999999999</ele><time>2026-04-26T11:01:24.296Z</time></trkpt><trkpt lat="42.8553154" lon="11.4822298"><ele>1011.3999999999999</ele><time>2026-04-26T11:01:25.292Z</time></trkpt><trkpt lat="42.8552366" lon="11.4823537"><ele>1011.6</ele><time>2026-04-26T11:01:27.297Z</time></trkpt><trkpt lat="42.8551858" lon="11.4824047"><ele>1011.8</ele><time>2026-04-26T11:01:28.292Z</time></trkpt><trkpt lat="42.855083" lon="11.4825041"><ele>1012.0</ele><time>2026-04-26T11:01:30.293Z</time></trkpt><trkpt lat="42.8549708" lon="11.4825628"><ele>1011.9999999999999</ele><time>2026-04-26T11:01:32.293Z</time></trkpt><trkpt lat="42.8548766" lon="11.4825974"><ele>1012.0</ele><time>2026-04-26T11:01:34.294Z</time></trkpt><trkpt lat="42.8548049" lon="11.4826138"><ele>1012.0</ele><time>2026-04-26T11:01:36.293Z</time></trkpt><trkpt lat="42.8547103" lon="11.4826349"><ele>1012.0</ele><time>2026-04-26T11:01:39.292Z</time></trkpt><trkpt lat="42.8546336" lon="11.4826513"><ele>1011.9999999999999</ele><time>2026-04-26T11:01:41.295Z</time></trkpt><trkpt lat="42.8545367" lon="11.4826683"><ele>1012.0</ele><time>2026-04-26T11:01:43.297Z</time></trkpt><trkpt lat="42.8544283" lon="11.48271"><ele>1012.0</ele><time>2026-04-26T11:01:45.298Z</time></trkpt><trkpt lat="42.8543167" lon="11.4827717"><ele>1012.0</ele><time>2026-04-26T11:01:47.296Z</time></trkpt><trkpt lat="42.8542117" lon="11.4828517"><ele>1012.0</ele><time>2026-04-26T11:01:49.295Z</time></trkpt><trkpt lat="42.8541567" lon="11.4828983"><ele>1012.0</ele><time>2026-04-26T11:01:50.297Z</time></trkpt><trkpt lat="42.8540983" lon="11.4829567"><ele>1012.0</ele><time>2026-04-26T11:01:51.295Z</time></trkpt><trkpt lat="42.85404" lon="11.48302"><ele>1011.1666666666666</ele><time>2026-04-26T11:01:52.295Z</time></trkpt><trkpt lat="42.8539833" lon="11.4830917"><ele>1010.3333333333333</ele><time>2026-04-26T11:01:53.297Z</time></trkpt><trkpt lat="42.8539317" lon="11.483175"><ele>1009.5</ele><time>2026-04-26T11:01:54.296Z</time></trkpt><trkpt lat="42.8538867" lon="11.4832667"><ele>1008.6666666666667</ele><time>2026-04-26T11:01:55.297Z</time></trkpt><trkpt lat="42.853855" lon="11.4833683"><ele>1007.8333333333334</ele><time>2026-04-26T11:01:56.296Z</time></trkpt><trkpt lat="42.853835" lon="11.4834733"><ele>1007.0</ele><time>2026-04-26T11:01:57.297Z</time></trkpt><trkpt lat="42.8538317" lon="11.483585"><ele>1007.0000000000001</ele><time>2026-04-26T11:01:58.293Z</time></trkpt><trkpt lat="42.8538367" lon="11.483705"><ele>1007.0</ele><time>2026-04-26T11:01:59.293Z</time></trkpt><trkpt lat="42.8538433" lon="11.4838283"><ele>1007.0</ele><time>2026-04-26T11:02:00.294Z</time></trkpt><trkpt lat="42.8538533" lon="11.4839567"><ele>1007.0</ele><time>2026-04-26T11:02:01.292Z</time></trkpt><trkpt lat="42.85386" lon="11.4840767"><ele>1007.0000000000001</ele><time>2026-04-26T11:02:02.293Z</time></trkpt><trkpt lat="42.85386" lon="11.484185"><ele>1007.0</ele><time>2026-04-26T11:02:03.292Z</time></trkpt><trkpt lat="42.8538483" lon="11.484275"><ele>1005.5</ele><time>2026-04-26T11:02:04.296Z</time></trkpt><trkpt lat="42.8537967" lon="11.4844067"><ele>1004.0</ele><time>2026-04-26T11:02:06.294Z</time></trkpt><trkpt lat="42.8536517" lon="11.4844283"><ele>1002.5</ele><time>2026-04-26T11:02:08.293Z</time></trkpt><trkpt lat="42.8535583" lon="11.484425"><ele>1001.0</ele><time>2026-04-26T11:02:09.292Z</time></trkpt><trkpt lat="42.8534533" lon="11.484415"><ele>1004.0</ele><time>2026-04-26T11:02:10.292Z</time></trkpt><trkpt lat="42.8533417" lon="11.4843933"><ele>1007.0</ele><time>2026-04-26T11:02:11.295Z</time></trkpt><trkpt lat="42.8532233" lon="11.4843683"><ele>1010.0</ele><time>2026-04-26T11:02:12.292Z</time></trkpt><trkpt lat="42.8531033" lon="11.4843383"><ele>1013.0</ele><time>2026-04-26T11:02:13.293Z</time></trkpt><trkpt lat="42.8529833" lon="11.484315"><ele>1013.0</ele><time>2026-04-26T11:02:14.293Z</time></trkpt><trkpt lat="42.8528733" lon="11.484295"><ele>1013.0</ele><time>2026-04-26T11:02:15.296Z</time></trkpt><trkpt lat="42.8527683" lon="11.48429"><ele>1013.0</ele><time>2026-04-26T11:02:16.296Z</time></trkpt><trkpt lat="42.8526683" lon="11.4842867"><ele>1013.0</ele><time>2026-04-26T11:02:17.297Z</time></trkpt><trkpt lat="42.8525733" lon="11.4842933"><ele>1013.0</ele><time>2026-04-26T11:02:18.296Z</time></trkpt><trkpt lat="42.85249" lon="11.4843133"><ele>1013.3333333333334</ele><time>2026-04-26T11:02:19.293Z</time></trkpt><trkpt lat="42.852415" lon="11.4843517"><ele>1013.6666666666667</ele><time>2026-04-26T11:02:20.297Z</time></trkpt><trkpt lat="42.8523417" lon="11.4844167"><ele>1014.0</ele><time>2026-04-26T11:02:21.295Z</time></trkpt><trkpt lat="42.8522883" lon="11.4844967"><ele>1014.3333333333333</ele><time>2026-04-26T11:02:22.297Z</time></trkpt><trkpt lat="42.8522367" lon="11.4845817"><ele>1014.6666666666666</ele><time>2026-04-26T11:02:23.297Z</time></trkpt><trkpt lat="42.852175" lon="11.4846533"><ele>1015.0</ele><time>2026-04-26T11:02:24.292Z</time></trkpt><trkpt lat="42.8521083" lon="11.4847133"><ele>1013.9999999999999</ele><time>2026-04-26T11:02:25.296Z</time></trkpt><trkpt lat="42.8520333" lon="11.48477"><ele>1013.0</ele><time>2026-04-26T11:02:26.297Z</time></trkpt><trkpt lat="42.8519583" lon="11.4848317"><ele>1012.0</ele><time>2026-04-26T11:02:27.295Z</time></trkpt><trkpt lat="42.8518917" lon="11.484915"><ele>1011.0</ele><time>2026-04-26T11:02:28.292Z</time></trkpt><trkpt lat="42.8518367" lon="11.4850133"><ele>1009.9999999999999</ele><time>2026-04-26T11:02:29.292Z</time></trkpt><trkpt lat="42.8518033" lon="11.485125"><ele>1009.0</ele><time>2026-04-26T11:02:30.292Z</time></trkpt><trkpt lat="42.85179" lon="11.4852417"><ele>1006.6666666666666</ele><time>2026-04-26T11:02:31.293Z</time></trkpt><trkpt lat="42.8517967" lon="11.4853583"><ele>1004.3333333333333</ele><time>2026-04-26T11:02:32.293Z</time></trkpt><trkpt lat="42.85181" lon="11.485475"><ele>1002.0</ele><time>2026-04-26T11:02:33.292Z</time></trkpt><trkpt lat="42.8518367" lon="11.4855883"><ele>999.6666666666667</ele><time>2026-04-26T11:02:34.293Z</time></trkpt><trkpt lat="42.8518833" lon="11.48569"><ele>997.3333333333334</ele><time>2026-04-26T11:02:35.294Z</time></trkpt><trkpt lat="42.8519383" lon="11.4857933"><ele>995.0</ele><time>2026-04-26T11:02:36.292Z</time></trkpt><trkpt lat="42.8519983" lon="11.4858983"><ele>995.0</ele><time>2026-04-26T11:02:37.293Z</time></trkpt><trkpt lat="42.852065" lon="11.4860083"><ele>995.0</ele><time>2026-04-26T11:02:38.293Z</time></trkpt><trkpt lat="42.8521333" lon="11.48612"><ele>995.0</ele><time>2026-04-26T11:02:39.292Z</time></trkpt><trkpt lat="42.852205" lon="11.486225"><ele>995.0</ele><time>2026-04-26T11:02:40.294Z</time></trkpt><trkpt lat="42.8522767" lon="11.4863217"><ele>995.0</ele><time>2026-04-26T11:02:41.297Z</time></trkpt><trkpt lat="42.85235" lon="11.4864117"><ele>994.0</ele><time>2026-04-26T11:02:42.296Z</time></trkpt><trkpt lat="42.8524217" lon="11.4864983"><ele>993.0</ele><time>2026-04-26T11:02:43.3Z</time></trkpt><trkpt lat="42.8524967" lon="11.4865717"><ele>992.0</ele><time>2026-04-26T11:02:44.297Z</time></trkpt><trkpt lat="42.8525733" lon="11.4866333"><ele>991.0</ele><time>2026-04-26T11:02:45.296Z</time></trkpt><trkpt lat="42.8526617" lon="11.4866867"><ele>990.0</ele><time>2026-04-26T11:02:46.297Z</time></trkpt><trkpt lat="42.8527467" lon="11.486735"><ele>988.6</ele><time>2026-04-26T11:02:47.296Z</time></trkpt><trkpt lat="42.85283" lon="11.4867983"><ele>987.2</ele><time>2026-04-26T11:02:48.296Z</time></trkpt><trkpt lat="42.852915" lon="11.4868767"><ele>985.8</ele><time>2026-04-26T11:02:49.296Z</time></trkpt><trkpt lat="42.8530033" lon="11.4869567"><ele>984.4</ele><time>2026-04-26T11:02:50.296Z</time></trkpt><trkpt lat="42.853095" lon="11.4870217"><ele>983.0</ele><time>2026-04-26T11:02:51.292Z</time></trkpt><trkpt lat="42.853185" lon="11.487065"><ele>983.0000000000001</ele><time>2026-04-26T11:02:52.296Z</time></trkpt><trkpt lat="42.85328" lon="11.4870833"><ele>983.0</ele><time>2026-04-26T11:02:53.296Z</time></trkpt><trkpt lat="42.8533633" lon="11.48708"><ele>983.0</ele><time>2026-04-26T11:02:54.296Z</time></trkpt><trkpt lat="42.8534417" lon="11.48707"><ele>983.0</ele><time>2026-04-26T11:02:55.297Z</time></trkpt><trkpt lat="42.8535133" lon="11.487075"><ele>983.0000000000001</ele><time>2026-04-26T11:02:56.296Z</time></trkpt><trkpt lat="42.853575" lon="11.4870967"><ele>983.0</ele><time>2026-04-26T11:02:57.292Z</time></trkpt><trkpt lat="42.853665" lon="11.4872017"><ele>982.2</ele><time>2026-04-26T11:02:59.293Z</time></trkpt><trkpt lat="42.8537033" lon="11.4872833"><ele>981.4</ele><time>2026-04-26T11:03:00.292Z</time></trkpt><trkpt lat="42.853745" lon="11.4873817"><ele>980.6000000000001</ele><time>2026-04-26T11:03:01.294Z</time></trkpt><trkpt lat="42.853795" lon="11.487495"><ele>979.8000000000001</ele><time>2026-04-26T11:03:02.295Z</time></trkpt><trkpt lat="42.853855" lon="11.487625"><ele>979.0</ele><time>2026-04-26T11:03:03.294Z</time></trkpt><trkpt lat="42.8539183" lon="11.4877617"><ele>979.0</ele><time>2026-04-26T11:03:04.296Z</time></trkpt><trkpt lat="42.8539783" lon="11.4878933"><ele>979.0</ele><time>2026-04-26T11:03:05.293Z</time></trkpt><trkpt lat="42.8540417" lon="11.48802"><ele>979.0</ele><time>2026-04-26T11:03:06.292Z</time></trkpt><trkpt lat="42.8541083" lon="11.48815"><ele>979.0</ele><time>2026-04-26T11:03:07.293Z</time></trkpt><trkpt lat="42.8541767" lon="11.48828"><ele>980.5</ele><time>2026-04-26T11:03:08.296Z</time></trkpt><trkpt lat="42.85425" lon="11.48841"><ele>982.0</ele><time>2026-04-26T11:03:09.292Z</time></trkpt><trkpt lat="42.85432" lon="11.4885417"><ele>983.5</ele><time>2026-04-26T11:03:10.293Z</time></trkpt><trkpt lat="42.854395" lon="11.4886683"><ele>985.0</ele><time>2026-04-26T11:03:11.296Z</time></trkpt><trkpt lat="42.854465" lon="11.4888"><ele>981.0</ele><time>2026-04-26T11:03:12.295Z</time></trkpt><trkpt lat="42.8545333" lon="11.48893"><ele>977.0</ele><time>2026-04-26T11:03:13.296Z</time></trkpt><trkpt lat="42.8546067" lon="11.4890633"><ele>973.0</ele><time>2026-04-26T11:03:14.297Z</time></trkpt><trkpt lat="42.8546767" lon="11.4891867"><ele>969.0</ele><time>2026-04-26T11:03:15.293Z</time></trkpt><trkpt lat="42.85474" lon="11.4893083"><ele>969.0</ele><time>2026-04-26T11:03:16.296Z</time></trkpt><trkpt lat="42.8548033" lon="11.48942"><ele>969.0000000000001</ele><time>2026-04-26T11:03:17.296Z</time></trkpt><trkpt lat="42.854865" lon="11.489525"><ele>969.0000000000001</ele><time>2026-04-26T11:03:18.296Z</time></trkpt><trkpt lat="42.8549233" lon="11.489625"><ele>969.0</ele><time>2026-04-26T11:03:19.293Z</time></trkpt><trkpt lat="42.8549817" lon="11.4897217"><ele>969.0</ele><time>2026-04-26T11:03:20.295Z</time></trkpt><trkpt lat="42.8550383" lon="11.4898117"><ele>968.8333333333334</ele><time>2026-04-26T11:03:21.294Z</time></trkpt><trkpt lat="42.855085" lon="11.4899017"><ele>968.6666666666667</ele><time>2026-04-26T11:03:22.295Z</time></trkpt><trkpt lat="42.855125" lon="11.4899933"><ele>968.5</ele><time>2026-04-26T11:03:23.294Z</time></trkpt><trkpt lat="42.8551483" lon="11.4900917"><ele>968.3333333333334</ele><time>2026-04-26T11:03:24.293Z</time></trkpt><trkpt lat="42.8551467" lon="11.4901917"><ele>968.1666666666667</ele><time>2026-04-26T11:03:25.296Z</time></trkpt><trkpt lat="42.8551333" lon="11.49029"><ele>968.0</ele><time>2026-04-26T11:03:26.293Z</time></trkpt><trkpt lat="42.8550967" lon="11.4903717"><ele>966.5999999999999</ele><time>2026-04-26T11:03:27.294Z</time></trkpt><trkpt lat="42.85503" lon="11.4904367"><ele>965.1999999999999</ele><time>2026-04-26T11:03:28.293Z</time></trkpt><trkpt lat="42.8549533" lon="11.4904983"><ele>963.8</ele><time>2026-04-26T11:03:29.295Z</time></trkpt><trkpt lat="42.8548717" lon="11.4905667"><ele>962.4</ele><time>2026-04-26T11:03:30.294Z</time></trkpt><trkpt lat="42.8547933" lon="11.4906567"><ele>961.0</ele><time>2026-04-26T11:03:31.294Z</time></trkpt><trkpt lat="42.8547183" lon="11.4907633"><ele>961.0</ele><time>2026-04-26T11:03:32.294Z</time></trkpt><trkpt lat="42.8546433" lon="11.4908817"><ele>961.0</ele><time>2026-04-26T11:03:33.294Z</time></trkpt><trkpt lat="42.8545683" lon="11.491005"><ele>961.0</ele><time>2026-04-26T11:03:34.294Z</time></trkpt><trkpt lat="42.8544917" lon="11.4911333"><ele>961.0</ele><time>2026-04-26T11:03:35.293Z</time></trkpt><trkpt lat="42.854415" lon="11.49126"><ele>960.5999999999999</ele><time>2026-04-26T11:03:36.293Z</time></trkpt><trkpt lat="42.8543467" lon="11.491375"><ele>960.1999999999999</ele><time>2026-04-26T11:03:37.292Z</time></trkpt><trkpt lat="42.8542867" lon="11.4914833"><ele>959.8000000000001</ele><time>2026-04-26T11:03:38.296Z</time></trkpt><trkpt lat="42.8542417" lon="11.49159"><ele>959.4000000000001</ele><time>2026-04-26T11:03:39.293Z</time></trkpt><trkpt lat="42.8542117" lon="11.4917083"><ele>959.0</ele><time>2026-04-26T11:03:40.296Z</time></trkpt><trkpt lat="42.8541967" lon="11.4918367"><ele>959.0</ele><time>2026-04-26T11:03:41.295Z</time></trkpt><trkpt lat="42.8541833" lon="11.491975"><ele>959.0000000000001</ele><time>2026-04-26T11:03:42.296Z</time></trkpt><trkpt lat="42.8541667" lon="11.4921183"><ele>959.0000000000001</ele><time>2026-04-26T11:03:43.294Z</time></trkpt><trkpt lat="42.8541433" lon="11.4922633"><ele>959.0</ele><time>2026-04-26T11:03:44.296Z</time></trkpt><trkpt lat="42.854125" lon="11.4924167"><ele>959.0</ele><time>2026-04-26T11:03:45.296Z</time></trkpt><trkpt lat="42.8541133" lon="11.4925767"><ele>958.25</ele><time>2026-04-26T11:03:46.296Z</time></trkpt><trkpt lat="42.854105" lon="11.492745"><ele>957.5</ele><time>2026-04-26T11:03:47.298Z</time></trkpt><trkpt lat="42.8541" lon="11.4929133"><ele>956.75</ele><time>2026-04-26T11:03:48.293Z</time></trkpt><trkpt lat="42.8540983" lon="11.4930767"><ele>956.0</ele><time>2026-04-26T11:03:49.293Z</time></trkpt><trkpt lat="42.8540933" lon="11.4932317"><ele>955.0000000000001</ele><time>2026-04-26T11:03:50.295Z</time></trkpt><trkpt lat="42.8540867" lon="11.493375"><ele>954.0</ele><time>2026-04-26T11:03:51.293Z</time></trkpt><trkpt lat="42.85407" lon="11.4935"><ele>953.0</ele><time>2026-04-26T11:03:52.295Z</time></trkpt><trkpt lat="42.854045" lon="11.493605"><ele>952.0</ele><time>2026-04-26T11:03:53.293Z</time></trkpt><trkpt lat="42.8540067" lon="11.4936883"><ele>951.0000000000001</ele><time>2026-04-26T11:03:54.292Z</time></trkpt><trkpt lat="42.8539417" lon="11.493725"><ele>950.0</ele><time>2026-04-26T11:03:55.293Z</time></trkpt><trkpt lat="42.8538067" lon="11.49372"><ele>950.0</ele><time>2026-04-26T11:03:57.292Z</time></trkpt><trkpt lat="42.8537233" lon="11.4936517"><ele>950.0</ele><time>2026-04-26T11:03:58.294Z</time></trkpt><trkpt lat="42.8536333" lon="11.493545"><ele>950.0</ele><time>2026-04-26T11:03:59.296Z</time></trkpt><trkpt lat="42.8535467" lon="11.4934367"><ele>950.0</ele><time>2026-04-26T11:04:00.297Z</time></trkpt><trkpt lat="42.8534633" lon="11.4933467"><ele>950.0</ele><time>2026-04-26T11:04:01.293Z</time></trkpt><trkpt lat="42.8533783" lon="11.493265"><ele>948.8333333333334</ele><time>2026-04-26T11:04:02.296Z</time></trkpt><trkpt lat="42.8533067" lon="11.4931817"><ele>947.6666666666667</ele><time>2026-04-26T11:04:03.293Z</time></trkpt><trkpt lat="42.85325" lon="11.4930883"><ele>946.5</ele><time>2026-04-26T11:04:04.293Z</time></trkpt><trkpt lat="42.85321" lon="11.492985"><ele>945.3333333333333</ele><time>2026-04-26T11:04:05.293Z</time></trkpt><trkpt lat="42.853185" lon="11.4928767"><ele>944.1666666666666</ele><time>2026-04-26T11:04:06.297Z</time></trkpt><trkpt lat="42.8532" lon="11.4927517"><ele>943.0</ele><time>2026-04-26T11:04:07.293Z</time></trkpt><trkpt lat="42.8532167" lon="11.492615"><ele>943.0</ele><time>2026-04-26T11:04:08.301Z</time></trkpt><trkpt lat="42.8532283" lon="11.4924717"><ele>943.0</ele><time>2026-04-26T11:04:09.292Z</time></trkpt><trkpt lat="42.8532367" lon="11.4923333"><ele>943.0</ele><time>2026-04-26T11:04:10.294Z</time></trkpt><trkpt lat="42.8532383" lon="11.4921983"><ele>943.0</ele><time>2026-04-26T11:04:11.296Z</time></trkpt><trkpt lat="42.853225" lon="11.4920733"><ele>943.0</ele><time>2026-04-26T11:04:12.296Z</time></trkpt><trkpt lat="42.8532" lon="11.4919583"><ele>942.8333333333333</ele><time>2026-04-26T11:04:13.295Z</time></trkpt><trkpt lat="42.853165" lon="11.4918633"><ele>942.6666666666666</ele><time>2026-04-26T11:04:14.298Z</time></trkpt><trkpt lat="42.8531133" lon="11.491785"><ele>942.5</ele><time>2026-04-26T11:04:15.296Z</time></trkpt><trkpt lat="42.8530533" lon="11.4917267"><ele>942.3333333333333</ele><time>2026-04-26T11:04:16.297Z</time></trkpt><trkpt lat="42.8529817" lon="11.4916867"><ele>942.1666666666666</ele><time>2026-04-26T11:04:17.298Z</time></trkpt><trkpt lat="42.852895" lon="11.491665"><ele>942.0</ele><time>2026-04-26T11:04:18.292Z</time></trkpt><trkpt lat="42.8528" lon="11.4916433"><ele>942.0</ele><time>2026-04-26T11:04:19.294Z</time></trkpt><trkpt lat="42.8527" lon="11.4916183"><ele>942.0</ele><time>2026-04-26T11:04:20.293Z</time></trkpt><trkpt lat="42.8525967" lon="11.4915967"><ele>942.0</ele><time>2026-04-26T11:04:21.294Z</time></trkpt><trkpt lat="42.852495" lon="11.491575"><ele>942.0</ele><time>2026-04-26T11:04:22.292Z</time></trkpt><trkpt lat="42.8523983" lon="11.491565"><ele>942.0</ele><time>2026-04-26T11:04:23.293Z</time></trkpt><trkpt lat="42.8523083" lon="11.4915717"><ele>941.0</ele><time>2026-04-26T11:04:24.292Z</time></trkpt><trkpt lat="42.8522233" lon="11.4915967"><ele>940.0</ele><time>2026-04-26T11:04:25.293Z</time></trkpt><trkpt lat="42.852145" lon="11.4916417"><ele>939.0</ele><time>2026-04-26T11:04:26.293Z</time></trkpt><trkpt lat="42.85207" lon="11.491685"><ele>938.0</ele><time>2026-04-26T11:04:27.292Z</time></trkpt><trkpt lat="42.8519983" lon="11.4917167"><ele>937.0</ele><time>2026-04-26T11:04:28.295Z</time></trkpt><trkpt lat="42.85193" lon="11.4917317"><ele>936.0</ele><time>2026-04-26T11:04:29.296Z</time></trkpt><trkpt lat="42.8518683" lon="11.4917533"><ele>936.0</ele><time>2026-04-26T11:04:30.297Z</time></trkpt><trkpt lat="42.8518067" lon="11.4917933"><ele>936.0000000000001</ele><time>2026-04-26T11:04:31.297Z</time></trkpt><trkpt lat="42.851755" lon="11.4918583"><ele>936.0</ele><time>2026-04-26T11:04:32.296Z</time></trkpt><trkpt lat="42.8517267" lon="11.4919467"><ele>936.0</ele><time>2026-04-26T11:04:33.296Z</time></trkpt><trkpt lat="42.8517167" lon="11.4920467"><ele>936.0000000000001</ele><time>2026-04-26T11:04:34.297Z</time></trkpt><trkpt lat="42.851705" lon="11.4921517"><ele>936.0</ele><time>2026-04-26T11:04:35.294Z</time></trkpt><trkpt lat="42.8516867" lon="11.492265"><ele>936.0</ele><time>2026-04-26T11:04:36.294Z</time></trkpt><trkpt lat="42.8516683" lon="11.49238"><ele>937.1999999999999</ele><time>2026-04-26T11:04:37.295Z</time></trkpt><trkpt lat="42.8516433" lon="11.4925017"><ele>938.3999999999999</ele><time>2026-04-26T11:04:38.294Z</time></trkpt><trkpt lat="42.8516133" lon="11.49263"><ele>939.6</ele><time>2026-04-26T11:04:39.293Z</time></trkpt><trkpt lat="42.8515867" lon="11.492765"><ele>940.8</ele><time>2026-04-26T11:04:40.297Z</time></trkpt><trkpt lat="42.85157" lon="11.4929067"><ele>942.0</ele><time>2026-04-26T11:04:41.296Z</time></trkpt><trkpt lat="42.85156" lon="11.4930533"><ele>942.0</ele><time>2026-04-26T11:04:42.297Z</time></trkpt><trkpt lat="42.85155" lon="11.4931983"><ele>942.0</ele><time>2026-04-26T11:04:43.296Z</time></trkpt><trkpt lat="42.851545" lon="11.4933433"><ele>942.0</ele><time>2026-04-26T11:04:44.297Z</time></trkpt><trkpt lat="42.8515433" lon="11.4934933"><ele>942.0</ele><time>2026-04-26T11:04:45.297Z</time></trkpt><trkpt lat="42.8515483" lon="11.4936433"><ele>942.0</ele><time>2026-04-26T11:04:46.297Z</time></trkpt><trkpt lat="42.851555" lon="11.49379"><ele>941.2</ele><time>2026-04-26T11:04:47.293Z</time></trkpt><trkpt lat="42.85156" lon="11.4939317"><ele>940.4000000000001</ele><time>2026-04-26T11:04:48.293Z</time></trkpt><trkpt lat="42.8515617" lon="11.49406"><ele>939.5999999999999</ele><time>2026-04-26T11:04:49.294Z</time></trkpt><trkpt lat="42.8515567" lon="11.4941783"><ele>938.8</ele><time>2026-04-26T11:04:50.293Z</time></trkpt><trkpt lat="42.851535" lon="11.49429"><ele>938.0</ele><time>2026-04-26T11:04:51.294Z</time></trkpt><trkpt lat="42.851495" lon="11.4944"><ele>938.0</ele><time>2026-04-26T11:04:52.294Z</time></trkpt><trkpt lat="42.8514383" lon="11.4945117"><ele>938.0</ele><time>2026-04-26T11:04:53.295Z</time></trkpt><trkpt lat="42.8513783" lon="11.4946217"><ele>938.0</ele><time>2026-04-26T11:04:54.293Z</time></trkpt><trkpt lat="42.851325" lon="11.4947333"><ele>938.0</ele><time>2026-04-26T11:04:55.294Z</time></trkpt><trkpt lat="42.8512833" lon="11.4948517"><ele>938.0</ele><time>2026-04-26T11:04:56.296Z</time></trkpt><trkpt lat="42.8512617" lon="11.4949817"><ele>936.4</ele><time>2026-04-26T11:04:57.293Z</time></trkpt><trkpt lat="42.8512483" lon="11.4951167"><ele>934.8</ele><time>2026-04-26T11:04:58.293Z</time></trkpt><trkpt lat="42.8512417" lon="11.49526"><ele>933.2</ele><time>2026-04-26T11:04:59.297Z</time></trkpt><trkpt lat="42.85124" lon="11.4954117"><ele>931.6</ele><time>2026-04-26T11:05:00.297Z</time></trkpt><trkpt lat="42.851245" lon="11.49557"><ele>930.0</ele><time>2026-04-26T11:05:01.296Z</time></trkpt><trkpt lat="42.851245" lon="11.4957267"><ele>929.4</ele><time>2026-04-26T11:05:02.296Z</time></trkpt><trkpt lat="42.851245" lon="11.495875"><ele>928.8</ele><time>2026-04-26T11:05:03.297Z</time></trkpt><trkpt lat="42.8512433" lon="11.49602"><ele>928.2</ele><time>2026-04-26T11:05:04.296Z</time></trkpt><trkpt lat="42.8512433" lon="11.4961533"><ele>927.6</ele><time>2026-04-26T11:05:05.296Z</time></trkpt><trkpt lat="42.851245" lon="11.4962733"><ele>927.0</ele><time>2026-04-26T11:05:06.296Z</time></trkpt><trkpt lat="42.85125" lon="11.49638"><ele>926.2857142857142</ele><time>2026-04-26T11:05:07.296Z</time></trkpt><trkpt lat="42.8512567" lon="11.4964733"><ele>925.5714285714286</ele><time>2026-04-26T11:05:08.293Z</time></trkpt><trkpt lat="42.8512667" lon="11.4965983"><ele>924.8571428571429</ele><time>2026-04-26T11:05:10.296Z</time></trkpt><trkpt lat="42.8512683" lon="11.4966883"><ele>924.1428571428571</ele><time>2026-04-26T11:05:12.299Z</time></trkpt><trkpt lat="42.8512917" lon="11.496775"><ele>923.4285714285716</ele><time>2026-04-26T11:05:14.297Z</time></trkpt><trkpt lat="42.8513267" lon="11.4968633"><ele>922.7142857142858</ele><time>2026-04-26T11:05:16.296Z</time></trkpt><trkpt lat="42.851345" lon="11.4969683"><ele>922.0</ele><time>2026-04-26T11:05:19.293Z</time></trkpt><trkpt lat="42.8512333" lon="11.4969267"><ele>921.9999999999999</ele><time>2026-04-26T11:05:46.295Z</time></trkpt><trkpt lat="42.8511967" lon="11.49685"><ele>922.0</ele><time>2026-04-26T11:05:50.297Z</time></trkpt><trkpt lat="42.8512" lon="11.4967467"><ele>922.0</ele><time>2026-04-26T11:05:53.294Z</time></trkpt><trkpt lat="42.8512767" lon="11.4967317"><ele>922.0</ele><time>2026-04-26T11:05:56.297Z</time></trkpt><trkpt lat="42.8513217" lon="11.4968617"><ele>921.9999999999999</ele><time>2026-04-26T11:05:58.296Z</time></trkpt><trkpt lat="42.85134" lon="11.497015"><ele>922.0</ele><time>2026-04-26T11:06:00.296Z</time></trkpt><trkpt lat="42.851365" lon="11.4971833"><ele>922.9999999999999</ele><time>2026-04-26T11:06:02.297Z</time></trkpt><trkpt lat="42.8513817" lon="11.4972733"><ele>924.0</ele><time>2026-04-26T11:06:03.296Z</time></trkpt><trkpt lat="42.8514" lon="11.497365"><ele>925.0</ele><time>2026-04-26T11:06:04.296Z</time></trkpt><trkpt lat="42.8514167" lon="11.497465"><ele>926.0</ele><time>2026-04-26T11:06:05.297Z</time></trkpt><trkpt lat="42.8514383" lon="11.4975683"><ele>926.9999999999999</ele><time>2026-04-26T11:06:06.292Z</time></trkpt><trkpt lat="42.8514583" lon="11.4976767"><ele>928.0</ele><time>2026-04-26T11:06:07.293Z</time></trkpt><trkpt lat="42.8514767" lon="11.4977917"><ele>928.0</ele><time>2026-04-26T11:06:08.294Z</time></trkpt><trkpt lat="42.8514967" lon="11.4979067"><ele>928.0</ele><time>2026-04-26T11:06:09.297Z</time></trkpt><trkpt lat="42.8515167" lon="11.4980233"><ele>928.0</ele><time>2026-04-26T11:06:10.296Z</time></trkpt><trkpt lat="42.851535" lon="11.49815"><ele>928.0</ele><time>2026-04-26T11:06:11.295Z</time></trkpt><trkpt lat="42.8515583" lon="11.4982883"><ele>928.0</ele><time>2026-04-26T11:06:12.296Z</time></trkpt><trkpt lat="42.85158" lon="11.4984333"><ele>929.8</ele><time>2026-04-26T11:06:13.295Z</time></trkpt><trkpt lat="42.8516033" lon="11.4985783"><ele>931.5999999999999</ele><time>2026-04-26T11:06:14.295Z</time></trkpt><trkpt lat="42.8516283" lon="11.4987233"><ele>933.4000000000001</ele><time>2026-04-26T11:06:15.295Z</time></trkpt><trkpt lat="42.851665" lon="11.4988633"><ele>935.2</ele><time>2026-04-26T11:06:16.295Z</time></trkpt><trkpt lat="42.851715" lon="11.498995"><ele>937.0</ele><time>2026-04-26T11:06:17.295Z</time></trkpt><trkpt lat="42.851775" lon="11.4991233"><ele>937.6</ele><time>2026-04-26T11:06:18.292Z</time></trkpt><trkpt lat="42.85184" lon="11.49925"><ele>938.2</ele><time>2026-04-26T11:06:19.295Z</time></trkpt><trkpt lat="42.8519033" lon="11.4993667"><ele>938.8</ele><time>2026-04-26T11:06:20.295Z</time></trkpt><trkpt lat="42.8519667" lon="11.49947"><ele>939.4</ele><time>2026-04-26T11:06:21.293Z</time></trkpt><trkpt lat="42.8520333" lon="11.4995617"><ele>940.0</ele><time>2026-04-26T11:06:22.295Z</time></trkpt><trkpt lat="42.8521083" lon="11.4996333"><ele>938.6</ele><time>2026-04-26T11:06:23.295Z</time></trkpt><trkpt lat="42.8521867" lon="11.499695"><ele>937.2</ele><time>2026-04-26T11:06:24.296Z</time></trkpt><trkpt lat="42.8522683" lon="11.4997383"><ele>935.8</ele><time>2026-04-26T11:06:25.295Z</time></trkpt><trkpt lat="42.8523517" lon="11.4997733"><ele>934.4</ele><time>2026-04-26T11:06:26.294Z</time></trkpt><trkpt lat="42.8524433" lon="11.4998017"><ele>933.0</ele><time>2026-04-26T11:06:27.293Z</time></trkpt><trkpt lat="42.8525383" lon="11.4998133"><ele>932.0</ele><time>2026-04-26T11:06:28.296Z</time></trkpt><trkpt lat="42.852635" lon="11.4998117"><ele>931.0</ele><time>2026-04-26T11:06:29.296Z</time></trkpt><trkpt lat="42.8527267" lon="11.4998233"><ele>930.0</ele><time>2026-04-26T11:06:30.295Z</time></trkpt><trkpt lat="42.852815" lon="11.49984"><ele>929.0</ele><time>2026-04-26T11:06:31.295Z</time></trkpt><trkpt lat="42.852895" lon="11.499865"><ele>928.0</ele><time>2026-04-26T11:06:32.292Z</time></trkpt><trkpt lat="42.8529767" lon="11.4999217"><ele>928.0</ele><time>2026-04-26T11:06:33.295Z</time></trkpt><trkpt lat="42.8530483" lon="11.50001"><ele>928.0</ele><time>2026-04-26T11:06:34.294Z</time></trkpt><trkpt lat="42.8531017" lon="11.5001167"><ele>928.0</ele><time>2026-04-26T11:06:35.292Z</time></trkpt><trkpt lat="42.8531383" lon="11.5002367"><ele>928.0</ele><time>2026-04-26T11:06:36.293Z</time></trkpt><trkpt lat="42.8531817" lon="11.5003617"><ele>928.0</ele><time>2026-04-26T11:06:37.297Z</time></trkpt><trkpt lat="42.85322" lon="11.5004867"><ele>928.2</ele><time>2026-04-26T11:06:38.296Z</time></trkpt><trkpt lat="42.8532567" lon="11.5006117"><ele>928.4</ele><time>2026-04-26T11:06:39.293Z</time></trkpt><trkpt lat="42.8532833" lon="11.500735"><ele>928.6000000000001</ele><time>2026-04-26T11:06:40.295Z</time></trkpt><trkpt lat="42.8533117" lon="11.5008533"><ele>928.8000000000001</ele><time>2026-04-26T11:06:41.293Z</time></trkpt><trkpt lat="42.8533467" lon="11.5009667"><ele>929.0</ele><time>2026-04-26T11:06:42.295Z</time></trkpt><trkpt lat="42.8533883" lon="11.501075"><ele>929.0</ele><time>2026-04-26T11:06:43.292Z</time></trkpt><trkpt lat="42.8534267" lon="11.501185"><ele>929.0000000000001</ele><time>2026-04-26T11:06:44.298Z</time></trkpt><trkpt lat="42.8534767" lon="11.5012867"><ele>929.0000000000001</ele><time>2026-04-26T11:06:45.295Z</time></trkpt><trkpt lat="42.8535333" lon="11.50138"><ele>929.0</ele><time>2026-04-26T11:06:46.295Z</time></trkpt><trkpt lat="42.85359" lon="11.5014767"><ele>929.0</ele><time>2026-04-26T11:06:47.297Z</time></trkpt><trkpt lat="42.8536517" lon="11.5015733"><ele>928.6666666666667</ele><time>2026-04-26T11:06:48.296Z</time></trkpt><trkpt lat="42.8537133" lon="11.5016667"><ele>928.3333333333334</ele><time>2026-04-26T11:06:49.296Z</time></trkpt><trkpt lat="42.85377" lon="11.5017617"><ele>928.0</ele><time>2026-04-26T11:06:50.295Z</time></trkpt><trkpt lat="42.8538233" lon="11.5018483"><ele>927.6666666666667</ele><time>2026-04-26T11:06:51.295Z</time></trkpt><trkpt lat="42.85388" lon="11.5019283"><ele>927.3333333333334</ele><time>2026-04-26T11:06:52.296Z</time></trkpt><trkpt lat="42.8539383" lon="11.5019967"><ele>927.0</ele><time>2026-04-26T11:06:53.295Z</time></trkpt><trkpt lat="42.8540033" lon="11.50205"><ele>926.6666666666666</ele><time>2026-04-26T11:06:54.297Z</time></trkpt><trkpt lat="42.8540733" lon="11.5021017"><ele>926.3333333333333</ele><time>2026-04-26T11:06:55.296Z</time></trkpt><trkpt lat="42.8541483" lon="11.5021367"><ele>926.0</ele><time>2026-04-26T11:06:56.295Z</time></trkpt><trkpt lat="42.854225" lon="11.50217"><ele>925.6666666666666</ele><time>2026-04-26T11:06:57.295Z</time></trkpt><trkpt lat="42.854305" lon="11.5022"><ele>925.3333333333333</ele><time>2026-04-26T11:06:58.292Z</time></trkpt><trkpt lat="42.8543783" lon="11.5022333"><ele>925.0</ele><time>2026-04-26T11:06:59.297Z</time></trkpt><trkpt lat="42.8544433" lon="11.5022633"><ele>925.0</ele><time>2026-04-26T11:07:00.295Z</time></trkpt><trkpt lat="42.8545067" lon="11.5023017"><ele>925.0</ele><time>2026-04-26T11:07:01.294Z</time></trkpt><trkpt lat="42.8545667" lon="11.502345"><ele>925.0</ele><time>2026-04-26T11:07:02.292Z</time></trkpt><trkpt lat="42.8546233" lon="11.5024067"><ele>925.0</ele><time>2026-04-26T11:07:03.291Z</time></trkpt><trkpt lat="42.854675" lon="11.5024817"><ele>925.0</ele><time>2026-04-26T11:07:04.293Z</time></trkpt><trkpt lat="42.85472" lon="11.50257"><ele>925.0</ele><time>2026-04-26T11:07:05.296Z</time></trkpt><trkpt lat="42.85476" lon="11.502665"><ele>925.0</ele><time>2026-04-26T11:07:06.293Z</time></trkpt><trkpt lat="42.854795" lon="11.5027633"><ele>924.9999999999999</ele><time>2026-04-26T11:07:07.295Z</time></trkpt><trkpt lat="42.8548317" lon="11.5028683"><ele>925.0</ele><time>2026-04-26T11:07:08.295Z</time></trkpt><trkpt lat="42.8548683" lon="11.502975"><ele>925.0</ele><time>2026-04-26T11:07:09.291Z</time></trkpt><trkpt lat="42.8548933" lon="11.5030767"><ele>925.0</ele><time>2026-04-26T11:07:10.295Z</time></trkpt><trkpt lat="42.8549217" lon="11.50318"><ele>924.9999999999999</ele><time>2026-04-26T11:07:11.293Z</time></trkpt><trkpt lat="42.8549433" lon="11.5032883"><ele>925.0</ele><time>2026-04-26T11:07:12.295Z</time></trkpt><trkpt lat="42.8549633" lon="11.5033933"><ele>925.1666666666666</ele><time>2026-04-26T11:07:13.296Z</time></trkpt><trkpt lat="42.8549917" lon="11.5034817"><ele>925.3333333333333</ele><time>2026-04-26T11:07:14.295Z</time></trkpt><trkpt lat="42.855005" lon="11.5035683"><ele>925.5</ele><time>2026-04-26T11:07:15.296Z</time></trkpt><trkpt lat="42.8550417" lon="11.5037217"><ele>925.6666666666667</ele><time>2026-04-26T11:07:17.292Z</time></trkpt><trkpt lat="42.85508" lon="11.5038717"><ele>925.8333333333334</ele><time>2026-04-26T11:07:19.295Z</time></trkpt><trkpt lat="42.8551083" lon="11.503955"><ele>926.0</ele><time>2026-04-26T11:07:20.297Z</time></trkpt><trkpt lat="42.8551433" lon="11.5040367"><ele>926.0</ele><time>2026-04-26T11:07:21.296Z</time></trkpt><trkpt lat="42.8551817" lon="11.504115"><ele>925.9999999999999</ele><time>2026-04-26T11:07:22.295Z</time></trkpt><trkpt lat="42.8552217" lon="11.5041867"><ele>926.0</ele><time>2026-04-26T11:07:23.296Z</time></trkpt><trkpt lat="42.85526" lon="11.50426"><ele>926.0</ele><time>2026-04-26T11:07:24.296Z</time></trkpt><trkpt lat="42.8552983" lon="11.5043333"><ele>925.9999999999999</ele><time>2026-04-26T11:07:25.295Z</time></trkpt><trkpt lat="42.855345" lon="11.5044017"><ele>926.0</ele><time>2026-04-26T11:07:26.293Z</time></trkpt><trkpt lat="42.8553983" lon="11.5044783"><ele>926.0</ele><time>2026-04-26T11:07:27.291Z</time></trkpt><trkpt lat="42.8554683" lon="11.5045583"><ele>923.2857142857142</ele><time>2026-04-26T11:07:28.293Z</time></trkpt><trkpt lat="42.85552" lon="11.5046283"><ele>920.5714285714284</ele><time>2026-04-26T11:07:29.295Z</time></trkpt><trkpt lat="42.85557" lon="11.50469"><ele>917.8571428571429</ele><time>2026-04-26T11:07:30.295Z</time></trkpt><trkpt lat="42.8556233" lon="11.504755"><ele>915.1428571428571</ele><time>2026-04-26T11:07:31.293Z</time></trkpt><trkpt lat="42.85568" lon="11.5048167"><ele>912.4285714285714</ele><time>2026-04-26T11:07:32.293Z</time></trkpt><trkpt lat="42.8557467" lon="11.5048717"><ele>909.7142857142858</ele><time>2026-04-26T11:07:33.296Z</time></trkpt><trkpt lat="42.8558117" lon="11.50492"><ele>907.0000000000001</ele><time>2026-04-26T11:07:34.295Z</time></trkpt><trkpt lat="42.8558783" lon="11.5049583"><ele>906.9999999999999</ele><time>2026-04-26T11:07:35.292Z</time></trkpt><trkpt lat="42.8559467" lon="11.5049883"><ele>907.0</ele><time>2026-04-26T11:07:36.292Z</time></trkpt><trkpt lat="42.8560133" lon="11.5050133"><ele>907.0</ele><time>2026-04-26T11:07:37.294Z</time></trkpt><trkpt lat="42.8560867" lon="11.5050133"><ele>907.0</ele><time>2026-04-26T11:07:38.293Z</time></trkpt><trkpt lat="42.8561733" lon="11.5049967"><ele>906.9999999999999</ele><time>2026-04-26T11:07:39.291Z</time></trkpt><trkpt lat="42.8562583" lon="11.504975"><ele>907.0</ele><time>2026-04-26T11:07:40.292Z</time></trkpt><trkpt lat="42.856345" lon="11.504955"><ele>906.2</ele><time>2026-04-26T11:07:41.293Z</time></trkpt><trkpt lat="42.8564367" lon="11.5049467"><ele>905.4000000000001</ele><time>2026-04-26T11:07:42.296Z</time></trkpt><trkpt lat="42.85652" lon="11.5049467"><ele>904.5999999999999</ele><time>2026-04-26T11:07:43.292Z</time></trkpt><trkpt lat="42.8566133" lon="11.5049617"><ele>903.8</ele><time>2026-04-26T11:07:44.295Z</time></trkpt><trkpt lat="42.8567083" lon="11.5049867"><ele>903.0</ele><time>2026-04-26T11:07:45.294Z</time></trkpt><trkpt lat="42.8568033" lon="11.50502"><ele>903.0</ele><time>2026-04-26T11:07:46.293Z</time></trkpt><trkpt lat="42.8569" lon="11.505065"><ele>903.0</ele><time>2026-04-26T11:07:47.293Z</time></trkpt><trkpt lat="42.8569967" lon="11.5051117"><ele>903.0</ele><time>2026-04-26T11:07:48.295Z</time></trkpt><trkpt lat="42.85709" lon="11.5051533"><ele>903.0</ele><time>2026-04-26T11:07:49.294Z</time></trkpt><trkpt lat="42.8571767" lon="11.5051867"><ele>903.0</ele><time>2026-04-26T11:07:50.294Z</time></trkpt><trkpt lat="42.8572533" lon="11.505215"><ele>903.0</ele><time>2026-04-26T11:07:51.293Z</time></trkpt><trkpt lat="42.85733" lon="11.5052467"><ele>903.0</ele><time>2026-04-26T11:07:52.293Z</time></trkpt><trkpt lat="42.8573983" lon="11.5052717"><ele>903.0</ele><time>2026-04-26T11:07:53.296Z</time></trkpt><trkpt lat="42.85747" lon="11.505285"><ele>903.0</ele><time>2026-04-26T11:07:54.293Z</time></trkpt><trkpt lat="42.8575483" lon="11.5053067"><ele>903.0</ele><time>2026-04-26T11:07:55.295Z</time></trkpt><trkpt lat="42.857625" lon="11.5053317"><ele>903.0</ele><time>2026-04-26T11:07:56.294Z</time></trkpt><trkpt lat="42.8577017" lon="11.50536"><ele>903.5</ele><time>2026-04-26T11:07:57.293Z</time></trkpt><trkpt lat="42.8577783" lon="11.5053933"><ele>904.0</ele><time>2026-04-26T11:07:58.294Z</time></trkpt><trkpt lat="42.857855" lon="11.5054183"><ele>904.5</ele><time>2026-04-26T11:07:59.295Z</time></trkpt><trkpt lat="42.8579417" lon="11.505435"><ele>905.0</ele><time>2026-04-26T11:08:00.291Z</time></trkpt><trkpt lat="42.858025" lon="11.505455"><ele>905.5</ele><time>2026-04-26T11:08:01.292Z</time></trkpt><trkpt lat="42.8581083" lon="11.5054717"><ele>906.0</ele><time>2026-04-26T11:08:02.292Z</time></trkpt><trkpt lat="42.8581883" lon="11.5054983"><ele>900.0</ele><time>2026-04-26T11:08:03.293Z</time></trkpt><trkpt lat="42.8582633" lon="11.5055267"><ele>894.0</ele><time>2026-04-26T11:08:04.292Z</time></trkpt><trkpt lat="42.8583433" lon="11.505555"><ele>888.0</ele><time>2026-04-26T11:08:05.292Z</time></trkpt><trkpt lat="42.8584283" lon="11.5055883"><ele>882.0</ele><time>2026-04-26T11:08:06.293Z</time></trkpt><trkpt lat="42.85851" lon="11.50562"><ele>876.0</ele><time>2026-04-26T11:08:07.292Z</time></trkpt><trkpt lat="42.8586067" lon="11.50565"><ele>870.0</ele><time>2026-04-26T11:08:08.293Z</time></trkpt><trkpt lat="42.8587117" lon="11.5056667"><ele>869.8</ele><time>2026-04-26T11:08:09.293Z</time></trkpt><trkpt lat="42.8588167" lon="11.50568"><ele>869.6</ele><time>2026-04-26T11:08:10.293Z</time></trkpt><trkpt lat="42.8589267" lon="11.5056967"><ele>869.4000000000001</ele><time>2026-04-26T11:08:11.292Z</time></trkpt><trkpt lat="42.8590367" lon="11.5057233"><ele>869.2</ele><time>2026-04-26T11:08:12.292Z</time></trkpt><trkpt lat="42.85915" lon="11.5057633"><ele>869.0</ele><time>2026-04-26T11:08:13.295Z</time></trkpt><trkpt lat="42.8592683" lon="11.505805"><ele>868.8000000000001</ele><time>2026-04-26T11:08:14.293Z</time></trkpt><trkpt lat="42.8593783" lon="11.5058383"><ele>868.6000000000001</ele><time>2026-04-26T11:08:15.292Z</time></trkpt><trkpt lat="42.85949" lon="11.5058733"><ele>868.4</ele><time>2026-04-26T11:08:16.292Z</time></trkpt><trkpt lat="42.85959" lon="11.5059067"><ele>868.2</ele><time>2026-04-26T11:08:17.292Z</time></trkpt><trkpt lat="42.859685" lon="11.5059333"><ele>868.0</ele><time>2026-04-26T11:08:18.293Z</time></trkpt><trkpt lat="42.85977" lon="11.5059533"><ele>867.9999999999999</ele><time>2026-04-26T11:08:19.292Z</time></trkpt><trkpt lat="42.8598517" lon="11.5059683"><ele>868.0</ele><time>2026-04-26T11:08:20.292Z</time></trkpt><trkpt lat="42.859925" lon="11.505965"><ele>868.0</ele><time>2026-04-26T11:08:21.292Z</time></trkpt><trkpt lat="42.8600033" lon="11.5059533"><ele>868.0</ele><time>2026-04-26T11:08:22.293Z</time></trkpt><trkpt lat="42.8600867" lon="11.5059167"><ele>867.9999999999999</ele><time>2026-04-26T11:08:23.294Z</time></trkpt><trkpt lat="42.86018" lon="11.5058733"><ele>868.0</ele><time>2026-04-26T11:08:24.293Z</time></trkpt><trkpt lat="42.860265" lon="11.50584"><ele>865.8333333333333</ele><time>2026-04-26T11:08:25.292Z</time></trkpt><trkpt lat="42.86034" lon="11.5058"><ele>863.6666666666666</ele><time>2026-04-26T11:08:26.293Z</time></trkpt><trkpt lat="42.8604133" lon="11.5057517"><ele>861.5</ele><time>2026-04-26T11:08:27.293Z</time></trkpt><trkpt lat="42.8604817" lon="11.5057033"><ele>859.3333333333333</ele><time>2026-04-26T11:08:28.292Z</time></trkpt><trkpt lat="42.8605567" lon="11.50565"><ele>857.1666666666666</ele><time>2026-04-26T11:08:29.294Z</time></trkpt><trkpt lat="42.8606317" lon="11.5056067"><ele>855.0</ele><time>2026-04-26T11:08:30.292Z</time></trkpt><trkpt lat="42.8607" lon="11.50556"><ele>855.0</ele><time>2026-04-26T11:08:31.292Z</time></trkpt><trkpt lat="42.86077" lon="11.505535"><ele>855.0</ele><time>2026-04-26T11:08:32.293Z</time></trkpt><trkpt lat="42.8608667" lon="11.5055183"><ele>855.0</ele><time>2026-04-26T11:08:33.293Z</time></trkpt><trkpt lat="42.86095" lon="11.5055233"><ele>855.0</ele><time>2026-04-26T11:08:34.294Z</time></trkpt><trkpt lat="42.8610433" lon="11.5055433"><ele>855.0</ele><time>2026-04-26T11:08:35.292Z</time></trkpt><trkpt lat="42.8611183" lon="11.5055783"><ele>855.0</ele><time>2026-04-26T11:08:36.292Z</time></trkpt><trkpt lat="42.86118" lon="11.5056217"><ele>854.0</ele><time>2026-04-26T11:08:37.292Z</time></trkpt><trkpt lat="42.8612517" lon="11.505675"><ele>853.0</ele><time>2026-04-26T11:08:38.296Z</time></trkpt><trkpt lat="42.8613083" lon="11.50575"><ele>852.0</ele><time>2026-04-26T11:08:39.295Z</time></trkpt><trkpt lat="42.86137" lon="11.5058433"><ele>851.0</ele><time>2026-04-26T11:08:40.294Z</time></trkpt><trkpt lat="42.8614183" lon="11.5059517"><ele>850.0</ele><time>2026-04-26T11:08:41.295Z</time></trkpt><trkpt lat="42.8614533" lon="11.506065"><ele>849.0</ele><time>2026-04-26T11:08:42.292Z</time></trkpt><trkpt lat="42.8614983" lon="11.5061567"><ele>849.0000000000001</ele><time>2026-04-26T11:08:43.296Z</time></trkpt><trkpt lat="42.861545" lon="11.50624"><ele>849.0</ele><time>2026-04-26T11:08:44.293Z</time></trkpt><trkpt lat="42.8616" lon="11.506315"><ele>849.0</ele><time>2026-04-26T11:08:45.292Z</time></trkpt><trkpt lat="42.8616583" lon="11.5063867"><ele>849.0</ele><time>2026-04-26T11:08:46.292Z</time></trkpt><trkpt lat="42.8617167" lon="11.506435"><ele>849.0</ele><time>2026-04-26T11:08:47.292Z</time></trkpt><trkpt lat="42.8617767" lon="11.5064667"><ele>849.0000000000001</ele><time>2026-04-26T11:08:48.296Z</time></trkpt><trkpt lat="42.861845" lon="11.506465"><ele>849.0</ele><time>2026-04-26T11:08:49.296Z</time></trkpt><trkpt lat="42.86193" lon="11.50641"><ele>845.75</ele><time>2026-04-26T11:08:50.295Z</time></trkpt><trkpt lat="42.86201" lon="11.5063583"><ele>842.5</ele><time>2026-04-26T11:08:51.299Z</time></trkpt><trkpt lat="42.8621167" lon="11.5062533"><ele>839.25</ele><time>2026-04-26T11:08:52.293Z</time></trkpt><trkpt lat="42.86222" lon="11.5061283"><ele>836.0</ele><time>2026-04-26T11:08:53.297Z</time></trkpt><trkpt lat="42.8622867" lon="11.5060383"><ele>836.0000000000001</ele><time>2026-04-26T11:08:54.296Z</time></trkpt><trkpt lat="42.8623467" lon="11.5059533"><ele>836.0</ele><time>2026-04-26T11:08:55.295Z</time></trkpt><trkpt lat="42.8624" lon="11.505875"><ele>836.0</ele><time>2026-04-26T11:08:56.292Z</time></trkpt><trkpt lat="42.8624533" lon="11.5058017"><ele>836.0</ele><time>2026-04-26T11:08:57.297Z</time></trkpt><trkpt lat="42.8625017" lon="11.50574"><ele>836.0000000000001</ele><time>2026-04-26T11:08:58.295Z</time></trkpt><trkpt lat="42.8625917" lon="11.505665"><ele>836.0</ele><time>2026-04-26T11:09:00.297Z</time></trkpt><trkpt lat="42.8626567" lon="11.50565"><ele>834.5000000000001</ele><time>2026-04-26T11:09:01.292Z</time></trkpt><trkpt lat="42.8627367" lon="11.5056417"><ele>833.0</ele><time>2026-04-26T11:09:02.293Z</time></trkpt><trkpt lat="42.8628317" lon="11.50564"><ele>831.5</ele><time>2026-04-26T11:09:03.292Z</time></trkpt><trkpt lat="42.8629133" lon="11.5056433"><ele>830.0</ele><time>2026-04-26T11:09:04.294Z</time></trkpt><trkpt lat="42.863005" lon="11.505655"><ele>828.5000000000001</ele><time>2026-04-26T11:09:05.292Z</time></trkpt><trkpt lat="42.8630883" lon="11.50568"><ele>827.0</ele><time>2026-04-26T11:09:06.293Z</time></trkpt><trkpt lat="42.8631683" lon="11.50572"><ele>827.0</ele><time>2026-04-26T11:09:07.297Z</time></trkpt><trkpt lat="42.8632683" lon="11.5057883"><ele>827.0</ele><time>2026-04-26T11:09:08.296Z</time></trkpt><trkpt lat="42.86336" lon="11.5058567"><ele>827.0</ele><time>2026-04-26T11:09:09.295Z</time></trkpt><trkpt lat="42.8634517" lon="11.505925"><ele>827.0</ele><time>2026-04-26T11:09:10.295Z</time></trkpt><trkpt lat="42.8635433" lon="11.505985"><ele>827.0</ele><time>2026-04-26T11:09:11.295Z</time></trkpt><trkpt lat="42.8636367" lon="11.5060383"><ele>827.4000000000001</ele><time>2026-04-26T11:09:12.295Z</time></trkpt><trkpt lat="42.86374" lon="11.5060817"><ele>827.8000000000001</ele><time>2026-04-26T11:09:13.296Z</time></trkpt><trkpt lat="42.863835" lon="11.5061217"><ele>828.2</ele><time>2026-04-26T11:09:14.295Z</time></trkpt><trkpt lat="42.8639217" lon="11.5061583"><ele>828.6</ele><time>2026-04-26T11:09:15.295Z</time></trkpt><trkpt lat="42.8640033" lon="11.506185"><ele>829.0</ele><time>2026-04-26T11:09:16.295Z</time></trkpt><trkpt lat="42.864075" lon="11.50621"><ele>825.2</ele><time>2026-04-26T11:09:17.295Z</time></trkpt><trkpt lat="42.8641567" lon="11.5062867"><ele>821.4000000000001</ele><time>2026-04-26T11:09:19.295Z</time></trkpt><trkpt lat="42.8641917" lon="11.5063717"><ele>817.6</ele><time>2026-04-26T11:09:21.295Z</time></trkpt><trkpt lat="42.8641167" lon="11.50652"><ele>813.8</ele><time>2026-04-26T11:09:23.295Z</time></trkpt><trkpt lat="42.8640567" lon="11.5066067"><ele>810.0</ele><time>2026-04-26T11:09:24.296Z</time></trkpt><trkpt lat="42.863995" lon="11.5066967"><ele>810.0</ele><time>2026-04-26T11:09:25.297Z</time></trkpt><trkpt lat="42.863945" lon="11.5067867"><ele>810.0</ele><time>2026-04-26T11:09:26.296Z</time></trkpt><trkpt lat="42.8639067" lon="11.5068667"><ele>810.0</ele><time>2026-04-26T11:09:27.296Z</time></trkpt><trkpt lat="42.8638683" lon="11.5070017"><ele>810.0</ele><time>2026-04-26T11:09:29.294Z</time></trkpt><trkpt lat="42.863855" lon="11.5071033"><ele>810.0</ele><time>2026-04-26T11:09:31.296Z</time></trkpt><trkpt lat="42.8638733" lon="11.5072133"><ele>810.0</ele><time>2026-04-26T11:09:34.296Z</time></trkpt><trkpt lat="42.8638533" lon="11.5072983"><ele>808.5</ele><time>2026-04-26T11:09:52.292Z</time></trkpt><trkpt lat="42.8638917" lon="11.507385"><ele>807.0</ele><time>2026-04-26T11:10:11.295Z</time></trkpt><trkpt lat="42.8639767" lon="11.5074683"><ele>805.5</ele><time>2026-04-26T11:10:13.293Z</time></trkpt><trkpt lat="42.8640267" lon="11.5075217"><ele>804.0</ele><time>2026-04-26T11:10:14.296Z</time></trkpt><trkpt lat="42.8640867" lon="11.507575"><ele>802.5</ele><time>2026-04-26T11:10:15.295Z</time></trkpt><trkpt lat="42.8641533" lon="11.5076217"><ele>801.0</ele><time>2026-04-26T11:10:16.296Z</time></trkpt><trkpt lat="42.8642217" lon="11.5076633"><ele>801.3333333333334</ele><time>2026-04-26T11:10:17.296Z</time></trkpt><trkpt lat="42.8642883" lon="11.5077133"><ele>801.6666666666667</ele><time>2026-04-26T11:10:18.295Z</time></trkpt><trkpt lat="42.8643533" lon="11.507765"><ele>802.0</ele><time>2026-04-26T11:10:19.293Z</time></trkpt><trkpt lat="42.8644167" lon="11.5078083"><ele>802.3333333333334</ele><time>2026-04-26T11:10:20.294Z</time></trkpt><trkpt lat="42.86448" lon="11.5078617"><ele>802.6666666666667</ele><time>2026-04-26T11:10:21.294Z</time></trkpt><trkpt lat="42.864545" lon="11.50793"><ele>803.0</ele><time>2026-04-26T11:10:22.296Z</time></trkpt><trkpt lat="42.8646167" lon="11.5079967"><ele>801.0000000000001</ele><time>2026-04-26T11:10:23.294Z</time></trkpt><trkpt lat="42.8646867" lon="11.5080667"><ele>799.0</ele><time>2026-04-26T11:10:24.296Z</time></trkpt><trkpt lat="42.8647533" lon="11.50814"><ele>797.0</ele><time>2026-04-26T11:10:25.297Z</time></trkpt><trkpt lat="42.8648233" lon="11.5082117"><ele>795.0</ele><time>2026-04-26T11:10:26.293Z</time></trkpt><trkpt lat="42.8648983" lon="11.5082783"><ele>793.0000000000001</ele><time>2026-04-26T11:10:27.296Z</time></trkpt><trkpt lat="42.8649733" lon="11.50835"><ele>791.0</ele><time>2026-04-26T11:10:28.295Z</time></trkpt><trkpt lat="42.86505" lon="11.5084117"><ele>791.1666666666667</ele><time>2026-04-26T11:10:29.294Z</time></trkpt><trkpt lat="42.865125" lon="11.5084767"><ele>791.3333333333334</ele><time>2026-04-26T11:10:30.296Z</time></trkpt><trkpt lat="42.865195" lon="11.508535"><ele>791.5</ele><time>2026-04-26T11:10:31.293Z</time></trkpt><trkpt lat="42.8652583" lon="11.5085867"><ele>791.6666666666667</ele><time>2026-04-26T11:10:32.296Z</time></trkpt><trkpt lat="42.8653217" lon="11.5086267"><ele>791.8333333333334</ele><time>2026-04-26T11:10:33.296Z</time></trkpt><trkpt lat="42.8653967" lon="11.508655"><ele>792.0</ele><time>2026-04-26T11:10:34.292Z</time></trkpt><trkpt lat="42.865485" lon="11.5086517"><ele>792.0</ele><time>2026-04-26T11:10:35.293Z</time></trkpt><trkpt lat="42.8655833" lon="11.5086317"><ele>792.0</ele><time>2026-04-26T11:10:36.294Z</time></trkpt><trkpt lat="42.86568" lon="11.5086233"><ele>792.0</ele><time>2026-04-26T11:10:37.293Z</time></trkpt><trkpt lat="42.8657833" lon="11.5086233"><ele>792.0</ele><time>2026-04-26T11:10:38.296Z</time></trkpt><trkpt lat="42.86588" lon="11.5086483"><ele>792.0</ele><time>2026-04-26T11:10:39.294Z</time></trkpt><trkpt lat="42.8659633" lon="11.508695"><ele>789.8333333333334</ele><time>2026-04-26T11:10:40.296Z</time></trkpt><trkpt lat="42.8660367" lon="11.508755"><ele>787.6666666666667</ele><time>2026-04-26T11:10:41.296Z</time></trkpt><trkpt lat="42.8661067" lon="11.5088117"><ele>785.5</ele><time>2026-04-26T11:10:42.295Z</time></trkpt><trkpt lat="42.866175" lon="11.5088617"><ele>783.3333333333334</ele><time>2026-04-26T11:10:43.295Z</time></trkpt><trkpt lat="42.8662467" lon="11.5088983"><ele>781.1666666666667</ele><time>2026-04-26T11:10:44.294Z</time></trkpt><trkpt lat="42.866325" lon="11.5089217"><ele>779.0</ele><time>2026-04-26T11:10:45.293Z</time></trkpt><trkpt lat="42.8664017" lon="11.5089283"><ele>779.0</ele><time>2026-04-26T11:10:46.294Z</time></trkpt><trkpt lat="42.866485" lon="11.5089033"><ele>779.0</ele><time>2026-04-26T11:10:47.296Z</time></trkpt><trkpt lat="42.866575" lon="11.508855"><ele>779.0</ele><time>2026-04-26T11:10:48.296Z</time></trkpt><trkpt lat="42.866665" lon="11.5088033"><ele>779.0</ele><time>2026-04-26T11:10:49.294Z</time></trkpt><trkpt lat="42.8667517" lon="11.5087567"><ele>779.0</ele><time>2026-04-26T11:10:50.295Z</time></trkpt><trkpt lat="42.8668417" lon="11.5087283"><ele>778.3333333333334</ele><time>2026-04-26T11:10:51.294Z</time></trkpt><trkpt lat="42.8669267" lon="11.5087117"><ele>777.6666666666667</ele><time>2026-04-26T11:10:52.294Z</time></trkpt><trkpt lat="42.8670117" lon="11.5087133"><ele>777.0</ele><time>2026-04-26T11:10:53.296Z</time></trkpt><trkpt lat="42.867095" lon="11.5087433"><ele>776.3333333333333</ele><time>2026-04-26T11:10:54.293Z</time></trkpt><trkpt lat="42.8671783" lon="11.50879"><ele>775.6666666666666</ele><time>2026-04-26T11:10:55.296Z</time></trkpt><trkpt lat="42.8672717" lon="11.508835"><ele>775.0</ele><time>2026-04-26T11:10:56.294Z</time></trkpt><trkpt lat="42.8673667" lon="11.50887"><ele>775.0</ele><time>2026-04-26T11:10:57.297Z</time></trkpt><trkpt lat="42.8674633" lon="11.50887"><ele>775.0</ele><time>2026-04-26T11:10:58.293Z</time></trkpt><trkpt lat="42.8675567" lon="11.50885"><ele>775.0</ele><time>2026-04-26T11:10:59.293Z</time></trkpt><trkpt lat="42.8676467" lon="11.5088117"><ele>775.0</ele><time>2026-04-26T11:11:00.297Z</time></trkpt><trkpt lat="42.8677333" lon="11.50875"><ele>775.0</ele><time>2026-04-26T11:11:01.293Z</time></trkpt><trkpt lat="42.867815" lon="11.508675"><ele>775.4</ele><time>2026-04-26T11:11:02.294Z</time></trkpt><trkpt lat="42.867905" lon="11.5085867"><ele>775.8</ele><time>2026-04-26T11:11:03.292Z</time></trkpt><trkpt lat="42.8679983" lon="11.5084933"><ele>776.2</ele><time>2026-04-26T11:11:04.297Z</time></trkpt><trkpt lat="42.868095" lon="11.508435"><ele>776.6</ele><time>2026-04-26T11:11:05.295Z</time></trkpt><trkpt lat="42.8682" lon="11.508395"><ele>777.0</ele><time>2026-04-26T11:11:06.296Z</time></trkpt><trkpt lat="42.8683117" lon="11.5083633"><ele>777.0</ele><time>2026-04-26T11:11:07.295Z</time></trkpt><trkpt lat="42.86842" lon="11.5083367"><ele>777.0</ele><time>2026-04-26T11:11:08.296Z</time></trkpt><trkpt lat="42.8685217" lon="11.50831"><ele>777.0</ele><time>2026-04-26T11:11:09.296Z</time></trkpt><trkpt lat="42.868625" lon="11.5082783"><ele>777.0</ele><time>2026-04-26T11:11:10.292Z</time></trkpt><trkpt lat="42.8687217" lon="11.5082467"><ele>777.0</ele><time>2026-04-26T11:11:11.295Z</time></trkpt><trkpt lat="42.8688133" lon="11.5082067"><ele>775.5</ele><time>2026-04-26T11:11:12.293Z</time></trkpt><trkpt lat="42.8689033" lon="11.5081633"><ele>774.0</ele><time>2026-04-26T11:11:13.297Z</time></trkpt><trkpt lat="42.8689867" lon="11.5081117"><ele>772.5</ele><time>2026-04-26T11:11:14.295Z</time></trkpt><trkpt lat="42.86906" lon="11.50805"><ele>771.0</ele><time>2026-04-26T11:11:15.295Z</time></trkpt><trkpt lat="42.869125" lon="11.507985"><ele>769.5</ele><time>2026-04-26T11:11:16.296Z</time></trkpt><trkpt lat="42.8691783" lon="11.507905"><ele>768.0</ele><time>2026-04-26T11:11:17.292Z</time></trkpt><trkpt lat="42.869225" lon="11.5078233"><ele>767.8333333333334</ele><time>2026-04-26T11:11:18.293Z</time></trkpt><trkpt lat="42.8692517" lon="11.5077383"><ele>767.6666666666666</ele><time>2026-04-26T11:11:19.292Z</time></trkpt><trkpt lat="42.8692633" lon="11.5076533"><ele>767.5</ele><time>2026-04-26T11:11:20.293Z</time></trkpt><trkpt lat="42.8692517" lon="11.5075617"><ele>767.3333333333333</ele><time>2026-04-26T11:11:21.293Z</time></trkpt><trkpt lat="42.8692017" lon="11.507475"><ele>767.1666666666666</ele><time>2026-04-26T11:11:22.295Z</time></trkpt><trkpt lat="42.8691533" lon="11.5074033"><ele>767.0</ele><time>2026-04-26T11:11:23.298Z</time></trkpt><trkpt lat="42.8690633" lon="11.507345"><ele>767.0</ele><time>2026-04-26T11:11:24.296Z</time></trkpt><trkpt lat="42.86897" lon="11.5072733"><ele>767.0</ele><time>2026-04-26T11:11:25.292Z</time></trkpt><trkpt lat="42.868865" lon="11.5071917"><ele>767.0</ele><time>2026-04-26T11:11:26.295Z</time></trkpt><trkpt lat="42.8687633" lon="11.507095"><ele>767.0</ele><time>2026-04-26T11:11:27.297Z</time></trkpt><trkpt lat="42.8686817" lon="11.5069817"><ele>765.6</ele><time>2026-04-26T11:11:28.296Z</time></trkpt><trkpt lat="42.8686117" lon="11.506865"><ele>764.2</ele><time>2026-04-26T11:11:29.299Z</time></trkpt><trkpt lat="42.868555" lon="11.5067417"><ele>762.8</ele><time>2026-04-26T11:11:30.296Z</time></trkpt><trkpt lat="42.8685" lon="11.5066183"><ele>761.4</ele><time>2026-04-26T11:11:31.295Z</time></trkpt><trkpt lat="42.8684617" lon="11.5065017"><ele>760.0</ele><time>2026-04-26T11:11:32.293Z</time></trkpt><trkpt lat="42.868435" lon="11.5064067"><ele>760.0</ele><time>2026-04-26T11:11:33.296Z</time></trkpt><trkpt lat="42.86841" lon="11.5062817"><ele>760.0</ele><time>2026-04-26T11:11:35.297Z</time></trkpt><trkpt lat="42.8683933" lon="11.506185"><ele>760.0</ele><time>2026-04-26T11:12:06.292Z</time></trkpt><trkpt lat="42.868375" lon="11.5060683"><ele>760.0</ele><time>2026-04-26T11:12:08.297Z</time></trkpt><trkpt lat="42.8683367" lon="11.5059417"><ele>760.0</ele><time>2026-04-26T11:12:10.293Z</time></trkpt><trkpt lat="42.868285" lon="11.5057917"><ele>759.0</ele><time>2026-04-26T11:12:12.297Z</time></trkpt><trkpt lat="42.86824" lon="11.505705"><ele>758.0</ele><time>2026-04-26T11:12:13.296Z</time></trkpt><trkpt lat="42.868195" lon="11.5056233"><ele>757.0</ele><time>2026-04-26T11:12:14.297Z</time></trkpt><trkpt lat="42.868145" lon="11.505545"><ele>756.0</ele><time>2026-04-26T11:12:15.295Z</time></trkpt><trkpt lat="42.8680917" lon="11.50548"><ele>755.0</ele><time>2026-04-26T11:12:16.292Z</time></trkpt><trkpt lat="42.8680333" lon="11.5054167"><ele>754.0</ele><time>2026-04-26T11:12:17.296Z</time></trkpt><trkpt lat="42.86797" lon="11.50536"><ele>754.0</ele><time>2026-04-26T11:12:18.296Z</time></trkpt><trkpt lat="42.867905" lon="11.5053067"><ele>754.0</ele><time>2026-04-26T11:12:19.297Z</time></trkpt><trkpt lat="42.86784" lon="11.5052483"><ele>754.0</ele><time>2026-04-26T11:12:20.296Z</time></trkpt><trkpt lat="42.86777" lon="11.5051917"><ele>754.0</ele><time>2026-04-26T11:12:21.293Z</time></trkpt><trkpt lat="42.8677033" lon="11.5051283"><ele>754.0</ele><time>2026-04-26T11:12:22.296Z</time></trkpt><trkpt lat="42.8676417" lon="11.5050567"><ele>754.0</ele><time>2026-04-26T11:12:23.296Z</time></trkpt><trkpt lat="42.8675833" lon="11.5049833"><ele>753.8333333333334</ele><time>2026-04-26T11:12:24.295Z</time></trkpt><trkpt lat="42.86753" lon="11.5049033"><ele>753.6666666666667</ele><time>2026-04-26T11:12:25.297Z</time></trkpt><trkpt lat="42.86748" lon="11.504825"><ele>753.5</ele><time>2026-04-26T11:12:26.297Z</time></trkpt><trkpt lat="42.8674333" lon="11.5047383"><ele>753.3333333333334</ele><time>2026-04-26T11:12:27.296Z</time></trkpt><trkpt lat="42.8673883" lon="11.504645"><ele>753.1666666666666</ele><time>2026-04-26T11:12:28.295Z</time></trkpt><trkpt lat="42.8673433" lon="11.504555"><ele>753.0</ele><time>2026-04-26T11:12:29.294Z</time></trkpt><trkpt lat="42.8672933" lon="11.5044633"><ele>753.0</ele><time>2026-04-26T11:12:30.293Z</time></trkpt><trkpt lat="42.86724" lon="11.50437"><ele>753.0</ele><time>2026-04-26T11:12:31.296Z</time></trkpt><trkpt lat="42.867185" lon="11.5042783"><ele>753.0</ele><time>2026-04-26T11:12:32.297Z</time></trkpt><trkpt lat="42.86713" lon="11.5041883"><ele>753.0</ele><time>2026-04-26T11:12:33.297Z</time></trkpt><trkpt lat="42.8670733" lon="11.5040983"><ele>753.0</ele><time>2026-04-26T11:12:34.296Z</time></trkpt><trkpt lat="42.86701" lon="11.504015"><ele>753.0</ele><time>2026-04-26T11:12:35.296Z</time></trkpt><trkpt lat="42.8669383" lon="11.503935"><ele>753.0</ele><time>2026-04-26T11:12:36.296Z</time></trkpt><trkpt lat="42.8668583" lon="11.5038583"><ele>753.0</ele><time>2026-04-26T11:12:37.292Z</time></trkpt><trkpt lat="42.8667717" lon="11.5037917"><ele>753.0</ele><time>2026-04-26T11:12:38.295Z</time></trkpt><trkpt lat="42.8666767" lon="11.5037367"><ele>753.0</ele><time>2026-04-26T11:12:39.292Z</time></trkpt><trkpt lat="42.8665733" lon="11.50369"><ele>753.0</ele><time>2026-04-26T11:12:40.295Z</time></trkpt><trkpt lat="42.8664633" lon="11.5036483"><ele>754.0</ele><time>2026-04-26T11:12:41.297Z</time></trkpt><trkpt lat="42.8663483" lon="11.5036067"><ele>755.0</ele><time>2026-04-26T11:12:42.296Z</time></trkpt><trkpt lat="42.8662367" lon="11.5035617"><ele>756.0</ele><time>2026-04-26T11:12:43.297Z</time></trkpt><trkpt lat="42.8661417" lon="11.503505"><ele>757.0</ele><time>2026-04-26T11:12:44.298Z</time></trkpt><trkpt lat="42.8660667" lon="11.5034467"><ele>758.0</ele><time>2026-04-26T11:12:45.296Z</time></trkpt><trkpt lat="42.8660083" lon="11.5033867"><ele>758.0</ele><time>2026-04-26T11:12:46.296Z</time></trkpt><trkpt lat="42.86596" lon="11.503315"><ele>758.0</ele><time>2026-04-26T11:12:47.296Z</time></trkpt><trkpt lat="42.86593" lon="11.50322"><ele>758.0</ele><time>2026-04-26T11:12:48.298Z</time></trkpt><trkpt lat="42.8659167" lon="11.5031033"><ele>758.0</ele><time>2026-04-26T11:12:49.301Z</time></trkpt><trkpt lat="42.865925" lon="11.5029633"><ele>758.0</ele><time>2026-04-26T11:12:50.296Z</time></trkpt><trkpt lat="42.865935" lon="11.5028167"><ele>758.0</ele><time>2026-04-26T11:12:51.296Z</time></trkpt><trkpt lat="42.8660183" lon="11.5026383"><ele>758.0</ele><time>2026-04-26T11:12:52.296Z</time></trkpt><trkpt lat="42.8661217" lon="11.5024517"><ele>758.0</ele><time>2026-04-26T11:12:53.296Z</time></trkpt><trkpt lat="42.866225" lon="11.5022617"><ele>758.0</ele><time>2026-04-26T11:12:54.296Z</time></trkpt><trkpt lat="42.8663283" lon="11.5020783"><ele>758.0</ele><time>2026-04-26T11:12:55.293Z</time></trkpt><trkpt lat="42.8664317" lon="11.501905"><ele>758.0</ele><time>2026-04-26T11:12:56.297Z</time></trkpt><trkpt lat="42.8665267" lon="11.5017367"><ele>758.0</ele><time>2026-04-26T11:12:57.296Z</time></trkpt><trkpt lat="42.866605" lon="11.5015783"><ele>758.0</ele><time>2026-04-26T11:12:58.297Z</time></trkpt><trkpt lat="42.866675" lon="11.5014333"><ele>758.0</ele><time>2026-04-26T11:12:59.296Z</time></trkpt><trkpt lat="42.866745" lon="11.5013"><ele>758.0</ele><time>2026-04-26T11:13:00.296Z</time></trkpt><trkpt lat="42.866815" lon="11.5011867"><ele>758.0</ele><time>2026-04-26T11:13:01.297Z</time></trkpt><trkpt lat="42.8668817" lon="11.5011067"><ele>758.0</ele><time>2026-04-26T11:13:02.294Z</time></trkpt><trkpt lat="42.866945" lon="11.5010483"><ele>756.4</ele><time>2026-04-26T11:13:03.296Z</time></trkpt><trkpt lat="42.867015" lon="11.5010117"><ele>754.8</ele><time>2026-04-26T11:13:04.297Z</time></trkpt><trkpt lat="42.8671033" lon="11.501015"><ele>753.2</ele><time>2026-04-26T11:13:05.296Z</time></trkpt><trkpt lat="42.8672033" lon="11.5010467"><ele>751.6</ele><time>2026-04-26T11:13:06.296Z</time></trkpt><trkpt lat="42.86731" lon="11.5011033"><ele>750.0</ele><time>2026-04-26T11:13:07.297Z</time></trkpt><trkpt lat="42.8674233" lon="11.5011717"><ele>750.0</ele><time>2026-04-26T11:13:08.296Z</time></trkpt><trkpt lat="42.8675317" lon="11.5012367"><ele>750.0</ele><time>2026-04-26T11:13:09.296Z</time></trkpt><trkpt lat="42.86764" lon="11.5013017"><ele>750.0</ele><time>2026-04-26T11:13:10.296Z</time></trkpt><trkpt lat="42.8677417" lon="11.501365"><ele>750.0</ele><time>2026-04-26T11:13:11.297Z</time></trkpt><trkpt lat="42.8678367" lon="11.5014217"><ele>748.6</ele><time>2026-04-26T11:13:12.296Z</time></trkpt><trkpt lat="42.867925" lon="11.5014683"><ele>747.2</ele><time>2026-04-26T11:13:13.296Z</time></trkpt><trkpt lat="42.8680133" lon="11.5015183"><ele>745.8</ele><time>2026-04-26T11:13:14.297Z</time></trkpt><trkpt lat="42.8680983" lon="11.501565"><ele>744.4</ele><time>2026-04-26T11:13:15.296Z</time></trkpt><trkpt lat="42.86818" lon="11.5016083"><ele>743.0</ele><time>2026-04-26T11:13:16.297Z</time></trkpt><trkpt lat="42.86826" lon="11.5016533"><ele>743.0</ele><time>2026-04-26T11:13:17.294Z</time></trkpt><trkpt lat="42.8683367" lon="11.50169"><ele>743.0</ele><time>2026-04-26T11:13:18.293Z</time></trkpt><trkpt lat="42.8684133" lon="11.5017017"><ele>743.0</ele><time>2026-04-26T11:13:19.293Z</time></trkpt><trkpt lat="42.86849" lon="11.5017033"><ele>743.0</ele><time>2026-04-26T11:13:20.294Z</time></trkpt><trkpt lat="42.868555" lon="11.5016617"><ele>743.0</ele><time>2026-04-26T11:13:21.298Z</time></trkpt><trkpt lat="42.8686117" lon="11.5016083"><ele>743.0</ele><time>2026-04-26T11:13:22.294Z</time></trkpt><trkpt lat="42.86867" lon="11.5015183"><ele>741.4</ele><time>2026-04-26T11:13:23.295Z</time></trkpt><trkpt lat="42.8687167" lon="11.5013917"><ele>739.8</ele><time>2026-04-26T11:13:24.297Z</time></trkpt><trkpt lat="42.8687383" lon="11.5012267"><ele>738.2</ele><time>2026-04-26T11:13:25.3Z</time></trkpt><trkpt lat="42.8687433" lon="11.50107"><ele>736.6</ele><time>2026-04-26T11:13:26.297Z</time></trkpt><trkpt lat="42.8687517" lon="11.5009367"><ele>735.0</ele><time>2026-04-26T11:13:27.296Z</time></trkpt><trkpt lat="42.868755" lon="11.5008183"><ele>735.0</ele><time>2026-04-26T11:13:28.294Z</time></trkpt><trkpt lat="42.8687683" lon="11.5007133"><ele>735.0</ele><time>2026-04-26T11:13:29.296Z</time></trkpt><trkpt lat="42.8687883" lon="11.5006217"><ele>735.0</ele><time>2026-04-26T11:13:30.296Z</time></trkpt><trkpt lat="42.8688383" lon="11.5004733"><ele>735.0</ele><time>2026-04-26T11:13:32.293Z</time></trkpt><trkpt lat="42.8689033" lon="11.5003317"><ele>735.0</ele><time>2026-04-26T11:13:34.293Z</time></trkpt><trkpt lat="42.868935" lon="11.5002517"><ele>735.3333333333334</ele><time>2026-04-26T11:13:35.298Z</time></trkpt><trkpt lat="42.8689717" lon="11.5001733"><ele>735.6666666666666</ele><time>2026-04-26T11:13:36.293Z</time></trkpt><trkpt lat="42.86902" lon="11.5000933"><ele>736.0</ele><time>2026-04-26T11:13:37.297Z</time></trkpt><trkpt lat="42.8690733" lon="11.5000067"><ele>736.3333333333333</ele><time>2026-04-26T11:13:38.297Z</time></trkpt><trkpt lat="42.86913" lon="11.49991"><ele>736.6666666666666</ele><time>2026-04-26T11:13:39.296Z</time></trkpt><trkpt lat="42.8691817" lon="11.4998033"><ele>737.0</ele><time>2026-04-26T11:13:40.296Z</time></trkpt><trkpt lat="42.8692283" lon="11.49969"><ele>737.6666666666666</ele><time>2026-04-26T11:13:41.297Z</time></trkpt><trkpt lat="42.869275" lon="11.4995817"><ele>738.3333333333333</ele><time>2026-04-26T11:13:42.296Z</time></trkpt><trkpt lat="42.8693217" lon="11.4994783"><ele>739.0</ele><time>2026-04-26T11:13:43.296Z</time></trkpt><trkpt lat="42.8693733" lon="11.49938"><ele>739.6666666666666</ele><time>2026-04-26T11:13:44.293Z</time></trkpt><trkpt lat="42.8694333" lon="11.49929"><ele>740.3333333333334</ele><time>2026-04-26T11:13:45.293Z</time></trkpt><trkpt lat="42.8695033" lon="11.499215"><ele>741.0</ele><time>2026-04-26T11:13:46.296Z</time></trkpt><trkpt lat="42.8695783" lon="11.4991683"><ele>738.8333333333334</ele><time>2026-04-26T11:13:47.296Z</time></trkpt><trkpt lat="42.8696633" lon="11.4991433"><ele>736.6666666666666</ele><time>2026-04-26T11:13:48.297Z</time></trkpt><trkpt lat="42.86975" lon="11.4991167"><ele>734.5</ele><time>2026-04-26T11:13:49.296Z</time></trkpt><trkpt lat="42.8698333" lon="11.4990717"><ele>732.3333333333333</ele><time>2026-04-26T11:13:50.296Z</time></trkpt><trkpt lat="42.8699033" lon="11.4990033"><ele>730.1666666666666</ele><time>2026-04-26T11:13:51.296Z</time></trkpt><trkpt lat="42.86997" lon="11.4989367"><ele>728.0</ele><time>2026-04-26T11:13:52.297Z</time></trkpt><trkpt lat="42.87004" lon="11.49887"><ele>725.8333333333333</ele><time>2026-04-26T11:13:53.294Z</time></trkpt><trkpt lat="42.8701167" lon="11.4988233"><ele>723.6666666666666</ele><time>2026-04-26T11:13:54.297Z</time></trkpt><trkpt lat="42.8702" lon="11.4987933"><ele>721.5</ele><time>2026-04-26T11:13:55.296Z</time></trkpt><trkpt lat="42.8702833" lon="11.4987883"><ele>719.3333333333334</ele><time>2026-04-26T11:13:56.297Z</time></trkpt><trkpt lat="42.8703617" lon="11.4987917"><ele>717.1666666666667</ele><time>2026-04-26T11:13:57.296Z</time></trkpt><trkpt lat="42.87044" lon="11.4987917"><ele>715.0</ele><time>2026-04-26T11:13:58.296Z</time></trkpt><trkpt lat="42.870515" lon="11.49876"><ele>716.8571428571429</ele><time>2026-04-26T11:13:59.297Z</time></trkpt><trkpt lat="42.8705767" lon="11.4987067"><ele>718.7142857142857</ele><time>2026-04-26T11:14:00.293Z</time></trkpt><trkpt lat="42.8706333" lon="11.4986367"><ele>720.5714285714286</ele><time>2026-04-26T11:14:01.297Z</time></trkpt><trkpt lat="42.870665" lon="11.49855"><ele>722.4285714285714</ele><time>2026-04-26T11:14:02.295Z</time></trkpt><trkpt lat="42.8706883" lon="11.49846"><ele>724.2857142857142</ele><time>2026-04-26T11:14:03.293Z</time></trkpt><trkpt lat="42.8707233" lon="11.49837"><ele>726.1428571428571</ele><time>2026-04-26T11:14:04.296Z</time></trkpt><trkpt lat="42.8707717" lon="11.4982983"><ele>728.0</ele><time>2026-04-26T11:14:05.296Z</time></trkpt><trkpt lat="42.8708383" lon="11.4982667"><ele>728.0</ele><time>2026-04-26T11:14:06.296Z</time></trkpt><trkpt lat="42.870925" lon="11.4982883"><ele>728.0</ele><time>2026-04-26T11:14:07.296Z</time></trkpt><trkpt lat="42.871015" lon="11.4983667"><ele>728.0</ele><time>2026-04-26T11:14:08.294Z</time></trkpt><trkpt lat="42.8710867" lon="11.49846"><ele>728.0</ele><time>2026-04-26T11:14:09.297Z</time></trkpt><trkpt lat="42.871165" lon="11.49853"><ele>728.0</ele><time>2026-04-26T11:14:10.296Z</time></trkpt><trkpt lat="42.8712483" lon="11.4985983"><ele>727.6666666666666</ele><time>2026-04-26T11:14:11.296Z</time></trkpt><trkpt lat="42.8713317" lon="11.4986317"><ele>727.3333333333333</ele><time>2026-04-26T11:14:12.297Z</time></trkpt><trkpt lat="42.8714083" lon="11.498645"><ele>727.0</ele><time>2026-04-26T11:14:13.293Z</time></trkpt><trkpt lat="42.87148" lon="11.4986183"><ele>726.6666666666666</ele><time>2026-04-26T11:14:14.295Z</time></trkpt><trkpt lat="42.8715517" lon="11.4985867"><ele>726.3333333333334</ele><time>2026-04-26T11:14:15.296Z</time></trkpt><trkpt lat="42.8716183" lon="11.49858"><ele>726.0</ele><time>2026-04-26T11:14:16.297Z</time></trkpt><trkpt lat="42.871695" lon="11.4986883"><ele>722.8</ele><time>2026-04-26T11:14:18.296Z</time></trkpt><trkpt lat="42.87168" lon="11.4987733"><ele>719.5999999999999</ele><time>2026-04-26T11:14:19.296Z</time></trkpt><trkpt lat="42.8715967" lon="11.4989033"><ele>716.4</ele><time>2026-04-26T11:14:21.297Z</time></trkpt><trkpt lat="42.8715117" lon="11.49894"><ele>713.2</ele><time>2026-04-26T11:14:22.297Z</time></trkpt><trkpt lat="42.87143" lon="11.49897"><ele>710.0</ele><time>2026-04-26T11:14:23.293Z</time></trkpt><trkpt lat="42.871345" lon="11.4990033"><ele>710.0</ele><time>2026-04-26T11:14:24.295Z</time></trkpt><trkpt lat="42.8712533" lon="11.4990733"><ele>710.0</ele><time>2026-04-26T11:14:25.296Z</time></trkpt><trkpt lat="42.87117" lon="11.4991717"><ele>710.0</ele><time>2026-04-26T11:14:26.296Z</time></trkpt><trkpt lat="42.8711017" lon="11.4992817"><ele>710.0</ele><time>2026-04-26T11:14:27.296Z</time></trkpt><trkpt lat="42.871035" lon="11.49938"><ele>710.0</ele><time>2026-04-26T11:14:28.292Z</time></trkpt><trkpt lat="42.8709617" lon="11.49947"><ele>711.0</ele><time>2026-04-26T11:14:29.293Z</time></trkpt><trkpt lat="42.8708817" lon="11.499545"><ele>712.0</ele><time>2026-04-26T11:14:30.292Z</time></trkpt><trkpt lat="42.87079" lon="11.4996"><ele>713.0</ele><time>2026-04-26T11:14:31.293Z</time></trkpt><trkpt lat="42.8707017" lon="11.4996417"><ele>714.0</ele><time>2026-04-26T11:14:32.293Z</time></trkpt><trkpt lat="42.870615" lon="11.4996767"><ele>715.0</ele><time>2026-04-26T11:14:33.291Z</time></trkpt><trkpt lat="42.870535" lon="11.499715"><ele>712.3333333333334</ele><time>2026-04-26T11:14:34.292Z</time></trkpt><trkpt lat="42.8704733" lon="11.49977"><ele>709.6666666666667</ele><time>2026-04-26T11:14:35.293Z</time></trkpt><trkpt lat="42.870435" lon="11.4998383"><ele>707.0</ele><time>2026-04-26T11:14:36.292Z</time></trkpt><trkpt lat="42.8704217" lon="11.4999233"><ele>704.3333333333334</ele><time>2026-04-26T11:14:37.292Z</time></trkpt><trkpt lat="42.8704817" lon="11.5000683"><ele>701.6666666666666</ele><time>2026-04-26T11:14:39.293Z</time></trkpt><trkpt lat="42.8705433" lon="11.5001067"><ele>699.0</ele><time>2026-04-26T11:14:40.295Z</time></trkpt><trkpt lat="42.8706283" lon="11.5001017"><ele>699.0</ele><time>2026-04-26T11:14:41.294Z</time></trkpt><trkpt lat="42.8707333" lon="11.500055"><ele>699.0</ele><time>2026-04-26T11:14:42.292Z</time></trkpt><trkpt lat="42.8708433" lon="11.499965"><ele>699.0</ele><time>2026-04-26T11:14:43.293Z</time></trkpt><trkpt lat="42.8709583" lon="11.4998917"><ele>699.0</ele><time>2026-04-26T11:14:44.292Z</time></trkpt><trkpt lat="42.87107" lon="11.499835"><ele>697.6</ele><time>2026-04-26T11:14:45.296Z</time></trkpt><trkpt lat="42.8711717" lon="11.4997967"><ele>696.2</ele><time>2026-04-26T11:14:46.296Z</time></trkpt><trkpt lat="42.8712683" lon="11.4997483"><ele>694.8000000000001</ele><time>2026-04-26T11:14:47.295Z</time></trkpt><trkpt lat="42.8713667" lon="11.4996867"><ele>693.4000000000001</ele><time>2026-04-26T11:14:48.296Z</time></trkpt><trkpt lat="42.8714567" lon="11.4996167"><ele>692.0</ele><time>2026-04-26T11:14:49.295Z</time></trkpt><trkpt lat="42.8715433" lon="11.4995433"><ele>694.1666666666666</ele><time>2026-04-26T11:14:50.296Z</time></trkpt><trkpt lat="42.871625" lon="11.4994767"><ele>696.3333333333333</ele><time>2026-04-26T11:14:51.295Z</time></trkpt><trkpt lat="42.8717" lon="11.49943"><ele>698.5</ele><time>2026-04-26T11:14:52.292Z</time></trkpt><trkpt lat="42.8717767" lon="11.49939"><ele>700.6666666666666</ele><time>2026-04-26T11:14:53.293Z</time></trkpt><trkpt lat="42.87186" lon="11.4993917"><ele>702.8333333333334</ele><time>2026-04-26T11:14:54.293Z</time></trkpt><trkpt lat="42.8719367" lon="11.49946"><ele>705.0</ele><time>2026-04-26T11:14:55.297Z</time></trkpt><trkpt lat="42.87198" lon="11.49957"><ele>702.8333333333334</ele><time>2026-04-26T11:14:56.296Z</time></trkpt><trkpt lat="42.87201" lon="11.4996667"><ele>700.6666666666666</ele><time>2026-04-26T11:14:57.297Z</time></trkpt><trkpt lat="42.8719967" lon="11.49978"><ele>698.5</ele><time>2026-04-26T11:14:58.296Z</time></trkpt><trkpt lat="42.871925" lon="11.4998933"><ele>696.3333333333333</ele><time>2026-04-26T11:14:59.295Z</time></trkpt><trkpt lat="42.871875" lon="11.4999767"><ele>694.1666666666666</ele><time>2026-04-26T11:15:00.293Z</time></trkpt><trkpt lat="42.8717933" lon="11.5000533"><ele>692.0</ele><time>2026-04-26T11:15:01.292Z</time></trkpt><trkpt lat="42.8716217" lon="11.50013"><ele>692.0</ele><time>2026-04-26T11:15:02.292Z</time></trkpt><trkpt lat="42.8714717" lon="11.5001883"><ele>692.0</ele><time>2026-04-26T11:15:03.291Z</time></trkpt><trkpt lat="42.8713467" lon="11.500245"><ele>692.0</ele><time>2026-04-26T11:15:04.295Z</time></trkpt><trkpt lat="42.87125" lon="11.5003033"><ele>692.0</ele><time>2026-04-26T11:15:05.296Z</time></trkpt><trkpt lat="42.871165" lon="11.5003667"><ele>689.5</ele><time>2026-04-26T11:15:06.296Z</time></trkpt><trkpt lat="42.8710983" lon="11.50045"><ele>687.0</ele><time>2026-04-26T11:15:07.295Z</time></trkpt><trkpt lat="42.8710683" lon="11.50056"><ele>684.5</ele><time>2026-04-26T11:15:08.296Z</time></trkpt><trkpt lat="42.8710567" lon="11.5006667"><ele>682.0</ele><time>2026-04-26T11:15:09.296Z</time></trkpt><trkpt lat="42.8710617" lon="11.5007733"><ele>679.5</ele><time>2026-04-26T11:15:10.294Z</time></trkpt><trkpt lat="42.8710667" lon="11.5008667"><ele>677.0</ele><time>2026-04-26T11:15:11.295Z</time></trkpt><trkpt lat="42.8710933" lon="11.50101"><ele>677.0</ele><time>2026-04-26T11:15:13.295Z</time></trkpt><trkpt lat="42.87113" lon="11.50111"><ele>677.0</ele><time>2026-04-26T11:15:15.296Z</time></trkpt><trkpt lat="42.8711633" lon="11.5012183"><ele>677.0</ele><time>2026-04-26T11:18:26.297Z</time></trkpt><trkpt lat="42.8711833" lon="11.501105"><ele>677.0</ele><time>2026-04-26T11:18:30.296Z</time></trkpt><trkpt lat="42.8711383" lon="11.5010267"><ele>677.0</ele><time>2026-04-26T11:19:04.295Z</time></trkpt><trkpt lat="42.8711033" lon="11.500945"><ele>677.0</ele><time>2026-04-26T11:19:06.296Z</time></trkpt><trkpt lat="42.8710783" lon="11.5007833"><ele>677.0</ele><time>2026-04-26T11:19:08.296Z</time></trkpt><trkpt lat="42.8710767" lon="11.500695"><ele>677.0</ele><time>2026-04-26T11:19:09.296Z</time></trkpt><trkpt lat="42.8710833" lon="11.5005983"><ele>677.0</ele><time>2026-04-26T11:19:10.296Z</time></trkpt><trkpt lat="42.871105" lon="11.500495"><ele>677.0</ele><time>2026-04-26T11:19:11.296Z</time></trkpt><trkpt lat="42.8711483" lon="11.500395"><ele>677.0</ele><time>2026-04-26T11:19:12.296Z</time></trkpt><trkpt lat="42.8712083" lon="11.5003083"><ele>677.0</ele><time>2026-04-26T11:19:13.295Z</time></trkpt><trkpt lat="42.871285" lon="11.5002433"><ele>680.0</ele><time>2026-04-26T11:19:14.296Z</time></trkpt><trkpt lat="42.8713817" lon="11.5001967"><ele>683.0</ele><time>2026-04-26T11:19:15.3Z</time></trkpt><trkpt lat="42.87148" lon="11.50015"><ele>686.0</ele><time>2026-04-26T11:19:16.296Z</time></trkpt><trkpt lat="42.8715733" lon="11.500095"><ele>689.0</ele><time>2026-04-26T11:19:17.296Z</time></trkpt><trkpt lat="42.8716667" lon="11.500035"><ele>692.0</ele><time>2026-04-26T11:19:18.297Z</time></trkpt><trkpt lat="42.8717533" lon="11.4999717"><ele>690.6666666666666</ele><time>2026-04-26T11:19:19.296Z</time></trkpt><trkpt lat="42.871825" lon="11.4999083"><ele>689.3333333333333</ele><time>2026-04-26T11:19:20.297Z</time></trkpt><trkpt lat="42.87189" lon="11.49985"><ele>688.0</ele><time>2026-04-26T11:19:21.296Z</time></trkpt><trkpt lat="42.8719433" lon="11.4997817"><ele>686.6666666666666</ele><time>2026-04-26T11:19:22.293Z</time></trkpt><trkpt lat="42.8719767" lon="11.4996983"><ele>685.3333333333334</ele><time>2026-04-26T11:19:23.294Z</time></trkpt><trkpt lat="42.8719867" lon="11.499605"><ele>684.0</ele><time>2026-04-26T11:19:24.297Z</time></trkpt><trkpt lat="42.8719633" lon="11.499495"><ele>688.2</ele><time>2026-04-26T11:19:25.296Z</time></trkpt><trkpt lat="42.8719533" lon="11.4994033"><ele>692.4000000000001</ele><time>2026-04-26T11:19:26.296Z</time></trkpt><trkpt lat="42.8718917" lon="11.4993383"><ele>696.6</ele><time>2026-04-26T11:19:27.295Z</time></trkpt><trkpt lat="42.871765" lon="11.4993317"><ele>700.8</ele><time>2026-04-26T11:19:29.293Z</time></trkpt><trkpt lat="42.87166" lon="11.49942"><ele>705.0</ele><time>2026-04-26T11:19:30.293Z</time></trkpt><trkpt lat="42.8715417" lon="11.49953"><ele>701.75</ele><time>2026-04-26T11:19:31.293Z</time></trkpt><trkpt lat="42.8714233" lon="11.4996367"><ele>698.5</ele><time>2026-04-26T11:19:32.299Z</time></trkpt><trkpt lat="42.8713117" lon="11.4997067"><ele>695.25</ele><time>2026-04-26T11:19:33.296Z</time></trkpt><trkpt lat="42.8712" lon="11.4997633"><ele>692.0</ele><time>2026-04-26T11:19:34.297Z</time></trkpt><trkpt lat="42.87108" lon="11.4998133"><ele>692.0</ele><time>2026-04-26T11:19:35.296Z</time></trkpt><trkpt lat="42.87097" lon="11.4998517"><ele>692.0</ele><time>2026-04-26T11:19:36.296Z</time></trkpt><trkpt lat="42.8708667" lon="11.4999"><ele>692.0</ele><time>2026-04-26T11:19:37.296Z</time></trkpt><trkpt lat="42.8707767" lon="11.49995"><ele>692.0</ele><time>2026-04-26T11:19:38.296Z</time></trkpt><trkpt lat="42.8706967" lon="11.5000017"><ele>692.0</ele><time>2026-04-26T11:19:39.292Z</time></trkpt><trkpt lat="42.870625" lon="11.5000433"><ele>693.4000000000001</ele><time>2026-04-26T11:19:40.296Z</time></trkpt><trkpt lat="42.8705067" lon="11.500045"><ele>694.8000000000001</ele><time>2026-04-26T11:19:42.3Z</time></trkpt><trkpt lat="42.87044" lon="11.4999033"><ele>696.2</ele><time>2026-04-26T11:19:44.298Z</time></trkpt><trkpt lat="42.8704833" lon="11.49974"><ele>697.6</ele><time>2026-04-26T11:19:46.296Z</time></trkpt><trkpt lat="42.8705467" lon="11.499685"><ele>699.0</ele><time>2026-04-26T11:19:47.297Z</time></trkpt><trkpt lat="42.870635" lon="11.4996467"><ele>699.0</ele><time>2026-04-26T11:19:48.296Z</time></trkpt><trkpt lat="42.87073" lon="11.4996083"><ele>699.0</ele><time>2026-04-26T11:19:49.297Z</time></trkpt><trkpt lat="42.870835" lon="11.4995667"><ele>699.0</ele><time>2026-04-26T11:19:50.293Z</time></trkpt><trkpt lat="42.87093" lon="11.4995"><ele>699.0</ele><time>2026-04-26T11:19:51.295Z</time></trkpt><trkpt lat="42.8710133" lon="11.4994133"><ele>699.0</ele><time>2026-04-26T11:19:52.297Z</time></trkpt><trkpt lat="42.8710883" lon="11.4993017"><ele>701.2</ele><time>2026-04-26T11:19:53.296Z</time></trkpt><trkpt lat="42.8711583" lon="11.4991817"><ele>703.4000000000001</ele><time>2026-04-26T11:19:54.296Z</time></trkpt><trkpt lat="42.8712283" lon="11.499065"><ele>705.6</ele><time>2026-04-26T11:19:55.296Z</time></trkpt><trkpt lat="42.8713033" lon="11.498975"><ele>707.8</ele><time>2026-04-26T11:19:56.296Z</time></trkpt><trkpt lat="42.8713867" lon="11.4989217"><ele>710.0</ele><time>2026-04-26T11:19:57.296Z</time></trkpt><trkpt lat="42.8714683" lon="11.49889"><ele>710.0</ele><time>2026-04-26T11:19:58.298Z</time></trkpt><trkpt lat="42.871545" lon="11.4988667"><ele>710.0</ele><time>2026-04-26T11:19:59.299Z</time></trkpt><trkpt lat="42.8716217" lon="11.4988367"><ele>710.0</ele><time>2026-04-26T11:20:00.294Z</time></trkpt><trkpt lat="42.8716867" lon="11.498785"><ele>710.0</ele><time>2026-04-26T11:20:01.296Z</time></trkpt><trkpt lat="42.8717183" lon="11.4987083"><ele>710.0</ele><time>2026-04-26T11:20:02.294Z</time></trkpt><trkpt lat="42.8717183" lon="11.4986183"><ele>710.0</ele><time>2026-04-26T11:20:03.296Z</time></trkpt><trkpt lat="42.8716717" lon="11.4984933"><ele>713.2</ele><time>2026-04-26T11:20:05.293Z</time></trkpt><trkpt lat="42.8715433" lon="11.4985067"><ele>716.4</ele><time>2026-04-26T11:20:07.296Z</time></trkpt><trkpt lat="42.871445" lon="11.4985383"><ele>719.5999999999999</ele><time>2026-04-26T11:20:08.295Z</time></trkpt><trkpt lat="42.8713667" lon="11.4985417"><ele>722.8</ele><time>2026-04-26T11:20:09.295Z</time></trkpt><trkpt lat="42.871255" lon="11.4985133"><ele>726.0</ele><time>2026-04-26T11:20:10.296Z</time></trkpt><trkpt lat="42.8711067" lon="11.4984517"><ele>726.0</ele><time>2026-04-26T11:20:11.296Z</time></trkpt><trkpt lat="42.870995" lon="11.4983783"><ele>726.0</ele><time>2026-04-26T11:20:12.296Z</time></trkpt><trkpt lat="42.8709083" lon="11.498325"><ele>726.0</ele><time>2026-04-26T11:20:13.296Z</time></trkpt><trkpt lat="42.8708267" lon="11.4982983"><ele>726.0</ele><time>2026-04-26T11:20:14.297Z</time></trkpt><trkpt lat="42.8707467" lon="11.4983083"><ele>726.0</ele><time>2026-04-26T11:20:15.297Z</time></trkpt><trkpt lat="42.8706783" lon="11.49837"><ele>726.3333333333334</ele><time>2026-04-26T11:20:16.297Z</time></trkpt><trkpt lat="42.8706267" lon="11.4984733"><ele>726.6666666666666</ele><time>2026-04-26T11:20:17.296Z</time></trkpt><trkpt lat="42.8705917" lon="11.4985983"><ele>727.0</ele><time>2026-04-26T11:20:18.296Z</time></trkpt><trkpt lat="42.8705367" lon="11.49869"><ele>727.3333333333333</ele><time>2026-04-26T11:20:19.296Z</time></trkpt><trkpt lat="42.87047" lon="11.4987583"><ele>727.6666666666666</ele><time>2026-04-26T11:20:20.297Z</time></trkpt><trkpt lat="42.8703933" lon="11.4987967"><ele>728.0</ele><time>2026-04-26T11:20:21.295Z</time></trkpt><trkpt lat="42.8702983" lon="11.4988067"><ele>728.0</ele><time>2026-04-26T11:20:22.296Z</time></trkpt><trkpt lat="42.8702017" lon="11.4988133"><ele>728.0</ele><time>2026-04-26T11:20:23.295Z</time></trkpt><trkpt lat="42.8701067" lon="11.4988483"><ele>728.0</ele><time>2026-04-26T11:20:24.292Z</time></trkpt><trkpt lat="42.8700083" lon="11.4989133"><ele>728.0</ele><time>2026-04-26T11:20:25.297Z</time></trkpt><trkpt lat="42.8699133" lon="11.4989933"><ele>728.0</ele><time>2026-04-26T11:20:26.295Z</time></trkpt><trkpt lat="42.8698117" lon="11.4990717"><ele>728.0</ele><time>2026-04-26T11:20:27.295Z</time></trkpt><trkpt lat="42.869705" lon="11.49913"><ele>728.0</ele><time>2026-04-26T11:20:28.296Z</time></trkpt><trkpt lat="42.869595" lon="11.4991783"><ele>728.0</ele><time>2026-04-26T11:20:29.296Z</time></trkpt><trkpt lat="42.8694933" lon="11.4992367"><ele>728.0</ele><time>2026-04-26T11:20:30.296Z</time></trkpt><trkpt lat="42.8694117" lon="11.4993267"><ele>728.0</ele><time>2026-04-26T11:20:31.295Z</time></trkpt><trkpt lat="42.8693483" lon="11.4994467"><ele>728.0</ele><time>2026-04-26T11:20:32.296Z</time></trkpt><trkpt lat="42.8692883" lon="11.49956"><ele>728.0</ele><time>2026-04-26T11:20:33.291Z</time></trkpt><trkpt lat="42.869235" lon="11.4996833"><ele>728.0</ele><time>2026-04-26T11:20:34.296Z</time></trkpt><trkpt lat="42.86918" lon="11.499805"><ele>728.0</ele><time>2026-04-26T11:20:35.296Z</time></trkpt><trkpt lat="42.8691233" lon="11.4999217"><ele>728.0</ele><time>2026-04-26T11:20:36.296Z</time></trkpt><trkpt lat="42.86906" lon="11.5000283"><ele>729.4</ele><time>2026-04-26T11:20:37.296Z</time></trkpt><trkpt lat="42.869" lon="11.500135"><ele>730.8</ele><time>2026-04-26T11:20:38.296Z</time></trkpt><trkpt lat="42.868945" lon="11.5002467"><ele>732.2</ele><time>2026-04-26T11:20:39.295Z</time></trkpt><trkpt lat="42.8689" lon="11.5003633"><ele>733.6</ele><time>2026-04-26T11:20:40.295Z</time></trkpt><trkpt lat="42.8688583" lon="11.5004733"><ele>735.0</ele><time>2026-04-26T11:20:41.296Z</time></trkpt><trkpt lat="42.8688183" lon="11.500565"><ele>735.0</ele><time>2026-04-26T11:20:42.295Z</time></trkpt><trkpt lat="42.8687867" lon="11.500645"><ele>735.0</ele><time>2026-04-26T11:20:43.296Z</time></trkpt><trkpt lat="42.8687583" lon="11.5007233"><ele>735.0</ele><time>2026-04-26T11:20:44.295Z</time></trkpt><trkpt lat="42.868745" lon="11.5008217"><ele>735.0</ele><time>2026-04-26T11:20:45.295Z</time></trkpt><trkpt lat="42.8687267" lon="11.5009317"><ele>735.0</ele><time>2026-04-26T11:20:46.295Z</time></trkpt><trkpt lat="42.8687183" lon="11.5010567"><ele>735.0</ele><time>2026-04-26T11:20:47.295Z</time></trkpt><trkpt lat="42.86871" lon="11.501185"><ele>734.0</ele><time>2026-04-26T11:20:48.296Z</time></trkpt><trkpt lat="42.8686883" lon="11.501315"><ele>733.0</ele><time>2026-04-26T11:20:49.296Z</time></trkpt><trkpt lat="42.8686567" lon="11.5014367"><ele>732.0</ele><time>2026-04-26T11:20:50.295Z</time></trkpt><trkpt lat="42.8686117" lon="11.501535"><ele>731.0</ele><time>2026-04-26T11:20:51.296Z</time></trkpt><trkpt lat="42.86856" lon="11.501605"><ele>730.0</ele><time>2026-04-26T11:20:52.296Z</time></trkpt><trkpt lat="42.8684467" lon="11.5016783"><ele>732.6</ele><time>2026-04-26T11:20:54.291Z</time></trkpt><trkpt lat="42.8683767" lon="11.5016817"><ele>735.2</ele><time>2026-04-26T11:20:55.296Z</time></trkpt><trkpt lat="42.8682933" lon="11.5016667"><ele>737.8</ele><time>2026-04-26T11:20:56.296Z</time></trkpt><trkpt lat="42.8682" lon="11.5016233"><ele>740.4</ele><time>2026-04-26T11:20:57.295Z</time></trkpt><trkpt lat="42.868095" lon="11.5015667"><ele>743.0</ele><time>2026-04-26T11:20:58.295Z</time></trkpt><trkpt lat="42.867985" lon="11.5015083"><ele>743.0</ele><time>2026-04-26T11:20:59.297Z</time></trkpt><trkpt lat="42.8678633" lon="11.5014467"><ele>743.0</ele><time>2026-04-26T11:21:00.296Z</time></trkpt><trkpt lat="42.8677283" lon="11.50138"><ele>743.0</ele><time>2026-04-26T11:21:01.295Z</time></trkpt><trkpt lat="42.8675883" lon="11.5013067"><ele>743.0</ele><time>2026-04-26T11:21:02.296Z</time></trkpt><trkpt lat="42.86745" lon="11.5012317"><ele>744.75</ele><time>2026-04-26T11:21:03.292Z</time></trkpt><trkpt lat="42.8673217" lon="11.501165"><ele>746.5</ele><time>2026-04-26T11:21:04.295Z</time></trkpt><trkpt lat="42.8672017" lon="11.50111"><ele>748.25</ele><time>2026-04-26T11:21:05.296Z</time></trkpt><trkpt lat="42.8670983" lon="11.5010717"><ele>750.0</ele><time>2026-04-26T11:21:06.295Z</time></trkpt><trkpt lat="42.8670067" lon="11.501055"><ele>750.0</ele><time>2026-04-26T11:21:07.295Z</time></trkpt><trkpt lat="42.8669217" lon="11.5010533"><ele>750.0</ele><time>2026-04-26T11:21:08.295Z</time></trkpt><trkpt lat="42.86684" lon="11.5010833"><ele>750.0</ele><time>2026-04-26T11:21:09.296Z</time></trkpt><trkpt lat="42.86677" lon="11.5011533"><ele>750.0</ele><time>2026-04-26T11:21:10.296Z</time></trkpt><trkpt lat="42.8667067" lon="11.5012633"><ele>750.0</ele><time>2026-04-26T11:21:11.295Z</time></trkpt><trkpt lat="42.866635" lon="11.5014283"><ele>752.6666666666666</ele><time>2026-04-26T11:21:12.295Z</time></trkpt><trkpt lat="42.86656" lon="11.5015983"><ele>755.3333333333333</ele><time>2026-04-26T11:21:13.296Z</time></trkpt><trkpt lat="42.8664817" lon="11.5017817"><ele>758.0</ele><time>2026-04-26T11:21:14.297Z</time></trkpt><trkpt lat="42.86639" lon="11.5019733"><ele>756.3333333333333</ele><time>2026-04-26T11:21:15.295Z</time></trkpt><trkpt lat="42.86629" lon="11.502175"><ele>754.6666666666666</ele><time>2026-04-26T11:21:16.296Z</time></trkpt><trkpt lat="42.866195" lon="11.5023717"><ele>753.0</ele><time>2026-04-26T11:21:17.295Z</time></trkpt><trkpt lat="42.866115" lon="11.50255"><ele>753.0</ele><time>2026-04-26T11:21:18.296Z</time></trkpt><trkpt lat="42.8660467" lon="11.5027133"><ele>753.0</ele><time>2026-04-26T11:21:19.296Z</time></trkpt><trkpt lat="42.8659983" lon="11.5028683"><ele>753.0</ele><time>2026-04-26T11:21:20.295Z</time></trkpt><trkpt lat="42.8659733" lon="11.5030133"><ele>753.0</ele><time>2026-04-26T11:21:21.296Z</time></trkpt><trkpt lat="42.8659717" lon="11.5031517"><ele>753.8333333333334</ele><time>2026-04-26T11:21:22.295Z</time></trkpt><trkpt lat="42.8659867" lon="11.5032733"><ele>754.6666666666666</ele><time>2026-04-26T11:21:23.296Z</time></trkpt><trkpt lat="42.8660083" lon="11.5033717"><ele>755.5</ele><time>2026-04-26T11:21:24.297Z</time></trkpt><trkpt lat="42.86609" lon="11.5034683"><ele>756.3333333333333</ele><time>2026-04-26T11:21:26.296Z</time></trkpt><trkpt lat="42.8661533" lon="11.5035083"><ele>757.1666666666666</ele><time>2026-04-26T11:21:27.297Z</time></trkpt><trkpt lat="42.8662367" lon="11.5035517"><ele>758.0</ele><time>2026-04-26T11:21:28.299Z</time></trkpt><trkpt lat="42.8663383" lon="11.5035917"><ele>758.0</ele><time>2026-04-26T11:21:29.295Z</time></trkpt><trkpt lat="42.8664533" lon="11.5036333"><ele>758.0</ele><time>2026-04-26T11:21:30.296Z</time></trkpt><trkpt lat="42.86658" lon="11.5036817"><ele>758.0</ele><time>2026-04-26T11:21:31.295Z</time></trkpt><trkpt lat="42.8667" lon="11.503745"><ele>758.0</ele><time>2026-04-26T11:21:32.295Z</time></trkpt><trkpt lat="42.86682" lon="11.5038217"><ele>756.75</ele><time>2026-04-26T11:21:33.296Z</time></trkpt><trkpt lat="42.8669317" lon="11.50392"><ele>755.5</ele><time>2026-04-26T11:21:34.296Z</time></trkpt><trkpt lat="42.8670333" lon="11.5040433"><ele>754.25</ele><time>2026-04-26T11:21:35.296Z</time></trkpt><trkpt lat="42.8671317" lon="11.5041767"><ele>753.0</ele><time>2026-04-26T11:21:36.299Z</time></trkpt><trkpt lat="42.8672183" lon="11.5043067"><ele>753.0</ele><time>2026-04-26T11:21:37.296Z</time></trkpt><trkpt lat="42.8672967" lon="11.5044367"><ele>753.0</ele><time>2026-04-26T11:21:38.296Z</time></trkpt><trkpt lat="42.8673683" lon="11.50456"><ele>753.0</ele><time>2026-04-26T11:21:39.295Z</time></trkpt><trkpt lat="42.8674333" lon="11.5046833"><ele>753.0</ele><time>2026-04-26T11:21:40.298Z</time></trkpt><trkpt lat="42.8674967" lon="11.5048067"><ele>753.0</ele><time>2026-04-26T11:21:41.296Z</time></trkpt><trkpt lat="42.8675683" lon="11.5049283"><ele>753.0</ele><time>2026-04-26T11:21:42.295Z</time></trkpt><trkpt lat="42.8676483" lon="11.50504"><ele>753.0</ele><time>2026-04-26T11:21:43.295Z</time></trkpt><trkpt lat="42.8677317" lon="11.5051417"><ele>753.0</ele><time>2026-04-26T11:21:44.297Z</time></trkpt><trkpt lat="42.8678233" lon="11.5052333"><ele>753.25</ele><time>2026-04-26T11:21:45.295Z</time></trkpt><trkpt lat="42.8679233" lon="11.5053233"><ele>753.5</ele><time>2026-04-26T11:21:46.295Z</time></trkpt><trkpt lat="42.8680233" lon="11.505415"><ele>753.75</ele><time>2026-04-26T11:21:47.295Z</time></trkpt><trkpt lat="42.8681167" lon="11.5055133"><ele>754.0</ele><time>2026-04-26T11:21:48.294Z</time></trkpt><trkpt lat="42.8681967" lon="11.5056217"><ele>754.0</ele><time>2026-04-26T11:21:49.293Z</time></trkpt><trkpt lat="42.8682667" lon="11.5057317"><ele>754.0</ele><time>2026-04-26T11:21:50.295Z</time></trkpt><trkpt lat="42.8683283" lon="11.5058483"><ele>754.0</ele><time>2026-04-26T11:21:51.294Z</time></trkpt><trkpt lat="42.8683767" lon="11.5059767"><ele>754.0</ele><time>2026-04-26T11:21:52.293Z</time></trkpt><trkpt lat="42.868405" lon="11.5061233"><ele>754.0</ele><time>2026-04-26T11:21:53.295Z</time></trkpt><trkpt lat="42.8684333" lon="11.5062717"><ele>753.25</ele><time>2026-04-26T11:21:54.295Z</time></trkpt><trkpt lat="42.8684617" lon="11.5064267"><ele>752.5</ele><time>2026-04-26T11:21:55.296Z</time></trkpt><trkpt lat="42.8684967" lon="11.5065817"><ele>751.75</ele><time>2026-04-26T11:21:56.295Z</time></trkpt><trkpt lat="42.8685433" lon="11.5067283"><ele>751.0</ele><time>2026-04-26T11:21:57.296Z</time></trkpt><trkpt lat="42.8686" lon="11.5068583"><ele>751.0</ele><time>2026-04-26T11:21:58.296Z</time></trkpt><trkpt lat="42.8686633" lon="11.506975"><ele>751.0</ele><time>2026-04-26T11:21:59.296Z</time></trkpt><trkpt lat="42.8687367" lon="11.5070867"><ele>751.0</ele><time>2026-04-26T11:22:00.293Z</time></trkpt><trkpt lat="42.8688167" lon="11.5071933"><ele>751.0</ele><time>2026-04-26T11:22:01.295Z</time></trkpt><trkpt lat="42.868905" lon="11.5072867"><ele>751.0</ele><time>2026-04-26T11:22:02.297Z</time></trkpt><trkpt lat="42.8689967" lon="11.5073567"><ele>753.6666666666667</ele><time>2026-04-26T11:22:03.296Z</time></trkpt><trkpt lat="42.86908" lon="11.50742"><ele>756.3333333333334</ele><time>2026-04-26T11:22:04.295Z</time></trkpt><trkpt lat="42.8691467" lon="11.50748"><ele>759.0</ele><time>2026-04-26T11:22:05.295Z</time></trkpt><trkpt lat="42.869195" lon="11.507545"><ele>761.6666666666666</ele><time>2026-04-26T11:22:06.295Z</time></trkpt><trkpt lat="42.8692233" lon="11.5076233"><ele>764.3333333333333</ele><time>2026-04-26T11:22:07.295Z</time></trkpt><trkpt lat="42.869235" lon="11.5077217"><ele>767.0</ele><time>2026-04-26T11:22:08.296Z</time></trkpt><trkpt lat="42.8692283" lon="11.507825"><ele>767.2</ele><time>2026-04-26T11:22:09.297Z</time></trkpt><trkpt lat="42.8692017" lon="11.507925"><ele>767.4000000000001</ele><time>2026-04-26T11:22:10.295Z</time></trkpt><trkpt lat="42.869155" lon="11.5080217"><ele>767.5999999999999</ele><time>2026-04-26T11:22:11.296Z</time></trkpt><trkpt lat="42.8690883" lon="11.5081033"><ele>767.8</ele><time>2026-04-26T11:22:12.295Z</time></trkpt><trkpt lat="42.868995" lon="11.5081667"><ele>768.0</ele><time>2026-04-26T11:22:13.292Z</time></trkpt><trkpt lat="42.868885" lon="11.5082133"><ele>768.0</ele><time>2026-04-26T11:22:14.295Z</time></trkpt><trkpt lat="42.86877" lon="11.50825"><ele>768.0</ele><time>2026-04-26T11:22:15.293Z</time></trkpt><trkpt lat="42.86866" lon="11.50828"><ele>768.0</ele><time>2026-04-26T11:22:16.296Z</time></trkpt><trkpt lat="42.86855" lon="11.50831"><ele>768.0</ele><time>2026-04-26T11:22:17.294Z</time></trkpt><trkpt lat="42.868445" lon="11.5083433"><ele>770.25</ele><time>2026-04-26T11:22:18.292Z</time></trkpt><trkpt lat="42.8683333" lon="11.5083733"><ele>772.5</ele><time>2026-04-26T11:22:19.293Z</time></trkpt><trkpt lat="42.8682133" lon="11.5084"><ele>774.75</ele><time>2026-04-26T11:22:20.293Z</time></trkpt><trkpt lat="42.8681" lon="11.5084367"><ele>777.0</ele><time>2026-04-26T11:22:21.294Z</time></trkpt><trkpt lat="42.8680017" lon="11.5084867"><ele>777.0</ele><time>2026-04-26T11:22:22.294Z</time></trkpt><trkpt lat="42.8679083" lon="11.508555"><ele>777.0</ele><time>2026-04-26T11:22:23.293Z</time></trkpt><trkpt lat="42.86782" lon="11.5086383"><ele>777.0</ele><time>2026-04-26T11:22:24.295Z</time></trkpt><trkpt lat="42.867735" lon="11.5087283"><ele>777.0</ele><time>2026-04-26T11:22:25.295Z</time></trkpt><trkpt lat="42.8676467" lon="11.5088067"><ele>777.0</ele><time>2026-04-26T11:22:26.295Z</time></trkpt><trkpt lat="42.8675533" lon="11.5088617"><ele>776.5</ele><time>2026-04-26T11:22:27.295Z</time></trkpt><trkpt lat="42.86745" lon="11.5088867"><ele>776.0</ele><time>2026-04-26T11:22:28.293Z</time></trkpt><trkpt lat="42.8673383" lon="11.5088883"><ele>775.5</ele><time>2026-04-26T11:22:29.293Z</time></trkpt><trkpt lat="42.8672217" lon="11.5088667"><ele>775.0</ele><time>2026-04-26T11:22:30.297Z</time></trkpt><trkpt lat="42.8671067" lon="11.508815"><ele>775.0</ele><time>2026-04-26T11:22:31.296Z</time></trkpt><trkpt lat="42.8670033" lon="11.5087667"><ele>775.0</ele><time>2026-04-26T11:22:32.295Z</time></trkpt><trkpt lat="42.8669067" lon="11.5087317"><ele>775.0</ele><time>2026-04-26T11:22:33.292Z</time></trkpt><trkpt lat="42.8668167" lon="11.5087267"><ele>775.0</ele><time>2026-04-26T11:22:34.295Z</time></trkpt><trkpt lat="42.86673" lon="11.5087317"><ele>775.0</ele><time>2026-04-26T11:22:35.295Z</time></trkpt><trkpt lat="42.86664" lon="11.5087467"><ele>775.8</ele><time>2026-04-26T11:22:36.292Z</time></trkpt><trkpt lat="42.86654" lon="11.5087933"><ele>776.6</ele><time>2026-04-26T11:22:37.293Z</time></trkpt><trkpt lat="42.8664317" lon="11.5088333"><ele>777.4000000000001</ele><time>2026-04-26T11:22:38.294Z</time></trkpt><trkpt lat="42.8663383" lon="11.508865"><ele>778.2</ele><time>2026-04-26T11:22:39.295Z</time></trkpt><trkpt lat="42.86625" lon="11.5088733"><ele>779.0</ele><time>2026-04-26T11:22:40.296Z</time></trkpt><trkpt lat="42.8661633" lon="11.5088517"><ele>779.0</ele><time>2026-04-26T11:22:41.303Z</time></trkpt><trkpt lat="42.866085" lon="11.50881"><ele>779.0</ele><time>2026-04-26T11:22:42.296Z</time></trkpt><trkpt lat="42.8660067" lon="11.508755"><ele>779.0</ele><time>2026-04-26T11:22:43.295Z</time></trkpt><trkpt lat="42.8659217" lon="11.5086883"><ele>779.0</ele><time>2026-04-26T11:22:44.296Z</time></trkpt><trkpt lat="42.8658333" lon="11.5086417"><ele>779.0</ele><time>2026-04-26T11:22:45.292Z</time></trkpt><trkpt lat="42.8657467" lon="11.5086117"><ele>781.6</ele><time>2026-04-26T11:22:46.296Z</time></trkpt><trkpt lat="42.8656517" lon="11.5086033"><ele>784.2</ele><time>2026-04-26T11:22:47.292Z</time></trkpt><trkpt lat="42.865555" lon="11.5086017"><ele>786.8000000000001</ele><time>2026-04-26T11:22:48.292Z</time></trkpt><trkpt lat="42.8654583" lon="11.5086067"><ele>789.4000000000001</ele><time>2026-04-26T11:22:49.294Z</time></trkpt><trkpt lat="42.8653667" lon="11.5086167"><ele>792.0</ele><time>2026-04-26T11:22:50.293Z</time></trkpt><trkpt lat="42.8652733" lon="11.5086133"><ele>792.0</ele><time>2026-04-26T11:22:51.293Z</time></trkpt><trkpt lat="42.8651967" lon="11.5085783"><ele>792.0</ele><time>2026-04-26T11:22:52.296Z</time></trkpt><trkpt lat="42.8651267" lon="11.5085167"><ele>792.0</ele><time>2026-04-26T11:22:53.293Z</time></trkpt><trkpt lat="42.865055" lon="11.5084583"><ele>792.0</ele><time>2026-04-26T11:22:54.296Z</time></trkpt><trkpt lat="42.8649817" lon="11.5083933"><ele>792.0</ele><time>2026-04-26T11:22:55.295Z</time></trkpt><trkpt lat="42.8649083" lon="11.5083333"><ele>792.0</ele><time>2026-04-26T11:22:56.299Z</time></trkpt><trkpt lat="42.8648367" lon="11.5082733"><ele>791.8333333333334</ele><time>2026-04-26T11:22:57.297Z</time></trkpt><trkpt lat="42.8647617" lon="11.5082117"><ele>791.6666666666667</ele><time>2026-04-26T11:22:58.296Z</time></trkpt><trkpt lat="42.86468" lon="11.5081517"><ele>791.5</ele><time>2026-04-26T11:22:59.295Z</time></trkpt><trkpt lat="42.864605" lon="11.5080933"><ele>791.3333333333334</ele><time>2026-04-26T11:23:00.296Z</time></trkpt><trkpt lat="42.8645267" lon="11.5080367"><ele>791.1666666666667</ele><time>2026-04-26T11:23:01.295Z</time></trkpt><trkpt lat="42.86445" lon="11.50797"><ele>791.0</ele><time>2026-04-26T11:23:02.295Z</time></trkpt><trkpt lat="42.8643733" lon="11.5079017"><ele>793.0</ele><time>2026-04-26T11:23:03.295Z</time></trkpt><trkpt lat="42.864295" lon="11.5078367"><ele>795.0</ele><time>2026-04-26T11:23:04.296Z</time></trkpt><trkpt lat="42.8642117" lon="11.5077733"><ele>797.0</ele><time>2026-04-26T11:23:05.297Z</time></trkpt><trkpt lat="42.864125" lon="11.5077083"><ele>799.0</ele><time>2026-04-26T11:23:06.296Z</time></trkpt><trkpt lat="42.8640433" lon="11.507635"><ele>801.0</ele><time>2026-04-26T11:23:07.295Z</time></trkpt><trkpt lat="42.8639733" lon="11.50756"><ele>801.0</ele><time>2026-04-26T11:23:08.296Z</time></trkpt><trkpt lat="42.8639217" lon="11.5074933"><ele>801.0</ele><time>2026-04-26T11:23:09.297Z</time></trkpt><trkpt lat="42.8638583" lon="11.5073683"><ele>801.0</ele><time>2026-04-26T11:23:11.3Z</time></trkpt><trkpt lat="42.8638283" lon="11.50722"><ele>801.0</ele><time>2026-04-26T11:23:13.296Z</time></trkpt><trkpt lat="42.8638333" lon="11.5071283"><ele>801.0</ele><time>2026-04-26T11:23:14.298Z</time></trkpt><trkpt lat="42.8638483" lon="11.507035"><ele>801.0</ele><time>2026-04-26T11:23:15.297Z</time></trkpt><trkpt lat="42.863885" lon="11.5069367"><ele>802.5</ele><time>2026-04-26T11:23:16.295Z</time></trkpt><trkpt lat="42.8639317" lon="11.5068367"><ele>804.0</ele><time>2026-04-26T11:23:17.293Z</time></trkpt><trkpt lat="42.8639867" lon="11.506735"><ele>805.5</ele><time>2026-04-26T11:23:18.292Z</time></trkpt><trkpt lat="42.8640517" lon="11.5066333"><ele>807.0</ele><time>2026-04-26T11:23:19.292Z</time></trkpt><trkpt lat="42.8641117" lon="11.5065383"><ele>808.5</ele><time>2026-04-26T11:23:20.293Z</time></trkpt><trkpt lat="42.8641567" lon="11.5064533"><ele>810.0</ele><time>2026-04-26T11:23:21.293Z</time></trkpt><trkpt lat="42.8641917" lon="11.5063783"><ele>810.0</ele><time>2026-04-26T11:23:22.297Z</time></trkpt><trkpt lat="42.8642" lon="11.5062583"><ele>810.0</ele><time>2026-04-26T11:23:24.292Z</time></trkpt><trkpt lat="42.8640933" lon="11.506185"><ele>810.0</ele><time>2026-04-26T11:23:26.293Z</time></trkpt><trkpt lat="42.8640183" lon="11.50616"><ele>810.0</ele><time>2026-04-26T11:23:27.296Z</time></trkpt><trkpt lat="42.8639217" lon="11.5061317"><ele>810.0</ele><time>2026-04-26T11:23:28.293Z</time></trkpt><trkpt lat="42.8638383" lon="11.5060933"><ele>813.4</ele><time>2026-04-26T11:23:29.296Z</time></trkpt><trkpt lat="42.8637433" lon="11.5060533"><ele>816.8</ele><time>2026-04-26T11:23:30.296Z</time></trkpt><trkpt lat="42.8636383" lon="11.506"><ele>820.2</ele><time>2026-04-26T11:23:31.295Z</time></trkpt><trkpt lat="42.86354" lon="11.5059367"><ele>823.6</ele><time>2026-04-26T11:23:32.293Z</time></trkpt><trkpt lat="42.8634433" lon="11.5058717"><ele>827.0</ele><time>2026-04-26T11:23:33.296Z</time></trkpt><trkpt lat="42.8633433" lon="11.5057983"><ele>827.0</ele><time>2026-04-26T11:23:34.293Z</time></trkpt><trkpt lat="42.8632517" lon="11.5057283"><ele>827.0</ele><time>2026-04-26T11:23:35.297Z</time></trkpt><trkpt lat="42.86316" lon="11.50567"><ele>827.0</ele><time>2026-04-26T11:23:36.292Z</time></trkpt><trkpt lat="42.8630683" lon="11.505625"><ele>827.0</ele><time>2026-04-26T11:23:37.293Z</time></trkpt><trkpt lat="42.8629783" lon="11.505605"><ele>827.0</ele><time>2026-04-26T11:23:38.293Z</time></trkpt><trkpt lat="42.8628933" lon="11.5055917"><ele>827.0000000000001</ele><time>2026-04-26T11:23:39.293Z</time></trkpt><trkpt lat="42.8627933" lon="11.5056117"><ele>827.0</ele><time>2026-04-26T11:23:40.293Z</time></trkpt><trkpt lat="42.862695" lon="11.5056417"><ele>827.0</ele><time>2026-04-26T11:23:41.294Z</time></trkpt><trkpt lat="42.8626133" lon="11.5056717"><ele>827.0</ele><time>2026-04-26T11:23:42.293Z</time></trkpt><trkpt lat="42.8625467" lon="11.5057183"><ele>827.0000000000001</ele><time>2026-04-26T11:23:43.294Z</time></trkpt><trkpt lat="42.8624833" lon="11.505775"><ele>827.0</ele><time>2026-04-26T11:23:44.297Z</time></trkpt><trkpt lat="42.8624217" lon="11.5058383"><ele>828.8</ele><time>2026-04-26T11:23:45.293Z</time></trkpt><trkpt lat="42.8623567" lon="11.5059217"><ele>830.6</ele><time>2026-04-26T11:23:46.294Z</time></trkpt><trkpt lat="42.8622883" lon="11.5060117"><ele>832.4</ele><time>2026-04-26T11:23:47.294Z</time></trkpt><trkpt lat="42.8622133" lon="11.50611"><ele>834.1999999999999</ele><time>2026-04-26T11:23:48.294Z</time></trkpt><trkpt lat="42.8621417" lon="11.506205"><ele>836.0</ele><time>2026-04-26T11:23:49.295Z</time></trkpt><trkpt lat="42.8620667" lon="11.506285"><ele>836.3333333333334</ele><time>2026-04-26T11:23:50.293Z</time></trkpt><trkpt lat="42.86199" lon="11.50635"><ele>836.6666666666667</ele><time>2026-04-26T11:23:51.292Z</time></trkpt><trkpt lat="42.8619167" lon="11.5063967"><ele>837.0</ele><time>2026-04-26T11:23:52.293Z</time></trkpt><trkpt lat="42.8618467" lon="11.5064333"><ele>837.3333333333333</ele><time>2026-04-26T11:23:53.296Z</time></trkpt><trkpt lat="42.86178" lon="11.5064483"><ele>837.6666666666666</ele><time>2026-04-26T11:23:54.296Z</time></trkpt><trkpt lat="42.8617167" lon="11.5064333"><ele>838.0</ele><time>2026-04-26T11:23:55.293Z</time></trkpt><trkpt lat="42.8616467" lon="11.5064017"><ele>837.9999999999999</ele><time>2026-04-26T11:23:56.294Z</time></trkpt><trkpt lat="42.8615767" lon="11.5063433"><ele>838.0</ele><time>2026-04-26T11:23:57.292Z</time></trkpt><trkpt lat="42.861515" lon="11.506255"><ele>838.0</ele><time>2026-04-26T11:23:58.294Z</time></trkpt><trkpt lat="42.86147" lon="11.50616"><ele>838.0</ele><time>2026-04-26T11:23:59.294Z</time></trkpt><trkpt lat="42.8614233" lon="11.5060517"><ele>837.9999999999999</ele><time>2026-04-26T11:24:00.293Z</time></trkpt><trkpt lat="42.86138" lon="11.5059467"><ele>838.0</ele><time>2026-04-26T11:24:01.294Z</time></trkpt><trkpt lat="42.861325" lon="11.5058483"><ele>839.8333333333333</ele><time>2026-04-26T11:24:02.293Z</time></trkpt><trkpt lat="42.8612617" lon="11.505765"><ele>841.6666666666666</ele><time>2026-04-26T11:24:03.293Z</time></trkpt><trkpt lat="42.861195" lon="11.5056883"><ele>843.5</ele><time>2026-04-26T11:24:04.293Z</time></trkpt><trkpt lat="42.8611183" lon="11.505625"><ele>845.3333333333333</ele><time>2026-04-26T11:24:05.295Z</time></trkpt><trkpt lat="42.8610433" lon="11.5055633"><ele>847.1666666666666</ele><time>2026-04-26T11:24:06.294Z</time></trkpt><trkpt lat="42.860965" lon="11.5055217"><ele>849.0</ele><time>2026-04-26T11:24:07.294Z</time></trkpt><trkpt lat="42.8608933" lon="11.5055183"><ele>850.0</ele><time>2026-04-26T11:24:08.293Z</time></trkpt><trkpt lat="42.86083" lon="11.50557"><ele>851.0</ele><time>2026-04-26T11:24:09.293Z</time></trkpt><trkpt lat="42.86077" lon="11.5056133"><ele>852.0</ele><time>2026-04-26T11:24:10.293Z</time></trkpt><trkpt lat="42.8606933" lon="11.5056683"><ele>853.0</ele><time>2026-04-26T11:24:11.295Z</time></trkpt><trkpt lat="42.860595" lon="11.5057317"><ele>854.0</ele><time>2026-04-26T11:24:12.292Z</time></trkpt><trkpt lat="42.86049" lon="11.5057817"><ele>855.0</ele><time>2026-04-26T11:24:13.292Z</time></trkpt><trkpt lat="42.8603867" lon="11.505835"><ele>855.0</ele><time>2026-04-26T11:24:14.296Z</time></trkpt><trkpt lat="42.8602917" lon="11.5058767"><ele>855.0</ele><time>2026-04-26T11:24:15.293Z</time></trkpt><trkpt lat="42.86019" lon="11.505905"><ele>855.0</ele><time>2026-04-26T11:24:16.295Z</time></trkpt><trkpt lat="42.8600883" lon="11.505935"><ele>855.0</ele><time>2026-04-26T11:24:17.295Z</time></trkpt><trkpt lat="42.8599867" lon="11.505945"><ele>855.0</ele><time>2026-04-26T11:24:18.292Z</time></trkpt><trkpt lat="42.8598817" lon="11.50593"><ele>857.6</ele><time>2026-04-26T11:24:19.294Z</time></trkpt><trkpt lat="42.859775" lon="11.5059033"><ele>860.2</ele><time>2026-04-26T11:24:20.294Z</time></trkpt><trkpt lat="42.8596717" lon="11.505865"><ele>862.8</ele><time>2026-04-26T11:24:21.292Z</time></trkpt><trkpt lat="42.8595617" lon="11.5058317"><ele>865.4</ele><time>2026-04-26T11:24:22.293Z</time></trkpt><trkpt lat="42.8594467" lon="11.5057933"><ele>868.0</ele><time>2026-04-26T11:24:23.294Z</time></trkpt><trkpt lat="42.8593317" lon="11.5057467"><ele>868.25</ele><time>2026-04-26T11:24:24.294Z</time></trkpt><trkpt lat="42.8592233" lon="11.5057017"><ele>868.5</ele><time>2026-04-26T11:24:25.296Z</time></trkpt><trkpt lat="42.85911" lon="11.5056633"><ele>868.75</ele><time>2026-04-26T11:24:26.296Z</time></trkpt><trkpt lat="42.8590033" lon="11.5056133"><ele>869.0</ele><time>2026-04-26T11:24:27.293Z</time></trkpt><trkpt lat="42.8588967" lon="11.5055667"><ele>869.0</ele><time>2026-04-26T11:24:28.293Z</time></trkpt><trkpt lat="42.8587883" lon="11.505535"><ele>869.0000000000001</ele><time>2026-04-26T11:24:29.293Z</time></trkpt><trkpt lat="42.8586767" lon="11.50551"><ele>869.0000000000001</ele><time>2026-04-26T11:24:30.292Z</time></trkpt><trkpt lat="42.8585667" lon="11.505485"><ele>869.0</ele><time>2026-04-26T11:24:31.293Z</time></trkpt><trkpt lat="42.8584583" lon="11.5054583"><ele>869.0</ele><time>2026-04-26T11:24:32.293Z</time></trkpt><trkpt lat="42.858355" lon="11.50543"><ele>876.4000000000001</ele><time>2026-04-26T11:24:33.293Z</time></trkpt><trkpt lat="42.8582483" lon="11.505395"><ele>883.8000000000001</ele><time>2026-04-26T11:24:34.293Z</time></trkpt><trkpt lat="42.8581433" lon="11.5053617"><ele>891.1999999999999</ele><time>2026-04-26T11:24:35.292Z</time></trkpt><trkpt lat="42.8580383" lon="11.5053233"><ele>898.5999999999999</ele><time>2026-04-26T11:24:36.292Z</time></trkpt><trkpt lat="42.8579333" lon="11.5052817"><ele>906.0</ele><time>2026-04-26T11:24:37.293Z</time></trkpt><trkpt lat="42.8578283" lon="11.505245"><ele>906.0</ele><time>2026-04-26T11:24:38.293Z</time></trkpt><trkpt lat="42.85772" lon="11.5052167"><ele>905.9999999999999</ele><time>2026-04-26T11:24:39.292Z</time></trkpt><trkpt lat="42.8576033" lon="11.505185"><ele>905.9999999999999</ele><time>2026-04-26T11:24:40.298Z</time></trkpt><trkpt lat="42.8574933" lon="11.50515"><ele>906.0</ele><time>2026-04-26T11:24:41.297Z</time></trkpt><trkpt lat="42.85739" lon="11.505115"><ele>906.0</ele><time>2026-04-26T11:24:42.297Z</time></trkpt><trkpt lat="42.857285" lon="11.5050967"><ele>905.25</ele><time>2026-04-26T11:24:43.293Z</time></trkpt><trkpt lat="42.8571733" lon="11.5050817"><ele>904.5</ele><time>2026-04-26T11:24:44.294Z</time></trkpt><trkpt lat="42.8570667" lon="11.5050417"><ele>903.75</ele><time>2026-04-26T11:24:45.297Z</time></trkpt><trkpt lat="42.8569617" lon="11.5049967"><ele>903.0</ele><time>2026-04-26T11:24:46.297Z</time></trkpt><trkpt lat="42.85685" lon="11.50495"><ele>902.5999999999999</ele><time>2026-04-26T11:24:47.295Z</time></trkpt><trkpt lat="42.85674" lon="11.5049033"><ele>902.1999999999999</ele><time>2026-04-26T11:24:48.296Z</time></trkpt><trkpt lat="42.8566267" lon="11.5048683"><ele>901.8</ele><time>2026-04-26T11:24:49.298Z</time></trkpt><trkpt lat="42.8565233" lon="11.5048383"><ele>901.4</ele><time>2026-04-26T11:24:50.296Z</time></trkpt><trkpt lat="42.8564233" lon="11.5048267"><ele>901.0</ele><time>2026-04-26T11:24:51.292Z</time></trkpt><trkpt lat="42.85633" lon="11.50484"><ele>901.0</ele><time>2026-04-26T11:24:52.293Z</time></trkpt><trkpt lat="42.8562317" lon="11.5048633"><ele>900.9999999999999</ele><time>2026-04-26T11:24:53.297Z</time></trkpt><trkpt lat="42.8561367" lon="11.50489"><ele>900.9999999999999</ele><time>2026-04-26T11:24:54.292Z</time></trkpt><trkpt lat="42.8560433" lon="11.50492"><ele>901.0</ele><time>2026-04-26T11:24:55.294Z</time></trkpt><trkpt lat="42.8559567" lon="11.5049333"><ele>901.0</ele><time>2026-04-26T11:24:56.296Z</time></trkpt><trkpt lat="42.85588" lon="11.5049133"><ele>902.1999999999999</ele><time>2026-04-26T11:24:57.295Z</time></trkpt><trkpt lat="42.8558" lon="11.50488"><ele>903.3999999999999</ele><time>2026-04-26T11:24:58.295Z</time></trkpt><trkpt lat="42.8557217" lon="11.5048233"><ele>904.6</ele><time>2026-04-26T11:24:59.297Z</time></trkpt><trkpt lat="42.855645" lon="11.5047467"><ele>905.8</ele><time>2026-04-26T11:25:00.296Z</time></trkpt><trkpt lat="42.8555717" lon="11.504665"><ele>907.0</ele><time>2026-04-26T11:25:01.297Z</time></trkpt><trkpt lat="42.8554967" lon="11.5045783"><ele>910.8</ele><time>2026-04-26T11:25:02.294Z</time></trkpt><trkpt lat="42.8554217" lon="11.5045"><ele>914.6</ele><time>2026-04-26T11:25:03.297Z</time></trkpt><trkpt lat="42.8553617" lon="11.5044017"><ele>918.3999999999999</ele><time>2026-04-26T11:25:04.296Z</time></trkpt><trkpt lat="42.8552933" lon="11.5042967"><ele>922.1999999999999</ele><time>2026-04-26T11:25:05.297Z</time></trkpt><trkpt lat="42.8552283" lon="11.5041883"><ele>926.0</ele><time>2026-04-26T11:25:06.297Z</time></trkpt><trkpt lat="42.8551567" lon="11.5040867"><ele>926.8333333333334</ele><time>2026-04-26T11:25:07.297Z</time></trkpt><trkpt lat="42.8551067" lon="11.503985"><ele>927.6666666666667</ele><time>2026-04-26T11:25:08.297Z</time></trkpt><trkpt lat="42.8550683" lon="11.50388"><ele>928.5</ele><time>2026-04-26T11:25:09.297Z</time></trkpt><trkpt lat="42.855035" lon="11.50378"><ele>929.3333333333333</ele><time>2026-04-26T11:25:10.296Z</time></trkpt><trkpt lat="42.8550067" lon="11.5036817"><ele>930.1666666666666</ele><time>2026-04-26T11:25:11.297Z</time></trkpt><trkpt lat="42.8549833" lon="11.5035867"><ele>931.0</ele><time>2026-04-26T11:25:12.296Z</time></trkpt><trkpt lat="42.8549533" lon="11.5034817"><ele>930.9999999999999</ele><time>2026-04-26T11:25:13.296Z</time></trkpt><trkpt lat="42.854925" lon="11.50337"><ele>931.0</ele><time>2026-04-26T11:25:14.297Z</time></trkpt><trkpt lat="42.854895" lon="11.5032567"><ele>931.0</ele><time>2026-04-26T11:25:15.293Z</time></trkpt><trkpt lat="42.8548633" lon="11.50314"><ele>931.0</ele><time>2026-04-26T11:25:16.295Z</time></trkpt><trkpt lat="42.8548333" lon="11.5030267"><ele>930.9999999999999</ele><time>2026-04-26T11:25:17.293Z</time></trkpt><trkpt lat="42.8548033" lon="11.502915"><ele>931.0</ele><time>2026-04-26T11:25:18.294Z</time></trkpt><trkpt lat="42.8547767" lon="11.5027967"><ele>929.9999999999999</ele><time>2026-04-26T11:25:19.293Z</time></trkpt><trkpt lat="42.8547483" lon="11.5026883"><ele>929.0</ele><time>2026-04-26T11:25:20.294Z</time></trkpt><trkpt lat="42.8547167" lon="11.5025917"><ele>928.0</ele><time>2026-04-26T11:25:21.295Z</time></trkpt><trkpt lat="42.8546833" lon="11.502505"><ele>927.0</ele><time>2026-04-26T11:25:22.295Z</time></trkpt><trkpt lat="42.8546467" lon="11.50243"><ele>925.9999999999999</ele><time>2026-04-26T11:25:23.294Z</time></trkpt><trkpt lat="42.8545317" lon="11.50233"><ele>925.0</ele><time>2026-04-26T11:25:25.293Z</time></trkpt><trkpt lat="42.8544533" lon="11.5022983"><ele>925.0</ele><time>2026-04-26T11:25:26.294Z</time></trkpt><trkpt lat="42.8543567" lon="11.5022667"><ele>925.0</ele><time>2026-04-26T11:25:27.293Z</time></trkpt><trkpt lat="42.8542433" lon="11.502225"><ele>925.0</ele><time>2026-04-26T11:25:28.293Z</time></trkpt><trkpt lat="42.8541283" lon="11.502175"><ele>925.0</ele><time>2026-04-26T11:25:29.295Z</time></trkpt><trkpt lat="42.8540217" lon="11.5021133"><ele>925.5</ele><time>2026-04-26T11:25:30.296Z</time></trkpt><trkpt lat="42.8539367" lon="11.5020417"><ele>926.0</ele><time>2026-04-26T11:25:31.295Z</time></trkpt><trkpt lat="42.8538517" lon="11.501945"><ele>926.5</ele><time>2026-04-26T11:25:32.294Z</time></trkpt><trkpt lat="42.8537633" lon="11.5018267"><ele>927.0</ele><time>2026-04-26T11:25:33.299Z</time></trkpt><trkpt lat="42.8536617" lon="11.5016833"><ele>927.0</ele><time>2026-04-26T11:25:34.296Z</time></trkpt><trkpt lat="42.8535767" lon="11.5015433"><ele>927.0</ele><time>2026-04-26T11:25:35.296Z</time></trkpt><trkpt lat="42.8534933" lon="11.5014033"><ele>927.0</ele><time>2026-04-26T11:25:36.294Z</time></trkpt><trkpt lat="42.8534233" lon="11.5012617"><ele>927.0</ele><time>2026-04-26T11:25:37.297Z</time></trkpt><trkpt lat="42.8533667" lon="11.5011067"><ele>927.5</ele><time>2026-04-26T11:25:38.297Z</time></trkpt><trkpt lat="42.8533167" lon="11.50094"><ele>928.0</ele><time>2026-04-26T11:25:39.297Z</time></trkpt><trkpt lat="42.8532733" lon="11.5007683"><ele>928.5</ele><time>2026-04-26T11:25:40.293Z</time></trkpt><trkpt lat="42.8532283" lon="11.5006083"><ele>929.0</ele><time>2026-04-26T11:25:41.296Z</time></trkpt><trkpt lat="42.85318" lon="11.500455"><ele>928.8000000000001</ele><time>2026-04-26T11:25:42.296Z</time></trkpt><trkpt lat="42.8531317" lon="11.5003083"><ele>928.6000000000001</ele><time>2026-04-26T11:25:43.293Z</time></trkpt><trkpt lat="42.8530767" lon="11.5001767"><ele>928.4</ele><time>2026-04-26T11:25:44.296Z</time></trkpt><trkpt lat="42.85301" lon="11.5000617"><ele>928.2</ele><time>2026-04-26T11:25:45.293Z</time></trkpt><trkpt lat="42.8529467" lon="11.4999717"><ele>928.0</ele><time>2026-04-26T11:25:46.296Z</time></trkpt><trkpt lat="42.85287" lon="11.4998967"><ele>928.0</ele><time>2026-04-26T11:25:47.293Z</time></trkpt><trkpt lat="42.8527967" lon="11.49983"><ele>928.0</ele><time>2026-04-26T11:25:48.297Z</time></trkpt><trkpt lat="42.8527017" lon="11.4997867"><ele>928.0</ele><time>2026-04-26T11:25:49.297Z</time></trkpt><trkpt lat="42.852615" lon="11.4997967"><ele>928.0</ele><time>2026-04-26T11:25:50.296Z</time></trkpt><trkpt lat="42.8525117" lon="11.4997917"><ele>928.0</ele><time>2026-04-26T11:25:51.292Z</time></trkpt><trkpt lat="42.8524117" lon="11.49976"><ele>929.0</ele><time>2026-04-26T11:25:52.297Z</time></trkpt><trkpt lat="42.852305" lon="11.49972"><ele>930.0</ele><time>2026-04-26T11:25:53.296Z</time></trkpt><trkpt lat="42.8522083" lon="11.4996683"><ele>931.0</ele><time>2026-04-26T11:25:54.297Z</time></trkpt><trkpt lat="42.8521167" lon="11.499585"><ele>932.0</ele><time>2026-04-26T11:25:55.296Z</time></trkpt><trkpt lat="42.8520417" lon="11.4994833"><ele>933.0</ele><time>2026-04-26T11:25:56.296Z</time></trkpt><trkpt lat="42.851965" lon="11.4993517"><ele>934.25</ele><time>2026-04-26T11:25:57.296Z</time></trkpt><trkpt lat="42.8518783" lon="11.49921"><ele>935.5</ele><time>2026-04-26T11:25:58.296Z</time></trkpt><trkpt lat="42.8518" lon="11.499075"><ele>936.75</ele><time>2026-04-26T11:25:59.296Z</time></trkpt><trkpt lat="42.85173" lon="11.4989467"><ele>938.0</ele><time>2026-04-26T11:26:00.296Z</time></trkpt><trkpt lat="42.8516717" lon="11.4988117"><ele>937.75</ele><time>2026-04-26T11:26:01.296Z</time></trkpt><trkpt lat="42.8516283" lon="11.4986567"><ele>937.5</ele><time>2026-04-26T11:26:02.296Z</time></trkpt><trkpt lat="42.851595" lon="11.4984967"><ele>937.25</ele><time>2026-04-26T11:26:03.296Z</time></trkpt><trkpt lat="42.851565" lon="11.4983333"><ele>937.0</ele><time>2026-04-26T11:26:04.296Z</time></trkpt><trkpt lat="42.85154" lon="11.4981783"><ele>937.0</ele><time>2026-04-26T11:26:05.296Z</time></trkpt><trkpt lat="42.85152" lon="11.4980283"><ele>937.0</ele><time>2026-04-26T11:26:06.295Z</time></trkpt><trkpt lat="42.8514983" lon="11.4978917"><ele>937.0</ele><time>2026-04-26T11:26:07.294Z</time></trkpt><trkpt lat="42.85148" lon="11.4977583"><ele>937.0</ele><time>2026-04-26T11:26:08.302Z</time></trkpt><trkpt lat="42.851455" lon="11.4976333"><ele>937.0</ele><time>2026-04-26T11:26:09.297Z</time></trkpt><trkpt lat="42.85143" lon="11.4975183"><ele>935.4999999999999</ele><time>2026-04-26T11:26:10.296Z</time></trkpt><trkpt lat="42.851405" lon="11.497415"><ele>934.0</ele><time>2026-04-26T11:26:11.297Z</time></trkpt><trkpt lat="42.8513867" lon="11.4973283"><ele>932.5</ele><time>2026-04-26T11:26:12.296Z</time></trkpt><trkpt lat="42.8513467" lon="11.49718"><ele>931.0</ele><time>2026-04-26T11:26:14.296Z</time></trkpt><trkpt lat="42.8513233" lon="11.4970883"><ele>929.4999999999999</ele><time>2026-04-26T11:26:16.297Z</time></trkpt><trkpt lat="42.8512783" lon="11.4969933"><ele>928.0</ele><time>2026-04-26T11:26:20.295Z</time></trkpt><trkpt lat="42.851245" lon="11.496895"><ele>928.4999999999999</ele><time>2026-04-26T11:26:23.295Z</time></trkpt><trkpt lat="42.8511667" lon="11.49681"><ele>929.0</ele><time>2026-04-26T11:26:26.298Z</time></trkpt><trkpt lat="42.85108" lon="11.496835"><ele>929.5</ele><time>2026-04-26T11:26:28.296Z</time></trkpt><trkpt lat="42.8509867" lon="11.496935"><ele>930.0</ele><time>2026-04-26T11:26:30.295Z</time></trkpt><trkpt lat="42.8509433" lon="11.4970033"><ele>930.4999999999999</ele><time>2026-04-26T11:26:31.296Z</time></trkpt><trkpt lat="42.8509117" lon="11.49708"><ele>931.0</ele><time>2026-04-26T11:26:32.295Z</time></trkpt><trkpt lat="42.8508817" lon="11.49716"><ele>931.0</ele><time>2026-04-26T11:26:33.297Z</time></trkpt><trkpt lat="42.8508567" lon="11.4972467"><ele>931.0</ele><time>2026-04-26T11:26:34.296Z</time></trkpt><trkpt lat="42.8508217" lon="11.4973267"><ele>931.0</ele><time>2026-04-26T11:26:35.297Z</time></trkpt><trkpt lat="42.8507833" lon="11.4974"><ele>931.0</ele><time>2026-04-26T11:26:36.296Z</time></trkpt><trkpt lat="42.8507433" lon="11.4974733"><ele>931.0</ele><time>2026-04-26T11:26:37.295Z</time></trkpt><trkpt lat="42.8506967" lon="11.497545"><ele>931.0</ele><time>2026-04-26T11:26:38.296Z</time></trkpt><trkpt lat="42.850645" lon="11.4976183"><ele>931.0</ele><time>2026-04-26T11:26:39.296Z</time></trkpt><trkpt lat="42.8505817" lon="11.49768"><ele>930.9999999999999</ele><time>2026-04-26T11:26:40.295Z</time></trkpt><trkpt lat="42.8505133" lon="11.4977333"><ele>931.0</ele><time>2026-04-26T11:26:41.296Z</time></trkpt><trkpt lat="42.85044" lon="11.4977717"><ele>931.0</ele><time>2026-04-26T11:26:42.296Z</time></trkpt><trkpt lat="42.85036" lon="11.49779"><ele>931.0</ele><time>2026-04-26T11:26:43.292Z</time></trkpt><trkpt lat="42.850275" lon="11.497795"><ele>930.9999999999999</ele><time>2026-04-26T11:26:44.297Z</time></trkpt><trkpt lat="42.8501833" lon="11.4977833"><ele>931.0</ele><time>2026-04-26T11:26:45.294Z</time></trkpt><trkpt lat="42.8500883" lon="11.4977767"><ele>929.0</ele><time>2026-04-26T11:26:46.296Z</time></trkpt><trkpt lat="42.8499883" lon="11.497775"><ele>926.9999999999999</ele><time>2026-04-26T11:26:47.294Z</time></trkpt><trkpt lat="42.84989" lon="11.4977717"><ele>924.9999999999999</ele><time>2026-04-26T11:26:48.296Z</time></trkpt><trkpt lat="42.8497867" lon="11.4977667"><ele>923.0</ele><time>2026-04-26T11:26:49.295Z</time></trkpt><trkpt lat="42.8496833" lon="11.4977617"><ele>921.0</ele><time>2026-04-26T11:26:50.292Z</time></trkpt><trkpt lat="42.849595" lon="11.4977567"><ele>921.0</ele><time>2026-04-26T11:26:51.296Z</time></trkpt><trkpt lat="42.8495133" lon="11.4977617"><ele>921.0</ele><time>2026-04-26T11:26:52.296Z</time></trkpt><trkpt lat="42.8494367" lon="11.497775"><ele>921.0</ele><time>2026-04-26T11:26:53.295Z</time></trkpt><trkpt lat="42.84937" lon="11.4978083"><ele>921.0</ele><time>2026-04-26T11:26:54.292Z</time></trkpt><trkpt lat="42.8493183" lon="11.4978767"><ele>921.0</ele><time>2026-04-26T11:26:55.295Z</time></trkpt><trkpt lat="42.8492767" lon="11.4979633"><ele>921.0</ele><time>2026-04-26T11:26:56.296Z</time></trkpt><trkpt lat="42.8492333" lon="11.4980583"><ele>922.3333333333334</ele><time>2026-04-26T11:26:57.292Z</time></trkpt><trkpt lat="42.84919" lon="11.4981467"><ele>923.6666666666667</ele><time>2026-04-26T11:26:58.292Z</time></trkpt><trkpt lat="42.84915" lon="11.4982233"><ele>925.0</ele><time>2026-04-26T11:26:59.293Z</time></trkpt><trkpt lat="42.8491117" lon="11.4982967"><ele>926.3333333333334</ele><time>2026-04-26T11:27:00.292Z</time></trkpt><trkpt lat="42.8490317" lon="11.4984167"><ele>927.6666666666667</ele><time>2026-04-26T11:27:02.294Z</time></trkpt><trkpt lat="42.8489633" lon="11.498475"><ele>929.0</ele><time>2026-04-26T11:27:03.291Z</time></trkpt><trkpt lat="42.8488883" lon="11.4985333"><ele>929.0</ele><time>2026-04-26T11:27:04.293Z</time></trkpt><trkpt lat="42.848805" lon="11.498605"><ele>929.0000000000001</ele><time>2026-04-26T11:27:05.292Z</time></trkpt><trkpt lat="42.8487117" lon="11.4986767"><ele>929.0000000000001</ele><time>2026-04-26T11:27:06.293Z</time></trkpt><trkpt lat="42.8486233" lon="11.498755"><ele>929.0</ele><time>2026-04-26T11:27:07.293Z</time></trkpt><trkpt lat="42.8485317" lon="11.4988333"><ele>929.0</ele><time>2026-04-26T11:27:08.292Z</time></trkpt><trkpt lat="42.8484433" lon="11.4989067"><ele>927.1666666666667</ele><time>2026-04-26T11:27:09.292Z</time></trkpt><trkpt lat="42.8483567" lon="11.498975"><ele>925.3333333333334</ele><time>2026-04-26T11:27:10.293Z</time></trkpt><trkpt lat="42.8482733" lon="11.4990367"><ele>923.5</ele><time>2026-04-26T11:27:11.293Z</time></trkpt><trkpt lat="42.8481933" lon="11.4990883"><ele>921.6666666666667</ele><time>2026-04-26T11:27:12.294Z</time></trkpt><trkpt lat="42.848115" lon="11.499125"><ele>919.8333333333334</ele><time>2026-04-26T11:27:13.294Z</time></trkpt><trkpt lat="42.8480383" lon="11.499135"><ele>918.0</ele><time>2026-04-26T11:27:14.294Z</time></trkpt><trkpt lat="42.8479633" lon="11.4991367"><ele>918.0</ele><time>2026-04-26T11:27:15.296Z</time></trkpt><trkpt lat="42.84789" lon="11.4991417"><ele>918.0</ele><time>2026-04-26T11:27:16.295Z</time></trkpt><trkpt lat="42.847825" lon="11.499145"><ele>918.0</ele><time>2026-04-26T11:27:17.292Z</time></trkpt><trkpt lat="42.84775" lon="11.4992183"><ele>918.0</ele><time>2026-04-26T11:27:19.292Z</time></trkpt><trkpt lat="42.8477517" lon="11.4993433"><ele>918.0</ele><time>2026-04-26T11:27:21.291Z</time></trkpt><trkpt lat="42.8477917" lon="11.4994267"><ele>918.0</ele><time>2026-04-26T11:27:22.292Z</time></trkpt><trkpt lat="42.84782" lon="11.499525"><ele>915.0</ele><time>2026-04-26T11:27:23.294Z</time></trkpt><trkpt lat="42.8478533" lon="11.4996417"><ele>912.0</ele><time>2026-04-26T11:27:24.293Z</time></trkpt><trkpt lat="42.847875" lon="11.4997583"><ele>909.0</ele><time>2026-04-26T11:27:25.292Z</time></trkpt><trkpt lat="42.8478817" lon="11.4998833"><ele>906.0</ele><time>2026-04-26T11:27:26.296Z</time></trkpt><trkpt lat="42.8478567" lon="11.5000117"><ele>903.0</ele><time>2026-04-26T11:27:27.292Z</time></trkpt><trkpt lat="42.8478117" lon="11.5001367"><ele>903.0</ele><time>2026-04-26T11:27:28.296Z</time></trkpt><trkpt lat="42.84776" lon="11.5002483"><ele>903.0</ele><time>2026-04-26T11:27:29.292Z</time></trkpt><trkpt lat="42.8476967" lon="11.5003517"><ele>903.0</ele><time>2026-04-26T11:27:30.295Z</time></trkpt><trkpt lat="42.8476433" lon="11.5004533"><ele>903.0</ele><time>2026-04-26T11:27:31.295Z</time></trkpt><trkpt lat="42.8475967" lon="11.5005533"><ele>903.0</ele><time>2026-04-26T11:27:32.295Z</time></trkpt><trkpt lat="42.8475633" lon="11.5006667"><ele>902.1666666666666</ele><time>2026-04-26T11:27:33.295Z</time></trkpt><trkpt lat="42.847555" lon="11.50079"><ele>901.3333333333333</ele><time>2026-04-26T11:27:34.296Z</time></trkpt><trkpt lat="42.847565" lon="11.50091"><ele>900.5</ele><time>2026-04-26T11:27:35.296Z</time></trkpt><trkpt lat="42.8475867" lon="11.501025"><ele>899.6666666666666</ele><time>2026-04-26T11:27:36.295Z</time></trkpt><trkpt lat="42.8476183" lon="11.5011283"><ele>898.8333333333333</ele><time>2026-04-26T11:27:37.295Z</time></trkpt><trkpt lat="42.847665" lon="11.5012083"><ele>898.0</ele><time>2026-04-26T11:27:38.293Z</time></trkpt><trkpt lat="42.8477283" lon="11.5012617"><ele>900.5999999999999</ele><time>2026-04-26T11:27:39.296Z</time></trkpt><trkpt lat="42.8478067" lon="11.5013067"><ele>903.1999999999999</ele><time>2026-04-26T11:27:40.296Z</time></trkpt><trkpt lat="42.8478967" lon="11.5013417"><ele>905.8</ele><time>2026-04-26T11:27:41.293Z</time></trkpt><trkpt lat="42.8479933" lon="11.5013717"><ele>908.4</ele><time>2026-04-26T11:27:42.295Z</time></trkpt><trkpt lat="42.848095" lon="11.5014"><ele>911.0</ele><time>2026-04-26T11:27:43.295Z</time></trkpt><trkpt lat="42.8481967" lon="11.5014183"><ele>911.0000000000001</ele><time>2026-04-26T11:27:44.295Z</time></trkpt><trkpt lat="42.848285" lon="11.501445"><ele>911.0</ele><time>2026-04-26T11:27:45.295Z</time></trkpt><trkpt lat="42.8483717" lon="11.5014683"><ele>911.0</ele><time>2026-04-26T11:27:46.295Z</time></trkpt><trkpt lat="42.8484517" lon="11.501495"><ele>911.0</ele><time>2026-04-26T11:27:47.295Z</time></trkpt><trkpt lat="42.84853" lon="11.501525"><ele>911.0000000000001</ele><time>2026-04-26T11:27:48.292Z</time></trkpt><trkpt lat="42.8486017" lon="11.5015683"><ele>911.0</ele><time>2026-04-26T11:27:49.294Z</time></trkpt><trkpt lat="42.848665" lon="11.501625"><ele>907.6666666666667</ele><time>2026-04-26T11:27:50.295Z</time></trkpt><trkpt lat="42.8487167" lon="11.501695"><ele>904.3333333333334</ele><time>2026-04-26T11:27:51.294Z</time></trkpt><trkpt lat="42.8487667" lon="11.5017733"><ele>901.0</ele><time>2026-04-26T11:27:52.294Z</time></trkpt><trkpt lat="42.8488133" lon="11.5018583"><ele>897.6666666666667</ele><time>2026-04-26T11:27:53.296Z</time></trkpt><trkpt lat="42.8488517" lon="11.5019517"><ele>894.3333333333334</ele><time>2026-04-26T11:27:54.295Z</time></trkpt><trkpt lat="42.84889" lon="11.5020533"><ele>891.0</ele><time>2026-04-26T11:27:55.294Z</time></trkpt><trkpt lat="42.84892" lon="11.50217"><ele>891.0</ele><time>2026-04-26T11:27:56.296Z</time></trkpt><trkpt lat="42.84895" lon="11.502285"><ele>891.0</ele><time>2026-04-26T11:27:57.294Z</time></trkpt><trkpt lat="42.8489783" lon="11.5023983"><ele>891.0</ele><time>2026-04-26T11:27:58.294Z</time></trkpt><trkpt lat="42.849015" lon="11.5025083"><ele>891.0</ele><time>2026-04-26T11:27:59.296Z</time></trkpt><trkpt lat="42.8490583" lon="11.502615"><ele>891.0</ele><time>2026-04-26T11:28:00.296Z</time></trkpt><trkpt lat="42.8491067" lon="11.5027133"><ele>891.0</ele><time>2026-04-26T11:28:01.295Z</time></trkpt><trkpt lat="42.84916" lon="11.502805"><ele>891.0000000000001</ele><time>2026-04-26T11:28:02.296Z</time></trkpt><trkpt lat="42.8492133" lon="11.50289"><ele>891.0</ele><time>2026-04-26T11:28:03.295Z</time></trkpt><trkpt lat="42.8492683" lon="11.5029617"><ele>891.0</ele><time>2026-04-26T11:28:04.295Z</time></trkpt><trkpt lat="42.849325" lon="11.5030117"><ele>891.0</ele><time>2026-04-26T11:28:05.295Z</time></trkpt><trkpt lat="42.8493917" lon="11.5030417"><ele>891.0</ele><time>2026-04-26T11:28:06.292Z</time></trkpt><trkpt lat="42.8494567" lon="11.5030633"><ele>891.0000000000001</ele><time>2026-04-26T11:28:07.296Z</time></trkpt><trkpt lat="42.8495267" lon="11.5030867"><ele>891.0</ele><time>2026-04-26T11:28:08.293Z</time></trkpt><trkpt lat="42.8495883" lon="11.50312"><ele>887.8333333333334</ele><time>2026-04-26T11:28:09.297Z</time></trkpt><trkpt lat="42.8496433" lon="11.5031717"><ele>884.6666666666667</ele><time>2026-04-26T11:28:10.296Z</time></trkpt><trkpt lat="42.8496883" lon="11.50325"><ele>881.5</ele><time>2026-04-26T11:28:11.296Z</time></trkpt><trkpt lat="42.849715" lon="11.5033533"><ele>878.3333333333334</ele><time>2026-04-26T11:28:12.296Z</time></trkpt><trkpt lat="42.8497483" lon="11.5034633"><ele>875.1666666666667</ele><time>2026-04-26T11:28:13.292Z</time></trkpt><trkpt lat="42.8497867" lon="11.5035833"><ele>872.0</ele><time>2026-04-26T11:28:14.295Z</time></trkpt><trkpt lat="42.8498217" lon="11.5037083"><ele>871.8</ele><time>2026-04-26T11:28:15.295Z</time></trkpt><trkpt lat="42.8498583" lon="11.5038383"><ele>871.6</ele><time>2026-04-26T11:28:16.296Z</time></trkpt><trkpt lat="42.8498917" lon="11.50396"><ele>871.3999999999999</ele><time>2026-04-26T11:28:17.295Z</time></trkpt><trkpt lat="42.849925" lon="11.5040733"><ele>871.1999999999999</ele><time>2026-04-26T11:28:18.292Z</time></trkpt><trkpt lat="42.849965" lon="11.50419"><ele>871.0</ele><time>2026-04-26T11:28:19.295Z</time></trkpt><trkpt lat="42.850005" lon="11.5043167"><ele>871.0</ele><time>2026-04-26T11:28:20.294Z</time></trkpt><trkpt lat="42.8500417" lon="11.5044467"><ele>870.9999999999999</ele><time>2026-04-26T11:28:21.299Z</time></trkpt><trkpt lat="42.8500733" lon="11.50458"><ele>870.9999999999999</ele><time>2026-04-26T11:28:22.297Z</time></trkpt><trkpt lat="42.8500917" lon="11.50471"><ele>871.0</ele><time>2026-04-26T11:28:23.294Z</time></trkpt><trkpt lat="42.850105" lon="11.5048433"><ele>871.0</ele><time>2026-04-26T11:28:24.295Z</time></trkpt><trkpt lat="42.8501133" lon="11.5049733"><ele>871.0</ele><time>2026-04-26T11:28:25.296Z</time></trkpt><trkpt lat="42.8501167" lon="11.5051"><ele>870.9999999999999</ele><time>2026-04-26T11:28:26.297Z</time></trkpt><trkpt lat="42.850115" lon="11.50523"><ele>870.9999999999999</ele><time>2026-04-26T11:28:27.294Z</time></trkpt><trkpt lat="42.8501183" lon="11.5053617"><ele>871.0</ele><time>2026-04-26T11:28:28.297Z</time></trkpt><trkpt lat="42.8501217" lon="11.50549"><ele>871.0</ele><time>2026-04-26T11:28:29.296Z</time></trkpt><trkpt lat="42.8501233" lon="11.5056183"><ele>867.1666666666666</ele><time>2026-04-26T11:28:30.296Z</time></trkpt><trkpt lat="42.8501283" lon="11.5057483"><ele>863.3333333333333</ele><time>2026-04-26T11:28:31.295Z</time></trkpt><trkpt lat="42.8501367" lon="11.50588"><ele>859.5</ele><time>2026-04-26T11:28:32.296Z</time></trkpt><trkpt lat="42.85015" lon="11.5060033"><ele>855.6666666666667</ele><time>2026-04-26T11:28:33.297Z</time></trkpt><trkpt lat="42.8501683" lon="11.5061183"><ele>851.8333333333334</ele><time>2026-04-26T11:28:34.295Z</time></trkpt><trkpt lat="42.8501967" lon="11.5062183"><ele>848.0</ele><time>2026-04-26T11:28:35.295Z</time></trkpt><trkpt lat="42.8502417" lon="11.5062983"><ele>848.0</ele><time>2026-04-26T11:28:36.295Z</time></trkpt><trkpt lat="42.8502883" lon="11.5063667"><ele>848.0</ele><time>2026-04-26T11:28:37.296Z</time></trkpt><trkpt lat="42.850355" lon="11.5064133"><ele>848.0</ele><time>2026-04-26T11:28:38.294Z</time></trkpt><trkpt lat="42.8504417" lon="11.50643"><ele>848.0</ele><time>2026-04-26T11:28:39.295Z</time></trkpt><trkpt lat="42.8505567" lon="11.5064117"><ele>848.0</ele><time>2026-04-26T11:28:40.298Z</time></trkpt><trkpt lat="42.8506817" lon="11.5063833"><ele>848.0</ele><time>2026-04-26T11:28:41.293Z</time></trkpt><trkpt lat="42.8507817" lon="11.5063883"><ele>848.0</ele><time>2026-04-26T11:28:42.295Z</time></trkpt><trkpt lat="42.8508767" lon="11.5064167"><ele>848.0</ele><time>2026-04-26T11:28:43.295Z</time></trkpt><trkpt lat="42.8509717" lon="11.5064583"><ele>848.0</ele><time>2026-04-26T11:28:44.296Z</time></trkpt><trkpt lat="42.8510383" lon="11.5065317"><ele>848.0</ele><time>2026-04-26T11:28:45.296Z</time></trkpt><trkpt lat="42.8510933" lon="11.506635"><ele>847.5999999999999</ele><time>2026-04-26T11:28:46.292Z</time></trkpt><trkpt lat="42.8511217" lon="11.5067783"><ele>847.1999999999999</ele><time>2026-04-26T11:28:47.292Z</time></trkpt><trkpt lat="42.8511333" lon="11.50693"><ele>846.8</ele><time>2026-04-26T11:28:48.292Z</time></trkpt><trkpt lat="42.851145" lon="11.5070867"><ele>846.4</ele><time>2026-04-26T11:28:49.294Z</time></trkpt><trkpt lat="42.85116" lon="11.5072317"><ele>846.0</ele><time>2026-04-26T11:28:50.293Z</time></trkpt><trkpt lat="42.85118" lon="11.50735"><ele>845.1999999999999</ele><time>2026-04-26T11:28:51.292Z</time></trkpt><trkpt lat="42.8512183" lon="11.507455"><ele>844.4</ele><time>2026-04-26T11:28:52.292Z</time></trkpt><trkpt lat="42.851275" lon="11.50755"><ele>843.6</ele><time>2026-04-26T11:28:53.292Z</time></trkpt><trkpt lat="42.8513417" lon="11.5076333"><ele>842.8</ele><time>2026-04-26T11:28:54.293Z</time></trkpt><trkpt lat="42.85141" lon="11.5077183"><ele>842.0</ele><time>2026-04-26T11:28:55.292Z</time></trkpt><trkpt lat="42.8514817" lon="11.507805"><ele>842.0</ele><time>2026-04-26T11:28:56.293Z</time></trkpt><trkpt lat="42.85155" lon="11.5079083"><ele>842.0</ele><time>2026-04-26T11:28:57.293Z</time></trkpt><trkpt lat="42.8516033" lon="11.5080317"><ele>842.0</ele><time>2026-04-26T11:28:58.293Z</time></trkpt><trkpt lat="42.8516417" lon="11.5081717"><ele>842.0</ele><time>2026-04-26T11:28:59.295Z</time></trkpt><trkpt lat="42.8516817" lon="11.5083267"><ele>842.0</ele><time>2026-04-26T11:29:00.296Z</time></trkpt><trkpt lat="42.8517233" lon="11.5084883"><ele>840.75</ele><time>2026-04-26T11:29:01.295Z</time></trkpt><trkpt lat="42.851765" lon="11.508655"><ele>839.5</ele><time>2026-04-26T11:29:02.295Z</time></trkpt><trkpt lat="42.8518183" lon="11.5088183"><ele>838.25</ele><time>2026-04-26T11:29:03.295Z</time></trkpt><trkpt lat="42.8518717" lon="11.5089783"><ele>837.0</ele><time>2026-04-26T11:29:04.296Z</time></trkpt><trkpt lat="42.85192" lon="11.50913"><ele>836.0</ele><time>2026-04-26T11:29:05.295Z</time></trkpt><trkpt lat="42.8519567" lon="11.50926"><ele>835.0</ele><time>2026-04-26T11:29:06.295Z</time></trkpt><trkpt lat="42.8519733" lon="11.5093783"><ele>834.0</ele><time>2026-04-26T11:29:07.295Z</time></trkpt><trkpt lat="42.8519683" lon="11.50949"><ele>833.0</ele><time>2026-04-26T11:29:08.296Z</time></trkpt><trkpt lat="42.8519533" lon="11.5095983"><ele>832.0</ele><time>2026-04-26T11:29:09.295Z</time></trkpt><trkpt lat="42.85192" lon="11.5097067"><ele>831.0</ele><time>2026-04-26T11:29:10.295Z</time></trkpt><trkpt lat="42.8518767" lon="11.509815"><ele>831.0</ele><time>2026-04-26T11:29:11.295Z</time></trkpt><trkpt lat="42.8518267" lon="11.50993"><ele>831.0</ele><time>2026-04-26T11:29:12.296Z</time></trkpt><trkpt lat="42.8517767" lon="11.5100517"><ele>831.0</ele><time>2026-04-26T11:29:13.296Z</time></trkpt><trkpt lat="42.8517317" lon="11.5101783"><ele>831.0</ele><time>2026-04-26T11:29:14.297Z</time></trkpt><trkpt lat="42.8516883" lon="11.51031"><ele>831.0</ele><time>2026-04-26T11:29:15.297Z</time></trkpt><trkpt lat="42.8516467" lon="11.510445"><ele>831.8</ele><time>2026-04-26T11:29:16.296Z</time></trkpt><trkpt lat="42.85161" lon="11.510585"><ele>832.5999999999999</ele><time>2026-04-26T11:29:17.293Z</time></trkpt><trkpt lat="42.8515767" lon="11.5107267"><ele>833.4</ele><time>2026-04-26T11:29:18.292Z</time></trkpt><trkpt lat="42.8515483" lon="11.5108683"><ele>834.2</ele><time>2026-04-26T11:29:19.293Z</time></trkpt><trkpt lat="42.851525" lon="11.511005"><ele>835.0</ele><time>2026-04-26T11:29:20.294Z</time></trkpt><trkpt lat="42.8515133" lon="11.511135"><ele>834.6</ele><time>2026-04-26T11:29:21.292Z</time></trkpt><trkpt lat="42.85151" lon="11.5112633"><ele>834.2</ele><time>2026-04-26T11:29:22.292Z</time></trkpt><trkpt lat="42.8515183" lon="11.511395"><ele>833.8</ele><time>2026-04-26T11:29:23.293Z</time></trkpt><trkpt lat="42.8515417" lon="11.5115233"><ele>833.4</ele><time>2026-04-26T11:29:24.295Z</time></trkpt><trkpt lat="42.85157" lon="11.5116533"><ele>833.0</ele><time>2026-04-26T11:29:25.295Z</time></trkpt><trkpt lat="42.85161" lon="11.51179"><ele>833.0</ele><time>2026-04-26T11:29:26.296Z</time></trkpt><trkpt lat="42.8516467" lon="11.51193"><ele>833.0</ele><time>2026-04-26T11:29:27.296Z</time></trkpt><trkpt lat="42.8516833" lon="11.5120767"><ele>833.0</ele><time>2026-04-26T11:29:28.294Z</time></trkpt><trkpt lat="42.851715" lon="11.5122317"><ele>833.0</ele><time>2026-04-26T11:29:29.295Z</time></trkpt><trkpt lat="42.85175" lon="11.5123833"><ele>833.5</ele><time>2026-04-26T11:29:30.295Z</time></trkpt><trkpt lat="42.85178" lon="11.5125367"><ele>834.0</ele><time>2026-04-26T11:29:31.296Z</time></trkpt><trkpt lat="42.8518067" lon="11.51269"><ele>834.5</ele><time>2026-04-26T11:29:32.295Z</time></trkpt><trkpt lat="42.8518333" lon="11.51285"><ele>835.0</ele><time>2026-04-26T11:29:33.295Z</time></trkpt><trkpt lat="42.8518517" lon="11.5130167"><ele>828.25</ele><time>2026-04-26T11:29:34.298Z</time></trkpt><trkpt lat="42.8518683" lon="11.5131817"><ele>821.5</ele><time>2026-04-26T11:29:35.292Z</time></trkpt><trkpt lat="42.8518767" lon="11.5133433"><ele>814.75</ele><time>2026-04-26T11:29:36.296Z</time></trkpt><trkpt lat="42.8518683" lon="11.5135083"><ele>808.0</ele><time>2026-04-26T11:29:37.296Z</time></trkpt><trkpt lat="42.851855" lon="11.5136667"><ele>807.2</ele><time>2026-04-26T11:29:38.293Z</time></trkpt><trkpt lat="42.851845" lon="11.5138233"><ele>806.4</ele><time>2026-04-26T11:29:39.295Z</time></trkpt><trkpt lat="42.85183" lon="11.5139767"><ele>805.6</ele><time>2026-04-26T11:29:40.295Z</time></trkpt><trkpt lat="42.85183" lon="11.514125"><ele>804.8000000000001</ele><time>2026-04-26T11:29:41.295Z</time></trkpt><trkpt lat="42.851825" lon="11.51426"><ele>804.0</ele><time>2026-04-26T11:29:42.292Z</time></trkpt><trkpt lat="42.8518167" lon="11.5143817"><ele>804.0</ele><time>2026-04-26T11:29:43.295Z</time></trkpt><trkpt lat="42.851805" lon="11.51449"><ele>804.0</ele><time>2026-04-26T11:29:44.295Z</time></trkpt><trkpt lat="42.8517767" lon="11.5145817"><ele>804.0</ele><time>2026-04-26T11:29:45.296Z</time></trkpt><trkpt lat="42.8517217" lon="11.5146567"><ele>804.0</ele><time>2026-04-26T11:29:46.295Z</time></trkpt><trkpt lat="42.851645" lon="11.5147133"><ele>804.0</ele><time>2026-04-26T11:29:47.293Z</time></trkpt><trkpt lat="42.85154" lon="11.5147583"><ele>804.0</ele><time>2026-04-26T11:29:48.292Z</time></trkpt><trkpt lat="42.8514283" lon="11.5148167"><ele>805.0</ele><time>2026-04-26T11:29:49.293Z</time></trkpt><trkpt lat="42.851315" lon="11.5148817"><ele>806.0</ele><time>2026-04-26T11:29:50.293Z</time></trkpt><trkpt lat="42.8512033" lon="11.5149467"><ele>807.0</ele><time>2026-04-26T11:29:51.293Z</time></trkpt><trkpt lat="42.8510933" lon="11.515015"><ele>808.0</ele><time>2026-04-26T11:29:52.293Z</time></trkpt><trkpt lat="42.850985" lon="11.515085"><ele>807.4</ele><time>2026-04-26T11:29:53.294Z</time></trkpt><trkpt lat="42.8508767" lon="11.5151533"><ele>806.8</ele><time>2026-04-26T11:29:54.297Z</time></trkpt><trkpt lat="42.850775" lon="11.5152117"><ele>806.2</ele><time>2026-04-26T11:29:55.297Z</time></trkpt><trkpt lat="42.8506883" lon="11.5152733"><ele>805.6</ele><time>2026-04-26T11:29:56.296Z</time></trkpt><trkpt lat="42.8506267" lon="11.515345"><ele>805.0</ele><time>2026-04-26T11:29:57.295Z</time></trkpt><trkpt lat="42.8505833" lon="11.51543"><ele>802.8</ele><time>2026-04-26T11:29:58.293Z</time></trkpt><trkpt lat="42.8505633" lon="11.5155333"><ele>800.6</ele><time>2026-04-26T11:29:59.293Z</time></trkpt><trkpt lat="42.8505583" lon="11.5156567"><ele>798.4000000000001</ele><time>2026-04-26T11:30:00.292Z</time></trkpt><trkpt lat="42.8505783" lon="11.5158083"><ele>796.2</ele><time>2026-04-26T11:30:01.293Z</time></trkpt><trkpt lat="42.850605" lon="11.5159567"><ele>794.0</ele><time>2026-04-26T11:30:02.293Z</time></trkpt><trkpt lat="42.850635" lon="11.5160917"><ele>794.0</ele><time>2026-04-26T11:30:03.294Z</time></trkpt><trkpt lat="42.8506717" lon="11.5162083"><ele>794.0</ele><time>2026-04-26T11:30:04.296Z</time></trkpt><trkpt lat="42.850725" lon="11.5163083"><ele>794.0</ele><time>2026-04-26T11:30:05.295Z</time></trkpt><trkpt lat="42.8507817" lon="11.5164033"><ele>794.0</ele><time>2026-04-26T11:30:06.293Z</time></trkpt><trkpt lat="42.8508433" lon="11.5165"><ele>794.0</ele><time>2026-04-26T11:30:07.297Z</time></trkpt><trkpt lat="42.8509183" lon="11.5165983"><ele>790.4000000000001</ele><time>2026-04-26T11:30:08.294Z</time></trkpt><trkpt lat="42.8509983" lon="11.5167083"><ele>786.8</ele><time>2026-04-26T11:30:09.292Z</time></trkpt><trkpt lat="42.8510733" lon="11.5168283"><ele>783.2</ele><time>2026-04-26T11:30:10.293Z</time></trkpt><trkpt lat="42.851145" lon="11.5169417"><ele>779.5999999999999</ele><time>2026-04-26T11:30:11.296Z</time></trkpt><trkpt lat="42.851215" lon="11.5170517"><ele>776.0</ele><time>2026-04-26T11:30:12.296Z</time></trkpt><trkpt lat="42.8512983" lon="11.517145"><ele>776.0</ele><time>2026-04-26T11:30:13.299Z</time></trkpt><trkpt lat="42.8513917" lon="11.5172183"><ele>776.0</ele><time>2026-04-26T11:30:14.296Z</time></trkpt><trkpt lat="42.851495" lon="11.5172833"><ele>776.0</ele><time>2026-04-26T11:30:15.298Z</time></trkpt><trkpt lat="42.8515983" lon="11.5173483"><ele>776.0</ele><time>2026-04-26T11:30:16.297Z</time></trkpt><trkpt lat="42.8516983" lon="11.5174167"><ele>776.0</ele><time>2026-04-26T11:30:17.296Z</time></trkpt><trkpt lat="42.851795" lon="11.517495"><ele>772.8</ele><time>2026-04-26T11:30:18.296Z</time></trkpt><trkpt lat="42.85189" lon="11.517575"><ele>769.5999999999999</ele><time>2026-04-26T11:30:19.296Z</time></trkpt><trkpt lat="42.85198" lon="11.51765"><ele>766.4</ele><time>2026-04-26T11:30:20.298Z</time></trkpt><trkpt lat="42.8520617" lon="11.5177133"><ele>763.2</ele><time>2026-04-26T11:30:21.296Z</time></trkpt><trkpt lat="42.852135" lon="11.5177783"><ele>760.0</ele><time>2026-04-26T11:30:22.297Z</time></trkpt><trkpt lat="42.8522017" lon="11.5178433"><ele>762.1428571428571</ele><time>2026-04-26T11:30:23.299Z</time></trkpt><trkpt lat="42.8522667" lon="11.5179133"><ele>764.2857142857143</ele><time>2026-04-26T11:30:24.296Z</time></trkpt><trkpt lat="42.8523233" lon="11.5179967"><ele>766.4285714285713</ele><time>2026-04-26T11:30:25.296Z</time></trkpt><trkpt lat="42.852375" lon="11.5180767"><ele>768.5714285714286</ele><time>2026-04-26T11:30:26.296Z</time></trkpt><trkpt lat="42.8524167" lon="11.518145"><ele>770.7142857142857</ele><time>2026-04-26T11:30:27.296Z</time></trkpt><trkpt lat="42.8524567" lon="11.5182167"><ele>772.8571428571428</ele><time>2026-04-26T11:30:28.293Z</time></trkpt><trkpt lat="42.852505" lon="11.518285"><ele>775.0</ele><time>2026-04-26T11:30:29.294Z</time></trkpt><trkpt lat="42.8525483" lon="11.5183583"><ele>775.0</ele><time>2026-04-26T11:30:30.294Z</time></trkpt><trkpt lat="42.8525883" lon="11.51843"><ele>775.0</ele><time>2026-04-26T11:30:31.292Z</time></trkpt><trkpt lat="42.85266" lon="11.5185417"><ele>775.0</ele><time>2026-04-26T11:30:33.292Z</time></trkpt><trkpt lat="42.8526967" lon="11.5186767"><ele>775.0</ele><time>2026-04-26T11:30:35.292Z</time></trkpt><trkpt lat="42.8526817" lon="11.518865"><ele>775.0</ele><time>2026-04-26T11:30:37.293Z</time></trkpt><trkpt lat="42.8526483" lon="11.51898"><ele>775.3333333333333</ele><time>2026-04-26T11:30:38.295Z</time></trkpt><trkpt lat="42.8526083" lon="11.5190967"><ele>775.6666666666666</ele><time>2026-04-26T11:30:39.295Z</time></trkpt><trkpt lat="42.8525717" lon="11.5192117"><ele>776.0</ele><time>2026-04-26T11:30:40.294Z</time></trkpt><trkpt lat="42.8525467" lon="11.5193183"><ele>776.3333333333333</ele><time>2026-04-26T11:30:41.297Z</time></trkpt><trkpt lat="42.8525333" lon="11.519425"><ele>776.6666666666666</ele><time>2026-04-26T11:30:42.296Z</time></trkpt><trkpt lat="42.8525483" lon="11.5195233"><ele>777.0</ele><time>2026-04-26T11:30:43.296Z</time></trkpt><trkpt lat="42.8525867" lon="11.5196017"><ele>775.2</ele><time>2026-04-26T11:30:44.296Z</time></trkpt><trkpt lat="42.85267" lon="11.5196667"><ele>773.4000000000001</ele><time>2026-04-26T11:30:45.295Z</time></trkpt><trkpt lat="42.8527467" lon="11.5197367"><ele>771.5999999999999</ele><time>2026-04-26T11:30:46.296Z</time></trkpt><trkpt lat="42.8528183" lon="11.5198133"><ele>769.8</ele><time>2026-04-26T11:30:47.298Z</time></trkpt><trkpt lat="42.8528717" lon="11.5198867"><ele>768.0</ele><time>2026-04-26T11:30:48.296Z</time></trkpt><trkpt lat="42.8529367" lon="11.5200117"><ele>768.0</ele><time>2026-04-26T11:30:50.294Z</time></trkpt><trkpt lat="42.85298" lon="11.5201"><ele>768.0</ele><time>2026-04-26T11:30:52.296Z</time></trkpt><trkpt lat="42.85301" lon="11.5201867"><ele>768.0</ele><time>2026-04-26T11:31:02.296Z</time></trkpt><trkpt lat="42.8529967" lon="11.5203083"><ele>768.0</ele><time>2026-04-26T11:31:04.294Z</time></trkpt><trkpt lat="42.852965" lon="11.5204367"><ele>768.0</ele><time>2026-04-26T11:31:06.295Z</time></trkpt><trkpt lat="42.8529183" lon="11.5205683"><ele>768.0</ele><time>2026-04-26T11:31:08.297Z</time></trkpt><trkpt lat="42.8528617" lon="11.5207017"><ele>768.1666666666666</ele><time>2026-04-26T11:31:10.297Z</time></trkpt><trkpt lat="42.8527883" lon="11.5208483"><ele>768.3333333333333</ele><time>2026-04-26T11:31:12.296Z</time></trkpt><trkpt lat="42.852745" lon="11.5209283"><ele>768.5</ele><time>2026-04-26T11:31:13.296Z</time></trkpt><trkpt lat="42.852695" lon="11.5210067"><ele>768.6666666666666</ele><time>2026-04-26T11:31:14.296Z</time></trkpt><trkpt lat="42.8526367" lon="11.5210817"><ele>768.8333333333333</ele><time>2026-04-26T11:31:15.296Z</time></trkpt><trkpt lat="42.85257" lon="11.521145"><ele>769.0</ele><time>2026-04-26T11:31:16.296Z</time></trkpt><trkpt lat="42.852495" lon="11.5212067"><ele>771.0</ele><time>2026-04-26T11:31:17.296Z</time></trkpt><trkpt lat="42.852415" lon="11.5212683"><ele>773.0</ele><time>2026-04-26T11:31:18.296Z</time></trkpt><trkpt lat="42.8523367" lon="11.5213333"><ele>775.0</ele><time>2026-04-26T11:31:19.297Z</time></trkpt><trkpt lat="42.8522517" lon="11.521405"><ele>777.0</ele><time>2026-04-26T11:31:20.296Z</time></trkpt><trkpt lat="42.8521617" lon="11.521475"><ele>779.0</ele><time>2026-04-26T11:31:21.296Z</time></trkpt><trkpt lat="42.8520683" lon="11.52154"><ele>779.0</ele><time>2026-04-26T11:31:22.297Z</time></trkpt><trkpt lat="42.851965" lon="11.5216"><ele>779.0</ele><time>2026-04-26T11:31:23.296Z</time></trkpt><trkpt lat="42.8518533" lon="11.5216467"><ele>779.0</ele><time>2026-04-26T11:31:24.297Z</time></trkpt><trkpt lat="42.8517383" lon="11.5216733"><ele>779.0</ele><time>2026-04-26T11:31:25.297Z</time></trkpt><trkpt lat="42.8516267" lon="11.5216767"><ele>781.25</ele><time>2026-04-26T11:31:26.295Z</time></trkpt><trkpt lat="42.8515217" lon="11.5216583"><ele>783.5</ele><time>2026-04-26T11:31:27.296Z</time></trkpt><trkpt lat="42.8514167" lon="11.5216083"><ele>785.75</ele><time>2026-04-26T11:31:28.295Z</time></trkpt><trkpt lat="42.8513133" lon="11.5215317"><ele>788.0</ele><time>2026-04-26T11:31:29.293Z</time></trkpt><trkpt lat="42.8512083" lon="11.5214433"><ele>788.0</ele><time>2026-04-26T11:31:30.293Z</time></trkpt><trkpt lat="42.8511017" lon="11.5213417"><ele>788.0</ele><time>2026-04-26T11:31:31.294Z</time></trkpt><trkpt lat="42.85099" lon="11.5212383"><ele>788.0</ele><time>2026-04-26T11:31:32.294Z</time></trkpt><trkpt lat="42.8508767" lon="11.5211317"><ele>788.0</ele><time>2026-04-26T11:31:33.294Z</time></trkpt><trkpt lat="42.850765" lon="11.521015"><ele>791.5</ele><time>2026-04-26T11:31:34.292Z</time></trkpt><trkpt lat="42.8506517" lon="11.5208883"><ele>795.0</ele><time>2026-04-26T11:31:35.294Z</time></trkpt><trkpt lat="42.8505383" lon="11.52076"><ele>798.5</ele><time>2026-04-26T11:31:36.293Z</time></trkpt><trkpt lat="42.8504233" lon="11.520635"><ele>802.0</ele><time>2026-04-26T11:31:37.294Z</time></trkpt><trkpt lat="42.8503067" lon="11.5205117"><ele>803.0</ele><time>2026-04-26T11:31:38.293Z</time></trkpt><trkpt lat="42.8501883" lon="11.5203833"><ele>804.0</ele><time>2026-04-26T11:31:39.293Z</time></trkpt><trkpt lat="42.8500683" lon="11.5202583"><ele>805.0</ele><time>2026-04-26T11:31:40.293Z</time></trkpt><trkpt lat="42.849955" lon="11.5201333"><ele>806.0</ele><time>2026-04-26T11:31:41.296Z</time></trkpt><trkpt lat="42.84985" lon="11.520015"><ele>806.5</ele><time>2026-04-26T11:31:42.292Z</time></trkpt><trkpt lat="42.8497533" lon="11.5198967"><ele>807.0</ele><time>2026-04-26T11:31:43.296Z</time></trkpt><trkpt lat="42.8496617" lon="11.519775"><ele>807.5</ele><time>2026-04-26T11:31:44.294Z</time></trkpt><trkpt lat="42.8495867" lon="11.5196317"><ele>808.0</ele><time>2026-04-26T11:31:45.293Z</time></trkpt><trkpt lat="42.8495217" lon="11.5194917"><ele>808.0</ele><time>2026-04-26T11:31:46.296Z</time></trkpt><trkpt lat="42.8494583" lon="11.5193617"><ele>808.0</ele><time>2026-04-26T11:31:47.293Z</time></trkpt><trkpt lat="42.8493917" lon="11.5192467"><ele>808.0</ele><time>2026-04-26T11:31:48.292Z</time></trkpt><trkpt lat="42.8493133" lon="11.51916"><ele>808.0</ele><time>2026-04-26T11:31:49.297Z</time></trkpt><trkpt lat="42.8492183" lon="11.5190967"><ele>808.0</ele><time>2026-04-26T11:31:50.297Z</time></trkpt><trkpt lat="42.8491167" lon="11.519055"><ele>811.25</ele><time>2026-04-26T11:31:51.297Z</time></trkpt><trkpt lat="42.8489967" lon="11.5190217"><ele>814.5</ele><time>2026-04-26T11:31:52.296Z</time></trkpt><trkpt lat="42.8488733" lon="11.518985"><ele>817.75</ele><time>2026-04-26T11:31:53.296Z</time></trkpt><trkpt lat="42.8487367" lon="11.5189417"><ele>821.0</ele><time>2026-04-26T11:31:54.295Z</time></trkpt><trkpt lat="42.8485883" lon="11.5188967"><ele>825.3333333333334</ele><time>2026-04-26T11:31:55.296Z</time></trkpt><trkpt lat="42.8484367" lon="11.5188417"><ele>829.6666666666667</ele><time>2026-04-26T11:31:56.297Z</time></trkpt><trkpt lat="42.8482867" lon="11.5187833"><ele>834.0</ele><time>2026-04-26T11:31:57.297Z</time></trkpt><trkpt lat="42.848145" lon="11.518745"><ele>834.0</ele><time>2026-04-26T11:31:58.296Z</time></trkpt><trkpt lat="42.8480083" lon="11.5187433"><ele>834.0</ele><time>2026-04-26T11:31:59.293Z</time></trkpt><trkpt lat="42.84787" lon="11.5187567"><ele>834.0</ele><time>2026-04-26T11:32:00.293Z</time></trkpt><trkpt lat="42.8477383" lon="11.5187817"><ele>834.0</ele><time>2026-04-26T11:32:01.292Z</time></trkpt><trkpt lat="42.8476267" lon="11.5188183"><ele>836.25</ele><time>2026-04-26T11:32:02.294Z</time></trkpt><trkpt lat="42.8475283" lon="11.5188817"><ele>838.5</ele><time>2026-04-26T11:32:03.293Z</time></trkpt><trkpt lat="42.8474433" lon="11.5189783"><ele>840.75</ele><time>2026-04-26T11:32:04.295Z</time></trkpt><trkpt lat="42.84737" lon="11.5191083"><ele>843.0</ele><time>2026-04-26T11:32:05.294Z</time></trkpt><trkpt lat="42.8473133" lon="11.5192733"><ele>843.0</ele><time>2026-04-26T11:32:06.293Z</time></trkpt><trkpt lat="42.8472567" lon="11.51945"><ele>843.0</ele><time>2026-04-26T11:32:07.294Z</time></trkpt><trkpt lat="42.8471883" lon="11.5196317"><ele>843.0</ele><time>2026-04-26T11:32:08.298Z</time></trkpt><trkpt lat="42.8471083" lon="11.51981"><ele>843.0</ele><time>2026-04-26T11:32:09.293Z</time></trkpt><trkpt lat="42.847025" lon="11.5199767"><ele>842.4</ele><time>2026-04-26T11:32:10.294Z</time></trkpt><trkpt lat="42.8469567" lon="11.5201267"><ele>841.8</ele><time>2026-04-26T11:32:11.296Z</time></trkpt><trkpt lat="42.846905" lon="11.5202683"><ele>841.2</ele><time>2026-04-26T11:32:12.297Z</time></trkpt><trkpt lat="42.8468667" lon="11.5204"><ele>840.6</ele><time>2026-04-26T11:32:13.297Z</time></trkpt><trkpt lat="42.8468267" lon="11.5205233"><ele>840.0</ele><time>2026-04-26T11:32:14.296Z</time></trkpt><trkpt lat="42.8467817" lon="11.52063"><ele>842.0</ele><time>2026-04-26T11:32:15.296Z</time></trkpt><trkpt lat="42.8467333" lon="11.5207183"><ele>844.0</ele><time>2026-04-26T11:32:16.294Z</time></trkpt><trkpt lat="42.8466817" lon="11.5207767"><ele>846.0</ele><time>2026-04-26T11:32:17.293Z</time></trkpt><trkpt lat="42.846555" lon="11.52079"><ele>848.0</ele><time>2026-04-26T11:32:19.297Z</time></trkpt><trkpt lat="42.846505" lon="11.52072"><ele>850.0</ele><time>2026-04-26T11:32:20.297Z</time></trkpt><trkpt lat="42.8464817" lon="11.520615"><ele>852.0</ele><time>2026-04-26T11:32:21.296Z</time></trkpt><trkpt lat="42.84649" lon="11.52048"><ele>853.75</ele><time>2026-04-26T11:32:22.296Z</time></trkpt><trkpt lat="42.8465117" lon="11.5203283"><ele>855.5</ele><time>2026-04-26T11:32:23.297Z</time></trkpt><trkpt lat="42.8465433" lon="11.520165"><ele>857.25</ele><time>2026-04-26T11:32:24.296Z</time></trkpt><trkpt lat="42.8465667" lon="11.520005"><ele>859.0</ele><time>2026-04-26T11:32:25.296Z</time></trkpt><trkpt lat="42.846585" lon="11.5198567"><ele>858.9999999999999</ele><time>2026-04-26T11:32:26.297Z</time></trkpt><trkpt lat="42.8465867" lon="11.519725"><ele>859.0</ele><time>2026-04-26T11:32:27.296Z</time></trkpt><trkpt lat="42.84657" lon="11.5196083"><ele>859.0</ele><time>2026-04-26T11:32:28.296Z</time></trkpt><trkpt lat="42.8465367" lon="11.5195133"><ele>859.0</ele><time>2026-04-26T11:32:29.293Z</time></trkpt><trkpt lat="42.846475" lon="11.5194583"><ele>858.9999999999999</ele><time>2026-04-26T11:32:30.296Z</time></trkpt><trkpt lat="42.84642" lon="11.5194133"><ele>859.0</ele><time>2026-04-26T11:32:31.296Z</time></trkpt><trkpt lat="42.846345" lon="11.5194067"><ele>859.8000000000001</ele><time>2026-04-26T11:32:32.294Z</time></trkpt><trkpt lat="42.846255" lon="11.5194267"><ele>860.6000000000001</ele><time>2026-04-26T11:32:33.293Z</time></trkpt><trkpt lat="42.846155" lon="11.51944"><ele>861.4</ele><time>2026-04-26T11:32:34.293Z</time></trkpt><trkpt lat="42.8460633" lon="11.519425"><ele>862.2</ele><time>2026-04-26T11:32:35.294Z</time></trkpt><trkpt lat="42.8459817" lon="11.519385"><ele>863.0</ele><time>2026-04-26T11:32:36.297Z</time></trkpt><trkpt lat="42.845915" lon="11.5193233"><ele>865.8</ele><time>2026-04-26T11:32:37.295Z</time></trkpt><trkpt lat="42.8458767" lon="11.51923"><ele>868.5999999999999</ele><time>2026-04-26T11:32:38.294Z</time></trkpt><trkpt lat="42.8458667" lon="11.5191083"><ele>871.4000000000001</ele><time>2026-04-26T11:32:39.292Z</time></trkpt><trkpt lat="42.8458867" lon="11.5189533"><ele>874.2</ele><time>2026-04-26T11:32:40.294Z</time></trkpt><trkpt lat="42.8459033" lon="11.5188"><ele>877.0</ele><time>2026-04-26T11:32:41.296Z</time></trkpt><trkpt lat="42.84592" lon="11.5186467"><ele>878.8</ele><time>2026-04-26T11:32:42.297Z</time></trkpt><trkpt lat="42.8459317" lon="11.5184867"><ele>880.6</ele><time>2026-04-26T11:32:43.299Z</time></trkpt><trkpt lat="42.8459433" lon="11.5183383"><ele>882.3999999999999</ele><time>2026-04-26T11:32:44.296Z</time></trkpt><trkpt lat="42.8459617" lon="11.5181917"><ele>884.1999999999999</ele><time>2026-04-26T11:32:45.296Z</time></trkpt><trkpt lat="42.84599" lon="11.5180533"><ele>886.0</ele><time>2026-04-26T11:32:46.297Z</time></trkpt><trkpt lat="42.84602" lon="11.5179233"><ele>885.4</ele><time>2026-04-26T11:32:47.296Z</time></trkpt><trkpt lat="42.8460517" lon="11.5178"><ele>884.8</ele><time>2026-04-26T11:32:48.297Z</time></trkpt><trkpt lat="42.846095" lon="11.517685"><ele>884.1999999999999</ele><time>2026-04-26T11:32:49.297Z</time></trkpt><trkpt lat="42.846145" lon="11.5175717"><ele>883.5999999999999</ele><time>2026-04-26T11:32:50.297Z</time></trkpt><trkpt lat="42.8461983" lon="11.5174633"><ele>883.0</ele><time>2026-04-26T11:32:51.297Z</time></trkpt><trkpt lat="42.8462567" lon="11.51737"><ele>882.9999999999999</ele><time>2026-04-26T11:32:52.295Z</time></trkpt><trkpt lat="42.8463183" lon="11.5172917"><ele>883.0</ele><time>2026-04-26T11:32:53.293Z</time></trkpt><trkpt lat="42.8463833" lon="11.5172233"><ele>883.0</ele><time>2026-04-26T11:32:54.294Z</time></trkpt><trkpt lat="42.8464567" lon="11.5171617"><ele>883.0</ele><time>2026-04-26T11:32:55.295Z</time></trkpt><trkpt lat="42.8465317" lon="11.5171033"><ele>882.9999999999999</ele><time>2026-04-26T11:32:56.294Z</time></trkpt><trkpt lat="42.8466033" lon="11.5170383"><ele>883.0</ele><time>2026-04-26T11:32:57.293Z</time></trkpt><trkpt lat="42.8466633" lon="11.5169567"><ele>885.4999999999999</ele><time>2026-04-26T11:32:58.293Z</time></trkpt><trkpt lat="42.8467133" lon="11.5168733"><ele>888.0</ele><time>2026-04-26T11:32:59.293Z</time></trkpt><trkpt lat="42.8467333" lon="11.5167717"><ele>890.5</ele><time>2026-04-26T11:33:00.294Z</time></trkpt><trkpt lat="42.8467233" lon="11.5166617"><ele>893.0</ele><time>2026-04-26T11:33:01.294Z</time></trkpt><trkpt lat="42.8467033" lon="11.5165617"><ele>895.4999999999999</ele><time>2026-04-26T11:33:02.293Z</time></trkpt><trkpt lat="42.8466667" lon="11.5164733"><ele>898.0</ele><time>2026-04-26T11:33:03.296Z</time></trkpt><trkpt lat="42.84661" lon="11.5164017"><ele>897.9999999999999</ele><time>2026-04-26T11:33:04.293Z</time></trkpt><trkpt lat="42.8465633" lon="11.5163333"><ele>898.0</ele><time>2026-04-26T11:33:05.295Z</time></trkpt><trkpt lat="42.8464867" lon="11.5162817"><ele>898.0</ele><time>2026-04-26T11:33:06.294Z</time></trkpt><trkpt lat="42.846405" lon="11.5162317"><ele>898.0</ele><time>2026-04-26T11:33:07.295Z</time></trkpt><trkpt lat="42.8463083" lon="11.5161867"><ele>897.9999999999999</ele><time>2026-04-26T11:33:08.297Z</time></trkpt><trkpt lat="42.8462117" lon="11.5161417"><ele>898.0</ele><time>2026-04-26T11:33:09.294Z</time></trkpt><trkpt lat="42.8461167" lon="11.516095"><ele>898.5999999999999</ele><time>2026-04-26T11:33:10.293Z</time></trkpt><trkpt lat="42.8460167" lon="11.516045"><ele>899.1999999999999</ele><time>2026-04-26T11:33:11.293Z</time></trkpt><trkpt lat="42.8459167" lon="11.515995"><ele>899.8</ele><time>2026-04-26T11:33:12.296Z</time></trkpt><trkpt lat="42.8458167" lon="11.51594"><ele>900.4</ele><time>2026-04-26T11:33:13.293Z</time></trkpt><trkpt lat="42.8457133" lon="11.515885"><ele>901.0</ele><time>2026-04-26T11:33:14.293Z</time></trkpt><trkpt lat="42.845625" lon="11.51583"><ele>902.8333333333333</ele><time>2026-04-26T11:33:15.294Z</time></trkpt><trkpt lat="42.8455433" lon="11.5157833"><ele>904.6666666666666</ele><time>2026-04-26T11:33:16.294Z</time></trkpt><trkpt lat="42.8454733" lon="11.5157467"><ele>906.5</ele><time>2026-04-26T11:33:17.294Z</time></trkpt><trkpt lat="42.84542" lon="11.5157"><ele>908.3333333333333</ele><time>2026-04-26T11:33:18.296Z</time></trkpt><trkpt lat="42.8453617" lon="11.5155683"><ele>910.1666666666666</ele><time>2026-04-26T11:33:20.294Z</time></trkpt><trkpt lat="42.8453567" lon="11.515475"><ele>912.0</ele><time>2026-04-26T11:33:21.293Z</time></trkpt><trkpt lat="42.84538" lon="11.5153717"><ele>913.1666666666666</ele><time>2026-04-26T11:33:22.295Z</time></trkpt><trkpt lat="42.8454183" lon="11.5152683"><ele>914.3333333333333</ele><time>2026-04-26T11:33:23.299Z</time></trkpt><trkpt lat="42.8454533" lon="11.5151833"><ele>915.5</ele><time>2026-04-26T11:33:24.294Z</time></trkpt><trkpt lat="42.8455" lon="11.5151133"><ele>916.6666666666666</ele><time>2026-04-26T11:33:25.293Z</time></trkpt><trkpt lat="42.8456083" lon="11.51506"><ele>917.8333333333333</ele><time>2026-04-26T11:33:27.294Z</time></trkpt><trkpt lat="42.8456833" lon="11.5150433"><ele>919.0</ele><time>2026-04-26T11:33:28.294Z</time></trkpt><trkpt lat="42.8457733" lon="11.5150183"><ele>919.0</ele><time>2026-04-26T11:33:29.294Z</time></trkpt><trkpt lat="42.8458617" lon="11.514975"><ele>919.0</ele><time>2026-04-26T11:33:30.293Z</time></trkpt><trkpt lat="42.8459567" lon="11.514905"><ele>919.0</ele><time>2026-04-26T11:33:31.295Z</time></trkpt><trkpt lat="42.8460667" lon="11.5147983"><ele>919.0</ele><time>2026-04-26T11:33:32.293Z</time></trkpt><trkpt lat="42.846145" lon="11.5146583"><ele>920.5</ele><time>2026-04-26T11:33:33.295Z</time></trkpt><trkpt lat="42.8462267" lon="11.5145067"><ele>922.0</ele><time>2026-04-26T11:33:34.293Z</time></trkpt><trkpt lat="42.846305" lon="11.514345"><ele>923.5</ele><time>2026-04-26T11:33:35.293Z</time></trkpt><trkpt lat="42.8463983" lon="11.5142017"><ele>925.0</ele><time>2026-04-26T11:33:36.293Z</time></trkpt><trkpt lat="42.846485" lon="11.5140833"><ele>924.9999999999999</ele><time>2026-04-26T11:33:37.294Z</time></trkpt><trkpt lat="42.8465283" lon="11.513975"><ele>925.0</ele><time>2026-04-26T11:33:38.297Z</time></trkpt><trkpt lat="42.846585" lon="11.513885"><ele>925.0</ele><time>2026-04-26T11:33:39.294Z</time></trkpt><trkpt lat="42.8466233" lon="11.5137917"><ele>925.0</ele><time>2026-04-26T11:33:40.294Z</time></trkpt><trkpt lat="42.8466467" lon="11.5137017"><ele>924.9999999999999</ele><time>2026-04-26T11:33:41.295Z</time></trkpt><trkpt lat="42.8466283" lon="11.5135617"><ele>925.0</ele><time>2026-04-26T11:33:43.295Z</time></trkpt><trkpt lat="42.8465117" lon="11.5135317"><ele>925.25</ele><time>2026-04-26T11:33:45.294Z</time></trkpt><trkpt lat="42.84635" lon="11.5135883"><ele>925.5</ele><time>2026-04-26T11:33:47.295Z</time></trkpt><trkpt lat="42.8462317" lon="11.5136217"><ele>925.75</ele><time>2026-04-26T11:33:48.294Z</time></trkpt><trkpt lat="42.8461233" lon="11.51364"><ele>926.0</ele><time>2026-04-26T11:33:49.294Z</time></trkpt><trkpt lat="42.846015" lon="11.5136467"><ele>929.8</ele><time>2026-04-26T11:33:50.295Z</time></trkpt><trkpt lat="42.8459133" lon="11.5136417"><ele>933.5999999999999</ele><time>2026-04-26T11:33:51.295Z</time></trkpt><trkpt lat="42.8458117" lon="11.5136383"><ele>937.4</ele><time>2026-04-26T11:33:52.292Z</time></trkpt><trkpt lat="42.8457133" lon="11.51363"><ele>941.2</ele><time>2026-04-26T11:33:53.295Z</time></trkpt><trkpt lat="42.8456133" lon="11.5136217"><ele>945.0</ele><time>2026-04-26T11:33:54.296Z</time></trkpt><trkpt lat="42.8455217" lon="11.51361"><ele>945.0</ele><time>2026-04-26T11:33:55.295Z</time></trkpt><trkpt lat="42.84544" lon="11.5135783"><ele>945.0</ele><time>2026-04-26T11:33:56.295Z</time></trkpt><trkpt lat="42.8453783" lon="11.5135283"><ele>945.0</ele><time>2026-04-26T11:33:57.295Z</time></trkpt><trkpt lat="42.845325" lon="11.51347"><ele>945.0</ele><time>2026-04-26T11:33:58.293Z</time></trkpt><trkpt lat="42.8452867" lon="11.5133917"><ele>945.0</ele><time>2026-04-26T11:33:59.295Z</time></trkpt><trkpt lat="42.845275" lon="11.5132933"><ele>945.0</ele><time>2026-04-26T11:34:00.291Z</time></trkpt><trkpt lat="42.845285" lon="11.5131783"><ele>945.0</ele><time>2026-04-26T11:34:01.295Z</time></trkpt><trkpt lat="42.84529" lon="11.5130683"><ele>945.0</ele><time>2026-04-26T11:34:02.295Z</time></trkpt><trkpt lat="42.845285" lon="11.5129683"><ele>945.0</ele><time>2026-04-26T11:34:03.293Z</time></trkpt><trkpt lat="42.8452767" lon="11.51287"><ele>945.0</ele><time>2026-04-26T11:34:04.295Z</time></trkpt><trkpt lat="42.8452367" lon="11.5127833"><ele>945.0</ele><time>2026-04-26T11:34:05.293Z</time></trkpt><trkpt lat="42.84517" lon="11.512705"><ele>945.0</ele><time>2026-04-26T11:34:06.294Z</time></trkpt><trkpt lat="42.8450867" lon="11.512635"><ele>947.8</ele><time>2026-04-26T11:34:07.297Z</time></trkpt><trkpt lat="42.8449983" lon="11.5125583"><ele>950.6</ele><time>2026-04-26T11:34:08.296Z</time></trkpt><trkpt lat="42.84491" lon="11.5124783"><ele>953.4000000000001</ele><time>2026-04-26T11:34:09.294Z</time></trkpt><trkpt lat="42.8448233" lon="11.5123917"><ele>956.2</ele><time>2026-04-26T11:34:10.294Z</time></trkpt><trkpt lat="42.84474" lon="11.5123017"><ele>959.0</ele><time>2026-04-26T11:34:11.293Z</time></trkpt><trkpt lat="42.84466" lon="11.5122083"><ele>959.0</ele><time>2026-04-26T11:34:12.295Z</time></trkpt><trkpt lat="42.844585" lon="11.51211"><ele>959.0000000000001</ele><time>2026-04-26T11:34:13.294Z</time></trkpt><trkpt lat="42.8445117" lon="11.5120133"><ele>959.0000000000001</ele><time>2026-04-26T11:34:14.294Z</time></trkpt><trkpt lat="42.8444367" lon="11.5119183"><ele>959.0</ele><time>2026-04-26T11:34:15.296Z</time></trkpt><trkpt lat="42.844365" lon="11.5118183"><ele>959.0</ele><time>2026-04-26T11:34:16.295Z</time></trkpt><trkpt lat="42.8442967" lon="11.5117133"><ele>961.2</ele><time>2026-04-26T11:34:17.293Z</time></trkpt><trkpt lat="42.84424" lon="11.511605"><ele>963.4000000000001</ele><time>2026-04-26T11:34:18.292Z</time></trkpt><trkpt lat="42.844195" lon="11.5114867"><ele>965.6</ele><time>2026-04-26T11:34:19.293Z</time></trkpt><trkpt lat="42.8441767" lon="11.5113617"><ele>967.8</ele><time>2026-04-26T11:34:20.292Z</time></trkpt><trkpt lat="42.84417" lon="11.5112333"><ele>970.0</ele><time>2026-04-26T11:34:21.292Z</time></trkpt><trkpt lat="42.8441717" lon="11.511105"><ele>970.6</ele><time>2026-04-26T11:34:22.292Z</time></trkpt><trkpt lat="42.8441833" lon="11.5109667"><ele>971.2</ele><time>2026-04-26T11:34:23.292Z</time></trkpt><trkpt lat="42.8441983" lon="11.51083"><ele>971.8</ele><time>2026-04-26T11:34:24.295Z</time></trkpt><trkpt lat="42.8442117" lon="11.5106867"><ele>972.4</ele><time>2026-04-26T11:34:25.292Z</time></trkpt><trkpt lat="42.8442233" lon="11.5105417"><ele>973.0</ele><time>2026-04-26T11:34:26.296Z</time></trkpt><trkpt lat="42.84423" lon="11.5104"><ele>973.8</ele><time>2026-04-26T11:34:27.296Z</time></trkpt><trkpt lat="42.8442417" lon="11.51025"><ele>974.5999999999999</ele><time>2026-04-26T11:34:28.296Z</time></trkpt><trkpt lat="42.8442583" lon="11.5100983"><ele>975.4000000000001</ele><time>2026-04-26T11:34:29.296Z</time></trkpt><trkpt lat="42.844275" lon="11.5099483"><ele>976.2</ele><time>2026-04-26T11:34:30.295Z</time></trkpt><trkpt lat="42.8442867" lon="11.5098017"><ele>977.0</ele><time>2026-04-26T11:34:31.296Z</time></trkpt><trkpt lat="42.844295" lon="11.509655"><ele>979.0</ele><time>2026-04-26T11:34:32.295Z</time></trkpt><trkpt lat="42.84431" lon="11.509505"><ele>981.0</ele><time>2026-04-26T11:34:33.296Z</time></trkpt><trkpt lat="42.844325" lon="11.5093567"><ele>983.0</ele><time>2026-04-26T11:34:34.295Z</time></trkpt><trkpt lat="42.84434" lon="11.5092133"><ele>985.0</ele><time>2026-04-26T11:34:35.296Z</time></trkpt><trkpt lat="42.8443617" lon="11.5090717"><ele>987.0</ele><time>2026-04-26T11:34:36.292Z</time></trkpt><trkpt lat="42.8443933" lon="11.5089283"><ele>987.0</ele><time>2026-04-26T11:34:37.296Z</time></trkpt><trkpt lat="42.84443" lon="11.508785"><ele>987.0</ele><time>2026-04-26T11:34:38.295Z</time></trkpt><trkpt lat="42.844475" lon="11.5086417"><ele>987.0</ele><time>2026-04-26T11:34:39.293Z</time></trkpt><trkpt lat="42.8445283" lon="11.5084983"><ele>987.0</ele><time>2026-04-26T11:34:40.294Z</time></trkpt><trkpt lat="42.844585" lon="11.50835"><ele>988.25</ele><time>2026-04-26T11:34:41.296Z</time></trkpt><trkpt lat="42.844635" lon="11.5082"><ele>989.5</ele><time>2026-04-26T11:34:42.295Z</time></trkpt><trkpt lat="42.844675" lon="11.508045"><ele>990.75</ele><time>2026-04-26T11:34:43.297Z</time></trkpt><trkpt lat="42.8447083" lon="11.5078883"><ele>992.0</ele><time>2026-04-26T11:34:44.295Z</time></trkpt><trkpt lat="42.844735" lon="11.5077217"><ele>992.75</ele><time>2026-04-26T11:34:45.295Z</time></trkpt><trkpt lat="42.844755" lon="11.5075517"><ele>993.5</ele><time>2026-04-26T11:34:46.295Z</time></trkpt><trkpt lat="42.84477" lon="11.5073783"><ele>994.25</ele><time>2026-04-26T11:34:47.295Z</time></trkpt><trkpt lat="42.8447833" lon="11.507195"><ele>995.0</ele><time>2026-04-26T11:34:48.292Z</time></trkpt><trkpt lat="42.8447917" lon="11.507"><ele>995.5</ele><time>2026-04-26T11:34:49.297Z</time></trkpt><trkpt lat="42.8447983" lon="11.5067967"><ele>996.0</ele><time>2026-04-26T11:34:50.294Z</time></trkpt><trkpt lat="42.8448" lon="11.506595"><ele>996.5</ele><time>2026-04-26T11:34:51.293Z</time></trkpt><trkpt lat="42.8448" lon="11.5063967"><ele>997.0</ele><time>2026-04-26T11:34:52.294Z</time></trkpt><trkpt lat="42.8448" lon="11.5062033"><ele>997.0</ele><time>2026-04-26T11:34:53.294Z</time></trkpt><trkpt lat="42.8448017" lon="11.5060133"><ele>997.0</ele><time>2026-04-26T11:34:54.296Z</time></trkpt><trkpt lat="42.84481" lon="11.5058283"><ele>997.0</ele><time>2026-04-26T11:34:55.296Z</time></trkpt><trkpt lat="42.8448117" lon="11.505645"><ele>997.0</ele><time>2026-04-26T11:34:56.296Z</time></trkpt><trkpt lat="42.84481" lon="11.5054667"><ele>996.5</ele><time>2026-04-26T11:34:57.296Z</time></trkpt><trkpt lat="42.8448033" lon="11.5052933"><ele>996.0</ele><time>2026-04-26T11:34:58.293Z</time></trkpt><trkpt lat="42.84479" lon="11.50513"><ele>995.5</ele><time>2026-04-26T11:34:59.296Z</time></trkpt><trkpt lat="42.8447617" lon="11.5049717"><ele>995.0</ele><time>2026-04-26T11:35:00.295Z</time></trkpt><trkpt lat="42.8447133" lon="11.5048117"><ele>995.0</ele><time>2026-04-26T11:35:01.296Z</time></trkpt><trkpt lat="42.8446533" lon="11.50465"><ele>995.0</ele><time>2026-04-26T11:35:02.293Z</time></trkpt><trkpt lat="42.8445833" lon="11.5044883"><ele>995.0</ele><time>2026-04-26T11:35:03.292Z</time></trkpt><trkpt lat="42.844515" lon="11.5043183"><ele>995.0</ele><time>2026-04-26T11:35:04.292Z</time></trkpt><trkpt lat="42.84445" lon="11.5041483"><ele>995.25</ele><time>2026-04-26T11:35:05.296Z</time></trkpt><trkpt lat="42.844395" lon="11.5039717"><ele>995.5</ele><time>2026-04-26T11:35:06.295Z</time></trkpt><trkpt lat="42.844345" lon="11.5037867"><ele>995.75</ele><time>2026-04-26T11:35:07.296Z</time></trkpt><trkpt lat="42.8443033" lon="11.5036"><ele>996.0</ele><time>2026-04-26T11:35:08.295Z</time></trkpt><trkpt lat="42.8442683" lon="11.5034167"><ele>998.0</ele><time>2026-04-26T11:35:09.295Z</time></trkpt><trkpt lat="42.8442333" lon="11.5032383"><ele>1000.0</ele><time>2026-04-26T11:35:10.295Z</time></trkpt><trkpt lat="42.844205" lon="11.50306"><ele>1002.0</ele><time>2026-04-26T11:35:11.296Z</time></trkpt><trkpt lat="42.8441783" lon="11.5028783"><ele>1004.0</ele><time>2026-04-26T11:35:12.296Z</time></trkpt><trkpt lat="42.84415" lon="11.5026933"><ele>1004.0</ele><time>2026-04-26T11:35:13.295Z</time></trkpt><trkpt lat="42.8441317" lon="11.50251"><ele>1004.0</ele><time>2026-04-26T11:35:14.296Z</time></trkpt><trkpt lat="42.8441167" lon="11.502325"><ele>1004.0</ele><time>2026-04-26T11:35:15.296Z</time></trkpt><trkpt lat="42.8440983" lon="11.5021517"><ele>1004.0</ele><time>2026-04-26T11:35:16.295Z</time></trkpt><trkpt lat="42.8440817" lon="11.5019867"><ele>1002.5</ele><time>2026-04-26T11:35:17.293Z</time></trkpt><trkpt lat="42.8440617" lon="11.501835"><ele>1001.0</ele><time>2026-04-26T11:35:18.293Z</time></trkpt><trkpt lat="42.8440367" lon="11.5016933"><ele>999.5</ele><time>2026-04-26T11:35:19.293Z</time></trkpt><trkpt lat="42.8439917" lon="11.50155"><ele>998.0</ele><time>2026-04-26T11:35:20.294Z</time></trkpt><trkpt lat="42.8439317" lon="11.5014067"><ele>998.0</ele><time>2026-04-26T11:35:21.293Z</time></trkpt><trkpt lat="42.8438583" lon="11.501255"><ele>998.0</ele><time>2026-04-26T11:35:22.292Z</time></trkpt><trkpt lat="42.84379" lon="11.5011"><ele>998.0</ele><time>2026-04-26T11:35:23.294Z</time></trkpt><trkpt lat="42.8437333" lon="11.5009367"><ele>998.0</ele><time>2026-04-26T11:35:24.297Z</time></trkpt><trkpt lat="42.8436983" lon="11.5007717"><ele>996.0</ele><time>2026-04-26T11:35:25.295Z</time></trkpt><trkpt lat="42.8436717" lon="11.5006017"><ele>994.0</ele><time>2026-04-26T11:35:26.295Z</time></trkpt><trkpt lat="42.8436517" lon="11.50043"><ele>992.0</ele><time>2026-04-26T11:35:27.295Z</time></trkpt><trkpt lat="42.84364" lon="11.5002467"><ele>990.0</ele><time>2026-04-26T11:35:28.295Z</time></trkpt><trkpt lat="42.84363" lon="11.5000617"><ele>989.5</ele><time>2026-04-26T11:35:29.295Z</time></trkpt><trkpt lat="42.8436267" lon="11.4998767"><ele>989.0</ele><time>2026-04-26T11:35:30.293Z</time></trkpt><trkpt lat="42.8436217" lon="11.4996917"><ele>988.5</ele><time>2026-04-26T11:35:31.293Z</time></trkpt><trkpt lat="42.8436117" lon="11.4995017"><ele>988.0</ele><time>2026-04-26T11:35:32.294Z</time></trkpt><trkpt lat="42.8436017" lon="11.49931"><ele>988.0</ele><time>2026-04-26T11:35:33.293Z</time></trkpt><trkpt lat="42.8435933" lon="11.4991167"><ele>988.0</ele><time>2026-04-26T11:35:34.294Z</time></trkpt><trkpt lat="42.8435867" lon="11.4989217"><ele>988.0</ele><time>2026-04-26T11:35:35.292Z</time></trkpt><trkpt lat="42.843585" lon="11.4987233"><ele>988.0</ele><time>2026-04-26T11:35:36.292Z</time></trkpt><trkpt lat="42.84358" lon="11.4985333"><ele>988.0</ele><time>2026-04-26T11:35:37.292Z</time></trkpt><trkpt lat="42.8435733" lon="11.4983567"><ele>988.0</ele><time>2026-04-26T11:35:38.295Z</time></trkpt><trkpt lat="42.843565" lon="11.4981917"><ele>988.0</ele><time>2026-04-26T11:35:39.295Z</time></trkpt><trkpt lat="42.8435517" lon="11.4980417"><ele>988.0</ele><time>2026-04-26T11:35:40.295Z</time></trkpt><trkpt lat="42.8435383" lon="11.4979017"><ele>989.0</ele><time>2026-04-26T11:35:41.296Z</time></trkpt><trkpt lat="42.8435217" lon="11.497765"><ele>990.0</ele><time>2026-04-26T11:35:42.297Z</time></trkpt><trkpt lat="42.8434967" lon="11.4976333"><ele>991.0</ele><time>2026-04-26T11:35:43.296Z</time></trkpt><trkpt lat="42.843455" lon="11.4975033"><ele>992.0</ele><time>2026-04-26T11:35:44.296Z</time></trkpt><trkpt lat="42.843385" lon="11.4973767"><ele>993.0</ele><time>2026-04-26T11:35:45.297Z</time></trkpt><trkpt lat="42.8433" lon="11.49725"><ele>993.0</ele><time>2026-04-26T11:35:46.296Z</time></trkpt><trkpt lat="42.8432033" lon="11.4971267"><ele>993.0</ele><time>2026-04-26T11:35:47.295Z</time></trkpt><trkpt lat="42.8430967" lon="11.497"><ele>993.0</ele><time>2026-04-26T11:35:48.296Z</time></trkpt><trkpt lat="42.84299" lon="11.4968667"><ele>993.0</ele><time>2026-04-26T11:35:49.296Z</time></trkpt><trkpt lat="42.84289" lon="11.4967333"><ele>993.75</ele><time>2026-04-26T11:35:50.295Z</time></trkpt><trkpt lat="42.8427983" lon="11.49659"><ele>994.5</ele><time>2026-04-26T11:35:51.295Z</time></trkpt><trkpt lat="42.8427117" lon="11.4964417"><ele>995.25</ele><time>2026-04-26T11:35:52.296Z</time></trkpt><trkpt lat="42.8426333" lon="11.4962983"><ele>996.0</ele><time>2026-04-26T11:35:53.295Z</time></trkpt><trkpt lat="42.8425533" lon="11.4961667"><ele>992.75</ele><time>2026-04-26T11:35:54.296Z</time></trkpt><trkpt lat="42.8424717" lon="11.4960467"><ele>989.5</ele><time>2026-04-26T11:35:55.295Z</time></trkpt><trkpt lat="42.8423883" lon="11.4959367"><ele>986.25</ele><time>2026-04-26T11:35:56.296Z</time></trkpt><trkpt lat="42.8423017" lon="11.49584"><ele>983.0</ele><time>2026-04-26T11:35:57.296Z</time></trkpt><trkpt lat="42.8422117" lon="11.4957567"><ele>983.0</ele><time>2026-04-26T11:35:58.297Z</time></trkpt><trkpt lat="42.84212" lon="11.49568"><ele>983.0</ele><time>2026-04-26T11:35:59.296Z</time></trkpt><trkpt lat="42.8420333" lon="11.4956117"><ele>983.0</ele><time>2026-04-26T11:36:00.296Z</time></trkpt><trkpt lat="42.8419467" lon="11.4955583"><ele>983.0</ele><time>2026-04-26T11:36:01.295Z</time></trkpt><trkpt lat="42.84186" lon="11.4955317"><ele>983.0</ele><time>2026-04-26T11:36:02.294Z</time></trkpt><trkpt lat="42.8417783" lon="11.4955217"><ele>982.0</ele><time>2026-04-26T11:36:03.293Z</time></trkpt><trkpt lat="42.8416983" lon="11.4955233"><ele>981.0</ele><time>2026-04-26T11:36:04.293Z</time></trkpt><trkpt lat="42.8416217" lon="11.49556"><ele>980.0</ele><time>2026-04-26T11:36:05.296Z</time></trkpt><trkpt lat="42.8415517" lon="11.4956317"><ele>979.0</ele><time>2026-04-26T11:36:06.296Z</time></trkpt><trkpt lat="42.841485" lon="11.4957517"><ele>978.0</ele><time>2026-04-26T11:36:07.296Z</time></trkpt><trkpt lat="42.841415" lon="11.49589"><ele>978.0</ele><time>2026-04-26T11:36:08.295Z</time></trkpt><trkpt lat="42.841335" lon="11.4960117"><ele>978.0</ele><time>2026-04-26T11:36:09.297Z</time></trkpt><trkpt lat="42.8412483" lon="11.4961217"><ele>978.0</ele><time>2026-04-26T11:36:10.296Z</time></trkpt><trkpt lat="42.841155" lon="11.4962283"><ele>978.0</ele><time>2026-04-26T11:36:11.295Z</time></trkpt><trkpt lat="42.841055" lon="11.4963333"><ele>978.0</ele><time>2026-04-26T11:36:12.293Z</time></trkpt><trkpt lat="42.84096" lon="11.496435"><ele>978.0</ele><time>2026-04-26T11:36:13.295Z</time></trkpt><trkpt lat="42.8408767" lon="11.496545"><ele>978.0</ele><time>2026-04-26T11:36:14.295Z</time></trkpt><trkpt lat="42.8408" lon="11.4966667"><ele>978.0</ele><time>2026-04-26T11:36:15.292Z</time></trkpt><trkpt lat="42.8407467" lon="11.49679"><ele>978.0</ele><time>2026-04-26T11:36:16.294Z</time></trkpt><trkpt lat="42.8406983" lon="11.4969167"><ele>978.0</ele><time>2026-04-26T11:36:17.297Z</time></trkpt><trkpt lat="42.84067" lon="11.4970483"><ele>978.0</ele><time>2026-04-26T11:36:18.296Z</time></trkpt><trkpt lat="42.8406583" lon="11.49719"><ele>978.0</ele><time>2026-04-26T11:36:19.301Z</time></trkpt><trkpt lat="42.8406567" lon="11.4973433"><ele>978.0</ele><time>2026-04-26T11:36:20.296Z</time></trkpt><trkpt lat="42.84066" lon="11.4975033"><ele>978.0</ele><time>2026-04-26T11:36:21.296Z</time></trkpt><trkpt lat="42.8406667" lon="11.4976767"><ele>978.0</ele><time>2026-04-26T11:36:22.296Z</time></trkpt><trkpt lat="42.840665" lon="11.497845"><ele>978.0</ele><time>2026-04-26T11:36:23.296Z</time></trkpt><trkpt lat="42.84066" lon="11.498015"><ele>978.0</ele><time>2026-04-26T11:36:24.297Z</time></trkpt><trkpt lat="42.84065" lon="11.49819"><ele>978.75</ele><time>2026-04-26T11:36:25.295Z</time></trkpt><trkpt lat="42.8406417" lon="11.498365"><ele>979.5</ele><time>2026-04-26T11:36:26.298Z</time></trkpt><trkpt lat="42.840635" lon="11.4985467"><ele>980.25</ele><time>2026-04-26T11:36:27.295Z</time></trkpt><trkpt lat="42.840625" lon="11.4987317"><ele>981.0</ele><time>2026-04-26T11:36:28.295Z</time></trkpt><trkpt lat="42.8406167" lon="11.49892"><ele>981.5</ele><time>2026-04-26T11:36:29.297Z</time></trkpt><trkpt lat="42.840615" lon="11.4991067"><ele>982.0</ele><time>2026-04-26T11:36:30.297Z</time></trkpt><trkpt lat="42.8406183" lon="11.499285"><ele>982.5</ele><time>2026-04-26T11:36:31.297Z</time></trkpt><trkpt lat="42.8406167" lon="11.49945"><ele>983.0</ele><time>2026-04-26T11:36:32.295Z</time></trkpt><trkpt lat="42.8406233" lon="11.499595"><ele>983.5000000000001</ele><time>2026-04-26T11:36:33.296Z</time></trkpt><trkpt lat="42.84064" lon="11.4997233"><ele>984.0</ele><time>2026-04-26T11:36:34.294Z</time></trkpt><trkpt lat="42.8406567" lon="11.4998433"><ele>984.5</ele><time>2026-04-26T11:36:35.293Z</time></trkpt><trkpt lat="42.8406667" lon="11.4999517"><ele>985.0</ele><time>2026-04-26T11:36:36.296Z</time></trkpt><trkpt lat="42.84066" lon="11.5000517"><ele>985.5000000000001</ele><time>2026-04-26T11:36:37.297Z</time></trkpt><trkpt lat="42.8406433" lon="11.50014"><ele>986.0</ele><time>2026-04-26T11:36:38.296Z</time></trkpt><trkpt lat="42.8406017" lon="11.5002233"><ele>986.0</ele><time>2026-04-26T11:36:39.293Z</time></trkpt><trkpt lat="42.84054" lon="11.50029"><ele>985.9999999999999</ele><time>2026-04-26T11:36:40.294Z</time></trkpt><trkpt lat="42.84049" lon="11.5003517"><ele>985.9999999999999</ele><time>2026-04-26T11:36:41.293Z</time></trkpt><trkpt lat="42.8404017" lon="11.5003717"><ele>986.0</ele><time>2026-04-26T11:36:42.295Z</time></trkpt><trkpt lat="42.8402883" lon="11.5003433"><ele>986.0</ele><time>2026-04-26T11:36:43.296Z</time></trkpt><trkpt lat="42.84017" lon="11.500295"><ele>987.8</ele><time>2026-04-26T11:36:44.296Z</time></trkpt><trkpt lat="42.8400667" lon="11.5002433"><ele>989.5999999999999</ele><time>2026-04-26T11:36:45.296Z</time></trkpt><trkpt lat="42.8399733" lon="11.5001717"><ele>991.4</ele><time>2026-04-26T11:36:46.293Z</time></trkpt><trkpt lat="42.8399083" lon="11.5000767"><ele>993.2</ele><time>2026-04-26T11:36:47.296Z</time></trkpt><trkpt lat="42.8398483" lon="11.49996"><ele>995.0</ele><time>2026-04-26T11:36:48.297Z</time></trkpt><trkpt lat="42.8397933" lon="11.4998267"><ele>995.0</ele><time>2026-04-26T11:36:49.297Z</time></trkpt><trkpt lat="42.83973" lon="11.4996883"><ele>995.0</ele><time>2026-04-26T11:36:50.295Z</time></trkpt><trkpt lat="42.83967" lon="11.4995333"><ele>995.0</ele><time>2026-04-26T11:36:51.298Z</time></trkpt><trkpt lat="42.8396067" lon="11.4993817"><ele>995.0</ele><time>2026-04-26T11:36:52.296Z</time></trkpt><trkpt lat="42.8395367" lon="11.4992367"><ele>996.25</ele><time>2026-04-26T11:36:53.296Z</time></trkpt><trkpt lat="42.8394633" lon="11.4990967"><ele>997.5</ele><time>2026-04-26T11:36:54.296Z</time></trkpt><trkpt lat="42.8393767" lon="11.4989617"><ele>998.75</ele><time>2026-04-26T11:36:55.292Z</time></trkpt><trkpt lat="42.8392867" lon="11.4988317"><ele>1000.0</ele><time>2026-04-26T11:36:56.296Z</time></trkpt><trkpt lat="42.839195" lon="11.4987117"><ele>1002.0</ele><time>2026-04-26T11:36:57.296Z</time></trkpt><trkpt lat="42.8391" lon="11.4986017"><ele>1004.0</ele><time>2026-04-26T11:36:58.294Z</time></trkpt><trkpt lat="42.8389967" lon="11.4985"><ele>1006.0</ele><time>2026-04-26T11:36:59.296Z</time></trkpt><trkpt lat="42.8388883" lon="11.4983983"><ele>1008.0</ele><time>2026-04-26T11:37:00.295Z</time></trkpt><trkpt lat="42.8387733" lon="11.4982967"><ele>1008.0</ele><time>2026-04-26T11:37:01.295Z</time></trkpt><trkpt lat="42.83865" lon="11.4982"><ele>1008.0</ele><time>2026-04-26T11:37:02.296Z</time></trkpt><trkpt lat="42.8385233" lon="11.4981017"><ele>1008.0</ele><time>2026-04-26T11:37:03.297Z</time></trkpt><trkpt lat="42.8384" lon="11.498"><ele>1008.0</ele><time>2026-04-26T11:37:04.293Z</time></trkpt><trkpt lat="42.8382817" lon="11.4978967"><ele>1009.25</ele><time>2026-04-26T11:37:05.296Z</time></trkpt><trkpt lat="42.83816" lon="11.4977817"><ele>1010.5</ele><time>2026-04-26T11:37:06.296Z</time></trkpt><trkpt lat="42.83804" lon="11.4976633"><ele>1011.75</ele><time>2026-04-26T11:37:07.293Z</time></trkpt><trkpt lat="42.8379233" lon="11.4975533"><ele>1013.0</ele><time>2026-04-26T11:37:08.296Z</time></trkpt><trkpt lat="42.8378083" lon="11.4974467"><ele>1013.0</ele><time>2026-04-26T11:37:09.297Z</time></trkpt><trkpt lat="42.8376967" lon="11.4973417"><ele>1013.0</ele><time>2026-04-26T11:37:10.297Z</time></trkpt><trkpt lat="42.8375883" lon="11.4972417"><ele>1013.0</ele><time>2026-04-26T11:37:11.297Z</time></trkpt><trkpt lat="42.8374817" lon="11.4971467"><ele>1013.0</ele><time>2026-04-26T11:37:12.296Z</time></trkpt><trkpt lat="42.83738" lon="11.4970633"><ele>1013.2</ele><time>2026-04-26T11:37:13.295Z</time></trkpt><trkpt lat="42.8372833" lon="11.497"><ele>1013.4</ele><time>2026-04-26T11:37:14.295Z</time></trkpt><trkpt lat="42.8371833" lon="11.4969533"><ele>1013.6000000000001</ele><time>2026-04-26T11:37:15.296Z</time></trkpt><trkpt lat="42.837075" lon="11.4969233"><ele>1013.8000000000001</ele><time>2026-04-26T11:37:16.296Z</time></trkpt><trkpt lat="42.8369533" lon="11.4969083"><ele>1014.0</ele><time>2026-04-26T11:37:17.293Z</time></trkpt><trkpt lat="42.8368183" lon="11.4969133"><ele>1014.5</ele><time>2026-04-26T11:37:18.293Z</time></trkpt><trkpt lat="42.8366717" lon="11.4969283"><ele>1015.0</ele><time>2026-04-26T11:37:19.293Z</time></trkpt><trkpt lat="42.8365217" lon="11.4969367"><ele>1015.5</ele><time>2026-04-26T11:37:20.293Z</time></trkpt><trkpt lat="42.83638" lon="11.4969283"><ele>1016.0</ele><time>2026-04-26T11:37:21.292Z</time></trkpt><trkpt lat="42.8362533" lon="11.4968967"><ele>1016.0</ele><time>2026-04-26T11:37:22.293Z</time></trkpt><trkpt lat="42.8361317" lon="11.4968417"><ele>1016.0</ele><time>2026-04-26T11:37:23.294Z</time></trkpt><trkpt lat="42.8360183" lon="11.49677"><ele>1016.0</ele><time>2026-04-26T11:37:24.298Z</time></trkpt><trkpt lat="42.8359117" lon="11.4967"><ele>1016.0</ele><time>2026-04-26T11:37:25.297Z</time></trkpt><trkpt lat="42.83581" lon="11.4966533"><ele>1014.5</ele><time>2026-04-26T11:37:26.298Z</time></trkpt><trkpt lat="42.8357033" lon="11.49663"><ele>1013.0</ele><time>2026-04-26T11:37:27.295Z</time></trkpt><trkpt lat="42.8355767" lon="11.4966267"><ele>1011.5</ele><time>2026-04-26T11:37:28.295Z</time></trkpt><trkpt lat="42.8354383" lon="11.49664"><ele>1010.0</ele><time>2026-04-26T11:37:29.294Z</time></trkpt><trkpt lat="42.83529" lon="11.4966683"><ele>1010.0</ele><time>2026-04-26T11:37:30.293Z</time></trkpt><trkpt lat="42.8351417" lon="11.4967083"><ele>1010.0</ele><time>2026-04-26T11:37:31.293Z</time></trkpt><trkpt lat="42.8349833" lon="11.4967567"><ele>1010.0</ele><time>2026-04-26T11:37:32.294Z</time></trkpt><trkpt lat="42.834825" lon="11.4968083"><ele>1010.0</ele><time>2026-04-26T11:37:33.292Z</time></trkpt><trkpt lat="42.8346667" lon="11.4968617"><ele>1010.0</ele><time>2026-04-26T11:37:34.294Z</time></trkpt><trkpt lat="42.8345183" lon="11.496915"><ele>1010.0</ele><time>2026-04-26T11:37:35.294Z</time></trkpt><trkpt lat="42.8343833" lon="11.496965"><ele>1010.0</ele><time>2026-04-26T11:37:36.293Z</time></trkpt><trkpt lat="42.83426" lon="11.49701"><ele>1010.0</ele><time>2026-04-26T11:37:37.293Z</time></trkpt><trkpt lat="42.8341383" lon="11.4970483"><ele>1010.0</ele><time>2026-04-26T11:37:38.294Z</time></trkpt><trkpt lat="42.83401" lon="11.497075"><ele>1010.0</ele><time>2026-04-26T11:37:39.295Z</time></trkpt><trkpt lat="42.8338733" lon="11.497095"><ele>1009.0</ele><time>2026-04-26T11:37:40.295Z</time></trkpt><trkpt lat="42.833725" lon="11.4971033"><ele>1008.0</ele><time>2026-04-26T11:37:41.296Z</time></trkpt><trkpt lat="42.8335683" lon="11.4971"><ele>1007.0</ele><time>2026-04-26T11:37:42.296Z</time></trkpt><trkpt lat="42.8334017" lon="11.4970883"><ele>1005.0</ele><time>2026-04-26T11:37:43.296Z</time></trkpt><trkpt lat="42.83323" lon="11.4970767"><ele>1003.0</ele><time>2026-04-26T11:37:44.298Z</time></trkpt><trkpt lat="42.8330633" lon="11.4970733"><ele>1001.0</ele><time>2026-04-26T11:37:45.296Z</time></trkpt><trkpt lat="42.83291" lon="11.4970783"><ele>1001.25</ele><time>2026-04-26T11:37:46.297Z</time></trkpt><trkpt lat="42.8327733" lon="11.49709"><ele>1001.5</ele><time>2026-04-26T11:37:47.296Z</time></trkpt><trkpt lat="42.83265" lon="11.4971133"><ele>1001.75</ele><time>2026-04-26T11:37:48.294Z</time></trkpt><trkpt lat="42.832545" lon="11.4971483"><ele>1002.0</ele><time>2026-04-26T11:37:49.295Z</time></trkpt><trkpt lat="42.8324433" lon="11.4972017"><ele>1002.0</ele><time>2026-04-26T11:37:50.295Z</time></trkpt><trkpt lat="42.832335" lon="11.49727"><ele>1002.0</ele><time>2026-04-26T11:37:51.297Z</time></trkpt><trkpt lat="42.8322167" lon="11.4973517"><ele>1002.0</ele><time>2026-04-26T11:37:52.296Z</time></trkpt><trkpt lat="42.8320933" lon="11.497435"><ele>1002.0</ele><time>2026-04-26T11:37:53.296Z</time></trkpt><trkpt lat="42.8319633" lon="11.4975117"><ele>1002.0</ele><time>2026-04-26T11:37:54.299Z</time></trkpt><trkpt lat="42.83183" lon="11.4975783"><ele>1002.0</ele><time>2026-04-26T11:37:55.296Z</time></trkpt><trkpt lat="42.8316983" lon="11.4976333"><ele>1002.0</ele><time>2026-04-26T11:37:56.296Z</time></trkpt><trkpt lat="42.8315783" lon="11.4976717"><ele>1002.0</ele><time>2026-04-26T11:37:57.296Z</time></trkpt><trkpt lat="42.8314733" lon="11.4977033"><ele>1001.8333333333334</ele><time>2026-04-26T11:37:58.293Z</time></trkpt><trkpt lat="42.8313783" lon="11.497725"><ele>1001.6666666666667</ele><time>2026-04-26T11:37:59.296Z</time></trkpt><trkpt lat="42.8312967" lon="11.4977383"><ele>1001.5</ele><time>2026-04-26T11:38:00.297Z</time></trkpt><trkpt lat="42.8312333" lon="11.49775"><ele>1001.3333333333334</ele><time>2026-04-26T11:38:01.293Z</time></trkpt><trkpt lat="42.8311633" lon="11.497775"><ele>1001.1666666666667</ele><time>2026-04-26T11:38:03.298Z</time></trkpt><trkpt lat="42.831075" lon="11.497835"><ele>1001.0</ele><time>2026-04-26T11:42:53.296Z</time></trkpt><trkpt lat="42.83098" lon="11.497945"><ele>1001.1666666666667</ele><time>2026-04-26T11:42:55.293Z</time></trkpt><trkpt lat="42.83092" lon="11.4980083"><ele>1001.3333333333334</ele><time>2026-04-26T11:42:56.297Z</time></trkpt><trkpt lat="42.83085" lon="11.498075"><ele>1001.5</ele><time>2026-04-26T11:42:57.295Z</time></trkpt><trkpt lat="42.8307833" lon="11.498145"><ele>1001.6666666666667</ele><time>2026-04-26T11:42:58.293Z</time></trkpt><trkpt lat="42.8307083" lon="11.4982183"><ele>1001.8333333333334</ele><time>2026-04-26T11:42:59.293Z</time></trkpt><trkpt lat="42.8306367" lon="11.4982917"><ele>1002.0</ele><time>2026-04-26T11:43:00.295Z</time></trkpt><trkpt lat="42.8305633" lon="11.4983633"><ele>1002.0</ele><time>2026-04-26T11:43:01.292Z</time></trkpt><trkpt lat="42.8304883" lon="11.4984383"><ele>1002.0</ele><time>2026-04-26T11:43:02.295Z</time></trkpt><trkpt lat="42.8304133" lon="11.4985133"><ele>1002.0</ele><time>2026-04-26T11:43:03.296Z</time></trkpt><trkpt lat="42.8303417" lon="11.4985883"><ele>1002.0</ele><time>2026-04-26T11:43:04.295Z</time></trkpt><trkpt lat="42.8302667" lon="11.4986633"><ele>1002.0</ele><time>2026-04-26T11:43:05.297Z</time></trkpt><trkpt lat="42.8301967" lon="11.4987483"><ele>1002.0</ele><time>2026-04-26T11:43:06.298Z</time></trkpt><trkpt lat="42.830125" lon="11.4988433"><ele>1002.0</ele><time>2026-04-26T11:43:07.295Z</time></trkpt><trkpt lat="42.8300533" lon="11.4989317"><ele>1002.0</ele><time>2026-04-26T11:43:08.296Z</time></trkpt><trkpt lat="42.8299833" lon="11.4990233"><ele>1002.0</ele><time>2026-04-26T11:43:09.295Z</time></trkpt><trkpt lat="42.8299133" lon="11.4991117"><ele>1002.0</ele><time>2026-04-26T11:43:10.296Z</time></trkpt><trkpt lat="42.8298367" lon="11.4991983"><ele>1002.0</ele><time>2026-04-26T11:43:11.295Z</time></trkpt><trkpt lat="42.8297567" lon="11.499285"><ele>1002.0</ele><time>2026-04-26T11:43:12.296Z</time></trkpt><trkpt lat="42.8296767" lon="11.4993667"><ele>1002.0</ele><time>2026-04-26T11:43:13.297Z</time></trkpt><trkpt lat="42.8295983" lon="11.49945"><ele>1002.0</ele><time>2026-04-26T11:43:14.299Z</time></trkpt><trkpt lat="42.82952" lon="11.4995367"><ele>1002.0</ele><time>2026-04-26T11:43:15.296Z</time></trkpt><trkpt lat="42.8294433" lon="11.4996233"><ele>1001.6</ele><time>2026-04-26T11:43:16.292Z</time></trkpt><trkpt lat="42.8293667" lon="11.4997183"><ele>1001.2</ele><time>2026-04-26T11:43:17.296Z</time></trkpt><trkpt lat="42.8292933" lon="11.49982"><ele>1000.8</ele><time>2026-04-26T11:43:18.297Z</time></trkpt><trkpt lat="42.8292267" lon="11.4999233"><ele>1000.4</ele><time>2026-04-26T11:43:19.296Z</time></trkpt><trkpt lat="42.8291583" lon="11.5000233"><ele>1000.0</ele><time>2026-04-26T11:43:20.296Z</time></trkpt><trkpt lat="42.8290867" lon="11.5001233"><ele>1000.8</ele><time>2026-04-26T11:43:21.295Z</time></trkpt><trkpt lat="42.8290167" lon="11.5002217"><ele>1001.6</ele><time>2026-04-26T11:43:22.297Z</time></trkpt><trkpt lat="42.8289467" lon="11.5003167"><ele>1002.4000000000001</ele><time>2026-04-26T11:43:23.295Z</time></trkpt><trkpt lat="42.8288767" lon="11.5004117"><ele>1003.2</ele><time>2026-04-26T11:43:24.295Z</time></trkpt><trkpt lat="42.8288083" lon="11.5005033"><ele>1004.0</ele><time>2026-04-26T11:43:25.296Z</time></trkpt><trkpt lat="42.828735" lon="11.5006017"><ele>1004.4000000000001</ele><time>2026-04-26T11:43:26.295Z</time></trkpt><trkpt lat="42.828655" lon="11.5007133"><ele>1004.8000000000001</ele><time>2026-04-26T11:43:27.295Z</time></trkpt><trkpt lat="42.828575" lon="11.50083"><ele>1005.1999999999999</ele><time>2026-04-26T11:43:28.295Z</time></trkpt><trkpt lat="42.828505" lon="11.5009367"><ele>1005.5999999999999</ele><time>2026-04-26T11:43:29.295Z</time></trkpt><trkpt lat="42.8284383" lon="11.5010367"><ele>1006.0</ele><time>2026-04-26T11:43:30.296Z</time></trkpt><trkpt lat="42.8283683" lon="11.50113"><ele>1006.0</ele><time>2026-04-26T11:43:31.295Z</time></trkpt><trkpt lat="42.828295" lon="11.5012283"><ele>1005.9999999999999</ele><time>2026-04-26T11:43:32.297Z</time></trkpt><trkpt lat="42.82822" lon="11.5013217"><ele>1005.9999999999999</ele><time>2026-04-26T11:43:33.296Z</time></trkpt><trkpt lat="42.8281417" lon="11.5014117"><ele>1006.0</ele><time>2026-04-26T11:43:34.297Z</time></trkpt><trkpt lat="42.8280617" lon="11.5014767"><ele>1006.0</ele><time>2026-04-26T11:43:35.296Z</time></trkpt><trkpt lat="42.8279783" lon="11.5015383"><ele>1005.9999999999999</ele><time>2026-04-26T11:43:36.295Z</time></trkpt><trkpt lat="42.827895" lon="11.5016"><ele>1006.0</ele><time>2026-04-26T11:43:37.296Z</time></trkpt><trkpt lat="42.8278183" lon="11.5016633"><ele>1006.0</ele><time>2026-04-26T11:43:38.295Z</time></trkpt><trkpt lat="42.827755" lon="11.5017267"><ele>1006.0</ele><time>2026-04-26T11:43:39.296Z</time></trkpt><trkpt lat="42.8276983" lon="11.50179"><ele>1005.9999999999999</ele><time>2026-04-26T11:43:40.296Z</time></trkpt><trkpt lat="42.8276433" lon="11.5018533"><ele>1006.0</ele><time>2026-04-26T11:43:41.295Z</time></trkpt><trkpt lat="42.8275867" lon="11.5019117"><ele>1006.0</ele><time>2026-04-26T11:43:42.295Z</time></trkpt><trkpt lat="42.8275283" lon="11.50196"><ele>1006.0000000000001</ele><time>2026-04-26T11:43:43.293Z</time></trkpt><trkpt lat="42.827465" lon="11.502"><ele>1006.0</ele><time>2026-04-26T11:43:44.301Z</time></trkpt><trkpt lat="42.827395" lon="11.50203"><ele>1006.0</ele><time>2026-04-26T11:43:45.301Z</time></trkpt><trkpt lat="42.8273283" lon="11.5020483"><ele>1006.0000000000001</ele><time>2026-04-26T11:43:46.295Z</time></trkpt><trkpt lat="42.82726" lon="11.5020633"><ele>1006.0</ele><time>2026-04-26T11:43:47.297Z</time></trkpt><trkpt lat="42.82719" lon="11.5020683"><ele>1006.0</ele><time>2026-04-26T11:43:48.298Z</time></trkpt><trkpt lat="42.8271183" lon="11.5020717"><ele>1005.9999999999999</ele><time>2026-04-26T11:43:49.292Z</time></trkpt><trkpt lat="42.8270517" lon="11.50207"><ele>1006.0</ele><time>2026-04-26T11:43:50.297Z</time></trkpt><trkpt lat="42.8269883" lon="11.502075"><ele>1006.0</ele><time>2026-04-26T11:43:51.296Z</time></trkpt><trkpt lat="42.8268867" lon="11.5020917"><ele>1006.0</ele><time>2026-04-26T11:43:53.295Z</time></trkpt><trkpt lat="42.8268083" lon="11.502155"><ele>1005.9999999999999</ele><time>2026-04-26T11:43:55.296Z</time></trkpt><trkpt lat="42.82675" lon="11.5022717"><ele>1006.0</ele><time>2026-04-26T11:43:57.295Z</time></trkpt><trkpt lat="42.82671" lon="11.5024483"><ele>1004.8</ele><time>2026-04-26T11:43:59.296Z</time></trkpt><trkpt lat="42.8266933" lon="11.5025617"><ele>1003.5999999999999</ele><time>2026-04-26T11:44:00.296Z</time></trkpt><trkpt lat="42.8266783" lon="11.5026883"><ele>1002.4</ele><time>2026-04-26T11:44:01.295Z</time></trkpt><trkpt lat="42.8266617" lon="11.50282"><ele>1001.2</ele><time>2026-04-26T11:44:02.296Z</time></trkpt><trkpt lat="42.8266433" lon="11.5029517"><ele>1000.0</ele><time>2026-04-26T11:44:03.296Z</time></trkpt><trkpt lat="42.826625" lon="11.5030833"><ele>999.4</ele><time>2026-04-26T11:44:04.293Z</time></trkpt><trkpt lat="42.8266067" lon="11.5032133"><ele>998.8</ele><time>2026-04-26T11:44:05.293Z</time></trkpt><trkpt lat="42.8265833" lon="11.503345"><ele>998.2</ele><time>2026-04-26T11:44:06.292Z</time></trkpt><trkpt lat="42.826555" lon="11.5034733"><ele>997.6</ele><time>2026-04-26T11:44:07.293Z</time></trkpt><trkpt lat="42.826525" lon="11.5036033"><ele>997.0</ele><time>2026-04-26T11:44:08.294Z</time></trkpt><trkpt lat="42.8264867" lon="11.5037283"><ele>996.1666666666666</ele><time>2026-04-26T11:44:09.292Z</time></trkpt><trkpt lat="42.8264433" lon="11.5038483"><ele>995.3333333333333</ele><time>2026-04-26T11:44:10.292Z</time></trkpt><trkpt lat="42.826405" lon="11.5039667"><ele>994.5</ele><time>2026-04-26T11:44:11.292Z</time></trkpt><trkpt lat="42.8263683" lon="11.5040783"><ele>993.6666666666667</ele><time>2026-04-26T11:44:12.292Z</time></trkpt><trkpt lat="42.8263333" lon="11.5041833"><ele>992.8333333333334</ele><time>2026-04-26T11:44:13.296Z</time></trkpt><trkpt lat="42.8262983" lon="11.5042783"><ele>992.0</ele><time>2026-04-26T11:44:14.295Z</time></trkpt><trkpt lat="42.826255" lon="11.5043583"><ele>992.0</ele><time>2026-04-26T11:44:15.296Z</time></trkpt><trkpt lat="42.8262017" lon="11.5044233"><ele>992.0000000000001</ele><time>2026-04-26T11:44:16.295Z</time></trkpt><trkpt lat="42.8261417" lon="11.5044783"><ele>992.0</ele><time>2026-04-26T11:44:17.295Z</time></trkpt><trkpt lat="42.8260767" lon="11.5045267"><ele>992.0</ele><time>2026-04-26T11:44:18.296Z</time></trkpt><trkpt lat="42.8260133" lon="11.5045767"><ele>992.0000000000001</ele><time>2026-04-26T11:44:19.295Z</time></trkpt><trkpt lat="42.8259483" lon="11.5046283"><ele>992.0</ele><time>2026-04-26T11:44:20.299Z</time></trkpt><trkpt lat="42.825885" lon="11.504685"><ele>992.0</ele><time>2026-04-26T11:44:21.296Z</time></trkpt><trkpt lat="42.8258267" lon="11.5047417"><ele>992.8333333333334</ele><time>2026-04-26T11:44:22.296Z</time></trkpt><trkpt lat="42.8257717" lon="11.5048117"><ele>993.6666666666667</ele><time>2026-04-26T11:44:23.296Z</time></trkpt><trkpt lat="42.825715" lon="11.5048967"><ele>994.5</ele><time>2026-04-26T11:44:24.295Z</time></trkpt><trkpt lat="42.825665" lon="11.5049933"><ele>995.3333333333333</ele><time>2026-04-26T11:44:25.295Z</time></trkpt><trkpt lat="42.8256167" lon="11.505095"><ele>996.1666666666666</ele><time>2026-04-26T11:44:26.296Z</time></trkpt><trkpt lat="42.825565" lon="11.5051917"><ele>997.0</ele><time>2026-04-26T11:44:27.296Z</time></trkpt><trkpt lat="42.825515" lon="11.5052867"><ele>996.9999999999999</ele><time>2026-04-26T11:44:28.292Z</time></trkpt><trkpt lat="42.8254683" lon="11.505385"><ele>997.0</ele><time>2026-04-26T11:44:29.296Z</time></trkpt><trkpt lat="42.8254283" lon="11.5054733"><ele>996.9999999999999</ele><time>2026-04-26T11:44:30.296Z</time></trkpt><trkpt lat="42.82539" lon="11.505555"><ele>996.9999999999999</ele><time>2026-04-26T11:44:31.294Z</time></trkpt><trkpt lat="42.8253583" lon="11.5056417"><ele>997.0</ele><time>2026-04-26T11:44:32.296Z</time></trkpt><trkpt lat="42.82534" lon="11.5057333"><ele>996.9999999999999</ele><time>2026-04-26T11:44:33.295Z</time></trkpt><trkpt lat="42.8253283" lon="11.5058333"><ele>996.9999999999999</ele><time>2026-04-26T11:44:34.295Z</time></trkpt><trkpt lat="42.8253267" lon="11.5059367"><ele>997.6666666666666</ele><time>2026-04-26T11:44:35.295Z</time></trkpt><trkpt lat="42.82532" lon="11.5060417"><ele>998.3333333333333</ele><time>2026-04-26T11:44:36.295Z</time></trkpt><trkpt lat="42.8253067" lon="11.5061533"><ele>999.0</ele><time>2026-04-26T11:44:37.295Z</time></trkpt><trkpt lat="42.82529" lon="11.5062633"><ele>999.6666666666667</ele><time>2026-04-26T11:44:38.297Z</time></trkpt><trkpt lat="42.8252683" lon="11.50638"><ele>1000.3333333333334</ele><time>2026-04-26T11:44:39.297Z</time></trkpt><trkpt lat="42.8252467" lon="11.5065033"><ele>1001.0</ele><time>2026-04-26T11:44:40.298Z</time></trkpt><trkpt lat="42.8252233" lon="11.506635"><ele>1001.0</ele><time>2026-04-26T11:44:41.296Z</time></trkpt><trkpt lat="42.8252083" lon="11.5067767"><ele>1000.9999999999999</ele><time>2026-04-26T11:44:42.296Z</time></trkpt><trkpt lat="42.8251933" lon="11.506925"><ele>1000.9999999999999</ele><time>2026-04-26T11:44:43.295Z</time></trkpt><trkpt lat="42.8251767" lon="11.5070633"><ele>1001.0</ele><time>2026-04-26T11:44:44.296Z</time></trkpt><trkpt lat="42.82516" lon="11.5071967"><ele>1001.0</ele><time>2026-04-26T11:44:45.295Z</time></trkpt><trkpt lat="42.82515" lon="11.5073217"><ele>1001.1666666666667</ele><time>2026-04-26T11:44:46.295Z</time></trkpt><trkpt lat="42.8251433" lon="11.5074383"><ele>1001.3333333333334</ele><time>2026-04-26T11:44:47.295Z</time></trkpt><trkpt lat="42.825155" lon="11.50755"><ele>1001.5</ele><time>2026-04-26T11:44:48.297Z</time></trkpt><trkpt lat="42.825185" lon="11.507655"><ele>1001.6666666666667</ele><time>2026-04-26T11:44:49.296Z</time></trkpt><trkpt lat="42.82523" lon="11.5077483"><ele>1001.8333333333334</ele><time>2026-04-26T11:44:50.296Z</time></trkpt><trkpt lat="42.8252883" lon="11.5078367"><ele>1002.0</ele><time>2026-04-26T11:44:51.296Z</time></trkpt><trkpt lat="42.825375" lon="11.5079167"><ele>1003.4000000000001</ele><time>2026-04-26T11:44:52.295Z</time></trkpt><trkpt lat="42.8254617" lon="11.5079967"><ele>1004.8000000000001</ele><time>2026-04-26T11:44:53.296Z</time></trkpt><trkpt lat="42.8255567" lon="11.5080817"><ele>1006.2</ele><time>2026-04-26T11:44:54.297Z</time></trkpt><trkpt lat="42.825645" lon="11.50817"><ele>1007.6</ele><time>2026-04-26T11:44:55.296Z</time></trkpt><trkpt lat="42.825725" lon="11.5082567"><ele>1009.0</ele><time>2026-04-26T11:44:56.297Z</time></trkpt><trkpt lat="42.8257867" lon="11.5083383"><ele>1008.9999999999999</ele><time>2026-04-26T11:44:57.296Z</time></trkpt><trkpt lat="42.8258283" lon="11.508415"><ele>1009.0</ele><time>2026-04-26T11:44:58.296Z</time></trkpt><trkpt lat="42.8258633" lon="11.5085617"><ele>1009.0</ele><time>2026-04-26T11:45:00.295Z</time></trkpt><trkpt lat="42.8258567" lon="11.5086567"><ele>1009.0</ele><time>2026-04-26T11:45:01.295Z</time></trkpt><trkpt lat="42.8258433" lon="11.5087567"><ele>1008.9999999999999</ele><time>2026-04-26T11:45:02.296Z</time></trkpt><trkpt lat="42.825835" lon="11.5088483"><ele>1009.0</ele><time>2026-04-26T11:45:03.296Z</time></trkpt><trkpt lat="42.825835" lon="11.5089367"><ele>1009.3333333333333</ele><time>2026-04-26T11:45:04.297Z</time></trkpt><trkpt lat="42.8258483" lon="11.50903"><ele>1009.6666666666666</ele><time>2026-04-26T11:45:05.296Z</time></trkpt><trkpt lat="42.8258683" lon="11.5091233"><ele>1010.0</ele><time>2026-04-26T11:45:06.296Z</time></trkpt><trkpt lat="42.8259017" lon="11.5092183"><ele>1010.3333333333333</ele><time>2026-04-26T11:45:07.297Z</time></trkpt><trkpt lat="42.8259433" lon="11.5093067"><ele>1010.6666666666666</ele><time>2026-04-26T11:45:08.297Z</time></trkpt><trkpt lat="42.8259933" lon="11.5093917"><ele>1011.0</ele><time>2026-04-26T11:45:09.297Z</time></trkpt><trkpt lat="42.8260383" lon="11.5094783"><ele>1010.8333333333334</ele><time>2026-04-26T11:45:10.296Z</time></trkpt><trkpt lat="42.826075" lon="11.5095683"><ele>1010.6666666666667</ele><time>2026-04-26T11:45:11.295Z</time></trkpt><trkpt lat="42.826115" lon="11.5096633"><ele>1010.5</ele><time>2026-04-26T11:45:12.295Z</time></trkpt><trkpt lat="42.826155" lon="11.50976"><ele>1010.3333333333334</ele><time>2026-04-26T11:45:13.297Z</time></trkpt><trkpt lat="42.8262017" lon="11.5098617"><ele>1010.1666666666667</ele><time>2026-04-26T11:45:14.296Z</time></trkpt><trkpt lat="42.8262483" lon="11.50997"><ele>1010.0</ele><time>2026-04-26T11:45:15.295Z</time></trkpt><trkpt lat="42.8262967" lon="11.51008"><ele>1010.0</ele><time>2026-04-26T11:45:16.295Z</time></trkpt><trkpt lat="42.82635" lon="11.51019"><ele>1010.0</ele><time>2026-04-26T11:45:17.297Z</time></trkpt><trkpt lat="42.8264017" lon="11.5103083"><ele>1010.0</ele><time>2026-04-26T11:45:18.297Z</time></trkpt><trkpt lat="42.82645" lon="11.51043"><ele>1010.0</ele><time>2026-04-26T11:45:19.297Z</time></trkpt><trkpt lat="42.826495" lon="11.510555"><ele>1010.0</ele><time>2026-04-26T11:45:20.297Z</time></trkpt><trkpt lat="42.8265317" lon="11.5106883"><ele>1011.6</ele><time>2026-04-26T11:45:21.296Z</time></trkpt><trkpt lat="42.8265683" lon="11.5108233"><ele>1013.2</ele><time>2026-04-26T11:45:22.296Z</time></trkpt><trkpt lat="42.8266033" lon="11.5109567"><ele>1014.8</ele><time>2026-04-26T11:45:23.295Z</time></trkpt><trkpt lat="42.8266383" lon="11.5110883"><ele>1016.4</ele><time>2026-04-26T11:45:24.296Z</time></trkpt><trkpt lat="42.82667" lon="11.5112133"><ele>1018.0</ele><time>2026-04-26T11:45:25.297Z</time></trkpt><trkpt lat="42.8266933" lon="11.51133"><ele>1018.8333333333333</ele><time>2026-04-26T11:45:26.296Z</time></trkpt><trkpt lat="42.826715" lon="11.511435"><ele>1019.6666666666666</ele><time>2026-04-26T11:45:27.296Z</time></trkpt><trkpt lat="42.8267383" lon="11.5115417"><ele>1020.5</ele><time>2026-04-26T11:45:28.297Z</time></trkpt><trkpt lat="42.8267633" lon="11.511645"><ele>1021.3333333333333</ele><time>2026-04-26T11:45:29.296Z</time></trkpt><trkpt lat="42.8267883" lon="11.5117433"><ele>1022.1666666666666</ele><time>2026-04-26T11:45:30.297Z</time></trkpt><trkpt lat="42.8267967" lon="11.511835"><ele>1023.0</ele><time>2026-04-26T11:45:31.297Z</time></trkpt><trkpt lat="42.826785" lon="11.511925"><ele>1023.0</ele><time>2026-04-26T11:45:32.297Z</time></trkpt><trkpt lat="42.8267617" lon="11.5120183"><ele>1023.0</ele><time>2026-04-26T11:45:33.296Z</time></trkpt><trkpt lat="42.8267183" lon="11.5121067"><ele>1023.0</ele><time>2026-04-26T11:45:34.292Z</time></trkpt><trkpt lat="42.82666" lon="11.5121883"><ele>1023.0</ele><time>2026-04-26T11:45:35.293Z</time></trkpt><trkpt lat="42.8265867" lon="11.5122517"><ele>1023.0</ele><time>2026-04-26T11:45:36.293Z</time></trkpt><trkpt lat="42.8265083" lon="11.5123067"><ele>1023.0</ele><time>2026-04-26T11:45:37.293Z</time></trkpt><trkpt lat="42.8264317" lon="11.5123583"><ele>1024.1666666666667</ele><time>2026-04-26T11:45:38.294Z</time></trkpt><trkpt lat="42.8263617" lon="11.5124217"><ele>1025.3333333333333</ele><time>2026-04-26T11:45:39.295Z</time></trkpt><trkpt lat="42.8262967" lon="11.5124983"><ele>1026.5</ele><time>2026-04-26T11:45:40.293Z</time></trkpt><trkpt lat="42.8262417" lon="11.5125867"><ele>1027.6666666666665</ele><time>2026-04-26T11:45:41.293Z</time></trkpt><trkpt lat="42.8261883" lon="11.51268"><ele>1028.8333333333333</ele><time>2026-04-26T11:45:42.294Z</time></trkpt><trkpt lat="42.82614" lon="11.512775"><ele>1030.0</ele><time>2026-04-26T11:45:43.296Z</time></trkpt><trkpt lat="42.8260967" lon="11.512865"><ele>1031.2857142857142</ele><time>2026-04-26T11:45:44.295Z</time></trkpt><trkpt lat="42.8260533" lon="11.5129483"><ele>1032.5714285714284</ele><time>2026-04-26T11:45:45.296Z</time></trkpt><trkpt lat="42.826" lon="11.5130217"><ele>1033.8571428571427</ele><time>2026-04-26T11:45:46.296Z</time></trkpt><trkpt lat="42.825945" lon="11.513085"><ele>1035.142857142857</ele><time>2026-04-26T11:45:47.294Z</time></trkpt><trkpt lat="42.8258883" lon="11.513145"><ele>1036.4285714285713</ele><time>2026-04-26T11:45:48.293Z</time></trkpt><trkpt lat="42.82583" lon="11.51321"><ele>1037.7142857142856</ele><time>2026-04-26T11:45:49.293Z</time></trkpt><trkpt lat="42.8257833" lon="11.5132783"><ele>1039.0</ele><time>2026-04-26T11:45:50.293Z</time></trkpt><trkpt lat="42.8257417" lon="11.5133683"><ele>1039.2</ele><time>2026-04-26T11:45:51.292Z</time></trkpt><trkpt lat="42.825695" lon="11.5134783"><ele>1039.4</ele><time>2026-04-26T11:45:52.292Z</time></trkpt><trkpt lat="42.8256383" lon="11.513585"><ele>1039.6</ele><time>2026-04-26T11:45:53.293Z</time></trkpt><trkpt lat="42.82557" lon="11.51368"><ele>1039.8</ele><time>2026-04-26T11:45:54.297Z</time></trkpt><trkpt lat="42.8254883" lon="11.5137683"><ele>1040.0</ele><time>2026-04-26T11:45:55.301Z</time></trkpt><trkpt lat="42.8254017" lon="11.5138467"><ele>1040.0</ele><time>2026-04-26T11:45:56.297Z</time></trkpt><trkpt lat="42.8253133" lon="11.5139233"><ele>1040.0</ele><time>2026-04-26T11:45:57.296Z</time></trkpt><trkpt lat="42.8252333" lon="11.5140017"><ele>1040.0</ele><time>2026-04-26T11:45:58.295Z</time></trkpt><trkpt lat="42.82516" lon="11.514075"><ele>1040.0</ele><time>2026-04-26T11:45:59.297Z</time></trkpt><trkpt lat="42.825095" lon="11.5141467"><ele>1040.0</ele><time>2026-04-26T11:46:00.296Z</time></trkpt><trkpt lat="42.8250267" lon="11.51422"><ele>1036.4</ele><time>2026-04-26T11:46:01.296Z</time></trkpt><trkpt lat="42.824955" lon="11.514295"><ele>1032.8</ele><time>2026-04-26T11:46:02.297Z</time></trkpt><trkpt lat="42.8248717" lon="11.514355"><ele>1029.2</ele><time>2026-04-26T11:46:03.295Z</time></trkpt><trkpt lat="42.824785" lon="11.5144083"><ele>1025.6</ele><time>2026-04-26T11:46:04.296Z</time></trkpt><trkpt lat="42.8246933" lon="11.5144467"><ele>1022.0</ele><time>2026-04-26T11:46:05.296Z</time></trkpt><trkpt lat="42.8246017" lon="11.5144767"><ele>1022.0000000000001</ele><time>2026-04-26T11:46:06.295Z</time></trkpt><trkpt lat="42.8245217" lon="11.5145033"><ele>1022.0</ele><time>2026-04-26T11:46:07.296Z</time></trkpt><trkpt lat="42.8244517" lon="11.514525"><ele>1022.0</ele><time>2026-04-26T11:46:08.296Z</time></trkpt><trkpt lat="42.82439" lon="11.5145533"><ele>1022.0</ele><time>2026-04-26T11:46:09.296Z</time></trkpt><trkpt lat="42.82428" lon="11.5146383"><ele>1022.0000000000001</ele><time>2026-04-26T11:46:11.297Z</time></trkpt><trkpt lat="42.8242217" lon="11.5147067"><ele>1022.0</ele><time>2026-04-26T11:46:12.296Z</time></trkpt><trkpt lat="42.8241583" lon="11.5147933"><ele>1025.6</ele><time>2026-04-26T11:46:13.296Z</time></trkpt><trkpt lat="42.8240833" lon="11.5148933"><ele>1029.2</ele><time>2026-04-26T11:46:14.296Z</time></trkpt><trkpt lat="42.8240017" lon="11.51499"><ele>1032.8</ele><time>2026-04-26T11:46:15.295Z</time></trkpt><trkpt lat="42.8239133" lon="11.5150883"><ele>1036.4</ele><time>2026-04-26T11:46:16.296Z</time></trkpt><trkpt lat="42.8238233" lon="11.5151983"><ele>1040.0</ele><time>2026-04-26T11:46:17.295Z</time></trkpt><trkpt lat="42.82373" lon="11.515315"><ele>1039.5</ele><time>2026-04-26T11:46:18.295Z</time></trkpt><trkpt lat="42.82364" lon="11.515435"><ele>1039.0</ele><time>2026-04-26T11:46:19.294Z</time></trkpt><trkpt lat="42.82355" lon="11.5155467"><ele>1038.5</ele><time>2026-04-26T11:46:20.294Z</time></trkpt><trkpt lat="42.82347" lon="11.5156433"><ele>1038.0</ele><time>2026-04-26T11:46:21.293Z</time></trkpt><trkpt lat="42.8233917" lon="11.51574"><ele>1038.0</ele><time>2026-04-26T11:46:22.295Z</time></trkpt><trkpt lat="42.823315" lon="11.5158433"><ele>1038.0</ele><time>2026-04-26T11:46:23.296Z</time></trkpt><trkpt lat="42.82324" lon="11.5159517"><ele>1038.0</ele><time>2026-04-26T11:46:24.298Z</time></trkpt><trkpt lat="42.8231683" lon="11.5160733"><ele>1038.0</ele><time>2026-04-26T11:46:25.295Z</time></trkpt><trkpt lat="42.8230967" lon="11.5162033"><ele>1044.0</ele><time>2026-04-26T11:46:26.296Z</time></trkpt><trkpt lat="42.8230183" lon="11.5163317"><ele>1050.0</ele><time>2026-04-26T11:46:27.295Z</time></trkpt><trkpt lat="42.82294" lon="11.5164683"><ele>1056.0</ele><time>2026-04-26T11:46:28.296Z</time></trkpt><trkpt lat="42.8228533" lon="11.5166083"><ele>1062.0</ele><time>2026-04-26T11:46:29.296Z</time></trkpt><trkpt lat="42.82277" lon="11.5167633"><ele>1062.0</ele><time>2026-04-26T11:46:30.296Z</time></trkpt><trkpt lat="42.82268" lon="11.51693"><ele>1062.0</ele><time>2026-04-26T11:46:31.292Z</time></trkpt><trkpt lat="42.822585" lon="11.517105"><ele>1062.0</ele><time>2026-04-26T11:46:32.296Z</time></trkpt><trkpt lat="42.8224783" lon="11.51728"><ele>1062.0</ele><time>2026-04-26T11:46:33.297Z</time></trkpt><trkpt lat="42.82236" lon="11.5174383"><ele>1062.0</ele><time>2026-04-26T11:46:34.297Z</time></trkpt><trkpt lat="42.8222483" lon="11.5175717"><ele>1062.0</ele><time>2026-04-26T11:46:35.293Z</time></trkpt><trkpt lat="42.82214" lon="11.5176917"><ele>1062.0</ele><time>2026-04-26T11:46:36.293Z</time></trkpt><trkpt lat="42.8220367" lon="11.5177983"><ele>1062.0</ele><time>2026-04-26T11:46:37.297Z</time></trkpt><trkpt lat="42.8219317" lon="11.5179017"><ele>1062.0</ele><time>2026-04-26T11:46:38.293Z</time></trkpt><trkpt lat="42.82183" lon="11.518"><ele>1062.0</ele><time>2026-04-26T11:46:39.297Z</time></trkpt><trkpt lat="42.8217283" lon="11.5180967"><ele>1064.25</ele><time>2026-04-26T11:46:40.297Z</time></trkpt><trkpt lat="42.8216383" lon="11.5181933"><ele>1066.5</ele><time>2026-04-26T11:46:41.296Z</time></trkpt><trkpt lat="42.821555" lon="11.518305"><ele>1068.75</ele><time>2026-04-26T11:46:42.296Z</time></trkpt><trkpt lat="42.8214667" lon="11.5184317"><ele>1071.0</ele><time>2026-04-26T11:46:43.296Z</time></trkpt><trkpt lat="42.8213783" lon="11.5185733"><ele>1071.0</ele><time>2026-04-26T11:46:44.298Z</time></trkpt><trkpt lat="42.8212883" lon="11.5187233"><ele>1071.0</ele><time>2026-04-26T11:46:45.296Z</time></trkpt><trkpt lat="42.8211933" lon="11.5188783"><ele>1071.0</ele><time>2026-04-26T11:46:46.296Z</time></trkpt><trkpt lat="42.8211" lon="11.5190283"><ele>1071.0</ele><time>2026-04-26T11:46:47.297Z</time></trkpt><trkpt lat="42.8210117" lon="11.519165"><ele>1072.25</ele><time>2026-04-26T11:46:48.297Z</time></trkpt><trkpt lat="42.8209317" lon="11.51929"><ele>1073.5</ele><time>2026-04-26T11:46:49.293Z</time></trkpt><trkpt lat="42.8208617" lon="11.5194183"><ele>1074.75</ele><time>2026-04-26T11:46:50.294Z</time></trkpt><trkpt lat="42.8208017" lon="11.5195583"><ele>1076.0</ele><time>2026-04-26T11:46:51.295Z</time></trkpt><trkpt lat="42.8207533" lon="11.5197083"><ele>1080.0</ele><time>2026-04-26T11:46:52.294Z</time></trkpt><trkpt lat="42.8207083" lon="11.5198717"><ele>1084.0</ele><time>2026-04-26T11:46:53.294Z</time></trkpt><trkpt lat="42.82067" lon="11.5200367"><ele>1088.0</ele><time>2026-04-26T11:46:54.301Z</time></trkpt><trkpt lat="42.8206367" lon="11.520195"><ele>1092.0</ele><time>2026-04-26T11:46:55.296Z</time></trkpt><trkpt lat="42.8206067" lon="11.5203417"><ele>1093.8</ele><time>2026-04-26T11:46:56.297Z</time></trkpt><trkpt lat="42.8205783" lon="11.5204817"><ele>1095.6</ele><time>2026-04-26T11:46:57.295Z</time></trkpt><trkpt lat="42.8205483" lon="11.5206167"><ele>1097.3999999999999</ele><time>2026-04-26T11:46:58.296Z</time></trkpt><trkpt lat="42.8205117" lon="11.5207533"><ele>1099.2</ele><time>2026-04-26T11:46:59.296Z</time></trkpt><trkpt lat="42.8204683" lon="11.5208917"><ele>1101.0</ele><time>2026-04-26T11:47:00.292Z</time></trkpt><trkpt lat="42.820425" lon="11.5210333"><ele>1101.0</ele><time>2026-04-26T11:47:01.293Z</time></trkpt><trkpt lat="42.82038" lon="11.5211783"><ele>1101.0</ele><time>2026-04-26T11:47:02.294Z</time></trkpt><trkpt lat="42.820335" lon="11.52132"><ele>1101.0</ele><time>2026-04-26T11:47:03.292Z</time></trkpt><trkpt lat="42.8202867" lon="11.521455"><ele>1101.0</ele><time>2026-04-26T11:47:04.297Z</time></trkpt><trkpt lat="42.8202383" lon="11.52159"><ele>1101.0</ele><time>2026-04-26T11:47:05.294Z</time></trkpt><trkpt lat="42.8201867" lon="11.5217233"><ele>1099.3999999999999</ele><time>2026-04-26T11:47:06.296Z</time></trkpt><trkpt lat="42.8201383" lon="11.5218567"><ele>1097.8</ele><time>2026-04-26T11:47:07.296Z</time></trkpt><trkpt lat="42.8200883" lon="11.52199"><ele>1096.1999999999998</ele><time>2026-04-26T11:47:08.295Z</time></trkpt><trkpt lat="42.8200367" lon="11.522125"><ele>1094.6</ele><time>2026-04-26T11:47:09.297Z</time></trkpt><trkpt lat="42.8199867" lon="11.5222617"><ele>1093.0</ele><time>2026-04-26T11:47:10.297Z</time></trkpt><trkpt lat="42.8199417" lon="11.5223917"><ele>1092.0</ele><time>2026-04-26T11:47:11.293Z</time></trkpt><trkpt lat="42.8198933" lon="11.5225183"><ele>1091.0</ele><time>2026-04-26T11:47:12.293Z</time></trkpt><trkpt lat="42.8198467" lon="11.5226417"><ele>1090.0</ele><time>2026-04-26T11:47:13.294Z</time></trkpt><trkpt lat="42.8198" lon="11.5227733"><ele>1089.0</ele><time>2026-04-26T11:47:14.296Z</time></trkpt><trkpt lat="42.819755" lon="11.5229067"><ele>1088.0</ele><time>2026-04-26T11:47:15.296Z</time></trkpt><trkpt lat="42.8197117" lon="11.52304"><ele>1090.0</ele><time>2026-04-26T11:47:16.296Z</time></trkpt><trkpt lat="42.8196683" lon="11.523175"><ele>1092.0</ele><time>2026-04-26T11:47:17.295Z</time></trkpt><trkpt lat="42.81963" lon="11.523305"><ele>1094.0</ele><time>2026-04-26T11:47:18.293Z</time></trkpt><trkpt lat="42.8195917" lon="11.523425"><ele>1096.0</ele><time>2026-04-26T11:47:19.293Z</time></trkpt><trkpt lat="42.8195567" lon="11.523545"><ele>1098.0</ele><time>2026-04-26T11:47:20.293Z</time></trkpt><trkpt lat="42.8195233" lon="11.5236633"><ele>1101.6</ele><time>2026-04-26T11:47:21.294Z</time></trkpt><trkpt lat="42.8194917" lon="11.5237867"><ele>1105.1999999999998</ele><time>2026-04-26T11:47:22.297Z</time></trkpt><trkpt lat="42.8194583" lon="11.523915"><ele>1108.8</ele><time>2026-04-26T11:47:23.293Z</time></trkpt><trkpt lat="42.81942" lon="11.5240517"><ele>1112.3999999999999</ele><time>2026-04-26T11:47:24.296Z</time></trkpt><trkpt lat="42.8193767" lon="11.5241867"><ele>1116.0</ele><time>2026-04-26T11:47:25.293Z</time></trkpt><trkpt lat="42.819335" lon="11.5243183"><ele>1114.5</ele><time>2026-04-26T11:47:26.297Z</time></trkpt><trkpt lat="42.8192983" lon="11.5244283"><ele>1113.0</ele><time>2026-04-26T11:47:27.297Z</time></trkpt><trkpt lat="42.8192683" lon="11.5245267"><ele>1111.5</ele><time>2026-04-26T11:47:28.296Z</time></trkpt><trkpt lat="42.8192383" lon="11.5246133"><ele>1110.0</ele><time>2026-04-26T11:47:29.296Z</time></trkpt><trkpt lat="42.819195" lon="11.52475"><ele>1108.5</ele><time>2026-04-26T11:47:31.296Z</time></trkpt><trkpt lat="42.819175" lon="11.5248417"><ele>1107.0</ele><time>2026-04-26T11:47:33.296Z</time></trkpt><trkpt lat="42.8191517" lon="11.524925"><ele>1107.0</ele><time>2026-04-26T11:48:01.301Z</time></trkpt><trkpt lat="42.8190917" lon="11.524975"><ele>1107.0</ele><time>2026-04-26T11:49:08.297Z</time></trkpt><trkpt lat="42.819065" lon="11.5250833"><ele>1107.0</ele><time>2026-04-26T11:49:22.296Z</time></trkpt><trkpt lat="42.8190217" lon="11.5252217"><ele>1107.0</ele><time>2026-04-26T11:49:24.296Z</time></trkpt><trkpt lat="42.8189783" lon="11.5253733"><ele>1107.0</ele><time>2026-04-26T11:49:26.297Z</time></trkpt><trkpt lat="42.8189433" lon="11.5255283"><ele>1108.2</ele><time>2026-04-26T11:49:28.296Z</time></trkpt><trkpt lat="42.8189133" lon="11.5256717"><ele>1109.4</ele><time>2026-04-26T11:49:30.296Z</time></trkpt><trkpt lat="42.8188767" lon="11.5258"><ele>1110.6</ele><time>2026-04-26T11:49:32.296Z</time></trkpt><trkpt lat="42.81884" lon="11.5259167"><ele>1111.8</ele><time>2026-04-26T11:49:34.297Z</time></trkpt><trkpt lat="42.8188167" lon="11.5260283"><ele>1113.0</ele><time>2026-04-26T11:49:36.296Z</time></trkpt><trkpt lat="42.8188" lon="11.5261433"><ele>1114.5</ele><time>2026-04-26T11:49:38.297Z</time></trkpt><trkpt lat="42.81878" lon="11.5262633"><ele>1116.0</ele><time>2026-04-26T11:49:40.295Z</time></trkpt><trkpt lat="42.81876" lon="11.5263833"><ele>1117.5</ele><time>2026-04-26T11:49:42.294Z</time></trkpt><trkpt lat="42.8187383" lon="11.526505"><ele>1119.0</ele><time>2026-04-26T11:49:44.295Z</time></trkpt><trkpt lat="42.8187067" lon="11.52665"><ele>1120.5</ele><time>2026-04-26T11:49:46.293Z</time></trkpt><trkpt lat="42.81869" lon="11.526735"><ele>1122.0</ele><time>2026-04-26T11:49:47.297Z</time></trkpt><trkpt lat="42.8186733" lon="11.52683"><ele>1122.0</ele><time>2026-04-26T11:49:48.296Z</time></trkpt><trkpt lat="42.8186583" lon="11.5269383"><ele>1122.0</ele><time>2026-04-26T11:49:49.296Z</time></trkpt><trkpt lat="42.8186483" lon="11.52705"><ele>1122.0</ele><time>2026-04-26T11:49:50.295Z</time></trkpt><trkpt lat="42.8186433" lon="11.5271633"><ele>1122.0</ele><time>2026-04-26T11:49:51.296Z</time></trkpt><trkpt lat="42.8186467" lon="11.5272767"><ele>1122.0</ele><time>2026-04-26T11:49:52.296Z</time></trkpt><trkpt lat="42.8186533" lon="11.5273867"><ele>1122.0</ele><time>2026-04-26T11:49:53.295Z</time></trkpt><trkpt lat="42.8186667" lon="11.5274967"><ele>1120.6666666666667</ele><time>2026-04-26T11:49:54.295Z</time></trkpt><trkpt lat="42.8186817" lon="11.5276067"><ele>1119.3333333333333</ele><time>2026-04-26T11:49:55.292Z</time></trkpt><trkpt lat="42.8187017" lon="11.527715"><ele>1118.0</ele><time>2026-04-26T11:49:56.296Z</time></trkpt><trkpt lat="42.8187267" lon="11.5278267"><ele>1116.6666666666665</ele><time>2026-04-26T11:49:57.292Z</time></trkpt><trkpt lat="42.8187517" lon="11.52794"><ele>1115.3333333333333</ele><time>2026-04-26T11:49:58.293Z</time></trkpt><trkpt lat="42.8187767" lon="11.52805"><ele>1114.0</ele><time>2026-04-26T11:49:59.295Z</time></trkpt><trkpt lat="42.8188033" lon="11.5281567"><ele>1111.3333333333333</ele><time>2026-04-26T11:50:00.295Z</time></trkpt><trkpt lat="42.818825" lon="11.5282567"><ele>1108.6666666666665</ele><time>2026-04-26T11:50:01.295Z</time></trkpt><trkpt lat="42.818845" lon="11.528355"><ele>1106.0</ele><time>2026-04-26T11:50:02.294Z</time></trkpt><trkpt lat="42.8188617" lon="11.5284517"><ele>1103.3333333333333</ele><time>2026-04-26T11:50:03.293Z</time></trkpt><trkpt lat="42.81888" lon="11.528545"><ele>1100.6666666666667</ele><time>2026-04-26T11:50:04.296Z</time></trkpt><trkpt lat="42.8189017" lon="11.5286267"><ele>1098.0</ele><time>2026-04-26T11:50:05.292Z</time></trkpt><trkpt lat="42.8189833" lon="11.528755"><ele>1095.8333333333333</ele><time>2026-04-26T11:50:07.297Z</time></trkpt><trkpt lat="42.8190483" lon="11.52881"><ele>1093.6666666666667</ele><time>2026-04-26T11:50:08.295Z</time></trkpt><trkpt lat="42.81912" lon="11.5288467"><ele>1091.5</ele><time>2026-04-26T11:50:09.296Z</time></trkpt><trkpt lat="42.819205" lon="11.52887"><ele>1089.3333333333335</ele><time>2026-04-26T11:50:10.296Z</time></trkpt><trkpt lat="42.81929" lon="11.5289"><ele>1087.1666666666667</ele><time>2026-04-26T11:50:11.297Z</time></trkpt><trkpt lat="42.8193733" lon="11.528935"><ele>1085.0</ele><time>2026-04-26T11:50:12.296Z</time></trkpt><trkpt lat="42.819455" lon="11.5289667"><ele>1084.0</ele><time>2026-04-26T11:50:13.295Z</time></trkpt><trkpt lat="42.8195367" lon="11.529005"><ele>1083.0</ele><time>2026-04-26T11:50:14.296Z</time></trkpt><trkpt lat="42.81962" lon="11.5290433"><ele>1082.0</ele><time>2026-04-26T11:50:15.296Z</time></trkpt><trkpt lat="42.819705" lon="11.5290817"><ele>1081.0</ele><time>2026-04-26T11:50:16.296Z</time></trkpt><trkpt lat="42.8197883" lon="11.5291233"><ele>1080.0</ele><time>2026-04-26T11:50:17.296Z</time></trkpt><trkpt lat="42.8198733" lon="11.5291633"><ele>1079.0</ele><time>2026-04-26T11:50:18.295Z</time></trkpt><trkpt lat="42.8199583" lon="11.5292017"><ele>1079.0</ele><time>2026-04-26T11:50:19.293Z</time></trkpt><trkpt lat="42.820045" lon="11.5292483"><ele>1079.0</ele><time>2026-04-26T11:50:20.294Z</time></trkpt><trkpt lat="42.820125" lon="11.5292983"><ele>1079.0</ele><time>2026-04-26T11:50:21.296Z</time></trkpt><trkpt lat="42.8202017" lon="11.5293483"><ele>1079.0</ele><time>2026-04-26T11:50:22.296Z</time></trkpt><trkpt lat="42.8202817" lon="11.52939"><ele>1079.0</ele><time>2026-04-26T11:50:23.296Z</time></trkpt><trkpt lat="42.820355" lon="11.5294217"><ele>1079.0</ele><time>2026-04-26T11:50:24.295Z</time></trkpt><trkpt lat="42.8204283" lon="11.52944"><ele>1078.8333333333335</ele><time>2026-04-26T11:50:25.295Z</time></trkpt><trkpt lat="42.82051" lon="11.5294433"><ele>1078.6666666666667</ele><time>2026-04-26T11:50:26.296Z</time></trkpt><trkpt lat="42.8205883" lon="11.529425"><ele>1078.5</ele><time>2026-04-26T11:50:27.296Z</time></trkpt><trkpt lat="42.82067" lon="11.5293867"><ele>1078.3333333333333</ele><time>2026-04-26T11:50:28.296Z</time></trkpt><trkpt lat="42.82076" lon="11.52934"><ele>1078.1666666666665</ele><time>2026-04-26T11:50:29.296Z</time></trkpt><trkpt lat="42.8208583" lon="11.5292933"><ele>1078.0</ele><time>2026-04-26T11:50:30.295Z</time></trkpt><trkpt lat="42.820955" lon="11.5292583"><ele>1076.1666666666665</ele><time>2026-04-26T11:50:31.297Z</time></trkpt><trkpt lat="42.8210483" lon="11.52923"><ele>1074.3333333333333</ele><time>2026-04-26T11:50:32.295Z</time></trkpt><trkpt lat="42.8211317" lon="11.5292033"><ele>1072.5</ele><time>2026-04-26T11:50:33.295Z</time></trkpt><trkpt lat="42.8212183" lon="11.5291817"><ele>1070.6666666666667</ele><time>2026-04-26T11:50:34.295Z</time></trkpt><trkpt lat="42.821305" lon="11.5291633"><ele>1068.8333333333335</ele><time>2026-04-26T11:50:35.296Z</time></trkpt><trkpt lat="42.82139" lon="11.52915"><ele>1067.0</ele><time>2026-04-26T11:50:36.295Z</time></trkpt><trkpt lat="42.8214733" lon="11.5291417"><ele>1067.0</ele><time>2026-04-26T11:50:37.296Z</time></trkpt><trkpt lat="42.821555" lon="11.52914"><ele>1067.0</ele><time>2026-04-26T11:50:38.297Z</time></trkpt><trkpt lat="42.8216367" lon="11.5291383"><ele>1067.0</ele><time>2026-04-26T11:50:39.295Z</time></trkpt><trkpt lat="42.8217167" lon="11.52914"><ele>1067.0</ele><time>2026-04-26T11:50:40.295Z</time></trkpt><trkpt lat="42.821795" lon="11.52914"><ele>1067.0</ele><time>2026-04-26T11:50:41.296Z</time></trkpt><trkpt lat="42.821875" lon="11.5291367"><ele>1067.0</ele><time>2026-04-26T11:50:42.295Z</time></trkpt><trkpt lat="42.8219533" lon="11.5291317"><ele>1065.0</ele><time>2026-04-26T11:50:43.296Z</time></trkpt><trkpt lat="42.8220317" lon="11.529125"><ele>1063.0</ele><time>2026-04-26T11:50:44.297Z</time></trkpt><trkpt lat="42.82211" lon="11.5291217"><ele>1061.0</ele><time>2026-04-26T11:50:45.295Z</time></trkpt><trkpt lat="42.8221883" lon="11.5291317"><ele>1059.0</ele><time>2026-04-26T11:50:46.295Z</time></trkpt><trkpt lat="42.822265" lon="11.5291533"><ele>1057.0</ele><time>2026-04-26T11:50:47.296Z</time></trkpt><trkpt lat="42.8223417" lon="11.5291883"><ele>1055.0</ele><time>2026-04-26T11:50:48.297Z</time></trkpt><trkpt lat="42.8224183" lon="11.5292283"><ele>1055.0</ele><time>2026-04-26T11:50:49.295Z</time></trkpt><trkpt lat="42.822495" lon="11.52927"><ele>1055.0</ele><time>2026-04-26T11:50:50.295Z</time></trkpt><trkpt lat="42.8225683" lon="11.5293183"><ele>1055.0</ele><time>2026-04-26T11:50:51.295Z</time></trkpt><trkpt lat="42.8226417" lon="11.52937"><ele>1055.0</ele><time>2026-04-26T11:50:52.295Z</time></trkpt><trkpt lat="42.8227167" lon="11.5294217"><ele>1055.0</ele><time>2026-04-26T11:50:53.296Z</time></trkpt><trkpt lat="42.82279" lon="11.52948"><ele>1055.0</ele><time>2026-04-26T11:50:54.296Z</time></trkpt><trkpt lat="42.822865" lon="11.529545"><ele>1052.6</ele><time>2026-04-26T11:50:55.293Z</time></trkpt><trkpt lat="42.8229433" lon="11.5296133"><ele>1050.2</ele><time>2026-04-26T11:50:56.296Z</time></trkpt><trkpt lat="42.8230217" lon="11.5296833"><ele>1047.8</ele><time>2026-04-26T11:50:57.294Z</time></trkpt><trkpt lat="42.8231067" lon="11.5297633"><ele>1045.4</ele><time>2026-04-26T11:50:58.296Z</time></trkpt><trkpt lat="42.8231883" lon="11.529845"><ele>1043.0</ele><time>2026-04-26T11:50:59.296Z</time></trkpt><trkpt lat="42.8232667" lon="11.5299267"><ele>1043.0</ele><time>2026-04-26T11:51:00.293Z</time></trkpt><trkpt lat="42.8233433" lon="11.5300067"><ele>1043.0</ele><time>2026-04-26T11:51:01.293Z</time></trkpt><trkpt lat="42.8234083" lon="11.5300967"><ele>1043.0</ele><time>2026-04-26T11:51:02.294Z</time></trkpt><trkpt lat="42.82347" lon="11.530195"><ele>1043.0</ele><time>2026-04-26T11:51:03.298Z</time></trkpt><trkpt lat="42.8235267" lon="11.530295"><ele>1043.0</ele><time>2026-04-26T11:51:04.295Z</time></trkpt><trkpt lat="42.823585" lon="11.5303967"><ele>1042.2857142857142</ele><time>2026-04-26T11:51:05.295Z</time></trkpt><trkpt lat="42.8236333" lon="11.53049"><ele>1041.5714285714284</ele><time>2026-04-26T11:51:06.3Z</time></trkpt><trkpt lat="42.8236717" lon="11.5305733"><ele>1040.857142857143</ele><time>2026-04-26T11:51:07.296Z</time></trkpt><trkpt lat="42.8236933" lon="11.5306567"><ele>1040.142857142857</ele><time>2026-04-26T11:51:08.305Z</time></trkpt><trkpt lat="42.8236967" lon="11.5307483"><ele>1039.4285714285713</ele><time>2026-04-26T11:51:09.296Z</time></trkpt><trkpt lat="42.8236817" lon="11.5308417"><ele>1038.7142857142858</ele><time>2026-04-26T11:51:10.296Z</time></trkpt><trkpt lat="42.8236533" lon="11.53093"><ele>1038.0</ele><time>2026-04-26T11:51:11.297Z</time></trkpt><trkpt lat="42.8236133" lon="11.5310133"><ele>1038.0</ele><time>2026-04-26T11:51:12.296Z</time></trkpt><trkpt lat="42.82358" lon="11.531095"><ele>1038.0</ele><time>2026-04-26T11:51:13.295Z</time></trkpt><trkpt lat="42.823545" lon="11.5311783"><ele>1038.0</ele><time>2026-04-26T11:51:14.299Z</time></trkpt><trkpt lat="42.8235183" lon="11.5312617"><ele>1038.0</ele><time>2026-04-26T11:51:15.295Z</time></trkpt><trkpt lat="42.8235" lon="11.5313517"><ele>1038.0</ele><time>2026-04-26T11:51:16.296Z</time></trkpt><trkpt lat="42.823495" lon="11.5314517"><ele>1038.0</ele><time>2026-04-26T11:51:17.295Z</time></trkpt><trkpt lat="42.8234933" lon="11.5315483"><ele>1038.0</ele><time>2026-04-26T11:51:18.293Z</time></trkpt><trkpt lat="42.8235017" lon="11.5316517"><ele>1035.8333333333333</ele><time>2026-04-26T11:51:19.294Z</time></trkpt><trkpt lat="42.82352" lon="11.5317417"><ele>1033.6666666666667</ele><time>2026-04-26T11:51:20.293Z</time></trkpt><trkpt lat="42.8235467" lon="11.5318233"><ele>1031.5</ele><time>2026-04-26T11:51:21.293Z</time></trkpt><trkpt lat="42.82359" lon="11.53189"><ele>1029.3333333333335</ele><time>2026-04-26T11:51:22.292Z</time></trkpt><trkpt lat="42.8236883" lon="11.531995"><ele>1027.1666666666667</ele><time>2026-04-26T11:51:24.294Z</time></trkpt><trkpt lat="42.82375" lon="11.53203"><ele>1025.0</ele><time>2026-04-26T11:51:25.293Z</time></trkpt><trkpt lat="42.8238267" lon="11.532055"><ele>1025.0</ele><time>2026-04-26T11:51:26.295Z</time></trkpt><trkpt lat="42.8239283" lon="11.532055"><ele>1025.0</ele><time>2026-04-26T11:51:27.293Z</time></trkpt><trkpt lat="42.8240333" lon="11.53205"><ele>1025.0</ele><time>2026-04-26T11:51:28.292Z</time></trkpt><trkpt lat="42.8241367" lon="11.5320467"><ele>1025.0</ele><time>2026-04-26T11:51:29.297Z</time></trkpt><trkpt lat="42.8242283" lon="11.5320517"><ele>1025.0</ele><time>2026-04-26T11:51:30.296Z</time></trkpt><trkpt lat="42.824315" lon="11.5320633"><ele>1021.3333333333334</ele><time>2026-04-26T11:51:31.297Z</time></trkpt><trkpt lat="42.8244033" lon="11.5320817"><ele>1017.6666666666667</ele><time>2026-04-26T11:51:32.295Z</time></trkpt><trkpt lat="42.8244867" lon="11.5321033"><ele>1014.0</ele><time>2026-04-26T11:51:33.296Z</time></trkpt><trkpt lat="42.8245717" lon="11.5321267"><ele>1010.3333333333333</ele><time>2026-04-26T11:51:34.296Z</time></trkpt><trkpt lat="42.82466" lon="11.5321367"><ele>1006.6666666666666</ele><time>2026-04-26T11:51:35.299Z</time></trkpt><trkpt lat="42.8247517" lon="11.53213"><ele>1003.0</ele><time>2026-04-26T11:51:36.297Z</time></trkpt><trkpt lat="42.8248483" lon="11.5321167"><ele>1003.0</ele><time>2026-04-26T11:51:37.296Z</time></trkpt><trkpt lat="42.8249533" lon="11.5320883"><ele>1003.0</ele><time>2026-04-26T11:51:38.295Z</time></trkpt><trkpt lat="42.82507" lon="11.5320567"><ele>1003.0</ele><time>2026-04-26T11:51:39.295Z</time></trkpt><trkpt lat="42.82519" lon="11.53203"><ele>1003.0</ele><time>2026-04-26T11:51:40.295Z</time></trkpt><trkpt lat="42.8253117" lon="11.5320083"><ele>1003.25</ele><time>2026-04-26T11:51:41.297Z</time></trkpt><trkpt lat="42.8254383" lon="11.532"><ele>1003.5</ele><time>2026-04-26T11:51:42.296Z</time></trkpt><trkpt lat="42.8255583" lon="11.5319983"><ele>1003.75</ele><time>2026-04-26T11:51:43.296Z</time></trkpt><trkpt lat="42.8256733" lon="11.532"><ele>1004.0</ele><time>2026-04-26T11:51:44.296Z</time></trkpt><trkpt lat="42.8257683" lon="11.5320133"><ele>1004.0000000000001</ele><time>2026-04-26T11:51:45.295Z</time></trkpt><trkpt lat="42.8258533" lon="11.532035"><ele>1004.0</ele><time>2026-04-26T11:51:46.297Z</time></trkpt><trkpt lat="42.8259317" lon="11.5320767"><ele>1004.0</ele><time>2026-04-26T11:51:47.295Z</time></trkpt><trkpt lat="42.826005" lon="11.5321283"><ele>1004.0</ele><time>2026-04-26T11:51:48.293Z</time></trkpt><trkpt lat="42.8260767" lon="11.5321833"><ele>1004.0000000000001</ele><time>2026-04-26T11:51:49.292Z</time></trkpt><trkpt lat="42.8261433" lon="11.5322583"><ele>1004.0</ele><time>2026-04-26T11:51:50.293Z</time></trkpt><trkpt lat="42.8262017" lon="11.5323467"><ele>999.6666666666667</ele><time>2026-04-26T11:51:51.293Z</time></trkpt><trkpt lat="42.8262483" lon="11.5324483"><ele>995.3333333333334</ele><time>2026-04-26T11:51:52.293Z</time></trkpt><trkpt lat="42.8262767" lon="11.532555"><ele>991.0</ele><time>2026-04-26T11:51:53.294Z</time></trkpt><trkpt lat="42.8262883" lon="11.532665"><ele>986.6666666666667</ele><time>2026-04-26T11:51:54.292Z</time></trkpt><trkpt lat="42.8262783" lon="11.5327767"><ele>982.3333333333334</ele><time>2026-04-26T11:51:55.293Z</time></trkpt><trkpt lat="42.826255" lon="11.5328817"><ele>978.0</ele><time>2026-04-26T11:51:56.292Z</time></trkpt><trkpt lat="42.8262067" lon="11.5329683"><ele>979.0</ele><time>2026-04-26T11:51:57.293Z</time></trkpt><trkpt lat="42.8261383" lon="11.533035"><ele>980.0</ele><time>2026-04-26T11:51:58.294Z</time></trkpt><trkpt lat="42.82605" lon="11.5330767"><ele>981.0</ele><time>2026-04-26T11:51:59.293Z</time></trkpt><trkpt lat="42.8259367" lon="11.533115"><ele>982.0</ele><time>2026-04-26T11:52:00.293Z</time></trkpt><trkpt lat="42.8258383" lon="11.53316"><ele>983.0</ele><time>2026-04-26T11:52:01.292Z</time></trkpt><trkpt lat="42.8257533" lon="11.5332233"><ele>983.0000000000001</ele><time>2026-04-26T11:52:02.292Z</time></trkpt><trkpt lat="42.8256783" lon="11.533305"><ele>983.0</ele><time>2026-04-26T11:52:03.292Z</time></trkpt><trkpt lat="42.8256183" lon="11.5333967"><ele>983.0</ele><time>2026-04-26T11:52:04.295Z</time></trkpt><trkpt lat="42.8255667" lon="11.533495"><ele>983.0</ele><time>2026-04-26T11:52:05.295Z</time></trkpt><trkpt lat="42.8255333" lon="11.5336033"><ele>983.0000000000001</ele><time>2026-04-26T11:52:06.292Z</time></trkpt><trkpt lat="42.82552" lon="11.53372"><ele>983.0</ele><time>2026-04-26T11:52:07.294Z</time></trkpt><trkpt lat="42.8255233" lon="11.53384"><ele>981.8333333333334</ele><time>2026-04-26T11:52:08.292Z</time></trkpt><trkpt lat="42.8255333" lon="11.5339517"><ele>980.6666666666667</ele><time>2026-04-26T11:52:09.293Z</time></trkpt><trkpt lat="42.8255383" lon="11.53406"><ele>979.5</ele><time>2026-04-26T11:52:10.292Z</time></trkpt><trkpt lat="42.8255417" lon="11.53416"><ele>978.3333333333333</ele><time>2026-04-26T11:52:11.294Z</time></trkpt><trkpt lat="42.82555" lon="11.5342567"><ele>977.1666666666666</ele><time>2026-04-26T11:52:12.293Z</time></trkpt><trkpt lat="42.8255633" lon="11.534355"><ele>976.0</ele><time>2026-04-26T11:52:13.293Z</time></trkpt><trkpt lat="42.82559" lon="11.5344467"><ele>975.9999999999999</ele><time>2026-04-26T11:52:14.293Z</time></trkpt><trkpt lat="42.825625" lon="11.534535"><ele>976.0</ele><time>2026-04-26T11:52:15.297Z</time></trkpt><trkpt lat="42.82567" lon="11.5346067"><ele>975.9999999999999</ele><time>2026-04-26T11:52:16.296Z</time></trkpt><trkpt lat="42.8257333" lon="11.534665"><ele>975.9999999999999</ele><time>2026-04-26T11:52:17.296Z</time></trkpt><trkpt lat="42.8258017" lon="11.5346967"><ele>976.0</ele><time>2026-04-26T11:52:18.295Z</time></trkpt><trkpt lat="42.82587" lon="11.5347183"><ele>975.9999999999999</ele><time>2026-04-26T11:52:19.293Z</time></trkpt><trkpt lat="42.8259433" lon="11.534725"><ele>975.9999999999999</ele><time>2026-04-26T11:52:20.294Z</time></trkpt><trkpt lat="42.82602" lon="11.5347183"><ele>975.6666666666666</ele><time>2026-04-26T11:52:21.293Z</time></trkpt><trkpt lat="42.8260983" lon="11.5346967"><ele>975.3333333333333</ele><time>2026-04-26T11:52:22.297Z</time></trkpt><trkpt lat="42.826175" lon="11.53466"><ele>975.0</ele><time>2026-04-26T11:52:23.293Z</time></trkpt><trkpt lat="42.8262517" lon="11.5346233"><ele>974.6666666666667</ele><time>2026-04-26T11:52:24.295Z</time></trkpt><trkpt lat="42.8263267" lon="11.534585"><ele>974.3333333333334</ele><time>2026-04-26T11:52:25.294Z</time></trkpt><trkpt lat="42.8264" lon="11.53455"><ele>974.0</ele><time>2026-04-26T11:52:26.293Z</time></trkpt><trkpt lat="42.8264717" lon="11.5345133"><ele>972.6666666666667</ele><time>2026-04-26T11:52:27.294Z</time></trkpt><trkpt lat="42.826545" lon="11.53448"><ele>971.3333333333334</ele><time>2026-04-26T11:52:28.293Z</time></trkpt><trkpt lat="42.82662" lon="11.5344517"><ele>970.0</ele><time>2026-04-26T11:52:29.297Z</time></trkpt><trkpt lat="42.8266933" lon="11.5344233"><ele>968.6666666666667</ele><time>2026-04-26T11:52:30.293Z</time></trkpt><trkpt lat="42.8267667" lon="11.5343917"><ele>967.3333333333334</ele><time>2026-04-26T11:52:31.294Z</time></trkpt><trkpt lat="42.8268417" lon="11.5343617"><ele>966.0</ele><time>2026-04-26T11:52:32.295Z</time></trkpt><trkpt lat="42.826915" lon="11.5343333"><ele>965.0</ele><time>2026-04-26T11:52:33.295Z</time></trkpt><trkpt lat="42.82699" lon="11.53431"><ele>964.0</ele><time>2026-04-26T11:52:34.296Z</time></trkpt><trkpt lat="42.8270633" lon="11.53429"><ele>963.0</ele><time>2026-04-26T11:52:35.296Z</time></trkpt><trkpt lat="42.8271367" lon="11.5342717"><ele>962.0</ele><time>2026-04-26T11:52:36.296Z</time></trkpt><trkpt lat="42.82721" lon="11.5342517"><ele>961.0</ele><time>2026-04-26T11:52:37.297Z</time></trkpt><trkpt lat="42.8272833" lon="11.5342333"><ele>960.0</ele><time>2026-04-26T11:52:38.294Z</time></trkpt><trkpt lat="42.8273583" lon="11.5342183"><ele>960.0</ele><time>2026-04-26T11:52:39.294Z</time></trkpt><trkpt lat="42.8274317" lon="11.5342067"><ele>960.0</ele><time>2026-04-26T11:52:40.298Z</time></trkpt><trkpt lat="42.8275067" lon="11.5341967"><ele>960.0</ele><time>2026-04-26T11:52:41.298Z</time></trkpt><trkpt lat="42.82758" lon="11.53418"><ele>960.0</ele><time>2026-04-26T11:52:42.296Z</time></trkpt><trkpt lat="42.827655" lon="11.5341617"><ele>960.0</ele><time>2026-04-26T11:52:43.295Z</time></trkpt><trkpt lat="42.8277283" lon="11.5341433"><ele>960.0</ele><time>2026-04-26T11:52:44.295Z</time></trkpt><trkpt lat="42.8277983" lon="11.5341283"><ele>960.0</ele><time>2026-04-26T11:52:45.295Z</time></trkpt><trkpt lat="42.8278683" lon="11.5341133"><ele>959.5714285714287</ele><time>2026-04-26T11:52:46.296Z</time></trkpt><trkpt lat="42.8279383" lon="11.534095"><ele>959.1428571428571</ele><time>2026-04-26T11:52:47.293Z</time></trkpt><trkpt lat="42.8280067" lon="11.5340767"><ele>958.7142857142858</ele><time>2026-04-26T11:52:48.293Z</time></trkpt><trkpt lat="42.828075" lon="11.5340583"><ele>958.2857142857143</ele><time>2026-04-26T11:52:49.292Z</time></trkpt><trkpt lat="42.8281433" lon="11.5340467"><ele>957.8571428571429</ele><time>2026-04-26T11:52:50.295Z</time></trkpt><trkpt lat="42.8282117" lon="11.53404"><ele>957.4285714285714</ele><time>2026-04-26T11:52:51.293Z</time></trkpt><trkpt lat="42.8282833" lon="11.5340367"><ele>957.0</ele><time>2026-04-26T11:52:52.293Z</time></trkpt><trkpt lat="42.8283567" lon="11.5340367"><ele>957.0</ele><time>2026-04-26T11:52:53.294Z</time></trkpt><trkpt lat="42.8284267" lon="11.5340317"><ele>957.0000000000001</ele><time>2026-04-26T11:52:54.294Z</time></trkpt><trkpt lat="42.8284967" lon="11.5340233"><ele>957.0</ele><time>2026-04-26T11:52:55.293Z</time></trkpt><trkpt lat="42.828565" lon="11.5340233"><ele>957.0</ele><time>2026-04-26T11:52:56.293Z</time></trkpt><trkpt lat="42.82863" lon="11.534025"><ele>957.0000000000001</ele><time>2026-04-26T11:52:57.292Z</time></trkpt><trkpt lat="42.8286967" lon="11.5340217"><ele>957.0</ele><time>2026-04-26T11:52:58.292Z</time></trkpt><trkpt lat="42.8287683" lon="11.534015"><ele>957.0</ele><time>2026-04-26T11:52:59.295Z</time></trkpt><trkpt lat="42.8288433" lon="11.5340017"><ele>955.0</ele><time>2026-04-26T11:53:00.297Z</time></trkpt><trkpt lat="42.8289233" lon="11.533995"><ele>953.0</ele><time>2026-04-26T11:53:01.293Z</time></trkpt><trkpt lat="42.829005" lon="11.533995"><ele>951.0</ele><time>2026-04-26T11:53:02.295Z</time></trkpt><trkpt lat="42.8290833" lon="11.534"><ele>949.0</ele><time>2026-04-26T11:53:03.294Z</time></trkpt><trkpt lat="42.82916" lon="11.5340117"><ele>947.0</ele><time>2026-04-26T11:53:04.292Z</time></trkpt><trkpt lat="42.8292383" lon="11.53403"><ele>945.0</ele><time>2026-04-26T11:53:05.293Z</time></trkpt><trkpt lat="42.8293167" lon="11.5340533"><ele>941.5</ele><time>2026-04-26T11:53:06.297Z</time></trkpt><trkpt lat="42.829395" lon="11.5340833"><ele>938.0</ele><time>2026-04-26T11:53:07.296Z</time></trkpt><trkpt lat="42.8294633" lon="11.534125"><ele>934.5</ele><time>2026-04-26T11:53:08.297Z</time></trkpt><trkpt lat="42.8295283" lon="11.5341833"><ele>931.0</ele><time>2026-04-26T11:53:09.293Z</time></trkpt><trkpt lat="42.8295867" lon="11.5342517"><ele>927.5</ele><time>2026-04-26T11:53:10.295Z</time></trkpt><trkpt lat="42.8296417" lon="11.5343417"><ele>924.0</ele><time>2026-04-26T11:53:11.296Z</time></trkpt><trkpt lat="42.8296833" lon="11.5344667"><ele>925.0</ele><time>2026-04-26T11:53:12.292Z</time></trkpt><trkpt lat="42.8297317" lon="11.53461"><ele>926.0</ele><time>2026-04-26T11:53:13.297Z</time></trkpt><trkpt lat="42.8297817" lon="11.5347583"><ele>927.0</ele><time>2026-04-26T11:53:14.296Z</time></trkpt><trkpt lat="42.8298383" lon="11.534905"><ele>928.0</ele><time>2026-04-26T11:53:15.296Z</time></trkpt><trkpt lat="42.8299" lon="11.5350517"><ele>928.0</ele><time>2026-04-26T11:53:16.297Z</time></trkpt><trkpt lat="42.8299617" lon="11.5352"><ele>928.0</ele><time>2026-04-26T11:53:17.292Z</time></trkpt><trkpt lat="42.83002" lon="11.5353467"><ele>928.0</ele><time>2026-04-26T11:53:18.293Z</time></trkpt><trkpt lat="42.8300717" lon="11.5354883"><ele>928.0</ele><time>2026-04-26T11:53:19.293Z</time></trkpt><trkpt lat="42.83012" lon="11.5356233"><ele>924.5999999999999</ele><time>2026-04-26T11:53:20.296Z</time></trkpt><trkpt lat="42.8301683" lon="11.5357533"><ele>921.1999999999999</ele><time>2026-04-26T11:53:21.292Z</time></trkpt><trkpt lat="42.8302183" lon="11.53588"><ele>917.8</ele><time>2026-04-26T11:53:22.292Z</time></trkpt><trkpt lat="42.830265" lon="11.5360067"><ele>914.4</ele><time>2026-04-26T11:53:23.295Z</time></trkpt><trkpt lat="42.8303017" lon="11.5361367"><ele>911.0</ele><time>2026-04-26T11:53:24.292Z</time></trkpt><trkpt lat="42.8303433" lon="11.536275"><ele>911.0</ele><time>2026-04-26T11:53:25.294Z</time></trkpt><trkpt lat="42.8303967" lon="11.5364267"><ele>911.0</ele><time>2026-04-26T11:53:26.297Z</time></trkpt><trkpt lat="42.8304583" lon="11.5365867"><ele>911.0</ele><time>2026-04-26T11:53:27.297Z</time></trkpt><trkpt lat="42.8305333" lon="11.536745"><ele>911.0</ele><time>2026-04-26T11:53:28.294Z</time></trkpt><trkpt lat="42.830615" lon="11.5369033"><ele>911.0</ele><time>2026-04-26T11:53:29.295Z</time></trkpt><trkpt lat="42.830695" lon="11.53705"><ele>911.0</ele><time>2026-04-26T11:53:30.294Z</time></trkpt><trkpt lat="42.8307783" lon="11.53718"><ele>911.0</ele><time>2026-04-26T11:53:31.296Z</time></trkpt><trkpt lat="42.8308567" lon="11.5373"><ele>911.0</ele><time>2026-04-26T11:53:32.295Z</time></trkpt><trkpt lat="42.8309333" lon="11.537405"><ele>909.5</ele><time>2026-04-26T11:53:33.296Z</time></trkpt><trkpt lat="42.8310067" lon="11.537515"><ele>908.0</ele><time>2026-04-26T11:53:34.298Z</time></trkpt><trkpt lat="42.8310883" lon="11.5376283"><ele>906.5</ele><time>2026-04-26T11:53:35.294Z</time></trkpt><trkpt lat="42.8311683" lon="11.5377433"><ele>905.0</ele><time>2026-04-26T11:53:36.296Z</time></trkpt><trkpt lat="42.8312483" lon="11.5378633"><ele>905.0</ele><time>2026-04-26T11:53:37.297Z</time></trkpt><trkpt lat="42.83133" lon="11.5379833"><ele>905.0</ele><time>2026-04-26T11:53:38.297Z</time></trkpt><trkpt lat="42.8314133" lon="11.5381033"><ele>905.0</ele><time>2026-04-26T11:53:39.296Z</time></trkpt><trkpt lat="42.8314917" lon="11.538215"><ele>905.0</ele><time>2026-04-26T11:53:40.296Z</time></trkpt><trkpt lat="42.83156" lon="11.53832"><ele>905.0000000000001</ele><time>2026-04-26T11:53:41.296Z</time></trkpt><trkpt lat="42.831625" lon="11.5384167"><ele>905.0</ele><time>2026-04-26T11:53:42.296Z</time></trkpt><trkpt lat="42.83168" lon="11.5385033"><ele>905.0</ele><time>2026-04-26T11:53:43.296Z</time></trkpt><trkpt lat="42.83173" lon="11.5385867"><ele>905.0</ele><time>2026-04-26T11:53:44.297Z</time></trkpt><trkpt lat="42.831775" lon="11.53867"><ele>905.0000000000001</ele><time>2026-04-26T11:53:45.297Z</time></trkpt><trkpt lat="42.8318033" lon="11.53876"><ele>905.0</ele><time>2026-04-26T11:53:46.297Z</time></trkpt><trkpt lat="42.8318267" lon="11.5388617"><ele>902.5000000000001</ele><time>2026-04-26T11:53:47.293Z</time></trkpt><trkpt lat="42.831855" lon="11.53897"><ele>900.0</ele><time>2026-04-26T11:53:48.293Z</time></trkpt><trkpt lat="42.8318833" lon="11.5390783"><ele>897.5</ele><time>2026-04-26T11:53:49.292Z</time></trkpt><trkpt lat="42.83191" lon="11.5391867"><ele>895.0</ele><time>2026-04-26T11:53:50.295Z</time></trkpt><trkpt lat="42.8319383" lon="11.53929"><ele>892.5000000000001</ele><time>2026-04-26T11:53:51.293Z</time></trkpt><trkpt lat="42.8319783" lon="11.5393817"><ele>890.0</ele><time>2026-04-26T11:53:52.292Z</time></trkpt><trkpt lat="42.83203" lon="11.5394583"><ele>890.0000000000001</ele><time>2026-04-26T11:53:53.293Z</time></trkpt><trkpt lat="42.8320933" lon="11.5395183"><ele>890.0</ele><time>2026-04-26T11:53:54.296Z</time></trkpt><trkpt lat="42.8321683" lon="11.5395583"><ele>890.0</ele><time>2026-04-26T11:53:55.297Z</time></trkpt><trkpt lat="42.832245" lon="11.5395933"><ele>890.0</ele><time>2026-04-26T11:53:56.297Z</time></trkpt><trkpt lat="42.8323183" lon="11.53963"><ele>890.0000000000001</ele><time>2026-04-26T11:53:57.298Z</time></trkpt><trkpt lat="42.8323967" lon="11.53967"><ele>890.0</ele><time>2026-04-26T11:53:58.297Z</time></trkpt><trkpt lat="42.832475" lon="11.5397133"><ele>889.3333333333334</ele><time>2026-04-26T11:53:59.296Z</time></trkpt><trkpt lat="42.832555" lon="11.53976"><ele>888.6666666666667</ele><time>2026-04-26T11:54:00.296Z</time></trkpt><trkpt lat="42.8326367" lon="11.5398033"><ele>888.0</ele><time>2026-04-26T11:54:01.296Z</time></trkpt><trkpt lat="42.8327167" lon="11.53985"><ele>887.3333333333333</ele><time>2026-04-26T11:54:02.296Z</time></trkpt><trkpt lat="42.8327917" lon="11.5398917"><ele>886.6666666666666</ele><time>2026-04-26T11:54:03.296Z</time></trkpt><trkpt lat="42.83286" lon="11.5399333"><ele>886.0</ele><time>2026-04-26T11:54:04.296Z</time></trkpt><trkpt lat="42.8329233" lon="11.5399733"><ele>885.1666666666666</ele><time>2026-04-26T11:54:05.296Z</time></trkpt><trkpt lat="42.83298" lon="11.5400117"><ele>884.3333333333333</ele><time>2026-04-26T11:54:06.296Z</time></trkpt><trkpt lat="42.83306" lon="11.5400733"><ele>883.5</ele><time>2026-04-26T11:54:08.297Z</time></trkpt><trkpt lat="42.8331267" lon="11.5401117"><ele>882.6666666666667</ele><time>2026-04-26T11:54:11.296Z</time></trkpt><trkpt lat="42.83319" lon="11.54017"><ele>881.8333333333334</ele><time>2026-04-26T11:54:17.296Z</time></trkpt><trkpt lat="42.83324" lon="11.5402267"><ele>881.0</ele><time>2026-04-26T11:54:18.297Z</time></trkpt><trkpt lat="42.833305" lon="11.5402933"><ele>881.0</ele><time>2026-04-26T11:54:19.296Z</time></trkpt><trkpt lat="42.833375" lon="11.5403717"><ele>880.9999999999999</ele><time>2026-04-26T11:54:20.297Z</time></trkpt><trkpt lat="42.833455" lon="11.5404617"><ele>880.9999999999999</ele><time>2026-04-26T11:54:21.298Z</time></trkpt><trkpt lat="42.8335417" lon="11.5405633"><ele>881.0</ele><time>2026-04-26T11:54:22.296Z</time></trkpt><trkpt lat="42.8336367" lon="11.5406767"><ele>881.0</ele><time>2026-04-26T11:54:23.297Z</time></trkpt><trkpt lat="42.83374" lon="11.5408067"><ele>880.5</ele><time>2026-04-26T11:54:24.297Z</time></trkpt><trkpt lat="42.83384" lon="11.540945"><ele>880.0</ele><time>2026-04-26T11:54:25.297Z</time></trkpt><trkpt lat="42.8339267" lon="11.5410817"><ele>879.5</ele><time>2026-04-26T11:54:26.297Z</time></trkpt><trkpt lat="42.8339983" lon="11.5412117"><ele>879.0</ele><time>2026-04-26T11:54:27.296Z</time></trkpt><trkpt lat="42.8340567" lon="11.5413567"><ele>879.0</ele><time>2026-04-26T11:54:28.297Z</time></trkpt><trkpt lat="42.8341033" lon="11.54152"><ele>879.0</ele><time>2026-04-26T11:54:29.293Z</time></trkpt><trkpt lat="42.8341417" lon="11.5417017"><ele>879.0</ele><time>2026-04-26T11:54:30.297Z</time></trkpt><trkpt lat="42.8341683" lon="11.5419"><ele>879.0</ele><time>2026-04-26T11:54:31.296Z</time></trkpt><trkpt lat="42.83419" lon="11.5421133"><ele>877.6666666666667</ele><time>2026-04-26T11:54:32.296Z</time></trkpt><trkpt lat="42.8342133" lon="11.5423317"><ele>876.3333333333334</ele><time>2026-04-26T11:54:33.296Z</time></trkpt><trkpt lat="42.834235" lon="11.5425467"><ele>875.0</ele><time>2026-04-26T11:54:34.296Z</time></trkpt><trkpt lat="42.8342583" lon="11.5427533"><ele>873.0</ele><time>2026-04-26T11:54:35.293Z</time></trkpt><trkpt lat="42.8342783" lon="11.54295"><ele>871.0</ele><time>2026-04-26T11:54:36.294Z</time></trkpt><trkpt lat="42.8342883" lon="11.54313"><ele>869.0</ele><time>2026-04-26T11:54:37.297Z</time></trkpt><trkpt lat="42.8342833" lon="11.5433017"><ele>867.0</ele><time>2026-04-26T11:54:38.294Z</time></trkpt><trkpt lat="42.83426" lon="11.54346"><ele>867.0</ele><time>2026-04-26T11:54:39.297Z</time></trkpt><trkpt lat="42.8342117" lon="11.5436117"><ele>867.0</ele><time>2026-04-26T11:54:40.297Z</time></trkpt><trkpt lat="42.8341417" lon="11.5437583"><ele>867.0</ele><time>2026-04-26T11:54:41.297Z</time></trkpt><trkpt lat="42.834065" lon="11.543905"><ele>867.0</ele><time>2026-04-26T11:54:42.297Z</time></trkpt><trkpt lat="42.8339917" lon="11.5440517"><ele>866.25</ele><time>2026-04-26T11:54:43.298Z</time></trkpt><trkpt lat="42.8339317" lon="11.544195"><ele>865.5</ele><time>2026-04-26T11:54:44.297Z</time></trkpt><trkpt lat="42.83388" lon="11.5443417"><ele>864.75</ele><time>2026-04-26T11:54:45.297Z</time></trkpt><trkpt lat="42.8338417" lon="11.5444883"><ele>864.0</ele><time>2026-04-26T11:54:46.297Z</time></trkpt><trkpt lat="42.8338183" lon="11.5446433"><ele>863.25</ele><time>2026-04-26T11:54:47.297Z</time></trkpt><trkpt lat="42.8338067" lon="11.5448167"><ele>862.5</ele><time>2026-04-26T11:54:48.296Z</time></trkpt><trkpt lat="42.8338067" lon="11.545"><ele>861.75</ele><time>2026-04-26T11:54:49.297Z</time></trkpt><trkpt lat="42.8338117" lon="11.5451783"><ele>861.0</ele><time>2026-04-26T11:54:50.296Z</time></trkpt><trkpt lat="42.8338083" lon="11.5453383"><ele>859.8</ele><time>2026-04-26T11:54:51.296Z</time></trkpt><trkpt lat="42.833815" lon="11.5454817"><ele>858.5999999999999</ele><time>2026-04-26T11:54:52.298Z</time></trkpt><trkpt lat="42.8338433" lon="11.5456217"><ele>857.4</ele><time>2026-04-26T11:54:53.296Z</time></trkpt><trkpt lat="42.8338933" lon="11.5457483"><ele>856.2</ele><time>2026-04-26T11:54:54.296Z</time></trkpt><trkpt lat="42.83396" lon="11.5458517"><ele>855.0</ele><time>2026-04-26T11:54:55.297Z</time></trkpt><trkpt lat="42.8340333" lon="11.5459367"><ele>855.0</ele><time>2026-04-26T11:54:56.296Z</time></trkpt><trkpt lat="42.8341117" lon="11.54601"><ele>855.0</ele><time>2026-04-26T11:54:57.296Z</time></trkpt><trkpt lat="42.8341883" lon="11.5460717"><ele>855.0</ele><time>2026-04-26T11:54:58.297Z</time></trkpt><trkpt lat="42.8342633" lon="11.54613"><ele>855.0</ele><time>2026-04-26T11:54:59.296Z</time></trkpt><trkpt lat="42.8343367" lon="11.54618"><ele>855.0</ele><time>2026-04-26T11:55:00.292Z</time></trkpt><trkpt lat="42.8344033" lon="11.5462217"><ele>855.0</ele><time>2026-04-26T11:55:01.293Z</time></trkpt><trkpt lat="42.8344717" lon="11.5462583"><ele>855.5</ele><time>2026-04-26T11:55:02.301Z</time></trkpt><trkpt lat="42.83454" lon="11.5462917"><ele>856.0</ele><time>2026-04-26T11:55:03.296Z</time></trkpt><trkpt lat="42.83461" lon="11.546325"><ele>856.5</ele><time>2026-04-26T11:55:04.296Z</time></trkpt><trkpt lat="42.8346817" lon="11.5463583"><ele>857.0</ele><time>2026-04-26T11:55:05.297Z</time></trkpt><trkpt lat="42.8347583" lon="11.5463933"><ele>857.5</ele><time>2026-04-26T11:55:06.296Z</time></trkpt><trkpt lat="42.8348383" lon="11.5464367"><ele>858.0</ele><time>2026-04-26T11:55:07.296Z</time></trkpt><trkpt lat="42.8349233" lon="11.546485"><ele>858.0</ele><time>2026-04-26T11:55:08.294Z</time></trkpt><trkpt lat="42.8350167" lon="11.5465367"><ele>858.0</ele><time>2026-04-26T11:55:09.296Z</time></trkpt><trkpt lat="42.83512" lon="11.5465967"><ele>858.0</ele><time>2026-04-26T11:55:10.296Z</time></trkpt><trkpt lat="42.8352283" lon="11.5466583"><ele>858.0</ele><time>2026-04-26T11:55:11.297Z</time></trkpt><trkpt lat="42.8353417" lon="11.5467217"><ele>858.5999999999999</ele><time>2026-04-26T11:55:12.297Z</time></trkpt><trkpt lat="42.83545" lon="11.5467817"><ele>859.1999999999999</ele><time>2026-04-26T11:55:13.293Z</time></trkpt><trkpt lat="42.835555" lon="11.5468367"><ele>859.8</ele><time>2026-04-26T11:55:14.297Z</time></trkpt><trkpt lat="42.8356533" lon="11.5468883"><ele>860.4</ele><time>2026-04-26T11:55:15.297Z</time></trkpt><trkpt lat="42.83575" lon="11.54694"><ele>861.0</ele><time>2026-04-26T11:55:16.297Z</time></trkpt><trkpt lat="42.8358433" lon="11.54699"><ele>862.0</ele><time>2026-04-26T11:55:17.296Z</time></trkpt><trkpt lat="42.8359367" lon="11.5470467"><ele>862.9999999999999</ele><time>2026-04-26T11:55:18.297Z</time></trkpt><trkpt lat="42.83603" lon="11.547115"><ele>863.9999999999999</ele><time>2026-04-26T11:55:19.298Z</time></trkpt><trkpt lat="42.8361233" lon="11.547185"><ele>865.0</ele><time>2026-04-26T11:55:20.298Z</time></trkpt><trkpt lat="42.8362167" lon="11.5472617"><ele>866.0</ele><time>2026-04-26T11:55:21.297Z</time></trkpt><trkpt lat="42.83631" lon="11.5473367"><ele>867.1999999999999</ele><time>2026-04-26T11:55:22.297Z</time></trkpt><trkpt lat="42.8364033" lon="11.5474067"><ele>868.3999999999999</ele><time>2026-04-26T11:55:23.296Z</time></trkpt><trkpt lat="42.8365" lon="11.54747"><ele>869.6</ele><time>2026-04-26T11:55:24.296Z</time></trkpt><trkpt lat="42.8365983" lon="11.5475233"><ele>870.8</ele><time>2026-04-26T11:55:25.296Z</time></trkpt><trkpt lat="42.8367" lon="11.54756"><ele>872.0</ele><time>2026-04-26T11:55:26.297Z</time></trkpt><trkpt lat="42.8368083" lon="11.5475767"><ele>873.8</ele><time>2026-04-26T11:55:27.298Z</time></trkpt><trkpt lat="42.8369133" lon="11.5475867"><ele>875.6</ele><time>2026-04-26T11:55:28.296Z</time></trkpt><trkpt lat="42.8370067" lon="11.54759"><ele>877.3999999999999</ele><time>2026-04-26T11:55:29.298Z</time></trkpt><trkpt lat="42.8370917" lon="11.5475833"><ele>879.1999999999999</ele><time>2026-04-26T11:55:30.297Z</time></trkpt><trkpt lat="42.8371783" lon="11.5475617"><ele>881.0</ele><time>2026-04-26T11:55:31.297Z</time></trkpt><trkpt lat="42.8372667" lon="11.54752"><ele>881.0</ele><time>2026-04-26T11:55:32.296Z</time></trkpt><trkpt lat="42.8373517" lon="11.54745"><ele>880.9999999999999</ele><time>2026-04-26T11:55:33.298Z</time></trkpt><trkpt lat="42.8374267" lon="11.5473717"><ele>880.9999999999999</ele><time>2026-04-26T11:55:34.296Z</time></trkpt><trkpt lat="42.8375" lon="11.5473017"><ele>881.0</ele><time>2026-04-26T11:55:35.296Z</time></trkpt><trkpt lat="42.8375767" lon="11.5472517"><ele>881.0</ele><time>2026-04-26T11:55:36.296Z</time></trkpt><trkpt lat="42.8376667" lon="11.547225"><ele>882.5999999999999</ele><time>2026-04-26T11:55:37.297Z</time></trkpt><trkpt lat="42.8377567" lon="11.5472033"><ele>884.1999999999999</ele><time>2026-04-26T11:55:38.297Z</time></trkpt><trkpt lat="42.8378433" lon="11.547175"><ele>885.8000000000001</ele><time>2026-04-26T11:55:39.297Z</time></trkpt><trkpt lat="42.8379383" lon="11.547115"><ele>887.4000000000001</ele><time>2026-04-26T11:55:40.296Z</time></trkpt><trkpt lat="42.8380233" lon="11.5470467"><ele>889.0</ele><time>2026-04-26T11:55:41.295Z</time></trkpt><trkpt lat="42.8381033" lon="11.546995"><ele>889.0</ele><time>2026-04-26T11:55:42.295Z</time></trkpt><trkpt lat="42.8381867" lon="11.546975"><ele>889.0000000000001</ele><time>2026-04-26T11:55:43.295Z</time></trkpt><trkpt lat="42.8382817" lon="11.5469717"><ele>889.0000000000001</ele><time>2026-04-26T11:55:44.296Z</time></trkpt><trkpt lat="42.8383817" lon="11.5469767"><ele>889.0</ele><time>2026-04-26T11:55:45.297Z</time></trkpt><trkpt lat="42.83849" lon="11.5469817"><ele>889.0</ele><time>2026-04-26T11:55:46.297Z</time></trkpt><trkpt lat="42.8386167" lon="11.5469917"><ele>888.5</ele><time>2026-04-26T11:55:47.295Z</time></trkpt><trkpt lat="42.8387483" lon="11.547"><ele>888.0</ele><time>2026-04-26T11:55:48.295Z</time></trkpt><trkpt lat="42.8388717" lon="11.547005"><ele>887.5</ele><time>2026-04-26T11:55:49.296Z</time></trkpt><trkpt lat="42.8389767" lon="11.547015"><ele>887.0</ele><time>2026-04-26T11:55:50.302Z</time></trkpt><trkpt lat="42.8390767" lon="11.5470433"><ele>888.3333333333334</ele><time>2026-04-26T11:55:51.295Z</time></trkpt><trkpt lat="42.839165" lon="11.5470967"><ele>889.6666666666667</ele><time>2026-04-26T11:55:52.295Z</time></trkpt><trkpt lat="42.8392433" lon="11.54716"><ele>891.0</ele><time>2026-04-26T11:55:53.295Z</time></trkpt><trkpt lat="42.8393167" lon="11.5472283"><ele>892.3333333333333</ele><time>2026-04-26T11:55:54.296Z</time></trkpt><trkpt lat="42.8393817" lon="11.5472867"><ele>893.6666666666666</ele><time>2026-04-26T11:55:55.296Z</time></trkpt><trkpt lat="42.8394383" lon="11.5473383"><ele>895.0</ele><time>2026-04-26T11:55:56.295Z</time></trkpt><trkpt lat="42.8395217" lon="11.5474217"><ele>896.4</ele><time>2026-04-26T11:55:58.298Z</time></trkpt><trkpt lat="42.8395933" lon="11.54746"><ele>897.8</ele><time>2026-04-26T11:56:24.295Z</time></trkpt><trkpt lat="42.8396767" lon="11.5474167"><ele>899.2</ele><time>2026-04-26T11:56:26.296Z</time></trkpt><trkpt lat="42.839755" lon="11.5473533"><ele>900.6</ele><time>2026-04-26T11:56:28.296Z</time></trkpt><trkpt lat="42.8398233" lon="11.5472633"><ele>902.0</ele><time>2026-04-26T11:56:30.296Z</time></trkpt><trkpt lat="42.8398917" lon="11.5471567"><ele>902.1666666666667</ele><time>2026-04-26T11:56:32.296Z</time></trkpt><trkpt lat="42.8399683" lon="11.5470317"><ele>902.3333333333334</ele><time>2026-04-26T11:56:34.296Z</time></trkpt><trkpt lat="42.8400133" lon="11.5469683"><ele>902.5</ele><time>2026-04-26T11:56:35.296Z</time></trkpt><trkpt lat="42.8400683" lon="11.5469017"><ele>902.6666666666667</ele><time>2026-04-26T11:56:36.295Z</time></trkpt><trkpt lat="42.8401333" lon="11.5468317"><ele>902.8333333333334</ele><time>2026-04-26T11:56:37.296Z</time></trkpt><trkpt lat="42.8402" lon="11.5467667"><ele>903.0</ele><time>2026-04-26T11:56:38.296Z</time></trkpt><trkpt lat="42.8402667" lon="11.546715"><ele>903.0</ele><time>2026-04-26T11:56:39.295Z</time></trkpt><trkpt lat="42.8403233" lon="11.5466717"><ele>903.0</ele><time>2026-04-26T11:56:40.293Z</time></trkpt><trkpt lat="42.84042" lon="11.546595"><ele>903.0</ele><time>2026-04-26T11:56:42.296Z</time></trkpt><trkpt lat="42.84053" lon="11.54656"><ele>903.0</ele><time>2026-04-26T11:56:44.295Z</time></trkpt><trkpt lat="42.840595" lon="11.5465717"><ele>903.0</ele><time>2026-04-26T11:56:45.296Z</time></trkpt><trkpt lat="42.84067" lon="11.5465933"><ele>903.0</ele><time>2026-04-26T11:56:46.295Z</time></trkpt><trkpt lat="42.8407417" lon="11.5466233"><ele>903.0</ele><time>2026-04-26T11:56:47.295Z</time></trkpt><trkpt lat="42.84083" lon="11.54665"><ele>903.0</ele><time>2026-04-26T11:56:48.293Z</time></trkpt><trkpt lat="42.8409233" lon="11.5466633"><ele>903.0</ele><time>2026-04-26T11:56:49.293Z</time></trkpt><trkpt lat="42.8410233" lon="11.54667"><ele>903.0</ele><time>2026-04-26T11:56:50.295Z</time></trkpt><trkpt lat="42.84112" lon="11.5466767"><ele>903.0</ele><time>2026-04-26T11:56:51.296Z</time></trkpt><trkpt lat="42.841215" lon="11.5466767"><ele>902.4</ele><time>2026-04-26T11:56:52.292Z</time></trkpt><trkpt lat="42.84131" lon="11.5466667"><ele>901.8</ele><time>2026-04-26T11:56:53.296Z</time></trkpt><trkpt lat="42.841405" lon="11.5466483"><ele>901.2</ele><time>2026-04-26T11:56:54.295Z</time></trkpt><trkpt lat="42.8415033" lon="11.5466333"><ele>900.6</ele><time>2026-04-26T11:56:55.296Z</time></trkpt><trkpt lat="42.8415983" lon="11.546625"><ele>900.0</ele><time>2026-04-26T11:56:56.296Z</time></trkpt><trkpt lat="42.8416817" lon="11.54663"><ele>900.0</ele><time>2026-04-26T11:56:57.295Z</time></trkpt><trkpt lat="42.8417633" lon="11.54665"><ele>900.0</ele><time>2026-04-26T11:56:58.297Z</time></trkpt><trkpt lat="42.8418583" lon="11.5466717"><ele>900.0</ele><time>2026-04-26T11:56:59.294Z</time></trkpt><trkpt lat="42.8419533" lon="11.5467017"><ele>900.0</ele><time>2026-04-26T11:57:00.296Z</time></trkpt><trkpt lat="42.842045" lon="11.5467317"><ele>900.0</ele><time>2026-04-26T11:57:01.296Z</time></trkpt><trkpt lat="42.8421217" lon="11.546765"><ele>900.5</ele><time>2026-04-26T11:57:02.296Z</time></trkpt><trkpt lat="42.8421833" lon="11.5468183"><ele>901.0</ele><time>2026-04-26T11:57:03.295Z</time></trkpt><trkpt lat="42.8422317" lon="11.5468983"><ele>901.5</ele><time>2026-04-26T11:57:04.296Z</time></trkpt><trkpt lat="42.8422683" lon="11.5469883"><ele>902.0</ele><time>2026-04-26T11:57:05.295Z</time></trkpt><trkpt lat="42.84231" lon="11.54708"><ele>902.5</ele><time>2026-04-26T11:57:06.293Z</time></trkpt><trkpt lat="42.842365" lon="11.5471617"><ele>903.0</ele><time>2026-04-26T11:57:07.295Z</time></trkpt><trkpt lat="42.8424283" lon="11.5472333"><ele>903.0</ele><time>2026-04-26T11:57:08.295Z</time></trkpt><trkpt lat="42.8425" lon="11.5472967"><ele>903.0</ele><time>2026-04-26T11:57:09.295Z</time></trkpt><trkpt lat="42.84259" lon="11.5473467"><ele>903.0</ele><time>2026-04-26T11:57:10.296Z</time></trkpt><trkpt lat="42.842685" lon="11.5473883"><ele>903.0</ele><time>2026-04-26T11:57:11.295Z</time></trkpt><trkpt lat="42.8427833" lon="11.5474217"><ele>903.0</ele><time>2026-04-26T11:57:12.296Z</time></trkpt><trkpt lat="42.8428667" lon="11.5474533"><ele>902.6666666666666</ele><time>2026-04-26T11:57:13.296Z</time></trkpt><trkpt lat="42.842945" lon="11.54747"><ele>902.3333333333333</ele><time>2026-04-26T11:57:14.296Z</time></trkpt><trkpt lat="42.84302" lon="11.5474667"><ele>902.0</ele><time>2026-04-26T11:57:15.296Z</time></trkpt><trkpt lat="42.8430983" lon="11.547445"><ele>901.6666666666666</ele><time>2026-04-26T11:57:16.295Z</time></trkpt><trkpt lat="42.84318" lon="11.5474117"><ele>901.3333333333333</ele><time>2026-04-26T11:57:17.296Z</time></trkpt><trkpt lat="42.8432667" lon="11.54736"><ele>901.0</ele><time>2026-04-26T11:57:18.293Z</time></trkpt><trkpt lat="42.8433467" lon="11.54731"><ele>900.9999999999999</ele><time>2026-04-26T11:57:19.296Z</time></trkpt><trkpt lat="42.8434183" lon="11.5472733"><ele>901.0</ele><time>2026-04-26T11:57:20.296Z</time></trkpt><trkpt lat="42.8434883" lon="11.54726"><ele>901.0</ele><time>2026-04-26T11:57:21.293Z</time></trkpt><trkpt lat="42.84356" lon="11.5472683"><ele>901.0</ele><time>2026-04-26T11:57:22.296Z</time></trkpt><trkpt lat="42.8436333" lon="11.547285"><ele>900.9999999999999</ele><time>2026-04-26T11:57:23.295Z</time></trkpt><trkpt lat="42.84371" lon="11.5473217"><ele>901.0</ele><time>2026-04-26T11:57:24.296Z</time></trkpt><trkpt lat="42.8438" lon="11.54738"><ele>900.8</ele><time>2026-04-26T11:57:25.296Z</time></trkpt><trkpt lat="42.8438917" lon="11.5474483"><ele>900.5999999999999</ele><time>2026-04-26T11:57:26.297Z</time></trkpt><trkpt lat="42.8439783" lon="11.5475017"><ele>900.4</ele><time>2026-04-26T11:57:27.295Z</time></trkpt><trkpt lat="42.84406" lon="11.5475233"><ele>900.2</ele><time>2026-04-26T11:57:28.296Z</time></trkpt><trkpt lat="42.84414" lon="11.5475217"><ele>900.0</ele><time>2026-04-26T11:57:29.295Z</time></trkpt><trkpt lat="42.844225" lon="11.54749"><ele>898.8</ele><time>2026-04-26T11:57:30.295Z</time></trkpt><trkpt lat="42.844315" lon="11.54743"><ele>897.6</ele><time>2026-04-26T11:57:31.296Z</time></trkpt><trkpt lat="42.84441" lon="11.54737"><ele>896.4000000000001</ele><time>2026-04-26T11:57:32.295Z</time></trkpt><trkpt lat="42.8444983" lon="11.5473333"><ele>895.2</ele><time>2026-04-26T11:57:33.296Z</time></trkpt><trkpt lat="42.8445817" lon="11.5473017"><ele>894.0</ele><time>2026-04-26T11:57:34.297Z</time></trkpt><trkpt lat="42.84466" lon="11.5472517"><ele>894.0</ele><time>2026-04-26T11:57:35.296Z</time></trkpt><trkpt lat="42.8447283" lon="11.5471833"><ele>894.0000000000001</ele><time>2026-04-26T11:57:36.296Z</time></trkpt><trkpt lat="42.8447917" lon="11.5470833"><ele>894.0000000000001</ele><time>2026-04-26T11:57:37.295Z</time></trkpt><trkpt lat="42.8448483" lon="11.5469483"><ele>894.0</ele><time>2026-04-26T11:57:38.295Z</time></trkpt><trkpt lat="42.8449033" lon="11.5468117"><ele>894.0</ele><time>2026-04-26T11:57:39.296Z</time></trkpt><trkpt lat="42.8449617" lon="11.54669"><ele>894.2</ele><time>2026-04-26T11:57:40.295Z</time></trkpt><trkpt lat="42.8450267" lon="11.5465917"><ele>894.4000000000001</ele><time>2026-04-26T11:57:41.296Z</time></trkpt><trkpt lat="42.8450967" lon="11.5465183"><ele>894.6</ele><time>2026-04-26T11:57:42.297Z</time></trkpt><trkpt lat="42.8451883" lon="11.5464533"><ele>894.8</ele><time>2026-04-26T11:57:43.295Z</time></trkpt><trkpt lat="42.84529" lon="11.5463817"><ele>895.0</ele><time>2026-04-26T11:57:44.296Z</time></trkpt><trkpt lat="42.8454017" lon="11.5463117"><ele>895.0</ele><time>2026-04-26T11:57:45.296Z</time></trkpt><trkpt lat="42.8455183" lon="11.546245"><ele>895.0</ele><time>2026-04-26T11:57:46.296Z</time></trkpt><trkpt lat="42.8456317" lon="11.5461867"><ele>895.0</ele><time>2026-04-26T11:57:47.292Z</time></trkpt><trkpt lat="42.84574" lon="11.54614"><ele>895.0</ele><time>2026-04-26T11:57:48.293Z</time></trkpt><trkpt lat="42.845845" lon="11.5460967"><ele>895.0</ele><time>2026-04-26T11:57:49.292Z</time></trkpt><trkpt lat="42.84595" lon="11.5460483"><ele>895.0</ele><time>2026-04-26T11:57:50.293Z</time></trkpt><trkpt lat="42.8460483" lon="11.5459967"><ele>895.0</ele><time>2026-04-26T11:57:51.292Z</time></trkpt><trkpt lat="42.8461383" lon="11.5459367"><ele>895.0</ele><time>2026-04-26T11:57:52.292Z</time></trkpt><trkpt lat="42.84622" lon="11.5458767"><ele>895.0</ele><time>2026-04-26T11:57:53.296Z</time></trkpt><trkpt lat="42.84629" lon="11.5458183"><ele>894.7142857142857</ele><time>2026-04-26T11:57:54.296Z</time></trkpt><trkpt lat="42.846355" lon="11.5457617"><ele>894.4285714285714</ele><time>2026-04-26T11:57:55.296Z</time></trkpt><trkpt lat="42.84641" lon="11.545705"><ele>894.1428571428571</ele><time>2026-04-26T11:57:56.298Z</time></trkpt><trkpt lat="42.846465" lon="11.545645"><ele>893.8571428571429</ele><time>2026-04-26T11:57:57.297Z</time></trkpt><trkpt lat="42.84653" lon="11.545585"><ele>893.5714285714287</ele><time>2026-04-26T11:57:58.296Z</time></trkpt><trkpt lat="42.8465967" lon="11.5455333"><ele>893.2857142857143</ele><time>2026-04-26T11:57:59.296Z</time></trkpt><trkpt lat="42.8466633" lon="11.545485"><ele>893.0</ele><time>2026-04-26T11:58:00.296Z</time></trkpt><trkpt lat="42.8467367" lon="11.545445"><ele>893.8333333333334</ele><time>2026-04-26T11:58:01.296Z</time></trkpt><trkpt lat="42.8468167" lon="11.54542"><ele>894.6666666666667</ele><time>2026-04-26T11:58:02.292Z</time></trkpt><trkpt lat="42.8469" lon="11.5454167"><ele>895.5</ele><time>2026-04-26T11:58:03.298Z</time></trkpt><trkpt lat="42.84698" lon="11.5454317"><ele>896.3333333333333</ele><time>2026-04-26T11:58:04.297Z</time></trkpt><trkpt lat="42.8470533" lon="11.54547"><ele>897.1666666666666</ele><time>2026-04-26T11:58:05.296Z</time></trkpt><trkpt lat="42.847115" lon="11.5455383"><ele>898.0</ele><time>2026-04-26T11:58:06.296Z</time></trkpt><trkpt lat="42.8471667" lon="11.5456183"><ele>898.0</ele><time>2026-04-26T11:58:07.296Z</time></trkpt><trkpt lat="42.84722" lon="11.5457083"><ele>898.0</ele><time>2026-04-26T11:58:08.295Z</time></trkpt><trkpt lat="42.8472817" lon="11.5457933"><ele>898.0</ele><time>2026-04-26T11:58:09.296Z</time></trkpt><trkpt lat="42.84735" lon="11.5458767"><ele>898.0</ele><time>2026-04-26T11:58:10.296Z</time></trkpt><trkpt lat="42.8474217" lon="11.5459583"><ele>898.0</ele><time>2026-04-26T11:58:11.296Z</time></trkpt><trkpt lat="42.8474967" lon="11.5460417"><ele>898.0</ele><time>2026-04-26T11:58:12.295Z</time></trkpt><trkpt lat="42.8475767" lon="11.5461267"><ele>898.0</ele><time>2026-04-26T11:58:13.296Z</time></trkpt><trkpt lat="42.8476633" lon="11.546215"><ele>898.0</ele><time>2026-04-26T11:58:14.297Z</time></trkpt><trkpt lat="42.84775" lon="11.5463117"><ele>898.0</ele><time>2026-04-26T11:58:15.292Z</time></trkpt><trkpt lat="42.8478383" lon="11.5464117"><ele>898.0</ele><time>2026-04-26T11:58:16.296Z</time></trkpt><trkpt lat="42.847925" lon="11.546515"><ele>898.0</ele><time>2026-04-26T11:58:17.295Z</time></trkpt><trkpt lat="42.848005" lon="11.5466267"><ele>898.0</ele><time>2026-04-26T11:58:18.293Z</time></trkpt><trkpt lat="42.84808" lon="11.5467383"><ele>898.0</ele><time>2026-04-26T11:58:19.294Z</time></trkpt><trkpt lat="42.8481517" lon="11.5468533"><ele>898.0</ele><time>2026-04-26T11:58:20.296Z</time></trkpt><trkpt lat="42.8482217" lon="11.54696"><ele>898.0</ele><time>2026-04-26T11:58:21.297Z</time></trkpt><trkpt lat="42.8482867" lon="11.54706"><ele>897.9999999999999</ele><time>2026-04-26T11:58:22.294Z</time></trkpt><trkpt lat="42.8483467" lon="11.5471467"><ele>898.0</ele><time>2026-04-26T11:58:23.296Z</time></trkpt><trkpt lat="42.848405" lon="11.5472217"><ele>898.0</ele><time>2026-04-26T11:58:24.294Z</time></trkpt><trkpt lat="42.84847" lon="11.5472767"><ele>898.0</ele><time>2026-04-26T11:58:25.293Z</time></trkpt><trkpt lat="42.8485433" lon="11.5473167"><ele>897.9999999999999</ele><time>2026-04-26T11:58:26.295Z</time></trkpt><trkpt lat="42.84863" lon="11.54734"><ele>898.0</ele><time>2026-04-26T11:58:27.294Z</time></trkpt><trkpt lat="42.84873" lon="11.5473467"><ele>897.75</ele><time>2026-04-26T11:58:28.294Z</time></trkpt><trkpt lat="42.8488417" lon="11.5473317"><ele>897.5</ele><time>2026-04-26T11:58:29.297Z</time></trkpt><trkpt lat="42.8489567" lon="11.5473"><ele>897.25</ele><time>2026-04-26T11:58:30.295Z</time></trkpt><trkpt lat="42.8490733" lon="11.5472717"><ele>897.0</ele><time>2026-04-26T11:58:31.296Z</time></trkpt><trkpt lat="42.8491917" lon="11.5472533"><ele>896.4000000000001</ele><time>2026-04-26T11:58:32.296Z</time></trkpt><trkpt lat="42.8493067" lon="11.5472483"><ele>895.8000000000001</ele><time>2026-04-26T11:58:33.296Z</time></trkpt><trkpt lat="42.8494183" lon="11.5472467"><ele>895.2</ele><time>2026-04-26T11:58:34.297Z</time></trkpt><trkpt lat="42.849525" lon="11.5472467"><ele>894.6</ele><time>2026-04-26T11:58:35.297Z</time></trkpt><trkpt lat="42.8496267" lon="11.5472467"><ele>894.0</ele><time>2026-04-26T11:58:36.296Z</time></trkpt><trkpt lat="42.8497217" lon="11.547245"><ele>894.0</ele><time>2026-04-26T11:58:37.296Z</time></trkpt><trkpt lat="42.849815" lon="11.54726"><ele>894.0</ele><time>2026-04-26T11:58:38.297Z</time></trkpt><trkpt lat="42.8498967" lon="11.5473"><ele>894.0</ele><time>2026-04-26T11:58:39.295Z</time></trkpt><trkpt lat="42.8499717" lon="11.5473683"><ele>894.0</ele><time>2026-04-26T11:58:40.297Z</time></trkpt><trkpt lat="42.8500267" lon="11.54746"><ele>894.0</ele><time>2026-04-26T11:58:41.296Z</time></trkpt><trkpt lat="42.8500767" lon="11.5475517"><ele>894.0</ele><time>2026-04-26T11:58:42.296Z</time></trkpt><trkpt lat="42.8501267" lon="11.5476333"><ele>893.1428571428571</ele><time>2026-04-26T11:58:43.296Z</time></trkpt><trkpt lat="42.8501817" lon="11.5477"><ele>892.2857142857142</ele><time>2026-04-26T11:58:44.295Z</time></trkpt><trkpt lat="42.8502417" lon="11.547735"><ele>891.4285714285713</ele><time>2026-04-26T11:58:45.296Z</time></trkpt><trkpt lat="42.85031" lon="11.5477417"><ele>890.5714285714286</ele><time>2026-04-26T11:58:46.297Z</time></trkpt><trkpt lat="42.850385" lon="11.5477133"><ele>889.7142857142858</ele><time>2026-04-26T11:58:47.293Z</time></trkpt><trkpt lat="42.85046" lon="11.5476583"><ele>888.8571428571428</ele><time>2026-04-26T11:58:48.292Z</time></trkpt><trkpt lat="42.8505317" lon="11.547615"><ele>888.0</ele><time>2026-04-26T11:58:49.294Z</time></trkpt><trkpt lat="42.8506017" lon="11.5475933"><ele>888.0</ele><time>2026-04-26T11:58:50.303Z</time></trkpt><trkpt lat="42.8506733" lon="11.5476"><ele>888.0</ele><time>2026-04-26T11:58:51.294Z</time></trkpt><trkpt lat="42.8507367" lon="11.547655"><ele>888.0</ele><time>2026-04-26T11:58:52.294Z</time></trkpt><trkpt lat="42.85079" lon="11.547745"><ele>888.0</ele><time>2026-04-26T11:58:53.293Z</time></trkpt><trkpt lat="42.8508283" lon="11.5478583"><ele>888.0</ele><time>2026-04-26T11:58:54.295Z</time></trkpt><trkpt lat="42.850855" lon="11.5479817"><ele>888.0</ele><time>2026-04-26T11:58:55.296Z</time></trkpt><trkpt lat="42.8508917" lon="11.5480883"><ele>886.8</ele><time>2026-04-26T11:58:56.296Z</time></trkpt><trkpt lat="42.850945" lon="11.5481817"><ele>885.5999999999999</ele><time>2026-04-26T11:58:57.296Z</time></trkpt><trkpt lat="42.85101" lon="11.5482683"><ele>884.4000000000001</ele><time>2026-04-26T11:58:58.299Z</time></trkpt><trkpt lat="42.8510967" lon="11.548345"><ele>883.2</ele><time>2026-04-26T11:58:59.294Z</time></trkpt><trkpt lat="42.85119" lon="11.5484167"><ele>882.0</ele><time>2026-04-26T11:59:00.297Z</time></trkpt><trkpt lat="42.8512767" lon="11.54849"><ele>882.0</ele><time>2026-04-26T11:59:01.297Z</time></trkpt><trkpt lat="42.8513567" lon="11.5485783"><ele>882.0</ele><time>2026-04-26T11:59:02.296Z</time></trkpt><trkpt lat="42.8514183" lon="11.5486833"><ele>882.0</ele><time>2026-04-26T11:59:03.295Z</time></trkpt><trkpt lat="42.8514667" lon="11.5487983"><ele>882.0</ele><time>2026-04-26T11:59:04.293Z</time></trkpt><trkpt lat="42.8514933" lon="11.548925"><ele>882.0</ele><time>2026-04-26T11:59:05.297Z</time></trkpt><trkpt lat="42.8515067" lon="11.5490567"><ele>882.0</ele><time>2026-04-26T11:59:06.296Z</time></trkpt><trkpt lat="42.8515117" lon="11.5491983"><ele>882.0</ele><time>2026-04-26T11:59:07.296Z</time></trkpt><trkpt lat="42.8515183" lon="11.549345"><ele>882.0</ele><time>2026-04-26T11:59:08.297Z</time></trkpt><trkpt lat="42.8515283" lon="11.549475"><ele>882.0</ele><time>2026-04-26T11:59:09.296Z</time></trkpt><trkpt lat="42.8515467" lon="11.5496033"><ele>882.0</ele><time>2026-04-26T11:59:10.295Z</time></trkpt><trkpt lat="42.8515717" lon="11.5497333"><ele>881.75</ele><time>2026-04-26T11:59:11.296Z</time></trkpt><trkpt lat="42.8516083" lon="11.54987"><ele>881.5</ele><time>2026-04-26T11:59:12.296Z</time></trkpt><trkpt lat="42.8516517" lon="11.5500217"><ele>881.25</ele><time>2026-04-26T11:59:13.296Z</time></trkpt><trkpt lat="42.8517067" lon="11.550195"><ele>881.0</ele><time>2026-04-26T11:59:14.296Z</time></trkpt><trkpt lat="42.85176" lon="11.5503833"><ele>877.0</ele><time>2026-04-26T11:59:15.297Z</time></trkpt><trkpt lat="42.851805" lon="11.55057"><ele>873.0</ele><time>2026-04-26T11:59:16.294Z</time></trkpt><trkpt lat="42.8518417" lon="11.5507533"><ele>869.0</ele><time>2026-04-26T11:59:17.295Z</time></trkpt><trkpt lat="42.8518733" lon="11.5509333"><ele>865.0</ele><time>2026-04-26T11:59:18.296Z</time></trkpt><trkpt lat="42.8519017" lon="11.5511"><ele>865.2</ele><time>2026-04-26T11:59:19.297Z</time></trkpt><trkpt lat="42.8519283" lon="11.55124"><ele>865.4</ele><time>2026-04-26T11:59:20.295Z</time></trkpt><trkpt lat="42.8519567" lon="11.5513483"><ele>865.5999999999999</ele><time>2026-04-26T11:59:21.294Z</time></trkpt><trkpt lat="42.851995" lon="11.5514333"><ele>865.8</ele><time>2026-04-26T11:59:22.295Z</time></trkpt><trkpt lat="42.85209" lon="11.5515067"><ele>866.0</ele><time>2026-04-26T11:59:24.298Z</time></trkpt><trkpt lat="42.8521783" lon="11.5514667"><ele>866.0</ele><time>2026-04-26T11:59:26.296Z</time></trkpt><trkpt lat="42.8522117" lon="11.5513467"><ele>865.9999999999999</ele><time>2026-04-26T11:59:27.297Z</time></trkpt><trkpt lat="42.8522533" lon="11.5512233"><ele>865.9999999999999</ele><time>2026-04-26T11:59:28.292Z</time></trkpt><trkpt lat="42.8523" lon="11.5511133"><ele>866.0</ele><time>2026-04-26T11:59:29.294Z</time></trkpt><trkpt lat="42.8523583" lon="11.5509833"><ele>866.0</ele><time>2026-04-26T11:59:30.293Z</time></trkpt><trkpt lat="42.852415" lon="11.5508633"><ele>865.8</ele><time>2026-04-26T11:59:31.293Z</time></trkpt><trkpt lat="42.85246" lon="11.55074"><ele>865.5999999999999</ele><time>2026-04-26T11:59:32.293Z</time></trkpt><trkpt lat="42.8524967" lon="11.5506183"><ele>865.4</ele><time>2026-04-26T11:59:33.293Z</time></trkpt><trkpt lat="42.8525267" lon="11.55049"><ele>865.2</ele><time>2026-04-26T11:59:34.293Z</time></trkpt><trkpt lat="42.85255" lon="11.550355"><ele>865.0</ele><time>2026-04-26T11:59:35.293Z</time></trkpt><trkpt lat="42.85256" lon="11.550215"><ele>864.8</ele><time>2026-04-26T11:59:36.294Z</time></trkpt><trkpt lat="42.8525717" lon="11.5500633"><ele>864.6</ele><time>2026-04-26T11:59:37.296Z</time></trkpt><trkpt lat="42.8525933" lon="11.5499233"><ele>864.4000000000001</ele><time>2026-04-26T11:59:38.296Z</time></trkpt><trkpt lat="42.8526283" lon="11.5498017"><ele>864.2</ele><time>2026-04-26T11:59:39.294Z</time></trkpt><trkpt lat="42.852675" lon="11.549685"><ele>864.0</ele><time>2026-04-26T11:59:40.292Z</time></trkpt><trkpt lat="42.8527333" lon="11.549575"><ele>858.25</ele><time>2026-04-26T11:59:41.292Z</time></trkpt><trkpt lat="42.8527983" lon="11.5494583"><ele>852.5</ele><time>2026-04-26T11:59:42.293Z</time></trkpt><trkpt lat="42.8528633" lon="11.549335"><ele>846.75</ele><time>2026-04-26T11:59:43.294Z</time></trkpt><trkpt lat="42.8529367" lon="11.5492083"><ele>841.0</ele><time>2026-04-26T11:59:44.294Z</time></trkpt><trkpt lat="42.853015" lon="11.5490833"><ele>840.9999999999999</ele><time>2026-04-26T11:59:45.294Z</time></trkpt><trkpt lat="42.8530917" lon="11.5489717"><ele>841.0</ele><time>2026-04-26T11:59:46.294Z</time></trkpt><trkpt lat="42.8531567" lon="11.5488817"><ele>841.0</ele><time>2026-04-26T11:59:47.293Z</time></trkpt><trkpt lat="42.8532333" lon="11.5488233"><ele>841.0</ele><time>2026-04-26T11:59:48.293Z</time></trkpt><trkpt lat="42.8533017" lon="11.5488067"><ele>840.9999999999999</ele><time>2026-04-26T11:59:49.294Z</time></trkpt><trkpt lat="42.85338" lon="11.548835"><ele>841.0</ele><time>2026-04-26T11:59:50.296Z</time></trkpt><trkpt lat="42.853435" lon="11.5489"><ele>837.1999999999999</ele><time>2026-04-26T11:59:51.296Z</time></trkpt><trkpt lat="42.8534833" lon="11.5490017"><ele>833.4</ele><time>2026-04-26T11:59:52.292Z</time></trkpt><trkpt lat="42.8535233" lon="11.5490967"><ele>829.6</ele><time>2026-04-26T11:59:53.296Z</time></trkpt><trkpt lat="42.8535467" lon="11.5492133"><ele>825.8</ele><time>2026-04-26T11:59:54.297Z</time></trkpt><trkpt lat="42.853535" lon="11.5493617"><ele>822.0</ele><time>2026-04-26T11:59:55.299Z</time></trkpt><trkpt lat="42.8535283" lon="11.5495033"><ele>821.6</ele><time>2026-04-26T11:59:56.296Z</time></trkpt><trkpt lat="42.8535283" lon="11.549645"><ele>821.2</ele><time>2026-04-26T11:59:57.293Z</time></trkpt><trkpt lat="42.8535383" lon="11.5497933"><ele>820.8</ele><time>2026-04-26T11:59:58.293Z</time></trkpt><trkpt lat="42.8535633" lon="11.5499367"><ele>820.4</ele><time>2026-04-26T11:59:59.295Z</time></trkpt><trkpt lat="42.8535883" lon="11.5500767"><ele>820.0</ele><time>2026-04-26T12:00:00.292Z</time></trkpt><trkpt lat="42.8536233" lon="11.5501967"><ele>820.0</ele><time>2026-04-26T12:00:01.293Z</time></trkpt><trkpt lat="42.85365" lon="11.5503133"><ele>820.0</ele><time>2026-04-26T12:00:02.293Z</time></trkpt><trkpt lat="42.85367" lon="11.55044"><ele>820.0</ele><time>2026-04-26T12:00:03.292Z</time></trkpt><trkpt lat="42.85367" lon="11.55057"><ele>820.0</ele><time>2026-04-26T12:00:04.294Z</time></trkpt><trkpt lat="42.8536533" lon="11.5507083"><ele>820.0</ele><time>2026-04-26T12:00:05.293Z</time></trkpt><trkpt lat="42.8536333" lon="11.5508583"><ele>820.75</ele><time>2026-04-26T12:00:06.294Z</time></trkpt><trkpt lat="42.853615" lon="11.551015"><ele>821.5</ele><time>2026-04-26T12:00:07.293Z</time></trkpt><trkpt lat="42.8536017" lon="11.5511733"><ele>822.25</ele><time>2026-04-26T12:00:08.293Z</time></trkpt><trkpt lat="42.8535883" lon="11.5513317"><ele>823.0</ele><time>2026-04-26T12:00:09.293Z</time></trkpt><trkpt lat="42.8535817" lon="11.551485"><ele>823.4</ele><time>2026-04-26T12:00:10.293Z</time></trkpt><trkpt lat="42.85358" lon="11.55163"><ele>823.8</ele><time>2026-04-26T12:00:11.293Z</time></trkpt><trkpt lat="42.8535967" lon="11.551765"><ele>824.2</ele><time>2026-04-26T12:00:12.294Z</time></trkpt><trkpt lat="42.85362" lon="11.5518883"><ele>824.6</ele><time>2026-04-26T12:00:13.297Z</time></trkpt><trkpt lat="42.8536517" lon="11.5520083"><ele>825.0</ele><time>2026-04-26T12:00:14.298Z</time></trkpt><trkpt lat="42.853685" lon="11.5521267"><ele>825.8</ele><time>2026-04-26T12:00:15.297Z</time></trkpt><trkpt lat="42.8537233" lon="11.5522417"><ele>826.6</ele><time>2026-04-26T12:00:16.295Z</time></trkpt><trkpt lat="42.8537583" lon="11.5523517"><ele>827.4000000000001</ele><time>2026-04-26T12:00:17.296Z</time></trkpt><trkpt lat="42.8538033" lon="11.5524617"><ele>828.2</ele><time>2026-04-26T12:00:18.294Z</time></trkpt><trkpt lat="42.8538633" lon="11.552565"><ele>829.0</ele><time>2026-04-26T12:00:19.295Z</time></trkpt><trkpt lat="42.8539217" lon="11.552665"><ele>829.0</ele><time>2026-04-26T12:00:20.295Z</time></trkpt><trkpt lat="42.854" lon="11.5527617"><ele>829.0</ele><time>2026-04-26T12:00:21.294Z</time></trkpt><trkpt lat="42.8540933" lon="11.55285"><ele>829.0</ele><time>2026-04-26T12:00:22.295Z</time></trkpt><trkpt lat="42.8541883" lon="11.5529167"><ele>829.0</ele><time>2026-04-26T12:00:23.293Z</time></trkpt><trkpt lat="42.8542817" lon="11.552965"><ele>829.0</ele><time>2026-04-26T12:00:24.295Z</time></trkpt><trkpt lat="42.854375" lon="11.552995"><ele>828.0</ele><time>2026-04-26T12:00:25.295Z</time></trkpt><trkpt lat="42.85447" lon="11.5530183"><ele>827.0</ele><time>2026-04-26T12:00:26.295Z</time></trkpt><trkpt lat="42.8545617" lon="11.5530533"><ele>826.0</ele><time>2026-04-26T12:00:27.294Z</time></trkpt><trkpt lat="42.85465" lon="11.5530983"><ele>825.0</ele><time>2026-04-26T12:00:28.295Z</time></trkpt><trkpt lat="42.854735" lon="11.55315"><ele>824.0</ele><time>2026-04-26T12:00:29.295Z</time></trkpt><trkpt lat="42.8548117" lon="11.5532083"><ele>824.0000000000001</ele><time>2026-04-26T12:00:30.295Z</time></trkpt><trkpt lat="42.8548917" lon="11.5532633"><ele>824.0</ele><time>2026-04-26T12:00:31.296Z</time></trkpt><trkpt lat="42.8549633" lon="11.553315"><ele>824.0</ele><time>2026-04-26T12:00:32.295Z</time></trkpt><trkpt lat="42.8550367" lon="11.5533683"><ele>824.0</ele><time>2026-04-26T12:00:33.295Z</time></trkpt><trkpt lat="42.8551067" lon="11.5534217"><ele>824.0000000000001</ele><time>2026-04-26T12:00:34.295Z</time></trkpt><trkpt lat="42.8551683" lon="11.5534767"><ele>824.0</ele><time>2026-04-26T12:00:35.294Z</time></trkpt><trkpt lat="42.8552217" lon="11.5535317"><ele>823.5000000000001</ele><time>2026-04-26T12:00:36.296Z</time></trkpt><trkpt lat="42.8552883" lon="11.5536017"><ele>823.0</ele><time>2026-04-26T12:00:38.296Z</time></trkpt><trkpt lat="42.8553583" lon="11.5536283"><ele>822.5</ele><time>2026-04-26T12:01:15.293Z</time></trkpt><trkpt lat="42.8554783" lon="11.5535933"><ele>822.0</ele><time>2026-04-26T12:01:17.292Z</time></trkpt><trkpt lat="42.8555567" lon="11.5535633"><ele>821.5000000000001</ele><time>2026-04-26T12:01:18.292Z</time></trkpt><trkpt lat="42.85564" lon="11.5535317"><ele>821.0</ele><time>2026-04-26T12:01:19.292Z</time></trkpt><trkpt lat="42.8557417" lon="11.553495"><ele>821.0</ele><time>2026-04-26T12:01:20.293Z</time></trkpt><trkpt lat="42.8558617" lon="11.5534133"><ele>821.0</ele><time>2026-04-26T12:01:21.294Z</time></trkpt><trkpt lat="42.8559817" lon="11.55331"><ele>821.0</ele><time>2026-04-26T12:01:22.292Z</time></trkpt><trkpt lat="42.856095" lon="11.5531767"><ele>821.0</ele><time>2026-04-26T12:01:23.293Z</time></trkpt><trkpt lat="42.8562" lon="11.5530333"><ele>822.0</ele><time>2026-04-26T12:01:24.296Z</time></trkpt><trkpt lat="42.8563017" lon="11.5528817"><ele>823.0</ele><time>2026-04-26T12:01:25.293Z</time></trkpt><trkpt lat="42.85641" lon="11.5527333"><ele>824.0</ele><time>2026-04-26T12:01:26.295Z</time></trkpt><trkpt lat="42.8565267" lon="11.5525983"><ele>820.3333333333334</ele><time>2026-04-26T12:01:27.296Z</time></trkpt><trkpt lat="42.8566567" lon="11.5524783"><ele>816.6666666666667</ele><time>2026-04-26T12:01:28.293Z</time></trkpt><trkpt lat="42.8568" lon="11.5523783"><ele>813.0</ele><time>2026-04-26T12:01:29.293Z</time></trkpt><trkpt lat="42.856955" lon="11.552295"><ele>813.0</ele><time>2026-04-26T12:01:30.293Z</time></trkpt><trkpt lat="42.85712" lon="11.552235"><ele>813.0</ele><time>2026-04-26T12:01:31.294Z</time></trkpt><trkpt lat="42.85729" lon="11.5521883"><ele>813.0</ele><time>2026-04-26T12:01:32.294Z</time></trkpt><trkpt lat="42.85746" lon="11.5521433"><ele>816.0</ele><time>2026-04-26T12:01:33.293Z</time></trkpt><trkpt lat="42.8576333" lon="11.5520833"><ele>819.0</ele><time>2026-04-26T12:01:34.294Z</time></trkpt><trkpt lat="42.8578033" lon="11.552"><ele>822.0</ele><time>2026-04-26T12:01:35.294Z</time></trkpt><trkpt lat="42.8579667" lon="11.551885"><ele>812.3333333333333</ele><time>2026-04-26T12:01:36.295Z</time></trkpt><trkpt lat="42.858115" lon="11.55174"><ele>802.6666666666666</ele><time>2026-04-26T12:01:37.294Z</time></trkpt><trkpt lat="42.8582533" lon="11.5515833"><ele>793.0</ele><time>2026-04-26T12:01:38.294Z</time></trkpt><trkpt lat="42.858385" lon="11.55142"><ele>795.0</ele><time>2026-04-26T12:01:39.295Z</time></trkpt><trkpt lat="42.8585167" lon="11.5512667"><ele>797.0</ele><time>2026-04-26T12:01:40.293Z</time></trkpt><trkpt lat="42.858655" lon="11.5511333"><ele>799.0</ele><time>2026-04-26T12:01:41.296Z</time></trkpt><trkpt lat="42.8588017" lon="11.551025"><ele>791.3333333333333</ele><time>2026-04-26T12:01:42.293Z</time></trkpt><trkpt lat="42.8589533" lon="11.5509383"><ele>783.6666666666667</ele><time>2026-04-26T12:01:43.293Z</time></trkpt><trkpt lat="42.8591133" lon="11.5508767"><ele>776.0</ele><time>2026-04-26T12:01:44.296Z</time></trkpt><trkpt lat="42.8592733" lon="11.5508317"><ele>779.3333333333334</ele><time>2026-04-26T12:01:45.294Z</time></trkpt><trkpt lat="42.8594367" lon="11.5508033"><ele>782.6666666666667</ele><time>2026-04-26T12:01:46.296Z</time></trkpt><trkpt lat="42.8595967" lon="11.5507733"><ele>786.0</ele><time>2026-04-26T12:01:47.296Z</time></trkpt><trkpt lat="42.8597567" lon="11.5507417"><ele>786.0</ele><time>2026-04-26T12:01:48.298Z</time></trkpt><trkpt lat="42.859915" lon="11.5507017"><ele>786.0</ele><time>2026-04-26T12:01:49.296Z</time></trkpt><trkpt lat="42.86007" lon="11.5506533"><ele>786.0</ele><time>2026-04-26T12:01:50.295Z</time></trkpt><trkpt lat="42.8602267" lon="11.5505917"><ele>790.0</ele><time>2026-04-26T12:01:51.297Z</time></trkpt><trkpt lat="42.86038" lon="11.5505117"><ele>794.0</ele><time>2026-04-26T12:01:52.297Z</time></trkpt><trkpt lat="42.8605283" lon="11.5504133"><ele>798.0</ele><time>2026-04-26T12:01:53.295Z</time></trkpt><trkpt lat="42.8606667" lon="11.5503033"><ele>790.6666666666667</ele><time>2026-04-26T12:01:54.296Z</time></trkpt><trkpt lat="42.8607983" lon="11.5501883"><ele>783.3333333333334</ele><time>2026-04-26T12:01:55.296Z</time></trkpt><trkpt lat="42.86093" lon="11.5500817"><ele>776.0</ele><time>2026-04-26T12:01:56.292Z</time></trkpt><trkpt lat="42.8610617" lon="11.54998"><ele>776.0</ele><time>2026-04-26T12:01:57.294Z</time></trkpt><trkpt lat="42.8611933" lon="11.5498867"><ele>776.0</ele><time>2026-04-26T12:01:58.293Z</time></trkpt><trkpt lat="42.8613333" lon="11.5498083"><ele>776.0</ele><time>2026-04-26T12:01:59.294Z</time></trkpt><trkpt lat="42.861475" lon="11.5497417"><ele>776.0</ele><time>2026-04-26T12:02:00.295Z</time></trkpt><trkpt lat="42.86162" lon="11.549685"><ele>776.0</ele><time>2026-04-26T12:02:01.293Z</time></trkpt><trkpt lat="42.861765" lon="11.5496433"><ele>776.0</ele><time>2026-04-26T12:02:02.294Z</time></trkpt><trkpt lat="42.8619083" lon="11.5496133"><ele>776.0</ele><time>2026-04-26T12:02:03.293Z</time></trkpt><trkpt lat="42.86205" lon="11.5496017"><ele>776.0</ele><time>2026-04-26T12:02:04.293Z</time></trkpt><trkpt lat="42.8621933" lon="11.5496033"><ele>774.5</ele><time>2026-04-26T12:02:05.294Z</time></trkpt><trkpt lat="42.8623317" lon="11.5496167"><ele>773.0</ele><time>2026-04-26T12:02:06.293Z</time></trkpt><trkpt lat="42.86246" lon="11.5496333"><ele>771.5</ele><time>2026-04-26T12:02:07.294Z</time></trkpt><trkpt lat="42.8625767" lon="11.549655"><ele>770.0</ele><time>2026-04-26T12:02:08.293Z</time></trkpt><trkpt lat="42.8626767" lon="11.549665"><ele>769.1666666666667</ele><time>2026-04-26T12:02:09.294Z</time></trkpt><trkpt lat="42.8627567" lon="11.5496483"><ele>768.3333333333334</ele><time>2026-04-26T12:02:10.293Z</time></trkpt><trkpt lat="42.8628333" lon="11.5496083"><ele>767.5</ele><time>2026-04-26T12:02:11.295Z</time></trkpt><trkpt lat="42.862885" lon="11.54955"><ele>766.6666666666667</ele><time>2026-04-26T12:02:12.291Z</time></trkpt><trkpt lat="42.8628817" lon="11.5493933"><ele>765.8333333333334</ele><time>2026-04-26T12:02:14.293Z</time></trkpt><trkpt lat="42.8628383" lon="11.54932"><ele>765.0</ele><time>2026-04-26T12:02:15.296Z</time></trkpt><trkpt lat="42.862745" lon="11.5492567"><ele>757.6666666666666</ele><time>2026-04-26T12:02:16.295Z</time></trkpt><trkpt lat="42.8626083" lon="11.5492133"><ele>750.3333333333333</ele><time>2026-04-26T12:02:17.292Z</time></trkpt><trkpt lat="42.8624567" lon="11.5491583"><ele>743.0</ele><time>2026-04-26T12:02:18.293Z</time></trkpt><trkpt lat="42.8622417" lon="11.5490933"><ele>743.0</ele><time>2026-04-26T12:02:19.293Z</time></trkpt><trkpt lat="42.862045" lon="11.549045"><ele>743.0</ele><time>2026-04-26T12:02:20.295Z</time></trkpt><trkpt lat="42.86186" lon="11.549015"><ele>743.0</ele><time>2026-04-26T12:02:21.295Z</time></trkpt><trkpt lat="42.8616833" lon="11.5489933"><ele>743.0</ele><time>2026-04-26T12:02:22.295Z</time></trkpt><trkpt lat="42.8615183" lon="11.5489783"><ele>743.0</ele><time>2026-04-26T12:02:23.295Z</time></trkpt><trkpt lat="42.861375" lon="11.5489617"><ele>743.0</ele><time>2026-04-26T12:02:24.293Z</time></trkpt><trkpt lat="42.8612517" lon="11.5489283"><ele>743.0</ele><time>2026-04-26T12:02:25.293Z</time></trkpt><trkpt lat="42.8611467" lon="11.5488517"><ele>743.0</ele><time>2026-04-26T12:02:26.294Z</time></trkpt><trkpt lat="42.86106" lon="11.5487383"><ele>743.0</ele><time>2026-04-26T12:02:27.295Z</time></trkpt><trkpt lat="42.8610067" lon="11.548595"><ele>743.0</ele><time>2026-04-26T12:02:28.294Z</time></trkpt><trkpt lat="42.860985" lon="11.548425"><ele>743.0</ele><time>2026-04-26T12:02:29.294Z</time></trkpt><trkpt lat="42.86099" lon="11.54823"><ele>736.0</ele><time>2026-04-26T12:02:30.3Z</time></trkpt><trkpt lat="42.8610233" lon="11.548015"><ele>729.0</ele><time>2026-04-26T12:02:31.294Z</time></trkpt><trkpt lat="42.8610733" lon="11.5477883"><ele>722.0</ele><time>2026-04-26T12:02:32.293Z</time></trkpt><trkpt lat="42.8611383" lon="11.5475483"><ele>719.6666666666666</ele><time>2026-04-26T12:02:33.293Z</time></trkpt><trkpt lat="42.8612233" lon="11.5473017"><ele>717.3333333333334</ele><time>2026-04-26T12:02:34.293Z</time></trkpt><trkpt lat="42.861315" lon="11.5470567"><ele>715.0</ele><time>2026-04-26T12:02:35.293Z</time></trkpt><trkpt lat="42.861415" lon="11.54682"><ele>714.3333333333334</ele><time>2026-04-26T12:02:36.295Z</time></trkpt><trkpt lat="42.8615217" lon="11.546585"><ele>713.6666666666666</ele><time>2026-04-26T12:02:37.296Z</time></trkpt><trkpt lat="42.861625" lon="11.5463583"><ele>713.0</ele><time>2026-04-26T12:02:38.295Z</time></trkpt><trkpt lat="42.8617367" lon="11.5461367"><ele>708.0</ele><time>2026-04-26T12:02:39.293Z</time></trkpt><trkpt lat="42.861855" lon="11.54592"><ele>703.0</ele><time>2026-04-26T12:02:40.292Z</time></trkpt><trkpt lat="42.8619817" lon="11.545715"><ele>698.0</ele><time>2026-04-26T12:02:41.297Z</time></trkpt><trkpt lat="42.8621233" lon="11.5455317"><ele>700.0</ele><time>2026-04-26T12:02:42.296Z</time></trkpt><trkpt lat="42.8622867" lon="11.5453767"><ele>702.0</ele><time>2026-04-26T12:02:43.296Z</time></trkpt><trkpt lat="42.8624633" lon="11.5452517"><ele>704.0</ele><time>2026-04-26T12:02:44.295Z</time></trkpt><trkpt lat="42.8626517" lon="11.54516"><ele>704.0</ele><time>2026-04-26T12:02:45.297Z</time></trkpt><trkpt lat="42.8628517" lon="11.54511"><ele>704.0</ele><time>2026-04-26T12:02:46.295Z</time></trkpt><trkpt lat="42.8630583" lon="11.5451033"><ele>704.0</ele><time>2026-04-26T12:02:47.296Z</time></trkpt><trkpt lat="42.8632633" lon="11.5451183"><ele>703.3333333333333</ele><time>2026-04-26T12:02:48.296Z</time></trkpt><trkpt lat="42.8634733" lon="11.5451517"><ele>702.6666666666666</ele><time>2026-04-26T12:02:49.295Z</time></trkpt><trkpt lat="42.863685" lon="11.54518"><ele>702.0</ele><time>2026-04-26T12:02:50.295Z</time></trkpt><trkpt lat="42.8639" lon="11.5452017"><ele>702.0</ele><time>2026-04-26T12:02:51.295Z</time></trkpt><trkpt lat="42.86411" lon="11.5452083"><ele>702.0</ele><time>2026-04-26T12:02:52.296Z</time></trkpt><trkpt lat="42.8643083" lon="11.5451983"><ele>702.0</ele><time>2026-04-26T12:02:53.295Z</time></trkpt><trkpt lat="42.8644983" lon="11.5451817"><ele>702.3333333333334</ele><time>2026-04-26T12:02:54.292Z</time></trkpt><trkpt lat="42.8646833" lon="11.5451883"><ele>702.6666666666667</ele><time>2026-04-26T12:02:55.295Z</time></trkpt><trkpt lat="42.8648633" lon="11.5452283"><ele>703.0</ele><time>2026-04-26T12:02:56.293Z</time></trkpt><trkpt lat="42.8650417" lon="11.54529"><ele>705.3333333333334</ele><time>2026-04-26T12:02:57.293Z</time></trkpt><trkpt lat="42.86522" lon="11.5453533"><ele>707.6666666666666</ele><time>2026-04-26T12:02:58.294Z</time></trkpt><trkpt lat="42.8654" lon="11.5454067"><ele>710.0</ele><time>2026-04-26T12:02:59.293Z</time></trkpt><trkpt lat="42.8655883" lon="11.545425"><ele>708.6666666666666</ele><time>2026-04-26T12:03:00.292Z</time></trkpt><trkpt lat="42.865785" lon="11.5454167"><ele>707.3333333333334</ele><time>2026-04-26T12:03:01.293Z</time></trkpt><trkpt lat="42.8659917" lon="11.5453867"><ele>706.0</ele><time>2026-04-26T12:03:02.293Z</time></trkpt><trkpt lat="42.8661983" lon="11.5453533"><ele>706.0</ele><time>2026-04-26T12:03:03.293Z</time></trkpt><trkpt lat="42.8664067" lon="11.5453217"><ele>706.0</ele><time>2026-04-26T12:03:04.294Z</time></trkpt><trkpt lat="42.8666133" lon="11.54529"><ele>706.0</ele><time>2026-04-26T12:03:05.294Z</time></trkpt><trkpt lat="42.8668167" lon="11.54526"><ele>704.0</ele><time>2026-04-26T12:03:06.292Z</time></trkpt><trkpt lat="42.8670183" lon="11.5452333"><ele>702.0</ele><time>2026-04-26T12:03:07.297Z</time></trkpt><trkpt lat="42.8672167" lon="11.5452083"><ele>700.0</ele><time>2026-04-26T12:03:08.295Z</time></trkpt><trkpt lat="42.867405" lon="11.545185"><ele>700.0</ele><time>2026-04-26T12:03:09.295Z</time></trkpt><trkpt lat="42.867585" lon="11.5451633"><ele>700.0</ele><time>2026-04-26T12:03:10.295Z</time></trkpt><trkpt lat="42.86776" lon="11.5451517"><ele>700.0</ele><time>2026-04-26T12:03:11.296Z</time></trkpt><trkpt lat="42.8679267" lon="11.5451583"><ele>698.5</ele><time>2026-04-26T12:03:12.295Z</time></trkpt><trkpt lat="42.86808" lon="11.5451883"><ele>697.0</ele><time>2026-04-26T12:03:13.296Z</time></trkpt><trkpt lat="42.86822" lon="11.5452133"><ele>695.5</ele><time>2026-04-26T12:03:14.295Z</time></trkpt><trkpt lat="42.86835" lon="11.5452167"><ele>694.0</ele><time>2026-04-26T12:03:15.297Z</time></trkpt><trkpt lat="42.8684617" lon="11.54518"><ele>689.5</ele><time>2026-04-26T12:03:16.297Z</time></trkpt><trkpt lat="42.8685633" lon="11.5451033"><ele>685.0</ele><time>2026-04-26T12:03:17.296Z</time></trkpt><trkpt lat="42.8686567" lon="11.54498"><ele>680.5</ele><time>2026-04-26T12:03:18.293Z</time></trkpt><trkpt lat="42.8687483" lon="11.5448383"><ele>676.0</ele><time>2026-04-26T12:03:19.298Z</time></trkpt><trkpt lat="42.8688617" lon="11.5447167"><ele>676.0</ele><time>2026-04-26T12:03:20.293Z</time></trkpt><trkpt lat="42.868995" lon="11.5446233"><ele>676.0</ele><time>2026-04-26T12:03:21.295Z</time></trkpt><trkpt lat="42.8691317" lon="11.5445417"><ele>676.0</ele><time>2026-04-26T12:03:22.294Z</time></trkpt><trkpt lat="42.8692567" lon="11.54445"><ele>676.0</ele><time>2026-04-26T12:03:23.295Z</time></trkpt><trkpt lat="42.86936" lon="11.5443467"><ele>674.1999999999999</ele><time>2026-04-26T12:03:24.293Z</time></trkpt><trkpt lat="42.8694367" lon="11.54423"><ele>672.4</ele><time>2026-04-26T12:03:25.293Z</time></trkpt><trkpt lat="42.8694783" lon="11.5440983"><ele>670.6</ele><time>2026-04-26T12:03:26.295Z</time></trkpt><trkpt lat="42.86949" lon="11.543955"><ele>668.8</ele><time>2026-04-26T12:03:27.295Z</time></trkpt><trkpt lat="42.8694883" lon="11.54381"><ele>667.0</ele><time>2026-04-26T12:03:28.294Z</time></trkpt><trkpt lat="42.8694933" lon="11.5436617"><ele>667.0</ele><time>2026-04-26T12:03:29.297Z</time></trkpt><trkpt lat="42.86951" lon="11.5435167"><ele>667.0</ele><time>2026-04-26T12:03:30.294Z</time></trkpt><trkpt lat="42.869545" lon="11.5433833"><ele>667.0</ele><time>2026-04-26T12:03:31.296Z</time></trkpt><trkpt lat="42.869595" lon="11.5432567"><ele>667.0</ele><time>2026-04-26T12:03:32.293Z</time></trkpt><trkpt lat="42.8696567" lon="11.5431367"><ele>667.0</ele><time>2026-04-26T12:03:33.294Z</time></trkpt><trkpt lat="42.8697167" lon="11.5430267"><ele>667.0</ele><time>2026-04-26T12:03:34.294Z</time></trkpt><trkpt lat="42.8697783" lon="11.5429183"><ele>667.0</ele><time>2026-04-26T12:03:35.294Z</time></trkpt><trkpt lat="42.8698433" lon="11.54281"><ele>667.0</ele><time>2026-04-26T12:03:36.295Z</time></trkpt><trkpt lat="42.8699" lon="11.5426983"><ele>667.0</ele><time>2026-04-26T12:03:37.293Z</time></trkpt><trkpt lat="42.869955" lon="11.5425883"><ele>667.0</ele><time>2026-04-26T12:03:38.293Z</time></trkpt><trkpt lat="42.870015" lon="11.5424817"><ele>667.0</ele><time>2026-04-26T12:03:39.293Z</time></trkpt><trkpt lat="42.8700717" lon="11.542375"><ele>667.0</ele><time>2026-04-26T12:03:40.296Z</time></trkpt><trkpt lat="42.870125" lon="11.5422667"><ele>667.0</ele><time>2026-04-26T12:03:41.298Z</time></trkpt><trkpt lat="42.870175" lon="11.5421633"><ele>667.0</ele><time>2026-04-26T12:03:42.295Z</time></trkpt><trkpt lat="42.87023" lon="11.542065"><ele>667.0</ele><time>2026-04-26T12:03:43.296Z</time></trkpt><trkpt lat="42.870285" lon="11.5419767"><ele>666.6666666666667</ele><time>2026-04-26T12:03:44.296Z</time></trkpt><trkpt lat="42.8703333" lon="11.5418867"><ele>666.3333333333334</ele><time>2026-04-26T12:03:45.296Z</time></trkpt><trkpt lat="42.87038" lon="11.5417967"><ele>666.0</ele><time>2026-04-26T12:03:46.293Z</time></trkpt><trkpt lat="42.8704267" lon="11.54171"><ele>665.6666666666666</ele><time>2026-04-26T12:03:47.293Z</time></trkpt><trkpt lat="42.8704733" lon="11.541625"><ele>665.3333333333333</ele><time>2026-04-26T12:03:48.293Z</time></trkpt><trkpt lat="42.8705217" lon="11.5415333"><ele>665.0</ele><time>2026-04-26T12:03:49.294Z</time></trkpt><trkpt lat="42.8705717" lon="11.5414367"><ele>665.0</ele><time>2026-04-26T12:03:50.294Z</time></trkpt><trkpt lat="42.87062" lon="11.54134"><ele>665.0</ele><time>2026-04-26T12:03:51.296Z</time></trkpt><trkpt lat="42.8706683" lon="11.5412417"><ele>665.0</ele><time>2026-04-26T12:03:52.294Z</time></trkpt><trkpt lat="42.8707217" lon="11.5411483"><ele>665.0</ele><time>2026-04-26T12:03:53.293Z</time></trkpt><trkpt lat="42.870775" lon="11.5410583"><ele>665.0</ele><time>2026-04-26T12:03:54.298Z</time></trkpt><trkpt lat="42.8708283" lon="11.5409667"><ele>665.0</ele><time>2026-04-26T12:03:55.294Z</time></trkpt><trkpt lat="42.8708783" lon="11.5408733"><ele>664.6666666666666</ele><time>2026-04-26T12:03:56.294Z</time></trkpt><trkpt lat="42.8709283" lon="11.5407833"><ele>664.3333333333333</ele><time>2026-04-26T12:03:57.296Z</time></trkpt><trkpt lat="42.8709783" lon="11.5406983"><ele>664.0</ele><time>2026-04-26T12:03:58.293Z</time></trkpt><trkpt lat="42.8710217" lon="11.5406167"><ele>663.6666666666666</ele><time>2026-04-26T12:03:59.297Z</time></trkpt><trkpt lat="42.8710683" lon="11.540535"><ele>663.3333333333334</ele><time>2026-04-26T12:04:00.296Z</time></trkpt><trkpt lat="42.8711117" lon="11.5404583"><ele>663.0</ele><time>2026-04-26T12:04:01.295Z</time></trkpt><trkpt lat="42.87115" lon="11.5403783"><ele>662.5</ele><time>2026-04-26T12:04:02.294Z</time></trkpt><trkpt lat="42.8712083" lon="11.5402633"><ele>662.0</ele><time>2026-04-26T12:04:04.294Z</time></trkpt><trkpt lat="42.8712733" lon="11.5401983"><ele>661.5</ele><time>2026-04-26T12:04:08.294Z</time></trkpt><trkpt lat="42.8713233" lon="11.5401417"><ele>661.0</ele><time>2026-04-26T12:04:10.295Z</time></trkpt><trkpt lat="42.8713517" lon="11.5400633"><ele>660.5</ele><time>2026-04-26T12:04:12.296Z</time></trkpt><trkpt lat="42.8713617" lon="11.5399767"><ele>660.0</ele><time>2026-04-26T12:04:14.295Z</time></trkpt><trkpt lat="42.87136" lon="11.539875"><ele>660.0000000000001</ele><time>2026-04-26T12:04:16.296Z</time></trkpt><trkpt lat="42.87138" lon="11.53977"><ele>660.0</ele><time>2026-04-26T12:04:18.292Z</time></trkpt><trkpt lat="42.871405" lon="11.5396833"><ele>660.0</ele><time>2026-04-26T12:04:20.294Z</time></trkpt><trkpt lat="42.8714267" lon="11.5396"><ele>660.0</ele><time>2026-04-26T12:04:22.293Z</time></trkpt><trkpt lat="42.8714583" lon="11.5395017"><ele>660.0</ele><time>2026-04-26T12:04:25.293Z</time></trkpt><trkpt lat="42.8714817" lon="11.5394067"><ele>660.0000000000001</ele><time>2026-04-26T12:04:28.293Z</time></trkpt><trkpt lat="42.8714967" lon="11.5392967"><ele>660.0</ele><time>2026-04-26T12:04:32.294Z</time></trkpt><trkpt lat="42.87143" lon="11.5392917"><ele>660.1666666666666</ele><time>2026-04-26T12:07:56.296Z</time></trkpt><trkpt lat="42.8714883" lon="11.5392517"><ele>660.3333333333334</ele><time>2026-04-26T12:08:02.299Z</time></trkpt><trkpt lat="42.8715183" lon="11.539155"><ele>660.5</ele><time>2026-04-26T12:08:04.297Z</time></trkpt><trkpt lat="42.87154" lon="11.5390467"><ele>660.6666666666667</ele><time>2026-04-26T12:08:06.297Z</time></trkpt><trkpt lat="42.8715767" lon="11.5389383"><ele>660.8333333333334</ele><time>2026-04-26T12:08:08.295Z</time></trkpt><trkpt lat="42.8716017" lon="11.5388267"><ele>661.0</ele><time>2026-04-26T12:08:10.297Z</time></trkpt><trkpt lat="42.8716317" lon="11.53872"><ele>661.1666666666667</ele><time>2026-04-26T12:08:12.298Z</time></trkpt><trkpt lat="42.8716633" lon="11.5386167"><ele>661.3333333333334</ele><time>2026-04-26T12:08:14.296Z</time></trkpt><trkpt lat="42.8716933" lon="11.5385167"><ele>661.5</ele><time>2026-04-26T12:08:16.296Z</time></trkpt><trkpt lat="42.87172" lon="11.5384233"><ele>661.6666666666666</ele><time>2026-04-26T12:08:18.298Z</time></trkpt><trkpt lat="42.8717117" lon="11.538315"><ele>661.8333333333333</ele><time>2026-04-26T12:08:21.296Z</time></trkpt><trkpt lat="42.871785" lon="11.5382717"><ele>662.0</ele><time>2026-04-26T12:10:20.296Z</time></trkpt><trkpt lat="42.87183" lon="11.5382"><ele>661.8333333333333</ele><time>2026-04-26T12:10:22.298Z</time></trkpt><trkpt lat="42.8718433" lon="11.5381083"><ele>661.6666666666666</ele><time>2026-04-26T12:10:24.299Z</time></trkpt><trkpt lat="42.87187" lon="11.5380017"><ele>661.5</ele><time>2026-04-26T12:10:27.298Z</time></trkpt><trkpt lat="42.87191" lon="11.5378883"><ele>661.3333333333334</ele><time>2026-04-26T12:10:30.298Z</time></trkpt><trkpt lat="42.87193" lon="11.5378"><ele>661.1666666666667</ele><time>2026-04-26T12:10:32.298Z</time></trkpt><trkpt lat="42.8719717" lon="11.5376933"><ele>661.0</ele><time>2026-04-26T12:10:35.297Z</time></trkpt><trkpt lat="42.8720633" lon="11.5375917"><ele>661.0</ele><time>2026-04-26T12:25:38.298Z</time></trkpt><trkpt lat="42.8720983" lon="11.5375067"><ele>661.0</ele><time>2026-04-26T12:25:40.297Z</time></trkpt><trkpt lat="42.8721417" lon="11.537375"><ele>661.0</ele><time>2026-04-26T12:25:42.297Z</time></trkpt><trkpt lat="42.87219" lon="11.5372233"><ele>661.0</ele><time>2026-04-26T12:25:44.299Z</time></trkpt><trkpt lat="42.8722217" lon="11.53706"><ele>661.0</ele><time>2026-04-26T12:25:46.296Z</time></trkpt><trkpt lat="42.8722483" lon="11.5369517"><ele>662.0</ele><time>2026-04-26T12:25:48.297Z</time></trkpt><trkpt lat="42.8723" lon="11.5368983"><ele>663.0</ele><time>2026-04-26T12:25:50.299Z</time></trkpt><trkpt lat="42.87236" lon="11.5368583"><ele>664.0</ele><time>2026-04-26T12:25:52.296Z</time></trkpt><trkpt lat="42.8724367" lon="11.5368017"><ele>665.0</ele><time>2026-04-26T12:25:54.297Z</time></trkpt><trkpt lat="42.8725017" lon="11.5367233"><ele>666.0</ele><time>2026-04-26T12:25:56.295Z</time></trkpt><trkpt lat="42.872545" lon="11.5366167"><ele>667.0</ele><time>2026-04-26T12:25:58.297Z</time></trkpt><trkpt lat="42.8725817" lon="11.5365033"><ele>662.3333333333334</ele><time>2026-04-26T12:26:00.298Z</time></trkpt><trkpt lat="42.8726233" lon="11.5364"><ele>657.6666666666667</ele><time>2026-04-26T12:26:02.296Z</time></trkpt><trkpt lat="42.8726883" lon="11.5363583"><ele>653.0</ele><time>2026-04-26T12:26:04.297Z</time></trkpt><trkpt lat="42.87274" lon="11.5364583"><ele>648.3333333333334</ele><time>2026-04-26T12:26:07.295Z</time></trkpt><trkpt lat="42.8727517" lon="11.5365833"><ele>643.6666666666666</ele><time>2026-04-26T12:26:09.296Z</time></trkpt><trkpt lat="42.8727667" lon="11.53672"><ele>639.0</ele><time>2026-04-26T12:26:11.298Z</time></trkpt><trkpt lat="42.8728067" lon="11.5368733"><ele>639.0</ele><time>2026-04-26T12:26:13.296Z</time></trkpt><trkpt lat="42.87283" lon="11.5369533"><ele>639.0</ele><time>2026-04-26T12:26:14.299Z</time></trkpt><trkpt lat="42.8728867" lon="11.5371"><ele>639.0</ele><time>2026-04-26T12:26:16.296Z</time></trkpt><trkpt lat="42.8729383" lon="11.5371617"><ele>639.0</ele><time>2026-04-26T12:26:17.297Z</time></trkpt><trkpt lat="42.8729883" lon="11.53722"><ele>639.0</ele><time>2026-04-26T12:26:18.299Z</time></trkpt><trkpt lat="42.8730867" lon="11.5373317"><ele>639.0</ele><time>2026-04-26T12:26:20.298Z</time></trkpt><trkpt lat="42.8731317" lon="11.537485"><ele>639.3333333333334</ele><time>2026-04-26T12:26:22.296Z</time></trkpt><trkpt lat="42.8731117" lon="11.53758"><ele>639.6666666666666</ele><time>2026-04-26T12:26:23.297Z</time></trkpt><trkpt lat="42.8730833" lon="11.53767"><ele>640.0</ele><time>2026-04-26T12:26:24.298Z</time></trkpt><trkpt lat="42.8730333" lon="11.53781"><ele>640.3333333333333</ele><time>2026-04-26T12:26:26.297Z</time></trkpt><trkpt lat="42.8729667" lon="11.537935"><ele>640.6666666666666</ele><time>2026-04-26T12:26:28.298Z</time></trkpt><trkpt lat="42.872935" lon="11.53801"><ele>641.0</ele><time>2026-04-26T12:26:29.297Z</time></trkpt><trkpt lat="42.8729067" lon="11.5381"><ele>639.6666666666666</ele><time>2026-04-26T12:26:30.297Z</time></trkpt><trkpt lat="42.8728817" lon="11.5382033"><ele>638.3333333333333</ele><time>2026-04-26T12:26:31.298Z</time></trkpt><trkpt lat="42.8728633" lon="11.53832"><ele>637.0</ele><time>2026-04-26T12:26:32.298Z</time></trkpt><trkpt lat="42.87285" lon="11.53844"><ele>635.6666666666666</ele><time>2026-04-26T12:26:33.297Z</time></trkpt><trkpt lat="42.8728383" lon="11.5385667"><ele>634.3333333333334</ele><time>2026-04-26T12:26:34.297Z</time></trkpt><trkpt lat="42.872825" lon="11.538695"><ele>633.0</ele><time>2026-04-26T12:26:35.297Z</time></trkpt><trkpt lat="42.8728117" lon="11.53882"><ele>631.6666666666666</ele><time>2026-04-26T12:26:36.297Z</time></trkpt><trkpt lat="42.8727967" lon="11.538945"><ele>630.3333333333334</ele><time>2026-04-26T12:26:37.294Z</time></trkpt><trkpt lat="42.872785" lon="11.539065"><ele>629.0</ele><time>2026-04-26T12:26:38.297Z</time></trkpt><trkpt lat="42.8727717" lon="11.5391833"><ele>627.6666666666667</ele><time>2026-04-26T12:26:39.297Z</time></trkpt><trkpt lat="42.8727617" lon="11.5393017"><ele>626.3333333333334</ele><time>2026-04-26T12:26:40.295Z</time></trkpt><trkpt lat="42.8727517" lon="11.53942"><ele>625.0</ele><time>2026-04-26T12:26:41.298Z</time></trkpt><trkpt lat="42.87274" lon="11.5395417"><ele>624.0</ele><time>2026-04-26T12:26:42.299Z</time></trkpt><trkpt lat="42.87273" lon="11.5396617"><ele>623.0</ele><time>2026-04-26T12:26:43.295Z</time></trkpt><trkpt lat="42.8727183" lon="11.539785"><ele>622.0</ele><time>2026-04-26T12:26:44.297Z</time></trkpt><trkpt lat="42.872705" lon="11.53991"><ele>621.0</ele><time>2026-04-26T12:26:45.296Z</time></trkpt><trkpt lat="42.8726933" lon="11.5400333"><ele>620.0</ele><time>2026-04-26T12:26:46.298Z</time></trkpt><trkpt lat="42.8726817" lon="11.5401633"><ele>620.0</ele><time>2026-04-26T12:26:47.296Z</time></trkpt><trkpt lat="42.87267" lon="11.5403033"><ele>620.0</ele><time>2026-04-26T12:26:48.298Z</time></trkpt><trkpt lat="42.8726667" lon="11.5404483"><ele>620.0</ele><time>2026-04-26T12:26:49.297Z</time></trkpt><trkpt lat="42.8726683" lon="11.5406"><ele>620.0</ele><time>2026-04-26T12:26:50.299Z</time></trkpt><trkpt lat="42.8726867" lon="11.540755"><ele>620.0</ele><time>2026-04-26T12:26:51.299Z</time></trkpt><trkpt lat="42.8727117" lon="11.5409083"><ele>620.0</ele><time>2026-04-26T12:26:52.297Z</time></trkpt><trkpt lat="42.87274" lon="11.54106"><ele>620.0</ele><time>2026-04-26T12:26:53.297Z</time></trkpt><trkpt lat="42.87277" lon="11.5412083"><ele>620.0</ele><time>2026-04-26T12:26:54.298Z</time></trkpt><trkpt lat="42.8727983" lon="11.5413533"><ele>620.0</ele><time>2026-04-26T12:26:55.296Z</time></trkpt><trkpt lat="42.87282" lon="11.541485"><ele>620.0</ele><time>2026-04-26T12:26:56.298Z</time></trkpt><trkpt lat="42.8728383" lon="11.5416067"><ele>620.0</ele><time>2026-04-26T12:26:57.296Z</time></trkpt><trkpt lat="42.8728567" lon="11.5417183"><ele>620.0</ele><time>2026-04-26T12:26:58.296Z</time></trkpt><trkpt lat="42.872885" lon="11.54181"><ele>620.0</ele><time>2026-04-26T12:26:59.296Z</time></trkpt><trkpt lat="42.8729217" lon="11.5418867"><ele>620.0</ele><time>2026-04-26T12:27:00.296Z</time></trkpt><trkpt lat="42.8729683" lon="11.5419517"><ele>620.0</ele><time>2026-04-26T12:27:01.297Z</time></trkpt><trkpt lat="42.8730233" lon="11.5420017"><ele>620.0</ele><time>2026-04-26T12:27:02.298Z</time></trkpt><trkpt lat="42.873085" lon="11.542035"><ele>620.0</ele><time>2026-04-26T12:27:03.298Z</time></trkpt><trkpt lat="42.8731483" lon="11.5420533"><ele>620.0</ele><time>2026-04-26T12:27:04.298Z</time></trkpt><trkpt lat="42.8732233" lon="11.54205"><ele>620.0</ele><time>2026-04-26T12:27:05.297Z</time></trkpt><trkpt lat="42.8733083" lon="11.54202"><ele>620.0</ele><time>2026-04-26T12:27:06.298Z</time></trkpt><trkpt lat="42.8734067" lon="11.5419583"><ele>620.0</ele><time>2026-04-26T12:27:07.298Z</time></trkpt><trkpt lat="42.87351" lon="11.541865"><ele>620.0</ele><time>2026-04-26T12:27:08.298Z</time></trkpt><trkpt lat="42.8736133" lon="11.5417433"><ele>619.6666666666666</ele><time>2026-04-26T12:27:09.298Z</time></trkpt><trkpt lat="42.8737183" lon="11.5416033"><ele>619.3333333333334</ele><time>2026-04-26T12:27:10.297Z</time></trkpt><trkpt lat="42.8738333" lon="11.5414633"><ele>619.0</ele><time>2026-04-26T12:27:11.297Z</time></trkpt><trkpt lat="42.8739533" lon="11.5413183"><ele>617.3333333333334</ele><time>2026-04-26T12:27:12.298Z</time></trkpt><trkpt lat="42.8740783" lon="11.541175"><ele>615.6666666666666</ele><time>2026-04-26T12:27:13.297Z</time></trkpt><trkpt lat="42.8742017" lon="11.5410333"><ele>614.0</ele><time>2026-04-26T12:27:14.298Z</time></trkpt><trkpt lat="42.8743233" lon="11.5408883"><ele>613.6666666666666</ele><time>2026-04-26T12:27:15.297Z</time></trkpt><trkpt lat="42.8744333" lon="11.5407317"><ele>613.3333333333334</ele><time>2026-04-26T12:27:16.295Z</time></trkpt><trkpt lat="42.8745267" lon="11.5405567"><ele>613.0</ele><time>2026-04-26T12:27:17.298Z</time></trkpt><trkpt lat="42.8746033" lon="11.5403633"><ele>613.0</ele><time>2026-04-26T12:27:18.294Z</time></trkpt><trkpt lat="42.874675" lon="11.5401633"><ele>613.0</ele><time>2026-04-26T12:27:19.297Z</time></trkpt><trkpt lat="42.8747433" lon="11.53996"><ele>613.0</ele><time>2026-04-26T12:27:20.297Z</time></trkpt><trkpt lat="42.8748133" lon="11.5397533"><ele>613.3333333333334</ele><time>2026-04-26T12:27:21.296Z</time></trkpt><trkpt lat="42.8748817" lon="11.539545"><ele>613.6666666666666</ele><time>2026-04-26T12:27:22.294Z</time></trkpt><trkpt lat="42.8749483" lon="11.5393367"><ele>614.0</ele><time>2026-04-26T12:27:23.295Z</time></trkpt><trkpt lat="42.8750117" lon="11.5391267"><ele>614.0</ele><time>2026-04-26T12:27:24.296Z</time></trkpt><trkpt lat="42.875075" lon="11.538915"><ele>614.0</ele><time>2026-04-26T12:27:25.296Z</time></trkpt><trkpt lat="42.8751383" lon="11.538705"><ele>614.0</ele><time>2026-04-26T12:27:26.297Z</time></trkpt><trkpt lat="42.875205" lon="11.5385017"><ele>621.0</ele><time>2026-04-26T12:27:27.295Z</time></trkpt><trkpt lat="42.8752733" lon="11.53831"><ele>628.0</ele><time>2026-04-26T12:27:28.296Z</time></trkpt><trkpt lat="42.875365" lon="11.5381467"><ele>635.0</ele><time>2026-04-26T12:27:29.297Z</time></trkpt><trkpt lat="42.8754767" lon="11.5380133"><ele>635.0</ele><time>2026-04-26T12:27:30.297Z</time></trkpt><trkpt lat="42.8756" lon="11.537905"><ele>635.0</ele><time>2026-04-26T12:27:31.296Z</time></trkpt><trkpt lat="42.87573" lon="11.5378133"><ele>635.0</ele><time>2026-04-26T12:27:32.296Z</time></trkpt><trkpt lat="42.875855" lon="11.5377133"><ele>635.0</ele><time>2026-04-26T12:27:33.294Z</time></trkpt><trkpt lat="42.8759717" lon="11.537595"><ele>637.25</ele><time>2026-04-26T12:27:34.297Z</time></trkpt><trkpt lat="42.876075" lon="11.53745"><ele>639.5</ele><time>2026-04-26T12:27:35.295Z</time></trkpt><trkpt lat="42.8761617" lon="11.53729"><ele>641.75</ele><time>2026-04-26T12:27:36.296Z</time></trkpt><trkpt lat="42.8762467" lon="11.537125"><ele>644.0</ele><time>2026-04-26T12:27:37.297Z</time></trkpt><trkpt lat="42.876325" lon="11.5369583"><ele>644.0</ele><time>2026-04-26T12:27:38.297Z</time></trkpt><trkpt lat="42.8764017" lon="11.5368033"><ele>644.0</ele><time>2026-04-26T12:27:39.298Z</time></trkpt><trkpt lat="42.8764733" lon="11.53666"><ele>644.0</ele><time>2026-04-26T12:27:40.297Z</time></trkpt><trkpt lat="42.8765417" lon="11.536525"><ele>644.0</ele><time>2026-04-26T12:27:41.297Z</time></trkpt><trkpt lat="42.8766067" lon="11.536395"><ele>644.0</ele><time>2026-04-26T12:27:42.297Z</time></trkpt><trkpt lat="42.8766733" lon="11.5362683"><ele>644.0</ele><time>2026-04-26T12:27:43.298Z</time></trkpt><trkpt lat="42.8767433" lon="11.536145"><ele>644.0</ele><time>2026-04-26T12:27:44.298Z</time></trkpt><trkpt lat="42.876815" lon="11.536025"><ele>644.0</ele><time>2026-04-26T12:27:45.298Z</time></trkpt><trkpt lat="42.8768917" lon="11.5359083"><ele>645.75</ele><time>2026-04-26T12:27:46.297Z</time></trkpt><trkpt lat="42.8769733" lon="11.535795"><ele>647.5</ele><time>2026-04-26T12:27:47.299Z</time></trkpt><trkpt lat="42.8770617" lon="11.53569"><ele>649.25</ele><time>2026-04-26T12:27:48.296Z</time></trkpt><trkpt lat="42.8771617" lon="11.5356033"><ele>651.0</ele><time>2026-04-26T12:27:49.295Z</time></trkpt><trkpt lat="42.87727" lon="11.5355383"><ele>651.0</ele><time>2026-04-26T12:27:50.296Z</time></trkpt><trkpt lat="42.877385" lon="11.5354983"><ele>651.0</ele><time>2026-04-26T12:27:51.295Z</time></trkpt><trkpt lat="42.8775067" lon="11.5354767"><ele>651.0</ele><time>2026-04-26T12:27:52.295Z</time></trkpt><trkpt lat="42.8776317" lon="11.5354667"><ele>651.0</ele><time>2026-04-26T12:27:53.296Z</time></trkpt><trkpt lat="42.8777583" lon="11.5354567"><ele>654.0</ele><time>2026-04-26T12:27:54.296Z</time></trkpt><trkpt lat="42.877885" lon="11.5354383"><ele>657.0</ele><time>2026-04-26T12:27:55.295Z</time></trkpt><trkpt lat="42.8780133" lon="11.5354083"><ele>660.0</ele><time>2026-04-26T12:27:56.296Z</time></trkpt><trkpt lat="42.878145" lon="11.5353683"><ele>663.0</ele><time>2026-04-26T12:27:57.297Z</time></trkpt><trkpt lat="42.8782783" lon="11.535325"><ele>655.75</ele><time>2026-04-26T12:27:58.295Z</time></trkpt><trkpt lat="42.8784167" lon="11.5352917"><ele>648.5</ele><time>2026-04-26T12:27:59.297Z</time></trkpt><trkpt lat="42.8785583" lon="11.53528"><ele>641.25</ele><time>2026-04-26T12:28:00.297Z</time></trkpt><trkpt lat="42.8786983" lon="11.5352917"><ele>634.0</ele><time>2026-04-26T12:28:01.296Z</time></trkpt><trkpt lat="42.878835" lon="11.5353333"><ele>636.75</ele><time>2026-04-26T12:28:02.298Z</time></trkpt><trkpt lat="42.8789633" lon="11.5354067"><ele>639.5</ele><time>2026-04-26T12:28:03.297Z</time></trkpt><trkpt lat="42.8790867" lon="11.5355033"><ele>642.25</ele><time>2026-04-26T12:28:04.298Z</time></trkpt><trkpt lat="42.8792083" lon="11.5355983"><ele>645.0</ele><time>2026-04-26T12:28:05.297Z</time></trkpt><trkpt lat="42.8793433" lon="11.535685"><ele>645.0</ele><time>2026-04-26T12:28:06.297Z</time></trkpt><trkpt lat="42.87949" lon="11.5357483"><ele>645.0</ele><time>2026-04-26T12:28:07.297Z</time></trkpt><trkpt lat="42.87964" lon="11.5357883"><ele>645.0</ele><time>2026-04-26T12:28:08.298Z</time></trkpt><trkpt lat="42.8797867" lon="11.5358483"><ele>645.0</ele><time>2026-04-26T12:28:09.297Z</time></trkpt><trkpt lat="42.8799233" lon="11.5359467"><ele>645.0</ele><time>2026-04-26T12:28:10.297Z</time></trkpt><trkpt lat="42.880045" lon="11.5360833"><ele>645.0</ele><time>2026-04-26T12:28:11.297Z</time></trkpt><trkpt lat="42.880135" lon="11.5362433"><ele>647.0</ele><time>2026-04-26T12:28:12.298Z</time></trkpt><trkpt lat="42.8801933" lon="11.536415"><ele>649.0</ele><time>2026-04-26T12:28:13.297Z</time></trkpt><trkpt lat="42.8802333" lon="11.5365967"><ele>651.0</ele><time>2026-04-26T12:28:14.299Z</time></trkpt><trkpt lat="42.88027" lon="11.5367817"><ele>653.0</ele><time>2026-04-26T12:28:15.298Z</time></trkpt><trkpt lat="42.8803167" lon="11.5369583"><ele>654.5</ele><time>2026-04-26T12:28:16.298Z</time></trkpt><trkpt lat="42.8803667" lon="11.537135"><ele>656.0</ele><time>2026-04-26T12:28:17.298Z</time></trkpt><trkpt lat="42.88043" lon="11.5373033"><ele>657.5</ele><time>2026-04-26T12:28:18.296Z</time></trkpt><trkpt lat="42.880505" lon="11.53746"><ele>659.0</ele><time>2026-04-26T12:28:19.295Z</time></trkpt><trkpt lat="42.8805933" lon="11.5376017"><ele>659.0</ele><time>2026-04-26T12:28:20.296Z</time></trkpt><trkpt lat="42.8806983" lon="11.5377283"><ele>659.0</ele><time>2026-04-26T12:28:21.296Z</time></trkpt><trkpt lat="42.8808083" lon="11.5378417"><ele>659.0</ele><time>2026-04-26T12:28:22.296Z</time></trkpt><trkpt lat="42.88093" lon="11.537935"><ele>659.0</ele><time>2026-04-26T12:28:23.296Z</time></trkpt><trkpt lat="42.8810633" lon="11.5380067"><ele>660.5</ele><time>2026-04-26T12:28:24.297Z</time></trkpt><trkpt lat="42.8811983" lon="11.538045"><ele>662.0</ele><time>2026-04-26T12:28:25.296Z</time></trkpt><trkpt lat="42.8813367" lon="11.5380533"><ele>663.5</ele><time>2026-04-26T12:28:26.296Z</time></trkpt><trkpt lat="42.8814767" lon="11.538035"><ele>665.0</ele><time>2026-04-26T12:28:27.296Z</time></trkpt><trkpt lat="42.8816133" lon="11.538"><ele>665.0</ele><time>2026-04-26T12:28:28.296Z</time></trkpt><trkpt lat="42.88175" lon="11.537955"><ele>665.0</ele><time>2026-04-26T12:28:29.298Z</time></trkpt><trkpt lat="42.8818833" lon="11.537905"><ele>665.0</ele><time>2026-04-26T12:28:30.297Z</time></trkpt><trkpt lat="42.882015" lon="11.5378433"><ele>665.0</ele><time>2026-04-26T12:28:31.297Z</time></trkpt><trkpt lat="42.882145" lon="11.537775"><ele>664.5</ele><time>2026-04-26T12:28:32.298Z</time></trkpt><trkpt lat="42.882275" lon="11.5377"><ele>664.0</ele><time>2026-04-26T12:28:33.298Z</time></trkpt><trkpt lat="42.8824033" lon="11.53762"><ele>663.5</ele><time>2026-04-26T12:28:34.299Z</time></trkpt><trkpt lat="42.8825267" lon="11.5375333"><ele>663.0</ele><time>2026-04-26T12:28:35.297Z</time></trkpt><trkpt lat="42.8826483" lon="11.5374433"><ele>662.0</ele><time>2026-04-26T12:28:36.299Z</time></trkpt><trkpt lat="42.8827733" lon="11.5373567"><ele>661.0</ele><time>2026-04-26T12:28:37.297Z</time></trkpt><trkpt lat="42.8829" lon="11.5372783"><ele>660.0</ele><time>2026-04-26T12:28:38.299Z</time></trkpt><trkpt lat="42.8830333" lon="11.53721"><ele>659.0</ele><time>2026-04-26T12:28:39.299Z</time></trkpt><trkpt lat="42.8831717" lon="11.5371633"><ele>659.0</ele><time>2026-04-26T12:28:40.297Z</time></trkpt><trkpt lat="42.883305" lon="11.5371167"><ele>659.0</ele><time>2026-04-26T12:28:41.296Z</time></trkpt><trkpt lat="42.8834367" lon="11.5370717"><ele>659.0</ele><time>2026-04-26T12:28:42.297Z</time></trkpt><trkpt lat="42.8835633" lon="11.5370233"><ele>659.0</ele><time>2026-04-26T12:28:43.298Z</time></trkpt><trkpt lat="42.8836883" lon="11.53698"><ele>657.25</ele><time>2026-04-26T12:28:44.298Z</time></trkpt><trkpt lat="42.8838083" lon="11.5369433"><ele>655.5</ele><time>2026-04-26T12:28:45.297Z</time></trkpt><trkpt lat="42.8839267" lon="11.5369067"><ele>653.75</ele><time>2026-04-26T12:28:46.297Z</time></trkpt><trkpt lat="42.8840417" lon="11.5368717"><ele>652.0</ele><time>2026-04-26T12:28:47.295Z</time></trkpt><trkpt lat="42.884155" lon="11.5368333"><ele>651.0</ele><time>2026-04-26T12:28:48.295Z</time></trkpt><trkpt lat="42.884265" lon="11.5367933"><ele>650.0</ele><time>2026-04-26T12:28:49.296Z</time></trkpt><trkpt lat="42.884375" lon="11.5367567"><ele>649.0</ele><time>2026-04-26T12:28:50.296Z</time></trkpt><trkpt lat="42.8844817" lon="11.53672"><ele>648.0</ele><time>2026-04-26T12:28:51.296Z</time></trkpt><trkpt lat="42.8845867" lon="11.5366817"><ele>647.0</ele><time>2026-04-26T12:28:52.295Z</time></trkpt><trkpt lat="42.8846917" lon="11.5366367"><ele>647.0</ele><time>2026-04-26T12:28:53.296Z</time></trkpt><trkpt lat="42.8847967" lon="11.5365833"><ele>647.0</ele><time>2026-04-26T12:28:54.296Z</time></trkpt><trkpt lat="42.8849017" lon="11.536525"><ele>647.0</ele><time>2026-04-26T12:28:55.296Z</time></trkpt><trkpt lat="42.8850083" lon="11.5364617"><ele>647.0</ele><time>2026-04-26T12:28:56.297Z</time></trkpt><trkpt lat="42.8851167" lon="11.536395"><ele>646.25</ele><time>2026-04-26T12:28:57.296Z</time></trkpt><trkpt lat="42.8852267" lon="11.53633"><ele>645.5</ele><time>2026-04-26T12:28:58.294Z</time></trkpt><trkpt lat="42.8853383" lon="11.5362667"><ele>644.75</ele><time>2026-04-26T12:28:59.297Z</time></trkpt><trkpt lat="42.8854483" lon="11.5362067"><ele>644.0</ele><time>2026-04-26T12:29:00.297Z</time></trkpt><trkpt lat="42.8855583" lon="11.5361483"><ele>644.0</ele><time>2026-04-26T12:29:01.297Z</time></trkpt><trkpt lat="42.8856667" lon="11.5360917"><ele>644.0</ele><time>2026-04-26T12:29:02.298Z</time></trkpt><trkpt lat="42.8857733" lon="11.536035"><ele>644.0</ele><time>2026-04-26T12:29:03.296Z</time></trkpt><trkpt lat="42.88588" lon="11.5359733"><ele>644.0</ele><time>2026-04-26T12:29:04.309Z</time></trkpt><trkpt lat="42.885985" lon="11.535915"><ele>642.5</ele><time>2026-04-26T12:29:05.297Z</time></trkpt><trkpt lat="42.886095" lon="11.53586"><ele>641.0</ele><time>2026-04-26T12:29:06.297Z</time></trkpt><trkpt lat="42.8862083" lon="11.53581"><ele>639.5</ele><time>2026-04-26T12:29:07.298Z</time></trkpt><trkpt lat="42.886325" lon="11.5357633"><ele>638.0</ele><time>2026-04-26T12:29:08.297Z</time></trkpt><trkpt lat="42.8864433" lon="11.5357283"><ele>638.0</ele><time>2026-04-26T12:29:09.296Z</time></trkpt><trkpt lat="42.8865583" lon="11.5357083"><ele>638.0</ele><time>2026-04-26T12:29:10.297Z</time></trkpt><trkpt lat="42.88667" lon="11.5357017"><ele>638.0</ele><time>2026-04-26T12:29:11.298Z</time></trkpt><trkpt lat="42.886775" lon="11.5357033"><ele>638.0</ele><time>2026-04-26T12:29:12.297Z</time></trkpt><trkpt lat="42.8868683" lon="11.5357033"><ele>638.0</ele><time>2026-04-26T12:29:13.297Z</time></trkpt><trkpt lat="42.88695" lon="11.5357033"><ele>637.8</ele><time>2026-04-26T12:29:14.298Z</time></trkpt><trkpt lat="42.88702" lon="11.5356983"><ele>637.5999999999999</ele><time>2026-04-26T12:29:15.296Z</time></trkpt><trkpt lat="42.88713" lon="11.5356567"><ele>637.4000000000001</ele><time>2026-04-26T12:29:17.296Z</time></trkpt><trkpt lat="42.8872117" lon="11.5355983"><ele>637.2</ele><time>2026-04-26T12:29:19.294Z</time></trkpt><trkpt lat="42.88727" lon="11.5355433"><ele>637.0</ele><time>2026-04-26T12:29:21.296Z</time></trkpt><trkpt lat="42.88742" lon="11.53556"><ele>637.0</ele><time>2026-04-26T12:31:59.296Z</time></trkpt><trkpt lat="42.8874717" lon="11.5356517"><ele>637.0</ele><time>2026-04-26T12:32:02.295Z</time></trkpt><trkpt lat="42.8875467" lon="11.5357217"><ele>637.0</ele><time>2026-04-26T12:32:04.293Z</time></trkpt><trkpt lat="42.8876617" lon="11.535745"><ele>637.0</ele><time>2026-04-26T12:32:06.296Z</time></trkpt><trkpt lat="42.88773" lon="11.5357467"><ele>637.0</ele><time>2026-04-26T12:32:07.295Z</time></trkpt><trkpt lat="42.8878033" lon="11.53576"><ele>637.0</ele><time>2026-04-26T12:32:08.294Z</time></trkpt><trkpt lat="42.8878783" lon="11.535775"><ele>636.6666666666667</ele><time>2026-04-26T12:32:09.295Z</time></trkpt><trkpt lat="42.8879567" lon="11.53579"><ele>636.3333333333334</ele><time>2026-04-26T12:32:10.296Z</time></trkpt><trkpt lat="42.8880367" lon="11.5358083"><ele>636.0</ele><time>2026-04-26T12:32:11.297Z</time></trkpt><trkpt lat="42.8881217" lon="11.5358267"><ele>635.6666666666666</ele><time>2026-04-26T12:32:12.297Z</time></trkpt><trkpt lat="42.8882067" lon="11.5358467"><ele>635.3333333333333</ele><time>2026-04-26T12:32:13.295Z</time></trkpt><trkpt lat="42.8882917" lon="11.53587"><ele>635.0</ele><time>2026-04-26T12:32:14.299Z</time></trkpt><trkpt lat="42.8883733" lon="11.535895"><ele>634.5</ele><time>2026-04-26T12:32:15.296Z</time></trkpt><trkpt lat="42.8884533" lon="11.5359267"><ele>634.0</ele><time>2026-04-26T12:32:16.297Z</time></trkpt><trkpt lat="42.8885267" lon="11.53595"><ele>633.5</ele><time>2026-04-26T12:32:17.295Z</time></trkpt><trkpt lat="42.8886017" lon="11.5359867"><ele>633.0</ele><time>2026-04-26T12:32:18.299Z</time></trkpt><trkpt lat="42.8886783" lon="11.536025"><ele>632.5</ele><time>2026-04-26T12:32:19.295Z</time></trkpt><trkpt lat="42.8887567" lon="11.5360717"><ele>632.0</ele><time>2026-04-26T12:32:20.298Z</time></trkpt><trkpt lat="42.88884" lon="11.536115"><ele>632.0</ele><time>2026-04-26T12:32:21.297Z</time></trkpt><trkpt lat="42.8889283" lon="11.5361567"><ele>632.0</ele><time>2026-04-26T12:32:22.297Z</time></trkpt><trkpt lat="42.8890183" lon="11.5362117"><ele>632.0</ele><time>2026-04-26T12:32:23.297Z</time></trkpt><trkpt lat="42.889105" lon="11.5362667"><ele>632.0</ele><time>2026-04-26T12:32:24.297Z</time></trkpt><trkpt lat="42.8891933" lon="11.536325"><ele>632.0</ele><time>2026-04-26T12:32:25.296Z</time></trkpt><trkpt lat="42.8892833" lon="11.5363833"><ele>631.2</ele><time>2026-04-26T12:32:26.297Z</time></trkpt><trkpt lat="42.889365" lon="11.5364517"><ele>630.4000000000001</ele><time>2026-04-26T12:32:27.298Z</time></trkpt><trkpt lat="42.8894533" lon="11.53652"><ele>629.5999999999999</ele><time>2026-04-26T12:32:28.293Z</time></trkpt><trkpt lat="42.889545" lon="11.53659"><ele>628.8</ele><time>2026-04-26T12:32:29.295Z</time></trkpt><trkpt lat="42.889645" lon="11.5366517"><ele>628.0</ele><time>2026-04-26T12:32:30.297Z</time></trkpt><trkpt lat="42.889745" lon="11.5367167"><ele>628.0</ele><time>2026-04-26T12:32:31.296Z</time></trkpt><trkpt lat="42.8898417" lon="11.5367817"><ele>628.0</ele><time>2026-04-26T12:32:32.295Z</time></trkpt><trkpt lat="42.8899367" lon="11.5368467"><ele>628.0</ele><time>2026-04-26T12:32:33.296Z</time></trkpt><trkpt lat="42.8900267" lon="11.5369133"><ele>628.0</ele><time>2026-04-26T12:32:34.295Z</time></trkpt><trkpt lat="42.8901233" lon="11.5369767"><ele>628.0</ele><time>2026-04-26T12:32:35.294Z</time></trkpt><trkpt lat="42.89022" lon="11.5370417"><ele>627.0</ele><time>2026-04-26T12:32:36.296Z</time></trkpt><trkpt lat="42.890315" lon="11.5371117"><ele>626.0</ele><time>2026-04-26T12:32:37.297Z</time></trkpt><trkpt lat="42.89041" lon="11.5371833"><ele>625.0</ele><time>2026-04-26T12:32:38.293Z</time></trkpt><trkpt lat="42.890505" lon="11.5372517"><ele>624.0</ele><time>2026-04-26T12:32:39.296Z</time></trkpt><trkpt lat="42.8906033" lon="11.5373167"><ele>623.0</ele><time>2026-04-26T12:32:40.296Z</time></trkpt><trkpt lat="42.890695" lon="11.53738"><ele>623.0</ele><time>2026-04-26T12:32:41.298Z</time></trkpt><trkpt lat="42.8907883" lon="11.5374433"><ele>623.0</ele><time>2026-04-26T12:32:42.298Z</time></trkpt><trkpt lat="42.890885" lon="11.537505"><ele>623.0</ele><time>2026-04-26T12:32:43.298Z</time></trkpt><trkpt lat="42.89098" lon="11.5375717"><ele>623.0</ele><time>2026-04-26T12:32:44.298Z</time></trkpt><trkpt lat="42.89108" lon="11.537635"><ele>623.0</ele><time>2026-04-26T12:32:45.297Z</time></trkpt><trkpt lat="42.89118" lon="11.537705"><ele>623.5</ele><time>2026-04-26T12:32:46.298Z</time></trkpt><trkpt lat="42.8912833" lon="11.5377733"><ele>624.0</ele><time>2026-04-26T12:32:47.299Z</time></trkpt><trkpt lat="42.891385" lon="11.537845"><ele>624.5</ele><time>2026-04-26T12:32:48.297Z</time></trkpt><trkpt lat="42.8914833" lon="11.53792"><ele>625.0</ele><time>2026-04-26T12:32:49.297Z</time></trkpt><trkpt lat="42.891585" lon="11.5379967"><ele>625.0</ele><time>2026-04-26T12:32:50.298Z</time></trkpt><trkpt lat="42.891685" lon="11.5380667"><ele>625.0</ele><time>2026-04-26T12:32:51.298Z</time></trkpt><trkpt lat="42.891785" lon="11.5381333"><ele>625.0</ele><time>2026-04-26T12:32:52.297Z</time></trkpt><trkpt lat="42.8918817" lon="11.5382117"><ele>625.0</ele><time>2026-04-26T12:32:53.297Z</time></trkpt><trkpt lat="42.891965" lon="11.5383083"><ele>625.0</ele><time>2026-04-26T12:32:54.298Z</time></trkpt><trkpt lat="42.8920333" lon="11.5384283"><ele>625.0</ele><time>2026-04-26T12:32:55.297Z</time></trkpt><trkpt lat="42.892085" lon="11.5385667"><ele>625.0</ele><time>2026-04-26T12:32:56.299Z</time></trkpt><trkpt lat="42.8921233" lon="11.5387133"><ele>625.0</ele><time>2026-04-26T12:32:57.297Z</time></trkpt><trkpt lat="42.8921633" lon="11.5388667"><ele>625.0</ele><time>2026-04-26T12:32:58.295Z</time></trkpt><trkpt lat="42.8921933" lon="11.5390233"><ele>624.25</ele><time>2026-04-26T12:32:59.295Z</time></trkpt><trkpt lat="42.8922233" lon="11.5391817"><ele>623.5</ele><time>2026-04-26T12:33:00.297Z</time></trkpt><trkpt lat="42.8922533" lon="11.5393383"><ele>622.75</ele><time>2026-04-26T12:33:01.297Z</time></trkpt><trkpt lat="42.892285" lon="11.5394967"><ele>622.0</ele><time>2026-04-26T12:33:02.295Z</time></trkpt><trkpt lat="42.8923183" lon="11.539655"><ele>621.5</ele><time>2026-04-26T12:33:03.297Z</time></trkpt><trkpt lat="42.8923483" lon="11.539815"><ele>621.0</ele><time>2026-04-26T12:33:04.294Z</time></trkpt><trkpt lat="42.8923783" lon="11.539975"><ele>620.5</ele><time>2026-04-26T12:33:05.292Z</time></trkpt><trkpt lat="42.8924083" lon="11.5401317"><ele>620.0</ele><time>2026-04-26T12:33:06.296Z</time></trkpt><trkpt lat="42.8924333" lon="11.5402883"><ele>619.25</ele><time>2026-04-26T12:33:07.295Z</time></trkpt><trkpt lat="42.8924617" lon="11.5404433"><ele>618.5</ele><time>2026-04-26T12:33:08.295Z</time></trkpt><trkpt lat="42.8924883" lon="11.5405967"><ele>617.75</ele><time>2026-04-26T12:33:09.296Z</time></trkpt><trkpt lat="42.8925167" lon="11.5407467"><ele>617.0</ele><time>2026-04-26T12:33:10.296Z</time></trkpt><trkpt lat="42.892545" lon="11.5408983"><ele>617.0</ele><time>2026-04-26T12:33:11.298Z</time></trkpt><trkpt lat="42.8925733" lon="11.5410483"><ele>617.0</ele><time>2026-04-26T12:33:12.297Z</time></trkpt><trkpt lat="42.8926" lon="11.5412"><ele>617.0</ele><time>2026-04-26T12:33:13.298Z</time></trkpt><trkpt lat="42.8926267" lon="11.541355"><ele>617.0</ele><time>2026-04-26T12:33:14.299Z</time></trkpt><trkpt lat="42.8926517" lon="11.541515"><ele>617.0</ele><time>2026-04-26T12:33:15.297Z</time></trkpt><trkpt lat="42.8926783" lon="11.5416733"><ele>617.0</ele><time>2026-04-26T12:33:16.299Z</time></trkpt><trkpt lat="42.8927" lon="11.541835"><ele>617.0</ele><time>2026-04-26T12:33:17.298Z</time></trkpt><trkpt lat="42.8927233" lon="11.5419967"><ele>617.0</ele><time>2026-04-26T12:33:18.298Z</time></trkpt><trkpt lat="42.8927467" lon="11.5421533"><ele>616.25</ele><time>2026-04-26T12:33:19.298Z</time></trkpt><trkpt lat="42.8927717" lon="11.5423083"><ele>615.5</ele><time>2026-04-26T12:33:20.298Z</time></trkpt><trkpt lat="42.892795" lon="11.54246"><ele>614.75</ele><time>2026-04-26T12:33:21.298Z</time></trkpt><trkpt lat="42.89282" lon="11.5426117"><ele>614.0</ele><time>2026-04-26T12:33:22.297Z</time></trkpt><trkpt lat="42.8928433" lon="11.5427633"><ele>613.5</ele><time>2026-04-26T12:33:23.298Z</time></trkpt><trkpt lat="42.8928683" lon="11.542915"><ele>613.0</ele><time>2026-04-26T12:33:24.299Z</time></trkpt><trkpt lat="42.8928933" lon="11.543065"><ele>612.5</ele><time>2026-04-26T12:33:25.297Z</time></trkpt><trkpt lat="42.8929183" lon="11.5432167"><ele>612.0</ele><time>2026-04-26T12:33:26.298Z</time></trkpt><trkpt lat="42.8929433" lon="11.5433683"><ele>612.0</ele><time>2026-04-26T12:33:27.297Z</time></trkpt><trkpt lat="42.8929667" lon="11.5435217"><ele>612.0</ele><time>2026-04-26T12:33:28.295Z</time></trkpt><trkpt lat="42.8929917" lon="11.5436733"><ele>612.0</ele><time>2026-04-26T12:33:29.297Z</time></trkpt><trkpt lat="42.8930183" lon="11.5438283"><ele>612.0</ele><time>2026-04-26T12:33:30.294Z</time></trkpt><trkpt lat="42.8930467" lon="11.5439867"><ele>610.75</ele><time>2026-04-26T12:33:31.296Z</time></trkpt><trkpt lat="42.8930783" lon="11.5441433"><ele>609.5</ele><time>2026-04-26T12:33:32.296Z</time></trkpt><trkpt lat="42.8931133" lon="11.5442983"><ele>608.25</ele><time>2026-04-26T12:33:33.297Z</time></trkpt><trkpt lat="42.893155" lon="11.5444533"><ele>607.0</ele><time>2026-04-26T12:33:34.299Z</time></trkpt><trkpt lat="42.8931983" lon="11.5446083"><ele>607.0</ele><time>2026-04-26T12:33:35.297Z</time></trkpt><trkpt lat="42.8932517" lon="11.5447633"><ele>607.0</ele><time>2026-04-26T12:33:36.298Z</time></trkpt><trkpt lat="42.8933133" lon="11.5449133"><ele>607.0</ele><time>2026-04-26T12:33:37.296Z</time></trkpt><trkpt lat="42.8933833" lon="11.54506"><ele>607.0</ele><time>2026-04-26T12:33:38.297Z</time></trkpt><trkpt lat="42.89346" lon="11.5452033"><ele>606.5</ele><time>2026-04-26T12:33:39.297Z</time></trkpt><trkpt lat="42.893545" lon="11.5453433"><ele>606.0</ele><time>2026-04-26T12:33:40.294Z</time></trkpt><trkpt lat="42.8936333" lon="11.5454867"><ele>605.5</ele><time>2026-04-26T12:33:41.298Z</time></trkpt><trkpt lat="42.8937233" lon="11.545635"><ele>605.0</ele><time>2026-04-26T12:33:42.298Z</time></trkpt><trkpt lat="42.8938133" lon="11.545785"><ele>606.75</ele><time>2026-04-26T12:33:43.296Z</time></trkpt><trkpt lat="42.8939" lon="11.5459383"><ele>608.5</ele><time>2026-04-26T12:33:44.299Z</time></trkpt><trkpt lat="42.8939783" lon="11.546095"><ele>610.25</ele><time>2026-04-26T12:33:45.298Z</time></trkpt><trkpt lat="42.8940533" lon="11.5462567"><ele>612.0</ele><time>2026-04-26T12:33:46.297Z</time></trkpt><trkpt lat="42.8941267" lon="11.5464183"><ele>610.75</ele><time>2026-04-26T12:33:47.295Z</time></trkpt><trkpt lat="42.894195" lon="11.5465833"><ele>609.5</ele><time>2026-04-26T12:33:48.296Z</time></trkpt><trkpt lat="42.89426" lon="11.5467483"><ele>608.25</ele><time>2026-04-26T12:33:49.296Z</time></trkpt><trkpt lat="42.8943183" lon="11.546915"><ele>607.0</ele><time>2026-04-26T12:33:50.295Z</time></trkpt><trkpt lat="42.8943783" lon="11.5470833"><ele>609.75</ele><time>2026-04-26T12:33:51.295Z</time></trkpt><trkpt lat="42.8944333" lon="11.5472583"><ele>612.5</ele><time>2026-04-26T12:33:52.297Z</time></trkpt><trkpt lat="42.8944883" lon="11.5474333"><ele>615.25</ele><time>2026-04-26T12:33:53.296Z</time></trkpt><trkpt lat="42.8945367" lon="11.5476133"><ele>618.0</ele><time>2026-04-26T12:33:54.298Z</time></trkpt><trkpt lat="42.8945767" lon="11.5477933"><ele>620.75</ele><time>2026-04-26T12:33:55.297Z</time></trkpt><trkpt lat="42.8946083" lon="11.5479767"><ele>623.5</ele><time>2026-04-26T12:33:56.298Z</time></trkpt><trkpt lat="42.8946317" lon="11.548165"><ele>626.25</ele><time>2026-04-26T12:33:57.297Z</time></trkpt><trkpt lat="42.8946533" lon="11.5483583"><ele>629.0</ele><time>2026-04-26T12:33:58.297Z</time></trkpt><trkpt lat="42.8946817" lon="11.548555"><ele>630.3333333333333</ele><time>2026-04-26T12:33:59.295Z</time></trkpt><trkpt lat="42.894715" lon="11.5487533"><ele>631.6666666666666</ele><time>2026-04-26T12:34:00.295Z</time></trkpt><trkpt lat="42.8947567" lon="11.5489533"><ele>633.0</ele><time>2026-04-26T12:34:01.297Z</time></trkpt><trkpt lat="42.89481" lon="11.5491517"><ele>633.0</ele><time>2026-04-26T12:34:02.297Z</time></trkpt><trkpt lat="42.894875" lon="11.5493433"><ele>633.0</ele><time>2026-04-26T12:34:03.293Z</time></trkpt><trkpt lat="42.8949433" lon="11.5495317"><ele>633.0</ele><time>2026-04-26T12:34:04.295Z</time></trkpt><trkpt lat="42.8950133" lon="11.5497133"><ele>633.25</ele><time>2026-04-26T12:34:05.295Z</time></trkpt><trkpt lat="42.89508" lon="11.54989"><ele>633.5</ele><time>2026-04-26T12:34:06.296Z</time></trkpt><trkpt lat="42.8951467" lon="11.5500667"><ele>633.75</ele><time>2026-04-26T12:34:07.295Z</time></trkpt><trkpt lat="42.89522" lon="11.55025"><ele>634.0</ele><time>2026-04-26T12:34:08.297Z</time></trkpt><trkpt lat="42.8952967" lon="11.5504467"><ele>635.6666666666667</ele><time>2026-04-26T12:34:09.298Z</time></trkpt><trkpt lat="42.8953833" lon="11.5506617"><ele>637.3333333333334</ele><time>2026-04-26T12:34:10.297Z</time></trkpt><trkpt lat="42.8954717" lon="11.5508867"><ele>639.0</ele><time>2026-04-26T12:34:11.297Z</time></trkpt><trkpt lat="42.8955667" lon="11.5511267"><ele>641.3333333333334</ele><time>2026-04-26T12:34:12.298Z</time></trkpt><trkpt lat="42.8956633" lon="11.5513683"><ele>643.6666666666667</ele><time>2026-04-26T12:34:13.299Z</time></trkpt><trkpt lat="42.8957433" lon="11.5515983"><ele>646.0</ele><time>2026-04-26T12:34:14.298Z</time></trkpt><trkpt lat="42.8957983" lon="11.5518233"><ele>646.6666666666667</ele><time>2026-04-26T12:34:15.298Z</time></trkpt><trkpt lat="42.89583" lon="11.5520433"><ele>647.3333333333334</ele><time>2026-04-26T12:34:16.298Z</time></trkpt><trkpt lat="42.895855" lon="11.552255"><ele>648.0</ele><time>2026-04-26T12:34:17.296Z</time></trkpt><trkpt lat="42.8958883" lon="11.5524633"><ele>646.0</ele><time>2026-04-26T12:34:18.297Z</time></trkpt><trkpt lat="42.8959333" lon="11.5526567"><ele>644.0</ele><time>2026-04-26T12:34:19.295Z</time></trkpt><trkpt lat="42.8959983" lon="11.5528267"><ele>642.0</ele><time>2026-04-26T12:34:20.296Z</time></trkpt><trkpt lat="42.8960767" lon="11.5529683"><ele>640.0</ele><time>2026-04-26T12:34:21.294Z</time></trkpt><trkpt lat="42.8961767" lon="11.5530717"><ele>640.0</ele><time>2026-04-26T12:34:22.296Z</time></trkpt><trkpt lat="42.8962983" lon="11.5531383"><ele>640.0</ele><time>2026-04-26T12:34:23.295Z</time></trkpt><trkpt lat="42.8964467" lon="11.5532"><ele>640.0</ele><time>2026-04-26T12:34:24.298Z</time></trkpt><trkpt lat="42.896595" lon="11.553295"><ele>640.0</ele><time>2026-04-26T12:34:25.297Z</time></trkpt><trkpt lat="42.896735" lon="11.5534233"><ele>640.0</ele><time>2026-04-26T12:34:26.298Z</time></trkpt><trkpt lat="42.89687" lon="11.55355"><ele>640.0</ele><time>2026-04-26T12:34:27.297Z</time></trkpt><trkpt lat="42.8970167" lon="11.5536617"><ele>640.6666666666667</ele><time>2026-04-26T12:34:28.295Z</time></trkpt><trkpt lat="42.8971817" lon="11.553735"><ele>641.3333333333334</ele><time>2026-04-26T12:34:29.295Z</time></trkpt><trkpt lat="42.8973633" lon="11.5537667"><ele>642.0</ele><time>2026-04-26T12:34:30.298Z</time></trkpt><trkpt lat="42.89754" lon="11.553785"><ele>637.0</ele><time>2026-04-26T12:34:31.296Z</time></trkpt><trkpt lat="42.8976967" lon="11.5538333"><ele>632.0</ele><time>2026-04-26T12:34:32.298Z</time></trkpt><trkpt lat="42.89783" lon="11.5539233"><ele>627.0</ele><time>2026-04-26T12:34:33.297Z</time></trkpt><trkpt lat="42.8979367" lon="11.554055"><ele>627.0</ele><time>2026-04-26T12:34:34.297Z</time></trkpt><trkpt lat="42.8980133" lon="11.5542217"><ele>627.0</ele><time>2026-04-26T12:34:35.295Z</time></trkpt><trkpt lat="42.8980683" lon="11.5544133"><ele>627.0</ele><time>2026-04-26T12:34:36.298Z</time></trkpt><trkpt lat="42.898105" lon="11.5546117"><ele>627.0</ele><time>2026-04-26T12:34:37.297Z</time></trkpt><trkpt lat="42.8981467" lon="11.5547983"><ele>628.75</ele><time>2026-04-26T12:34:38.297Z</time></trkpt><trkpt lat="42.898205" lon="11.5549633"><ele>630.5</ele><time>2026-04-26T12:34:39.298Z</time></trkpt><trkpt lat="42.89829" lon="11.5550883"><ele>632.25</ele><time>2026-04-26T12:34:40.295Z</time></trkpt><trkpt lat="42.898415" lon="11.555185"><ele>634.0</ele><time>2026-04-26T12:34:41.297Z</time></trkpt><trkpt lat="42.8985567" lon="11.5552767"><ele>631.0</ele><time>2026-04-26T12:34:42.297Z</time></trkpt><trkpt lat="42.8986917" lon="11.5553917"><ele>628.0</ele><time>2026-04-26T12:34:43.298Z</time></trkpt><trkpt lat="42.89882" lon="11.5555433"><ele>625.0</ele><time>2026-04-26T12:34:44.298Z</time></trkpt><trkpt lat="42.8989433" lon="11.5557167"><ele>625.0</ele><time>2026-04-26T12:34:45.297Z</time></trkpt><trkpt lat="42.8990767" lon="11.5558917"><ele>625.0</ele><time>2026-04-26T12:34:46.294Z</time></trkpt><trkpt lat="42.8992067" lon="11.5560667"><ele>625.0</ele><time>2026-04-26T12:34:47.295Z</time></trkpt><trkpt lat="42.8993383" lon="11.5562383"><ele>622.6666666666667</ele><time>2026-04-26T12:34:48.296Z</time></trkpt><trkpt lat="42.8994767" lon="11.5564067"><ele>620.3333333333334</ele><time>2026-04-26T12:34:49.297Z</time></trkpt><trkpt lat="42.8996283" lon="11.5565567"><ele>618.0</ele><time>2026-04-26T12:34:50.296Z</time></trkpt><trkpt lat="42.8997933" lon="11.5566867"><ele>618.0</ele><time>2026-04-26T12:34:51.296Z</time></trkpt><trkpt lat="42.899965" lon="11.5567983"><ele>618.0</ele><time>2026-04-26T12:34:52.295Z</time></trkpt><trkpt lat="42.9001317" lon="11.5568933"><ele>618.0</ele><time>2026-04-26T12:34:53.296Z</time></trkpt><trkpt lat="42.900295" lon="11.55698"><ele>620.6666666666666</ele><time>2026-04-26T12:34:54.298Z</time></trkpt><trkpt lat="42.9004483" lon="11.557055"><ele>623.3333333333333</ele><time>2026-04-26T12:34:55.298Z</time></trkpt><trkpt lat="42.9005983" lon="11.5571083"><ele>626.0</ele><time>2026-04-26T12:34:56.299Z</time></trkpt><trkpt lat="42.90075" lon="11.557125"><ele>626.0</ele><time>2026-04-26T12:34:57.298Z</time></trkpt><trkpt lat="42.900905" lon="11.5571"><ele>626.0</ele><time>2026-04-26T12:34:58.299Z</time></trkpt><trkpt lat="42.9010583" lon="11.5570317"><ele>626.0</ele><time>2026-04-26T12:34:59.297Z</time></trkpt><trkpt lat="42.90121" lon="11.5569233"><ele>624.6666666666666</ele><time>2026-04-26T12:35:00.297Z</time></trkpt><trkpt lat="42.90135" lon="11.5567917"><ele>623.3333333333334</ele><time>2026-04-26T12:35:01.297Z</time></trkpt><trkpt lat="42.901485" lon="11.5566533"><ele>622.0</ele><time>2026-04-26T12:35:02.296Z</time></trkpt><trkpt lat="42.9016183" lon="11.5565217"><ele>622.0</ele><time>2026-04-26T12:35:03.297Z</time></trkpt><trkpt lat="42.9017417" lon="11.5563967"><ele>622.0</ele><time>2026-04-26T12:35:04.295Z</time></trkpt><trkpt lat="42.9018583" lon="11.5562783"><ele>622.0</ele><time>2026-04-26T12:35:05.296Z</time></trkpt><trkpt lat="42.9019667" lon="11.55617"><ele>622.0</ele><time>2026-04-26T12:35:06.296Z</time></trkpt><trkpt lat="42.902075" lon="11.5560667"><ele>622.5</ele><time>2026-04-26T12:35:07.295Z</time></trkpt><trkpt lat="42.90219" lon="11.5559783"><ele>623.0</ele><time>2026-04-26T12:35:08.296Z</time></trkpt><trkpt lat="42.9023133" lon="11.5559083"><ele>623.5</ele><time>2026-04-26T12:35:09.295Z</time></trkpt><trkpt lat="42.90245" lon="11.5558667"><ele>624.0</ele><time>2026-04-26T12:35:10.296Z</time></trkpt><trkpt lat="42.9025917" lon="11.5558433"><ele>628.25</ele><time>2026-04-26T12:35:11.295Z</time></trkpt><trkpt lat="42.9027383" lon="11.555835"><ele>632.5</ele><time>2026-04-26T12:35:12.299Z</time></trkpt><trkpt lat="42.902885" lon="11.555835"><ele>636.75</ele><time>2026-04-26T12:35:13.297Z</time></trkpt><trkpt lat="42.9030333" lon="11.5558417"><ele>641.0</ele><time>2026-04-26T12:35:14.298Z</time></trkpt><trkpt lat="42.9031767" lon="11.5558417"><ele>641.0</ele><time>2026-04-26T12:35:15.296Z</time></trkpt><trkpt lat="42.9033183" lon="11.5558417"><ele>641.0</ele><time>2026-04-26T12:35:16.297Z</time></trkpt><trkpt lat="42.90346" lon="11.5558483"><ele>641.0</ele><time>2026-04-26T12:35:17.296Z</time></trkpt><trkpt lat="42.9035967" lon="11.555855"><ele>641.0</ele><time>2026-04-26T12:35:18.295Z</time></trkpt><trkpt lat="42.90371" lon="11.5558567"><ele>641.0</ele><time>2026-04-26T12:35:19.295Z</time></trkpt><trkpt lat="42.9037983" lon="11.55587"><ele>641.0</ele><time>2026-04-26T12:35:20.297Z</time></trkpt><trkpt lat="42.9038667" lon="11.5559"><ele>641.0</ele><time>2026-04-26T12:35:21.297Z</time></trkpt><trkpt lat="42.9039" lon="11.5560517"><ele>641.0</ele><time>2026-04-26T12:35:23.296Z</time></trkpt><trkpt lat="42.903835" lon="11.5561833"><ele>641.0</ele><time>2026-04-26T12:35:25.298Z</time></trkpt><trkpt lat="42.9037333" lon="11.5562767"><ele>643.25</ele><time>2026-04-26T12:35:27.297Z</time></trkpt><trkpt lat="42.9036817" lon="11.5564183"><ele>645.5</ele><time>2026-04-26T12:35:29.297Z</time></trkpt><trkpt lat="42.9037033" lon="11.5565183"><ele>647.75</ele><time>2026-04-26T12:35:30.298Z</time></trkpt><trkpt lat="42.90378" lon="11.5566633"><ele>650.0</ele><time>2026-04-26T12:35:31.297Z</time></trkpt><trkpt lat="42.9039367" lon="11.5568067"><ele>650.0</ele><time>2026-04-26T12:35:32.296Z</time></trkpt><trkpt lat="42.90405" lon="11.556955"><ele>650.0</ele><time>2026-04-26T12:35:33.297Z</time></trkpt><trkpt lat="42.9042033" lon="11.5571333"><ele>650.0</ele><time>2026-04-26T12:35:34.297Z</time></trkpt><trkpt lat="42.9043433" lon="11.5573217"><ele>650.6666666666666</ele><time>2026-04-26T12:35:35.296Z</time></trkpt><trkpt lat="42.9044667" lon="11.55751"><ele>651.3333333333334</ele><time>2026-04-26T12:35:36.299Z</time></trkpt><trkpt lat="42.90457" lon="11.5576783"><ele>652.0</ele><time>2026-04-26T12:35:37.298Z</time></trkpt><trkpt lat="42.90464" lon="11.55785"><ele>654.25</ele><time>2026-04-26T12:35:38.298Z</time></trkpt><trkpt lat="42.90469" lon="11.5580217"><ele>656.5</ele><time>2026-04-26T12:35:39.298Z</time></trkpt><trkpt lat="42.9047133" lon="11.5581767"><ele>658.75</ele><time>2026-04-26T12:35:40.298Z</time></trkpt><trkpt lat="42.9047017" lon="11.558315"><ele>661.0</ele><time>2026-04-26T12:35:41.297Z</time></trkpt><trkpt lat="42.904655" lon="11.5584367"><ele>661.0</ele><time>2026-04-26T12:35:42.297Z</time></trkpt><trkpt lat="42.9045767" lon="11.558555"><ele>661.0</ele><time>2026-04-26T12:35:43.298Z</time></trkpt><trkpt lat="42.90448" lon="11.55868"><ele>661.0</ele><time>2026-04-26T12:35:44.295Z</time></trkpt><trkpt lat="42.904365" lon="11.5588133"><ele>661.0</ele><time>2026-04-26T12:35:45.295Z</time></trkpt><trkpt lat="42.9042417" lon="11.558965"><ele>664.3333333333334</ele><time>2026-04-26T12:35:46.296Z</time></trkpt><trkpt lat="42.9041133" lon="11.5591267"><ele>667.6666666666666</ele><time>2026-04-26T12:35:47.299Z</time></trkpt><trkpt lat="42.9039783" lon="11.5592917"><ele>671.0</ele><time>2026-04-26T12:35:48.297Z</time></trkpt><trkpt lat="42.90384" lon="11.5594567"><ele>672.0</ele><time>2026-04-26T12:35:49.297Z</time></trkpt><trkpt lat="42.9037017" lon="11.55961"><ele>673.0</ele><time>2026-04-26T12:35:50.299Z</time></trkpt><trkpt lat="42.9035767" lon="11.5597467"><ele>674.0</ele><time>2026-04-26T12:35:51.297Z</time></trkpt><trkpt lat="42.9034633" lon="11.55987"><ele>675.4000000000001</ele><time>2026-04-26T12:35:52.297Z</time></trkpt><trkpt lat="42.9033633" lon="11.559985"><ele>676.8</ele><time>2026-04-26T12:35:53.297Z</time></trkpt><trkpt lat="42.9032817" lon="11.5600883"><ele>678.2</ele><time>2026-04-26T12:35:54.298Z</time></trkpt><trkpt lat="42.9032217" lon="11.5601983"><ele>679.5999999999999</ele><time>2026-04-26T12:35:55.297Z</time></trkpt><trkpt lat="42.90319" lon="11.5603133"><ele>681.0</ele><time>2026-04-26T12:35:56.298Z</time></trkpt><trkpt lat="42.9031917" lon="11.5604333"><ele>681.5</ele><time>2026-04-26T12:35:57.298Z</time></trkpt><trkpt lat="42.903225" lon="11.560565"><ele>682.0</ele><time>2026-04-26T12:35:58.298Z</time></trkpt><trkpt lat="42.90329" lon="11.5607117"><ele>682.5</ele><time>2026-04-26T12:35:59.297Z</time></trkpt><trkpt lat="42.9033767" lon="11.5608683"><ele>683.0</ele><time>2026-04-26T12:36:00.297Z</time></trkpt><trkpt lat="42.9034733" lon="11.5610367"><ele>684.5</ele><time>2026-04-26T12:36:01.297Z</time></trkpt><trkpt lat="42.90357" lon="11.5612167"><ele>686.0</ele><time>2026-04-26T12:36:02.298Z</time></trkpt><trkpt lat="42.90365" lon="11.5613917"><ele>687.5</ele><time>2026-04-26T12:36:03.297Z</time></trkpt><trkpt lat="42.9037167" lon="11.56155"><ele>689.0</ele><time>2026-04-26T12:36:04.299Z</time></trkpt><trkpt lat="42.9037567" lon="11.56169"><ele>689.0</ele><time>2026-04-26T12:36:05.297Z</time></trkpt><trkpt lat="42.9037617" lon="11.5618017"><ele>689.0</ele><time>2026-04-26T12:36:06.297Z</time></trkpt><trkpt lat="42.9037433" lon="11.5618883"><ele>689.0</ele><time>2026-04-26T12:36:07.296Z</time></trkpt><trkpt lat="42.9036317" lon="11.5619817"><ele>689.0</ele><time>2026-04-26T12:36:09.297Z</time></trkpt><trkpt lat="42.9035367" lon="11.5619967"><ele>689.0</ele><time>2026-04-26T12:36:10.298Z</time></trkpt><trkpt lat="42.9034033" lon="11.5619783"><ele>693.25</ele><time>2026-04-26T12:36:11.297Z</time></trkpt><trkpt lat="42.9032583" lon="11.5619433"><ele>697.5</ele><time>2026-04-26T12:36:12.297Z</time></trkpt><trkpt lat="42.903115" lon="11.5619133"><ele>701.75</ele><time>2026-04-26T12:36:13.298Z</time></trkpt><trkpt lat="42.9029917" lon="11.5618983"><ele>706.0</ele><time>2026-04-26T12:36:14.299Z</time></trkpt><trkpt lat="42.9028917" lon="11.5618917"><ele>706.0</ele><time>2026-04-26T12:36:15.297Z</time></trkpt><trkpt lat="42.9028067" lon="11.5619117"><ele>706.0</ele><time>2026-04-26T12:36:16.299Z</time></trkpt><trkpt lat="42.9027417" lon="11.5619533"><ele>706.0</ele><time>2026-04-26T12:36:17.297Z</time></trkpt><trkpt lat="42.902695" lon="11.5621033"><ele>706.0</ele><time>2026-04-26T12:36:19.297Z</time></trkpt><trkpt lat="42.90272" lon="11.5621967"><ele>706.0</ele><time>2026-04-26T12:36:20.297Z</time></trkpt><trkpt lat="42.90279" lon="11.5623167"><ele>706.4</ele><time>2026-04-26T12:36:21.297Z</time></trkpt><trkpt lat="42.9028133" lon="11.5624333"><ele>706.8</ele><time>2026-04-26T12:36:22.298Z</time></trkpt><trkpt lat="42.9028133" lon="11.5625433"><ele>707.1999999999999</ele><time>2026-04-26T12:36:23.297Z</time></trkpt><trkpt lat="42.902745" lon="11.5626667"><ele>707.5999999999999</ele><time>2026-04-26T12:36:25.297Z</time></trkpt><trkpt lat="42.90267" lon="11.56267"><ele>708.0</ele><time>2026-04-26T12:36:26.298Z</time></trkpt><trkpt lat="42.90256" lon="11.562625"><ele>710.4</ele><time>2026-04-26T12:36:27.299Z</time></trkpt><trkpt lat="42.9024617" lon="11.5625683"><ele>712.8</ele><time>2026-04-26T12:36:28.294Z</time></trkpt><trkpt lat="42.90238" lon="11.5625383"><ele>715.2</ele><time>2026-04-26T12:36:29.296Z</time></trkpt><trkpt lat="42.9023033" lon="11.5625317"><ele>717.6</ele><time>2026-04-26T12:36:30.297Z</time></trkpt><trkpt lat="42.90224" lon="11.5625483"><ele>720.0</ele><time>2026-04-26T12:36:31.296Z</time></trkpt><trkpt lat="42.9021733" lon="11.562685"><ele>720.0</ele><time>2026-04-26T12:36:33.298Z</time></trkpt><trkpt lat="42.90218" lon="11.5627967"><ele>720.0</ele><time>2026-04-26T12:36:34.298Z</time></trkpt><trkpt lat="42.9022267" lon="11.5629383"><ele>720.0</ele><time>2026-04-26T12:36:35.299Z</time></trkpt><trkpt lat="42.902305" lon="11.5631383"><ele>720.0</ele><time>2026-04-26T12:36:36.299Z</time></trkpt><trkpt lat="42.9024167" lon="11.5633617"><ele>722.6666666666666</ele><time>2026-04-26T12:36:37.296Z</time></trkpt><trkpt lat="42.9025283" lon="11.563585"><ele>725.3333333333333</ele><time>2026-04-26T12:36:38.298Z</time></trkpt><trkpt lat="42.9026433" lon="11.563825"><ele>728.0</ele><time>2026-04-26T12:36:39.297Z</time></trkpt><trkpt lat="42.9027617" lon="11.5640917"><ele>728.0</ele><time>2026-04-26T12:36:40.297Z</time></trkpt><trkpt lat="42.90289" lon="11.5643717"><ele>728.0</ele><time>2026-04-26T12:36:41.297Z</time></trkpt><trkpt lat="42.90301" lon="11.5646633"><ele>733.5</ele><time>2026-04-26T12:36:42.299Z</time></trkpt><trkpt lat="42.9031467" lon="11.5649583"><ele>739.0</ele><time>2026-04-26T12:36:43.298Z</time></trkpt><trkpt lat="42.9032817" lon="11.5652567"><ele>740.5</ele><time>2026-04-26T12:36:44.298Z</time></trkpt><trkpt lat="42.9034117" lon="11.56554"><ele>742.0</ele><time>2026-04-26T12:36:45.297Z</time></trkpt><trkpt lat="42.903535" lon="11.5657967"><ele>742.0</ele><time>2026-04-26T12:36:46.293Z</time></trkpt><trkpt lat="42.9036467" lon="11.5660317"><ele>742.0</ele><time>2026-04-26T12:36:47.297Z</time></trkpt><trkpt lat="42.90375" lon="11.566245"><ele>742.0</ele><time>2026-04-26T12:36:48.296Z</time></trkpt><trkpt lat="42.90384" lon="11.5664367"><ele>743.3333333333334</ele><time>2026-04-26T12:36:49.298Z</time></trkpt><trkpt lat="42.90392" lon="11.5666167"><ele>744.6666666666666</ele><time>2026-04-26T12:36:50.298Z</time></trkpt><trkpt lat="42.9039867" lon="11.5668033"><ele>746.0</ele><time>2026-04-26T12:36:51.298Z</time></trkpt><trkpt lat="42.9040367" lon="11.567005"><ele>746.3333333333333</ele><time>2026-04-26T12:36:52.298Z</time></trkpt><trkpt lat="42.9040717" lon="11.567225"><ele>746.6666666666666</ele><time>2026-04-26T12:36:53.297Z</time></trkpt><trkpt lat="42.9041017" lon="11.5674433"><ele>747.0</ele><time>2026-04-26T12:36:54.296Z</time></trkpt><trkpt lat="42.9041233" lon="11.567675"><ele>747.3333333333334</ele><time>2026-04-26T12:36:55.297Z</time></trkpt><trkpt lat="42.904135" lon="11.567905"><ele>747.6666666666667</ele><time>2026-04-26T12:36:56.295Z</time></trkpt><trkpt lat="42.9041417" lon="11.5681167"><ele>748.0</ele><time>2026-04-26T12:36:57.298Z</time></trkpt><trkpt lat="42.9041317" lon="11.568315"><ele>748.0</ele><time>2026-04-26T12:36:58.298Z</time></trkpt><trkpt lat="42.904095" lon="11.5684983"><ele>748.0</ele><time>2026-04-26T12:36:59.297Z</time></trkpt><trkpt lat="42.90404" lon="11.56868"><ele>748.0</ele><time>2026-04-26T12:37:00.298Z</time></trkpt><trkpt lat="42.9039567" lon="11.5688667"><ele>748.0</ele><time>2026-04-26T12:37:01.299Z</time></trkpt><trkpt lat="42.9038617" lon="11.56906"><ele>746.3333333333334</ele><time>2026-04-26T12:37:02.298Z</time></trkpt><trkpt lat="42.9037583" lon="11.56926"><ele>744.6666666666666</ele><time>2026-04-26T12:37:03.297Z</time></trkpt><trkpt lat="42.903655" lon="11.5694583"><ele>743.0</ele><time>2026-04-26T12:37:04.297Z</time></trkpt><trkpt lat="42.9035517" lon="11.569645"><ele>741.75</ele><time>2026-04-26T12:37:05.297Z</time></trkpt><trkpt lat="42.9034583" lon="11.56982"><ele>740.5</ele><time>2026-04-26T12:37:06.298Z</time></trkpt><trkpt lat="42.903375" lon="11.5699817"><ele>739.25</ele><time>2026-04-26T12:37:07.297Z</time></trkpt><trkpt lat="42.9033083" lon="11.5701333"><ele>738.0</ele><time>2026-04-26T12:37:08.294Z</time></trkpt><trkpt lat="42.9032683" lon="11.5702917"><ele>744.5</ele><time>2026-04-26T12:37:09.298Z</time></trkpt><trkpt lat="42.9032583" lon="11.570455"><ele>751.0</ele><time>2026-04-26T12:37:10.294Z</time></trkpt><trkpt lat="42.9032817" lon="11.57063"><ele>757.5</ele><time>2026-04-26T12:37:11.299Z</time></trkpt><trkpt lat="42.9033233" lon="11.5708217"><ele>764.0</ele><time>2026-04-26T12:37:12.298Z</time></trkpt><trkpt lat="42.9033733" lon="11.5710183"><ele>759.0</ele><time>2026-04-26T12:37:13.298Z</time></trkpt><trkpt lat="42.903425" lon="11.5712317"><ele>754.0</ele><time>2026-04-26T12:37:14.299Z</time></trkpt><trkpt lat="42.9034833" lon="11.5714533"><ele>749.0</ele><time>2026-04-26T12:37:15.297Z</time></trkpt><trkpt lat="42.903545" lon="11.57168"><ele>749.0</ele><time>2026-04-26T12:37:16.298Z</time></trkpt><trkpt lat="42.9036067" lon="11.5719083"><ele>749.0</ele><time>2026-04-26T12:37:17.298Z</time></trkpt><trkpt lat="42.9036617" lon="11.5721367"><ele>749.0</ele><time>2026-04-26T12:37:18.297Z</time></trkpt><trkpt lat="42.903705" lon="11.5723583"><ele>749.0</ele><time>2026-04-26T12:37:19.295Z</time></trkpt><trkpt lat="42.903735" lon="11.57257"><ele>749.0</ele><time>2026-04-26T12:37:20.297Z</time></trkpt><trkpt lat="42.9037483" lon="11.572785"><ele>749.0</ele><time>2026-04-26T12:37:21.296Z</time></trkpt><trkpt lat="42.9037517" lon="11.5730083"><ele>749.0</ele><time>2026-04-26T12:37:22.295Z</time></trkpt><trkpt lat="42.9037517" lon="11.5732417"><ele>749.0</ele><time>2026-04-26T12:37:23.296Z</time></trkpt><trkpt lat="42.9037467" lon="11.5734817"><ele>749.0</ele><time>2026-04-26T12:37:24.299Z</time></trkpt><trkpt lat="42.9037367" lon="11.5737217"><ele>748.0</ele><time>2026-04-26T12:37:25.297Z</time></trkpt><trkpt lat="42.9037167" lon="11.57396"><ele>747.0</ele><time>2026-04-26T12:37:26.298Z</time></trkpt><trkpt lat="42.90369" lon="11.5741983"><ele>746.0</ele><time>2026-04-26T12:37:27.299Z</time></trkpt><trkpt lat="42.9036517" lon="11.5744333"><ele>745.6666666666666</ele><time>2026-04-26T12:37:28.297Z</time></trkpt><trkpt lat="42.903605" lon="11.5746667"><ele>745.3333333333334</ele><time>2026-04-26T12:37:29.298Z</time></trkpt><trkpt lat="42.903555" lon="11.5748967"><ele>745.0</ele><time>2026-04-26T12:37:30.296Z</time></trkpt><trkpt lat="42.9034983" lon="11.575125"><ele>745.0</ele><time>2026-04-26T12:37:31.298Z</time></trkpt><trkpt lat="42.9034417" lon="11.5753483"><ele>745.0</ele><time>2026-04-26T12:37:32.297Z</time></trkpt><trkpt lat="42.9033867" lon="11.5755517"><ele>745.0</ele><time>2026-04-26T12:37:33.297Z</time></trkpt><trkpt lat="42.903345" lon="11.575735"><ele>750.0</ele><time>2026-04-26T12:37:34.297Z</time></trkpt><trkpt lat="42.9033167" lon="11.5758967"><ele>755.0</ele><time>2026-04-26T12:37:35.297Z</time></trkpt><trkpt lat="42.9033183" lon="11.5760483"><ele>760.0</ele><time>2026-04-26T12:37:36.297Z</time></trkpt><trkpt lat="42.9033433" lon="11.5762"><ele>765.0</ele><time>2026-04-26T12:37:37.298Z</time></trkpt><trkpt lat="42.9034033" lon="11.5763433"><ele>761.0</ele><time>2026-04-26T12:37:38.298Z</time></trkpt><trkpt lat="42.9035067" lon="11.57647"><ele>757.0</ele><time>2026-04-26T12:37:39.296Z</time></trkpt><trkpt lat="42.90364" lon="11.5765767"><ele>753.0</ele><time>2026-04-26T12:37:40.297Z</time></trkpt><trkpt lat="42.9037767" lon="11.5766783"><ele>749.0</ele><time>2026-04-26T12:37:41.296Z</time></trkpt><trkpt lat="42.9039017" lon="11.57679"><ele>749.0</ele><time>2026-04-26T12:37:42.298Z</time></trkpt><trkpt lat="42.904" lon="11.5769283"><ele>749.0</ele><time>2026-04-26T12:37:43.299Z</time></trkpt><trkpt lat="42.9040783" lon="11.5770883"><ele>749.0</ele><time>2026-04-26T12:37:44.298Z</time></trkpt><trkpt lat="42.9041267" lon="11.5772633"><ele>749.0</ele><time>2026-04-26T12:37:45.298Z</time></trkpt><trkpt lat="42.9041517" lon="11.5774617"><ele>749.0</ele><time>2026-04-26T12:37:46.297Z</time></trkpt><trkpt lat="42.9041617" lon="11.5776783"><ele>749.0</ele><time>2026-04-26T12:37:47.299Z</time></trkpt><trkpt lat="42.9041667" lon="11.577885"><ele>749.0</ele><time>2026-04-26T12:37:48.297Z</time></trkpt><trkpt lat="42.9041867" lon="11.5780767"><ele>749.0</ele><time>2026-04-26T12:37:49.297Z</time></trkpt><trkpt lat="42.9042333" lon="11.5782483"><ele>749.0</ele><time>2026-04-26T12:37:50.298Z</time></trkpt><trkpt lat="42.904305" lon="11.5783983"><ele>749.0</ele><time>2026-04-26T12:37:51.299Z</time></trkpt><trkpt lat="42.9044" lon="11.5785233"><ele>749.0</ele><time>2026-04-26T12:37:52.296Z</time></trkpt><trkpt lat="42.9045367" lon="11.5786233"><ele>749.6666666666666</ele><time>2026-04-26T12:37:53.298Z</time></trkpt><trkpt lat="42.9046933" lon="11.5787033"><ele>750.3333333333334</ele><time>2026-04-26T12:37:54.298Z</time></trkpt><trkpt lat="42.9048433" lon="11.5787817"><ele>751.0</ele><time>2026-04-26T12:37:55.299Z</time></trkpt><trkpt lat="42.9049883" lon="11.57886"><ele>750.75</ele><time>2026-04-26T12:37:56.3Z</time></trkpt><trkpt lat="42.9051217" lon="11.5789467"><ele>750.5</ele><time>2026-04-26T12:37:57.294Z</time></trkpt><trkpt lat="42.9052417" lon="11.579035"><ele>750.25</ele><time>2026-04-26T12:37:58.298Z</time></trkpt><trkpt lat="42.9053367" lon="11.5791333"><ele>750.0</ele><time>2026-04-26T12:37:59.295Z</time></trkpt><trkpt lat="42.905405" lon="11.5792533"><ele>750.0</ele><time>2026-04-26T12:38:00.298Z</time></trkpt><trkpt lat="42.9054483" lon="11.5794117"><ele>750.0</ele><time>2026-04-26T12:38:01.298Z</time></trkpt><trkpt lat="42.9054717" lon="11.5796017"><ele>750.0</ele><time>2026-04-26T12:38:02.297Z</time></trkpt><trkpt lat="42.9054867" lon="11.579815"><ele>750.0</ele><time>2026-04-26T12:38:03.297Z</time></trkpt><trkpt lat="42.9055017" lon="11.58005"><ele>751.6666666666666</ele><time>2026-04-26T12:38:04.295Z</time></trkpt><trkpt lat="42.9055217" lon="11.5803067"><ele>753.3333333333333</ele><time>2026-04-26T12:38:05.297Z</time></trkpt><trkpt lat="42.9055417" lon="11.5805767"><ele>755.0</ele><time>2026-04-26T12:38:06.297Z</time></trkpt><trkpt lat="42.9055633" lon="11.5808467"><ele>755.0</ele><time>2026-04-26T12:38:07.297Z</time></trkpt><trkpt lat="42.9055833" lon="11.5811017"><ele>755.0</ele><time>2026-04-26T12:38:08.299Z</time></trkpt><trkpt lat="42.9056083" lon="11.5813483"><ele>755.0</ele><time>2026-04-26T12:38:09.295Z</time></trkpt><trkpt lat="42.9056467" lon="11.5815833"><ele>755.0</ele><time>2026-04-26T12:38:10.296Z</time></trkpt><trkpt lat="42.9057067" lon="11.581825"><ele>755.0</ele><time>2026-04-26T12:38:11.297Z</time></trkpt><trkpt lat="42.90579" lon="11.5820733"><ele>755.0</ele><time>2026-04-26T12:38:12.298Z</time></trkpt><trkpt lat="42.9058917" lon="11.582325"><ele>754.6666666666666</ele><time>2026-04-26T12:38:13.296Z</time></trkpt><trkpt lat="42.9059967" lon="11.582575"><ele>754.3333333333334</ele><time>2026-04-26T12:38:14.296Z</time></trkpt><trkpt lat="42.9061033" lon="11.5828283"><ele>754.0</ele><time>2026-04-26T12:38:15.296Z</time></trkpt><trkpt lat="42.906215" lon="11.5830667"><ele>754.0</ele><time>2026-04-26T12:38:16.298Z</time></trkpt><trkpt lat="42.9063167" lon="11.583285"><ele>754.0</ele><time>2026-04-26T12:38:17.298Z</time></trkpt><trkpt lat="42.9064183" lon="11.5834933"><ele>754.0</ele><time>2026-04-26T12:38:18.298Z</time></trkpt><trkpt lat="42.906515" lon="11.583685"><ele>753.6666666666667</ele><time>2026-04-26T12:38:19.298Z</time></trkpt><trkpt lat="42.906605" lon="11.5838633"><ele>753.3333333333334</ele><time>2026-04-26T12:38:20.298Z</time></trkpt><trkpt lat="42.9067067" lon="11.58403"><ele>753.0</ele><time>2026-04-26T12:38:21.298Z</time></trkpt><trkpt lat="42.9068183" lon="11.5841833"><ele>753.0</ele><time>2026-04-26T12:38:22.298Z</time></trkpt><trkpt lat="42.906955" lon="11.5843183"><ele>753.0</ele><time>2026-04-26T12:38:23.298Z</time></trkpt><trkpt lat="42.90711" lon="11.5844417"><ele>753.0</ele><time>2026-04-26T12:38:24.297Z</time></trkpt><trkpt lat="42.9072783" lon="11.5845533"><ele>753.3333333333334</ele><time>2026-04-26T12:38:25.298Z</time></trkpt><trkpt lat="42.907455" lon="11.5846617"><ele>753.6666666666667</ele><time>2026-04-26T12:38:26.297Z</time></trkpt><trkpt lat="42.9076333" lon="11.5847683"><ele>754.0</ele><time>2026-04-26T12:38:27.297Z</time></trkpt><trkpt lat="42.9078083" lon="11.58487"><ele>754.0</ele><time>2026-04-26T12:38:28.298Z</time></trkpt><trkpt lat="42.9079783" lon="11.5849633"><ele>754.0</ele><time>2026-04-26T12:38:29.299Z</time></trkpt><trkpt lat="42.908145" lon="11.5850417"><ele>754.0</ele><time>2026-04-26T12:38:30.298Z</time></trkpt><trkpt lat="42.9083133" lon="11.5851"><ele>754.3333333333334</ele><time>2026-04-26T12:38:31.298Z</time></trkpt><trkpt lat="42.9084783" lon="11.5851217"><ele>754.6666666666666</ele><time>2026-04-26T12:38:32.298Z</time></trkpt><trkpt lat="42.9086533" lon="11.585105"><ele>755.0</ele><time>2026-04-26T12:38:33.298Z</time></trkpt><trkpt lat="42.9088333" lon="11.58505"><ele>755.0</ele><time>2026-04-26T12:38:34.299Z</time></trkpt><trkpt lat="42.90902" lon="11.5849667"><ele>755.0</ele><time>2026-04-26T12:38:35.299Z</time></trkpt><trkpt lat="42.909205" lon="11.5848617"><ele>755.0</ele><time>2026-04-26T12:38:36.299Z</time></trkpt><trkpt lat="42.909385" lon="11.584745"><ele>755.3333333333333</ele><time>2026-04-26T12:38:37.298Z</time></trkpt><trkpt lat="42.9095633" lon="11.5846183"><ele>755.6666666666666</ele><time>2026-04-26T12:38:38.298Z</time></trkpt><trkpt lat="42.9097267" lon="11.5844817"><ele>756.0</ele><time>2026-04-26T12:38:39.298Z</time></trkpt><trkpt lat="42.90987" lon="11.58434"><ele>756.0</ele><time>2026-04-26T12:38:40.296Z</time></trkpt><trkpt lat="42.9100033" lon="11.5842167"><ele>756.0</ele><time>2026-04-26T12:38:41.296Z</time></trkpt><trkpt lat="42.9101383" lon="11.5841217"><ele>756.0</ele><time>2026-04-26T12:38:42.297Z</time></trkpt><trkpt lat="42.9102767" lon="11.5840517"><ele>756.5</ele><time>2026-04-26T12:38:43.296Z</time></trkpt><trkpt lat="42.9104167" lon="11.58401"><ele>757.0</ele><time>2026-04-26T12:38:44.297Z</time></trkpt><trkpt lat="42.91054" lon="11.583995"><ele>757.5</ele><time>2026-04-26T12:38:45.296Z</time></trkpt><trkpt lat="42.9106483" lon="11.5840083"><ele>758.0</ele><time>2026-04-26T12:38:46.296Z</time></trkpt><trkpt lat="42.9107417" lon="11.584055"><ele>758.0</ele><time>2026-04-26T12:38:47.296Z</time></trkpt><trkpt lat="42.9108283" lon="11.584145"><ele>758.0</ele><time>2026-04-26T12:38:48.299Z</time></trkpt><trkpt lat="42.9109117" lon="11.5842683"><ele>758.0</ele><time>2026-04-26T12:38:49.298Z</time></trkpt><trkpt lat="42.91099" lon="11.5844133"><ele>758.0</ele><time>2026-04-26T12:38:50.299Z</time></trkpt><trkpt lat="42.911065" lon="11.584555"><ele>759.75</ele><time>2026-04-26T12:38:51.298Z</time></trkpt><trkpt lat="42.9111433" lon="11.5846717"><ele>761.5</ele><time>2026-04-26T12:38:52.297Z</time></trkpt><trkpt lat="42.91125" lon="11.5847567"><ele>763.25</ele><time>2026-04-26T12:38:53.298Z</time></trkpt><trkpt lat="42.9113817" lon="11.5848217"><ele>765.0</ele><time>2026-04-26T12:38:54.298Z</time></trkpt><trkpt lat="42.91154" lon="11.5848817"><ele>765.0</ele><time>2026-04-26T12:38:55.298Z</time></trkpt><trkpt lat="42.9117117" lon="11.5849333"><ele>765.0</ele><time>2026-04-26T12:38:56.298Z</time></trkpt><trkpt lat="42.91189" lon="11.5849867"><ele>765.0</ele><time>2026-04-26T12:38:57.297Z</time></trkpt><trkpt lat="42.9120733" lon="11.585035"><ele>765.3333333333334</ele><time>2026-04-26T12:38:58.298Z</time></trkpt><trkpt lat="42.9122717" lon="11.5850767"><ele>765.6666666666667</ele><time>2026-04-26T12:38:59.296Z</time></trkpt><trkpt lat="42.91247" lon="11.5851083"><ele>766.0</ele><time>2026-04-26T12:39:00.299Z</time></trkpt><trkpt lat="42.912665" lon="11.5851417"><ele>766.0</ele><time>2026-04-26T12:39:01.296Z</time></trkpt><trkpt lat="42.9128517" lon="11.58517"><ele>766.0</ele><time>2026-04-26T12:39:02.297Z</time></trkpt><trkpt lat="42.913025" lon="11.5851917"><ele>766.0</ele><time>2026-04-26T12:39:03.296Z</time></trkpt><trkpt lat="42.9131883" lon="11.5851933"><ele>766.0</ele><time>2026-04-26T12:39:04.296Z</time></trkpt><trkpt lat="42.9133367" lon="11.5851533"><ele>766.0</ele><time>2026-04-26T12:39:05.295Z</time></trkpt><trkpt lat="42.9134783" lon="11.5850783"><ele>766.0</ele><time>2026-04-26T12:39:06.298Z</time></trkpt><trkpt lat="42.9136117" lon="11.5849983"><ele>766.0</ele><time>2026-04-26T12:39:07.299Z</time></trkpt><trkpt lat="42.9137417" lon="11.5849383"><ele>767.5</ele><time>2026-04-26T12:39:08.296Z</time></trkpt><trkpt lat="42.913875" lon="11.5849017"><ele>769.0</ele><time>2026-04-26T12:39:09.297Z</time></trkpt><trkpt lat="42.9140267" lon="11.58489"><ele>770.5</ele><time>2026-04-26T12:39:10.299Z</time></trkpt><trkpt lat="42.9141883" lon="11.58489"><ele>772.0</ele><time>2026-04-26T12:39:11.299Z</time></trkpt><trkpt lat="42.9143517" lon="11.58489"><ele>772.25</ele><time>2026-04-26T12:39:12.297Z</time></trkpt><trkpt lat="42.91451" lon="11.5848867"><ele>772.5</ele><time>2026-04-26T12:39:13.296Z</time></trkpt><trkpt lat="42.9146583" lon="11.5848917"><ele>772.75</ele><time>2026-04-26T12:39:14.299Z</time></trkpt><trkpt lat="42.9147983" lon="11.5849"><ele>773.0</ele><time>2026-04-26T12:39:15.299Z</time></trkpt><trkpt lat="42.9149333" lon="11.584905"><ele>773.0</ele><time>2026-04-26T12:39:16.298Z</time></trkpt><trkpt lat="42.9150633" lon="11.5849167"><ele>773.0</ele><time>2026-04-26T12:39:17.298Z</time></trkpt><trkpt lat="42.915185" lon="11.5849217"><ele>773.0</ele><time>2026-04-26T12:39:18.296Z</time></trkpt><trkpt lat="42.9152967" lon="11.5849267"><ele>773.0</ele><time>2026-04-26T12:39:19.296Z</time></trkpt><trkpt lat="42.9154017" lon="11.5849433"><ele>772.25</ele><time>2026-04-26T12:39:20.296Z</time></trkpt><trkpt lat="42.9155033" lon="11.585"><ele>771.5</ele><time>2026-04-26T12:39:21.296Z</time></trkpt><trkpt lat="42.9156" lon="11.585105"><ele>770.75</ele><time>2026-04-26T12:39:22.295Z</time></trkpt><trkpt lat="42.9156933" lon="11.5852483"><ele>770.0</ele><time>2026-04-26T12:39:23.297Z</time></trkpt><trkpt lat="42.915785" lon="11.5854133"><ele>770.0</ele><time>2026-04-26T12:39:24.297Z</time></trkpt><trkpt lat="42.915875" lon="11.5855767"><ele>770.0</ele><time>2026-04-26T12:39:25.297Z</time></trkpt><trkpt lat="42.9159783" lon="11.5857133"><ele>770.0</ele><time>2026-04-26T12:39:26.294Z</time></trkpt><trkpt lat="42.9160967" lon="11.5858133"><ele>770.0</ele><time>2026-04-26T12:39:27.296Z</time></trkpt><trkpt lat="42.916225" lon="11.585885"><ele>766.25</ele><time>2026-04-26T12:39:28.297Z</time></trkpt><trkpt lat="42.9163517" lon="11.5859417"><ele>762.5</ele><time>2026-04-26T12:39:29.295Z</time></trkpt><trkpt lat="42.9164783" lon="11.5859883"><ele>758.75</ele><time>2026-04-26T12:39:30.298Z</time></trkpt><trkpt lat="42.91661" lon="11.5860217"><ele>755.0</ele><time>2026-04-26T12:39:31.296Z</time></trkpt><trkpt lat="42.916745" lon="11.5860333"><ele>752.25</ele><time>2026-04-26T12:39:32.297Z</time></trkpt><trkpt lat="42.916875" lon="11.586035"><ele>749.5</ele><time>2026-04-26T12:39:33.299Z</time></trkpt><trkpt lat="42.917005" lon="11.5860367"><ele>746.75</ele><time>2026-04-26T12:39:34.296Z</time></trkpt><trkpt lat="42.9171317" lon="11.58605"><ele>744.0</ele><time>2026-04-26T12:39:35.296Z</time></trkpt><trkpt lat="42.917245" lon="11.5860883"><ele>744.0</ele><time>2026-04-26T12:39:36.298Z</time></trkpt><trkpt lat="42.9173467" lon="11.586165"><ele>744.0</ele><time>2026-04-26T12:39:37.298Z</time></trkpt><trkpt lat="42.91744" lon="11.58626"><ele>744.0</ele><time>2026-04-26T12:39:38.299Z</time></trkpt><trkpt lat="42.9175267" lon="11.5863533"><ele>744.0</ele><time>2026-04-26T12:39:39.298Z</time></trkpt><trkpt lat="42.91761" lon="11.5864467"><ele>744.0</ele><time>2026-04-26T12:39:40.296Z</time></trkpt><trkpt lat="42.9176917" lon="11.5865417"><ele>744.0</ele><time>2026-04-26T12:39:41.297Z</time></trkpt><trkpt lat="42.9177733" lon="11.5866367"><ele>744.0</ele><time>2026-04-26T12:39:42.299Z</time></trkpt><trkpt lat="42.917855" lon="11.5867283"><ele>744.0</ele><time>2026-04-26T12:39:43.297Z</time></trkpt><trkpt lat="42.9179333" lon="11.5868133"><ele>744.0</ele><time>2026-04-26T12:39:44.299Z</time></trkpt><trkpt lat="42.91801" lon="11.5869"><ele>744.0</ele><time>2026-04-26T12:39:45.296Z</time></trkpt><trkpt lat="42.9180883" lon="11.5869967"><ele>744.0</ele><time>2026-04-26T12:39:46.299Z</time></trkpt><trkpt lat="42.918165" lon="11.5870933"><ele>744.0</ele><time>2026-04-26T12:39:47.296Z</time></trkpt><trkpt lat="42.9182517" lon="11.5872"><ele>744.0</ele><time>2026-04-26T12:39:48.297Z</time></trkpt><trkpt lat="42.91834" lon="11.5873083"><ele>744.0</ele><time>2026-04-26T12:39:49.295Z</time></trkpt><trkpt lat="42.9184367" lon="11.5874033"><ele>745.2</ele><time>2026-04-26T12:39:50.296Z</time></trkpt><trkpt lat="42.9185383" lon="11.587475"><ele>746.4000000000001</ele><time>2026-04-26T12:39:51.295Z</time></trkpt><trkpt lat="42.918645" lon="11.5875283"><ele>747.6</ele><time>2026-04-26T12:39:52.295Z</time></trkpt><trkpt lat="42.9187533" lon="11.58756"><ele>748.8</ele><time>2026-04-26T12:39:53.296Z</time></trkpt><trkpt lat="42.918855" lon="11.58759"><ele>750.0</ele><time>2026-04-26T12:39:54.297Z</time></trkpt><trkpt lat="42.918955" lon="11.5876233"><ele>750.0</ele><time>2026-04-26T12:39:55.296Z</time></trkpt><trkpt lat="42.919045" lon="11.5876583"><ele>750.0</ele><time>2026-04-26T12:39:56.298Z</time></trkpt><trkpt lat="42.919125" lon="11.5876933"><ele>750.0</ele><time>2026-04-26T12:39:57.296Z</time></trkpt><trkpt lat="42.9192017" lon="11.5877167"><ele>750.0</ele><time>2026-04-26T12:39:58.296Z</time></trkpt><trkpt lat="42.9192717" lon="11.5877233"><ele>750.0</ele><time>2026-04-26T12:39:59.297Z</time></trkpt><trkpt lat="42.919335" lon="11.5877133"><ele>750.0</ele><time>2026-04-26T12:40:00.299Z</time></trkpt><trkpt lat="42.919395" lon="11.5876767"><ele>750.0</ele><time>2026-04-26T12:40:01.299Z</time></trkpt><trkpt lat="42.9194533" lon="11.5876133"><ele>750.0</ele><time>2026-04-26T12:40:02.295Z</time></trkpt><trkpt lat="42.9195133" lon="11.5875367"><ele>750.0</ele><time>2026-04-26T12:40:03.295Z</time></trkpt><trkpt lat="42.9195733" lon="11.587455"><ele>750.0</ele><time>2026-04-26T12:40:04.297Z</time></trkpt><trkpt lat="42.9196383" lon="11.5873717"><ele>750.0</ele><time>2026-04-26T12:40:05.296Z</time></trkpt><trkpt lat="42.919705" lon="11.5872883"><ele>750.0</ele><time>2026-04-26T12:40:06.297Z</time></trkpt><trkpt lat="42.9197733" lon="11.587205"><ele>750.0</ele><time>2026-04-26T12:40:07.299Z</time></trkpt><trkpt lat="42.9198433" lon="11.5871217"><ele>750.0</ele><time>2026-04-26T12:40:08.298Z</time></trkpt><trkpt lat="42.9199167" lon="11.587035"><ele>750.0</ele><time>2026-04-26T12:40:09.299Z</time></trkpt><trkpt lat="42.9199933" lon="11.5869483"><ele>750.0</ele><time>2026-04-26T12:40:10.297Z</time></trkpt><trkpt lat="42.92007" lon="11.5868617"><ele>750.0</ele><time>2026-04-26T12:40:11.296Z</time></trkpt><trkpt lat="42.9201517" lon="11.5867817"><ele>749.2</ele><time>2026-04-26T12:40:12.3Z</time></trkpt><trkpt lat="42.920235" lon="11.58671"><ele>748.4</ele><time>2026-04-26T12:40:13.296Z</time></trkpt><trkpt lat="42.9203217" lon="11.5866467"><ele>747.5999999999999</ele><time>2026-04-26T12:40:14.295Z</time></trkpt><trkpt lat="42.9204033" lon="11.5865783"><ele>746.8</ele><time>2026-04-26T12:40:15.297Z</time></trkpt><trkpt lat="42.9204783" lon="11.5865033"><ele>746.0</ele><time>2026-04-26T12:40:16.297Z</time></trkpt><trkpt lat="42.9205433" lon="11.5864167"><ele>746.0</ele><time>2026-04-26T12:40:17.299Z</time></trkpt><trkpt lat="42.9206017" lon="11.5863167"><ele>746.0</ele><time>2026-04-26T12:40:18.294Z</time></trkpt><trkpt lat="42.920655" lon="11.5861967"><ele>746.0</ele><time>2026-04-26T12:40:19.296Z</time></trkpt><trkpt lat="42.9207083" lon="11.5860683"><ele>746.0</ele><time>2026-04-26T12:40:20.297Z</time></trkpt><trkpt lat="42.9207633" lon="11.5859483"><ele>746.0</ele><time>2026-04-26T12:40:21.297Z</time></trkpt><trkpt lat="42.9208067" lon="11.5858317"><ele>746.1666666666666</ele><time>2026-04-26T12:40:22.296Z</time></trkpt><trkpt lat="42.9208417" lon="11.5857083"><ele>746.3333333333333</ele><time>2026-04-26T12:40:23.294Z</time></trkpt><trkpt lat="42.92086" lon="11.5855883"><ele>746.5</ele><time>2026-04-26T12:40:24.295Z</time></trkpt><trkpt lat="42.9208533" lon="11.5854667"><ele>746.6666666666666</ele><time>2026-04-26T12:40:25.296Z</time></trkpt><trkpt lat="42.9208383" lon="11.58535"><ele>746.8333333333334</ele><time>2026-04-26T12:40:26.297Z</time></trkpt><trkpt lat="42.9208133" lon="11.5852417"><ele>747.0</ele><time>2026-04-26T12:40:27.297Z</time></trkpt><trkpt lat="42.9207783" lon="11.5851517"><ele>746.0</ele><time>2026-04-26T12:40:28.295Z</time></trkpt><trkpt lat="42.9207483" lon="11.585075"><ele>745.0</ele><time>2026-04-26T12:40:29.296Z</time></trkpt><trkpt lat="42.9206967" lon="11.584965"><ele>744.0</ele><time>2026-04-26T12:40:31.296Z</time></trkpt><trkpt lat="42.9206717" lon="11.5848833"><ele>743.0</ele><time>2026-04-26T12:40:33.296Z</time></trkpt><trkpt lat="42.9206383" lon="11.5847533"><ele>742.0</ele><time>2026-04-26T12:40:53.296Z</time></trkpt><trkpt lat="42.9205933" lon="11.5846217"><ele>741.0</ele><time>2026-04-26T12:40:55.296Z</time></trkpt><trkpt lat="42.9205933" lon="11.5844517"><ele>739.5999999999999</ele><time>2026-04-26T12:40:57.296Z</time></trkpt><trkpt lat="42.9206333" lon="11.5843633"><ele>738.2</ele><time>2026-04-26T12:40:58.297Z</time></trkpt><trkpt lat="42.9207033" lon="11.58429"><ele>736.8</ele><time>2026-04-26T12:40:59.297Z</time></trkpt><trkpt lat="42.9208167" lon="11.5842333"><ele>735.4000000000001</ele><time>2026-04-26T12:41:00.299Z</time></trkpt><trkpt lat="42.920945" lon="11.5841983"><ele>734.0</ele><time>2026-04-26T12:41:01.299Z</time></trkpt><trkpt lat="42.9210683" lon="11.5841833"><ele>732.0</ele><time>2026-04-26T12:41:02.3Z</time></trkpt><trkpt lat="42.9211767" lon="11.5841917"><ele>730.0</ele><time>2026-04-26T12:41:03.298Z</time></trkpt><trkpt lat="42.9212733" lon="11.584235"><ele>728.0</ele><time>2026-04-26T12:41:04.297Z</time></trkpt><trkpt lat="42.921365" lon="11.5843117"><ele>726.0</ele><time>2026-04-26T12:41:05.299Z</time></trkpt><trkpt lat="42.9214683" lon="11.5843917"><ele>724.0</ele><time>2026-04-26T12:41:06.299Z</time></trkpt><trkpt lat="42.9215883" lon="11.5844533"><ele>724.0</ele><time>2026-04-26T12:41:07.298Z</time></trkpt><trkpt lat="42.9217167" lon="11.5844783"><ele>724.0</ele><time>2026-04-26T12:41:08.3Z</time></trkpt><trkpt lat="42.921845" lon="11.5844817"><ele>724.0</ele><time>2026-04-26T12:41:09.296Z</time></trkpt><trkpt lat="42.9219667" lon="11.5844633"><ele>724.0</ele><time>2026-04-26T12:41:10.297Z</time></trkpt><trkpt lat="42.9220733" lon="11.584435"><ele>722.4000000000001</ele><time>2026-04-26T12:41:11.299Z</time></trkpt><trkpt lat="42.9221583" lon="11.5843783"><ele>720.8</ele><time>2026-04-26T12:41:12.298Z</time></trkpt><trkpt lat="42.9222317" lon="11.5842933"><ele>719.2</ele><time>2026-04-26T12:41:13.298Z</time></trkpt><trkpt lat="42.9223017" lon="11.58418"><ele>717.5999999999999</ele><time>2026-04-26T12:41:14.298Z</time></trkpt><trkpt lat="42.9223783" lon="11.584045"><ele>716.0</ele><time>2026-04-26T12:41:15.298Z</time></trkpt><trkpt lat="42.9224583" lon="11.5839"><ele>716.0</ele><time>2026-04-26T12:41:16.298Z</time></trkpt><trkpt lat="42.9225433" lon="11.58375"><ele>716.0</ele><time>2026-04-26T12:41:17.296Z</time></trkpt><trkpt lat="42.922625" lon="11.5836"><ele>716.0</ele><time>2026-04-26T12:41:18.297Z</time></trkpt><trkpt lat="42.9227" lon="11.583455"><ele>716.0</ele><time>2026-04-26T12:41:19.296Z</time></trkpt><trkpt lat="42.9227717" lon="11.5833217"><ele>713.3333333333333</ele><time>2026-04-26T12:41:20.296Z</time></trkpt><trkpt lat="42.922835" lon="11.5832083"><ele>710.6666666666666</ele><time>2026-04-26T12:41:21.293Z</time></trkpt><trkpt lat="42.9228917" lon="11.5831117"><ele>708.0</ele><time>2026-04-26T12:41:22.296Z</time></trkpt><trkpt lat="42.922945" lon="11.5830417"><ele>705.3333333333334</ele><time>2026-04-26T12:41:23.296Z</time></trkpt><trkpt lat="42.9230083" lon="11.5830033"><ele>702.6666666666667</ele><time>2026-04-26T12:41:24.298Z</time></trkpt><trkpt lat="42.9230817" lon="11.5830183"><ele>700.0</ele><time>2026-04-26T12:41:25.299Z</time></trkpt><trkpt lat="42.9231533" lon="11.5830967"><ele>700.0</ele><time>2026-04-26T12:41:26.299Z</time></trkpt><trkpt lat="42.9232183" lon="11.5832117"><ele>700.0</ele><time>2026-04-26T12:41:27.299Z</time></trkpt><trkpt lat="42.9232717" lon="11.5833233"><ele>700.0</ele><time>2026-04-26T12:41:28.297Z</time></trkpt><trkpt lat="42.923335" lon="11.5834"><ele>700.0</ele><time>2026-04-26T12:41:29.297Z</time></trkpt><trkpt lat="42.9234033" lon="11.5834467"><ele>700.0</ele><time>2026-04-26T12:41:30.298Z</time></trkpt><trkpt lat="42.92347" lon="11.583455"><ele>700.0</ele><time>2026-04-26T12:41:31.297Z</time></trkpt><trkpt lat="42.9235283" lon="11.5834"><ele>696.75</ele><time>2026-04-26T12:41:32.298Z</time></trkpt><trkpt lat="42.923565" lon="11.5833167"><ele>693.5</ele><time>2026-04-26T12:41:33.299Z</time></trkpt><trkpt lat="42.923565" lon="11.5830883"><ele>690.25</ele><time>2026-04-26T12:41:35.297Z</time></trkpt><trkpt lat="42.923505" lon="11.582895"><ele>687.0</ele><time>2026-04-26T12:41:36.297Z</time></trkpt><trkpt lat="42.9234433" lon="11.5827"><ele>687.75</ele><time>2026-04-26T12:41:37.298Z</time></trkpt><trkpt lat="42.9233967" lon="11.5825167"><ele>688.5</ele><time>2026-04-26T12:41:38.297Z</time></trkpt><trkpt lat="42.92335" lon="11.5823333"><ele>689.25</ele><time>2026-04-26T12:41:39.299Z</time></trkpt><trkpt lat="42.9232933" lon="11.5821567"><ele>690.0</ele><time>2026-04-26T12:41:40.299Z</time></trkpt><trkpt lat="42.92323" lon="11.5819833"><ele>686.75</ele><time>2026-04-26T12:41:41.298Z</time></trkpt><trkpt lat="42.92316" lon="11.5818167"><ele>683.5</ele><time>2026-04-26T12:41:42.297Z</time></trkpt><trkpt lat="42.9230783" lon="11.5816517"><ele>680.25</ele><time>2026-04-26T12:41:43.296Z</time></trkpt><trkpt lat="42.9229917" lon="11.5815033"><ele>677.0</ele><time>2026-04-26T12:41:44.298Z</time></trkpt><trkpt lat="42.9228983" lon="11.5813717"><ele>677.0</ele><time>2026-04-26T12:41:45.297Z</time></trkpt><trkpt lat="42.9228" lon="11.581255"><ele>677.0</ele><time>2026-04-26T12:41:46.298Z</time></trkpt><trkpt lat="42.9227" lon="11.5811533"><ele>677.0</ele><time>2026-04-26T12:41:47.295Z</time></trkpt><trkpt lat="42.9226117" lon="11.5810517"><ele>677.0</ele><time>2026-04-26T12:41:48.297Z</time></trkpt><trkpt lat="42.92254" lon="11.5809517"><ele>676.6</ele><time>2026-04-26T12:41:49.296Z</time></trkpt><trkpt lat="42.9224867" lon="11.580845"><ele>676.2</ele><time>2026-04-26T12:41:50.298Z</time></trkpt><trkpt lat="42.9224433" lon="11.58073"><ele>675.8</ele><time>2026-04-26T12:41:51.296Z</time></trkpt><trkpt lat="42.9224167" lon="11.5806"><ele>675.4</ele><time>2026-04-26T12:41:52.295Z</time></trkpt><trkpt lat="42.922405" lon="11.5804567"><ele>675.0</ele><time>2026-04-26T12:41:53.297Z</time></trkpt><trkpt lat="42.9224" lon="11.5803133"><ele>675.0</ele><time>2026-04-26T12:41:54.297Z</time></trkpt><trkpt lat="42.922405" lon="11.5801733"><ele>675.0</ele><time>2026-04-26T12:41:55.297Z</time></trkpt><trkpt lat="42.9224167" lon="11.5800317"><ele>675.0</ele><time>2026-04-26T12:41:56.298Z</time></trkpt><trkpt lat="42.9224567" lon="11.579895"><ele>675.0</ele><time>2026-04-26T12:41:57.298Z</time></trkpt><trkpt lat="42.9225133" lon="11.57977"><ele>675.0</ele><time>2026-04-26T12:41:58.295Z</time></trkpt><trkpt lat="42.9225833" lon="11.5796567"><ele>673.2</ele><time>2026-04-26T12:41:59.296Z</time></trkpt><trkpt lat="42.9226583" lon="11.57955"><ele>671.4</ele><time>2026-04-26T12:42:00.296Z</time></trkpt><trkpt lat="42.9227383" lon="11.579455"><ele>669.5999999999999</ele><time>2026-04-26T12:42:01.296Z</time></trkpt><trkpt lat="42.9228233" lon="11.5793767"><ele>667.8</ele><time>2026-04-26T12:42:02.297Z</time></trkpt><trkpt lat="42.9229133" lon="11.5793267"><ele>666.0</ele><time>2026-04-26T12:42:03.297Z</time></trkpt><trkpt lat="42.9230117" lon="11.5793133"><ele>666.0</ele><time>2026-04-26T12:42:04.295Z</time></trkpt><trkpt lat="42.9231117" lon="11.579335"><ele>666.0</ele><time>2026-04-26T12:42:05.295Z</time></trkpt><trkpt lat="42.9232117" lon="11.579395"><ele>666.0</ele><time>2026-04-26T12:42:06.296Z</time></trkpt><trkpt lat="42.9233083" lon="11.5794683"><ele>666.0</ele><time>2026-04-26T12:42:07.297Z</time></trkpt><trkpt lat="42.9234083" lon="11.5795367"><ele>666.0</ele><time>2026-04-26T12:42:08.297Z</time></trkpt><trkpt lat="42.9235167" lon="11.5795883"><ele>662.75</ele><time>2026-04-26T12:42:09.296Z</time></trkpt><trkpt lat="42.9236283" lon="11.57961"><ele>659.5</ele><time>2026-04-26T12:42:10.295Z</time></trkpt><trkpt lat="42.923745" lon="11.5796017"><ele>656.25</ele><time>2026-04-26T12:42:11.296Z</time></trkpt><trkpt lat="42.92387" lon="11.5795833"><ele>653.0</ele><time>2026-04-26T12:42:12.298Z</time></trkpt><trkpt lat="42.9239933" lon="11.579545"><ele>653.5999999999999</ele><time>2026-04-26T12:42:13.296Z</time></trkpt><trkpt lat="42.9241083" lon="11.57949"><ele>654.1999999999999</ele><time>2026-04-26T12:42:14.295Z</time></trkpt><trkpt lat="42.9242167" lon="11.5794383"><ele>654.8</ele><time>2026-04-26T12:42:15.297Z</time></trkpt><trkpt lat="42.9243133" lon="11.5793817"><ele>655.4</ele><time>2026-04-26T12:42:16.298Z</time></trkpt><trkpt lat="42.9243983" lon="11.5793133"><ele>656.0</ele><time>2026-04-26T12:42:17.297Z</time></trkpt><trkpt lat="42.9244667" lon="11.5792333"><ele>654.5</ele><time>2026-04-26T12:42:18.297Z</time></trkpt><trkpt lat="42.9245133" lon="11.57914"><ele>653.0</ele><time>2026-04-26T12:42:19.298Z</time></trkpt><trkpt lat="42.924535" lon="11.5790417"><ele>651.5</ele><time>2026-04-26T12:42:20.298Z</time></trkpt><trkpt lat="42.92452" lon="11.578935"><ele>650.0</ele><time>2026-04-26T12:42:21.298Z</time></trkpt><trkpt lat="42.9244583" lon="11.578835"><ele>648.5</ele><time>2026-04-26T12:42:22.297Z</time></trkpt><trkpt lat="42.924375" lon="11.5787367"><ele>647.0</ele><time>2026-04-26T12:42:23.298Z</time></trkpt><trkpt lat="42.924215" lon="11.578635"><ele>647.0</ele><time>2026-04-26T12:42:24.299Z</time></trkpt><trkpt lat="42.9240617" lon="11.5785233"><ele>647.0</ele><time>2026-04-26T12:42:25.298Z</time></trkpt><trkpt lat="42.923905" lon="11.5783767"><ele>647.0</ele><time>2026-04-26T12:42:26.297Z</time></trkpt><trkpt lat="42.9237433" lon="11.5782067"><ele>647.0</ele><time>2026-04-26T12:42:27.298Z</time></trkpt><trkpt lat="42.9235783" lon="11.5780317"><ele>647.0</ele><time>2026-04-26T12:42:28.298Z</time></trkpt><trkpt lat="42.92342" lon="11.577875"><ele>647.0</ele><time>2026-04-26T12:42:29.297Z</time></trkpt><trkpt lat="42.9232683" lon="11.57773"><ele>646.6666666666666</ele><time>2026-04-26T12:42:30.297Z</time></trkpt><trkpt lat="42.92313" lon="11.5775983"><ele>646.3333333333334</ele><time>2026-04-26T12:42:31.297Z</time></trkpt><trkpt lat="42.923005" lon="11.5774733"><ele>646.0</ele><time>2026-04-26T12:42:32.297Z</time></trkpt><trkpt lat="42.9228983" lon="11.5773433"><ele>646.0</ele><time>2026-04-26T12:42:33.298Z</time></trkpt><trkpt lat="42.9228117" lon="11.5771967"><ele>646.0</ele><time>2026-04-26T12:42:34.298Z</time></trkpt><trkpt lat="42.9227383" lon="11.5770417"><ele>646.0</ele><time>2026-04-26T12:42:35.298Z</time></trkpt><trkpt lat="42.9226783" lon="11.5768917"><ele>646.0</ele><time>2026-04-26T12:42:36.299Z</time></trkpt><trkpt lat="42.9226283" lon="11.5767433"><ele>645.0</ele><time>2026-04-26T12:42:37.297Z</time></trkpt><trkpt lat="42.922585" lon="11.5765983"><ele>644.0</ele><time>2026-04-26T12:42:38.298Z</time></trkpt><trkpt lat="42.922545" lon="11.5764583"><ele>643.0</ele><time>2026-04-26T12:42:39.295Z</time></trkpt><trkpt lat="42.9224967" lon="11.5763233"><ele>642.0</ele><time>2026-04-26T12:42:40.298Z</time></trkpt><trkpt lat="42.9224367" lon="11.5761917"><ele>641.0</ele><time>2026-04-26T12:42:41.298Z</time></trkpt><trkpt lat="42.922365" lon="11.5760683"><ele>638.75</ele><time>2026-04-26T12:42:42.299Z</time></trkpt><trkpt lat="42.9222883" lon="11.57595"><ele>636.5</ele><time>2026-04-26T12:42:43.299Z</time></trkpt><trkpt lat="42.9222167" lon="11.5758233"><ele>634.25</ele><time>2026-04-26T12:42:44.298Z</time></trkpt><trkpt lat="42.922145" lon="11.5756967"><ele>632.0</ele><time>2026-04-26T12:42:45.295Z</time></trkpt><trkpt lat="42.9220717" lon="11.575575"><ele>632.0</ele><time>2026-04-26T12:42:46.296Z</time></trkpt><trkpt lat="42.9220117" lon="11.5754617"><ele>632.0</ele><time>2026-04-26T12:42:47.295Z</time></trkpt><trkpt lat="42.92197" lon="11.5753583"><ele>632.0</ele><time>2026-04-26T12:42:48.296Z</time></trkpt><trkpt lat="42.9219467" lon="11.5752583"><ele>632.0</ele><time>2026-04-26T12:42:49.297Z</time></trkpt><trkpt lat="42.9219483" lon="11.5751583"><ele>632.0</ele><time>2026-04-26T12:42:50.3Z</time></trkpt><trkpt lat="42.9219717" lon="11.575065"><ele>632.0</ele><time>2026-04-26T12:42:51.299Z</time></trkpt><trkpt lat="42.92201" lon="11.57498"><ele>629.2</ele><time>2026-04-26T12:42:52.297Z</time></trkpt><trkpt lat="42.9221017" lon="11.574925"><ele>626.4000000000001</ele><time>2026-04-26T12:42:53.298Z</time></trkpt><trkpt lat="42.922195" lon="11.5748883"><ele>623.5999999999999</ele><time>2026-04-26T12:42:54.298Z</time></trkpt><trkpt lat="42.9222917" lon="11.5748683"><ele>620.8</ele><time>2026-04-26T12:42:55.296Z</time></trkpt><trkpt lat="42.9223867" lon="11.5748617"><ele>618.0</ele><time>2026-04-26T12:42:56.3Z</time></trkpt><trkpt lat="42.9224783" lon="11.5748817"><ele>618.0</ele><time>2026-04-26T12:42:57.298Z</time></trkpt><trkpt lat="42.9225583" lon="11.574935"><ele>618.0</ele><time>2026-04-26T12:42:58.299Z</time></trkpt><trkpt lat="42.9226333" lon="11.5750083"><ele>618.0</ele><time>2026-04-26T12:42:59.297Z</time></trkpt><trkpt lat="42.9227083" lon="11.5750967"><ele>618.0</ele><time>2026-04-26T12:43:00.299Z</time></trkpt><trkpt lat="42.9227983" lon="11.5751867"><ele>618.0</ele><time>2026-04-26T12:43:01.299Z</time></trkpt><trkpt lat="42.9228983" lon="11.57527"><ele>619.5</ele><time>2026-04-26T12:43:02.298Z</time></trkpt><trkpt lat="42.9230067" lon="11.575345"><ele>621.0</ele><time>2026-04-26T12:43:03.297Z</time></trkpt><trkpt lat="42.9231183" lon="11.5754117"><ele>622.5</ele><time>2026-04-26T12:43:04.299Z</time></trkpt><trkpt lat="42.9232267" lon="11.57547"><ele>624.0</ele><time>2026-04-26T12:43:05.299Z</time></trkpt><trkpt lat="42.9233317" lon="11.5754967"><ele>624.0</ele><time>2026-04-26T12:43:06.299Z</time></trkpt><trkpt lat="42.9234433" lon="11.5754967"><ele>624.0</ele><time>2026-04-26T12:43:07.299Z</time></trkpt><trkpt lat="42.9235567" lon="11.5754717"><ele>624.0</ele><time>2026-04-26T12:43:08.299Z</time></trkpt><trkpt lat="42.9236733" lon="11.5754217"><ele>624.0</ele><time>2026-04-26T12:43:09.299Z</time></trkpt><trkpt lat="42.92379" lon="11.5753667"><ele>624.0</ele><time>2026-04-26T12:43:10.297Z</time></trkpt><trkpt lat="42.9239017" lon="11.57532"><ele>624.0</ele><time>2026-04-26T12:43:11.298Z</time></trkpt><trkpt lat="42.9240083" lon="11.5752983"><ele>624.0</ele><time>2026-04-26T12:43:12.296Z</time></trkpt><trkpt lat="42.924105" lon="11.575305"><ele>624.0</ele><time>2026-04-26T12:43:13.296Z</time></trkpt><trkpt lat="42.9241983" lon="11.575355"><ele>624.0</ele><time>2026-04-26T12:43:14.299Z</time></trkpt><trkpt lat="42.9242767" lon="11.5754283"><ele>620.6</ele><time>2026-04-26T12:43:15.299Z</time></trkpt><trkpt lat="42.9243467" lon="11.57552"><ele>617.2</ele><time>2026-04-26T12:43:16.298Z</time></trkpt><trkpt lat="42.924415" lon="11.5756083"><ele>613.8000000000001</ele><time>2026-04-26T12:43:17.298Z</time></trkpt><trkpt lat="42.92449" lon="11.5756833"><ele>610.4</ele><time>2026-04-26T12:43:18.299Z</time></trkpt><trkpt lat="42.9245767" lon="11.575735"><ele>607.0</ele><time>2026-04-26T12:43:19.295Z</time></trkpt><trkpt lat="42.924665" lon="11.5757383"><ele>607.0</ele><time>2026-04-26T12:43:20.299Z</time></trkpt><trkpt lat="42.9247517" lon="11.575705"><ele>607.0</ele><time>2026-04-26T12:43:21.297Z</time></trkpt><trkpt lat="42.924825" lon="11.5756333"><ele>607.0</ele><time>2026-04-26T12:43:22.298Z</time></trkpt><trkpt lat="42.9248883" lon="11.5755233"><ele>607.0</ele><time>2026-04-26T12:43:23.298Z</time></trkpt><trkpt lat="42.9249117" lon="11.57537"><ele>607.0</ele><time>2026-04-26T12:43:24.297Z</time></trkpt><trkpt lat="42.9249383" lon="11.5752267"><ele>605.6</ele><time>2026-04-26T12:43:25.298Z</time></trkpt><trkpt lat="42.9249433" lon="11.5750783"><ele>604.2</ele><time>2026-04-26T12:43:26.299Z</time></trkpt><trkpt lat="42.9249317" lon="11.5749383"><ele>602.8</ele><time>2026-04-26T12:43:27.298Z</time></trkpt><trkpt lat="42.9248983" lon="11.5748033"><ele>601.4</ele><time>2026-04-26T12:43:28.298Z</time></trkpt><trkpt lat="42.92483" lon="11.57468"><ele>600.0</ele><time>2026-04-26T12:43:29.298Z</time></trkpt><trkpt lat="42.92473" lon="11.57454"><ele>596.6666666666666</ele><time>2026-04-26T12:43:30.298Z</time></trkpt><trkpt lat="42.924645" lon="11.5743683"><ele>593.3333333333333</ele><time>2026-04-26T12:43:31.299Z</time></trkpt><trkpt lat="42.9245683" lon="11.574175"><ele>590.0</ele><time>2026-04-26T12:43:32.3Z</time></trkpt><trkpt lat="42.9245017" lon="11.5739817"><ele>590.0</ele><time>2026-04-26T12:43:33.297Z</time></trkpt><trkpt lat="42.9244483" lon="11.5738067"><ele>590.0</ele><time>2026-04-26T12:43:34.298Z</time></trkpt><trkpt lat="42.92439" lon="11.5736633"><ele>590.0</ele><time>2026-04-26T12:43:35.297Z</time></trkpt><trkpt lat="42.9243167" lon="11.5735567"><ele>590.0</ele><time>2026-04-26T12:43:36.299Z</time></trkpt><trkpt lat="42.924225" lon="11.573485"><ele>588.5</ele><time>2026-04-26T12:43:37.298Z</time></trkpt><trkpt lat="42.9241133" lon="11.5734383"><ele>587.0</ele><time>2026-04-26T12:43:38.299Z</time></trkpt><trkpt lat="42.9239933" lon="11.5734233"><ele>585.5</ele><time>2026-04-26T12:43:39.298Z</time></trkpt><trkpt lat="42.9238633" lon="11.573435"><ele>584.0</ele><time>2026-04-26T12:43:40.294Z</time></trkpt><trkpt lat="42.9237317" lon="11.57347"><ele>584.0</ele><time>2026-04-26T12:43:41.298Z</time></trkpt><trkpt lat="42.9236067" lon="11.5735267"><ele>584.0</ele><time>2026-04-26T12:43:42.296Z</time></trkpt><trkpt lat="42.923485" lon="11.5735917"><ele>584.0</ele><time>2026-04-26T12:43:43.299Z</time></trkpt><trkpt lat="42.92336" lon="11.57365"><ele>584.0</ele><time>2026-04-26T12:43:44.299Z</time></trkpt><trkpt lat="42.9232317" lon="11.5736917"><ele>583.0</ele><time>2026-04-26T12:43:45.296Z</time></trkpt><trkpt lat="42.9231067" lon="11.57371"><ele>582.0</ele><time>2026-04-26T12:43:46.296Z</time></trkpt><trkpt lat="42.92299" lon="11.5736883"><ele>581.0</ele><time>2026-04-26T12:43:47.297Z</time></trkpt><trkpt lat="42.9228817" lon="11.5736367"><ele>580.0</ele><time>2026-04-26T12:43:48.3Z</time></trkpt><trkpt lat="42.9227933" lon="11.573555"><ele>580.0</ele><time>2026-04-26T12:43:49.296Z</time></trkpt><trkpt lat="42.9227167" lon="11.5734583"><ele>580.0</ele><time>2026-04-26T12:43:50.295Z</time></trkpt><trkpt lat="42.9226683" lon="11.5733367"><ele>580.0</ele><time>2026-04-26T12:43:51.297Z</time></trkpt><trkpt lat="42.92266" lon="11.5732083"><ele>580.0</ele><time>2026-04-26T12:43:52.297Z</time></trkpt><trkpt lat="42.9226917" lon="11.5730867"><ele>580.0</ele><time>2026-04-26T12:43:53.298Z</time></trkpt><trkpt lat="42.9227617" lon="11.57297"><ele>580.0</ele><time>2026-04-26T12:43:54.297Z</time></trkpt><trkpt lat="42.92285" lon="11.5728683"><ele>580.0</ele><time>2026-04-26T12:43:55.298Z</time></trkpt><trkpt lat="42.92295" lon="11.572775"><ele>580.0</ele><time>2026-04-26T12:43:56.297Z</time></trkpt><trkpt lat="42.9230483" lon="11.5726883"><ele>580.0</ele><time>2026-04-26T12:43:57.295Z</time></trkpt><trkpt lat="42.9231367" lon="11.572605"><ele>578.1666666666667</ele><time>2026-04-26T12:43:58.295Z</time></trkpt><trkpt lat="42.92321" lon="11.57253"><ele>576.3333333333334</ele><time>2026-04-26T12:43:59.295Z</time></trkpt><trkpt lat="42.9232633" lon="11.5724367"><ele>574.5</ele><time>2026-04-26T12:44:00.298Z</time></trkpt><trkpt lat="42.9232933" lon="11.57233"><ele>572.6666666666666</ele><time>2026-04-26T12:44:01.296Z</time></trkpt><trkpt lat="42.92329" lon="11.5722183"><ele>570.8333333333333</ele><time>2026-04-26T12:44:02.298Z</time></trkpt><trkpt lat="42.9232483" lon="11.5721233"><ele>569.0</ele><time>2026-04-26T12:44:03.296Z</time></trkpt><trkpt lat="42.92318" lon="11.572045"><ele>569.0</ele><time>2026-04-26T12:44:04.296Z</time></trkpt><trkpt lat="42.923095" lon="11.5720067"><ele>569.0</ele><time>2026-04-26T12:44:05.297Z</time></trkpt><trkpt lat="42.922995" lon="11.5720067"><ele>569.0</ele><time>2026-04-26T12:44:06.297Z</time></trkpt><trkpt lat="42.9228783" lon="11.5720717"><ele>569.0</ele><time>2026-04-26T12:44:07.297Z</time></trkpt><trkpt lat="42.9227483" lon="11.5721933"><ele>569.0</ele><time>2026-04-26T12:44:08.298Z</time></trkpt><trkpt lat="42.922635" lon="11.5723017"><ele>569.0</ele><time>2026-04-26T12:44:09.297Z</time></trkpt><trkpt lat="42.9225233" lon="11.572405"><ele>569.0</ele><time>2026-04-26T12:44:10.296Z</time></trkpt><trkpt lat="42.9224233" lon="11.5724717"><ele>569.0</ele><time>2026-04-26T12:44:11.296Z</time></trkpt><trkpt lat="42.922325" lon="11.5725083"><ele>568.0</ele><time>2026-04-26T12:44:12.296Z</time></trkpt><trkpt lat="42.9222333" lon="11.572505"><ele>567.0</ele><time>2026-04-26T12:44:13.297Z</time></trkpt><trkpt lat="42.9221483" lon="11.57247"><ele>566.0</ele><time>2026-04-26T12:44:14.298Z</time></trkpt><trkpt lat="42.92207" lon="11.5723967"><ele>565.0</ele><time>2026-04-26T12:44:15.298Z</time></trkpt><trkpt lat="42.922005" lon="11.572285"><ele>564.0</ele><time>2026-04-26T12:44:16.296Z</time></trkpt><trkpt lat="42.9219483" lon="11.5721617"><ele>560.75</ele><time>2026-04-26T12:44:17.299Z</time></trkpt><trkpt lat="42.921905" lon="11.572005"><ele>557.5</ele><time>2026-04-26T12:44:18.298Z</time></trkpt><trkpt lat="42.9218717" lon="11.5718283"><ele>554.25</ele><time>2026-04-26T12:44:19.298Z</time></trkpt><trkpt lat="42.9218467" lon="11.571645"><ele>551.0</ele><time>2026-04-26T12:44:20.299Z</time></trkpt><trkpt lat="42.9218383" lon="11.5714683"><ele>551.0</ele><time>2026-04-26T12:44:21.297Z</time></trkpt><trkpt lat="42.921845" lon="11.57129"><ele>551.0</ele><time>2026-04-26T12:44:22.298Z</time></trkpt><trkpt lat="42.9218567" lon="11.5711067"><ele>551.0</ele><time>2026-04-26T12:44:23.299Z</time></trkpt><trkpt lat="42.92186" lon="11.57092"><ele>551.0</ele><time>2026-04-26T12:44:24.299Z</time></trkpt><trkpt lat="42.9218633" lon="11.5707367"><ele>549.0</ele><time>2026-04-26T12:44:25.297Z</time></trkpt><trkpt lat="42.92186" lon="11.5705567"><ele>547.0</ele><time>2026-04-26T12:44:26.299Z</time></trkpt><trkpt lat="42.9218533" lon="11.5703933"><ele>545.0</ele><time>2026-04-26T12:44:27.297Z</time></trkpt><trkpt lat="42.9218433" lon="11.5702467"><ele>543.0</ele><time>2026-04-26T12:44:28.297Z</time></trkpt><trkpt lat="42.9218317" lon="11.5701167"><ele>542.0</ele><time>2026-04-26T12:44:29.297Z</time></trkpt><trkpt lat="42.921795" lon="11.5700067"><ele>541.0</ele><time>2026-04-26T12:44:30.299Z</time></trkpt><trkpt lat="42.92173" lon="11.5699133"><ele>540.0</ele><time>2026-04-26T12:44:31.299Z</time></trkpt><trkpt lat="42.9216533" lon="11.5698417"><ele>539.0</ele><time>2026-04-26T12:44:32.298Z</time></trkpt><trkpt lat="42.9215717" lon="11.569775"><ele>538.0</ele><time>2026-04-26T12:44:33.298Z</time></trkpt><trkpt lat="42.92149" lon="11.5697067"><ele>538.0</ele><time>2026-04-26T12:44:34.299Z</time></trkpt><trkpt lat="42.921405" lon="11.569635"><ele>538.0</ele><time>2026-04-26T12:44:35.295Z</time></trkpt><trkpt lat="42.92132" lon="11.5695567"><ele>538.0</ele><time>2026-04-26T12:44:36.297Z</time></trkpt><trkpt lat="42.92124" lon="11.5694667"><ele>538.0</ele><time>2026-04-26T12:44:37.298Z</time></trkpt><trkpt lat="42.9211717" lon="11.5693667"><ele>538.0</ele><time>2026-04-26T12:44:38.298Z</time></trkpt><trkpt lat="42.92112" lon="11.569245"><ele>536.6</ele><time>2026-04-26T12:44:39.298Z</time></trkpt><trkpt lat="42.921085" lon="11.5691067"><ele>535.1999999999999</ele><time>2026-04-26T12:44:40.297Z</time></trkpt><trkpt lat="42.9210517" lon="11.5689633"><ele>533.8</ele><time>2026-04-26T12:44:41.299Z</time></trkpt><trkpt lat="42.9210333" lon="11.5688117"><ele>532.4</ele><time>2026-04-26T12:44:42.298Z</time></trkpt><trkpt lat="42.9210283" lon="11.5686533"><ele>531.0</ele><time>2026-04-26T12:44:43.296Z</time></trkpt><trkpt lat="42.921035" lon="11.56848"><ele>530.5</ele><time>2026-04-26T12:44:44.298Z</time></trkpt><trkpt lat="42.9210633" lon="11.5682933"><ele>530.0</ele><time>2026-04-26T12:44:45.299Z</time></trkpt><trkpt lat="42.9211033" lon="11.5680983"><ele>529.5</ele><time>2026-04-26T12:44:46.299Z</time></trkpt><trkpt lat="42.921145" lon="11.56791"><ele>529.0</ele><time>2026-04-26T12:44:47.299Z</time></trkpt><trkpt lat="42.9211783" lon="11.56773"><ele>527.0</ele><time>2026-04-26T12:44:48.298Z</time></trkpt><trkpt lat="42.9211933" lon="11.5675617"><ele>525.0</ele><time>2026-04-26T12:44:49.298Z</time></trkpt><trkpt lat="42.9211817" lon="11.56741"><ele>523.0</ele><time>2026-04-26T12:44:50.298Z</time></trkpt><trkpt lat="42.9211417" lon="11.5672617"><ele>521.0</ele><time>2026-04-26T12:44:51.299Z</time></trkpt><trkpt lat="42.9210883" lon="11.567125"><ele>518.75</ele><time>2026-04-26T12:44:52.299Z</time></trkpt><trkpt lat="42.9210467" lon="11.5669817"><ele>516.5</ele><time>2026-04-26T12:44:53.298Z</time></trkpt><trkpt lat="42.921035" lon="11.56683"><ele>514.25</ele><time>2026-04-26T12:44:54.298Z</time></trkpt><trkpt lat="42.9210467" lon="11.566655"><ele>512.0</ele><time>2026-04-26T12:44:55.298Z</time></trkpt><trkpt lat="42.9210767" lon="11.566455"><ele>512.0</ele><time>2026-04-26T12:44:56.298Z</time></trkpt><trkpt lat="42.921115" lon="11.5662417"><ele>512.0</ele><time>2026-04-26T12:44:57.299Z</time></trkpt><trkpt lat="42.9211633" lon="11.5660233"><ele>512.0</ele><time>2026-04-26T12:44:58.298Z</time></trkpt><trkpt lat="42.921225" lon="11.565805"><ele>509.66666666666663</ele><time>2026-04-26T12:44:59.299Z</time></trkpt><trkpt lat="42.92129" lon="11.5655967"><ele>507.33333333333337</ele><time>2026-04-26T12:45:00.298Z</time></trkpt><trkpt lat="42.92135" lon="11.5654"><ele>505.0</ele><time>2026-04-26T12:45:01.298Z</time></trkpt><trkpt lat="42.9214033" lon="11.5652217"><ele>502.8</ele><time>2026-04-26T12:45:02.298Z</time></trkpt><trkpt lat="42.9214517" lon="11.5650767"><ele>500.6</ele><time>2026-04-26T12:45:03.298Z</time></trkpt><trkpt lat="42.9215017" lon="11.5649667"><ele>498.4</ele><time>2026-04-26T12:45:04.298Z</time></trkpt><trkpt lat="42.921565" lon="11.5648817"><ele>496.2</ele><time>2026-04-26T12:45:05.298Z</time></trkpt><trkpt lat="42.9216483" lon="11.5648217"><ele>494.0</ele><time>2026-04-26T12:45:06.298Z</time></trkpt><trkpt lat="42.9217533" lon="11.564795"><ele>492.75</ele><time>2026-04-26T12:45:07.298Z</time></trkpt><trkpt lat="42.9218683" lon="11.564775"><ele>491.5</ele><time>2026-04-26T12:45:08.3Z</time></trkpt><trkpt lat="42.9219883" lon="11.5647667"><ele>490.25</ele><time>2026-04-26T12:45:09.296Z</time></trkpt><trkpt lat="42.922105" lon="11.5647667"><ele>489.0</ele><time>2026-04-26T12:45:10.297Z</time></trkpt><trkpt lat="42.922215" lon="11.5647683"><ele>489.0</ele><time>2026-04-26T12:45:11.297Z</time></trkpt><trkpt lat="42.9223167" lon="11.5647817"><ele>489.0</ele><time>2026-04-26T12:45:12.298Z</time></trkpt><trkpt lat="42.9224117" lon="11.5648067"><ele>489.0</ele><time>2026-04-26T12:45:13.298Z</time></trkpt><trkpt lat="42.922495" lon="11.5648333"><ele>489.0</ele><time>2026-04-26T12:45:14.3Z</time></trkpt><trkpt lat="42.92257" lon="11.564845"><ele>489.0</ele><time>2026-04-26T12:45:15.298Z</time></trkpt><trkpt lat="42.9226383" lon="11.5648267"><ele>489.0</ele><time>2026-04-26T12:45:16.298Z</time></trkpt><trkpt lat="42.9226933" lon="11.5647667"><ele>488.3333333333333</ele><time>2026-04-26T12:45:17.299Z</time></trkpt><trkpt lat="42.92273" lon="11.5646883"><ele>487.66666666666663</ele><time>2026-04-26T12:45:18.298Z</time></trkpt><trkpt lat="42.92274" lon="11.5645833"><ele>487.0</ele><time>2026-04-26T12:45:19.298Z</time></trkpt><trkpt lat="42.9227483" lon="11.5644917"><ele>486.3333333333333</ele><time>2026-04-26T12:45:20.3Z</time></trkpt><trkpt lat="42.9227633" lon="11.564355"><ele>485.66666666666663</ele><time>2026-04-26T12:45:22.299Z</time></trkpt><trkpt lat="42.9227983" lon="11.5642517"><ele>485.0</ele><time>2026-04-26T12:45:58.297Z</time></trkpt><trkpt lat="42.9228517" lon="11.5641967"><ele>483.0</ele><time>2026-04-26T12:45:59.296Z</time></trkpt><trkpt lat="42.9229233" lon="11.5641417"><ele>481.0</ele><time>2026-04-26T12:46:00.297Z</time></trkpt><trkpt lat="42.923015" lon="11.5640867"><ele>479.0</ele><time>2026-04-26T12:46:01.297Z</time></trkpt><trkpt lat="42.9231283" lon="11.5640233"><ele>477.0</ele><time>2026-04-26T12:46:02.298Z</time></trkpt><trkpt lat="42.9232567" lon="11.563945"><ele>475.0</ele><time>2026-04-26T12:46:03.297Z</time></trkpt><trkpt lat="42.9233983" lon="11.563855"><ele>473.33333333333337</ele><time>2026-04-26T12:46:04.297Z</time></trkpt><trkpt lat="42.9235483" lon="11.5637617"><ele>471.66666666666663</ele><time>2026-04-26T12:46:05.298Z</time></trkpt><trkpt lat="42.9236917" lon="11.5636783"><ele>470.0</ele><time>2026-04-26T12:46:06.294Z</time></trkpt><trkpt lat="42.92383" lon="11.563625"><ele>467.75</ele><time>2026-04-26T12:46:07.297Z</time></trkpt><trkpt lat="42.9239667" lon="11.5635917"><ele>465.5</ele><time>2026-04-26T12:46:08.299Z</time></trkpt><trkpt lat="42.9240983" lon="11.563615"><ele>463.25</ele><time>2026-04-26T12:46:09.294Z</time></trkpt><trkpt lat="42.9242283" lon="11.5636833"><ele>461.0</ele><time>2026-04-26T12:46:10.297Z</time></trkpt><trkpt lat="42.9243633" lon="11.5637817"><ele>461.0</ele><time>2026-04-26T12:46:11.297Z</time></trkpt><trkpt lat="42.9244917" lon="11.5638817"><ele>461.0</ele><time>2026-04-26T12:46:12.298Z</time></trkpt><trkpt lat="42.9246267" lon="11.56398"><ele>461.0</ele><time>2026-04-26T12:46:13.298Z</time></trkpt><trkpt lat="42.9247583" lon="11.5640817"><ele>461.0</ele><time>2026-04-26T12:46:14.298Z</time></trkpt><trkpt lat="42.9248867" lon="11.5641767"><ele>461.0</ele><time>2026-04-26T12:46:15.297Z</time></trkpt><trkpt lat="42.9250133" lon="11.56427"><ele>461.0</ele><time>2026-04-26T12:46:16.297Z</time></trkpt><trkpt lat="42.9251383" lon="11.5643617"><ele>461.0</ele><time>2026-04-26T12:46:17.295Z</time></trkpt><trkpt lat="42.9252617" lon="11.5644467"><ele>461.0</ele><time>2026-04-26T12:46:18.296Z</time></trkpt><trkpt lat="42.92538" lon="11.5645333"><ele>461.0</ele><time>2026-04-26T12:46:19.296Z</time></trkpt><trkpt lat="42.9255033" lon="11.5646167"><ele>461.0</ele><time>2026-04-26T12:46:20.297Z</time></trkpt><trkpt lat="42.9256317" lon="11.5646917"><ele>461.0</ele><time>2026-04-26T12:46:21.297Z</time></trkpt><trkpt lat="42.925765" lon="11.564745"><ele>458.75</ele><time>2026-04-26T12:46:22.295Z</time></trkpt><trkpt lat="42.9258983" lon="11.5647833"><ele>456.5</ele><time>2026-04-26T12:46:23.295Z</time></trkpt><trkpt lat="42.9260317" lon="11.564815"><ele>454.25</ele><time>2026-04-26T12:46:24.298Z</time></trkpt><trkpt lat="42.9261633" lon="11.5648533"><ele>452.0</ele><time>2026-04-26T12:46:25.298Z</time></trkpt><trkpt lat="42.9262933" lon="11.5648867"><ele>452.0</ele><time>2026-04-26T12:46:26.299Z</time></trkpt><trkpt lat="42.9264167" lon="11.5649017"><ele>452.0</ele><time>2026-04-26T12:46:27.298Z</time></trkpt><trkpt lat="42.9265383" lon="11.564895"><ele>452.0</ele><time>2026-04-26T12:46:28.298Z</time></trkpt><trkpt lat="42.9266633" lon="11.5648583"><ele>452.0</ele><time>2026-04-26T12:46:29.297Z</time></trkpt><trkpt lat="42.9267733" lon="11.564775"><ele>451.75</ele><time>2026-04-26T12:46:30.298Z</time></trkpt><trkpt lat="42.926865" lon="11.56466"><ele>451.5</ele><time>2026-04-26T12:46:31.296Z</time></trkpt><trkpt lat="42.926945" lon="11.5645133"><ele>451.25</ele><time>2026-04-26T12:46:32.297Z</time></trkpt><trkpt lat="42.9270117" lon="11.5643517"><ele>451.0</ele><time>2026-04-26T12:46:33.297Z</time></trkpt><trkpt lat="42.9270817" lon="11.5641833"><ele>450.25</ele><time>2026-04-26T12:46:34.297Z</time></trkpt><trkpt lat="42.92715" lon="11.5640133"><ele>449.5</ele><time>2026-04-26T12:46:35.297Z</time></trkpt><trkpt lat="42.927215" lon="11.56384"><ele>448.75</ele><time>2026-04-26T12:46:36.297Z</time></trkpt><trkpt lat="42.9272817" lon="11.56367"><ele>448.0</ele><time>2026-04-26T12:46:37.297Z</time></trkpt><trkpt lat="42.9273533" lon="11.5635067"><ele>445.75</ele><time>2026-04-26T12:46:38.298Z</time></trkpt><trkpt lat="42.9274283" lon="11.56335"><ele>443.5</ele><time>2026-04-26T12:46:39.297Z</time></trkpt><trkpt lat="42.9275083" lon="11.5632033"><ele>441.25</ele><time>2026-04-26T12:46:40.297Z</time></trkpt><trkpt lat="42.9275933" lon="11.5630667"><ele>439.0</ele><time>2026-04-26T12:46:41.297Z</time></trkpt><trkpt lat="42.9276867" lon="11.56294"><ele>437.75</ele><time>2026-04-26T12:46:42.297Z</time></trkpt><trkpt lat="42.9277817" lon="11.5628183"><ele>436.5</ele><time>2026-04-26T12:46:43.298Z</time></trkpt><trkpt lat="42.92787" lon="11.562695"><ele>435.25</ele><time>2026-04-26T12:46:44.298Z</time></trkpt><trkpt lat="42.9279483" lon="11.5625667"><ele>434.0</ele><time>2026-04-26T12:46:45.298Z</time></trkpt><trkpt lat="42.9280167" lon="11.5624333"><ele>434.0</ele><time>2026-04-26T12:46:46.298Z</time></trkpt><trkpt lat="42.9280767" lon="11.5622983"><ele>434.0</ele><time>2026-04-26T12:46:47.296Z</time></trkpt><trkpt lat="42.9281333" lon="11.56216"><ele>434.0</ele><time>2026-04-26T12:46:48.296Z</time></trkpt><trkpt lat="42.9281883" lon="11.5620233"><ele>434.0</ele><time>2026-04-26T12:46:49.297Z</time></trkpt><trkpt lat="42.9282433" lon="11.561885"><ele>431.5</ele><time>2026-04-26T12:46:50.296Z</time></trkpt><trkpt lat="42.928295" lon="11.5617433"><ele>429.0</ele><time>2026-04-26T12:46:51.295Z</time></trkpt><trkpt lat="42.928345" lon="11.5616017"><ele>426.5</ele><time>2026-04-26T12:46:52.295Z</time></trkpt><trkpt lat="42.9283883" lon="11.5614567"><ele>424.0</ele><time>2026-04-26T12:46:53.296Z</time></trkpt><trkpt lat="42.9284283" lon="11.5613083"><ele>422.4</ele><time>2026-04-26T12:46:54.298Z</time></trkpt><trkpt lat="42.928465" lon="11.5611633"><ele>420.79999999999995</ele><time>2026-04-26T12:46:55.297Z</time></trkpt><trkpt lat="42.9285" lon="11.56102"><ele>419.20000000000005</ele><time>2026-04-26T12:46:56.298Z</time></trkpt><trkpt lat="42.9285383" lon="11.560885"><ele>417.6</ele><time>2026-04-26T12:46:57.297Z</time></trkpt><trkpt lat="42.92858" lon="11.5607583"><ele>416.0</ele><time>2026-04-26T12:46:58.298Z</time></trkpt><trkpt lat="42.92863" lon="11.560645"><ele>416.0</ele><time>2026-04-26T12:46:59.297Z</time></trkpt><trkpt lat="42.9286967" lon="11.5605533"><ele>416.0</ele><time>2026-04-26T12:47:00.297Z</time></trkpt><trkpt lat="42.92878" lon="11.560495"><ele>416.0</ele><time>2026-04-26T12:47:01.298Z</time></trkpt><trkpt lat="42.9288783" lon="11.5604667"><ele>416.0</ele><time>2026-04-26T12:47:02.298Z</time></trkpt><trkpt lat="42.92899" lon="11.56046"><ele>416.0</ele><time>2026-04-26T12:47:03.297Z</time></trkpt><trkpt lat="42.9291133" lon="11.5604683"><ele>415.25</ele><time>2026-04-26T12:47:04.298Z</time></trkpt><trkpt lat="42.9292417" lon="11.5604767"><ele>414.5</ele><time>2026-04-26T12:47:05.297Z</time></trkpt><trkpt lat="42.9293833" lon="11.5604833"><ele>413.75</ele><time>2026-04-26T12:47:06.298Z</time></trkpt><trkpt lat="42.9295333" lon="11.5604883"><ele>413.0</ele><time>2026-04-26T12:47:07.298Z</time></trkpt><trkpt lat="42.9296833" lon="11.560495"><ele>413.0</ele><time>2026-04-26T12:47:08.297Z</time></trkpt><trkpt lat="42.9298367" lon="11.560505"><ele>413.0</ele><time>2026-04-26T12:47:09.298Z</time></trkpt><trkpt lat="42.929995" lon="11.5605133"><ele>413.0</ele><time>2026-04-26T12:47:10.299Z</time></trkpt><trkpt lat="42.930155" lon="11.5605217"><ele>410.0</ele><time>2026-04-26T12:47:11.297Z</time></trkpt><trkpt lat="42.9303183" lon="11.5605267"><ele>407.0</ele><time>2026-04-26T12:47:12.298Z</time></trkpt><trkpt lat="42.93049" lon="11.5605333"><ele>404.0</ele><time>2026-04-26T12:47:13.299Z</time></trkpt><trkpt lat="42.9306633" lon="11.5605383"><ele>404.0</ele><time>2026-04-26T12:47:14.298Z</time></trkpt><trkpt lat="42.9308383" lon="11.560545"><ele>404.0</ele><time>2026-04-26T12:47:15.296Z</time></trkpt><trkpt lat="42.9310167" lon="11.56056"><ele>404.0</ele><time>2026-04-26T12:47:16.299Z</time></trkpt><trkpt lat="42.9311917" lon="11.56057"><ele>402.3333333333333</ele><time>2026-04-26T12:47:17.295Z</time></trkpt><trkpt lat="42.9313633" lon="11.5605783"><ele>400.66666666666663</ele><time>2026-04-26T12:47:18.296Z</time></trkpt><trkpt lat="42.9315333" lon="11.5605783"><ele>399.0</ele><time>2026-04-26T12:47:19.295Z</time></trkpt><trkpt lat="42.9316967" lon="11.5605617"><ele>395.33333333333337</ele><time>2026-04-26T12:47:20.295Z</time></trkpt><trkpt lat="42.931855" lon="11.560515"><ele>391.6666666666667</ele><time>2026-04-26T12:47:21.297Z</time></trkpt><trkpt lat="42.932" lon="11.5604483"><ele>388.0</ele><time>2026-04-26T12:47:22.296Z</time></trkpt><trkpt lat="42.932125" lon="11.5603683"><ele>387.25</ele><time>2026-04-26T12:47:23.297Z</time></trkpt><trkpt lat="42.9322283" lon="11.5602833"><ele>386.5</ele><time>2026-04-26T12:47:24.297Z</time></trkpt><trkpt lat="42.9323117" lon="11.5601767"><ele>385.75</ele><time>2026-04-26T12:47:25.298Z</time></trkpt><trkpt lat="42.9323583" lon="11.5600333"><ele>385.0</ele><time>2026-04-26T12:47:26.299Z</time></trkpt><trkpt lat="42.9323883" lon="11.559875"><ele>385.0</ele><time>2026-04-26T12:47:27.298Z</time></trkpt><trkpt lat="42.9324033" lon="11.559695"><ele>385.0</ele><time>2026-04-26T12:47:28.298Z</time></trkpt><trkpt lat="42.9324017" lon="11.5594967"><ele>385.0</ele><time>2026-04-26T12:47:29.297Z</time></trkpt><trkpt lat="42.9324067" lon="11.559285"><ele>385.0</ele><time>2026-04-26T12:47:30.297Z</time></trkpt><trkpt lat="42.9324183" lon="11.559065"><ele>384.33333333333337</ele><time>2026-04-26T12:47:31.298Z</time></trkpt><trkpt lat="42.9324333" lon="11.558835"><ele>383.6666666666667</ele><time>2026-04-26T12:47:32.3Z</time></trkpt><trkpt lat="42.93246" lon="11.5586117"><ele>383.0</ele><time>2026-04-26T12:47:33.297Z</time></trkpt><trkpt lat="42.9325" lon="11.5583983"><ele>383.0</ele><time>2026-04-26T12:47:34.298Z</time></trkpt><trkpt lat="42.9325433" lon="11.55819"><ele>383.0</ele><time>2026-04-26T12:47:35.298Z</time></trkpt><trkpt lat="42.9325917" lon="11.5579933"><ele>383.0</ele><time>2026-04-26T12:47:36.297Z</time></trkpt><trkpt lat="42.9326433" lon="11.5578083"><ele>378.0</ele><time>2026-04-26T12:47:37.296Z</time></trkpt><trkpt lat="42.932685" lon="11.5576333"><ele>373.0</ele><time>2026-04-26T12:47:38.295Z</time></trkpt><trkpt lat="42.9327233" lon="11.5574717"><ele>368.0</ele><time>2026-04-26T12:47:39.298Z</time></trkpt><trkpt lat="42.93273" lon="11.557305"><ele>363.0</ele><time>2026-04-26T12:47:40.298Z</time></trkpt><trkpt lat="42.9327167" lon="11.5571317"><ele>363.0</ele><time>2026-04-26T12:47:41.299Z</time></trkpt><trkpt lat="42.9326817" lon="11.5569533"><ele>363.0</ele><time>2026-04-26T12:47:42.299Z</time></trkpt><trkpt lat="42.9326283" lon="11.5567767"><ele>363.0</ele><time>2026-04-26T12:47:43.297Z</time></trkpt><trkpt lat="42.9325567" lon="11.5566033"><ele>363.0</ele><time>2026-04-26T12:47:44.298Z</time></trkpt><trkpt lat="42.93247" lon="11.556435"><ele>363.0</ele><time>2026-04-26T12:47:45.297Z</time></trkpt><trkpt lat="42.932385" lon="11.5562517"><ele>363.0</ele><time>2026-04-26T12:47:46.297Z</time></trkpt><trkpt lat="42.9323183" lon="11.556055"><ele>363.0</ele><time>2026-04-26T12:47:47.299Z</time></trkpt><trkpt lat="42.9322683" lon="11.5558467"><ele>363.0</ele><time>2026-04-26T12:47:48.293Z</time></trkpt><trkpt lat="42.9322433" lon="11.5556433"><ele>363.0</ele><time>2026-04-26T12:47:49.299Z</time></trkpt><trkpt lat="42.93224" lon="11.5554517"><ele>363.0</ele><time>2026-04-26T12:47:50.298Z</time></trkpt><trkpt lat="42.93226" lon="11.5552733"><ele>363.0</ele><time>2026-04-26T12:47:51.298Z</time></trkpt><trkpt lat="42.932305" lon="11.5551183"><ele>363.2</ele><time>2026-04-26T12:47:52.297Z</time></trkpt><trkpt lat="42.9323533" lon="11.5549917"><ele>363.4</ele><time>2026-04-26T12:47:53.298Z</time></trkpt><trkpt lat="42.9323967" lon="11.554885"><ele>363.59999999999997</ele><time>2026-04-26T12:47:54.294Z</time></trkpt><trkpt lat="42.9324433" lon="11.5548033"><ele>363.79999999999995</ele><time>2026-04-26T12:47:55.294Z</time></trkpt><trkpt lat="42.932495" lon="11.5547533"><ele>364.0</ele><time>2026-04-26T12:47:56.299Z</time></trkpt><trkpt lat="42.932615" lon="11.55479"><ele>366.25</ele><time>2026-04-26T12:47:58.297Z</time></trkpt><trkpt lat="42.9326817" lon="11.5548633"><ele>368.5</ele><time>2026-04-26T12:47:59.295Z</time></trkpt><trkpt lat="42.932765" lon="11.55495"><ele>370.75</ele><time>2026-04-26T12:48:00.296Z</time></trkpt><trkpt lat="42.932875" lon="11.555035"><ele>373.0</ele><time>2026-04-26T12:48:01.298Z</time></trkpt><trkpt lat="42.9330033" lon="11.555105"><ele>373.0</ele><time>2026-04-26T12:48:02.298Z</time></trkpt><trkpt lat="42.9331433" lon="11.5551433"><ele>373.0</ele><time>2026-04-26T12:48:03.297Z</time></trkpt><trkpt lat="42.93329" lon="11.5551783"><ele>373.0</ele><time>2026-04-26T12:48:04.297Z</time></trkpt><trkpt lat="42.9334417" lon="11.5552317"><ele>373.0</ele><time>2026-04-26T12:48:05.298Z</time></trkpt><trkpt lat="42.9335817" lon="11.5553217"><ele>374.0</ele><time>2026-04-26T12:48:06.297Z</time></trkpt><trkpt lat="42.9337117" lon="11.55544"><ele>375.0</ele><time>2026-04-26T12:48:07.296Z</time></trkpt><trkpt lat="42.9338233" lon="11.5555867"><ele>376.0</ele><time>2026-04-26T12:48:08.298Z</time></trkpt><trkpt lat="42.933915" lon="11.5557483"><ele>376.0</ele><time>2026-04-26T12:48:09.297Z</time></trkpt><trkpt lat="42.9340033" lon="11.555905"><ele>376.0</ele><time>2026-04-26T12:48:10.295Z</time></trkpt><trkpt lat="42.9341" lon="11.5560367"><ele>376.0</ele><time>2026-04-26T12:48:11.298Z</time></trkpt><trkpt lat="42.93421" lon="11.5561183"><ele>376.0</ele><time>2026-04-26T12:48:12.296Z</time></trkpt><trkpt lat="42.9343383" lon="11.5561583"><ele>378.3333333333333</ele><time>2026-04-26T12:48:13.298Z</time></trkpt><trkpt lat="42.9344833" lon="11.5561683"><ele>380.6666666666667</ele><time>2026-04-26T12:48:14.299Z</time></trkpt><trkpt lat="42.9346417" lon="11.5561633"><ele>383.0</ele><time>2026-04-26T12:48:15.297Z</time></trkpt><trkpt lat="42.93481" lon="11.5561567"><ele>383.0</ele><time>2026-04-26T12:48:16.298Z</time></trkpt><trkpt lat="42.9349833" lon="11.5561483"><ele>383.0</ele><time>2026-04-26T12:48:17.296Z</time></trkpt><trkpt lat="42.935155" lon="11.556135"><ele>383.0</ele><time>2026-04-26T12:48:18.296Z</time></trkpt><trkpt lat="42.935315" lon="11.5561217"><ele>382.75</ele><time>2026-04-26T12:48:19.298Z</time></trkpt><trkpt lat="42.9354583" lon="11.5561367"><ele>382.5</ele><time>2026-04-26T12:48:20.298Z</time></trkpt><trkpt lat="42.9355817" lon="11.5561933"><ele>382.25</ele><time>2026-04-26T12:48:21.297Z</time></trkpt><trkpt lat="42.935695" lon="11.5562883"><ele>382.0</ele><time>2026-04-26T12:48:22.297Z</time></trkpt><trkpt lat="42.935805" lon="11.5564117"><ele>387.3333333333333</ele><time>2026-04-26T12:48:23.297Z</time></trkpt><trkpt lat="42.935915" lon="11.5565567"><ele>392.66666666666663</ele><time>2026-04-26T12:48:24.299Z</time></trkpt><trkpt lat="42.936025" lon="11.5567117"><ele>398.0</ele><time>2026-04-26T12:48:25.298Z</time></trkpt><trkpt lat="42.93614" lon="11.5568733"><ele>394.3333333333333</ele><time>2026-04-26T12:48:26.298Z</time></trkpt><trkpt lat="42.936255" lon="11.5570367"><ele>390.66666666666663</ele><time>2026-04-26T12:48:27.297Z</time></trkpt><trkpt lat="42.9363633" lon="11.5571933"><ele>387.0</ele><time>2026-04-26T12:48:28.298Z</time></trkpt><trkpt lat="42.9364683" lon="11.557335"><ele>387.0</ele><time>2026-04-26T12:48:29.298Z</time></trkpt><trkpt lat="42.936585" lon="11.557445"><ele>387.0</ele><time>2026-04-26T12:48:30.299Z</time></trkpt><trkpt lat="42.9367217" lon="11.5575217"><ele>387.0</ele><time>2026-04-26T12:48:31.296Z</time></trkpt><trkpt lat="42.9368633" lon="11.5575717"><ele>387.0</ele><time>2026-04-26T12:48:32.298Z</time></trkpt><trkpt lat="42.9369883" lon="11.5576117"><ele>387.8</ele><time>2026-04-26T12:48:33.296Z</time></trkpt><trkpt lat="42.9370983" lon="11.5576267"><ele>388.6</ele><time>2026-04-26T12:48:34.298Z</time></trkpt><trkpt lat="42.9371967" lon="11.5575933"><ele>389.40000000000003</ele><time>2026-04-26T12:48:35.296Z</time></trkpt><trkpt lat="42.9372883" lon="11.5575083"><ele>390.20000000000005</ele><time>2026-04-26T12:48:36.299Z</time></trkpt><trkpt lat="42.93737" lon="11.5573917"><ele>391.0</ele><time>2026-04-26T12:48:37.298Z</time></trkpt><trkpt lat="42.9374617" lon="11.5572683"><ele>395.0</ele><time>2026-04-26T12:48:38.299Z</time></trkpt><trkpt lat="42.9375767" lon="11.5571667"><ele>399.0</ele><time>2026-04-26T12:48:39.297Z</time></trkpt><trkpt lat="42.9377017" lon="11.5570967"><ele>403.0</ele><time>2026-04-26T12:48:40.298Z</time></trkpt><trkpt lat="42.9378133" lon="11.5570583"><ele>407.0</ele><time>2026-04-26T12:48:41.298Z</time></trkpt><trkpt lat="42.9379017" lon="11.55707"><ele>407.0</ele><time>2026-04-26T12:48:42.298Z</time></trkpt><trkpt lat="42.9379783" lon="11.5571183"><ele>407.0</ele><time>2026-04-26T12:48:43.298Z</time></trkpt><trkpt lat="42.9380317" lon="11.5571967"><ele>407.0</ele><time>2026-04-26T12:48:44.298Z</time></trkpt><trkpt lat="42.9380583" lon="11.5573067"><ele>407.0</ele><time>2026-04-26T12:48:45.298Z</time></trkpt><trkpt lat="42.9380633" lon="11.557455"><ele>407.0</ele><time>2026-04-26T12:48:46.297Z</time></trkpt><trkpt lat="42.93807" lon="11.5576217"><ele>407.0</ele><time>2026-04-26T12:48:47.298Z</time></trkpt><trkpt lat="42.9381067" lon="11.5577817"><ele>407.0</ele><time>2026-04-26T12:48:48.299Z</time></trkpt><trkpt lat="42.9381767" lon="11.55791"><ele>407.0</ele><time>2026-04-26T12:48:49.298Z</time></trkpt><trkpt lat="42.93828" lon="11.558015"><ele>407.0</ele><time>2026-04-26T12:48:50.298Z</time></trkpt><trkpt lat="42.9384133" lon="11.5580817"><ele>407.0</ele><time>2026-04-26T12:48:51.297Z</time></trkpt><trkpt lat="42.93858" lon="11.5581217"><ele>407.0</ele><time>2026-04-26T12:48:52.298Z</time></trkpt><trkpt lat="42.93877" lon="11.5581517"><ele>407.0</ele><time>2026-04-26T12:48:53.299Z</time></trkpt><trkpt lat="42.9389683" lon="11.558195"><ele>407.0</ele><time>2026-04-26T12:48:54.298Z</time></trkpt><trkpt lat="42.9391733" lon="11.55826"><ele>407.0</ele><time>2026-04-26T12:48:55.297Z</time></trkpt><trkpt lat="42.9393883" lon="11.5583383"><ele>407.0</ele><time>2026-04-26T12:48:56.299Z</time></trkpt><trkpt lat="42.9396133" lon="11.558415"><ele>410.0</ele><time>2026-04-26T12:48:57.297Z</time></trkpt><trkpt lat="42.93985" lon="11.558495"><ele>413.0</ele><time>2026-04-26T12:48:58.298Z</time></trkpt><trkpt lat="42.9401" lon="11.5585717"><ele>414.0</ele><time>2026-04-26T12:48:59.297Z</time></trkpt><trkpt lat="42.940355" lon="11.5586517"><ele>415.0</ele><time>2026-04-26T12:49:00.297Z</time></trkpt><trkpt lat="42.9406" lon="11.5587333"><ele>413.0</ele><time>2026-04-26T12:49:01.296Z</time></trkpt><trkpt lat="42.9408233" lon="11.558815"><ele>411.0</ele><time>2026-04-26T12:49:02.298Z</time></trkpt><trkpt lat="42.941025" lon="11.5589017"><ele>409.0</ele><time>2026-04-26T12:49:03.299Z</time></trkpt><trkpt lat="42.9412083" lon="11.559005"><ele>413.6666666666667</ele><time>2026-04-26T12:49:04.297Z</time></trkpt><trkpt lat="42.941375" lon="11.5591233"><ele>418.33333333333337</ele><time>2026-04-26T12:49:05.297Z</time></trkpt><trkpt lat="42.941535" lon="11.5592483"><ele>423.0</ele><time>2026-04-26T12:49:06.297Z</time></trkpt><trkpt lat="42.9416983" lon="11.5593717"><ele>423.66666666666663</ele><time>2026-04-26T12:49:07.297Z</time></trkpt><trkpt lat="42.9418617" lon="11.5594983"><ele>424.3333333333333</ele><time>2026-04-26T12:49:08.299Z</time></trkpt><trkpt lat="42.9420267" lon="11.55962"><ele>425.0</ele><time>2026-04-26T12:49:09.298Z</time></trkpt><trkpt lat="42.942185" lon="11.559745"><ele>425.0</ele><time>2026-04-26T12:49:10.297Z</time></trkpt><trkpt lat="42.9423317" lon="11.5598817"><ele>425.0</ele><time>2026-04-26T12:49:11.298Z</time></trkpt><trkpt lat="42.9424633" lon="11.5600183"><ele>425.0</ele><time>2026-04-26T12:49:12.297Z</time></trkpt><trkpt lat="42.9425867" lon="11.5601417"><ele>426.75</ele><time>2026-04-26T12:49:13.299Z</time></trkpt><trkpt lat="42.942705" lon="11.560235"><ele>428.5</ele><time>2026-04-26T12:49:14.3Z</time></trkpt><trkpt lat="42.9428317" lon="11.5602917"><ele>430.25</ele><time>2026-04-26T12:49:15.297Z</time></trkpt><trkpt lat="42.9429617" lon="11.5603017"><ele>432.0</ele><time>2026-04-26T12:49:16.299Z</time></trkpt><trkpt lat="42.9431017" lon="11.560265"><ele>432.0</ele><time>2026-04-26T12:49:17.296Z</time></trkpt><trkpt lat="42.94325" lon="11.560205"><ele>432.0</ele><time>2026-04-26T12:49:18.295Z</time></trkpt><trkpt lat="42.9434017" lon="11.5601217"><ele>432.0</ele><time>2026-04-26T12:49:19.296Z</time></trkpt><trkpt lat="42.9435583" lon="11.5600217"><ele>431.66666666666663</ele><time>2026-04-26T12:49:20.296Z</time></trkpt><trkpt lat="42.9437133" lon="11.55991"><ele>431.3333333333333</ele><time>2026-04-26T12:49:21.296Z</time></trkpt><trkpt lat="42.9438533" lon="11.5597983"><ele>431.0</ele><time>2026-04-26T12:49:22.295Z</time></trkpt><trkpt lat="42.9439817" lon="11.5596933"><ele>431.0</ele><time>2026-04-26T12:49:23.297Z</time></trkpt><trkpt lat="42.944105" lon="11.55961"><ele>431.0</ele><time>2026-04-26T12:49:24.299Z</time></trkpt><trkpt lat="42.94423" lon="11.559565"><ele>431.0</ele><time>2026-04-26T12:49:25.299Z</time></trkpt><trkpt lat="42.9443583" lon="11.5595567"><ele>431.0</ele><time>2026-04-26T12:49:26.298Z</time></trkpt><trkpt lat="42.9444833" lon="11.5595733"><ele>434.0</ele><time>2026-04-26T12:49:27.298Z</time></trkpt><trkpt lat="42.9446017" lon="11.5596233"><ele>437.0</ele><time>2026-04-26T12:49:28.296Z</time></trkpt><trkpt lat="42.9447067" lon="11.55971"><ele>440.0</ele><time>2026-04-26T12:49:29.299Z</time></trkpt><trkpt lat="42.9448067" lon="11.5598217"><ele>443.0</ele><time>2026-04-26T12:49:30.298Z</time></trkpt><trkpt lat="42.9449033" lon="11.55995"><ele>443.0</ele><time>2026-04-26T12:49:31.299Z</time></trkpt><trkpt lat="42.9449967" lon="11.560095"><ele>443.0</ele><time>2026-04-26T12:49:32.296Z</time></trkpt><trkpt lat="42.9450883" lon="11.56025"><ele>443.0</ele><time>2026-04-26T12:49:33.297Z</time></trkpt><trkpt lat="42.9451767" lon="11.5604117"><ele>443.0</ele><time>2026-04-26T12:49:34.299Z</time></trkpt><trkpt lat="42.945265" lon="11.5605867"><ele>446.3333333333333</ele><time>2026-04-26T12:49:35.298Z</time></trkpt><trkpt lat="42.94535" lon="11.5607667"><ele>449.66666666666663</ele><time>2026-04-26T12:49:36.296Z</time></trkpt><trkpt lat="42.9454333" lon="11.5609467"><ele>453.0</ele><time>2026-04-26T12:49:37.299Z</time></trkpt><trkpt lat="42.9455267" lon="11.56112"><ele>455.33333333333337</ele><time>2026-04-26T12:49:38.298Z</time></trkpt><trkpt lat="42.9456333" lon="11.561275"><ele>457.6666666666667</ele><time>2026-04-26T12:49:39.298Z</time></trkpt><trkpt lat="42.9457533" lon="11.5614133"><ele>460.0</ele><time>2026-04-26T12:49:40.298Z</time></trkpt><trkpt lat="42.9458817" lon="11.5615417"><ele>460.0</ele><time>2026-04-26T12:49:41.298Z</time></trkpt><trkpt lat="42.946015" lon="11.5616667"><ele>460.0</ele><time>2026-04-26T12:49:42.298Z</time></trkpt><trkpt lat="42.9461433" lon="11.5617917"><ele>460.0</ele><time>2026-04-26T12:49:43.297Z</time></trkpt><trkpt lat="42.946275" lon="11.5619083"><ele>460.0</ele><time>2026-04-26T12:49:44.297Z</time></trkpt><trkpt lat="42.9464133" lon="11.5620083"><ele>460.0</ele><time>2026-04-26T12:49:45.297Z</time></trkpt><trkpt lat="42.94657" lon="11.5620733"><ele>460.0</ele><time>2026-04-26T12:49:46.297Z</time></trkpt><trkpt lat="42.9467367" lon="11.562095"><ele>462.6666666666667</ele><time>2026-04-26T12:49:47.299Z</time></trkpt><trkpt lat="42.946915" lon="11.5620817"><ele>465.33333333333337</ele><time>2026-04-26T12:49:48.297Z</time></trkpt><trkpt lat="42.9471067" lon="11.56204"><ele>468.0</ele><time>2026-04-26T12:49:49.297Z</time></trkpt><trkpt lat="42.9473083" lon="11.561995"><ele>468.0</ele><time>2026-04-26T12:49:50.298Z</time></trkpt><trkpt lat="42.947515" lon="11.56196"><ele>468.0</ele><time>2026-04-26T12:49:51.297Z</time></trkpt><trkpt lat="42.9477133" lon="11.5619483"><ele>468.0</ele><time>2026-04-26T12:49:52.296Z</time></trkpt><trkpt lat="42.9479" lon="11.56196"><ele>467.0</ele><time>2026-04-26T12:49:53.297Z</time></trkpt><trkpt lat="42.9480667" lon="11.5620017"><ele>466.0</ele><time>2026-04-26T12:49:54.298Z</time></trkpt><trkpt lat="42.9482083" lon="11.5620683"><ele>465.0</ele><time>2026-04-26T12:49:55.297Z</time></trkpt><trkpt lat="42.9483283" lon="11.5621617"><ele>468.5</ele><time>2026-04-26T12:49:56.298Z</time></trkpt><trkpt lat="42.94843" lon="11.5622867"><ele>472.0</ele><time>2026-04-26T12:49:57.296Z</time></trkpt><trkpt lat="42.9485183" lon="11.5624267"><ele>475.5</ele><time>2026-04-26T12:49:58.298Z</time></trkpt><trkpt lat="42.9485967" lon="11.562555"><ele>479.0</ele><time>2026-04-26T12:49:59.297Z</time></trkpt><trkpt lat="42.9486783" lon="11.5626717"><ele>479.0</ele><time>2026-04-26T12:50:00.297Z</time></trkpt><trkpt lat="42.9487833" lon="11.562755"><ele>479.0</ele><time>2026-04-26T12:50:01.297Z</time></trkpt><trkpt lat="42.948915" lon="11.5627983"><ele>479.0</ele><time>2026-04-26T12:50:02.298Z</time></trkpt><trkpt lat="42.9490617" lon="11.5628133"><ele>479.0</ele><time>2026-04-26T12:50:03.298Z</time></trkpt><trkpt lat="42.9492083" lon="11.5628267"><ele>482.5</ele><time>2026-04-26T12:50:04.297Z</time></trkpt><trkpt lat="42.9493467" lon="11.5628533"><ele>486.0</ele><time>2026-04-26T12:50:05.298Z</time></trkpt><trkpt lat="42.9494633" lon="11.5628933"><ele>489.5</ele><time>2026-04-26T12:50:06.297Z</time></trkpt><trkpt lat="42.9495567" lon="11.5629633"><ele>493.0</ele><time>2026-04-26T12:50:07.298Z</time></trkpt><trkpt lat="42.94963" lon="11.5630717"><ele>493.0</ele><time>2026-04-26T12:50:08.299Z</time></trkpt><trkpt lat="42.9496767" lon="11.5632067"><ele>492.99999999999994</ele><time>2026-04-26T12:50:09.298Z</time></trkpt><trkpt lat="42.9497033" lon="11.56335"><ele>492.99999999999994</ele><time>2026-04-26T12:50:10.298Z</time></trkpt><trkpt lat="42.9497383" lon="11.56349"><ele>493.0</ele><time>2026-04-26T12:50:11.298Z</time></trkpt><trkpt lat="42.9498033" lon="11.5636233"><ele>493.0</ele><time>2026-04-26T12:50:12.298Z</time></trkpt><trkpt lat="42.9499033" lon="11.5637367"><ele>494.0</ele><time>2026-04-26T12:50:13.297Z</time></trkpt><trkpt lat="42.9500167" lon="11.56384"><ele>495.0</ele><time>2026-04-26T12:50:14.297Z</time></trkpt><trkpt lat="42.9501317" lon="11.5639467"><ele>496.0</ele><time>2026-04-26T12:50:15.299Z</time></trkpt><trkpt lat="42.9502467" lon="11.56406"><ele>497.0</ele><time>2026-04-26T12:50:16.297Z</time></trkpt><trkpt lat="42.9503583" lon="11.5641733"><ele>497.0</ele><time>2026-04-26T12:50:17.298Z</time></trkpt><trkpt lat="42.95047" lon="11.5642933"><ele>497.0</ele><time>2026-04-26T12:50:18.294Z</time></trkpt><trkpt lat="42.9505883" lon="11.5644133"><ele>497.0</ele><time>2026-04-26T12:50:19.299Z</time></trkpt><trkpt lat="42.9507" lon="11.56454"><ele>497.0</ele><time>2026-04-26T12:50:20.297Z</time></trkpt><trkpt lat="42.95081" lon="11.56467"><ele>496.75</ele><time>2026-04-26T12:50:21.299Z</time></trkpt><trkpt lat="42.9509167" lon="11.5648017"><ele>496.5</ele><time>2026-04-26T12:50:22.298Z</time></trkpt><trkpt lat="42.9510117" lon="11.5649433"><ele>496.25</ele><time>2026-04-26T12:50:23.298Z</time></trkpt><trkpt lat="42.9510967" lon="11.565085"><ele>496.0</ele><time>2026-04-26T12:50:24.298Z</time></trkpt><trkpt lat="42.9511733" lon="11.5652317"><ele>495.5</ele><time>2026-04-26T12:50:25.299Z</time></trkpt><trkpt lat="42.9512467" lon="11.5653817"><ele>495.0</ele><time>2026-04-26T12:50:26.298Z</time></trkpt><trkpt lat="42.9513183" lon="11.5655317"><ele>494.5</ele><time>2026-04-26T12:50:27.298Z</time></trkpt><trkpt lat="42.951385" lon="11.5656783"><ele>494.0</ele><time>2026-04-26T12:50:28.297Z</time></trkpt><trkpt lat="42.95145" lon="11.565815"><ele>494.0</ele><time>2026-04-26T12:50:29.299Z</time></trkpt><trkpt lat="42.95151" lon="11.5659417"><ele>494.0</ele><time>2026-04-26T12:50:30.299Z</time></trkpt><trkpt lat="42.951565" lon="11.5660567"><ele>494.0</ele><time>2026-04-26T12:50:31.299Z</time></trkpt><trkpt lat="42.9516117" lon="11.566165"><ele>494.0</ele><time>2026-04-26T12:50:32.297Z</time></trkpt><trkpt lat="42.9516467" lon="11.56627"><ele>494.0</ele><time>2026-04-26T12:50:33.298Z</time></trkpt><trkpt lat="42.95167" lon="11.5663767"><ele>493.99999999999994</ele><time>2026-04-26T12:50:34.298Z</time></trkpt><trkpt lat="42.9516833" lon="11.566485"><ele>494.0</ele><time>2026-04-26T12:50:35.297Z</time></trkpt><trkpt lat="42.9516883" lon="11.5665933"><ele>494.0</ele><time>2026-04-26T12:50:36.298Z</time></trkpt><trkpt lat="42.9516933" lon="11.5666917"><ele>494.0</ele><time>2026-04-26T12:50:37.299Z</time></trkpt><trkpt lat="42.9516917" lon="11.5668333"><ele>493.99999999999994</ele><time>2026-04-26T12:50:39.297Z</time></trkpt><trkpt lat="42.9517133" lon="11.56696"><ele>494.0</ele><time>2026-04-26T12:50:43.298Z</time></trkpt><trkpt lat="42.95175" lon="11.5671"><ele>494.0</ele><time>2026-04-26T12:50:45.298Z</time></trkpt><trkpt lat="42.951775" lon="11.56719"><ele>494.0</ele><time>2026-04-26T12:50:46.298Z</time></trkpt><trkpt lat="42.951815" lon="11.5672967"><ele>494.0</ele><time>2026-04-26T12:50:47.298Z</time></trkpt><trkpt lat="42.95186" lon="11.5674167"><ele>494.0</ele><time>2026-04-26T12:50:48.298Z</time></trkpt><trkpt lat="42.95191" lon="11.5675417"><ele>494.0</ele><time>2026-04-26T12:50:49.297Z</time></trkpt><trkpt lat="42.951965" lon="11.5676667"><ele>494.0</ele><time>2026-04-26T12:50:50.298Z</time></trkpt><trkpt lat="42.95202" lon="11.56779"><ele>494.0</ele><time>2026-04-26T12:50:51.299Z</time></trkpt><trkpt lat="42.952065" lon="11.56791"><ele>494.0</ele><time>2026-04-26T12:50:52.296Z</time></trkpt><trkpt lat="42.9521117" lon="11.5680283"><ele>494.0</ele><time>2026-04-26T12:50:53.298Z</time></trkpt><trkpt lat="42.9521583" lon="11.5681533"><ele>494.0</ele><time>2026-04-26T12:50:54.298Z</time></trkpt><trkpt lat="42.9522" lon="11.5682833"><ele>495.79999999999995</ele><time>2026-04-26T12:50:55.297Z</time></trkpt><trkpt lat="42.9522267" lon="11.5684167"><ele>497.59999999999997</ele><time>2026-04-26T12:50:56.298Z</time></trkpt><trkpt lat="42.9522433" lon="11.5685583"><ele>499.4</ele><time>2026-04-26T12:50:57.298Z</time></trkpt><trkpt lat="42.952255" lon="11.5687033"><ele>501.2</ele><time>2026-04-26T12:50:58.298Z</time></trkpt><trkpt lat="42.9522617" lon="11.5688517"><ele>503.0</ele><time>2026-04-26T12:50:59.298Z</time></trkpt><trkpt lat="42.9522633" lon="11.569"><ele>504.4</ele><time>2026-04-26T12:51:00.298Z</time></trkpt><trkpt lat="42.9522617" lon="11.5691483"><ele>505.79999999999995</ele><time>2026-04-26T12:51:01.299Z</time></trkpt><trkpt lat="42.9522517" lon="11.569295"><ele>507.2</ele><time>2026-04-26T12:51:02.297Z</time></trkpt><trkpt lat="42.9522417" lon="11.56944"><ele>508.6</ele><time>2026-04-26T12:51:03.297Z</time></trkpt><trkpt lat="42.9522317" lon="11.569585"><ele>510.0</ele><time>2026-04-26T12:51:04.298Z</time></trkpt><trkpt lat="42.9522283" lon="11.5697217"><ele>511.0</ele><time>2026-04-26T12:51:05.298Z</time></trkpt><trkpt lat="42.9522367" lon="11.569835"><ele>512.0</ele><time>2026-04-26T12:51:06.298Z</time></trkpt><trkpt lat="42.9522583" lon="11.569945"><ele>513.0</ele><time>2026-04-26T12:51:07.297Z</time></trkpt><trkpt lat="42.9522883" lon="11.5700633"><ele>514.0</ele><time>2026-04-26T12:51:08.298Z</time></trkpt><trkpt lat="42.9523183" lon="11.570185"><ele>515.0</ele><time>2026-04-26T12:51:09.298Z</time></trkpt><trkpt lat="42.9523417" lon="11.570295"><ele>516.0</ele><time>2026-04-26T12:51:10.298Z</time></trkpt><trkpt lat="42.9523583" lon="11.5704"><ele>517.6</ele><time>2026-04-26T12:51:11.298Z</time></trkpt><trkpt lat="42.9523817" lon="11.5705017"><ele>519.2</ele><time>2026-04-26T12:51:12.299Z</time></trkpt><trkpt lat="42.9524167" lon="11.5705933"><ele>520.8</ele><time>2026-04-26T12:51:13.299Z</time></trkpt><trkpt lat="42.9524767" lon="11.5706867"><ele>522.4</ele><time>2026-04-26T12:51:14.3Z</time></trkpt><trkpt lat="42.9525567" lon="11.5707833"><ele>524.0</ele><time>2026-04-26T12:51:15.295Z</time></trkpt><trkpt lat="42.9526517" lon="11.57086"><ele>524.2</ele><time>2026-04-26T12:51:16.297Z</time></trkpt><trkpt lat="42.952745" lon="11.5709217"><ele>524.4</ele><time>2026-04-26T12:51:17.297Z</time></trkpt><trkpt lat="42.952845" lon="11.5709717"><ele>524.6</ele><time>2026-04-26T12:51:18.297Z</time></trkpt><trkpt lat="42.95294" lon="11.57102"><ele>524.8</ele><time>2026-04-26T12:51:19.296Z</time></trkpt><trkpt lat="42.9530233" lon="11.57108"><ele>525.0</ele><time>2026-04-26T12:51:20.296Z</time></trkpt><trkpt lat="42.9530967" lon="11.571165"><ele>528.0</ele><time>2026-04-26T12:51:21.296Z</time></trkpt><trkpt lat="42.9531683" lon="11.5712717"><ele>531.0</ele><time>2026-04-26T12:51:22.296Z</time></trkpt><trkpt lat="42.9532367" lon="11.5713933"><ele>534.0</ele><time>2026-04-26T12:51:23.296Z</time></trkpt><trkpt lat="42.9533133" lon="11.571515"><ele>537.0</ele><time>2026-04-26T12:51:24.297Z</time></trkpt><trkpt lat="42.953395" lon="11.5716267"><ele>537.0</ele><time>2026-04-26T12:51:25.296Z</time></trkpt><trkpt lat="42.9534767" lon="11.5717283"><ele>537.0</ele><time>2026-04-26T12:51:26.297Z</time></trkpt><trkpt lat="42.9535533" lon="11.5718333"><ele>537.0</ele><time>2026-04-26T12:51:27.296Z</time></trkpt><trkpt lat="42.9536233" lon="11.5719567"><ele>537.0</ele><time>2026-04-26T12:51:28.296Z</time></trkpt><trkpt lat="42.9537" lon="11.57208"><ele>539.8333333333334</ele><time>2026-04-26T12:51:29.299Z</time></trkpt><trkpt lat="42.95378" lon="11.5721883"><ele>542.6666666666666</ele><time>2026-04-26T12:51:30.298Z</time></trkpt><trkpt lat="42.9538517" lon="11.572275"><ele>545.5</ele><time>2026-04-26T12:51:31.297Z</time></trkpt><trkpt lat="42.9539183" lon="11.572335"><ele>548.3333333333333</ele><time>2026-04-26T12:51:32.295Z</time></trkpt><trkpt lat="42.9539833" lon="11.5723667"><ele>551.1666666666666</ele><time>2026-04-26T12:51:33.299Z</time></trkpt><trkpt lat="42.9540567" lon="11.5723667"><ele>554.0</ele><time>2026-04-26T12:51:34.297Z</time></trkpt><trkpt lat="42.9541417" lon="11.572335"><ele>552.6666666666666</ele><time>2026-04-26T12:51:35.298Z</time></trkpt><trkpt lat="42.95422" lon="11.5723217"><ele>551.3333333333333</ele><time>2026-04-26T12:51:36.298Z</time></trkpt><trkpt lat="42.9542983" lon="11.572335"><ele>550.0</ele><time>2026-04-26T12:51:37.298Z</time></trkpt><trkpt lat="42.95437" lon="11.5723783"><ele>548.6666666666666</ele><time>2026-04-26T12:51:38.298Z</time></trkpt><trkpt lat="42.954435" lon="11.5724583"><ele>547.3333333333334</ele><time>2026-04-26T12:51:39.297Z</time></trkpt><trkpt lat="42.954495" lon="11.57256"><ele>546.0</ele><time>2026-04-26T12:51:40.298Z</time></trkpt><trkpt lat="42.954555" lon="11.5726733"><ele>546.0</ele><time>2026-04-26T12:51:41.299Z</time></trkpt><trkpt lat="42.954615" lon="11.5728067"><ele>546.0</ele><time>2026-04-26T12:51:42.298Z</time></trkpt><trkpt lat="42.9546683" lon="11.5729517"><ele>546.0</ele><time>2026-04-26T12:51:43.299Z</time></trkpt><trkpt lat="42.9547167" lon="11.573105"><ele>546.0</ele><time>2026-04-26T12:51:44.298Z</time></trkpt><trkpt lat="42.9547517" lon="11.57325"><ele>548.6</ele><time>2026-04-26T12:51:45.297Z</time></trkpt><trkpt lat="42.954775" lon="11.5733867"><ele>551.2</ele><time>2026-04-26T12:51:46.298Z</time></trkpt><trkpt lat="42.9547883" lon="11.5735217"><ele>553.8</ele><time>2026-04-26T12:51:47.297Z</time></trkpt><trkpt lat="42.9547933" lon="11.57365"><ele>556.4</ele><time>2026-04-26T12:51:48.295Z</time></trkpt><trkpt lat="42.9547833" lon="11.5737667"><ele>559.0</ele><time>2026-04-26T12:51:49.295Z</time></trkpt><trkpt lat="42.954775" lon="11.573875"><ele>558.8333333333334</ele><time>2026-04-26T12:51:50.297Z</time></trkpt><trkpt lat="42.95478" lon="11.5739783"><ele>558.6666666666667</ele><time>2026-04-26T12:51:51.296Z</time></trkpt><trkpt lat="42.9548033" lon="11.57407"><ele>558.5</ele><time>2026-04-26T12:51:52.295Z</time></trkpt><trkpt lat="42.9548433" lon="11.5741417"><ele>558.3333333333334</ele><time>2026-04-26T12:51:53.296Z</time></trkpt><trkpt lat="42.9548917" lon="11.57421"><ele>558.1666666666666</ele><time>2026-04-26T12:51:54.296Z</time></trkpt><trkpt lat="42.954965" lon="11.5742733"><ele>558.0</ele><time>2026-04-26T12:51:55.296Z</time></trkpt><trkpt lat="42.95506" lon="11.5743333"><ele>558.0</ele><time>2026-04-26T12:51:56.297Z</time></trkpt><trkpt lat="42.9551517" lon="11.5743983"><ele>558.0</ele><time>2026-04-26T12:51:57.297Z</time></trkpt><trkpt lat="42.955245" lon="11.5744683"><ele>558.0</ele><time>2026-04-26T12:51:58.295Z</time></trkpt><trkpt lat="42.95533" lon="11.5745417"><ele>558.0</ele><time>2026-04-26T12:51:59.298Z</time></trkpt><trkpt lat="42.9554133" lon="11.574615"><ele>558.0</ele><time>2026-04-26T12:52:00.298Z</time></trkpt><trkpt lat="42.9555" lon="11.5746917"><ele>558.4</ele><time>2026-04-26T12:52:01.299Z</time></trkpt><trkpt lat="42.9555867" lon="11.5747767"><ele>558.8</ele><time>2026-04-26T12:52:02.298Z</time></trkpt><trkpt lat="42.9556667" lon="11.5748617"><ele>559.2</ele><time>2026-04-26T12:52:03.298Z</time></trkpt><trkpt lat="42.9557483" lon="11.5749533"><ele>559.6</ele><time>2026-04-26T12:52:04.298Z</time></trkpt><trkpt lat="42.95584" lon="11.5750417"><ele>560.0</ele><time>2026-04-26T12:52:05.298Z</time></trkpt><trkpt lat="42.95594" lon="11.5751167"><ele>559.75</ele><time>2026-04-26T12:52:06.298Z</time></trkpt><trkpt lat="42.9560483" lon="11.575185"><ele>559.5</ele><time>2026-04-26T12:52:07.298Z</time></trkpt><trkpt lat="42.956155" lon="11.5752517"><ele>559.25</ele><time>2026-04-26T12:52:08.3Z</time></trkpt><trkpt lat="42.956265" lon="11.5753283"><ele>559.0</ele><time>2026-04-26T12:52:09.299Z</time></trkpt><trkpt lat="42.95637" lon="11.5754167"><ele>559.0</ele><time>2026-04-26T12:52:10.298Z</time></trkpt><trkpt lat="42.9564667" lon="11.5755117"><ele>559.0</ele><time>2026-04-26T12:52:11.296Z</time></trkpt><trkpt lat="42.9565517" lon="11.5756133"><ele>559.0</ele><time>2026-04-26T12:52:12.298Z</time></trkpt><trkpt lat="42.9566233" lon="11.5757233"><ele>559.0</ele><time>2026-04-26T12:52:13.299Z</time></trkpt><trkpt lat="42.956675" lon="11.5758517"><ele>559.0</ele><time>2026-04-26T12:52:14.299Z</time></trkpt><trkpt lat="42.9567083" lon="11.5759933"><ele>559.2</ele><time>2026-04-26T12:52:15.297Z</time></trkpt><trkpt lat="42.956725" lon="11.5761383"><ele>559.4</ele><time>2026-04-26T12:52:16.298Z</time></trkpt><trkpt lat="42.9567317" lon="11.5762833"><ele>559.6</ele><time>2026-04-26T12:52:17.297Z</time></trkpt><trkpt lat="42.95674" lon="11.5764267"><ele>559.8</ele><time>2026-04-26T12:52:18.296Z</time></trkpt><trkpt lat="42.95676" lon="11.576565"><ele>560.0</ele><time>2026-04-26T12:52:19.296Z</time></trkpt><trkpt lat="42.95679" lon="11.57671"><ele>560.0</ele><time>2026-04-26T12:52:20.298Z</time></trkpt><trkpt lat="42.9568283" lon="11.5768683"><ele>560.0</ele><time>2026-04-26T12:52:21.297Z</time></trkpt><trkpt lat="42.9568717" lon="11.57704"><ele>560.0</ele><time>2026-04-26T12:52:22.295Z</time></trkpt><trkpt lat="42.9569117" lon="11.57722"><ele>560.0</ele><time>2026-04-26T12:52:23.297Z</time></trkpt><trkpt lat="42.9569433" lon="11.5774067"><ele>560.5</ele><time>2026-04-26T12:52:24.297Z</time></trkpt><trkpt lat="42.95697" lon="11.5775933"><ele>561.0</ele><time>2026-04-26T12:52:25.296Z</time></trkpt><trkpt lat="42.9569967" lon="11.5777733"><ele>561.5</ele><time>2026-04-26T12:52:26.298Z</time></trkpt><trkpt lat="42.9570233" lon="11.57795"><ele>562.0</ele><time>2026-04-26T12:52:27.295Z</time></trkpt><trkpt lat="42.9570483" lon="11.57812"><ele>563.5</ele><time>2026-04-26T12:52:28.296Z</time></trkpt><trkpt lat="42.957065" lon="11.578285"><ele>565.0</ele><time>2026-04-26T12:52:29.298Z</time></trkpt><trkpt lat="42.95707" lon="11.5784417"><ele>566.5</ele><time>2026-04-26T12:52:30.298Z</time></trkpt><trkpt lat="42.9570533" lon="11.5785883"><ele>568.0</ele><time>2026-04-26T12:52:31.298Z</time></trkpt><trkpt lat="42.9570133" lon="11.57872"><ele>568.0</ele><time>2026-04-26T12:52:32.3Z</time></trkpt><trkpt lat="42.95695" lon="11.5788367"><ele>568.0</ele><time>2026-04-26T12:52:33.297Z</time></trkpt><trkpt lat="42.956875" lon="11.5789517"><ele>568.0</ele><time>2026-04-26T12:52:34.299Z</time></trkpt><trkpt lat="42.956795" lon="11.5790667"><ele>568.0</ele><time>2026-04-26T12:52:35.299Z</time></trkpt><trkpt lat="42.956715" lon="11.57919"><ele>570.5</ele><time>2026-04-26T12:52:36.297Z</time></trkpt><trkpt lat="42.95663" lon="11.5793167"><ele>573.0</ele><time>2026-04-26T12:52:37.298Z</time></trkpt><trkpt lat="42.9565433" lon="11.5794467"><ele>575.5</ele><time>2026-04-26T12:52:38.299Z</time></trkpt><trkpt lat="42.9564533" lon="11.579575"><ele>578.0</ele><time>2026-04-26T12:52:39.298Z</time></trkpt><trkpt lat="42.95636" lon="11.579705"><ele>578.0</ele><time>2026-04-26T12:52:40.298Z</time></trkpt><trkpt lat="42.9562633" lon="11.5798267"><ele>578.0</ele><time>2026-04-26T12:52:41.299Z</time></trkpt><trkpt lat="42.9561717" lon="11.5799367"><ele>578.0</ele><time>2026-04-26T12:52:42.299Z</time></trkpt><trkpt lat="42.95609" lon="11.5800467"><ele>578.0</ele><time>2026-04-26T12:52:43.299Z</time></trkpt><trkpt lat="42.95602" lon="11.58017"><ele>578.0</ele><time>2026-04-26T12:52:44.299Z</time></trkpt><trkpt lat="42.95596" lon="11.5803133"><ele>578.0</ele><time>2026-04-26T12:52:45.297Z</time></trkpt><trkpt lat="42.9559033" lon="11.580475"><ele>578.0</ele><time>2026-04-26T12:52:46.298Z</time></trkpt><trkpt lat="42.9558467" lon="11.5806433"><ele>578.0</ele><time>2026-04-26T12:52:47.297Z</time></trkpt><trkpt lat="42.9557917" lon="11.5808167"><ele>579.75</ele><time>2026-04-26T12:52:48.296Z</time></trkpt><trkpt lat="42.955735" lon="11.5809883"><ele>581.5</ele><time>2026-04-26T12:52:49.295Z</time></trkpt><trkpt lat="42.955675" lon="11.58116"><ele>583.25</ele><time>2026-04-26T12:52:50.297Z</time></trkpt><trkpt lat="42.9556167" lon="11.5813267"><ele>585.0</ele><time>2026-04-26T12:52:51.296Z</time></trkpt><trkpt lat="42.955555" lon="11.5814867"><ele>585.0</ele><time>2026-04-26T12:52:52.296Z</time></trkpt><trkpt lat="42.955485" lon="11.581645"><ele>585.0</ele><time>2026-04-26T12:52:53.298Z</time></trkpt><trkpt lat="42.9554083" lon="11.5818033"><ele>585.0</ele><time>2026-04-26T12:52:54.296Z</time></trkpt><trkpt lat="42.9553217" lon="11.5819483"><ele>585.0</ele><time>2026-04-26T12:52:55.297Z</time></trkpt><trkpt lat="42.9552367" lon="11.58209"><ele>582.5</ele><time>2026-04-26T12:52:56.296Z</time></trkpt><trkpt lat="42.9551483" lon="11.5822283"><ele>580.0</ele><time>2026-04-26T12:52:57.297Z</time></trkpt><trkpt lat="42.95506" lon="11.5823617"><ele>577.5</ele><time>2026-04-26T12:52:58.296Z</time></trkpt><trkpt lat="42.954965" lon="11.582495"><ele>575.0</ele><time>2026-04-26T12:52:59.299Z</time></trkpt><trkpt lat="42.954865" lon="11.5826283"><ele>579.25</ele><time>2026-04-26T12:53:00.298Z</time></trkpt><trkpt lat="42.954765" lon="11.582755"><ele>583.5</ele><time>2026-04-26T12:53:01.298Z</time></trkpt><trkpt lat="42.9546717" lon="11.5828717"><ele>587.75</ele><time>2026-04-26T12:53:02.298Z</time></trkpt><trkpt lat="42.9545833" lon="11.5829833"><ele>592.0</ele><time>2026-04-26T12:53:03.298Z</time></trkpt><trkpt lat="42.9544967" lon="11.5830917"><ele>592.0</ele><time>2026-04-26T12:53:04.298Z</time></trkpt><trkpt lat="42.9544183" lon="11.5831967"><ele>592.0</ele><time>2026-04-26T12:53:05.299Z</time></trkpt><trkpt lat="42.9543483" lon="11.5832967"><ele>592.0</ele><time>2026-04-26T12:53:06.299Z</time></trkpt><trkpt lat="42.9542883" lon="11.5834017"><ele>592.0</ele><time>2026-04-26T12:53:07.296Z</time></trkpt><trkpt lat="42.9542367" lon="11.5835217"><ele>592.0</ele><time>2026-04-26T12:53:08.298Z</time></trkpt><trkpt lat="42.95419" lon="11.58366"><ele>593.5</ele><time>2026-04-26T12:53:09.299Z</time></trkpt><trkpt lat="42.9541433" lon="11.583815"><ele>595.0</ele><time>2026-04-26T12:53:10.298Z</time></trkpt><trkpt lat="42.9541017" lon="11.5839867"><ele>596.5</ele><time>2026-04-26T12:53:11.299Z</time></trkpt><trkpt lat="42.954065" lon="11.5841633"><ele>598.0</ele><time>2026-04-26T12:53:12.298Z</time></trkpt><trkpt lat="42.9540233" lon="11.58433"><ele>598.0</ele><time>2026-04-26T12:53:13.299Z</time></trkpt><trkpt lat="42.953985" lon="11.5844867"><ele>598.0</ele><time>2026-04-26T12:53:14.298Z</time></trkpt><trkpt lat="42.9539517" lon="11.584635"><ele>598.0</ele><time>2026-04-26T12:53:15.297Z</time></trkpt><trkpt lat="42.95392" lon="11.5847783"><ele>598.0</ele><time>2026-04-26T12:53:16.299Z</time></trkpt><trkpt lat="42.9539017" lon="11.5849133"><ele>598.0</ele><time>2026-04-26T12:53:17.296Z</time></trkpt><trkpt lat="42.9538917" lon="11.5850483"><ele>597.25</ele><time>2026-04-26T12:53:18.297Z</time></trkpt><trkpt lat="42.9539083" lon="11.5851883"><ele>596.5</ele><time>2026-04-26T12:53:19.296Z</time></trkpt><trkpt lat="42.953955" lon="11.58533"><ele>595.75</ele><time>2026-04-26T12:53:20.294Z</time></trkpt><trkpt lat="42.9540183" lon="11.585475"><ele>595.0</ele><time>2026-04-26T12:53:21.296Z</time></trkpt><trkpt lat="42.9540833" lon="11.5856333"><ele>596.4</ele><time>2026-04-26T12:53:22.294Z</time></trkpt><trkpt lat="42.9541417" lon="11.58579"><ele>597.8</ele><time>2026-04-26T12:53:23.295Z</time></trkpt><trkpt lat="42.954185" lon="11.5859283"><ele>599.2</ele><time>2026-04-26T12:53:24.298Z</time></trkpt><trkpt lat="42.9542283" lon="11.5860483"><ele>600.6</ele><time>2026-04-26T12:53:25.299Z</time></trkpt><trkpt lat="42.9542767" lon="11.5861517"><ele>602.0</ele><time>2026-04-26T12:53:26.297Z</time></trkpt><trkpt lat="42.9543333" lon="11.5862383"><ele>602.6</ele><time>2026-04-26T12:53:27.298Z</time></trkpt><trkpt lat="42.9544067" lon="11.5863167"><ele>603.2</ele><time>2026-04-26T12:53:28.3Z</time></trkpt><trkpt lat="42.9544967" lon="11.5863967"><ele>603.8</ele><time>2026-04-26T12:53:29.298Z</time></trkpt><trkpt lat="42.9545983" lon="11.5864833"><ele>604.4</ele><time>2026-04-26T12:53:30.297Z</time></trkpt><trkpt lat="42.95471" lon="11.586565"><ele>605.0</ele><time>2026-04-26T12:53:31.299Z</time></trkpt><trkpt lat="42.9548333" lon="11.5866433"><ele>605.0</ele><time>2026-04-26T12:53:32.298Z</time></trkpt><trkpt lat="42.9549617" lon="11.5867167"><ele>605.0</ele><time>2026-04-26T12:53:33.295Z</time></trkpt><trkpt lat="42.9550883" lon="11.58678"><ele>605.0</ele><time>2026-04-26T12:53:34.296Z</time></trkpt><trkpt lat="42.9551967" lon="11.58684"><ele>605.0</ele><time>2026-04-26T12:53:35.298Z</time></trkpt><trkpt lat="42.955295" lon="11.5869167"><ele>602.75</ele><time>2026-04-26T12:53:36.299Z</time></trkpt><trkpt lat="42.95539" lon="11.5870083"><ele>600.5</ele><time>2026-04-26T12:53:37.298Z</time></trkpt><trkpt lat="42.95549" lon="11.5871033"><ele>598.25</ele><time>2026-04-26T12:53:38.298Z</time></trkpt><trkpt lat="42.9556" lon="11.5871967"><ele>596.0</ele><time>2026-04-26T12:53:39.296Z</time></trkpt><trkpt lat="42.9557133" lon="11.587285"><ele>601.25</ele><time>2026-04-26T12:53:40.297Z</time></trkpt><trkpt lat="42.9558383" lon="11.5873817"><ele>606.5</ele><time>2026-04-26T12:53:41.295Z</time></trkpt><trkpt lat="42.9559583" lon="11.5874867"><ele>611.75</ele><time>2026-04-26T12:53:42.3Z</time></trkpt><trkpt lat="42.9560783" lon="11.587595"><ele>617.0</ele><time>2026-04-26T12:53:43.297Z</time></trkpt><trkpt lat="42.9561883" lon="11.5876967"><ele>617.0</ele><time>2026-04-26T12:53:44.298Z</time></trkpt><trkpt lat="42.956285" lon="11.5877783"><ele>617.0</ele><time>2026-04-26T12:53:45.299Z</time></trkpt><trkpt lat="42.9563717" lon="11.58785"><ele>617.0</ele><time>2026-04-26T12:53:46.299Z</time></trkpt><trkpt lat="42.9564567" lon="11.5879283"><ele>617.0</ele><time>2026-04-26T12:53:47.296Z</time></trkpt><trkpt lat="42.9565267" lon="11.588025"><ele>617.0</ele><time>2026-04-26T12:53:48.295Z</time></trkpt><trkpt lat="42.956595" lon="11.5881433"><ele>616.75</ele><time>2026-04-26T12:53:49.297Z</time></trkpt><trkpt lat="42.95666" lon="11.58827"><ele>616.5</ele><time>2026-04-26T12:53:50.297Z</time></trkpt><trkpt lat="42.9567217" lon="11.5884033"><ele>616.25</ele><time>2026-04-26T12:53:51.296Z</time></trkpt><trkpt lat="42.956765" lon="11.5885483"><ele>616.0</ele><time>2026-04-26T12:53:52.294Z</time></trkpt><trkpt lat="42.9568" lon="11.5887017"><ele>618.75</ele><time>2026-04-26T12:53:53.297Z</time></trkpt><trkpt lat="42.95682" lon="11.5888733"><ele>621.5</ele><time>2026-04-26T12:53:54.298Z</time></trkpt><trkpt lat="42.9568317" lon="11.5890533"><ele>624.25</ele><time>2026-04-26T12:53:55.297Z</time></trkpt><trkpt lat="42.9568333" lon="11.5892217"><ele>627.0</ele><time>2026-04-26T12:53:56.299Z</time></trkpt><trkpt lat="42.95682" lon="11.5893633"><ele>627.0</ele><time>2026-04-26T12:53:57.298Z</time></trkpt><trkpt lat="42.9567867" lon="11.5894783"><ele>627.0</ele><time>2026-04-26T12:53:58.299Z</time></trkpt><trkpt lat="42.9567417" lon="11.589575"><ele>627.0</ele><time>2026-04-26T12:53:59.296Z</time></trkpt><trkpt lat="42.956685" lon="11.5896583"><ele>627.0</ele><time>2026-04-26T12:54:00.297Z</time></trkpt><trkpt lat="42.9566233" lon="11.5897283"><ele>627.0</ele><time>2026-04-26T12:54:01.298Z</time></trkpt><trkpt lat="42.9565683" lon="11.5897917"><ele>627.0</ele><time>2026-04-26T12:54:02.299Z</time></trkpt><trkpt lat="42.9564967" lon="11.5899133"><ele>629.8</ele><time>2026-04-26T12:54:04.299Z</time></trkpt><trkpt lat="42.9565" lon="11.590025"><ele>632.6</ele><time>2026-04-26T12:54:06.298Z</time></trkpt><trkpt lat="42.95661" lon="11.590155"><ele>635.4</ele><time>2026-04-26T12:54:08.3Z</time></trkpt><trkpt lat="42.9566783" lon="11.5902267"><ele>638.1999999999999</ele><time>2026-04-26T12:54:09.299Z</time></trkpt><trkpt lat="42.9567767" lon="11.5903"><ele>641.0</ele><time>2026-04-26T12:54:10.297Z</time></trkpt><trkpt lat="42.9568633" lon="11.5903683"><ele>643.75</ele><time>2026-04-26T12:54:11.298Z</time></trkpt><trkpt lat="42.9569967" lon="11.59044"><ele>646.5</ele><time>2026-04-26T12:54:12.296Z</time></trkpt><trkpt lat="42.9571233" lon="11.5905233"><ele>649.25</ele><time>2026-04-26T12:54:13.298Z</time></trkpt><trkpt lat="42.957245" lon="11.590615"><ele>652.0</ele><time>2026-04-26T12:54:14.297Z</time></trkpt><trkpt lat="42.9573633" lon="11.590685"><ele>652.0</ele><time>2026-04-26T12:54:15.297Z</time></trkpt><trkpt lat="42.9574733" lon="11.5907367"><ele>652.0</ele><time>2026-04-26T12:54:16.298Z</time></trkpt><trkpt lat="42.9575717" lon="11.5907933"><ele>652.0</ele><time>2026-04-26T12:54:17.298Z</time></trkpt><trkpt lat="42.9576483" lon="11.5908617"><ele>652.0</ele><time>2026-04-26T12:54:18.297Z</time></trkpt><trkpt lat="42.957715" lon="11.5909467"><ele>652.0</ele><time>2026-04-26T12:54:19.298Z</time></trkpt><trkpt lat="42.957775" lon="11.5910467"><ele>652.1666666666667</ele><time>2026-04-26T12:54:20.299Z</time></trkpt><trkpt lat="42.95784" lon="11.59114"><ele>652.3333333333334</ele><time>2026-04-26T12:54:21.298Z</time></trkpt><trkpt lat="42.9579067" lon="11.591215"><ele>652.5</ele><time>2026-04-26T12:54:22.298Z</time></trkpt><trkpt lat="42.9579767" lon="11.5912733"><ele>652.6666666666666</ele><time>2026-04-26T12:54:23.298Z</time></trkpt><trkpt lat="42.9580533" lon="11.5912967"><ele>652.8333333333333</ele><time>2026-04-26T12:54:24.297Z</time></trkpt><trkpt lat="42.9581533" lon="11.5912967"><ele>653.0</ele><time>2026-04-26T12:54:25.299Z</time></trkpt><trkpt lat="42.9582517" lon="11.5913"><ele>654.4285714285714</ele><time>2026-04-26T12:54:26.299Z</time></trkpt><trkpt lat="42.9583433" lon="11.59131"><ele>655.8571428571429</ele><time>2026-04-26T12:54:27.298Z</time></trkpt><trkpt lat="42.9584183" lon="11.5913367"><ele>657.2857142857142</ele><time>2026-04-26T12:54:28.296Z</time></trkpt><trkpt lat="42.9584817" lon="11.591385"><ele>658.7142857142858</ele><time>2026-04-26T12:54:29.297Z</time></trkpt><trkpt lat="42.9585267" lon="11.5914583"><ele>660.1428571428571</ele><time>2026-04-26T12:54:30.297Z</time></trkpt><trkpt lat="42.9585433" lon="11.591545"><ele>661.5714285714286</ele><time>2026-04-26T12:54:31.296Z</time></trkpt><trkpt lat="42.9585317" lon="11.59164"><ele>663.0</ele><time>2026-04-26T12:54:32.297Z</time></trkpt><trkpt lat="42.9585017" lon="11.5917483"><ele>663.0</ele><time>2026-04-26T12:54:33.296Z</time></trkpt><trkpt lat="42.95846" lon="11.5918717"><ele>663.0</ele><time>2026-04-26T12:54:34.297Z</time></trkpt><trkpt lat="42.958435" lon="11.5920183"><ele>663.0</ele><time>2026-04-26T12:54:35.298Z</time></trkpt><trkpt lat="42.95842" lon="11.5921967"><ele>663.0</ele><time>2026-04-26T12:54:36.296Z</time></trkpt><trkpt lat="42.9584133" lon="11.5923733"><ele>663.5999999999999</ele><time>2026-04-26T12:54:37.296Z</time></trkpt><trkpt lat="42.958405" lon="11.592525"><ele>664.1999999999999</ele><time>2026-04-26T12:54:38.296Z</time></trkpt><trkpt lat="42.9583867" lon="11.5926533"><ele>664.8</ele><time>2026-04-26T12:54:39.296Z</time></trkpt><trkpt lat="42.9583667" lon="11.5927767"><ele>665.4</ele><time>2026-04-26T12:54:40.297Z</time></trkpt><trkpt lat="42.95834" lon="11.5928867"><ele>666.0</ele><time>2026-04-26T12:54:41.297Z</time></trkpt><trkpt lat="42.9582967" lon="11.592995"><ele>666.0</ele><time>2026-04-26T12:54:42.295Z</time></trkpt><trkpt lat="42.958235" lon="11.5931017"><ele>666.0</ele><time>2026-04-26T12:54:43.294Z</time></trkpt><trkpt lat="42.9581517" lon="11.5932033"><ele>666.0</ele><time>2026-04-26T12:54:44.296Z</time></trkpt><trkpt lat="42.9580533" lon="11.5933133"><ele>666.0</ele><time>2026-04-26T12:54:45.298Z</time></trkpt><trkpt lat="42.9579517" lon="11.593425"><ele>666.0</ele><time>2026-04-26T12:54:46.297Z</time></trkpt><trkpt lat="42.9578483" lon="11.5935517"><ele>666.0</ele><time>2026-04-26T12:54:47.298Z</time></trkpt><trkpt lat="42.9577533" lon="11.5936767"><ele>666.0</ele><time>2026-04-26T12:54:48.298Z</time></trkpt><trkpt lat="42.95767" lon="11.5937967"><ele>666.0</ele><time>2026-04-26T12:54:49.296Z</time></trkpt><trkpt lat="42.9576033" lon="11.59391"><ele>665.8</ele><time>2026-04-26T12:54:50.3Z</time></trkpt><trkpt lat="42.95756" lon="11.5940183"><ele>665.5999999999999</ele><time>2026-04-26T12:54:51.299Z</time></trkpt><trkpt lat="42.957525" lon="11.59414"><ele>665.4</ele><time>2026-04-26T12:54:52.299Z</time></trkpt><trkpt lat="42.95752" lon="11.5942783"><ele>665.2</ele><time>2026-04-26T12:54:53.298Z</time></trkpt><trkpt lat="42.9575517" lon="11.5944467"><ele>665.0</ele><time>2026-04-26T12:54:54.298Z</time></trkpt><trkpt lat="42.9575983" lon="11.5946467"><ele>665.0</ele><time>2026-04-26T12:54:55.298Z</time></trkpt><trkpt lat="42.957645" lon="11.594855"><ele>665.0</ele><time>2026-04-26T12:54:56.299Z</time></trkpt><trkpt lat="42.9576917" lon="11.595065"><ele>665.0</ele><time>2026-04-26T12:54:57.298Z</time></trkpt><trkpt lat="42.9577383" lon="11.595265"><ele>667.3333333333333</ele><time>2026-04-26T12:54:58.298Z</time></trkpt><trkpt lat="42.9577817" lon="11.59546"><ele>669.6666666666666</ele><time>2026-04-26T12:54:59.297Z</time></trkpt><trkpt lat="42.9578317" lon="11.5956567"><ele>672.0</ele><time>2026-04-26T12:55:00.297Z</time></trkpt><trkpt lat="42.95789" lon="11.595845"><ele>672.0</ele><time>2026-04-26T12:55:01.296Z</time></trkpt><trkpt lat="42.957945" lon="11.5960167"><ele>672.0</ele><time>2026-04-26T12:55:02.3Z</time></trkpt><trkpt lat="42.9580067" lon="11.59617"><ele>672.0</ele><time>2026-04-26T12:55:03.3Z</time></trkpt><trkpt lat="42.958075" lon="11.59631"><ele>672.0</ele><time>2026-04-26T12:55:04.294Z</time></trkpt><trkpt lat="42.9581483" lon="11.596425"><ele>674.2</ele><time>2026-04-26T12:55:05.298Z</time></trkpt><trkpt lat="42.9582183" lon="11.5965183"><ele>676.4000000000001</ele><time>2026-04-26T12:55:06.297Z</time></trkpt><trkpt lat="42.958265" lon="11.5966083"><ele>678.5999999999999</ele><time>2026-04-26T12:55:07.298Z</time></trkpt><trkpt lat="42.958285" lon="11.596745"><ele>680.8</ele><time>2026-04-26T12:55:09.3Z</time></trkpt><trkpt lat="42.95819" lon="11.5967817"><ele>683.0</ele><time>2026-04-26T12:55:12.299Z</time></trkpt><trkpt lat="42.9580567" lon="11.5968"><ele>683.0</ele><time>2026-04-26T12:55:14.298Z</time></trkpt><trkpt lat="42.9579733" lon="11.5968283"><ele>683.0</ele><time>2026-04-26T12:55:15.299Z</time></trkpt><trkpt lat="42.9578883" lon="11.596875"><ele>683.0</ele><time>2026-04-26T12:55:16.299Z</time></trkpt><trkpt lat="42.9578183" lon="11.596935"><ele>683.0</ele><time>2026-04-26T12:55:17.298Z</time></trkpt><trkpt lat="42.9577683" lon="11.5970017"><ele>683.0</ele><time>2026-04-26T12:55:18.298Z</time></trkpt><trkpt lat="42.95774" lon="11.5971533"><ele>683.0</ele><time>2026-04-26T12:55:20.299Z</time></trkpt><trkpt lat="42.9577633" lon="11.59724"><ele>685.4</ele><time>2026-04-26T12:55:21.298Z</time></trkpt><trkpt lat="42.9578183" lon="11.5973417"><ele>687.8</ele><time>2026-04-26T12:55:22.298Z</time></trkpt><trkpt lat="42.9578783" lon="11.5974483"><ele>690.2</ele><time>2026-04-26T12:55:23.298Z</time></trkpt><trkpt lat="42.9579683" lon="11.59756"><ele>692.6</ele><time>2026-04-26T12:55:24.298Z</time></trkpt><trkpt lat="42.95806" lon="11.5976567"><ele>695.0</ele><time>2026-04-26T12:55:25.299Z</time></trkpt><trkpt lat="42.9581567" lon="11.597745"><ele>695.0</ele><time>2026-04-26T12:55:26.298Z</time></trkpt><trkpt lat="42.9582583" lon="11.5978267"><ele>695.0</ele><time>2026-04-26T12:55:27.3Z</time></trkpt><trkpt lat="42.95835" lon="11.5979083"><ele>695.0</ele><time>2026-04-26T12:55:28.298Z</time></trkpt><trkpt lat="42.9584267" lon="11.5979817"><ele>695.0</ele><time>2026-04-26T12:55:29.299Z</time></trkpt><trkpt lat="42.95848" lon="11.5980733"><ele>695.0</ele><time>2026-04-26T12:55:30.298Z</time></trkpt><trkpt lat="42.95852" lon="11.59818"><ele>695.2</ele><time>2026-04-26T12:55:31.297Z</time></trkpt><trkpt lat="42.9585233" lon="11.5983033"><ele>695.4</ele><time>2026-04-26T12:55:32.3Z</time></trkpt><trkpt lat="42.9585067" lon="11.598435"><ele>695.5999999999999</ele><time>2026-04-26T12:55:33.299Z</time></trkpt><trkpt lat="42.9584833" lon="11.5985633"><ele>695.8</ele><time>2026-04-26T12:55:34.299Z</time></trkpt><trkpt lat="42.9584667" lon="11.598685"><ele>696.0</ele><time>2026-04-26T12:55:35.299Z</time></trkpt><trkpt lat="42.958475" lon="11.5987933"><ele>696.0</ele><time>2026-04-26T12:55:36.296Z</time></trkpt><trkpt lat="42.9585017" lon="11.5988883"><ele>696.0</ele><time>2026-04-26T12:55:37.298Z</time></trkpt><trkpt lat="42.9585517" lon="11.598975"><ele>696.0</ele><time>2026-04-26T12:55:38.299Z</time></trkpt><trkpt lat="42.9586283" lon="11.59907"><ele>696.0</ele><time>2026-04-26T12:55:39.298Z</time></trkpt><trkpt lat="42.9587017" lon="11.5991983"><ele>696.0</ele><time>2026-04-26T12:55:40.298Z</time></trkpt><trkpt lat="42.9587583" lon="11.599345"><ele>696.0</ele><time>2026-04-26T12:55:41.298Z</time></trkpt><trkpt lat="42.9587983" lon="11.599495"><ele>696.0</ele><time>2026-04-26T12:55:42.297Z</time></trkpt><trkpt lat="42.958815" lon="11.5996467"><ele>696.0</ele><time>2026-04-26T12:55:43.298Z</time></trkpt><trkpt lat="42.95882" lon="11.5998033"><ele>696.0</ele><time>2026-04-26T12:55:44.299Z</time></trkpt><trkpt lat="42.95882" lon="11.5999617"><ele>697.25</ele><time>2026-04-26T12:55:45.299Z</time></trkpt><trkpt lat="42.9588083" lon="11.600125"><ele>698.5</ele><time>2026-04-26T12:55:46.297Z</time></trkpt><trkpt lat="42.9587883" lon="11.600295"><ele>699.75</ele><time>2026-04-26T12:55:47.298Z</time></trkpt><trkpt lat="42.958765" lon="11.6004633"><ele>701.0</ele><time>2026-04-26T12:55:48.298Z</time></trkpt><trkpt lat="42.95874" lon="11.60063"><ele>702.75</ele><time>2026-04-26T12:55:49.298Z</time></trkpt><trkpt lat="42.9587167" lon="11.6007967"><ele>704.5</ele><time>2026-04-26T12:55:50.299Z</time></trkpt><trkpt lat="42.958695" lon="11.6009683"><ele>706.25</ele><time>2026-04-26T12:55:51.298Z</time></trkpt><trkpt lat="42.9586783" lon="11.6011433"><ele>708.0</ele><time>2026-04-26T12:55:52.299Z</time></trkpt><trkpt lat="42.9586633" lon="11.601325"><ele>709.3333333333334</ele><time>2026-04-26T12:55:53.297Z</time></trkpt><trkpt lat="42.9586433" lon="11.6015167"><ele>710.6666666666667</ele><time>2026-04-26T12:55:54.301Z</time></trkpt><trkpt lat="42.9586217" lon="11.60173"><ele>712.0</ele><time>2026-04-26T12:55:55.298Z</time></trkpt><trkpt lat="42.9586" lon="11.601945"><ele>712.75</ele><time>2026-04-26T12:55:56.3Z</time></trkpt><trkpt lat="42.9585883" lon="11.60215"><ele>713.5</ele><time>2026-04-26T12:55:57.3Z</time></trkpt><trkpt lat="42.9585833" lon="11.6023383"><ele>714.25</ele><time>2026-04-26T12:55:58.301Z</time></trkpt><trkpt lat="42.9585867" lon="11.6025217"><ele>715.0</ele><time>2026-04-26T12:55:59.298Z</time></trkpt><trkpt lat="42.958585" lon="11.6027"><ele>715.5</ele><time>2026-04-26T12:56:00.3Z</time></trkpt><trkpt lat="42.958575" lon="11.6028683"><ele>716.0</ele><time>2026-04-26T12:56:01.299Z</time></trkpt><trkpt lat="42.9585533" lon="11.6030267"><ele>716.5</ele><time>2026-04-26T12:56:02.299Z</time></trkpt><trkpt lat="42.95853" lon="11.60318"><ele>717.0</ele><time>2026-04-26T12:56:03.298Z</time></trkpt><trkpt lat="42.9585133" lon="11.6033283"><ele>717.0</ele><time>2026-04-26T12:56:04.298Z</time></trkpt><trkpt lat="42.9585033" lon="11.6034717"><ele>717.0</ele><time>2026-04-26T12:56:05.298Z</time></trkpt><trkpt lat="42.9585067" lon="11.6036117"><ele>717.0</ele><time>2026-04-26T12:56:06.299Z</time></trkpt><trkpt lat="42.95852" lon="11.6037433"><ele>717.0</ele><time>2026-04-26T12:56:07.298Z</time></trkpt><trkpt lat="42.9585467" lon="11.6038567"><ele>717.0</ele><time>2026-04-26T12:56:08.3Z</time></trkpt><trkpt lat="42.9585933" lon="11.6039583"><ele>718.75</ele><time>2026-04-26T12:56:09.297Z</time></trkpt><trkpt lat="42.9586683" lon="11.6040583"><ele>720.5</ele><time>2026-04-26T12:56:10.3Z</time></trkpt><trkpt lat="42.9587717" lon="11.6041717"><ele>722.25</ele><time>2026-04-26T12:56:11.298Z</time></trkpt><trkpt lat="42.958875" lon="11.6042967"><ele>724.0</ele><time>2026-04-26T12:56:12.298Z</time></trkpt><trkpt lat="42.958965" lon="11.6044217"><ele>725.5</ele><time>2026-04-26T12:56:13.299Z</time></trkpt><trkpt lat="42.959045" lon="11.60456"><ele>727.0</ele><time>2026-04-26T12:56:14.3Z</time></trkpt><trkpt lat="42.959115" lon="11.6047167"><ele>728.5</ele><time>2026-04-26T12:56:15.298Z</time></trkpt><trkpt lat="42.959175" lon="11.6048883"><ele>730.0</ele><time>2026-04-26T12:56:16.299Z</time></trkpt><trkpt lat="42.9592167" lon="11.6050717"><ele>725.5</ele><time>2026-04-26T12:56:17.299Z</time></trkpt><trkpt lat="42.9592367" lon="11.605265"><ele>721.0</ele><time>2026-04-26T12:56:18.298Z</time></trkpt><trkpt lat="42.9592533" lon="11.6054533"><ele>716.5</ele><time>2026-04-26T12:56:19.299Z</time></trkpt><trkpt lat="42.95926" lon="11.60562"><ele>712.0</ele><time>2026-04-26T12:56:20.299Z</time></trkpt><trkpt lat="42.9592467" lon="11.60577"><ele>712.0</ele><time>2026-04-26T12:56:21.298Z</time></trkpt><trkpt lat="42.9592217" lon="11.6059217"><ele>712.0</ele><time>2026-04-26T12:56:22.299Z</time></trkpt><trkpt lat="42.9591983" lon="11.6060917"><ele>712.0</ele><time>2026-04-26T12:56:23.299Z</time></trkpt><trkpt lat="42.9591917" lon="11.6062767"><ele>712.0</ele><time>2026-04-26T12:56:24.298Z</time></trkpt><trkpt lat="42.9591967" lon="11.6064717"><ele>712.0</ele><time>2026-04-26T12:56:25.299Z</time></trkpt><trkpt lat="42.9592067" lon="11.6066833"><ele>712.0</ele><time>2026-04-26T12:56:26.299Z</time></trkpt><trkpt lat="42.95922" lon="11.60691"><ele>712.0</ele><time>2026-04-26T12:56:27.299Z</time></trkpt><trkpt lat="42.959235" lon="11.6071367"><ele>712.0</ele><time>2026-04-26T12:56:28.298Z</time></trkpt><trkpt lat="42.9592533" lon="11.6073583"><ele>712.0</ele><time>2026-04-26T12:56:29.298Z</time></trkpt><trkpt lat="42.9592767" lon="11.6075717"><ele>712.0</ele><time>2026-04-26T12:56:30.297Z</time></trkpt><trkpt lat="42.9593067" lon="11.6077767"><ele>714.25</ele><time>2026-04-26T12:56:31.299Z</time></trkpt><trkpt lat="42.9593467" lon="11.6079717"><ele>716.5</ele><time>2026-04-26T12:56:32.3Z</time></trkpt><trkpt lat="42.9594033" lon="11.608155"><ele>718.75</ele><time>2026-04-26T12:56:33.298Z</time></trkpt><trkpt lat="42.95946" lon="11.608325"><ele>721.0</ele><time>2026-04-26T12:56:34.297Z</time></trkpt><trkpt lat="42.9595033" lon="11.6084917"><ele>722.8</ele><time>2026-04-26T12:56:35.297Z</time></trkpt><trkpt lat="42.9595367" lon="11.60866"><ele>724.5999999999999</ele><time>2026-04-26T12:56:36.297Z</time></trkpt><trkpt lat="42.9595567" lon="11.6088133"><ele>726.4</ele><time>2026-04-26T12:56:37.299Z</time></trkpt><trkpt lat="42.95956" lon="11.608945"><ele>728.2</ele><time>2026-04-26T12:56:38.299Z</time></trkpt><trkpt lat="42.959545" lon="11.6090783"><ele>730.0</ele><time>2026-04-26T12:56:39.299Z</time></trkpt><trkpt lat="42.9595283" lon="11.6092167"><ele>730.0</ele><time>2026-04-26T12:56:40.298Z</time></trkpt><trkpt lat="42.9595183" lon="11.60936"><ele>730.0</ele><time>2026-04-26T12:56:41.298Z</time></trkpt><trkpt lat="42.959515" lon="11.6095133"><ele>730.0</ele><time>2026-04-26T12:56:42.299Z</time></trkpt><trkpt lat="42.9595267" lon="11.609675"><ele>730.0</ele><time>2026-04-26T12:56:43.299Z</time></trkpt><trkpt lat="42.9595483" lon="11.6098433"><ele>729.25</ele><time>2026-04-26T12:56:44.298Z</time></trkpt><trkpt lat="42.959585" lon="11.6100117"><ele>728.5</ele><time>2026-04-26T12:56:45.297Z</time></trkpt><trkpt lat="42.9596333" lon="11.6101733"><ele>727.75</ele><time>2026-04-26T12:56:46.299Z</time></trkpt><trkpt lat="42.959685" lon="11.6103233"><ele>727.0</ele><time>2026-04-26T12:56:47.296Z</time></trkpt><trkpt lat="42.95973" lon="11.6104683"><ele>726.2</ele><time>2026-04-26T12:56:48.299Z</time></trkpt><trkpt lat="42.9597833" lon="11.6106067"><ele>725.4000000000001</ele><time>2026-04-26T12:56:49.298Z</time></trkpt><trkpt lat="42.9598417" lon="11.6107317"><ele>724.5999999999999</ele><time>2026-04-26T12:56:50.297Z</time></trkpt><trkpt lat="42.9599133" lon="11.610835"><ele>723.8</ele><time>2026-04-26T12:56:51.297Z</time></trkpt><trkpt lat="42.9600067" lon="11.6109367"><ele>723.0</ele><time>2026-04-26T12:56:52.298Z</time></trkpt><trkpt lat="42.9601133" lon="11.6110467"><ele>721.3333333333334</ele><time>2026-04-26T12:56:53.298Z</time></trkpt><trkpt lat="42.9602383" lon="11.6111617"><ele>719.6666666666667</ele><time>2026-04-26T12:56:54.296Z</time></trkpt><trkpt lat="42.960375" lon="11.6112817"><ele>718.0</ele><time>2026-04-26T12:56:55.298Z</time></trkpt><trkpt lat="42.9605067" lon="11.6114"><ele>718.0</ele><time>2026-04-26T12:56:56.298Z</time></trkpt><trkpt lat="42.9606333" lon="11.6115217"><ele>718.0</ele><time>2026-04-26T12:56:57.297Z</time></trkpt><trkpt lat="42.9607467" lon="11.6116433"><ele>718.0</ele><time>2026-04-26T12:56:58.297Z</time></trkpt><trkpt lat="42.960845" lon="11.611775"><ele>718.0</ele><time>2026-04-26T12:56:59.298Z</time></trkpt><trkpt lat="42.9609267" lon="11.6118967"><ele>716.8</ele><time>2026-04-26T12:57:00.298Z</time></trkpt><trkpt lat="42.9610033" lon="11.6120017"><ele>715.5999999999999</ele><time>2026-04-26T12:57:01.298Z</time></trkpt><trkpt lat="42.9610833" lon="11.6120933"><ele>714.4000000000001</ele><time>2026-04-26T12:57:02.298Z</time></trkpt><trkpt lat="42.9611767" lon="11.6121633"><ele>713.2</ele><time>2026-04-26T12:57:03.298Z</time></trkpt><trkpt lat="42.9612783" lon="11.6122217"><ele>712.0</ele><time>2026-04-26T12:57:04.297Z</time></trkpt><trkpt lat="42.961375" lon="11.6122833"><ele>712.0</ele><time>2026-04-26T12:57:05.297Z</time></trkpt><trkpt lat="42.96148" lon="11.612345"><ele>712.0</ele><time>2026-04-26T12:57:06.296Z</time></trkpt><trkpt lat="42.9615767" lon="11.6124083"><ele>712.0</ele><time>2026-04-26T12:57:07.297Z</time></trkpt><trkpt lat="42.9616667" lon="11.6124883"><ele>712.0</ele><time>2026-04-26T12:57:08.3Z</time></trkpt><trkpt lat="42.9617483" lon="11.6125817"><ele>712.0</ele><time>2026-04-26T12:57:09.298Z</time></trkpt><trkpt lat="42.961815" lon="11.6126933"><ele>708.25</ele><time>2026-04-26T12:57:10.298Z</time></trkpt><trkpt lat="42.9618733" lon="11.61283"><ele>704.5</ele><time>2026-04-26T12:57:11.297Z</time></trkpt><trkpt lat="42.9619217" lon="11.612985"><ele>700.75</ele><time>2026-04-26T12:57:12.297Z</time></trkpt><trkpt lat="42.9619517" lon="11.6131467"><ele>697.0</ele><time>2026-04-26T12:57:13.297Z</time></trkpt><trkpt lat="42.96197" lon="11.6133117"><ele>697.0</ele><time>2026-04-26T12:57:14.298Z</time></trkpt><trkpt lat="42.9619767" lon="11.6134683"><ele>697.0</ele><time>2026-04-26T12:57:15.297Z</time></trkpt><trkpt lat="42.9619717" lon="11.6136183"><ele>697.0</ele><time>2026-04-26T12:57:16.296Z</time></trkpt><trkpt lat="42.9619567" lon="11.613765"><ele>697.0</ele><time>2026-04-26T12:57:17.294Z</time></trkpt><trkpt lat="42.9619367" lon="11.613915"><ele>697.0</ele><time>2026-04-26T12:57:18.3Z</time></trkpt><trkpt lat="42.9619217" lon="11.614065"><ele>696.4000000000001</ele><time>2026-04-26T12:57:19.298Z</time></trkpt><trkpt lat="42.961915" lon="11.61421"><ele>695.8000000000001</ele><time>2026-04-26T12:57:20.299Z</time></trkpt><trkpt lat="42.9619167" lon="11.614355"><ele>695.2</ele><time>2026-04-26T12:57:21.299Z</time></trkpt><trkpt lat="42.96193" lon="11.61451"><ele>694.6</ele><time>2026-04-26T12:57:22.298Z</time></trkpt><trkpt lat="42.9619567" lon="11.6146733"><ele>694.0</ele><time>2026-04-26T12:57:23.297Z</time></trkpt><trkpt lat="42.9620033" lon="11.6148383"><ele>693.6</ele><time>2026-04-26T12:57:24.297Z</time></trkpt><trkpt lat="42.962055" lon="11.6149917"><ele>693.2</ele><time>2026-04-26T12:57:25.298Z</time></trkpt><trkpt lat="42.9621" lon="11.6151233"><ele>692.8000000000001</ele><time>2026-04-26T12:57:26.301Z</time></trkpt><trkpt lat="42.96213" lon="11.6152567"><ele>692.4000000000001</ele><time>2026-04-26T12:57:27.296Z</time></trkpt><trkpt lat="42.9621417" lon="11.615395"><ele>692.0</ele><time>2026-04-26T12:57:28.298Z</time></trkpt><trkpt lat="42.9621417" lon="11.6155267"><ele>691.7142857142857</ele><time>2026-04-26T12:57:29.295Z</time></trkpt><trkpt lat="42.9621417" lon="11.615645"><ele>691.4285714285714</ele><time>2026-04-26T12:57:30.299Z</time></trkpt><trkpt lat="42.962145" lon="11.6157467"><ele>691.1428571428571</ele><time>2026-04-26T12:57:31.297Z</time></trkpt><trkpt lat="42.9621667" lon="11.6158367"><ele>690.8571428571429</ele><time>2026-04-26T12:57:32.299Z</time></trkpt><trkpt lat="42.9622033" lon="11.6159117"><ele>690.5714285714286</ele><time>2026-04-26T12:57:33.296Z</time></trkpt><trkpt lat="42.9622517" lon="11.6159683"><ele>690.2857142857143</ele><time>2026-04-26T12:57:34.298Z</time></trkpt><trkpt lat="42.9623217" lon="11.6160083"><ele>690.0</ele><time>2026-04-26T12:57:35.298Z</time></trkpt><trkpt lat="42.9624117" lon="11.6160267"><ele>690.0</ele><time>2026-04-26T12:57:36.297Z</time></trkpt><trkpt lat="42.9625033" lon="11.6160467"><ele>690.0</ele><time>2026-04-26T12:57:37.298Z</time></trkpt><trkpt lat="42.9626383" lon="11.616025"><ele>690.0</ele><time>2026-04-26T12:57:38.298Z</time></trkpt><trkpt lat="42.962805" lon="11.6159817"><ele>690.0</ele><time>2026-04-26T12:57:39.297Z</time></trkpt><trkpt lat="42.9629517" lon="11.6159517"><ele>686.6666666666666</ele><time>2026-04-26T12:57:40.297Z</time></trkpt><trkpt lat="42.963105" lon="11.6159283"><ele>683.3333333333333</ele><time>2026-04-26T12:57:41.296Z</time></trkpt><trkpt lat="42.96327" lon="11.6159133"><ele>680.0</ele><time>2026-04-26T12:57:42.299Z</time></trkpt><trkpt lat="42.96344" lon="11.6159"><ele>678.6666666666666</ele><time>2026-04-26T12:57:43.298Z</time></trkpt><trkpt lat="42.9636" lon="11.615895"><ele>677.3333333333334</ele><time>2026-04-26T12:57:44.298Z</time></trkpt><trkpt lat="42.9637533" lon="11.6159033"><ele>676.0</ele><time>2026-04-26T12:57:45.298Z</time></trkpt><trkpt lat="42.9639" lon="11.6159167"><ele>676.0</ele><time>2026-04-26T12:57:46.297Z</time></trkpt><trkpt lat="42.9640383" lon="11.6159283"><ele>676.0</ele><time>2026-04-26T12:57:47.296Z</time></trkpt><trkpt lat="42.9641683" lon="11.6159383"><ele>676.0</ele><time>2026-04-26T12:57:48.296Z</time></trkpt><trkpt lat="42.964295" lon="11.6159367"><ele>676.0</ele><time>2026-04-26T12:57:49.296Z</time></trkpt><trkpt lat="42.9644233" lon="11.6159167"><ele>675.5</ele><time>2026-04-26T12:57:50.297Z</time></trkpt><trkpt lat="42.9645517" lon="11.615885"><ele>675.0</ele><time>2026-04-26T12:57:51.296Z</time></trkpt><trkpt lat="42.9646783" lon="11.6158533"><ele>674.5</ele><time>2026-04-26T12:57:52.296Z</time></trkpt><trkpt lat="42.9648" lon="11.6158283"><ele>674.0</ele><time>2026-04-26T12:57:53.296Z</time></trkpt><trkpt lat="42.9649183" lon="11.615815"><ele>674.0</ele><time>2026-04-26T12:57:54.297Z</time></trkpt><trkpt lat="42.9650283" lon="11.61581"><ele>674.0</ele><time>2026-04-26T12:57:55.298Z</time></trkpt><trkpt lat="42.9651333" lon="11.6158117"><ele>674.0</ele><time>2026-04-26T12:57:56.298Z</time></trkpt><trkpt lat="42.9652467" lon="11.6158333"><ele>674.0</ele><time>2026-04-26T12:57:57.297Z</time></trkpt><trkpt lat="42.9653633" lon="11.6158683"><ele>674.0</ele><time>2026-04-26T12:57:58.297Z</time></trkpt><trkpt lat="42.965475" lon="11.615905"><ele>672.2</ele><time>2026-04-26T12:57:59.296Z</time></trkpt><trkpt lat="42.9655833" lon="11.615935"><ele>670.4000000000001</ele><time>2026-04-26T12:58:00.297Z</time></trkpt><trkpt lat="42.9656817" lon="11.6159583"><ele>668.6</ele><time>2026-04-26T12:58:01.297Z</time></trkpt><trkpt lat="42.9657733" lon="11.615985"><ele>666.8</ele><time>2026-04-26T12:58:02.297Z</time></trkpt><trkpt lat="42.965865" lon="11.6160283"><ele>665.0</ele><time>2026-04-26T12:58:03.297Z</time></trkpt><trkpt lat="42.965955" lon="11.6160933"><ele>663.8</ele><time>2026-04-26T12:58:04.297Z</time></trkpt><trkpt lat="42.96604" lon="11.6161733"><ele>662.6</ele><time>2026-04-26T12:58:05.296Z</time></trkpt><trkpt lat="42.96612" lon="11.6162617"><ele>661.4000000000001</ele><time>2026-04-26T12:58:06.296Z</time></trkpt><trkpt lat="42.9661967" lon="11.6163483"><ele>660.2</ele><time>2026-04-26T12:58:07.296Z</time></trkpt><trkpt lat="42.966265" lon="11.6164317"><ele>659.0</ele><time>2026-04-26T12:58:08.297Z</time></trkpt><trkpt lat="42.9663317" lon="11.6165017"><ele>659.0</ele><time>2026-04-26T12:58:09.298Z</time></trkpt><trkpt lat="42.966395" lon="11.616565"><ele>659.0</ele><time>2026-04-26T12:58:10.298Z</time></trkpt><trkpt lat="42.9664817" lon="11.61665"><ele>659.0</ele><time>2026-04-26T12:58:12.297Z</time></trkpt><trkpt lat="42.96654" lon="11.6166883"><ele>659.0</ele><time>2026-04-26T12:58:14.298Z</time></trkpt><trkpt lat="42.9666" lon="11.616735"><ele>659.0</ele><time>2026-04-26T12:59:00.295Z</time></trkpt><trkpt lat="42.9666617" lon="11.616765"><ele>659.0</ele><time>2026-04-26T12:59:03.299Z</time></trkpt><trkpt lat="42.966735" lon="11.6167717"><ele>659.1666666666666</ele><time>2026-04-26T12:59:14.298Z</time></trkpt><trkpt lat="42.9668417" lon="11.6167517"><ele>659.3333333333333</ele><time>2026-04-26T12:59:16.296Z</time></trkpt><trkpt lat="42.9669083" lon="11.6167383"><ele>659.5</ele><time>2026-04-26T12:59:17.297Z</time></trkpt><trkpt lat="42.9669833" lon="11.6167283"><ele>659.6666666666666</ele><time>2026-04-26T12:59:18.296Z</time></trkpt><trkpt lat="42.9670633" lon="11.61672"><ele>659.8333333333334</ele><time>2026-04-26T12:59:19.296Z</time></trkpt><trkpt lat="42.9671483" lon="11.6167117"><ele>660.0</ele><time>2026-04-26T12:59:20.297Z</time></trkpt><trkpt lat="42.967235" lon="11.6167017"><ele>660.0</ele><time>2026-04-26T12:59:21.297Z</time></trkpt><trkpt lat="42.967325" lon="11.6166833"><ele>660.0</ele><time>2026-04-26T12:59:22.296Z</time></trkpt><trkpt lat="42.96741" lon="11.6166617"><ele>660.0</ele><time>2026-04-26T12:59:23.297Z</time></trkpt><trkpt lat="42.9674917" lon="11.6166433"><ele>660.0</ele><time>2026-04-26T12:59:24.298Z</time></trkpt><trkpt lat="42.9675667" lon="11.6166383"><ele>660.0</ele><time>2026-04-26T12:59:25.298Z</time></trkpt><trkpt lat="42.96763" lon="11.6166467"><ele>660.0</ele><time>2026-04-26T12:59:26.298Z</time></trkpt><trkpt lat="42.9677233" lon="11.6167083"><ele>660.0</ele><time>2026-04-26T12:59:28.298Z</time></trkpt><trkpt lat="42.9677833" lon="11.6168317"><ele>660.0</ele><time>2026-04-26T12:59:30.298Z</time></trkpt><trkpt lat="42.96781" lon="11.6169217"><ele>660.0</ele><time>2026-04-26T12:59:31.296Z</time></trkpt><trkpt lat="42.9678417" lon="11.61702"><ele>660.0</ele><time>2026-04-26T12:59:32.298Z</time></trkpt><trkpt lat="42.9678767" lon="11.61713"><ele>660.0</ele><time>2026-04-26T12:59:33.298Z</time></trkpt><trkpt lat="42.967915" lon="11.617245"><ele>660.0</ele><time>2026-04-26T12:59:34.298Z</time></trkpt><trkpt lat="42.9679517" lon="11.6173583"><ele>660.0</ele><time>2026-04-26T12:59:35.296Z</time></trkpt><trkpt lat="42.9679883" lon="11.6174717"><ele>660.0</ele><time>2026-04-26T12:59:36.296Z</time></trkpt><trkpt lat="42.9680333" lon="11.617575"><ele>660.0</ele><time>2026-04-26T12:59:37.299Z</time></trkpt><trkpt lat="42.96808" lon="11.6176633"><ele>660.0</ele><time>2026-04-26T12:59:38.298Z</time></trkpt><trkpt lat="42.9681333" lon="11.617735"><ele>660.0</ele><time>2026-04-26T12:59:39.298Z</time></trkpt><trkpt lat="42.9681933" lon="11.6177983"><ele>660.0</ele><time>2026-04-26T12:59:40.297Z</time></trkpt><trkpt lat="42.9682667" lon="11.61785"><ele>657.5</ele><time>2026-04-26T12:59:41.294Z</time></trkpt><trkpt lat="42.9683433" lon="11.6178983"><ele>655.0</ele><time>2026-04-26T12:59:42.298Z</time></trkpt><trkpt lat="42.9684167" lon="11.617945"><ele>652.5</ele><time>2026-04-26T12:59:43.298Z</time></trkpt><trkpt lat="42.9684867" lon="11.617995"><ele>650.0</ele><time>2026-04-26T12:59:44.296Z</time></trkpt><trkpt lat="42.9685583" lon="11.61804"><ele>647.5</ele><time>2026-04-26T12:59:45.298Z</time></trkpt><trkpt lat="42.9686267" lon="11.6180867"><ele>645.0</ele><time>2026-04-26T12:59:46.298Z</time></trkpt><trkpt lat="42.9687" lon="11.618145"><ele>644.8333333333334</ele><time>2026-04-26T12:59:47.299Z</time></trkpt><trkpt lat="42.9687767" lon="11.6181967"><ele>644.6666666666666</ele><time>2026-04-26T12:59:48.295Z</time></trkpt><trkpt lat="42.9688417" lon="11.61826"><ele>644.5</ele><time>2026-04-26T12:59:49.299Z</time></trkpt><trkpt lat="42.9689117" lon="11.61832"><ele>644.3333333333333</ele><time>2026-04-26T12:59:50.296Z</time></trkpt><trkpt lat="42.96898" lon="11.618375"><ele>644.1666666666666</ele><time>2026-04-26T12:59:51.295Z</time></trkpt><trkpt lat="42.96905" lon="11.6184317"><ele>644.0</ele><time>2026-04-26T12:59:52.296Z</time></trkpt><trkpt lat="42.9691183" lon="11.618495"><ele>644.0</ele><time>2026-04-26T12:59:53.295Z</time></trkpt><trkpt lat="42.9691767" lon="11.61856"><ele>644.0</ele><time>2026-04-26T12:59:54.299Z</time></trkpt><trkpt lat="42.9692233" lon="11.618635"><ele>644.0</ele><time>2026-04-26T12:59:55.296Z</time></trkpt><trkpt lat="42.9692667" lon="11.618715"><ele>644.0</ele><time>2026-04-26T12:59:56.296Z</time></trkpt><trkpt lat="42.9693083" lon="11.6188233"><ele>644.0</ele><time>2026-04-26T12:59:57.296Z</time></trkpt><trkpt lat="42.9693483" lon="11.6189383"><ele>644.0</ele><time>2026-04-26T12:59:58.295Z</time></trkpt><trkpt lat="42.96939" lon="11.6190517"><ele>642.1666666666666</ele><time>2026-04-26T12:59:59.297Z</time></trkpt><trkpt lat="42.9694317" lon="11.61915"><ele>640.3333333333333</ele><time>2026-04-26T13:00:00.296Z</time></trkpt><trkpt lat="42.969475" lon="11.6192467"><ele>638.5</ele><time>2026-04-26T13:00:01.297Z</time></trkpt><trkpt lat="42.9695183" lon="11.61934"><ele>636.6666666666666</ele><time>2026-04-26T13:00:02.295Z</time></trkpt><trkpt lat="42.969545" lon="11.6194383"><ele>634.8333333333334</ele><time>2026-04-26T13:00:03.296Z</time></trkpt><trkpt lat="42.96956" lon="11.6195433"><ele>633.0</ele><time>2026-04-26T13:00:04.295Z</time></trkpt><trkpt lat="42.9695717" lon="11.619645"><ele>630.6</ele><time>2026-04-26T13:00:05.295Z</time></trkpt><trkpt lat="42.96955" lon="11.6197467"><ele>628.1999999999999</ele><time>2026-04-26T13:00:06.295Z</time></trkpt><trkpt lat="42.9694767" lon="11.6198433"><ele>625.8</ele><time>2026-04-26T13:00:07.296Z</time></trkpt><trkpt lat="42.9694017" lon="11.619935"><ele>623.4</ele><time>2026-04-26T13:00:08.296Z</time></trkpt><trkpt lat="42.9693067" lon="11.620015"><ele>621.0</ele><time>2026-04-26T13:00:09.295Z</time></trkpt><trkpt lat="42.9692217" lon="11.6200967"><ele>620.6666666666666</ele><time>2026-04-26T13:00:10.295Z</time></trkpt><trkpt lat="42.9691417" lon="11.620175"><ele>620.3333333333334</ele><time>2026-04-26T13:00:11.297Z</time></trkpt><trkpt lat="42.9690733" lon="11.6202517"><ele>620.0</ele><time>2026-04-26T13:00:12.298Z</time></trkpt><trkpt lat="42.9690117" lon="11.6203183"><ele>619.6666666666667</ele><time>2026-04-26T13:00:13.299Z</time></trkpt><trkpt lat="42.9689633" lon="11.6203867"><ele>619.3333333333334</ele><time>2026-04-26T13:00:14.299Z</time></trkpt><trkpt lat="42.9689317" lon="11.620465"><ele>619.0</ele><time>2026-04-26T13:00:15.298Z</time></trkpt><trkpt lat="42.9689183" lon="11.62056"><ele>616.2</ele><time>2026-04-26T13:00:16.297Z</time></trkpt><trkpt lat="42.968935" lon="11.6206783"><ele>613.4</ele><time>2026-04-26T13:00:17.298Z</time></trkpt><trkpt lat="42.9689717" lon="11.62081"><ele>610.6</ele><time>2026-04-26T13:00:18.297Z</time></trkpt><trkpt lat="42.9689967" lon="11.6209317"><ele>607.8</ele><time>2026-04-26T13:00:19.297Z</time></trkpt><trkpt lat="42.96902" lon="11.6210533"><ele>605.0</ele><time>2026-04-26T13:00:20.301Z</time></trkpt><trkpt lat="42.96904" lon="11.6211733"><ele>603.0</ele><time>2026-04-26T13:00:21.299Z</time></trkpt><trkpt lat="42.9690733" lon="11.6212783"><ele>601.0</ele><time>2026-04-26T13:00:22.297Z</time></trkpt><trkpt lat="42.9691167" lon="11.6213633"><ele>599.0</ele><time>2026-04-26T13:00:23.297Z</time></trkpt><trkpt lat="42.96917" lon="11.6214317"><ele>597.0</ele><time>2026-04-26T13:00:24.298Z</time></trkpt><trkpt lat="42.96921" lon="11.6215033"><ele>595.0</ele><time>2026-04-26T13:00:25.297Z</time></trkpt><trkpt lat="42.96922" lon="11.6216667"><ele>593.0</ele><time>2026-04-26T13:00:27.297Z</time></trkpt><trkpt lat="42.96919" lon="11.621755"><ele>592.6666666666666</ele><time>2026-04-26T13:00:28.295Z</time></trkpt><trkpt lat="42.969155" lon="11.6218417"><ele>592.3333333333333</ele><time>2026-04-26T13:00:29.296Z</time></trkpt><trkpt lat="42.9691217" lon="11.62193"><ele>592.0</ele><time>2026-04-26T13:00:30.296Z</time></trkpt><trkpt lat="42.9691" lon="11.622025"><ele>591.6666666666666</ele><time>2026-04-26T13:00:31.296Z</time></trkpt><trkpt lat="42.9690833" lon="11.6221167"><ele>591.3333333333334</ele><time>2026-04-26T13:00:32.297Z</time></trkpt><trkpt lat="42.9690933" lon="11.6222767"><ele>591.0</ele><time>2026-04-26T13:00:34.294Z</time></trkpt><trkpt lat="42.9691683" lon="11.622375"><ele>588.6</ele><time>2026-04-26T13:00:36.294Z</time></trkpt><trkpt lat="42.9692917" lon="11.62241"><ele>586.2</ele><time>2026-04-26T13:00:38.297Z</time></trkpt><trkpt lat="42.9693767" lon="11.6223817"><ele>583.8</ele><time>2026-04-26T13:00:39.295Z</time></trkpt><trkpt lat="42.9694617" lon="11.6223733"><ele>581.4</ele><time>2026-04-26T13:00:40.297Z</time></trkpt><trkpt lat="42.9695567" lon="11.6223783"><ele>579.0</ele><time>2026-04-26T13:00:41.297Z</time></trkpt><trkpt lat="42.96964" lon="11.622405"><ele>579.0</ele><time>2026-04-26T13:00:42.297Z</time></trkpt><trkpt lat="42.969715" lon="11.6224533"><ele>579.0</ele><time>2026-04-26T13:00:43.298Z</time></trkpt><trkpt lat="42.9697667" lon="11.6225283"><ele>579.0</ele><time>2026-04-26T13:00:44.298Z</time></trkpt><trkpt lat="42.9697883" lon="11.622625"><ele>579.0</ele><time>2026-04-26T13:00:45.299Z</time></trkpt><trkpt lat="42.9698017" lon="11.6227333"><ele>579.0</ele><time>2026-04-26T13:00:46.298Z</time></trkpt><trkpt lat="42.9698133" lon="11.6228483"><ele>579.0</ele><time>2026-04-26T13:00:47.298Z</time></trkpt><trkpt lat="42.9698217" lon="11.6229683"><ele>577.5</ele><time>2026-04-26T13:00:48.299Z</time></trkpt><trkpt lat="42.9698267" lon="11.6230883"><ele>576.0</ele><time>2026-04-26T13:00:49.299Z</time></trkpt><trkpt lat="42.9698283" lon="11.6232083"><ele>574.5</ele><time>2026-04-26T13:00:50.298Z</time></trkpt><trkpt lat="42.9698367" lon="11.6233283"><ele>573.0</ele><time>2026-04-26T13:00:51.297Z</time></trkpt><trkpt lat="42.96985" lon="11.62345"><ele>571.5</ele><time>2026-04-26T13:00:52.297Z</time></trkpt><trkpt lat="42.9698683" lon="11.62357"><ele>570.0</ele><time>2026-04-26T13:00:53.299Z</time></trkpt><trkpt lat="42.969895" lon="11.6236933"><ele>571.3333333333334</ele><time>2026-04-26T13:00:54.296Z</time></trkpt><trkpt lat="42.969915" lon="11.62381"><ele>572.6666666666666</ele><time>2026-04-26T13:00:55.296Z</time></trkpt><trkpt lat="42.9699333" lon="11.6239233"><ele>574.0</ele><time>2026-04-26T13:00:56.296Z</time></trkpt><trkpt lat="42.9699533" lon="11.624035"><ele>575.3333333333333</ele><time>2026-04-26T13:00:57.297Z</time></trkpt><trkpt lat="42.96998" lon="11.624145"><ele>576.6666666666666</ele><time>2026-04-26T13:00:58.295Z</time></trkpt><trkpt lat="42.9700183" lon="11.624255"><ele>578.0</ele><time>2026-04-26T13:00:59.295Z</time></trkpt><trkpt lat="42.9700783" lon="11.624375"><ele>577.75</ele><time>2026-04-26T13:01:00.299Z</time></trkpt><trkpt lat="42.9701433" lon="11.6245"><ele>577.5</ele><time>2026-04-26T13:01:01.297Z</time></trkpt><trkpt lat="42.9702" lon="11.6246333"><ele>577.25</ele><time>2026-04-26T13:01:02.296Z</time></trkpt><trkpt lat="42.9702467" lon="11.62477"><ele>577.0</ele><time>2026-04-26T13:01:03.294Z</time></trkpt><trkpt lat="42.9702867" lon="11.62492"><ele>577.0</ele><time>2026-04-26T13:01:04.297Z</time></trkpt><trkpt lat="42.970315" lon="11.625065"><ele>577.0</ele><time>2026-04-26T13:01:05.296Z</time></trkpt><trkpt lat="42.9703333" lon="11.6251967"><ele>577.0</ele><time>2026-04-26T13:01:06.296Z</time></trkpt><trkpt lat="42.9703417" lon="11.6253133"><ele>577.0</ele><time>2026-04-26T13:01:07.296Z</time></trkpt><trkpt lat="42.97035" lon="11.62542"><ele>577.0</ele><time>2026-04-26T13:01:08.296Z</time></trkpt><trkpt lat="42.970365" lon="11.6255183"><ele>577.0</ele><time>2026-04-26T13:01:09.296Z</time></trkpt><trkpt lat="42.9703917" lon="11.62561"><ele>576.0</ele><time>2026-04-26T13:01:10.296Z</time></trkpt><trkpt lat="42.9704317" lon="11.6257"><ele>575.0</ele><time>2026-04-26T13:01:11.297Z</time></trkpt><trkpt lat="42.9704767" lon="11.625785"><ele>574.0</ele><time>2026-04-26T13:01:12.297Z</time></trkpt><trkpt lat="42.9705367" lon="11.6258683"><ele>573.0</ele><time>2026-04-26T13:01:13.298Z</time></trkpt><trkpt lat="42.9705867" lon="11.6259567"><ele>572.0</ele><time>2026-04-26T13:01:14.299Z</time></trkpt><trkpt lat="42.9706317" lon="11.62605"><ele>571.0</ele><time>2026-04-26T13:01:15.298Z</time></trkpt><trkpt lat="42.97067" lon="11.6261433"><ele>568.0</ele><time>2026-04-26T13:01:16.297Z</time></trkpt><trkpt lat="42.970695" lon="11.62624"><ele>565.0</ele><time>2026-04-26T13:01:17.295Z</time></trkpt><trkpt lat="42.9707117" lon="11.6263433"><ele>562.0</ele><time>2026-04-26T13:01:18.296Z</time></trkpt><trkpt lat="42.9707133" lon="11.626455"><ele>559.0</ele><time>2026-04-26T13:01:19.296Z</time></trkpt><trkpt lat="42.9707183" lon="11.6265617"><ele>556.0</ele><time>2026-04-26T13:01:20.296Z</time></trkpt><trkpt lat="42.970715" lon="11.626675"><ele>553.0</ele><time>2026-04-26T13:01:21.296Z</time></trkpt><trkpt lat="42.9707083" lon="11.62679"><ele>553.0</ele><time>2026-04-26T13:01:22.296Z</time></trkpt><trkpt lat="42.9707033" lon="11.6269083"><ele>553.0</ele><time>2026-04-26T13:01:23.296Z</time></trkpt><trkpt lat="42.9707067" lon="11.6270283"><ele>553.0</ele><time>2026-04-26T13:01:24.299Z</time></trkpt><trkpt lat="42.9707167" lon="11.6271533"><ele>553.0</ele><time>2026-04-26T13:01:25.297Z</time></trkpt><trkpt lat="42.9707267" lon="11.627275"><ele>553.0</ele><time>2026-04-26T13:01:26.299Z</time></trkpt><trkpt lat="42.970745" lon="11.6274"><ele>553.0</ele><time>2026-04-26T13:01:27.296Z</time></trkpt><trkpt lat="42.9707733" lon="11.6275283"><ele>550.1999999999999</ele><time>2026-04-26T13:01:28.297Z</time></trkpt><trkpt lat="42.9708167" lon="11.6276533"><ele>547.4</ele><time>2026-04-26T13:01:29.295Z</time></trkpt><trkpt lat="42.9708667" lon="11.6277833"><ele>544.5999999999999</ele><time>2026-04-26T13:01:30.297Z</time></trkpt><trkpt lat="42.9709083" lon="11.6279167"><ele>541.8</ele><time>2026-04-26T13:01:31.297Z</time></trkpt><trkpt lat="42.9709467" lon="11.6280567"><ele>539.0</ele><time>2026-04-26T13:01:32.299Z</time></trkpt><trkpt lat="42.97097" lon="11.6281983"><ele>544.2</ele><time>2026-04-26T13:01:33.296Z</time></trkpt><trkpt lat="42.9709783" lon="11.6283433"><ele>549.4</ele><time>2026-04-26T13:01:34.296Z</time></trkpt><trkpt lat="42.9709817" lon="11.62849"><ele>554.6</ele><time>2026-04-26T13:01:35.296Z</time></trkpt><trkpt lat="42.97098" lon="11.628635"><ele>559.8</ele><time>2026-04-26T13:01:36.297Z</time></trkpt><trkpt lat="42.970975" lon="11.628775"><ele>565.0</ele><time>2026-04-26T13:01:37.296Z</time></trkpt><trkpt lat="42.9709617" lon="11.6289"><ele>565.0</ele><time>2026-04-26T13:01:38.296Z</time></trkpt><trkpt lat="42.9709417" lon="11.62902"><ele>565.0</ele><time>2026-04-26T13:01:39.295Z</time></trkpt><trkpt lat="42.970925" lon="11.629125"><ele>565.0</ele><time>2026-04-26T13:01:40.297Z</time></trkpt><trkpt lat="42.9709133" lon="11.62923"><ele>565.0</ele><time>2026-04-26T13:01:41.298Z</time></trkpt><trkpt lat="42.97091" lon="11.6293417"><ele>565.0</ele><time>2026-04-26T13:01:42.298Z</time></trkpt><trkpt lat="42.9709117" lon="11.6294533"><ele>565.0</ele><time>2026-04-26T13:01:43.296Z</time></trkpt><trkpt lat="42.9709117" lon="11.629565"><ele>563.5</ele><time>2026-04-26T13:01:44.3Z</time></trkpt><trkpt lat="42.9709133" lon="11.629675"><ele>562.0</ele><time>2026-04-26T13:01:45.298Z</time></trkpt><trkpt lat="42.9708983" lon="11.6297817"><ele>560.5</ele><time>2026-04-26T13:01:46.296Z</time></trkpt><trkpt lat="42.970865" lon="11.6298733"><ele>559.0</ele><time>2026-04-26T13:01:47.297Z</time></trkpt><trkpt lat="42.9708017" lon="11.629935"><ele>557.5</ele><time>2026-04-26T13:01:48.298Z</time></trkpt><trkpt lat="42.9707133" lon="11.62997"><ele>556.0</ele><time>2026-04-26T13:01:49.298Z</time></trkpt><trkpt lat="42.9706183" lon="11.6299817"><ele>550.6666666666667</ele><time>2026-04-26T13:01:50.298Z</time></trkpt><trkpt lat="42.97053" lon="11.629975"><ele>545.3333333333334</ele><time>2026-04-26T13:01:51.298Z</time></trkpt><trkpt lat="42.97045" lon="11.629945"><ele>540.0</ele><time>2026-04-26T13:01:52.298Z</time></trkpt><trkpt lat="42.970385" lon="11.629915"><ele>534.6666666666666</ele><time>2026-04-26T13:01:53.297Z</time></trkpt><trkpt lat="42.97029" lon="11.6299033"><ele>529.3333333333333</ele><time>2026-04-26T13:01:55.299Z</time></trkpt><trkpt lat="42.9702267" lon="11.629985"><ele>524.0</ele><time>2026-04-26T13:01:57.297Z</time></trkpt><trkpt lat="42.9702183" lon="11.6300783"><ele>524.0</ele><time>2026-04-26T13:01:58.295Z</time></trkpt><trkpt lat="42.9702133" lon="11.630205"><ele>524.0</ele><time>2026-04-26T13:01:59.296Z</time></trkpt><trkpt lat="42.9702133" lon="11.63035"><ele>524.0</ele><time>2026-04-26T13:02:00.296Z</time></trkpt><trkpt lat="42.970215" lon="11.6305133"><ele>524.0</ele><time>2026-04-26T13:02:01.297Z</time></trkpt><trkpt lat="42.9702183" lon="11.63069"><ele>524.0</ele><time>2026-04-26T13:02:02.296Z</time></trkpt><trkpt lat="42.9702217" lon="11.6308633"><ele>521.75</ele><time>2026-04-26T13:02:03.296Z</time></trkpt><trkpt lat="42.9702217" lon="11.6310367"><ele>519.5</ele><time>2026-04-26T13:02:04.297Z</time></trkpt><trkpt lat="42.97022" lon="11.6312"><ele>517.25</ele><time>2026-04-26T13:02:05.296Z</time></trkpt><trkpt lat="42.9702267" lon="11.63135"><ele>515.0</ele><time>2026-04-26T13:02:06.298Z</time></trkpt><trkpt lat="42.9702367" lon="11.6314917"><ele>514.4</ele><time>2026-04-26T13:02:07.296Z</time></trkpt><trkpt lat="42.970255" lon="11.6316283"><ele>513.8</ele><time>2026-04-26T13:02:08.296Z</time></trkpt><trkpt lat="42.9702767" lon="11.631765"><ele>513.2</ele><time>2026-04-26T13:02:09.297Z</time></trkpt><trkpt lat="42.9702967" lon="11.6318983"><ele>512.6</ele><time>2026-04-26T13:02:10.296Z</time></trkpt><trkpt lat="42.9703167" lon="11.632025"><ele>512.0</ele><time>2026-04-26T13:02:11.299Z</time></trkpt><trkpt lat="42.9703433" lon="11.63214"><ele>511.0</ele><time>2026-04-26T13:02:12.298Z</time></trkpt><trkpt lat="42.97038" lon="11.63225"><ele>510.00000000000006</ele><time>2026-04-26T13:02:13.298Z</time></trkpt><trkpt lat="42.97044" lon="11.6323633"><ele>509.00000000000006</ele><time>2026-04-26T13:02:14.3Z</time></trkpt><trkpt lat="42.9705083" lon="11.632475"><ele>508.0</ele><time>2026-04-26T13:02:15.297Z</time></trkpt><trkpt lat="42.970575" lon="11.632585"><ele>507.0</ele><time>2026-04-26T13:02:16.298Z</time></trkpt><trkpt lat="42.9706367" lon="11.632695"><ele>507.0</ele><time>2026-04-26T13:02:17.298Z</time></trkpt><trkpt lat="42.9706883" lon="11.6328033"><ele>507.0</ele><time>2026-04-26T13:02:18.297Z</time></trkpt><trkpt lat="42.9707133" lon="11.6329167"><ele>507.0</ele><time>2026-04-26T13:02:19.298Z</time></trkpt><trkpt lat="42.9707183" lon="11.6330267"><ele>507.0</ele><time>2026-04-26T13:02:20.299Z</time></trkpt><trkpt lat="42.9707117" lon="11.6331417"><ele>507.0</ele><time>2026-04-26T13:02:21.297Z</time></trkpt><trkpt lat="42.9707083" lon="11.6332567"><ele>507.0</ele><time>2026-04-26T13:02:22.298Z</time></trkpt><trkpt lat="42.9707133" lon="11.6333783"><ele>505.8</ele><time>2026-04-26T13:02:23.296Z</time></trkpt><trkpt lat="42.970725" lon="11.6335017"><ele>504.6</ele><time>2026-04-26T13:02:24.298Z</time></trkpt><trkpt lat="42.9707483" lon="11.633625"><ele>503.40000000000003</ele><time>2026-04-26T13:02:25.298Z</time></trkpt><trkpt lat="42.9707833" lon="11.633745"><ele>502.20000000000005</ele><time>2026-04-26T13:02:26.298Z</time></trkpt><trkpt lat="42.9708283" lon="11.633865"><ele>501.0</ele><time>2026-04-26T13:02:27.297Z</time></trkpt><trkpt lat="42.970875" lon="11.6339833"><ele>501.0</ele><time>2026-04-26T13:02:28.296Z</time></trkpt><trkpt lat="42.9709267" lon="11.6341017"><ele>501.0</ele><time>2026-04-26T13:02:29.296Z</time></trkpt><trkpt lat="42.9709783" lon="11.634215"><ele>501.0</ele><time>2026-04-26T13:02:30.296Z</time></trkpt><trkpt lat="42.9710283" lon="11.63432"><ele>501.0</ele><time>2026-04-26T13:02:31.296Z</time></trkpt><trkpt lat="42.9710717" lon="11.634425"><ele>501.0</ele><time>2026-04-26T13:02:32.296Z</time></trkpt><trkpt lat="42.971105" lon="11.6345367"><ele>501.0</ele><time>2026-04-26T13:02:33.296Z</time></trkpt><trkpt lat="42.971125" lon="11.634665"><ele>501.0</ele><time>2026-04-26T13:02:34.296Z</time></trkpt><trkpt lat="42.9711267" lon="11.6348067"><ele>501.0</ele><time>2026-04-26T13:02:35.297Z</time></trkpt><trkpt lat="42.9711233" lon="11.63495"><ele>501.0</ele><time>2026-04-26T13:02:36.295Z</time></trkpt><trkpt lat="42.9711167" lon="11.6350867"><ele>501.0</ele><time>2026-04-26T13:02:37.296Z</time></trkpt><trkpt lat="42.9711117" lon="11.635215"><ele>499.5</ele><time>2026-04-26T13:02:38.296Z</time></trkpt><trkpt lat="42.9711083" lon="11.6353367"><ele>498.0</ele><time>2026-04-26T13:02:39.297Z</time></trkpt><trkpt lat="42.9711067" lon="11.6354467"><ele>496.5</ele><time>2026-04-26T13:02:40.296Z</time></trkpt><trkpt lat="42.9711033" lon="11.6355517"><ele>495.0</ele><time>2026-04-26T13:02:41.296Z</time></trkpt><trkpt lat="42.9710867" lon="11.6356533"><ele>493.5</ele><time>2026-04-26T13:02:42.298Z</time></trkpt><trkpt lat="42.9710633" lon="11.63575"><ele>492.0</ele><time>2026-04-26T13:02:43.298Z</time></trkpt><trkpt lat="42.9710467" lon="11.6358417"><ele>492.0</ele><time>2026-04-26T13:02:44.299Z</time></trkpt><trkpt lat="42.9710467" lon="11.63593"><ele>492.0</ele><time>2026-04-26T13:02:45.298Z</time></trkpt><trkpt lat="42.9711167" lon="11.6360567"><ele>492.0</ele><time>2026-04-26T13:02:47.298Z</time></trkpt><trkpt lat="42.971175" lon="11.6361133"><ele>492.0</ele><time>2026-04-26T13:02:48.298Z</time></trkpt><trkpt lat="42.9712467" lon="11.6361867"><ele>492.0</ele><time>2026-04-26T13:02:49.297Z</time></trkpt><trkpt lat="42.9713133" lon="11.63628"><ele>492.0</ele><time>2026-04-26T13:02:50.299Z</time></trkpt><trkpt lat="42.971375" lon="11.6363933"><ele>490.40000000000003</ele><time>2026-04-26T13:02:51.298Z</time></trkpt><trkpt lat="42.9714333" lon="11.636525"><ele>488.80000000000007</ele><time>2026-04-26T13:02:52.297Z</time></trkpt><trkpt lat="42.971475" lon="11.6366633"><ele>487.2</ele><time>2026-04-26T13:02:53.295Z</time></trkpt><trkpt lat="42.9715083" lon="11.6368017"><ele>485.6</ele><time>2026-04-26T13:02:54.299Z</time></trkpt><trkpt lat="42.9715317" lon="11.6369367"><ele>484.0</ele><time>2026-04-26T13:02:55.299Z</time></trkpt><trkpt lat="42.9715517" lon="11.637065"><ele>483.6666666666667</ele><time>2026-04-26T13:02:56.298Z</time></trkpt><trkpt lat="42.971575" lon="11.6371733"><ele>483.33333333333337</ele><time>2026-04-26T13:02:57.296Z</time></trkpt><trkpt lat="42.9715983" lon="11.6372717"><ele>483.0</ele><time>2026-04-26T13:02:58.297Z</time></trkpt><trkpt lat="42.9716383" lon="11.637355"><ele>482.66666666666663</ele><time>2026-04-26T13:02:59.296Z</time></trkpt><trkpt lat="42.97169" lon="11.63744"><ele>482.3333333333333</ele><time>2026-04-26T13:03:00.301Z</time></trkpt><trkpt lat="42.9717567" lon="11.6375217"><ele>482.0</ele><time>2026-04-26T13:03:01.297Z</time></trkpt><trkpt lat="42.971825" lon="11.6375983"><ele>482.0</ele><time>2026-04-26T13:03:02.297Z</time></trkpt><trkpt lat="42.9718983" lon="11.6376767"><ele>482.00000000000006</ele><time>2026-04-26T13:03:03.297Z</time></trkpt><trkpt lat="42.9719733" lon="11.63776"><ele>482.00000000000006</ele><time>2026-04-26T13:03:04.297Z</time></trkpt><trkpt lat="42.9720483" lon="11.6378483"><ele>482.0</ele><time>2026-04-26T13:03:05.297Z</time></trkpt><trkpt lat="42.97212" lon="11.637935"><ele>482.0</ele><time>2026-04-26T13:03:06.296Z</time></trkpt><trkpt lat="42.97219" lon="11.6380133"><ele>478.8333333333333</ele><time>2026-04-26T13:03:07.297Z</time></trkpt><trkpt lat="42.9722617" lon="11.638085"><ele>475.66666666666663</ele><time>2026-04-26T13:03:08.298Z</time></trkpt><trkpt lat="42.9723333" lon="11.6381517"><ele>472.5</ele><time>2026-04-26T13:03:09.297Z</time></trkpt><trkpt lat="42.972405" lon="11.6382183"><ele>469.33333333333337</ele><time>2026-04-26T13:03:10.299Z</time></trkpt><trkpt lat="42.972475" lon="11.6382833"><ele>466.1666666666667</ele><time>2026-04-26T13:03:11.297Z</time></trkpt><trkpt lat="42.9725517" lon="11.6383533"><ele>463.0</ele><time>2026-04-26T13:03:12.297Z</time></trkpt><trkpt lat="42.9726317" lon="11.63842"><ele>463.00000000000006</ele><time>2026-04-26T13:03:13.298Z</time></trkpt><trkpt lat="42.97271" lon="11.6384767"><ele>463.0</ele><time>2026-04-26T13:03:14.298Z</time></trkpt><trkpt lat="42.9727883" lon="11.6385283"><ele>463.0</ele><time>2026-04-26T13:03:15.298Z</time></trkpt><trkpt lat="42.97287" lon="11.6385717"><ele>463.0</ele><time>2026-04-26T13:03:16.295Z</time></trkpt><trkpt lat="42.9729567" lon="11.6385983"><ele>463.00000000000006</ele><time>2026-04-26T13:03:17.298Z</time></trkpt><trkpt lat="42.973045" lon="11.63862"><ele>463.0</ele><time>2026-04-26T13:03:18.297Z</time></trkpt><trkpt lat="42.9731317" lon="11.6386383"><ele>459.2</ele><time>2026-04-26T13:03:19.296Z</time></trkpt><trkpt lat="42.9732267" lon="11.6386683"><ele>455.4</ele><time>2026-04-26T13:03:20.298Z</time></trkpt><trkpt lat="42.973325" lon="11.6387033"><ele>451.59999999999997</ele><time>2026-04-26T13:03:21.297Z</time></trkpt><trkpt lat="42.9734167" lon="11.6387467"><ele>447.79999999999995</ele><time>2026-04-26T13:03:22.298Z</time></trkpt><trkpt lat="42.9735083" lon="11.6387917"><ele>444.0</ele><time>2026-04-26T13:03:23.296Z</time></trkpt><trkpt lat="42.9735933" lon="11.6388517"><ele>444.0</ele><time>2026-04-26T13:03:24.296Z</time></trkpt><trkpt lat="42.9736783" lon="11.6389217"><ele>444.0</ele><time>2026-04-26T13:03:25.296Z</time></trkpt><trkpt lat="42.9737583" lon="11.6389967"><ele>444.0</ele><time>2026-04-26T13:03:26.295Z</time></trkpt><trkpt lat="42.9738383" lon="11.6390683"><ele>444.0</ele><time>2026-04-26T13:03:27.296Z</time></trkpt><trkpt lat="42.9739217" lon="11.6391283"><ele>444.0</ele><time>2026-04-26T13:03:28.297Z</time></trkpt><trkpt lat="42.974" lon="11.6391667"><ele>444.0</ele><time>2026-04-26T13:03:29.297Z</time></trkpt><trkpt lat="42.9740733" lon="11.6391883"><ele>444.0</ele><time>2026-04-26T13:03:30.299Z</time></trkpt><trkpt lat="42.9741567" lon="11.639205"><ele>444.0</ele><time>2026-04-26T13:03:31.297Z</time></trkpt><trkpt lat="42.9742333" lon="11.6392"><ele>444.0</ele><time>2026-04-26T13:03:32.296Z</time></trkpt><trkpt lat="42.9743033" lon="11.6391883"><ele>444.0</ele><time>2026-04-26T13:03:33.295Z</time></trkpt><trkpt lat="42.974415" lon="11.6391867"><ele>444.0</ele><time>2026-04-26T13:03:35.297Z</time></trkpt><trkpt lat="42.97451" lon="11.6392783"><ele>443.5</ele><time>2026-04-26T13:03:37.297Z</time></trkpt><trkpt lat="42.97454" lon="11.6393717"><ele>443.0</ele><time>2026-04-26T13:03:38.296Z</time></trkpt><trkpt lat="42.9745617" lon="11.6394817"><ele>442.5</ele><time>2026-04-26T13:03:39.299Z</time></trkpt><trkpt lat="42.9745567" lon="11.6396"><ele>442.0</ele><time>2026-04-26T13:03:40.298Z</time></trkpt><trkpt lat="42.97455" lon="11.6396867"><ele>441.5</ele><time>2026-04-26T13:03:41.297Z</time></trkpt><trkpt lat="42.9744767" lon="11.63976"><ele>441.0</ele><time>2026-04-26T13:03:43.296Z</time></trkpt><trkpt lat="42.9743933" lon="11.6397617"><ele>437.25</ele><time>2026-04-26T13:03:44.299Z</time></trkpt><trkpt lat="42.9742867" lon="11.639765"><ele>433.5</ele><time>2026-04-26T13:03:45.296Z</time></trkpt><trkpt lat="42.9741767" lon="11.6397833"><ele>429.75</ele><time>2026-04-26T13:03:46.299Z</time></trkpt><trkpt lat="42.97406" lon="11.6397933"><ele>426.0</ele><time>2026-04-26T13:03:47.299Z</time></trkpt><trkpt lat="42.9739417" lon="11.6397883"><ele>426.0</ele><time>2026-04-26T13:03:48.296Z</time></trkpt><trkpt lat="42.97383" lon="11.63978"><ele>426.0</ele><time>2026-04-26T13:03:49.296Z</time></trkpt><trkpt lat="42.9737217" lon="11.6397733"><ele>426.0</ele><time>2026-04-26T13:03:50.297Z</time></trkpt><trkpt lat="42.9736167" lon="11.6397717"><ele>426.0</ele><time>2026-04-26T13:03:51.297Z</time></trkpt><trkpt lat="42.973515" lon="11.6397683"><ele>426.0</ele><time>2026-04-26T13:03:52.295Z</time></trkpt><trkpt lat="42.9734117" lon="11.639765"><ele>425.6</ele><time>2026-04-26T13:03:53.295Z</time></trkpt><trkpt lat="42.9733083" lon="11.6397683"><ele>425.20000000000005</ele><time>2026-04-26T13:03:54.297Z</time></trkpt><trkpt lat="42.973205" lon="11.6397633"><ele>424.79999999999995</ele><time>2026-04-26T13:03:55.296Z</time></trkpt><trkpt lat="42.9731033" lon="11.639765"><ele>424.4</ele><time>2026-04-26T13:03:56.296Z</time></trkpt><trkpt lat="42.973005" lon="11.639765"><ele>424.0</ele><time>2026-04-26T13:03:57.295Z</time></trkpt><trkpt lat="42.972915" lon="11.639775"><ele>424.00000000000006</ele><time>2026-04-26T13:03:58.297Z</time></trkpt><trkpt lat="42.9728317" lon="11.6397933"><ele>424.0</ele><time>2026-04-26T13:03:59.296Z</time></trkpt><trkpt lat="42.972745" lon="11.6398283"><ele>424.0</ele><time>2026-04-26T13:04:00.296Z</time></trkpt><trkpt lat="42.972665" lon="11.639865"><ele>424.0</ele><time>2026-04-26T13:04:01.296Z</time></trkpt><trkpt lat="42.9725917" lon="11.6399117"><ele>424.00000000000006</ele><time>2026-04-26T13:04:02.299Z</time></trkpt><trkpt lat="42.9725333" lon="11.6399633"><ele>424.0</ele><time>2026-04-26T13:04:03.295Z</time></trkpt><trkpt lat="42.9724383" lon="11.6400767"><ele>423.50000000000006</ele><time>2026-04-26T13:04:05.297Z</time></trkpt><trkpt lat="42.9723817" lon="11.64017"><ele>423.0</ele><time>2026-04-26T13:04:07.295Z</time></trkpt><trkpt lat="42.9724117" lon="11.6402767"><ele>422.5</ele><time>2026-04-26T13:17:31.297Z</time></trkpt><trkpt lat="42.972475" lon="11.64031"><ele>422.0</ele><time>2026-04-26T13:18:07.296Z</time></trkpt><trkpt lat="42.9725417" lon="11.640325"><ele>421.50000000000006</ele><time>2026-04-26T13:18:11.295Z</time></trkpt><trkpt lat="42.9726283" lon="11.6403283"><ele>421.0</ele><time>2026-04-26T13:18:50.295Z</time></trkpt><trkpt lat="42.972715" lon="11.64035"><ele>419.1666666666667</ele><time>2026-04-26T13:18:52.295Z</time></trkpt><trkpt lat="42.97284" lon="11.6403817"><ele>417.33333333333337</ele><time>2026-04-26T13:18:54.295Z</time></trkpt><trkpt lat="42.9729117" lon="11.6404033"><ele>415.5</ele><time>2026-04-26T13:18:55.296Z</time></trkpt><trkpt lat="42.9729883" lon="11.6404267"><ele>413.66666666666663</ele><time>2026-04-26T13:18:56.296Z</time></trkpt><trkpt lat="42.97307" lon="11.640455"><ele>411.8333333333333</ele><time>2026-04-26T13:18:57.296Z</time></trkpt><trkpt lat="42.9731517" lon="11.64048"><ele>410.0</ele><time>2026-04-26T13:18:58.295Z</time></trkpt><trkpt lat="42.9732333" lon="11.640505"><ele>410.0</ele><time>2026-04-26T13:18:59.297Z</time></trkpt><trkpt lat="42.973325" lon="11.6405267"><ele>410.0</ele><time>2026-04-26T13:19:00.295Z</time></trkpt><trkpt lat="42.9734217" lon="11.640545"><ele>410.0</ele><time>2026-04-26T13:19:01.295Z</time></trkpt><trkpt lat="42.9735217" lon="11.64055"><ele>410.0</ele><time>2026-04-26T13:19:02.296Z</time></trkpt><trkpt lat="42.9736233" lon="11.6405567"><ele>410.0</ele><time>2026-04-26T13:19:03.296Z</time></trkpt><trkpt lat="42.9737283" lon="11.6405633"><ele>409.6</ele><time>2026-04-26T13:19:04.296Z</time></trkpt><trkpt lat="42.9738283" lon="11.6405733"><ele>409.2</ele><time>2026-04-26T13:19:05.296Z</time></trkpt><trkpt lat="42.9739267" lon="11.6405767"><ele>408.79999999999995</ele><time>2026-04-26T13:19:06.295Z</time></trkpt><trkpt lat="42.9740183" lon="11.6405767"><ele>408.4</ele><time>2026-04-26T13:19:07.296Z</time></trkpt><trkpt lat="42.97411" lon="11.6405767"><ele>408.0</ele><time>2026-04-26T13:19:08.297Z</time></trkpt><trkpt lat="42.9742" lon="11.6405783"><ele>407.4</ele><time>2026-04-26T13:19:09.295Z</time></trkpt><trkpt lat="42.9742933" lon="11.640585"><ele>406.79999999999995</ele><time>2026-04-26T13:19:10.296Z</time></trkpt><trkpt lat="42.9743867" lon="11.6405883"><ele>406.2</ele><time>2026-04-26T13:19:11.297Z</time></trkpt><trkpt lat="42.974485" lon="11.6405883"><ele>405.6</ele><time>2026-04-26T13:19:12.296Z</time></trkpt><trkpt lat="42.974585" lon="11.6405917"><ele>405.0</ele><time>2026-04-26T13:19:13.296Z</time></trkpt><trkpt lat="42.974685" lon="11.6406017"><ele>405.0</ele><time>2026-04-26T13:19:14.295Z</time></trkpt><trkpt lat="42.9747883" lon="11.640615"><ele>405.0</ele><time>2026-04-26T13:19:15.292Z</time></trkpt><trkpt lat="42.974895" lon="11.6406417"><ele>405.0</ele><time>2026-04-26T13:19:16.299Z</time></trkpt><trkpt lat="42.9749983" lon="11.6406867"><ele>405.0</ele><time>2026-04-26T13:19:17.294Z</time></trkpt><trkpt lat="42.9751083" lon="11.6407417"><ele>405.0</ele><time>2026-04-26T13:19:18.292Z</time></trkpt><trkpt lat="42.9752233" lon="11.6408083"><ele>405.5</ele><time>2026-04-26T13:19:19.295Z</time></trkpt><trkpt lat="42.97534" lon="11.64087"><ele>406.0</ele><time>2026-04-26T13:19:20.297Z</time></trkpt><trkpt lat="42.9754567" lon="11.6409167"><ele>406.5</ele><time>2026-04-26T13:19:21.295Z</time></trkpt><trkpt lat="42.9755767" lon="11.64096"><ele>407.0</ele><time>2026-04-26T13:19:22.295Z</time></trkpt><trkpt lat="42.9756983" lon="11.6409983"><ele>407.0</ele><time>2026-04-26T13:19:23.298Z</time></trkpt><trkpt lat="42.9758167" lon="11.6410367"><ele>407.0</ele><time>2026-04-26T13:19:24.295Z</time></trkpt><trkpt lat="42.975925" lon="11.6410767"><ele>407.0</ele><time>2026-04-26T13:19:25.297Z</time></trkpt><trkpt lat="42.9760233" lon="11.6411333"><ele>407.0</ele><time>2026-04-26T13:19:26.297Z</time></trkpt><trkpt lat="42.9761217" lon="11.6412083"><ele>404.25</ele><time>2026-04-26T13:19:27.296Z</time></trkpt><trkpt lat="42.97622" lon="11.641295"><ele>401.5</ele><time>2026-04-26T13:19:28.292Z</time></trkpt><trkpt lat="42.9763117" lon="11.6413983"><ele>398.75</ele><time>2026-04-26T13:19:29.294Z</time></trkpt><trkpt lat="42.9764" lon="11.6415017"><ele>396.0</ele><time>2026-04-26T13:19:30.294Z</time></trkpt><trkpt lat="42.97649" lon="11.6416033"><ele>396.0</ele><time>2026-04-26T13:19:31.295Z</time></trkpt><trkpt lat="42.9765817" lon="11.6416983"><ele>396.0</ele><time>2026-04-26T13:19:32.294Z</time></trkpt><trkpt lat="42.97668" lon="11.6417867"><ele>396.0</ele><time>2026-04-26T13:19:33.293Z</time></trkpt><trkpt lat="42.9767867" lon="11.64187"><ele>396.0</ele><time>2026-04-26T13:19:34.293Z</time></trkpt><trkpt lat="42.9769033" lon="11.6419483"><ele>394.75</ele><time>2026-04-26T13:19:35.293Z</time></trkpt><trkpt lat="42.97703" lon="11.6420267"><ele>393.5</ele><time>2026-04-26T13:19:36.294Z</time></trkpt><trkpt lat="42.977165" lon="11.642105"><ele>392.25</ele><time>2026-04-26T13:19:37.293Z</time></trkpt><trkpt lat="42.9773017" lon="11.6421917"><ele>391.0</ele><time>2026-04-26T13:19:38.294Z</time></trkpt><trkpt lat="42.977435" lon="11.6422783"><ele>393.0</ele><time>2026-04-26T13:19:39.294Z</time></trkpt><trkpt lat="42.97757" lon="11.6423617"><ele>395.0</ele><time>2026-04-26T13:19:40.295Z</time></trkpt><trkpt lat="42.9777067" lon="11.642445"><ele>397.0</ele><time>2026-04-26T13:19:41.293Z</time></trkpt><trkpt lat="42.977845" lon="11.64253"><ele>399.0</ele><time>2026-04-26T13:19:42.294Z</time></trkpt><trkpt lat="42.97798" lon="11.6426167"><ele>399.0</ele><time>2026-04-26T13:19:43.294Z</time></trkpt><trkpt lat="42.9781133" lon="11.6427083"><ele>399.0</ele><time>2026-04-26T13:19:44.295Z</time></trkpt><trkpt lat="42.9782467" lon="11.6427983"><ele>399.0</ele><time>2026-04-26T13:19:45.296Z</time></trkpt><trkpt lat="42.9783767" lon="11.6428917"><ele>399.0</ele><time>2026-04-26T13:19:46.296Z</time></trkpt><trkpt lat="42.9785083" lon="11.6429867"><ele>398.25</ele><time>2026-04-26T13:19:47.296Z</time></trkpt><trkpt lat="42.9786333" lon="11.6430783"><ele>397.5</ele><time>2026-04-26T13:19:48.296Z</time></trkpt><trkpt lat="42.9787417" lon="11.6431633"><ele>396.75</ele><time>2026-04-26T13:19:49.297Z</time></trkpt><trkpt lat="42.9788367" lon="11.6432367"><ele>396.0</ele><time>2026-04-26T13:19:50.297Z</time></trkpt><trkpt lat="42.9789283" lon="11.6432983"><ele>396.0</ele><time>2026-04-26T13:19:51.297Z</time></trkpt><trkpt lat="42.9790133" lon="11.6433383"><ele>396.0</ele><time>2026-04-26T13:19:52.297Z</time></trkpt><trkpt lat="42.9790983" lon="11.643355"><ele>396.0</ele><time>2026-04-26T13:19:53.296Z</time></trkpt><trkpt lat="42.9791867" lon="11.6433533"><ele>396.0</ele><time>2026-04-26T13:19:54.296Z</time></trkpt><trkpt lat="42.9792733" lon="11.6433283"><ele>396.0</ele><time>2026-04-26T13:19:55.296Z</time></trkpt><trkpt lat="42.9793617" lon="11.6432633"><ele>395.5</ele><time>2026-04-26T13:19:56.297Z</time></trkpt><trkpt lat="42.9794617" lon="11.643165"><ele>395.0</ele><time>2026-04-26T13:19:57.301Z</time></trkpt><trkpt lat="42.9795633" lon="11.6430533"><ele>394.5</ele><time>2026-04-26T13:19:58.297Z</time></trkpt><trkpt lat="42.9796567" lon="11.642945"><ele>394.0</ele><time>2026-04-26T13:19:59.3Z</time></trkpt><trkpt lat="42.97974" lon="11.6428217"><ele>395.25</ele><time>2026-04-26T13:20:00.294Z</time></trkpt><trkpt lat="42.9798217" lon="11.6427117"><ele>396.5</ele><time>2026-04-26T13:20:01.297Z</time></trkpt><trkpt lat="42.9798967" lon="11.6425933"><ele>397.75</ele><time>2026-04-26T13:20:02.296Z</time></trkpt><trkpt lat="42.9799583" lon="11.6424617"><ele>399.0</ele><time>2026-04-26T13:20:03.297Z</time></trkpt><trkpt lat="42.9800083" lon="11.64231"><ele>399.75</ele><time>2026-04-26T13:20:04.298Z</time></trkpt><trkpt lat="42.9800533" lon="11.6421467"><ele>400.5</ele><time>2026-04-26T13:20:05.296Z</time></trkpt><trkpt lat="42.9800983" lon="11.6419783"><ele>401.25</ele><time>2026-04-26T13:20:06.296Z</time></trkpt><trkpt lat="42.980145" lon="11.6418117"><ele>402.0</ele><time>2026-04-26T13:20:07.296Z</time></trkpt><trkpt lat="42.9801933" lon="11.6416417"><ele>402.75</ele><time>2026-04-26T13:20:08.296Z</time></trkpt><trkpt lat="42.98024" lon="11.6414667"><ele>403.5</ele><time>2026-04-26T13:20:09.297Z</time></trkpt><trkpt lat="42.9802883" lon="11.6412933"><ele>404.25</ele><time>2026-04-26T13:20:10.297Z</time></trkpt><trkpt lat="42.9803283" lon="11.6411267"><ele>405.0</ele><time>2026-04-26T13:20:11.297Z</time></trkpt><trkpt lat="42.9803583" lon="11.6409683"><ele>406.0</ele><time>2026-04-26T13:20:12.296Z</time></trkpt><trkpt lat="42.9803767" lon="11.640815"><ele>407.0</ele><time>2026-04-26T13:20:13.297Z</time></trkpt><trkpt lat="42.9803833" lon="11.6406567"><ele>408.0</ele><time>2026-04-26T13:20:14.297Z</time></trkpt><trkpt lat="42.9803783" lon="11.6404917"><ele>409.0</ele><time>2026-04-26T13:20:15.297Z</time></trkpt><trkpt lat="42.9803633" lon="11.6403217"><ele>410.25</ele><time>2026-04-26T13:20:16.297Z</time></trkpt><trkpt lat="42.9803433" lon="11.6401433"><ele>411.5</ele><time>2026-04-26T13:20:17.296Z</time></trkpt><trkpt lat="42.9803233" lon="11.639965"><ele>412.75</ele><time>2026-04-26T13:20:18.296Z</time></trkpt><trkpt lat="42.9803017" lon="11.6397917"><ele>414.0</ele><time>2026-04-26T13:20:19.296Z</time></trkpt><trkpt lat="42.9802817" lon="11.6396333"><ele>414.0</ele><time>2026-04-26T13:20:20.296Z</time></trkpt><trkpt lat="42.980265" lon="11.6394867"><ele>414.0</ele><time>2026-04-26T13:20:21.298Z</time></trkpt><trkpt lat="42.9802717" lon="11.639355"><ele>414.0</ele><time>2026-04-26T13:20:22.297Z</time></trkpt><trkpt lat="42.9803017" lon="11.63923"><ele>414.0</ele><time>2026-04-26T13:20:23.295Z</time></trkpt><trkpt lat="42.9803533" lon="11.6391167"><ele>414.0</ele><time>2026-04-26T13:20:24.296Z</time></trkpt><trkpt lat="42.980425" lon="11.6390367"><ele>416.0</ele><time>2026-04-26T13:20:25.297Z</time></trkpt><trkpt lat="42.9805117" lon="11.6389817"><ele>418.0</ele><time>2026-04-26T13:20:26.297Z</time></trkpt><trkpt lat="42.9806133" lon="11.6389717"><ele>420.0</ele><time>2026-04-26T13:20:27.296Z</time></trkpt><trkpt lat="42.9807183" lon="11.639"><ele>422.0</ele><time>2026-04-26T13:20:28.296Z</time></trkpt><trkpt lat="42.9808217" lon="11.6390667"><ele>424.0</ele><time>2026-04-26T13:20:29.296Z</time></trkpt><trkpt lat="42.98092" lon="11.639165"><ele>423.5</ele><time>2026-04-26T13:20:30.298Z</time></trkpt><trkpt lat="42.9810167" lon="11.639285"><ele>423.0</ele><time>2026-04-26T13:20:31.296Z</time></trkpt><trkpt lat="42.981115" lon="11.6394083"><ele>422.5</ele><time>2026-04-26T13:20:32.297Z</time></trkpt><trkpt lat="42.9812117" lon="11.6395317"><ele>422.0</ele><time>2026-04-26T13:20:33.297Z</time></trkpt><trkpt lat="42.98131" lon="11.6396517"><ele>422.0</ele><time>2026-04-26T13:20:34.297Z</time></trkpt><trkpt lat="42.9814067" lon="11.6397683"><ele>422.0</ele><time>2026-04-26T13:20:35.297Z</time></trkpt><trkpt lat="42.9814967" lon="11.6398833"><ele>422.0</ele><time>2026-04-26T13:20:36.297Z</time></trkpt><trkpt lat="42.9815833" lon="11.6399883"><ele>422.0</ele><time>2026-04-26T13:20:37.296Z</time></trkpt><trkpt lat="42.981665" lon="11.64008"><ele>422.16666666666663</ele><time>2026-04-26T13:20:38.296Z</time></trkpt><trkpt lat="42.9817417" lon="11.6401633"><ele>422.3333333333333</ele><time>2026-04-26T13:20:39.296Z</time></trkpt><trkpt lat="42.9818133" lon="11.6402283"><ele>422.5</ele><time>2026-04-26T13:20:40.297Z</time></trkpt><trkpt lat="42.9818833" lon="11.6402767"><ele>422.66666666666663</ele><time>2026-04-26T13:20:41.296Z</time></trkpt><trkpt lat="42.9819517" lon="11.6403083"><ele>422.8333333333333</ele><time>2026-04-26T13:20:42.296Z</time></trkpt><trkpt lat="42.9820167" lon="11.6403167"><ele>423.0</ele><time>2026-04-26T13:20:43.297Z</time></trkpt><trkpt lat="42.982125" lon="11.6402917"><ele>423.0</ele><time>2026-04-26T13:20:45.297Z</time></trkpt><trkpt lat="42.98223" lon="11.6402067"><ele>423.0</ele><time>2026-04-26T13:20:47.297Z</time></trkpt><trkpt lat="42.9823267" lon="11.640095"><ele>423.0</ele><time>2026-04-26T13:20:49.298Z</time></trkpt><trkpt lat="42.98238" lon="11.640035"><ele>423.0</ele><time>2026-04-26T13:20:50.296Z</time></trkpt><trkpt lat="42.9824383" lon="11.6399717"><ele>423.0</ele><time>2026-04-26T13:20:51.296Z</time></trkpt><trkpt lat="42.9824983" lon="11.6399083"><ele>422.2</ele><time>2026-04-26T13:20:52.297Z</time></trkpt><trkpt lat="42.9825683" lon="11.639835"><ele>421.4</ele><time>2026-04-26T13:20:53.296Z</time></trkpt><trkpt lat="42.982645" lon="11.63975"><ele>420.59999999999997</ele><time>2026-04-26T13:20:54.297Z</time></trkpt><trkpt lat="42.982725" lon="11.639655"><ele>419.79999999999995</ele><time>2026-04-26T13:20:55.296Z</time></trkpt><trkpt lat="42.9828183" lon="11.6395583"><ele>419.0</ele><time>2026-04-26T13:20:56.298Z</time></trkpt><trkpt lat="42.9829217" lon="11.6394683"><ele>419.5</ele><time>2026-04-26T13:20:57.297Z</time></trkpt><trkpt lat="42.9830283" lon="11.639385"><ele>420.0</ele><time>2026-04-26T13:20:58.386Z</time></trkpt><trkpt lat="42.98314" lon="11.6393283"><ele>420.5</ele><time>2026-04-26T13:20:59.293Z</time></trkpt><trkpt lat="42.9832483" lon="11.6392983"><ele>421.0</ele><time>2026-04-26T13:21:00.297Z</time></trkpt><trkpt lat="42.9833583" lon="11.63929"><ele>419.6</ele><time>2026-04-26T13:21:01.296Z</time></trkpt><trkpt lat="42.9834617" lon="11.639295"><ele>418.20000000000005</ele><time>2026-04-26T13:21:02.296Z</time></trkpt><trkpt lat="42.9835483" lon="11.6393033"><ele>416.79999999999995</ele><time>2026-04-26T13:21:03.296Z</time></trkpt><trkpt lat="42.9836233" lon="11.63931"><ele>415.4</ele><time>2026-04-26T13:21:04.296Z</time></trkpt><trkpt lat="42.98369" lon="11.639325"><ele>414.0</ele><time>2026-04-26T13:21:05.298Z</time></trkpt><trkpt lat="42.983805" lon="11.6394017"><ele>415.0</ele><time>2026-04-26T13:21:07.297Z</time></trkpt><trkpt lat="42.9838617" lon="11.6394733"><ele>416.0</ele><time>2026-04-26T13:21:08.298Z</time></trkpt><trkpt lat="42.98392" lon="11.6395567"><ele>417.0</ele><time>2026-04-26T13:21:09.298Z</time></trkpt><trkpt lat="42.9839867" lon="11.63965"><ele>418.0</ele><time>2026-04-26T13:21:10.297Z</time></trkpt><trkpt lat="42.984055" lon="11.63975"><ele>419.0</ele><time>2026-04-26T13:21:11.296Z</time></trkpt><trkpt lat="42.9841233" lon="11.6398533"><ele>418.4</ele><time>2026-04-26T13:21:12.296Z</time></trkpt><trkpt lat="42.984195" lon="11.6399567"><ele>417.79999999999995</ele><time>2026-04-26T13:21:13.296Z</time></trkpt><trkpt lat="42.98427" lon="11.64006"><ele>417.20000000000005</ele><time>2026-04-26T13:21:14.297Z</time></trkpt><trkpt lat="42.9843517" lon="11.6401583"><ele>416.6</ele><time>2026-04-26T13:21:15.297Z</time></trkpt><trkpt lat="42.984435" lon="11.640255"><ele>416.0</ele><time>2026-04-26T13:21:16.297Z</time></trkpt><trkpt lat="42.9845183" lon="11.6403517"><ele>416.0</ele><time>2026-04-26T13:21:17.296Z</time></trkpt><trkpt lat="42.9846017" lon="11.6404533"><ele>416.0</ele><time>2026-04-26T13:21:18.296Z</time></trkpt><trkpt lat="42.984685" lon="11.6405667"><ele>416.0</ele><time>2026-04-26T13:21:19.296Z</time></trkpt><trkpt lat="42.9847617" lon="11.64069"><ele>416.0</ele><time>2026-04-26T13:21:20.297Z</time></trkpt><trkpt lat="42.9848383" lon="11.6408183"><ele>416.0</ele><time>2026-04-26T13:21:21.297Z</time></trkpt><trkpt lat="42.9849117" lon="11.64095"><ele>416.0</ele><time>2026-04-26T13:21:22.296Z</time></trkpt><trkpt lat="42.98498" lon="11.6410767"><ele>416.0</ele><time>2026-04-26T13:21:23.296Z</time></trkpt><trkpt lat="42.98505" lon="11.6411933"><ele>416.0</ele><time>2026-04-26T13:21:24.296Z</time></trkpt><trkpt lat="42.985115" lon="11.6412967"><ele>416.0</ele><time>2026-04-26T13:21:25.301Z</time></trkpt><trkpt lat="42.9851883" lon="11.6413967"><ele>416.0</ele><time>2026-04-26T13:21:26.296Z</time></trkpt><trkpt lat="42.985265" lon="11.6414983"><ele>416.0</ele><time>2026-04-26T13:21:27.296Z</time></trkpt><trkpt lat="42.9853467" lon="11.6416083"><ele>416.0</ele><time>2026-04-26T13:21:28.298Z</time></trkpt><trkpt lat="42.9854267" lon="11.6417267"><ele>416.0</ele><time>2026-04-26T13:21:29.296Z</time></trkpt><trkpt lat="42.9855067" lon="11.6418533"><ele>416.75</ele><time>2026-04-26T13:21:30.296Z</time></trkpt><trkpt lat="42.98559" lon="11.6419783"><ele>417.5</ele><time>2026-04-26T13:21:31.297Z</time></trkpt><trkpt lat="42.9856767" lon="11.6421067"><ele>418.25</ele><time>2026-04-26T13:21:32.296Z</time></trkpt><trkpt lat="42.985765" lon="11.6422333"><ele>419.0</ele><time>2026-04-26T13:21:33.297Z</time></trkpt><trkpt lat="42.9858617" lon="11.6423483"><ele>419.25</ele><time>2026-04-26T13:21:34.296Z</time></trkpt><trkpt lat="42.985965" lon="11.64245"><ele>419.5</ele><time>2026-04-26T13:21:35.297Z</time></trkpt><trkpt lat="42.9860717" lon="11.64254"><ele>419.75</ele><time>2026-04-26T13:21:36.299Z</time></trkpt><trkpt lat="42.9861767" lon="11.642625"><ele>420.0</ele><time>2026-04-26T13:21:37.296Z</time></trkpt><trkpt lat="42.98628" lon="11.6427117"><ele>420.75</ele><time>2026-04-26T13:21:38.298Z</time></trkpt><trkpt lat="42.98638" lon="11.6428083"><ele>421.5</ele><time>2026-04-26T13:21:39.297Z</time></trkpt><trkpt lat="42.986475" lon="11.6429267"><ele>422.25</ele><time>2026-04-26T13:21:40.297Z</time></trkpt><trkpt lat="42.9865633" lon="11.6430667"><ele>423.0</ele><time>2026-04-26T13:21:41.297Z</time></trkpt><trkpt lat="42.9866467" lon="11.6432133"><ele>423.75</ele><time>2026-04-26T13:21:42.296Z</time></trkpt><trkpt lat="42.9867317" lon="11.6433583"><ele>424.5</ele><time>2026-04-26T13:21:43.294Z</time></trkpt><trkpt lat="42.98682" lon="11.6435033"><ele>425.25</ele><time>2026-04-26T13:21:44.294Z</time></trkpt><trkpt lat="42.9869067" lon="11.6436517"><ele>426.0</ele><time>2026-04-26T13:21:45.295Z</time></trkpt><trkpt lat="42.9869983" lon="11.6438017"><ele>427.0</ele><time>2026-04-26T13:21:46.294Z</time></trkpt><trkpt lat="42.9870883" lon="11.6439517"><ele>428.0</ele><time>2026-04-26T13:21:47.294Z</time></trkpt><trkpt lat="42.9871833" lon="11.6440983"><ele>429.0</ele><time>2026-04-26T13:21:48.296Z</time></trkpt><trkpt lat="42.9872783" lon="11.6442383"><ele>430.0</ele><time>2026-04-26T13:21:49.295Z</time></trkpt><trkpt lat="42.987375" lon="11.6443733"><ele>430.5</ele><time>2026-04-26T13:21:50.294Z</time></trkpt><trkpt lat="42.9874717" lon="11.644505"><ele>431.0</ele><time>2026-04-26T13:21:51.294Z</time></trkpt><trkpt lat="42.987565" lon="11.6446333"><ele>431.5</ele><time>2026-04-26T13:21:52.294Z</time></trkpt><trkpt lat="42.987655" lon="11.64476"><ele>432.0</ele><time>2026-04-26T13:21:53.295Z</time></trkpt><trkpt lat="42.9877433" lon="11.644885"><ele>432.0</ele><time>2026-04-26T13:21:54.296Z</time></trkpt><trkpt lat="42.9878283" lon="11.6450067"><ele>432.0</ele><time>2026-04-26T13:21:55.296Z</time></trkpt><trkpt lat="42.9879033" lon="11.6451283"><ele>432.0</ele><time>2026-04-26T13:21:56.296Z</time></trkpt><trkpt lat="42.9879717" lon="11.645255"><ele>432.0</ele><time>2026-04-26T13:21:57.296Z</time></trkpt><trkpt lat="42.98803" lon="11.64539"><ele>433.20000000000005</ele><time>2026-04-26T13:21:58.296Z</time></trkpt><trkpt lat="42.988075" lon="11.64553"><ele>434.40000000000003</ele><time>2026-04-26T13:21:59.297Z</time></trkpt><trkpt lat="42.9881083" lon="11.6456717"><ele>435.59999999999997</ele><time>2026-04-26T13:22:00.296Z</time></trkpt><trkpt lat="42.98813" lon="11.645815"><ele>436.79999999999995</ele><time>2026-04-26T13:22:01.297Z</time></trkpt><trkpt lat="42.9881433" lon="11.6459533"><ele>438.0</ele><time>2026-04-26T13:22:02.297Z</time></trkpt><trkpt lat="42.988155" lon="11.6460767"><ele>437.6666666666667</ele><time>2026-04-26T13:22:03.297Z</time></trkpt><trkpt lat="42.9881683" lon="11.6461917"><ele>437.33333333333337</ele><time>2026-04-26T13:22:04.295Z</time></trkpt><trkpt lat="42.9881867" lon="11.6462983"><ele>437.0</ele><time>2026-04-26T13:22:05.296Z</time></trkpt><trkpt lat="42.9882133" lon="11.6463983"><ele>436.6666666666667</ele><time>2026-04-26T13:22:06.296Z</time></trkpt><trkpt lat="42.9882467" lon="11.6464933"><ele>436.33333333333337</ele><time>2026-04-26T13:22:07.293Z</time></trkpt><trkpt lat="42.9882883" lon="11.6465867"><ele>436.0</ele><time>2026-04-26T13:22:08.295Z</time></trkpt><trkpt lat="42.9883317" lon="11.6466733"><ele>434.6666666666667</ele><time>2026-04-26T13:22:09.296Z</time></trkpt><trkpt lat="42.9883783" lon="11.6467633"><ele>433.33333333333337</ele><time>2026-04-26T13:22:10.295Z</time></trkpt><trkpt lat="42.9884233" lon="11.6468567"><ele>432.0</ele><time>2026-04-26T13:22:11.296Z</time></trkpt><trkpt lat="42.9884667" lon="11.6469617"><ele>430.66666666666663</ele><time>2026-04-26T13:22:12.297Z</time></trkpt><trkpt lat="42.9885083" lon="11.6470783"><ele>429.3333333333333</ele><time>2026-04-26T13:22:13.297Z</time></trkpt><trkpt lat="42.9885517" lon="11.6472067"><ele>428.0</ele><time>2026-04-26T13:22:14.297Z</time></trkpt><trkpt lat="42.9885917" lon="11.6473433"><ele>427.75</ele><time>2026-04-26T13:22:15.296Z</time></trkpt><trkpt lat="42.98863" lon="11.6474883"><ele>427.5</ele><time>2026-04-26T13:22:16.295Z</time></trkpt><trkpt lat="42.9886717" lon="11.6476383"><ele>427.25</ele><time>2026-04-26T13:22:17.292Z</time></trkpt><trkpt lat="42.988715" lon="11.64779"><ele>427.0</ele><time>2026-04-26T13:22:18.292Z</time></trkpt><trkpt lat="42.9887617" lon="11.647945"><ele>427.0</ele><time>2026-04-26T13:22:19.293Z</time></trkpt><trkpt lat="42.9888033" lon="11.6481067"><ele>427.0</ele><time>2026-04-26T13:22:20.292Z</time></trkpt><trkpt lat="42.9888417" lon="11.6482667"><ele>427.0</ele><time>2026-04-26T13:22:21.292Z</time></trkpt><trkpt lat="42.9888717" lon="11.6484333"><ele>427.0</ele><time>2026-04-26T13:22:22.295Z</time></trkpt><trkpt lat="42.9888867" lon="11.6486033"><ele>427.25</ele><time>2026-04-26T13:22:23.292Z</time></trkpt><trkpt lat="42.988895" lon="11.648775"><ele>427.5</ele><time>2026-04-26T13:22:24.295Z</time></trkpt><trkpt lat="42.9888917" lon="11.6489483"><ele>427.75</ele><time>2026-04-26T13:22:25.296Z</time></trkpt><trkpt lat="42.9888917" lon="11.649125"><ele>428.0</ele><time>2026-04-26T13:22:26.292Z</time></trkpt><trkpt lat="42.9888883" lon="11.6493017"><ele>427.5</ele><time>2026-04-26T13:22:27.296Z</time></trkpt><trkpt lat="42.9888883" lon="11.6494817"><ele>427.0</ele><time>2026-04-26T13:22:28.296Z</time></trkpt><trkpt lat="42.9888917" lon="11.6496633"><ele>426.5</ele><time>2026-04-26T13:22:29.295Z</time></trkpt><trkpt lat="42.9888917" lon="11.6498433"><ele>426.0</ele><time>2026-04-26T13:22:30.295Z</time></trkpt><trkpt lat="42.98889" lon="11.6500233"><ele>426.0</ele><time>2026-04-26T13:22:31.296Z</time></trkpt><trkpt lat="42.9888833" lon="11.650205"><ele>426.0</ele><time>2026-04-26T13:22:32.295Z</time></trkpt><trkpt lat="42.9888767" lon="11.65039"><ele>426.0</ele><time>2026-04-26T13:22:33.293Z</time></trkpt><trkpt lat="42.9888667" lon="11.6505767"><ele>426.0</ele><time>2026-04-26T13:22:34.301Z</time></trkpt><trkpt lat="42.9888467" lon="11.6507583"><ele>426.25</ele><time>2026-04-26T13:22:35.303Z</time></trkpt><trkpt lat="42.988815" lon="11.65093"><ele>426.5</ele><time>2026-04-26T13:22:36.296Z</time></trkpt><trkpt lat="42.9887733" lon="11.6510917"><ele>426.75</ele><time>2026-04-26T13:22:37.296Z</time></trkpt><trkpt lat="42.9887183" lon="11.6512433"><ele>427.0</ele><time>2026-04-26T13:22:38.296Z</time></trkpt><trkpt lat="42.9886567" lon="11.6513867"><ele>427.0</ele><time>2026-04-26T13:22:39.296Z</time></trkpt><trkpt lat="42.9886" lon="11.6515367"><ele>427.0</ele><time>2026-04-26T13:22:40.295Z</time></trkpt><trkpt lat="42.9885517" lon="11.6516933"><ele>427.0</ele><time>2026-04-26T13:22:41.296Z</time></trkpt><trkpt lat="42.9885033" lon="11.651855"><ele>427.0</ele><time>2026-04-26T13:22:42.296Z</time></trkpt><trkpt lat="42.9884517" lon="11.65202"><ele>427.0</ele><time>2026-04-26T13:22:43.295Z</time></trkpt><trkpt lat="42.9884033" lon="11.6521817"><ele>427.0</ele><time>2026-04-26T13:22:44.296Z</time></trkpt><trkpt lat="42.988355" lon="11.65235"><ele>427.0</ele><time>2026-04-26T13:22:45.295Z</time></trkpt><trkpt lat="42.98831" lon="11.6525183"><ele>427.0</ele><time>2026-04-26T13:22:46.388Z</time></trkpt><trkpt lat="42.988265" lon="11.6526883"><ele>427.5</ele><time>2026-04-26T13:22:47.294Z</time></trkpt><trkpt lat="42.9882183" lon="11.6528617"><ele>428.0</ele><time>2026-04-26T13:22:48.294Z</time></trkpt><trkpt lat="42.98817" lon="11.6530367"><ele>428.5</ele><time>2026-04-26T13:22:49.294Z</time></trkpt><trkpt lat="42.9881233" lon="11.6532033"><ele>429.0</ele><time>2026-04-26T13:22:50.294Z</time></trkpt><trkpt lat="42.9880783" lon="11.6533633"><ele>429.0</ele><time>2026-04-26T13:22:51.294Z</time></trkpt><trkpt lat="42.9880333" lon="11.6535167"><ele>429.0</ele><time>2026-04-26T13:22:52.295Z</time></trkpt><trkpt lat="42.9879883" lon="11.6536717"><ele>429.0</ele><time>2026-04-26T13:22:53.293Z</time></trkpt><trkpt lat="42.9879417" lon="11.65383"><ele>429.0</ele><time>2026-04-26T13:22:54.296Z</time></trkpt><trkpt lat="42.987895" lon="11.653985"><ele>429.0</ele><time>2026-04-26T13:22:55.297Z</time></trkpt><trkpt lat="42.9878483" lon="11.6541417"><ele>429.0</ele><time>2026-04-26T13:22:56.296Z</time></trkpt><trkpt lat="42.9877983" lon="11.6543017"><ele>429.0</ele><time>2026-04-26T13:22:57.293Z</time></trkpt><trkpt lat="42.98775" lon="11.6544583"><ele>429.0</ele><time>2026-04-26T13:22:58.293Z</time></trkpt><trkpt lat="42.9877017" lon="11.6546167"><ele>428.5</ele><time>2026-04-26T13:22:59.296Z</time></trkpt><trkpt lat="42.9876567" lon="11.65478"><ele>428.0</ele><time>2026-04-26T13:23:00.292Z</time></trkpt><trkpt lat="42.9876133" lon="11.6549433"><ele>427.5</ele><time>2026-04-26T13:23:01.295Z</time></trkpt><trkpt lat="42.9875733" lon="11.6551117"><ele>427.0</ele><time>2026-04-26T13:23:02.297Z</time></trkpt><trkpt lat="42.98754" lon="11.6552783"><ele>427.5</ele><time>2026-04-26T13:23:03.295Z</time></trkpt><trkpt lat="42.9875117" lon="11.6554483"><ele>428.0</ele><time>2026-04-26T13:23:04.296Z</time></trkpt><trkpt lat="42.98749" lon="11.6556167"><ele>428.5</ele><time>2026-04-26T13:23:05.295Z</time></trkpt><trkpt lat="42.987475" lon="11.6557833"><ele>429.0</ele><time>2026-04-26T13:23:06.295Z</time></trkpt><trkpt lat="42.9874617" lon="11.6559467"><ele>429.0</ele><time>2026-04-26T13:23:07.293Z</time></trkpt><trkpt lat="42.9874567" lon="11.65611"><ele>429.0</ele><time>2026-04-26T13:23:08.293Z</time></trkpt><trkpt lat="42.9874617" lon="11.6562717"><ele>429.0</ele><time>2026-04-26T13:23:09.296Z</time></trkpt><trkpt lat="42.98748" lon="11.6564267"><ele>429.0</ele><time>2026-04-26T13:23:10.297Z</time></trkpt><trkpt lat="42.9875117" lon="11.6565783"><ele>429.25</ele><time>2026-04-26T13:23:11.295Z</time></trkpt><trkpt lat="42.9875567" lon="11.65673"><ele>429.5</ele><time>2026-04-26T13:23:12.295Z</time></trkpt><trkpt lat="42.987615" lon="11.6568833"><ele>429.75</ele><time>2026-04-26T13:23:13.295Z</time></trkpt><trkpt lat="42.9876783" lon="11.6570417"><ele>430.0</ele><time>2026-04-26T13:23:14.297Z</time></trkpt><trkpt lat="42.9877417" lon="11.6572"><ele>430.0</ele><time>2026-04-26T13:23:15.295Z</time></trkpt><trkpt lat="42.9878033" lon="11.6573567"><ele>430.0</ele><time>2026-04-26T13:23:16.296Z</time></trkpt><trkpt lat="42.98786" lon="11.6575117"><ele>430.0</ele><time>2026-04-26T13:23:17.294Z</time></trkpt><trkpt lat="42.9879167" lon="11.6576667"><ele>430.0</ele><time>2026-04-26T13:23:18.294Z</time></trkpt><trkpt lat="42.9879733" lon="11.65782"><ele>430.0</ele><time>2026-04-26T13:23:19.293Z</time></trkpt><trkpt lat="42.9880333" lon="11.6579733"><ele>430.0</ele><time>2026-04-26T13:23:20.295Z</time></trkpt><trkpt lat="42.9880917" lon="11.6581283"><ele>430.0</ele><time>2026-04-26T13:23:21.293Z</time></trkpt><trkpt lat="42.9881517" lon="11.6582833"><ele>430.0</ele><time>2026-04-26T13:23:22.298Z</time></trkpt><trkpt lat="42.9882083" lon="11.658435"><ele>430.0</ele><time>2026-04-26T13:23:23.293Z</time></trkpt><trkpt lat="42.9882633" lon="11.6585883"><ele>430.0</ele><time>2026-04-26T13:23:24.297Z</time></trkpt><trkpt lat="42.9883167" lon="11.6587433"><ele>430.0</ele><time>2026-04-26T13:23:25.295Z</time></trkpt><trkpt lat="42.988375" lon="11.6588967"><ele>430.0</ele><time>2026-04-26T13:23:26.297Z</time></trkpt><trkpt lat="42.988435" lon="11.6590417"><ele>430.0</ele><time>2026-04-26T13:23:27.295Z</time></trkpt><trkpt lat="42.9885033" lon="11.6591833"><ele>430.0</ele><time>2026-04-26T13:23:28.296Z</time></trkpt><trkpt lat="42.9885767" lon="11.6593267"><ele>430.0</ele><time>2026-04-26T13:23:29.297Z</time></trkpt><trkpt lat="42.9886517" lon="11.65947"><ele>430.0</ele><time>2026-04-26T13:23:30.294Z</time></trkpt><trkpt lat="42.98873" lon="11.6596117"><ele>429.75</ele><time>2026-04-26T13:23:31.293Z</time></trkpt><trkpt lat="42.9888017" lon="11.659755"><ele>429.5</ele><time>2026-04-26T13:23:32.296Z</time></trkpt><trkpt lat="42.9888733" lon="11.6599067"><ele>429.25</ele><time>2026-04-26T13:23:33.296Z</time></trkpt><trkpt lat="42.98894" lon="11.660065"><ele>429.0</ele><time>2026-04-26T13:23:34.295Z</time></trkpt><trkpt lat="42.988995" lon="11.6602283"><ele>427.75</ele><time>2026-04-26T13:23:35.296Z</time></trkpt><trkpt lat="42.9890417" lon="11.6604"><ele>426.5</ele><time>2026-04-26T13:23:36.296Z</time></trkpt><trkpt lat="42.9890767" lon="11.6605783"><ele>425.25</ele><time>2026-04-26T13:23:37.295Z</time></trkpt><trkpt lat="42.9891133" lon="11.6607567"><ele>424.0</ele><time>2026-04-26T13:23:38.296Z</time></trkpt><trkpt lat="42.9891467" lon="11.660935"><ele>421.5</ele><time>2026-04-26T13:23:39.297Z</time></trkpt><trkpt lat="42.9891783" lon="11.6611133"><ele>419.0</ele><time>2026-04-26T13:23:40.296Z</time></trkpt><trkpt lat="42.9892067" lon="11.6612917"><ele>416.5</ele><time>2026-04-26T13:23:41.295Z</time></trkpt><trkpt lat="42.9892333" lon="11.6614683"><ele>414.0</ele><time>2026-04-26T13:23:42.295Z</time></trkpt><trkpt lat="42.9892567" lon="11.6616467"><ele>413.5</ele><time>2026-04-26T13:23:43.297Z</time></trkpt><trkpt lat="42.9892817" lon="11.6618233"><ele>413.0</ele><time>2026-04-26T13:23:44.295Z</time></trkpt><trkpt lat="42.989305" lon="11.662"><ele>412.5</ele><time>2026-04-26T13:23:45.295Z</time></trkpt><trkpt lat="42.98933" lon="11.66218"><ele>412.0</ele><time>2026-04-26T13:23:46.297Z</time></trkpt><trkpt lat="42.9893533" lon="11.662355"><ele>413.0</ele><time>2026-04-26T13:23:47.295Z</time></trkpt><trkpt lat="42.9893767" lon="11.662535"><ele>414.0</ele><time>2026-04-26T13:23:48.296Z</time></trkpt><trkpt lat="42.9893967" lon="11.662715"><ele>415.0</ele><time>2026-04-26T13:23:49.296Z</time></trkpt><trkpt lat="42.989415" lon="11.6628983"><ele>416.0</ele><time>2026-04-26T13:23:50.296Z</time></trkpt><trkpt lat="42.989435" lon="11.6630833"><ele>416.0</ele><time>2026-04-26T13:23:51.295Z</time></trkpt><trkpt lat="42.9894517" lon="11.66327"><ele>416.0</ele><time>2026-04-26T13:23:52.296Z</time></trkpt><trkpt lat="42.98947" lon="11.6634517"><ele>416.0</ele><time>2026-04-26T13:23:53.295Z</time></trkpt><trkpt lat="42.98949" lon="11.6636283"><ele>416.0</ele><time>2026-04-26T13:23:54.296Z</time></trkpt><trkpt lat="42.9895117" lon="11.6638"><ele>416.75</ele><time>2026-04-26T13:23:55.296Z</time></trkpt><trkpt lat="42.989545" lon="11.6639633"><ele>417.5</ele><time>2026-04-26T13:23:56.296Z</time></trkpt><trkpt lat="42.9895883" lon="11.66412"><ele>418.25</ele><time>2026-04-26T13:23:57.295Z</time></trkpt><trkpt lat="42.9896433" lon="11.6642717"><ele>419.0</ele><time>2026-04-26T13:23:58.296Z</time></trkpt><trkpt lat="42.989705" lon="11.6644233"><ele>419.25</ele><time>2026-04-26T13:23:59.295Z</time></trkpt><trkpt lat="42.989765" lon="11.6645683"><ele>419.5</ele><time>2026-04-26T13:24:00.296Z</time></trkpt><trkpt lat="42.9898233" lon="11.664705"><ele>419.75</ele><time>2026-04-26T13:24:01.297Z</time></trkpt><trkpt lat="42.9898833" lon="11.6648383"><ele>420.0</ele><time>2026-04-26T13:24:02.297Z</time></trkpt><trkpt lat="42.989945" lon="11.6649717"><ele>418.0</ele><time>2026-04-26T13:24:03.295Z</time></trkpt><trkpt lat="42.99001" lon="11.6651117"><ele>416.0</ele><time>2026-04-26T13:24:04.295Z</time></trkpt><trkpt lat="42.9900683" lon="11.665245"><ele>414.0</ele><time>2026-04-26T13:24:05.296Z</time></trkpt><trkpt lat="42.990125" lon="11.6653783"><ele>412.0</ele><time>2026-04-26T13:24:06.296Z</time></trkpt><trkpt lat="42.9901683" lon="11.6655117"><ele>412.0</ele><time>2026-04-26T13:24:07.296Z</time></trkpt><trkpt lat="42.9901933" lon="11.665655"><ele>412.0</ele><time>2026-04-26T13:24:08.297Z</time></trkpt><trkpt lat="42.9901967" lon="11.6658"><ele>412.0</ele><time>2026-04-26T13:24:09.296Z</time></trkpt><trkpt lat="42.99019" lon="11.6659317"><ele>412.0</ele><time>2026-04-26T13:24:10.296Z</time></trkpt><trkpt lat="42.9901917" lon="11.6660483"><ele>412.0</ele><time>2026-04-26T13:24:11.297Z</time></trkpt><trkpt lat="42.9902083" lon="11.66616"><ele>412.40000000000003</ele><time>2026-04-26T13:24:12.298Z</time></trkpt><trkpt lat="42.99025" lon="11.6662667"><ele>412.8</ele><time>2026-04-26T13:24:13.296Z</time></trkpt><trkpt lat="42.9903167" lon="11.6663633"><ele>413.2</ele><time>2026-04-26T13:24:14.296Z</time></trkpt><trkpt lat="42.9904017" lon="11.666455"><ele>413.6</ele><time>2026-04-26T13:24:15.296Z</time></trkpt><trkpt lat="42.9904867" lon="11.6665383"><ele>414.0</ele><time>2026-04-26T13:24:16.297Z</time></trkpt><trkpt lat="42.9905717" lon="11.66662"><ele>414.0</ele><time>2026-04-26T13:24:17.296Z</time></trkpt><trkpt lat="42.9906483" lon="11.6667083"><ele>414.0</ele><time>2026-04-26T13:24:18.295Z</time></trkpt><trkpt lat="42.9907083" lon="11.6668083"><ele>414.0</ele><time>2026-04-26T13:24:19.296Z</time></trkpt><trkpt lat="42.9907517" lon="11.6669183"><ele>414.0</ele><time>2026-04-26T13:24:20.297Z</time></trkpt><trkpt lat="42.9907783" lon="11.6670367"><ele>414.0</ele><time>2026-04-26T13:24:21.295Z</time></trkpt><trkpt lat="42.9908017" lon="11.667155"><ele>413.1666666666667</ele><time>2026-04-26T13:24:22.297Z</time></trkpt><trkpt lat="42.9908217" lon="11.667275"><ele>412.33333333333337</ele><time>2026-04-26T13:24:23.296Z</time></trkpt><trkpt lat="42.9908483" lon="11.6673933"><ele>411.5</ele><time>2026-04-26T13:24:24.296Z</time></trkpt><trkpt lat="42.9908767" lon="11.6675017"><ele>410.6666666666667</ele><time>2026-04-26T13:24:25.297Z</time></trkpt><trkpt lat="42.9909183" lon="11.667595"><ele>409.83333333333337</ele><time>2026-04-26T13:24:26.296Z</time></trkpt><trkpt lat="42.99097" lon="11.6676783"><ele>409.0</ele><time>2026-04-26T13:24:27.296Z</time></trkpt><trkpt lat="42.99105" lon="11.667745"><ele>406.0</ele><time>2026-04-26T13:24:28.296Z</time></trkpt><trkpt lat="42.9911617" lon="11.6677833"><ele>403.0</ele><time>2026-04-26T13:24:29.296Z</time></trkpt><trkpt lat="42.9912783" lon="11.667815"><ele>400.0</ele><time>2026-04-26T13:24:30.296Z</time></trkpt><trkpt lat="42.9914017" lon="11.667845"><ele>397.0</ele><time>2026-04-26T13:24:31.297Z</time></trkpt><trkpt lat="42.9915217" lon="11.6678817"><ele>397.0</ele><time>2026-04-26T13:24:32.296Z</time></trkpt><trkpt lat="42.9916367" lon="11.6679267"><ele>397.0</ele><time>2026-04-26T13:24:33.297Z</time></trkpt><trkpt lat="42.9917483" lon="11.66798"><ele>397.0</ele><time>2026-04-26T13:24:34.296Z</time></trkpt><trkpt lat="42.99186" lon="11.66804"><ele>397.0</ele><time>2026-04-26T13:24:35.296Z</time></trkpt><trkpt lat="42.9919717" lon="11.668105"><ele>395.25</ele><time>2026-04-26T13:24:36.297Z</time></trkpt><trkpt lat="42.9920817" lon="11.6681667"><ele>393.5</ele><time>2026-04-26T13:24:37.297Z</time></trkpt><trkpt lat="42.9921867" lon="11.668225"><ele>391.75</ele><time>2026-04-26T13:24:38.297Z</time></trkpt><trkpt lat="42.9922917" lon="11.668285"><ele>390.0</ele><time>2026-04-26T13:24:39.297Z</time></trkpt><trkpt lat="42.9923983" lon="11.66835"><ele>389.25</ele><time>2026-04-26T13:24:40.296Z</time></trkpt><trkpt lat="42.9925083" lon="11.6684183"><ele>388.5</ele><time>2026-04-26T13:24:41.296Z</time></trkpt><trkpt lat="42.9926217" lon="11.6684817"><ele>387.75</ele><time>2026-04-26T13:24:42.295Z</time></trkpt><trkpt lat="42.99274" lon="11.668545"><ele>387.0</ele><time>2026-04-26T13:24:43.297Z</time></trkpt><trkpt lat="42.9928583" lon="11.66861"><ele>387.0</ele><time>2026-04-26T13:24:44.296Z</time></trkpt><trkpt lat="42.9929783" lon="11.6686767"><ele>387.0</ele><time>2026-04-26T13:24:45.296Z</time></trkpt><trkpt lat="42.993095" lon="11.6687417"><ele>387.0</ele><time>2026-04-26T13:24:46.297Z</time></trkpt><trkpt lat="42.9932117" lon="11.6688083"><ele>387.0</ele><time>2026-04-26T13:24:47.297Z</time></trkpt><trkpt lat="42.9933233" lon="11.668875"><ele>388.25</ele><time>2026-04-26T13:24:48.296Z</time></trkpt><trkpt lat="42.9934333" lon="11.66894"><ele>389.5</ele><time>2026-04-26T13:24:49.297Z</time></trkpt><trkpt lat="42.9935417" lon="11.6690083"><ele>390.75</ele><time>2026-04-26T13:24:50.296Z</time></trkpt><trkpt lat="42.9936467" lon="11.66908"><ele>392.0</ele><time>2026-04-26T13:24:51.296Z</time></trkpt><trkpt lat="42.9937483" lon="11.6691633"><ele>392.0</ele><time>2026-04-26T13:24:52.296Z</time></trkpt><trkpt lat="42.9938417" lon="11.669255"><ele>392.0</ele><time>2026-04-26T13:24:53.295Z</time></trkpt><trkpt lat="42.993925" lon="11.6693583"><ele>392.0</ele><time>2026-04-26T13:24:54.296Z</time></trkpt><trkpt lat="42.994005" lon="11.66947"><ele>392.0</ele><time>2026-04-26T13:24:55.295Z</time></trkpt><trkpt lat="42.99408" lon="11.669585"><ele>392.0</ele><time>2026-04-26T13:24:56.296Z</time></trkpt><trkpt lat="42.9941583" lon="11.6697017"><ele>392.0</ele><time>2026-04-26T13:24:57.295Z</time></trkpt><trkpt lat="42.99424" lon="11.6698183"><ele>392.0</ele><time>2026-04-26T13:24:58.296Z</time></trkpt><trkpt lat="42.994325" lon="11.6699333"><ele>392.0</ele><time>2026-04-26T13:24:59.296Z</time></trkpt><trkpt lat="42.99441" lon="11.670045"><ele>392.0</ele><time>2026-04-26T13:25:00.296Z</time></trkpt><trkpt lat="42.9944967" lon="11.6701533"><ele>392.0</ele><time>2026-04-26T13:25:01.293Z</time></trkpt><trkpt lat="42.9945883" lon="11.67026"><ele>392.0</ele><time>2026-04-26T13:25:02.296Z</time></trkpt><trkpt lat="42.99468" lon="11.6703633"><ele>392.0</ele><time>2026-04-26T13:25:03.295Z</time></trkpt><trkpt lat="42.994775" lon="11.6704683"><ele>392.5</ele><time>2026-04-26T13:25:04.297Z</time></trkpt><trkpt lat="42.994865" lon="11.6705733"><ele>393.0</ele><time>2026-04-26T13:25:05.297Z</time></trkpt><trkpt lat="42.9949483" lon="11.6706867"><ele>393.5</ele><time>2026-04-26T13:25:06.296Z</time></trkpt><trkpt lat="42.995025" lon="11.6708033"><ele>394.0</ele><time>2026-04-26T13:25:07.295Z</time></trkpt><trkpt lat="42.99509" lon="11.6709283"><ele>392.25</ele><time>2026-04-26T13:25:08.296Z</time></trkpt><trkpt lat="42.9951417" lon="11.6710683"><ele>390.5</ele><time>2026-04-26T13:25:09.296Z</time></trkpt><trkpt lat="42.9951817" lon="11.6712217"><ele>388.75</ele><time>2026-04-26T13:25:10.296Z</time></trkpt><trkpt lat="42.99521" lon="11.671385"><ele>387.0</ele><time>2026-04-26T13:25:11.296Z</time></trkpt><trkpt lat="42.9952333" lon="11.6715517"><ele>387.0</ele><time>2026-04-26T13:25:12.297Z</time></trkpt><trkpt lat="42.995255" lon="11.6717217"><ele>387.0</ele><time>2026-04-26T13:25:13.297Z</time></trkpt><trkpt lat="42.995275" lon="11.671895"><ele>387.0</ele><time>2026-04-26T13:25:14.3Z</time></trkpt><trkpt lat="42.9952933" lon="11.6720717"><ele>387.0</ele><time>2026-04-26T13:25:15.297Z</time></trkpt><trkpt lat="42.9953133" lon="11.67225"><ele>387.0</ele><time>2026-04-26T13:25:16.296Z</time></trkpt><trkpt lat="42.9953367" lon="11.672425"><ele>387.0</ele><time>2026-04-26T13:25:17.293Z</time></trkpt><trkpt lat="42.99536" lon="11.6725917"><ele>387.0</ele><time>2026-04-26T13:25:18.293Z</time></trkpt><trkpt lat="42.9953867" lon="11.6727517"><ele>387.0</ele><time>2026-04-26T13:25:19.293Z</time></trkpt><trkpt lat="42.995415" lon="11.67291"><ele>387.0</ele><time>2026-04-26T13:25:20.296Z</time></trkpt><trkpt lat="42.99545" lon="11.6730683"><ele>387.0</ele><time>2026-04-26T13:25:21.294Z</time></trkpt><trkpt lat="42.9954933" lon="11.673225"><ele>387.0</ele><time>2026-04-26T13:25:22.294Z</time></trkpt><trkpt lat="42.9955433" lon="11.6733833"><ele>387.0</ele><time>2026-04-26T13:25:23.296Z</time></trkpt><trkpt lat="42.9955983" lon="11.67354"><ele>387.5</ele><time>2026-04-26T13:25:24.296Z</time></trkpt><trkpt lat="42.9956567" lon="11.6736933"><ele>388.0</ele><time>2026-04-26T13:25:25.297Z</time></trkpt><trkpt lat="42.9957133" lon="11.6738433"><ele>388.5</ele><time>2026-04-26T13:25:26.297Z</time></trkpt><trkpt lat="42.99577" lon="11.6739867"><ele>389.0</ele><time>2026-04-26T13:25:27.293Z</time></trkpt><trkpt lat="42.9958267" lon="11.6741317"><ele>386.75</ele><time>2026-04-26T13:25:28.292Z</time></trkpt><trkpt lat="42.995885" lon="11.6742783"><ele>384.5</ele><time>2026-04-26T13:25:29.293Z</time></trkpt><trkpt lat="42.9959467" lon="11.6744217"><ele>382.25</ele><time>2026-04-26T13:25:30.293Z</time></trkpt><trkpt lat="42.9960067" lon="11.6745633"><ele>380.0</ele><time>2026-04-26T13:25:31.296Z</time></trkpt><trkpt lat="42.996065" lon="11.6747067"><ele>380.0</ele><time>2026-04-26T13:25:32.297Z</time></trkpt><trkpt lat="42.9961217" lon="11.6748517"><ele>380.0</ele><time>2026-04-26T13:25:33.295Z</time></trkpt><trkpt lat="42.9961767" lon="11.675"><ele>380.0</ele><time>2026-04-26T13:25:34.297Z</time></trkpt><trkpt lat="42.9962317" lon="11.6751483"><ele>380.0</ele><time>2026-04-26T13:25:35.295Z</time></trkpt><trkpt lat="42.9962883" lon="11.675295"><ele>380.5</ele><time>2026-04-26T13:25:36.296Z</time></trkpt><trkpt lat="42.9963467" lon="11.6754417"><ele>381.0</ele><time>2026-04-26T13:25:37.297Z</time></trkpt><trkpt lat="42.9964017" lon="11.6755867"><ele>381.5</ele><time>2026-04-26T13:25:38.296Z</time></trkpt><trkpt lat="42.996455" lon="11.675725"><ele>382.0</ele><time>2026-04-26T13:25:39.296Z</time></trkpt><trkpt lat="42.99651" lon="11.6758617"><ele>382.0</ele><time>2026-04-26T13:25:40.297Z</time></trkpt><trkpt lat="42.996565" lon="11.675995"><ele>382.0</ele><time>2026-04-26T13:25:41.295Z</time></trkpt><trkpt lat="42.9966167" lon="11.676125"><ele>382.0</ele><time>2026-04-26T13:25:42.297Z</time></trkpt><trkpt lat="42.99667" lon="11.676255"><ele>382.0</ele><time>2026-04-26T13:25:43.297Z</time></trkpt><trkpt lat="42.99672" lon="11.6763833"><ele>382.0</ele><time>2026-04-26T13:25:44.296Z</time></trkpt><trkpt lat="42.9967683" lon="11.67651"><ele>379.6</ele><time>2026-04-26T13:25:45.296Z</time></trkpt><trkpt lat="42.9968133" lon="11.67663"><ele>377.20000000000005</ele><time>2026-04-26T13:25:46.296Z</time></trkpt><trkpt lat="42.9968583" lon="11.6767433"><ele>374.8</ele><time>2026-04-26T13:25:47.297Z</time></trkpt><trkpt lat="42.9969117" lon="11.6768467"><ele>372.4</ele><time>2026-04-26T13:25:48.296Z</time></trkpt><trkpt lat="42.996975" lon="11.6769433"><ele>370.0</ele><time>2026-04-26T13:25:49.298Z</time></trkpt><trkpt lat="42.9970433" lon="11.677035"><ele>369.8</ele><time>2026-04-26T13:25:50.296Z</time></trkpt><trkpt lat="42.9971183" lon="11.6771183"><ele>369.6</ele><time>2026-04-26T13:25:51.297Z</time></trkpt><trkpt lat="42.9971967" lon="11.6771917"><ele>369.4</ele><time>2026-04-26T13:25:52.298Z</time></trkpt><trkpt lat="42.9972783" lon="11.6772583"><ele>369.2</ele><time>2026-04-26T13:25:53.297Z</time></trkpt><trkpt lat="42.997365" lon="11.6773067"><ele>369.0</ele><time>2026-04-26T13:25:54.297Z</time></trkpt><trkpt lat="42.997465" lon="11.6773367"><ele>367.2</ele><time>2026-04-26T13:25:55.296Z</time></trkpt><trkpt lat="42.997575" lon="11.6773433"><ele>365.4</ele><time>2026-04-26T13:25:56.297Z</time></trkpt><trkpt lat="42.997685" lon="11.67734"><ele>363.6</ele><time>2026-04-26T13:25:57.297Z</time></trkpt><trkpt lat="42.99779" lon="11.67734"><ele>361.8</ele><time>2026-04-26T13:25:58.297Z</time></trkpt><trkpt lat="42.9978917" lon="11.6773617"><ele>360.0</ele><time>2026-04-26T13:25:59.298Z</time></trkpt><trkpt lat="42.9979867" lon="11.6774067"><ele>360.0</ele><time>2026-04-26T13:26:00.296Z</time></trkpt><trkpt lat="42.9980733" lon="11.6774783"><ele>360.0</ele><time>2026-04-26T13:26:01.296Z</time></trkpt><trkpt lat="42.9981467" lon="11.6775767"><ele>360.0</ele><time>2026-04-26T13:26:02.297Z</time></trkpt><trkpt lat="42.9982133" lon="11.6776833"><ele>360.0</ele><time>2026-04-26T13:26:03.297Z</time></trkpt><trkpt lat="42.9982833" lon="11.6777883"><ele>360.0</ele><time>2026-04-26T13:26:04.297Z</time></trkpt><trkpt lat="42.99835" lon="11.6778917"><ele>357.0</ele><time>2026-04-26T13:26:05.296Z</time></trkpt><trkpt lat="42.998415" lon="11.6779933"><ele>354.0</ele><time>2026-04-26T13:26:06.297Z</time></trkpt><trkpt lat="42.9984767" lon="11.678095"><ele>351.0</ele><time>2026-04-26T13:26:07.296Z</time></trkpt><trkpt lat="42.9985267" lon="11.6782067"><ele>348.0</ele><time>2026-04-26T13:26:08.296Z</time></trkpt><trkpt lat="42.9985633" lon="11.6783317"><ele>345.0</ele><time>2026-04-26T13:26:09.294Z</time></trkpt><trkpt lat="42.998585" lon="11.6784717"><ele>344.25</ele><time>2026-04-26T13:26:10.293Z</time></trkpt><trkpt lat="42.9986017" lon="11.67862"><ele>343.5</ele><time>2026-04-26T13:26:11.297Z</time></trkpt><trkpt lat="42.9986133" lon="11.6787783"><ele>342.75</ele><time>2026-04-26T13:26:12.297Z</time></trkpt><trkpt lat="42.998625" lon="11.6789367"><ele>342.0</ele><time>2026-04-26T13:26:13.296Z</time></trkpt><trkpt lat="42.9986383" lon="11.6790917"><ele>342.0</ele><time>2026-04-26T13:26:14.297Z</time></trkpt><trkpt lat="42.99865" lon="11.6792417"><ele>342.0</ele><time>2026-04-26T13:26:15.297Z</time></trkpt><trkpt lat="42.998665" lon="11.6793917"><ele>342.0</ele><time>2026-04-26T13:26:16.299Z</time></trkpt><trkpt lat="42.9986783" lon="11.67954"><ele>342.0</ele><time>2026-04-26T13:26:17.296Z</time></trkpt><trkpt lat="42.9986883" lon="11.6796867"><ele>342.0</ele><time>2026-04-26T13:26:18.297Z</time></trkpt><trkpt lat="42.9986983" lon="11.6798317"><ele>341.0</ele><time>2026-04-26T13:26:19.296Z</time></trkpt><trkpt lat="42.9987083" lon="11.6799717"><ele>340.0</ele><time>2026-04-26T13:26:20.296Z</time></trkpt><trkpt lat="42.9987183" lon="11.6801067"><ele>339.0</ele><time>2026-04-26T13:26:21.296Z</time></trkpt><trkpt lat="42.99873" lon="11.6802267"><ele>338.0</ele><time>2026-04-26T13:26:22.296Z</time></trkpt><trkpt lat="42.9987367" lon="11.68034"><ele>337.0</ele><time>2026-04-26T13:26:23.296Z</time></trkpt><trkpt lat="42.9987417" lon="11.68045"><ele>336.5</ele><time>2026-04-26T13:26:24.296Z</time></trkpt><trkpt lat="42.9987517" lon="11.680555"><ele>336.0</ele><time>2026-04-26T13:26:25.297Z</time></trkpt><trkpt lat="42.9987717" lon="11.6806567"><ele>335.5</ele><time>2026-04-26T13:26:26.296Z</time></trkpt><trkpt lat="42.9988" lon="11.6807567"><ele>335.0</ele><time>2026-04-26T13:26:27.296Z</time></trkpt><trkpt lat="42.9988417" lon="11.6808583"><ele>334.5</ele><time>2026-04-26T13:26:28.298Z</time></trkpt><trkpt lat="42.9989083" lon="11.680955"><ele>334.0</ele><time>2026-04-26T13:26:29.297Z</time></trkpt><trkpt lat="42.998985" lon="11.6810567"><ele>333.6</ele><time>2026-04-26T13:26:30.296Z</time></trkpt><trkpt lat="42.9990633" lon="11.681155"><ele>333.2</ele><time>2026-04-26T13:26:31.296Z</time></trkpt><trkpt lat="42.9991367" lon="11.6812517"><ele>332.8</ele><time>2026-04-26T13:26:32.296Z</time></trkpt><trkpt lat="42.99921" lon="11.6813467"><ele>332.40000000000003</ele><time>2026-04-26T13:26:33.297Z</time></trkpt><trkpt lat="42.9992783" lon="11.6814367"><ele>332.0</ele><time>2026-04-26T13:26:34.293Z</time></trkpt><trkpt lat="42.999345" lon="11.68153"><ele>330.5</ele><time>2026-04-26T13:26:35.296Z</time></trkpt><trkpt lat="42.999405" lon="11.6816267"><ele>329.0</ele><time>2026-04-26T13:26:36.298Z</time></trkpt><trkpt lat="42.9994567" lon="11.681725"><ele>327.5</ele><time>2026-04-26T13:26:37.297Z</time></trkpt><trkpt lat="42.9994983" lon="11.6818267"><ele>326.0</ele><time>2026-04-26T13:26:38.296Z</time></trkpt><trkpt lat="42.99953" lon="11.6819283"><ele>324.5</ele><time>2026-04-26T13:26:39.297Z</time></trkpt><trkpt lat="42.9995567" lon="11.6820367"><ele>323.0</ele><time>2026-04-26T13:26:40.297Z</time></trkpt><trkpt lat="42.9995767" lon="11.6821433"><ele>322.8571428571429</ele><time>2026-04-26T13:26:41.297Z</time></trkpt><trkpt lat="42.999595" lon="11.6822467"><ele>322.7142857142857</ele><time>2026-04-26T13:26:42.297Z</time></trkpt><trkpt lat="42.9996067" lon="11.682345"><ele>322.57142857142856</ele><time>2026-04-26T13:26:43.296Z</time></trkpt><trkpt lat="42.999615" lon="11.6824417"><ele>322.42857142857144</ele><time>2026-04-26T13:26:44.297Z</time></trkpt><trkpt lat="42.999625" lon="11.6825383"><ele>322.2857142857143</ele><time>2026-04-26T13:26:45.297Z</time></trkpt><trkpt lat="42.9996383" lon="11.682635"><ele>322.14285714285717</ele><time>2026-04-26T13:26:46.297Z</time></trkpt><trkpt lat="42.9996483" lon="11.682735"><ele>322.0</ele><time>2026-04-26T13:26:47.296Z</time></trkpt><trkpt lat="42.9996617" lon="11.682835"><ele>321.8333333333333</ele><time>2026-04-26T13:26:48.297Z</time></trkpt><trkpt lat="42.99967" lon="11.68293"><ele>321.66666666666663</ele><time>2026-04-26T13:26:49.296Z</time></trkpt><trkpt lat="42.9996817" lon="11.6830217"><ele>321.5</ele><time>2026-04-26T13:26:50.293Z</time></trkpt><trkpt lat="42.9996917" lon="11.6831083"><ele>321.3333333333333</ele><time>2026-04-26T13:26:51.293Z</time></trkpt><trkpt lat="42.99971" lon="11.68327"><ele>321.1666666666667</ele><time>2026-04-26T13:26:53.295Z</time></trkpt><trkpt lat="42.9997267" lon="11.6834083"><ele>321.0</ele><time>2026-04-26T13:26:55.296Z</time></trkpt><trkpt lat="42.9997233" lon="11.6834967"><ele>321.0</ele><time>2026-04-26T13:26:57.297Z</time></trkpt><trkpt lat="42.99964" lon="11.6835617"><ele>321.0</ele><time>2026-04-26T13:27:12.298Z</time></trkpt><trkpt lat="42.9995567" lon="11.6835783"><ele>321.0</ele><time>2026-04-26T13:27:14.296Z</time></trkpt><trkpt lat="42.99944" lon="11.6835833"><ele>321.0</ele><time>2026-04-26T13:27:16.296Z</time></trkpt><trkpt lat="42.9993733" lon="11.6835833"><ele>321.0</ele><time>2026-04-26T13:27:17.296Z</time></trkpt><trkpt lat="42.9992983" lon="11.6835883"><ele>321.0</ele><time>2026-04-26T13:27:18.292Z</time></trkpt><trkpt lat="42.9992183" lon="11.6835933"><ele>320.8333333333333</ele><time>2026-04-26T13:27:19.293Z</time></trkpt><trkpt lat="42.9991317" lon="11.683595"><ele>320.6666666666667</ele><time>2026-04-26T13:27:20.294Z</time></trkpt><trkpt lat="42.9990433" lon="11.6835933"><ele>320.5</ele><time>2026-04-26T13:27:21.293Z</time></trkpt><trkpt lat="42.998955" lon="11.6835917"><ele>320.33333333333337</ele><time>2026-04-26T13:27:22.293Z</time></trkpt><trkpt lat="42.99887" lon="11.68359"><ele>320.1666666666667</ele><time>2026-04-26T13:27:23.294Z</time></trkpt><trkpt lat="42.9987917" lon="11.683585"><ele>320.0</ele><time>2026-04-26T13:27:24.294Z</time></trkpt><trkpt lat="42.998715" lon="11.6835817"><ele>320.0</ele><time>2026-04-26T13:27:25.293Z</time></trkpt><trkpt lat="42.9986367" lon="11.6835783"><ele>320.0</ele><time>2026-04-26T13:27:26.294Z</time></trkpt><trkpt lat="42.99855" lon="11.6835767"><ele>320.0</ele><time>2026-04-26T13:27:27.293Z</time></trkpt><trkpt lat="42.9984533" lon="11.683575"><ele>320.0</ele><time>2026-04-26T13:27:28.294Z</time></trkpt><trkpt lat="42.99835" lon="11.683575"><ele>320.0</ele><time>2026-04-26T13:27:29.296Z</time></trkpt><trkpt lat="42.9982367" lon="11.6835733"><ele>319.25</ele><time>2026-04-26T13:27:30.297Z</time></trkpt><trkpt lat="42.9981117" lon="11.6835683"><ele>318.5</ele><time>2026-04-26T13:27:31.297Z</time></trkpt><trkpt lat="42.997985" lon="11.68356"><ele>317.75</ele><time>2026-04-26T13:27:32.297Z</time></trkpt><trkpt lat="42.997865" lon="11.6835467"><ele>317.0</ele><time>2026-04-26T13:27:33.297Z</time></trkpt><trkpt lat="42.9977467" lon="11.6835317"><ele>317.0</ele><time>2026-04-26T13:27:34.296Z</time></trkpt><trkpt lat="42.9976333" lon="11.6835167"><ele>317.0</ele><time>2026-04-26T13:27:35.295Z</time></trkpt><trkpt lat="42.9975183" lon="11.6835017"><ele>317.0</ele><time>2026-04-26T13:27:36.293Z</time></trkpt><trkpt lat="42.9974" lon="11.6834883"><ele>317.0</ele><time>2026-04-26T13:27:37.296Z</time></trkpt><trkpt lat="42.9972783" lon="11.68348"><ele>315.25</ele><time>2026-04-26T13:27:38.297Z</time></trkpt><trkpt lat="42.997155" lon="11.68348"><ele>313.5</ele><time>2026-04-26T13:27:39.297Z</time></trkpt><trkpt lat="42.9970367" lon="11.6834883"><ele>311.75</ele><time>2026-04-26T13:27:40.297Z</time></trkpt><trkpt lat="42.9969167" lon="11.6835117"><ele>310.0</ele><time>2026-04-26T13:27:41.296Z</time></trkpt><trkpt lat="42.9968033" lon="11.6835533"><ele>309.25</ele><time>2026-04-26T13:27:42.296Z</time></trkpt><trkpt lat="42.9967" lon="11.6836217"><ele>308.5</ele><time>2026-04-26T13:27:43.297Z</time></trkpt><trkpt lat="42.9966117" lon="11.6837233"><ele>307.75</ele><time>2026-04-26T13:27:44.296Z</time></trkpt><trkpt lat="42.9965433" lon="11.683845"><ele>307.0</ele><time>2026-04-26T13:27:45.294Z</time></trkpt><trkpt lat="42.9964867" lon="11.6839717"><ele>307.0</ele><time>2026-04-26T13:27:46.296Z</time></trkpt><trkpt lat="42.9964283" lon="11.6840983"><ele>307.0</ele><time>2026-04-26T13:27:47.295Z</time></trkpt><trkpt lat="42.9963633" lon="11.6842133"><ele>307.0</ele><time>2026-04-26T13:27:48.291Z</time></trkpt><trkpt lat="42.99629" lon="11.6843133"><ele>307.0</ele><time>2026-04-26T13:27:49.293Z</time></trkpt><trkpt lat="42.9962083" lon="11.6844"><ele>307.0</ele><time>2026-04-26T13:27:50.293Z</time></trkpt><trkpt lat="42.99612" lon="11.6844833"><ele>306.5</ele><time>2026-04-26T13:27:51.292Z</time></trkpt><trkpt lat="42.996025" lon="11.684565"><ele>306.0</ele><time>2026-04-26T13:27:52.293Z</time></trkpt><trkpt lat="42.9959283" lon="11.6846483"><ele>305.5</ele><time>2026-04-26T13:27:53.293Z</time></trkpt><trkpt lat="42.9958267" lon="11.6847333"><ele>305.0</ele><time>2026-04-26T13:27:54.293Z</time></trkpt><trkpt lat="42.9957167" lon="11.6848183"><ele>305.0</ele><time>2026-04-26T13:27:55.292Z</time></trkpt><trkpt lat="42.9956" lon="11.6849067"><ele>305.0</ele><time>2026-04-26T13:27:56.292Z</time></trkpt><trkpt lat="42.9954783" lon="11.6849983"><ele>305.0</ele><time>2026-04-26T13:27:57.292Z</time></trkpt><trkpt lat="42.995355" lon="11.6850917"><ele>305.0</ele><time>2026-04-26T13:27:58.292Z</time></trkpt><trkpt lat="42.9952267" lon="11.6851867"><ele>304.75</ele><time>2026-04-26T13:27:59.295Z</time></trkpt><trkpt lat="42.9951017" lon="11.68528"><ele>304.5</ele><time>2026-04-26T13:28:00.296Z</time></trkpt><trkpt lat="42.9949767" lon="11.6853767"><ele>304.25</ele><time>2026-04-26T13:28:01.293Z</time></trkpt><trkpt lat="42.99485" lon="11.6854733"><ele>304.0</ele><time>2026-04-26T13:28:02.297Z</time></trkpt><trkpt lat="42.994725" lon="11.6855667"><ele>304.0</ele><time>2026-04-26T13:28:03.293Z</time></trkpt><trkpt lat="42.9945983" lon="11.6856667"><ele>304.0</ele><time>2026-04-26T13:28:04.295Z</time></trkpt><trkpt lat="42.994475" lon="11.6857617"><ele>304.0</ele><time>2026-04-26T13:28:05.296Z</time></trkpt><trkpt lat="42.9943483" lon="11.6858567"><ele>304.0</ele><time>2026-04-26T13:28:06.295Z</time></trkpt><trkpt lat="42.994225" lon="11.6859533"><ele>304.25</ele><time>2026-04-26T13:28:07.297Z</time></trkpt><trkpt lat="42.9940967" lon="11.6860467"><ele>304.5</ele><time>2026-04-26T13:28:08.297Z</time></trkpt><trkpt lat="42.9939683" lon="11.6861433"><ele>304.75</ele><time>2026-04-26T13:28:09.295Z</time></trkpt><trkpt lat="42.9938417" lon="11.68624"><ele>305.0</ele><time>2026-04-26T13:28:10.295Z</time></trkpt><trkpt lat="42.9937133" lon="11.6863333"><ele>305.0</ele><time>2026-04-26T13:28:11.293Z</time></trkpt><trkpt lat="42.9935817" lon="11.6864133"><ele>305.0</ele><time>2026-04-26T13:28:12.295Z</time></trkpt><trkpt lat="42.9934517" lon="11.6864817"><ele>305.0</ele><time>2026-04-26T13:28:13.295Z</time></trkpt><trkpt lat="42.9933167" lon="11.686535"><ele>305.0</ele><time>2026-04-26T13:28:14.296Z</time></trkpt><trkpt lat="42.9931783" lon="11.6865767"><ele>305.75</ele><time>2026-04-26T13:28:15.295Z</time></trkpt><trkpt lat="42.9930383" lon="11.6866233"><ele>306.5</ele><time>2026-04-26T13:28:16.296Z</time></trkpt><trkpt lat="42.9928983" lon="11.6866583"><ele>307.25</ele><time>2026-04-26T13:28:17.296Z</time></trkpt><trkpt lat="42.9927533" lon="11.68669"><ele>308.0</ele><time>2026-04-26T13:28:18.292Z</time></trkpt><trkpt lat="42.9926083" lon="11.6867233"><ele>308.75</ele><time>2026-04-26T13:28:19.293Z</time></trkpt><trkpt lat="42.9924633" lon="11.6867583"><ele>309.5</ele><time>2026-04-26T13:28:20.293Z</time></trkpt><trkpt lat="42.9923183" lon="11.6867933"><ele>310.25</ele><time>2026-04-26T13:28:21.292Z</time></trkpt><trkpt lat="42.9921733" lon="11.6868283"><ele>311.0</ele><time>2026-04-26T13:28:22.293Z</time></trkpt><trkpt lat="42.9920333" lon="11.6868617"><ele>311.0</ele><time>2026-04-26T13:28:23.294Z</time></trkpt><trkpt lat="42.991895" lon="11.686895"><ele>311.0</ele><time>2026-04-26T13:28:24.293Z</time></trkpt><trkpt lat="42.9917533" lon="11.6869317"><ele>311.0</ele><time>2026-04-26T13:28:25.292Z</time></trkpt><trkpt lat="42.9916133" lon="11.68697"><ele>311.0</ele><time>2026-04-26T13:28:26.293Z</time></trkpt><trkpt lat="42.9914767" lon="11.6870033"><ele>309.75</ele><time>2026-04-26T13:28:27.292Z</time></trkpt><trkpt lat="42.9913417" lon="11.68703"><ele>308.5</ele><time>2026-04-26T13:28:28.292Z</time></trkpt><trkpt lat="42.9912117" lon="11.6870617"><ele>307.25</ele><time>2026-04-26T13:28:29.299Z</time></trkpt><trkpt lat="42.9910933" lon="11.6871067"><ele>306.0</ele><time>2026-04-26T13:28:30.297Z</time></trkpt><trkpt lat="42.990985" lon="11.6871717"><ele>306.0</ele><time>2026-04-26T13:28:31.296Z</time></trkpt><trkpt lat="42.99089" lon="11.6872667"><ele>306.0</ele><time>2026-04-26T13:28:32.295Z</time></trkpt><trkpt lat="42.9908083" lon="11.6873783"><ele>306.0</ele><time>2026-04-26T13:28:33.295Z</time></trkpt><trkpt lat="42.9907517" lon="11.6875"><ele>306.0</ele><time>2026-04-26T13:28:34.293Z</time></trkpt><trkpt lat="42.9907117" lon="11.6876433"><ele>306.25</ele><time>2026-04-26T13:28:35.295Z</time></trkpt><trkpt lat="42.9907017" lon="11.6878"><ele>306.5</ele><time>2026-04-26T13:28:36.295Z</time></trkpt><trkpt lat="42.9906983" lon="11.6879633"><ele>306.75</ele><time>2026-04-26T13:28:37.296Z</time></trkpt><trkpt lat="42.9906967" lon="11.688125"><ele>307.0</ele><time>2026-04-26T13:28:38.295Z</time></trkpt><trkpt lat="42.990695" lon="11.6882817"><ele>307.0</ele><time>2026-04-26T13:28:39.296Z</time></trkpt><trkpt lat="42.9906917" lon="11.6884283"><ele>307.0</ele><time>2026-04-26T13:28:40.296Z</time></trkpt><trkpt lat="42.99068" lon="11.6885667"><ele>307.0</ele><time>2026-04-26T13:28:41.295Z</time></trkpt><trkpt lat="42.99066" lon="11.6886983"><ele>307.0</ele><time>2026-04-26T13:28:42.296Z</time></trkpt><trkpt lat="42.9906233" lon="11.6888233"><ele>307.0</ele><time>2026-04-26T13:28:43.297Z</time></trkpt><trkpt lat="42.9905733" lon="11.6889383"><ele>307.2</ele><time>2026-04-26T13:28:44.296Z</time></trkpt><trkpt lat="42.9905083" lon="11.6890433"><ele>307.4</ele><time>2026-04-26T13:28:45.296Z</time></trkpt><trkpt lat="42.990435" lon="11.68915"><ele>307.6</ele><time>2026-04-26T13:28:46.296Z</time></trkpt><trkpt lat="42.9903583" lon="11.68925"><ele>307.8</ele><time>2026-04-26T13:28:47.292Z</time></trkpt><trkpt lat="42.99028" lon="11.68935"><ele>308.0</ele><time>2026-04-26T13:28:48.293Z</time></trkpt><trkpt lat="42.9902033" lon="11.6894483"><ele>308.0</ele><time>2026-04-26T13:28:49.293Z</time></trkpt><trkpt lat="42.9901333" lon="11.6895467"><ele>308.0</ele><time>2026-04-26T13:28:50.292Z</time></trkpt><trkpt lat="42.990065" lon="11.6896483"><ele>308.0</ele><time>2026-04-26T13:28:51.294Z</time></trkpt><trkpt lat="42.9899933" lon="11.6897483"><ele>308.0</ele><time>2026-04-26T13:28:52.292Z</time></trkpt><trkpt lat="42.989925" lon="11.6898433"><ele>308.0</ele><time>2026-04-26T13:28:53.293Z</time></trkpt><trkpt lat="42.9898633" lon="11.6899317"><ele>308.33333333333337</ele><time>2026-04-26T13:28:54.292Z</time></trkpt><trkpt lat="42.98981" lon="11.6900033"><ele>308.6666666666667</ele><time>2026-04-26T13:28:55.292Z</time></trkpt><trkpt lat="42.9897567" lon="11.6901167"><ele>309.0</ele><time>2026-04-26T13:28:57.293Z</time></trkpt><trkpt lat="42.9897717" lon="11.6902033"><ele>309.3333333333333</ele><time>2026-04-26T13:29:00.296Z</time></trkpt><trkpt lat="42.989835" lon="11.69025"><ele>309.66666666666663</ele><time>2026-04-26T13:29:03.295Z</time></trkpt><trkpt lat="42.989895" lon="11.690285"><ele>310.0</ele><time>2026-04-26T13:29:06.296Z</time></trkpt><trkpt lat="42.989975" lon="11.69033"><ele>310.16666666666663</ele><time>2026-04-26T13:29:38.295Z</time></trkpt><trkpt lat="42.99004" lon="11.6903633"><ele>310.3333333333333</ele><time>2026-04-26T13:29:41.297Z</time></trkpt><trkpt lat="42.99013" lon="11.690395"><ele>310.5</ele><time>2026-04-26T13:29:50.292Z</time></trkpt><trkpt lat="42.9902417" lon="11.6904333"><ele>310.6666666666667</ele><time>2026-04-26T13:29:52.296Z</time></trkpt><trkpt lat="42.990305" lon="11.6904567"><ele>310.83333333333337</ele><time>2026-04-26T13:29:53.293Z</time></trkpt><trkpt lat="42.990375" lon="11.6904817"><ele>311.0</ele><time>2026-04-26T13:29:54.295Z</time></trkpt><trkpt lat="42.99045" lon="11.6905083"><ele>311.0</ele><time>2026-04-26T13:29:55.295Z</time></trkpt><trkpt lat="42.9905267" lon="11.6905433"><ele>311.0</ele><time>2026-04-26T13:29:56.299Z</time></trkpt><trkpt lat="42.990615" lon="11.6905783"><ele>311.0</ele><time>2026-04-26T13:29:57.296Z</time></trkpt><trkpt lat="42.9907133" lon="11.6906117"><ele>311.0</ele><time>2026-04-26T13:29:58.294Z</time></trkpt><trkpt lat="42.9908183" lon="11.6906433"><ele>311.0</ele><time>2026-04-26T13:29:59.297Z</time></trkpt><trkpt lat="42.9909333" lon="11.6906783"><ele>310.75</ele><time>2026-04-26T13:30:00.296Z</time></trkpt><trkpt lat="42.9910533" lon="11.6907183"><ele>310.5</ele><time>2026-04-26T13:30:01.294Z</time></trkpt><trkpt lat="42.9911767" lon="11.6907617"><ele>310.25</ele><time>2026-04-26T13:30:02.293Z</time></trkpt><trkpt lat="42.9913" lon="11.6908117"><ele>310.0</ele><time>2026-04-26T13:30:03.292Z</time></trkpt><trkpt lat="42.9914267" lon="11.69086"><ele>310.0</ele><time>2026-04-26T13:30:04.293Z</time></trkpt><trkpt lat="42.9915567" lon="11.69091"><ele>310.0</ele><time>2026-04-26T13:30:05.294Z</time></trkpt><trkpt lat="42.991685" lon="11.6909567"><ele>310.0</ele><time>2026-04-26T13:30:06.293Z</time></trkpt><trkpt lat="42.9918183" lon="11.6910083"><ele>310.0</ele><time>2026-04-26T13:30:07.292Z</time></trkpt><trkpt lat="42.9919483" lon="11.69106"><ele>311.25</ele><time>2026-04-26T13:30:08.292Z</time></trkpt><trkpt lat="42.99208" lon="11.69111"><ele>312.5</ele><time>2026-04-26T13:30:09.292Z</time></trkpt><trkpt lat="42.9922133" lon="11.69116"><ele>313.75</ele><time>2026-04-26T13:30:10.295Z</time></trkpt><trkpt lat="42.992345" lon="11.69121"><ele>315.0</ele><time>2026-04-26T13:30:11.296Z</time></trkpt><trkpt lat="42.992475" lon="11.6912583"><ele>313.75</ele><time>2026-04-26T13:30:12.297Z</time></trkpt><trkpt lat="42.9926033" lon="11.6913083"><ele>312.5</ele><time>2026-04-26T13:30:13.296Z</time></trkpt><trkpt lat="42.99273" lon="11.69136"><ele>311.25</ele><time>2026-04-26T13:30:14.295Z</time></trkpt><trkpt lat="42.9928567" lon="11.69141"><ele>310.0</ele><time>2026-04-26T13:30:15.295Z</time></trkpt><trkpt lat="42.992985" lon="11.6914583"><ele>310.0</ele><time>2026-04-26T13:30:16.296Z</time></trkpt><trkpt lat="42.993115" lon="11.6915033"><ele>310.0</ele><time>2026-04-26T13:30:17.295Z</time></trkpt><trkpt lat="42.9932467" lon="11.69155"><ele>310.0</ele><time>2026-04-26T13:30:18.297Z</time></trkpt><trkpt lat="42.993375" lon="11.6916"><ele>310.0</ele><time>2026-04-26T13:30:19.297Z</time></trkpt><trkpt lat="42.9934917" lon="11.6916467"><ele>310.25</ele><time>2026-04-26T13:30:20.296Z</time></trkpt><trkpt lat="42.993605" lon="11.6916967"><ele>310.5</ele><time>2026-04-26T13:30:21.295Z</time></trkpt><trkpt lat="42.99371" lon="11.691755"><ele>310.75</ele><time>2026-04-26T13:30:22.297Z</time></trkpt><trkpt lat="42.9938033" lon="11.6918333"><ele>311.0</ele><time>2026-04-26T13:30:23.296Z</time></trkpt><trkpt lat="42.9938883" lon="11.691935"><ele>311.0</ele><time>2026-04-26T13:30:24.296Z</time></trkpt><trkpt lat="42.993965" lon="11.6920533"><ele>311.0</ele><time>2026-04-26T13:30:25.295Z</time></trkpt><trkpt lat="42.9940367" lon="11.6921867"><ele>311.0</ele><time>2026-04-26T13:30:26.296Z</time></trkpt><trkpt lat="42.9941083" lon="11.6923317"><ele>311.0</ele><time>2026-04-26T13:30:27.297Z</time></trkpt><trkpt lat="42.9941817" lon="11.6924817"><ele>312.75</ele><time>2026-04-26T13:30:28.293Z</time></trkpt><trkpt lat="42.99426" lon="11.6926283"><ele>314.5</ele><time>2026-04-26T13:30:29.294Z</time></trkpt><trkpt lat="42.9943333" lon="11.6927667"><ele>316.25</ele><time>2026-04-26T13:30:30.294Z</time></trkpt><trkpt lat="42.994405" lon="11.69289"><ele>318.0</ele><time>2026-04-26T13:30:31.293Z</time></trkpt><trkpt lat="42.994485" lon="11.692995"><ele>318.0</ele><time>2026-04-26T13:30:32.293Z</time></trkpt><trkpt lat="42.9945717" lon="11.6930833"><ele>318.0</ele><time>2026-04-26T13:30:33.293Z</time></trkpt><trkpt lat="42.9946733" lon="11.693155"><ele>318.0</ele><time>2026-04-26T13:30:34.293Z</time></trkpt><trkpt lat="42.9947817" lon="11.69322"><ele>318.0</ele><time>2026-04-26T13:30:35.294Z</time></trkpt><trkpt lat="42.9948917" lon="11.6932867"><ele>319.75</ele><time>2026-04-26T13:30:36.294Z</time></trkpt><trkpt lat="42.995005" lon="11.6933567"><ele>321.5</ele><time>2026-04-26T13:30:37.294Z</time></trkpt><trkpt lat="42.9951167" lon="11.6934333"><ele>323.25</ele><time>2026-04-26T13:30:38.293Z</time></trkpt><trkpt lat="42.99523" lon="11.69351"><ele>325.0</ele><time>2026-04-26T13:30:39.294Z</time></trkpt><trkpt lat="42.995345" lon="11.6935817"><ele>325.25</ele><time>2026-04-26T13:30:40.293Z</time></trkpt><trkpt lat="42.9954583" lon="11.6936383"><ele>325.5</ele><time>2026-04-26T13:30:41.296Z</time></trkpt><trkpt lat="42.995575" lon="11.6936783"><ele>325.75</ele><time>2026-04-26T13:30:42.297Z</time></trkpt><trkpt lat="42.99569" lon="11.6937083"><ele>326.0</ele><time>2026-04-26T13:30:43.295Z</time></trkpt><trkpt lat="42.9957933" lon="11.693745"><ele>327.0</ele><time>2026-04-26T13:30:44.296Z</time></trkpt><trkpt lat="42.9958833" lon="11.6937967"><ele>328.0</ele><time>2026-04-26T13:30:45.296Z</time></trkpt><trkpt lat="42.9959617" lon="11.6938733"><ele>329.0</ele><time>2026-04-26T13:30:46.298Z</time></trkpt><trkpt lat="42.996025" lon="11.69397"><ele>330.0</ele><time>2026-04-26T13:30:47.297Z</time></trkpt><trkpt lat="42.9960767" lon="11.6940767"><ele>331.0</ele><time>2026-04-26T13:30:48.296Z</time></trkpt><trkpt lat="42.9961233" lon="11.6941867"><ele>331.0</ele><time>2026-04-26T13:30:49.296Z</time></trkpt><trkpt lat="42.9961717" lon="11.694295"><ele>331.0</ele><time>2026-04-26T13:30:50.293Z</time></trkpt><trkpt lat="42.9962217" lon="11.6944017"><ele>331.0</ele><time>2026-04-26T13:30:51.295Z</time></trkpt><trkpt lat="42.99627" lon="11.6944967"><ele>331.0</ele><time>2026-04-26T13:30:52.296Z</time></trkpt><trkpt lat="42.9963167" lon="11.6945667"><ele>331.0</ele><time>2026-04-26T13:30:53.295Z</time></trkpt><trkpt lat="42.9964183" lon="11.6946233"><ele>331.0</ele><time>2026-04-26T13:30:55.297Z</time></trkpt><trkpt lat="42.9965467" lon="11.6945933"><ele>330.66666666666663</ele><time>2026-04-26T13:30:57.296Z</time></trkpt><trkpt lat="42.9966183" lon="11.6945483"><ele>330.3333333333333</ele><time>2026-04-26T13:30:58.294Z</time></trkpt><trkpt lat="42.9966917" lon="11.694495"><ele>330.0</ele><time>2026-04-26T13:30:59.292Z</time></trkpt><trkpt lat="42.99677" lon="11.6944433"><ele>329.6666666666667</ele><time>2026-04-26T13:31:00.293Z</time></trkpt><trkpt lat="42.99685" lon="11.6943883"><ele>329.33333333333337</ele><time>2026-04-26T13:31:01.293Z</time></trkpt><trkpt lat="42.9969333" lon="11.694335"><ele>329.0</ele><time>2026-04-26T13:31:02.293Z</time></trkpt><trkpt lat="42.9970083" lon="11.69428"><ele>328.6</ele><time>2026-04-26T13:31:03.293Z</time></trkpt><trkpt lat="42.9970767" lon="11.6942183"><ele>328.2</ele><time>2026-04-26T13:31:04.293Z</time></trkpt><trkpt lat="42.99714" lon="11.6941483"><ele>327.8</ele><time>2026-04-26T13:31:05.292Z</time></trkpt><trkpt lat="42.9972067" lon="11.6940667"><ele>327.40000000000003</ele><time>2026-04-26T13:31:06.293Z</time></trkpt><trkpt lat="42.9972783" lon="11.6939783"><ele>327.0</ele><time>2026-04-26T13:31:07.293Z</time></trkpt><trkpt lat="42.997355" lon="11.69388"><ele>327.0</ele><time>2026-04-26T13:31:08.294Z</time></trkpt><trkpt lat="42.997435" lon="11.69377"><ele>327.0</ele><time>2026-04-26T13:31:09.296Z</time></trkpt><trkpt lat="42.997515" lon="11.6936583"><ele>327.0</ele><time>2026-04-26T13:31:10.294Z</time></trkpt><trkpt lat="42.9975933" lon="11.693545"><ele>327.0</ele><time>2026-04-26T13:31:11.296Z</time></trkpt><trkpt lat="42.9976717" lon="11.69343"><ele>324.8</ele><time>2026-04-26T13:31:12.295Z</time></trkpt><trkpt lat="42.9977517" lon="11.69332"><ele>322.6</ele><time>2026-04-26T13:31:13.295Z</time></trkpt><trkpt lat="42.9978383" lon="11.6932217"><ele>320.40000000000003</ele><time>2026-04-26T13:31:14.296Z</time></trkpt><trkpt lat="42.9979367" lon="11.69315"><ele>318.20000000000005</ele><time>2026-04-26T13:31:15.295Z</time></trkpt><trkpt lat="42.9980433" lon="11.693115"><ele>316.0</ele><time>2026-04-26T13:31:16.295Z</time></trkpt><trkpt lat="42.9981533" lon="11.693115"><ele>316.0</ele><time>2026-04-26T13:31:17.295Z</time></trkpt><trkpt lat="42.9982617" lon="11.6931383"><ele>316.0</ele><time>2026-04-26T13:31:18.297Z</time></trkpt><trkpt lat="42.9983683" lon="11.6931717"><ele>316.0</ele><time>2026-04-26T13:31:19.295Z</time></trkpt><trkpt lat="42.9984783" lon="11.69321"><ele>316.0</ele><time>2026-04-26T13:31:20.297Z</time></trkpt><trkpt lat="42.998595" lon="11.6932517"><ele>315.75</ele><time>2026-04-26T13:31:21.295Z</time></trkpt><trkpt lat="42.998715" lon="11.6933"><ele>315.5</ele><time>2026-04-26T13:31:22.296Z</time></trkpt><trkpt lat="42.9988333" lon="11.6933567"><ele>315.25</ele><time>2026-04-26T13:31:23.297Z</time></trkpt><trkpt lat="42.9989483" lon="11.6934317"><ele>315.0</ele><time>2026-04-26T13:31:24.296Z</time></trkpt><trkpt lat="42.99906" lon="11.69352"><ele>314.25</ele><time>2026-04-26T13:31:25.294Z</time></trkpt><trkpt lat="42.9991683" lon="11.6936217"><ele>313.5</ele><time>2026-04-26T13:31:26.296Z</time></trkpt><trkpt lat="42.9992683" lon="11.6937283"><ele>312.75</ele><time>2026-04-26T13:31:27.295Z</time></trkpt><trkpt lat="42.99936" lon="11.6938383"><ele>312.0</ele><time>2026-04-26T13:31:28.294Z</time></trkpt><trkpt lat="42.99944" lon="11.6939533"><ele>312.0</ele><time>2026-04-26T13:31:29.293Z</time></trkpt><trkpt lat="42.9995133" lon="11.694065"><ele>312.0</ele><time>2026-04-26T13:31:30.292Z</time></trkpt><trkpt lat="42.99959" lon="11.6941667"><ele>312.0</ele><time>2026-04-26T13:31:31.293Z</time></trkpt><trkpt lat="42.9996733" lon="11.6942483"><ele>312.0</ele><time>2026-04-26T13:31:32.296Z</time></trkpt><trkpt lat="42.99977" lon="11.6943183"><ele>312.0</ele><time>2026-04-26T13:31:33.293Z</time></trkpt><trkpt lat="42.9998783" lon="11.6943733"><ele>310.75</ele><time>2026-04-26T13:31:34.293Z</time></trkpt><trkpt lat="42.9999983" lon="11.6944217"><ele>309.5</ele><time>2026-04-26T13:31:35.293Z</time></trkpt><trkpt lat="43.0001233" lon="11.6944667"><ele>308.25</ele><time>2026-04-26T13:31:36.293Z</time></trkpt><trkpt lat="43.00025" lon="11.6945117"><ele>307.0</ele><time>2026-04-26T13:31:37.295Z</time></trkpt><trkpt lat="43.0003717" lon="11.694555"><ele>307.0</ele><time>2026-04-26T13:31:38.293Z</time></trkpt><trkpt lat="43.0004917" lon="11.6945983"><ele>307.0</ele><time>2026-04-26T13:31:39.293Z</time></trkpt><trkpt lat="43.0006083" lon="11.6946383"><ele>307.0</ele><time>2026-04-26T13:31:40.293Z</time></trkpt><trkpt lat="43.0007267" lon="11.69467"><ele>307.0</ele><time>2026-04-26T13:31:41.298Z</time></trkpt><trkpt lat="43.0008483" lon="11.6946867"><ele>306.25</ele><time>2026-04-26T13:31:42.296Z</time></trkpt><trkpt lat="43.0009733" lon="11.694695"><ele>305.5</ele><time>2026-04-26T13:31:43.295Z</time></trkpt><trkpt lat="43.0011033" lon="11.6946983"><ele>304.75</ele><time>2026-04-26T13:31:44.295Z</time></trkpt><trkpt lat="43.0012333" lon="11.6947017"><ele>304.0</ele><time>2026-04-26T13:31:45.296Z</time></trkpt><trkpt lat="43.0013633" lon="11.6947117"><ele>304.0</ele><time>2026-04-26T13:31:46.296Z</time></trkpt><trkpt lat="43.0014917" lon="11.6947333"><ele>304.0</ele><time>2026-04-26T13:31:47.297Z</time></trkpt><trkpt lat="43.0016183" lon="11.6947683"><ele>304.0</ele><time>2026-04-26T13:31:48.297Z</time></trkpt><trkpt lat="43.001745" lon="11.6948117"><ele>304.0</ele><time>2026-04-26T13:31:49.295Z</time></trkpt><trkpt lat="43.0018667" lon="11.69486"><ele>303.5</ele><time>2026-04-26T13:31:50.297Z</time></trkpt><trkpt lat="43.0019867" lon="11.6949183"><ele>303.0</ele><time>2026-04-26T13:31:51.297Z</time></trkpt><trkpt lat="43.0021" lon="11.69499"><ele>302.5</ele><time>2026-04-26T13:31:52.297Z</time></trkpt><trkpt lat="43.002205" lon="11.6950683"><ele>302.0</ele><time>2026-04-26T13:31:53.296Z</time></trkpt><trkpt lat="43.0023" lon="11.6951583"><ele>302.75</ele><time>2026-04-26T13:31:54.296Z</time></trkpt><trkpt lat="43.002395" lon="11.695255"><ele>303.5</ele><time>2026-04-26T13:31:55.296Z</time></trkpt><trkpt lat="43.0024867" lon="11.6953483"><ele>304.25</ele><time>2026-04-26T13:31:56.296Z</time></trkpt><trkpt lat="43.00258" lon="11.6954367"><ele>305.0</ele><time>2026-04-26T13:31:57.297Z</time></trkpt><trkpt lat="43.002675" lon="11.695525"><ele>306.25</ele><time>2026-04-26T13:31:58.294Z</time></trkpt><trkpt lat="43.0027733" lon="11.69561"><ele>307.5</ele><time>2026-04-26T13:31:59.294Z</time></trkpt><trkpt lat="43.0028767" lon="11.6956833"><ele>308.75</ele><time>2026-04-26T13:32:00.294Z</time></trkpt><trkpt lat="43.0029883" lon="11.6957317"><ele>310.0</ele><time>2026-04-26T13:32:01.295Z</time></trkpt><trkpt lat="43.0031033" lon="11.69575"><ele>310.0</ele><time>2026-04-26T13:32:02.294Z</time></trkpt><trkpt lat="43.0032217" lon="11.6957533"><ele>310.0</ele><time>2026-04-26T13:32:03.293Z</time></trkpt><trkpt lat="43.0033417" lon="11.69575"><ele>310.0</ele><time>2026-04-26T13:32:04.294Z</time></trkpt><trkpt lat="43.0034617" lon="11.695745"><ele>310.0</ele><time>2026-04-26T13:32:05.293Z</time></trkpt><trkpt lat="43.0035833" lon="11.6957367"><ele>311.75</ele><time>2026-04-26T13:32:06.293Z</time></trkpt><trkpt lat="43.0037033" lon="11.6957233"><ele>313.5</ele><time>2026-04-26T13:32:07.295Z</time></trkpt><trkpt lat="43.0038217" lon="11.6957033"><ele>315.25</ele><time>2026-04-26T13:32:08.294Z</time></trkpt><trkpt lat="43.003935" lon="11.6956733"><ele>317.0</ele><time>2026-04-26T13:32:09.293Z</time></trkpt><trkpt lat="43.0040433" lon="11.6956367"><ele>317.0</ele><time>2026-04-26T13:32:10.293Z</time></trkpt><trkpt lat="43.0041433" lon="11.6955983"><ele>317.0</ele><time>2026-04-26T13:32:11.294Z</time></trkpt><trkpt lat="43.00424" lon="11.6955617"><ele>317.0</ele><time>2026-04-26T13:32:12.294Z</time></trkpt><trkpt lat="43.0043383" lon="11.6955267"><ele>317.0</ele><time>2026-04-26T13:32:13.294Z</time></trkpt><trkpt lat="43.0044333" lon="11.6954983"><ele>317.0</ele><time>2026-04-26T13:32:14.294Z</time></trkpt><trkpt lat="43.004525" lon="11.6954833"><ele>317.5</ele><time>2026-04-26T13:32:15.296Z</time></trkpt><trkpt lat="43.0046133" lon="11.6954817"><ele>318.0</ele><time>2026-04-26T13:32:16.297Z</time></trkpt><trkpt lat="43.0046983" lon="11.6954933"><ele>318.5</ele><time>2026-04-26T13:32:17.297Z</time></trkpt><trkpt lat="43.0047833" lon="11.6955233"><ele>319.0</ele><time>2026-04-26T13:32:18.297Z</time></trkpt><trkpt lat="43.00486" lon="11.69556"><ele>319.5</ele><time>2026-04-26T13:32:19.296Z</time></trkpt><trkpt lat="43.0049283" lon="11.6956017"><ele>320.0</ele><time>2026-04-26T13:32:20.296Z</time></trkpt><trkpt lat="43.0049933" lon="11.6956467"><ele>318.8</ele><time>2026-04-26T13:32:21.296Z</time></trkpt><trkpt lat="43.00506" lon="11.6957017"><ele>317.6</ele><time>2026-04-26T13:32:22.296Z</time></trkpt><trkpt lat="43.005135" lon="11.6957633"><ele>316.4</ele><time>2026-04-26T13:32:23.296Z</time></trkpt><trkpt lat="43.005215" lon="11.6958367"><ele>315.2</ele><time>2026-04-26T13:32:24.298Z</time></trkpt><trkpt lat="43.0053017" lon="11.695915"><ele>314.0</ele><time>2026-04-26T13:32:25.299Z</time></trkpt><trkpt lat="43.0053917" lon="11.6959967"><ele>314.0</ele><time>2026-04-26T13:32:26.299Z</time></trkpt><trkpt lat="43.00548" lon="11.6960817"><ele>314.0</ele><time>2026-04-26T13:32:27.297Z</time></trkpt><trkpt lat="43.0055667" lon="11.6961583"><ele>314.0</ele><time>2026-04-26T13:32:28.297Z</time></trkpt><trkpt lat="43.0056567" lon="11.6962283"><ele>314.0</ele><time>2026-04-26T13:32:29.297Z</time></trkpt><trkpt lat="43.0057483" lon="11.6962883"><ele>314.0</ele><time>2026-04-26T13:32:30.297Z</time></trkpt><trkpt lat="43.0058433" lon="11.6963467"><ele>312.59999999999997</ele><time>2026-04-26T13:32:31.296Z</time></trkpt><trkpt lat="43.00594" lon="11.6964017"><ele>311.2</ele><time>2026-04-26T13:32:32.298Z</time></trkpt><trkpt lat="43.006035" lon="11.696455"><ele>309.79999999999995</ele><time>2026-04-26T13:32:33.296Z</time></trkpt><trkpt lat="43.0061283" lon="11.6965"><ele>308.4</ele><time>2026-04-26T13:32:34.297Z</time></trkpt><trkpt lat="43.0062117" lon="11.69654"><ele>307.0</ele><time>2026-04-26T13:32:35.296Z</time></trkpt><trkpt lat="43.006285" lon="11.6965867"><ele>307.0</ele><time>2026-04-26T13:32:36.296Z</time></trkpt><trkpt lat="43.006345" lon="11.6966383"><ele>307.0</ele><time>2026-04-26T13:32:37.295Z</time></trkpt><trkpt lat="43.0064033" lon="11.6967767"><ele>307.0</ele><time>2026-04-26T13:32:39.296Z</time></trkpt><trkpt lat="43.0064183" lon="11.69695"><ele>307.0</ele><time>2026-04-26T13:32:41.295Z</time></trkpt><trkpt lat="43.0064317" lon="11.6970417"><ele>307.0</ele><time>2026-04-26T13:32:42.295Z</time></trkpt><trkpt lat="43.0064467" lon="11.69714"><ele>307.2</ele><time>2026-04-26T13:32:43.297Z</time></trkpt><trkpt lat="43.00647" lon="11.6972517"><ele>307.4</ele><time>2026-04-26T13:32:44.297Z</time></trkpt><trkpt lat="43.006495" lon="11.6973717"><ele>307.6</ele><time>2026-04-26T13:32:45.296Z</time></trkpt><trkpt lat="43.0065233" lon="11.697495"><ele>307.8</ele><time>2026-04-26T13:32:46.295Z</time></trkpt><trkpt lat="43.0065567" lon="11.697625"><ele>308.0</ele><time>2026-04-26T13:32:47.296Z</time></trkpt><trkpt lat="43.0065917" lon="11.6977583"><ele>308.5</ele><time>2026-04-26T13:32:48.296Z</time></trkpt><trkpt lat="43.0066317" lon="11.697895"><ele>309.0</ele><time>2026-04-26T13:32:49.295Z</time></trkpt><trkpt lat="43.0066767" lon="11.698035"><ele>309.5</ele><time>2026-04-26T13:32:50.295Z</time></trkpt><trkpt lat="43.0067283" lon="11.6981783"><ele>310.0</ele><time>2026-04-26T13:32:51.296Z</time></trkpt><trkpt lat="43.0067833" lon="11.6983217"><ele>310.0</ele><time>2026-04-26T13:32:52.295Z</time></trkpt><trkpt lat="43.00684" lon="11.698465"><ele>310.0</ele><time>2026-04-26T13:32:53.295Z</time></trkpt><trkpt lat="43.0068983" lon="11.6986083"><ele>310.0</ele><time>2026-04-26T13:32:54.295Z</time></trkpt><trkpt lat="43.0069567" lon="11.6987533"><ele>310.0</ele><time>2026-04-26T13:32:55.296Z</time></trkpt><trkpt lat="43.007015" lon="11.6989"><ele>310.4</ele><time>2026-04-26T13:32:56.295Z</time></trkpt><trkpt lat="43.0070733" lon="11.6990483"><ele>310.8</ele><time>2026-04-26T13:32:57.301Z</time></trkpt><trkpt lat="43.0071267" lon="11.6991883"><ele>311.2</ele><time>2026-04-26T13:32:58.296Z</time></trkpt><trkpt lat="43.007175" lon="11.6993183"><ele>311.6</ele><time>2026-04-26T13:32:59.295Z</time></trkpt><trkpt lat="43.007205" lon="11.6994433"><ele>312.0</ele><time>2026-04-26T13:33:00.296Z</time></trkpt><trkpt lat="43.007205" lon="11.69957"><ele>312.8</ele><time>2026-04-26T13:33:01.295Z</time></trkpt><trkpt lat="43.0071717" lon="11.6996933"><ele>313.6</ele><time>2026-04-26T13:33:02.295Z</time></trkpt><trkpt lat="43.007105" lon="11.699805"><ele>314.40000000000003</ele><time>2026-04-26T13:33:03.296Z</time></trkpt><trkpt lat="43.0070167" lon="11.6999067"><ele>315.2</ele><time>2026-04-26T13:33:04.296Z</time></trkpt><trkpt lat="43.0069183" lon="11.700005"><ele>316.0</ele><time>2026-04-26T13:33:05.295Z</time></trkpt><trkpt lat="43.0068167" lon="11.7001117"><ele>316.0</ele><time>2026-04-26T13:33:06.297Z</time></trkpt><trkpt lat="43.0067183" lon="11.7002183"><ele>316.0</ele><time>2026-04-26T13:33:07.295Z</time></trkpt><trkpt lat="43.0066217" lon="11.70033"><ele>316.0</ele><time>2026-04-26T13:33:08.3Z</time></trkpt><trkpt lat="43.0065283" lon="11.700435"><ele>316.0</ele><time>2026-04-26T13:33:09.293Z</time></trkpt><trkpt lat="43.006435" lon="11.7005417"><ele>316.75</ele><time>2026-04-26T13:33:10.296Z</time></trkpt><trkpt lat="43.00634" lon="11.7006533"><ele>317.5</ele><time>2026-04-26T13:33:11.295Z</time></trkpt><trkpt lat="43.0062517" lon="11.7007567"><ele>318.25</ele><time>2026-04-26T13:33:12.296Z</time></trkpt><trkpt lat="43.006165" lon="11.7008483"><ele>319.0</ele><time>2026-04-26T13:33:13.295Z</time></trkpt><trkpt lat="43.0060717" lon="11.700925"><ele>319.0</ele><time>2026-04-26T13:33:14.296Z</time></trkpt><trkpt lat="43.0059617" lon="11.7009817"><ele>319.0</ele><time>2026-04-26T13:33:15.296Z</time></trkpt><trkpt lat="43.00584" lon="11.7010233"><ele>319.0</ele><time>2026-04-26T13:33:16.296Z</time></trkpt><trkpt lat="43.0057167" lon="11.701055"><ele>319.0</ele><time>2026-04-26T13:33:17.296Z</time></trkpt><trkpt lat="43.0055983" lon="11.7010867"><ele>318.0</ele><time>2026-04-26T13:33:18.296Z</time></trkpt><trkpt lat="43.0054817" lon="11.701115"><ele>317.0</ele><time>2026-04-26T13:33:19.296Z</time></trkpt><trkpt lat="43.0053633" lon="11.7011533"><ele>316.0</ele><time>2026-04-26T13:33:20.296Z</time></trkpt><trkpt lat="43.005245" lon="11.7012033"><ele>315.0</ele><time>2026-04-26T13:33:21.295Z</time></trkpt><trkpt lat="43.0051283" lon="11.701265"><ele>315.0</ele><time>2026-04-26T13:33:22.295Z</time></trkpt><trkpt lat="43.00502" lon="11.7013367"><ele>315.0</ele><time>2026-04-26T13:33:23.295Z</time></trkpt><trkpt lat="43.004915" lon="11.7014067"><ele>315.0</ele><time>2026-04-26T13:33:24.297Z</time></trkpt><trkpt lat="43.0048117" lon="11.7014817"><ele>315.0</ele><time>2026-04-26T13:33:25.296Z</time></trkpt><trkpt lat="43.00471" lon="11.701565"><ele>315.0</ele><time>2026-04-26T13:33:26.297Z</time></trkpt><trkpt lat="43.0046067" lon="11.701655"><ele>315.0</ele><time>2026-04-26T13:33:27.297Z</time></trkpt><trkpt lat="43.004505" lon="11.701755"><ele>315.0</ele><time>2026-04-26T13:33:28.297Z</time></trkpt><trkpt lat="43.0044017" lon="11.70186"><ele>315.0</ele><time>2026-04-26T13:33:29.295Z</time></trkpt><trkpt lat="43.0043017" lon="11.701965"><ele>315.0</ele><time>2026-04-26T13:33:30.296Z</time></trkpt><trkpt lat="43.0042017" lon="11.7020683"><ele>315.0</ele><time>2026-04-26T13:33:31.295Z</time></trkpt><trkpt lat="43.0041033" lon="11.7021717"><ele>315.0</ele><time>2026-04-26T13:33:32.295Z</time></trkpt><trkpt lat="43.00401" lon="11.70227"><ele>315.0</ele><time>2026-04-26T13:33:33.295Z</time></trkpt><trkpt lat="43.0039317" lon="11.702375"><ele>315.75</ele><time>2026-04-26T13:33:34.296Z</time></trkpt><trkpt lat="43.00387" lon="11.702495"><ele>316.5</ele><time>2026-04-26T13:33:35.296Z</time></trkpt><trkpt lat="43.0038233" lon="11.7026317"><ele>317.25</ele><time>2026-04-26T13:33:36.295Z</time></trkpt><trkpt lat="43.0037933" lon="11.7027833"><ele>318.0</ele><time>2026-04-26T13:33:37.295Z</time></trkpt><trkpt lat="43.0037783" lon="11.7029467"><ele>318.75</ele><time>2026-04-26T13:33:38.292Z</time></trkpt><trkpt lat="43.003765" lon="11.7031117"><ele>319.5</ele><time>2026-04-26T13:33:39.296Z</time></trkpt><trkpt lat="43.0037517" lon="11.7032717"><ele>320.25</ele><time>2026-04-26T13:33:40.295Z</time></trkpt><trkpt lat="43.00374" lon="11.7034333"><ele>321.0</ele><time>2026-04-26T13:33:41.295Z</time></trkpt><trkpt lat="43.003725" lon="11.7035933"><ele>321.5</ele><time>2026-04-26T13:33:42.296Z</time></trkpt><trkpt lat="43.0037083" lon="11.7037517"><ele>322.0</ele><time>2026-04-26T13:33:43.295Z</time></trkpt><trkpt lat="43.003695" lon="11.7039083"><ele>322.5</ele><time>2026-04-26T13:33:44.295Z</time></trkpt><trkpt lat="43.00368" lon="11.7040683"><ele>323.0</ele><time>2026-04-26T13:33:45.295Z</time></trkpt><trkpt lat="43.003665" lon="11.7042283"><ele>323.0</ele><time>2026-04-26T13:33:46.296Z</time></trkpt><trkpt lat="43.0036483" lon="11.70439"><ele>323.0</ele><time>2026-04-26T13:33:47.292Z</time></trkpt><trkpt lat="43.0036317" lon="11.7045533"><ele>323.0</ele><time>2026-04-26T13:33:48.292Z</time></trkpt><trkpt lat="43.003615" lon="11.7047167"><ele>323.0</ele><time>2026-04-26T13:33:49.294Z</time></trkpt><trkpt lat="43.0035967" lon="11.7048817"><ele>323.25</ele><time>2026-04-26T13:33:50.293Z</time></trkpt><trkpt lat="43.00358" lon="11.705045"><ele>323.5</ele><time>2026-04-26T13:33:51.293Z</time></trkpt><trkpt lat="43.003565" lon="11.70521"><ele>323.75</ele><time>2026-04-26T13:33:52.293Z</time></trkpt><trkpt lat="43.0035483" lon="11.7053767"><ele>324.0</ele><time>2026-04-26T13:33:53.292Z</time></trkpt><trkpt lat="43.0035367" lon="11.7055467"><ele>324.5</ele><time>2026-04-26T13:33:54.296Z</time></trkpt><trkpt lat="43.0035233" lon="11.7057133"><ele>325.0</ele><time>2026-04-26T13:33:55.295Z</time></trkpt><trkpt lat="43.0035133" lon="11.7058683"><ele>325.5</ele><time>2026-04-26T13:33:56.295Z</time></trkpt><trkpt lat="43.0035" lon="11.7060183"><ele>326.0</ele><time>2026-04-26T13:33:57.295Z</time></trkpt><trkpt lat="43.0034867" lon="11.706165"><ele>326.0</ele><time>2026-04-26T13:33:58.296Z</time></trkpt><trkpt lat="43.003475" lon="11.7063117"><ele>326.0</ele><time>2026-04-26T13:33:59.295Z</time></trkpt><trkpt lat="43.0034617" lon="11.70646"><ele>326.0</ele><time>2026-04-26T13:34:00.295Z</time></trkpt><trkpt lat="43.003445" lon="11.70661"><ele>326.0</ele><time>2026-04-26T13:34:01.296Z</time></trkpt><trkpt lat="43.00343" lon="11.70676"><ele>326.0</ele><time>2026-04-26T13:34:02.296Z</time></trkpt><trkpt lat="43.003415" lon="11.7069133"><ele>327.0</ele><time>2026-04-26T13:34:03.296Z</time></trkpt><trkpt lat="43.0033983" lon="11.7070717"><ele>328.0</ele><time>2026-04-26T13:34:04.295Z</time></trkpt><trkpt lat="43.00338" lon="11.7072333"><ele>329.0</ele><time>2026-04-26T13:34:05.295Z</time></trkpt><trkpt lat="43.003365" lon="11.707395"><ele>330.0</ele><time>2026-04-26T13:34:06.296Z</time></trkpt><trkpt lat="43.0033533" lon="11.707555"><ele>330.0</ele><time>2026-04-26T13:34:07.295Z</time></trkpt><trkpt lat="43.0033483" lon="11.7077167"><ele>330.0</ele><time>2026-04-26T13:34:08.296Z</time></trkpt><trkpt lat="43.003355" lon="11.7078783"><ele>330.0</ele><time>2026-04-26T13:34:09.296Z</time></trkpt><trkpt lat="43.0033717" lon="11.708045"><ele>330.0</ele><time>2026-04-26T13:34:10.296Z</time></trkpt><trkpt lat="43.0033967" lon="11.70821"><ele>329.5</ele><time>2026-04-26T13:34:11.298Z</time></trkpt><trkpt lat="43.0034267" lon="11.70837"><ele>329.0</ele><time>2026-04-26T13:34:12.295Z</time></trkpt><trkpt lat="43.0034567" lon="11.7085183"><ele>328.5</ele><time>2026-04-26T13:34:13.296Z</time></trkpt><trkpt lat="43.003495" lon="11.7086567"><ele>328.0</ele><time>2026-04-26T13:34:14.295Z</time></trkpt><trkpt lat="43.0035467" lon="11.7087867"><ele>327.5</ele><time>2026-04-26T13:34:15.296Z</time></trkpt><trkpt lat="43.0036133" lon="11.7089033"><ele>327.0</ele><time>2026-04-26T13:34:16.295Z</time></trkpt><trkpt lat="43.0036967" lon="11.7090017"><ele>326.5</ele><time>2026-04-26T13:34:17.292Z</time></trkpt><trkpt lat="43.0037917" lon="11.7090867"><ele>326.0</ele><time>2026-04-26T13:34:18.293Z</time></trkpt><trkpt lat="43.0038967" lon="11.7091683"><ele>326.0</ele><time>2026-04-26T13:34:19.294Z</time></trkpt><trkpt lat="43.004005" lon="11.7092533"><ele>326.0</ele><time>2026-04-26T13:34:20.294Z</time></trkpt><trkpt lat="43.004115" lon="11.70934"><ele>326.0</ele><time>2026-04-26T13:34:21.292Z</time></trkpt><trkpt lat="43.0042233" lon="11.7094317"><ele>326.0</ele><time>2026-04-26T13:34:22.293Z</time></trkpt><trkpt lat="43.0043283" lon="11.70952"><ele>326.75</ele><time>2026-04-26T13:34:23.292Z</time></trkpt><trkpt lat="43.0044317" lon="11.7096067"><ele>327.5</ele><time>2026-04-26T13:34:24.292Z</time></trkpt><trkpt lat="43.0045317" lon="11.7096883"><ele>328.25</ele><time>2026-04-26T13:34:25.295Z</time></trkpt><trkpt lat="43.0046317" lon="11.7097667"><ele>329.0</ele><time>2026-04-26T13:34:26.293Z</time></trkpt><trkpt lat="43.0047283" lon="11.7098417"><ele>329.0</ele><time>2026-04-26T13:34:27.295Z</time></trkpt><trkpt lat="43.0048167" lon="11.70992"><ele>329.0</ele><time>2026-04-26T13:34:28.295Z</time></trkpt><trkpt lat="43.004895" lon="11.7099967"><ele>329.0</ele><time>2026-04-26T13:34:29.296Z</time></trkpt><trkpt lat="43.0049683" lon="11.7100817"><ele>329.0</ele><time>2026-04-26T13:34:30.295Z</time></trkpt><trkpt lat="43.00503" lon="11.7101817"><ele>329.0</ele><time>2026-04-26T13:34:31.295Z</time></trkpt><trkpt lat="43.00508" lon="11.7102983"><ele>330.2</ele><time>2026-04-26T13:34:32.297Z</time></trkpt><trkpt lat="43.0051167" lon="11.710425"><ele>331.4</ele><time>2026-04-26T13:34:33.295Z</time></trkpt><trkpt lat="43.0051317" lon="11.7105533"><ele>332.6</ele><time>2026-04-26T13:34:34.292Z</time></trkpt><trkpt lat="43.005125" lon="11.710685"><ele>333.8</ele><time>2026-04-26T13:34:35.297Z</time></trkpt><trkpt lat="43.0050933" lon="11.7108117"><ele>335.0</ele><time>2026-04-26T13:34:36.296Z</time></trkpt><trkpt lat="43.0050567" lon="11.71093"><ele>335.0</ele><time>2026-04-26T13:34:37.296Z</time></trkpt><trkpt lat="43.0050183" lon="11.7110383"><ele>335.0</ele><time>2026-04-26T13:34:38.298Z</time></trkpt><trkpt lat="43.0049867" lon="11.711145"><ele>335.0</ele><time>2026-04-26T13:34:39.296Z</time></trkpt><trkpt lat="43.00497" lon="11.7112633"><ele>335.0</ele><time>2026-04-26T13:34:40.295Z</time></trkpt><trkpt lat="43.0049633" lon="11.7114067"><ele>335.0</ele><time>2026-04-26T13:34:41.295Z</time></trkpt><trkpt lat="43.0049667" lon="11.7115717"><ele>331.5</ele><time>2026-04-26T13:34:42.295Z</time></trkpt><trkpt lat="43.0049767" lon="11.7117383"><ele>328.0</ele><time>2026-04-26T13:34:43.296Z</time></trkpt><trkpt lat="43.0049767" lon="11.711895"><ele>324.5</ele><time>2026-04-26T13:34:44.295Z</time></trkpt><trkpt lat="43.004965" lon="11.712045"><ele>321.0</ele><time>2026-04-26T13:34:45.296Z</time></trkpt><trkpt lat="43.0049417" lon="11.7121917"><ele>320.5</ele><time>2026-04-26T13:34:46.296Z</time></trkpt><trkpt lat="43.0049033" lon="11.71234"><ele>320.0</ele><time>2026-04-26T13:34:47.293Z</time></trkpt><trkpt lat="43.0048567" lon="11.7125"><ele>319.5</ele><time>2026-04-26T13:34:48.293Z</time></trkpt><trkpt lat="43.0048" lon="11.71267"><ele>319.0</ele><time>2026-04-26T13:34:49.295Z</time></trkpt><trkpt lat="43.0047417" lon="11.7128417"><ele>318.75</ele><time>2026-04-26T13:34:50.293Z</time></trkpt><trkpt lat="43.004685" lon="11.71301"><ele>318.5</ele><time>2026-04-26T13:34:51.293Z</time></trkpt><trkpt lat="43.0046283" lon="11.713175"><ele>318.25</ele><time>2026-04-26T13:34:52.293Z</time></trkpt><trkpt lat="43.0045767" lon="11.713335"><ele>318.0</ele><time>2026-04-26T13:34:53.293Z</time></trkpt><trkpt lat="43.004525" lon="11.7134917"><ele>317.5</ele><time>2026-04-26T13:34:54.296Z</time></trkpt><trkpt lat="43.0044783" lon="11.713645"><ele>317.0</ele><time>2026-04-26T13:34:55.297Z</time></trkpt><trkpt lat="43.0044333" lon="11.7137967"><ele>316.5</ele><time>2026-04-26T13:34:56.296Z</time></trkpt><trkpt lat="43.0043833" lon="11.7139433"><ele>316.0</ele><time>2026-04-26T13:34:57.295Z</time></trkpt><trkpt lat="43.0043367" lon="11.7140817"><ele>316.0</ele><time>2026-04-26T13:34:58.297Z</time></trkpt><trkpt lat="43.0042917" lon="11.7142167"><ele>316.0</ele><time>2026-04-26T13:34:59.296Z</time></trkpt><trkpt lat="43.00425" lon="11.7143483"><ele>316.0</ele><time>2026-04-26T13:35:00.295Z</time></trkpt><trkpt lat="43.0042083" lon="11.71448"><ele>316.0</ele><time>2026-04-26T13:35:01.295Z</time></trkpt><trkpt lat="43.0041683" lon="11.7146133"><ele>316.0</ele><time>2026-04-26T13:35:02.296Z</time></trkpt><trkpt lat="43.0041317" lon="11.7147483"><ele>315.8</ele><time>2026-04-26T13:35:03.296Z</time></trkpt><trkpt lat="43.0041" lon="11.7148833"><ele>315.6</ele><time>2026-04-26T13:35:04.295Z</time></trkpt><trkpt lat="43.0040733" lon="11.715015"><ele>315.4</ele><time>2026-04-26T13:35:05.295Z</time></trkpt><trkpt lat="43.004055" lon="11.7151417"><ele>315.2</ele><time>2026-04-26T13:35:06.297Z</time></trkpt><trkpt lat="43.004045" lon="11.7152617"><ele>315.0</ele><time>2026-04-26T13:35:07.296Z</time></trkpt><trkpt lat="43.004045" lon="11.71538"><ele>315.0</ele><time>2026-04-26T13:35:08.297Z</time></trkpt><trkpt lat="43.0040583" lon="11.71549"><ele>315.0</ele><time>2026-04-26T13:35:09.295Z</time></trkpt><trkpt lat="43.0041" lon="11.7156"><ele>315.0</ele><time>2026-04-26T13:35:10.294Z</time></trkpt><trkpt lat="43.004155" lon="11.715705"><ele>315.0</ele><time>2026-04-26T13:35:11.296Z</time></trkpt><trkpt lat="43.0042233" lon="11.7158117"><ele>315.0</ele><time>2026-04-26T13:35:12.295Z</time></trkpt><trkpt lat="43.0042867" lon="11.715925"><ele>313.75</ele><time>2026-04-26T13:35:13.297Z</time></trkpt><trkpt lat="43.004345" lon="11.716055"><ele>312.5</ele><time>2026-04-26T13:35:14.296Z</time></trkpt><trkpt lat="43.004395" lon="11.71619"><ele>311.25</ele><time>2026-04-26T13:35:15.298Z</time></trkpt><trkpt lat="43.004445" lon="11.7163433"><ele>310.0</ele><time>2026-04-26T13:35:16.296Z</time></trkpt><trkpt lat="43.00449" lon="11.7164983"><ele>310.0</ele><time>2026-04-26T13:35:17.294Z</time></trkpt><trkpt lat="43.004535" lon="11.7166467"><ele>310.0</ele><time>2026-04-26T13:35:18.293Z</time></trkpt><trkpt lat="43.00458" lon="11.7167983"><ele>310.0</ele><time>2026-04-26T13:35:19.294Z</time></trkpt><trkpt lat="43.0046267" lon="11.716955"><ele>310.0</ele><time>2026-04-26T13:35:20.294Z</time></trkpt><trkpt lat="43.0046717" lon="11.7171033"><ele>310.6</ele><time>2026-04-26T13:35:21.293Z</time></trkpt><trkpt lat="43.0047183" lon="11.717245"><ele>311.2</ele><time>2026-04-26T13:35:22.295Z</time></trkpt><trkpt lat="43.0047633" lon="11.7173917"><ele>311.8</ele><time>2026-04-26T13:35:23.294Z</time></trkpt><trkpt lat="43.0047917" lon="11.71754"><ele>312.4</ele><time>2026-04-26T13:35:24.293Z</time></trkpt><trkpt lat="43.0048033" lon="11.7176833"><ele>313.0</ele><time>2026-04-26T13:35:25.297Z</time></trkpt><trkpt lat="43.0048217" lon="11.7178333"><ele>314.0</ele><time>2026-04-26T13:35:26.296Z</time></trkpt><trkpt lat="43.004835" lon="11.7179883"><ele>315.0</ele><time>2026-04-26T13:35:27.297Z</time></trkpt><trkpt lat="43.004845" lon="11.7181433"><ele>316.0</ele><time>2026-04-26T13:35:28.295Z</time></trkpt><trkpt lat="43.00485" lon="11.7182983"><ele>317.0</ele><time>2026-04-26T13:35:29.296Z</time></trkpt><trkpt lat="43.0048533" lon="11.7184483"><ele>319.0</ele><time>2026-04-26T13:35:30.295Z</time></trkpt><trkpt lat="43.00485" lon="11.7185983"><ele>321.0</ele><time>2026-04-26T13:35:31.295Z</time></trkpt><trkpt lat="43.0048367" lon="11.7187617"><ele>323.0</ele><time>2026-04-26T13:35:32.296Z</time></trkpt><trkpt lat="43.0048133" lon="11.71893"><ele>325.0</ele><time>2026-04-26T13:35:33.292Z</time></trkpt><trkpt lat="43.004785" lon="11.7191"><ele>325.0</ele><time>2026-04-26T13:35:34.297Z</time></trkpt><trkpt lat="43.0047517" lon="11.7192683"><ele>325.0</ele><time>2026-04-26T13:35:35.295Z</time></trkpt><trkpt lat="43.004725" lon="11.7194333"><ele>325.0</ele><time>2026-04-26T13:35:36.293Z</time></trkpt><trkpt lat="43.0047" lon="11.7195983"><ele>325.0</ele><time>2026-04-26T13:35:37.297Z</time></trkpt><trkpt lat="43.004675" lon="11.7197633"><ele>326.0</ele><time>2026-04-26T13:35:38.303Z</time></trkpt><trkpt lat="43.0046467" lon="11.7199283"><ele>327.0</ele><time>2026-04-26T13:35:39.297Z</time></trkpt><trkpt lat="43.0046167" lon="11.72009"><ele>328.0</ele><time>2026-04-26T13:35:40.296Z</time></trkpt><trkpt lat="43.004585" lon="11.7202517"><ele>329.0</ele><time>2026-04-26T13:35:41.296Z</time></trkpt><trkpt lat="43.0045567" lon="11.720415"><ele>329.0</ele><time>2026-04-26T13:35:42.296Z</time></trkpt><trkpt lat="43.0045217" lon="11.7205767"><ele>329.0</ele><time>2026-04-26T13:35:43.296Z</time></trkpt><trkpt lat="43.0044867" lon="11.7207383"><ele>329.0</ele><time>2026-04-26T13:35:44.296Z</time></trkpt><trkpt lat="43.0044483" lon="11.7209033"><ele>329.0</ele><time>2026-04-26T13:35:45.296Z</time></trkpt><trkpt lat="43.0044117" lon="11.72107"><ele>328.75</ele><time>2026-04-26T13:35:46.296Z</time></trkpt><trkpt lat="43.0043767" lon="11.7212383"><ele>328.5</ele><time>2026-04-26T13:35:47.296Z</time></trkpt><trkpt lat="43.0043417" lon="11.7214083"><ele>328.25</ele><time>2026-04-26T13:35:48.296Z</time></trkpt><trkpt lat="43.00431" lon="11.721575"><ele>328.0</ele><time>2026-04-26T13:35:49.297Z</time></trkpt><trkpt lat="43.004275" lon="11.7217367"><ele>328.0</ele><time>2026-04-26T13:35:50.296Z</time></trkpt><trkpt lat="43.0042383" lon="11.7218917"><ele>328.0</ele><time>2026-04-26T13:35:51.297Z</time></trkpt><trkpt lat="43.0042067" lon="11.7220417"><ele>328.0</ele><time>2026-04-26T13:35:52.296Z</time></trkpt><trkpt lat="43.0041767" lon="11.7221867"><ele>328.0</ele><time>2026-04-26T13:35:53.295Z</time></trkpt><trkpt lat="43.0041467" lon="11.7223217"><ele>328.0</ele><time>2026-04-26T13:35:54.296Z</time></trkpt><trkpt lat="43.0041317" lon="11.7224417"><ele>328.16666666666663</ele><time>2026-04-26T13:35:55.296Z</time></trkpt><trkpt lat="43.0041217" lon="11.7225567"><ele>328.3333333333333</ele><time>2026-04-26T13:35:56.3Z</time></trkpt><trkpt lat="43.004125" lon="11.722665"><ele>328.5</ele><time>2026-04-26T13:35:57.296Z</time></trkpt><trkpt lat="43.00415" lon="11.7227683"><ele>328.6666666666667</ele><time>2026-04-26T13:35:58.295Z</time></trkpt><trkpt lat="43.0041967" lon="11.7228767"><ele>328.83333333333337</ele><time>2026-04-26T13:35:59.297Z</time></trkpt><trkpt lat="43.00425" lon="11.72298"><ele>329.0</ele><time>2026-04-26T13:36:00.296Z</time></trkpt><trkpt lat="43.0043017" lon="11.7230883"><ele>329.2</ele><time>2026-04-26T13:36:01.296Z</time></trkpt><trkpt lat="43.0043367" lon="11.7232117"><ele>329.4</ele><time>2026-04-26T13:36:02.296Z</time></trkpt><trkpt lat="43.0043617" lon="11.7233383"><ele>329.6</ele><time>2026-04-26T13:36:03.296Z</time></trkpt><trkpt lat="43.004385" lon="11.723465"><ele>329.8</ele><time>2026-04-26T13:36:04.296Z</time></trkpt><trkpt lat="43.004405" lon="11.723595"><ele>330.0</ele><time>2026-04-26T13:36:05.296Z</time></trkpt><trkpt lat="43.0044233" lon="11.723715"><ele>330.0</ele><time>2026-04-26T13:36:06.296Z</time></trkpt><trkpt lat="43.00443" lon="11.72383"><ele>330.0</ele><time>2026-04-26T13:36:07.295Z</time></trkpt><trkpt lat="43.004425" lon="11.7239267"><ele>330.0</ele><time>2026-04-26T13:36:08.297Z</time></trkpt><trkpt lat="43.0043483" lon="11.724035"><ele>330.0</ele><time>2026-04-26T13:36:10.296Z</time></trkpt><trkpt lat="43.0042833" lon="11.7240517"><ele>330.0</ele><time>2026-04-26T13:36:11.297Z</time></trkpt><trkpt lat="43.0042117" lon="11.7240667"><ele>330.0</ele><time>2026-04-26T13:36:12.295Z</time></trkpt><trkpt lat="43.00414" lon="11.7241"><ele>329.0</ele><time>2026-04-26T13:36:13.295Z</time></trkpt><trkpt lat="43.00407" lon="11.724155"><ele>328.0</ele><time>2026-04-26T13:36:14.305Z</time></trkpt><trkpt lat="43.0040017" lon="11.724235"><ele>327.0</ele><time>2026-04-26T13:36:15.295Z</time></trkpt><trkpt lat="43.0039283" lon="11.7243267"><ele>326.0</ele><time>2026-04-26T13:36:16.296Z</time></trkpt><trkpt lat="43.0038583" lon="11.7244217"><ele>325.0</ele><time>2026-04-26T13:36:17.297Z</time></trkpt><trkpt lat="43.0037933" lon="11.7245233"><ele>324.0</ele><time>2026-04-26T13:36:18.296Z</time></trkpt><trkpt lat="43.0037367" lon="11.72463"><ele>323.0</ele><time>2026-04-26T13:36:19.296Z</time></trkpt><trkpt lat="43.0036867" lon="11.7247417"><ele>322.0</ele><time>2026-04-26T13:36:20.297Z</time></trkpt><trkpt lat="43.0036467" lon="11.7248617"><ele>321.0</ele><time>2026-04-26T13:36:21.292Z</time></trkpt><trkpt lat="43.003625" lon="11.7249983"><ele>320.0</ele><time>2026-04-26T13:36:22.297Z</time></trkpt><trkpt lat="43.0036133" lon="11.72514"><ele>319.2</ele><time>2026-04-26T13:36:23.297Z</time></trkpt><trkpt lat="43.0036083" lon="11.7252767"><ele>318.4</ele><time>2026-04-26T13:36:24.296Z</time></trkpt><trkpt lat="43.0036067" lon="11.7254067"><ele>317.6</ele><time>2026-04-26T13:36:25.296Z</time></trkpt><trkpt lat="43.003595" lon="11.7255267"><ele>316.8</ele><time>2026-04-26T13:36:26.296Z</time></trkpt><trkpt lat="43.0035633" lon="11.7256367"><ele>316.0</ele><time>2026-04-26T13:36:27.297Z</time></trkpt><trkpt lat="43.0035167" lon="11.7257267"><ele>316.0</ele><time>2026-04-26T13:36:28.296Z</time></trkpt><trkpt lat="43.003445" lon="11.7257867"><ele>316.0</ele><time>2026-04-26T13:36:29.297Z</time></trkpt><trkpt lat="43.00337" lon="11.7258367"><ele>316.0</ele><time>2026-04-26T13:36:30.295Z</time></trkpt><trkpt lat="43.0032867" lon="11.7258817"><ele>316.0</ele><time>2026-04-26T13:36:31.296Z</time></trkpt><trkpt lat="43.0031933" lon="11.7259233"><ele>316.0</ele><time>2026-04-26T13:36:32.296Z</time></trkpt><trkpt lat="43.0030983" lon="11.7259567"><ele>315.66666666666663</ele><time>2026-04-26T13:36:33.3Z</time></trkpt><trkpt lat="43.003005" lon="11.72599"><ele>315.3333333333333</ele><time>2026-04-26T13:36:34.297Z</time></trkpt><trkpt lat="43.0029183" lon="11.7260267"><ele>315.0</ele><time>2026-04-26T13:36:35.295Z</time></trkpt><trkpt lat="43.0028383" lon="11.7260767"><ele>314.6666666666667</ele><time>2026-04-26T13:36:36.296Z</time></trkpt><trkpt lat="43.0027683" lon="11.7261283"><ele>314.33333333333337</ele><time>2026-04-26T13:36:37.297Z</time></trkpt><trkpt lat="43.0027033" lon="11.7261767"><ele>314.0</ele><time>2026-04-26T13:36:38.296Z</time></trkpt><trkpt lat="43.0026367" lon="11.7262183"><ele>313.71428571428567</ele><time>2026-04-26T13:36:39.297Z</time></trkpt><trkpt lat="43.0025667" lon="11.7262533"><ele>313.42857142857144</ele><time>2026-04-26T13:36:40.296Z</time></trkpt><trkpt lat="43.0024983" lon="11.7262767"><ele>313.1428571428571</ele><time>2026-04-26T13:36:41.296Z</time></trkpt><trkpt lat="43.00243" lon="11.7263067"><ele>312.85714285714283</ele><time>2026-04-26T13:36:42.297Z</time></trkpt><trkpt lat="43.00236" lon="11.7263333"><ele>312.57142857142856</ele><time>2026-04-26T13:36:43.296Z</time></trkpt><trkpt lat="43.0022917" lon="11.7263633"><ele>312.2857142857143</ele><time>2026-04-26T13:36:44.297Z</time></trkpt><trkpt lat="43.0022267" lon="11.7263967"><ele>312.0</ele><time>2026-04-26T13:36:45.297Z</time></trkpt><trkpt lat="43.0021633" lon="11.7264483"><ele>312.0</ele><time>2026-04-26T13:36:46.296Z</time></trkpt><trkpt lat="43.0021083" lon="11.7265117"><ele>312.0</ele><time>2026-04-26T13:36:47.297Z</time></trkpt><trkpt lat="43.0020617" lon="11.7265833"><ele>312.0</ele><time>2026-04-26T13:36:48.292Z</time></trkpt><trkpt lat="43.002025" lon="11.7266617"><ele>312.0</ele><time>2026-04-26T13:36:49.384Z</time></trkpt><trkpt lat="43.0019933" lon="11.7267417"><ele>312.0</ele><time>2026-04-26T13:36:50.293Z</time></trkpt><trkpt lat="43.0019633" lon="11.7268217"><ele>312.0</ele><time>2026-04-26T13:36:51.296Z</time></trkpt><trkpt lat="43.00193" lon="11.726905"><ele>312.0</ele><time>2026-04-26T13:36:52.293Z</time></trkpt><trkpt lat="43.0018967" lon="11.7269883"><ele>312.0</ele><time>2026-04-26T13:36:53.295Z</time></trkpt><trkpt lat="43.0018633" lon="11.727075"><ele>312.0</ele><time>2026-04-26T13:36:54.298Z</time></trkpt><trkpt lat="43.0018267" lon="11.7271617"><ele>312.0</ele><time>2026-04-26T13:36:55.293Z</time></trkpt><trkpt lat="43.0017767" lon="11.72724"><ele>312.0</ele><time>2026-04-26T13:36:56.297Z</time></trkpt><trkpt lat="43.0017167" lon="11.72731"><ele>312.0</ele><time>2026-04-26T13:36:57.296Z</time></trkpt><trkpt lat="43.0016467" lon="11.72737"><ele>312.0</ele><time>2026-04-26T13:36:58.296Z</time></trkpt><trkpt lat="43.0015683" lon="11.727425"><ele>312.3333333333333</ele><time>2026-04-26T13:36:59.296Z</time></trkpt><trkpt lat="43.0014833" lon="11.7274817"><ele>312.6666666666667</ele><time>2026-04-26T13:37:00.296Z</time></trkpt><trkpt lat="43.0014033" lon="11.7275283"><ele>313.0</ele><time>2026-04-26T13:37:01.296Z</time></trkpt><trkpt lat="43.0013267" lon="11.727565"><ele>313.33333333333337</ele><time>2026-04-26T13:37:02.296Z</time></trkpt><trkpt lat="43.0012567" lon="11.7276033"><ele>313.6666666666667</ele><time>2026-04-26T13:37:03.297Z</time></trkpt><trkpt lat="43.0011933" lon="11.72765"><ele>314.0</ele><time>2026-04-26T13:37:04.296Z</time></trkpt><trkpt lat="43.0011417" lon="11.7277033"><ele>314.1666666666667</ele><time>2026-04-26T13:37:05.297Z</time></trkpt><trkpt lat="43.0010783" lon="11.7277733"><ele>314.33333333333337</ele><time>2026-04-26T13:37:07.293Z</time></trkpt><trkpt lat="43.001085" lon="11.7278867"><ele>314.5</ele><time>2026-04-26T13:37:52.295Z</time></trkpt><trkpt lat="43.00114" lon="11.7279433"><ele>314.6666666666667</ele><time>2026-04-26T13:37:54.295Z</time></trkpt><trkpt lat="43.0011967" lon="11.7279883"><ele>314.8333333333333</ele><time>2026-04-26T13:37:56.296Z</time></trkpt><trkpt lat="43.0012683" lon="11.7280433"><ele>315.0</ele><time>2026-04-26T13:37:58.297Z</time></trkpt><trkpt lat="43.0013567" lon="11.72811"><ele>315.0</ele><time>2026-04-26T13:38:00.297Z</time></trkpt><trkpt lat="43.0014533" lon="11.7281767"><ele>315.0</ele><time>2026-04-26T13:38:02.295Z</time></trkpt><trkpt lat="43.00151" lon="11.7282167"><ele>315.0</ele><time>2026-04-26T13:38:03.296Z</time></trkpt><trkpt lat="43.0015717" lon="11.7282633"><ele>315.0</ele><time>2026-04-26T13:38:04.295Z</time></trkpt><trkpt lat="43.00164" lon="11.7283117"><ele>315.0</ele><time>2026-04-26T13:38:05.295Z</time></trkpt><trkpt lat="43.001715" lon="11.7283667"><ele>315.0</ele><time>2026-04-26T13:38:06.298Z</time></trkpt><trkpt lat="43.0017967" lon="11.7284267"><ele>314.75</ele><time>2026-04-26T13:38:07.296Z</time></trkpt><trkpt lat="43.001895" lon="11.7284967"><ele>314.5</ele><time>2026-04-26T13:38:08.295Z</time></trkpt><trkpt lat="43.0020067" lon="11.7285817"><ele>314.25</ele><time>2026-04-26T13:38:09.296Z</time></trkpt><trkpt lat="43.0021333" lon="11.7286783"><ele>314.0</ele><time>2026-04-26T13:38:10.295Z</time></trkpt><trkpt lat="43.00227" lon="11.728785"><ele>313.6666666666667</ele><time>2026-04-26T13:38:11.296Z</time></trkpt><trkpt lat="43.00241" lon="11.7288933"><ele>313.3333333333333</ele><time>2026-04-26T13:38:12.295Z</time></trkpt><trkpt lat="43.00254" lon="11.7289933"><ele>313.0</ele><time>2026-04-26T13:38:13.296Z</time></trkpt><trkpt lat="43.0026617" lon="11.7290867"><ele>312.75</ele><time>2026-04-26T13:38:14.296Z</time></trkpt><trkpt lat="43.0027833" lon="11.72917"><ele>312.5</ele><time>2026-04-26T13:38:15.295Z</time></trkpt><trkpt lat="43.0029067" lon="11.7292517"><ele>312.25</ele><time>2026-04-26T13:38:16.295Z</time></trkpt><trkpt lat="43.0030317" lon="11.7293333"><ele>312.0</ele><time>2026-04-26T13:38:17.292Z</time></trkpt><trkpt lat="43.0031617" lon="11.729415"><ele>312.0</ele><time>2026-04-26T13:38:18.295Z</time></trkpt><trkpt lat="43.0032933" lon="11.729495"><ele>312.0</ele><time>2026-04-26T13:38:19.296Z</time></trkpt><trkpt lat="43.0034283" lon="11.7295717"><ele>312.0</ele><time>2026-04-26T13:38:20.296Z</time></trkpt><trkpt lat="43.0035683" lon="11.729645"><ele>312.0</ele><time>2026-04-26T13:38:21.295Z</time></trkpt><trkpt lat="43.00371" lon="11.729715"><ele>311.3333333333333</ele><time>2026-04-26T13:38:22.292Z</time></trkpt><trkpt lat="43.0038517" lon="11.729785"><ele>310.66666666666663</ele><time>2026-04-26T13:38:23.297Z</time></trkpt><trkpt lat="43.0039967" lon="11.7298567"><ele>310.0</ele><time>2026-04-26T13:38:24.295Z</time></trkpt><trkpt lat="43.0041433" lon="11.7299283"><ele>309.66666666666663</ele><time>2026-04-26T13:38:25.295Z</time></trkpt><trkpt lat="43.0042917" lon="11.7299933"><ele>309.3333333333333</ele><time>2026-04-26T13:38:26.296Z</time></trkpt><trkpt lat="43.0044417" lon="11.73006"><ele>309.0</ele><time>2026-04-26T13:38:27.295Z</time></trkpt><trkpt lat="43.004595" lon="11.7301317"><ele>309.0</ele><time>2026-04-26T13:38:28.295Z</time></trkpt><trkpt lat="43.0047517" lon="11.7302067"><ele>309.0</ele><time>2026-04-26T13:38:29.295Z</time></trkpt><trkpt lat="43.0049167" lon="11.7302833"><ele>309.0</ele><time>2026-04-26T13:38:30.295Z</time></trkpt><trkpt lat="43.005095" lon="11.7303667"><ele>309.3333333333333</ele><time>2026-04-26T13:38:31.295Z</time></trkpt><trkpt lat="43.0052767" lon="11.73046"><ele>309.66666666666663</ele><time>2026-04-26T13:38:32.296Z</time></trkpt><trkpt lat="43.005465" lon="11.7305683"><ele>310.0</ele><time>2026-04-26T13:38:33.292Z</time></trkpt><trkpt lat="43.0056533" lon="11.730695"><ele>310.0</ele><time>2026-04-26T13:38:34.295Z</time></trkpt><trkpt lat="43.005835" lon="11.73084"><ele>310.0</ele><time>2026-04-26T13:38:35.295Z</time></trkpt><trkpt lat="43.00601" lon="11.7310017"><ele>310.0</ele><time>2026-04-26T13:38:36.295Z</time></trkpt><trkpt lat="43.006175" lon="11.7311767"><ele>310.0</ele><time>2026-04-26T13:38:37.296Z</time></trkpt><trkpt lat="43.0063283" lon="11.731365"><ele>310.0</ele><time>2026-04-26T13:38:38.295Z</time></trkpt><trkpt lat="43.0064767" lon="11.731565"><ele>310.0</ele><time>2026-04-26T13:38:39.295Z</time></trkpt><trkpt lat="43.0066117" lon="11.731775"><ele>309.66666666666663</ele><time>2026-04-26T13:38:40.296Z</time></trkpt><trkpt lat="43.0067367" lon="11.7319983"><ele>309.3333333333333</ele><time>2026-04-26T13:38:41.293Z</time></trkpt><trkpt lat="43.00685" lon="11.7322317"><ele>309.0</ele><time>2026-04-26T13:38:42.296Z</time></trkpt><trkpt lat="43.0069517" lon="11.7324733"><ele>310.6666666666667</ele><time>2026-04-26T13:38:43.296Z</time></trkpt><trkpt lat="43.007045" lon="11.7327233"><ele>312.33333333333337</ele><time>2026-04-26T13:38:44.296Z</time></trkpt><trkpt lat="43.0071233" lon="11.7329817"><ele>314.0</ele><time>2026-04-26T13:38:45.295Z</time></trkpt><trkpt lat="43.0071933" lon="11.7332433"><ele>314.0</ele><time>2026-04-26T13:38:46.295Z</time></trkpt><trkpt lat="43.0072517" lon="11.7335117"><ele>314.0</ele><time>2026-04-26T13:38:47.295Z</time></trkpt><trkpt lat="43.007295" lon="11.7337883"><ele>314.0</ele><time>2026-04-26T13:38:48.295Z</time></trkpt><trkpt lat="43.00733" lon="11.7340683"><ele>314.0</ele><time>2026-04-26T13:38:49.295Z</time></trkpt><trkpt lat="43.0073517" lon="11.7343517"><ele>314.0</ele><time>2026-04-26T13:38:50.295Z</time></trkpt><trkpt lat="43.0073633" lon="11.734635"><ele>314.0</ele><time>2026-04-26T13:38:51.293Z</time></trkpt><trkpt lat="43.0073683" lon="11.73492"><ele>314.0</ele><time>2026-04-26T13:38:52.296Z</time></trkpt><trkpt lat="43.0073667" lon="11.7352083"><ele>314.0</ele><time>2026-04-26T13:38:53.295Z</time></trkpt><trkpt lat="43.00736" lon="11.7354983"><ele>314.0</ele><time>2026-04-26T13:38:54.297Z</time></trkpt><trkpt lat="43.0073533" lon="11.7357883"><ele>311.33333333333337</ele><time>2026-04-26T13:38:55.295Z</time></trkpt><trkpt lat="43.0073483" lon="11.7360767"><ele>308.6666666666667</ele><time>2026-04-26T13:38:56.295Z</time></trkpt><trkpt lat="43.007345" lon="11.7363633"><ele>306.0</ele><time>2026-04-26T13:38:57.295Z</time></trkpt><trkpt lat="43.007345" lon="11.7366467"><ele>305.0</ele><time>2026-04-26T13:38:58.296Z</time></trkpt><trkpt lat="43.0073417" lon="11.7369183"><ele>304.0</ele><time>2026-04-26T13:38:59.296Z</time></trkpt><trkpt lat="43.0073383" lon="11.737175"><ele>303.0</ele><time>2026-04-26T13:39:00.295Z</time></trkpt><trkpt lat="43.007335" lon="11.7374183"><ele>303.0</ele><time>2026-04-26T13:39:01.296Z</time></trkpt><trkpt lat="43.00733" lon="11.737655"><ele>303.0</ele><time>2026-04-26T13:39:02.296Z</time></trkpt><trkpt lat="43.0073283" lon="11.7378867"><ele>303.0</ele><time>2026-04-26T13:39:03.296Z</time></trkpt><trkpt lat="43.0073283" lon="11.738115"><ele>302.6666666666667</ele><time>2026-04-26T13:39:04.295Z</time></trkpt><trkpt lat="43.007325" lon="11.7383417"><ele>302.33333333333337</ele><time>2026-04-26T13:39:05.295Z</time></trkpt><trkpt lat="43.0073233" lon="11.738565"><ele>302.0</ele><time>2026-04-26T13:39:06.297Z</time></trkpt><trkpt lat="43.0073233" lon="11.73879"><ele>301.6666666666667</ele><time>2026-04-26T13:39:07.295Z</time></trkpt><trkpt lat="43.0073233" lon="11.73901"><ele>301.3333333333333</ele><time>2026-04-26T13:39:08.295Z</time></trkpt><trkpt lat="43.0073233" lon="11.7392317"><ele>301.0</ele><time>2026-04-26T13:39:09.297Z</time></trkpt><trkpt lat="43.00732" lon="11.739445"><ele>301.0</ele><time>2026-04-26T13:39:10.296Z</time></trkpt><trkpt lat="43.0073183" lon="11.7396517"><ele>301.0</ele><time>2026-04-26T13:39:11.292Z</time></trkpt><trkpt lat="43.007315" lon="11.7398483"><ele>301.0</ele><time>2026-04-26T13:39:12.296Z</time></trkpt><trkpt lat="43.0073117" lon="11.7400317"><ele>301.0</ele><time>2026-04-26T13:39:13.297Z</time></trkpt><trkpt lat="43.0073117" lon="11.7402067"><ele>301.5</ele><time>2026-04-26T13:39:14.297Z</time></trkpt><trkpt lat="43.0073117" lon="11.7403717"><ele>302.0</ele><time>2026-04-26T13:39:15.295Z</time></trkpt><trkpt lat="43.0073117" lon="11.7405283"><ele>302.5</ele><time>2026-04-26T13:39:16.295Z</time></trkpt><trkpt lat="43.0073083" lon="11.7406817"><ele>303.0</ele><time>2026-04-26T13:39:17.295Z</time></trkpt><trkpt lat="43.0073067" lon="11.740835"><ele>303.0</ele><time>2026-04-26T13:39:18.293Z</time></trkpt><trkpt lat="43.0073083" lon="11.7409917"><ele>303.0</ele><time>2026-04-26T13:39:19.293Z</time></trkpt><trkpt lat="43.0073083" lon="11.7411517"><ele>303.0</ele><time>2026-04-26T13:39:20.293Z</time></trkpt><trkpt lat="43.0073117" lon="11.7413133"><ele>303.0</ele><time>2026-04-26T13:39:21.293Z</time></trkpt><trkpt lat="43.0073133" lon="11.7414767"><ele>303.0</ele><time>2026-04-26T13:39:22.293Z</time></trkpt><trkpt lat="43.00731" lon="11.7416433"><ele>303.0</ele><time>2026-04-26T13:39:23.294Z</time></trkpt><trkpt lat="43.007305" lon="11.7418083"><ele>303.0</ele><time>2026-04-26T13:39:24.293Z</time></trkpt><trkpt lat="43.0072933" lon="11.7419717"><ele>303.0</ele><time>2026-04-26T13:39:25.292Z</time></trkpt><trkpt lat="43.0072767" lon="11.7421317"><ele>302.75</ele><time>2026-04-26T13:39:26.293Z</time></trkpt><trkpt lat="43.0072517" lon="11.7422867"><ele>302.5</ele><time>2026-04-26T13:39:27.292Z</time></trkpt><trkpt lat="43.00722" lon="11.74244"><ele>302.25</ele><time>2026-04-26T13:39:28.293Z</time></trkpt><trkpt lat="43.00718" lon="11.7425917"><ele>302.0</ele><time>2026-04-26T13:39:29.297Z</time></trkpt><trkpt lat="43.0071383" lon="11.742745"><ele>302.75</ele><time>2026-04-26T13:39:30.296Z</time></trkpt><trkpt lat="43.0070917" lon="11.742895"><ele>303.5</ele><time>2026-04-26T13:39:31.297Z</time></trkpt><trkpt lat="43.00705" lon="11.7430417"><ele>304.25</ele><time>2026-04-26T13:39:32.297Z</time></trkpt><trkpt lat="43.00701" lon="11.7431817"><ele>305.0</ele><time>2026-04-26T13:39:33.297Z</time></trkpt><trkpt lat="43.0069717" lon="11.7433183"><ele>305.0</ele><time>2026-04-26T13:39:34.296Z</time></trkpt><trkpt lat="43.0069317" lon="11.74345"><ele>305.0</ele><time>2026-04-26T13:39:35.297Z</time></trkpt><trkpt lat="43.006895" lon="11.7435717"><ele>305.0</ele><time>2026-04-26T13:39:36.296Z</time></trkpt><trkpt lat="43.00686" lon="11.7436783"><ele>305.0</ele><time>2026-04-26T13:39:37.296Z</time></trkpt><trkpt lat="43.0068283" lon="11.7437667"><ele>305.0</ele><time>2026-04-26T13:39:38.302Z</time></trkpt><trkpt lat="43.00679" lon="11.7438467"><ele>305.0</ele><time>2026-04-26T13:39:39.296Z</time></trkpt><trkpt lat="43.0067467" lon="11.74391"><ele>304.8</ele><time>2026-04-26T13:39:40.297Z</time></trkpt><trkpt lat="43.0066483" lon="11.7440017"><ele>304.6</ele><time>2026-04-26T13:39:42.296Z</time></trkpt><trkpt lat="43.0065483" lon="11.74407"><ele>304.4</ele><time>2026-04-26T13:39:44.296Z</time></trkpt><trkpt lat="43.0064367" lon="11.7441433"><ele>304.2</ele><time>2026-04-26T13:39:46.296Z</time></trkpt><trkpt lat="43.0063783" lon="11.7441767"><ele>304.0</ele><time>2026-04-26T13:39:47.297Z</time></trkpt><trkpt lat="43.0062633" lon="11.744245"><ele>304.0</ele><time>2026-04-26T13:39:49.293Z</time></trkpt><trkpt lat="43.00615" lon="11.74432"><ele>304.0</ele><time>2026-04-26T13:39:51.293Z</time></trkpt><trkpt lat="43.0060367" lon="11.7443917"><ele>304.0</ele><time>2026-04-26T13:39:53.295Z</time></trkpt><trkpt lat="43.005925" lon="11.744465"><ele>304.0</ele><time>2026-04-26T13:39:55.293Z</time></trkpt><trkpt lat="43.0058683" lon="11.7445033"><ele>304.0</ele><time>2026-04-26T13:39:56.293Z</time></trkpt><trkpt lat="43.0057583" lon="11.74458"><ele>304.0</ele><time>2026-04-26T13:39:58.292Z</time></trkpt><trkpt lat="43.0056533" lon="11.74465"><ele>304.0</ele><time>2026-04-26T13:40:00.295Z</time></trkpt><trkpt lat="43.00555" lon="11.744715"><ele>304.0</ele><time>2026-04-26T13:40:02.296Z</time></trkpt><trkpt lat="43.00547" lon="11.7447733"><ele>304.0</ele><time>2026-04-26T13:40:04.297Z</time></trkpt><trkpt lat="43.005405" lon="11.744825"><ele>304.0</ele><time>2026-04-26T13:40:18.292Z</time></trkpt><trkpt lat="43.0053417" lon="11.7448667"><ele>304.0</ele><time>2026-04-26T13:40:20.295Z</time></trkpt><trkpt lat="43.0052433" lon="11.7449083"><ele>304.0</ele><time>2026-04-26T13:40:22.294Z</time></trkpt><trkpt lat="43.0051817" lon="11.7449383"><ele>304.0</ele><time>2026-04-26T13:40:23.294Z</time></trkpt><trkpt lat="43.005115" lon="11.7449767"><ele>304.0</ele><time>2026-04-26T13:40:24.295Z</time></trkpt><trkpt lat="43.0050417" lon="11.7450233"><ele>304.0</ele><time>2026-04-26T13:40:25.295Z</time></trkpt><trkpt lat="43.0049667" lon="11.7450733"><ele>304.0</ele><time>2026-04-26T13:40:26.295Z</time></trkpt><trkpt lat="43.0048833" lon="11.745125"><ele>304.0</ele><time>2026-04-26T13:40:27.293Z</time></trkpt><trkpt lat="43.004795" lon="11.7451817"><ele>304.0</ele><time>2026-04-26T13:40:28.294Z</time></trkpt><trkpt lat="43.0046967" lon="11.7452433"><ele>304.0</ele><time>2026-04-26T13:40:29.296Z</time></trkpt><trkpt lat="43.0045917" lon="11.7453083"><ele>304.0</ele><time>2026-04-26T13:40:30.301Z</time></trkpt><trkpt lat="43.0044817" lon="11.745375"><ele>304.0</ele><time>2026-04-26T13:40:31.296Z</time></trkpt><trkpt lat="43.0043633" lon="11.7454517"><ele>305.0</ele><time>2026-04-26T13:40:32.296Z</time></trkpt><trkpt lat="43.00424" lon="11.7455317"><ele>306.0</ele><time>2026-04-26T13:40:33.296Z</time></trkpt><trkpt lat="43.004115" lon="11.7456133"><ele>307.0</ele><time>2026-04-26T13:40:34.296Z</time></trkpt><trkpt lat="43.0039917" lon="11.745695"><ele>308.0</ele><time>2026-04-26T13:40:35.296Z</time></trkpt><trkpt lat="43.003865" lon="11.745775"><ele>308.25</ele><time>2026-04-26T13:40:36.297Z</time></trkpt><trkpt lat="43.003735" lon="11.745855"><ele>308.5</ele><time>2026-04-26T13:40:37.296Z</time></trkpt><trkpt lat="43.0035983" lon="11.7459433"><ele>308.75</ele><time>2026-04-26T13:40:38.297Z</time></trkpt><trkpt lat="43.0034583" lon="11.7460283"><ele>309.0</ele><time>2026-04-26T13:40:39.296Z</time></trkpt><trkpt lat="43.0033133" lon="11.7461233"><ele>309.0</ele><time>2026-04-26T13:40:40.297Z</time></trkpt><trkpt lat="43.0031617" lon="11.7462183"><ele>309.0</ele><time>2026-04-26T13:40:41.296Z</time></trkpt><trkpt lat="43.0030117" lon="11.7463183"><ele>309.0</ele><time>2026-04-26T13:40:42.296Z</time></trkpt><trkpt lat="43.0028617" lon="11.7464233"><ele>309.0</ele><time>2026-04-26T13:40:43.296Z</time></trkpt><trkpt lat="43.0027133" lon="11.7465233"><ele>309.0</ele><time>2026-04-26T13:40:44.301Z</time></trkpt><trkpt lat="43.0025617" lon="11.7466133"><ele>309.0</ele><time>2026-04-26T13:40:45.296Z</time></trkpt><trkpt lat="43.00241" lon="11.746705"><ele>308.6666666666667</ele><time>2026-04-26T13:40:46.297Z</time></trkpt><trkpt lat="43.00226" lon="11.7467983"><ele>308.33333333333337</ele><time>2026-04-26T13:40:47.293Z</time></trkpt><trkpt lat="43.0021083" lon="11.74689"><ele>308.0</ele><time>2026-04-26T13:40:48.296Z</time></trkpt><trkpt lat="43.0019583" lon="11.7469817"><ele>309.6666666666667</ele><time>2026-04-26T13:40:49.293Z</time></trkpt><trkpt lat="43.001805" lon="11.7470767"><ele>311.3333333333333</ele><time>2026-04-26T13:40:50.293Z</time></trkpt><trkpt lat="43.0016517" lon="11.74717"><ele>313.0</ele><time>2026-04-26T13:40:51.293Z</time></trkpt><trkpt lat="43.0015" lon="11.7472667"><ele>313.0</ele><time>2026-04-26T13:40:52.293Z</time></trkpt><trkpt lat="43.0013483" lon="11.747365"><ele>313.0</ele><time>2026-04-26T13:40:53.294Z</time></trkpt><trkpt lat="43.0011983" lon="11.74747"><ele>313.0</ele><time>2026-04-26T13:40:54.294Z</time></trkpt><trkpt lat="43.0010533" lon="11.7475733"><ele>313.0</ele><time>2026-04-26T13:40:55.294Z</time></trkpt><trkpt lat="43.000915" lon="11.74768"><ele>313.0</ele><time>2026-04-26T13:40:56.293Z</time></trkpt><trkpt lat="43.0007817" lon="11.7477833"><ele>313.0</ele><time>2026-04-26T13:40:57.294Z</time></trkpt><trkpt lat="43.0006483" lon="11.7478867"><ele>313.66666666666663</ele><time>2026-04-26T13:40:58.293Z</time></trkpt><trkpt lat="43.0005167" lon="11.7479883"><ele>314.3333333333333</ele><time>2026-04-26T13:40:59.296Z</time></trkpt><trkpt lat="43.0003833" lon="11.7480867"><ele>315.0</ele><time>2026-04-26T13:41:00.297Z</time></trkpt><trkpt lat="43.0002517" lon="11.7481817"><ele>315.0</ele><time>2026-04-26T13:41:01.296Z</time></trkpt><trkpt lat="43.00012" lon="11.7482833"><ele>315.0</ele><time>2026-04-26T13:41:02.296Z</time></trkpt><trkpt lat="42.9999867" lon="11.74839"><ele>315.0</ele><time>2026-04-26T13:41:03.297Z</time></trkpt><trkpt lat="42.9998517" lon="11.748495"><ele>315.0</ele><time>2026-04-26T13:41:04.296Z</time></trkpt><trkpt lat="42.9997167" lon="11.7485983"><ele>315.0</ele><time>2026-04-26T13:41:05.296Z</time></trkpt><trkpt lat="42.9995817" lon="11.7487"><ele>315.0</ele><time>2026-04-26T13:41:06.297Z</time></trkpt><trkpt lat="42.9994467" lon="11.748805"><ele>315.0</ele><time>2026-04-26T13:41:07.298Z</time></trkpt><trkpt lat="42.9993133" lon="11.7489083"><ele>315.0</ele><time>2026-04-26T13:41:08.296Z</time></trkpt><trkpt lat="42.9991783" lon="11.749015"><ele>315.0</ele><time>2026-04-26T13:41:09.295Z</time></trkpt><trkpt lat="42.999045" lon="11.7491183"><ele>315.0</ele><time>2026-04-26T13:41:10.296Z</time></trkpt><trkpt lat="42.9989133" lon="11.7492217"><ele>315.0</ele><time>2026-04-26T13:41:11.297Z</time></trkpt><trkpt lat="42.9987883" lon="11.7493233"><ele>315.0</ele><time>2026-04-26T13:41:12.296Z</time></trkpt><trkpt lat="42.998665" lon="11.7494217"><ele>315.0</ele><time>2026-04-26T13:41:13.296Z</time></trkpt><trkpt lat="42.9985417" lon="11.7495133"><ele>315.0</ele><time>2026-04-26T13:41:14.296Z</time></trkpt><trkpt lat="42.998425" lon="11.7496067"><ele>315.0</ele><time>2026-04-26T13:41:15.296Z</time></trkpt><trkpt lat="42.99831" lon="11.749705"><ele>315.0</ele><time>2026-04-26T13:41:16.297Z</time></trkpt><trkpt lat="42.9981967" lon="11.7498067"><ele>315.0</ele><time>2026-04-26T13:41:17.294Z</time></trkpt><trkpt lat="42.998085" lon="11.749915"><ele>315.25</ele><time>2026-04-26T13:41:18.293Z</time></trkpt><trkpt lat="42.997975" lon="11.750025"><ele>315.5</ele><time>2026-04-26T13:41:19.293Z</time></trkpt><trkpt lat="42.9978683" lon="11.7501317"><ele>315.75</ele><time>2026-04-26T13:41:20.293Z</time></trkpt><trkpt lat="42.9977667" lon="11.750225"><ele>316.0</ele><time>2026-04-26T13:41:21.293Z</time></trkpt><trkpt lat="42.9976667" lon="11.7503217"><ele>316.0</ele><time>2026-04-26T13:41:22.293Z</time></trkpt><trkpt lat="42.9975683" lon="11.750415"><ele>316.0</ele><time>2026-04-26T13:41:23.293Z</time></trkpt><trkpt lat="42.99747" lon="11.75051"><ele>316.0</ele><time>2026-04-26T13:41:24.296Z</time></trkpt><trkpt lat="42.9973733" lon="11.7505933"><ele>316.0</ele><time>2026-04-26T13:41:25.295Z</time></trkpt><trkpt lat="42.9972717" lon="11.750675"><ele>316.75</ele><time>2026-04-26T13:41:26.296Z</time></trkpt><trkpt lat="42.9971733" lon="11.75076"><ele>317.5</ele><time>2026-04-26T13:41:27.295Z</time></trkpt><trkpt lat="42.997075" lon="11.7508433"><ele>318.25</ele><time>2026-04-26T13:41:28.296Z</time></trkpt><trkpt lat="42.9969783" lon="11.750935"><ele>319.0</ele><time>2026-04-26T13:41:29.296Z</time></trkpt><trkpt lat="42.9968817" lon="11.75102"><ele>319.5</ele><time>2026-04-26T13:41:30.296Z</time></trkpt><trkpt lat="42.9967817" lon="11.7511067"><ele>320.0</ele><time>2026-04-26T13:41:31.296Z</time></trkpt><trkpt lat="42.9966817" lon="11.7511933"><ele>320.5</ele><time>2026-04-26T13:41:32.295Z</time></trkpt><trkpt lat="42.9965817" lon="11.7512833"><ele>321.0</ele><time>2026-04-26T13:41:33.296Z</time></trkpt><trkpt lat="42.9964833" lon="11.7513733"><ele>321.0</ele><time>2026-04-26T13:41:34.295Z</time></trkpt><trkpt lat="42.996385" lon="11.7514617"><ele>321.0</ele><time>2026-04-26T13:41:35.295Z</time></trkpt><trkpt lat="42.996285" lon="11.75155"><ele>321.0</ele><time>2026-04-26T13:41:36.295Z</time></trkpt><trkpt lat="42.9961867" lon="11.7516433"><ele>321.0</ele><time>2026-04-26T13:41:37.296Z</time></trkpt><trkpt lat="42.99609" lon="11.751735"><ele>321.0</ele><time>2026-04-26T13:41:38.295Z</time></trkpt><trkpt lat="42.9959917" lon="11.7518267"><ele>321.0</ele><time>2026-04-26T13:41:39.296Z</time></trkpt><trkpt lat="42.995895" lon="11.7519183"><ele>321.0</ele><time>2026-04-26T13:41:40.296Z</time></trkpt><trkpt lat="42.9957967" lon="11.75201"><ele>321.0</ele><time>2026-04-26T13:41:41.295Z</time></trkpt><trkpt lat="42.9956983" lon="11.7521017"><ele>321.0</ele><time>2026-04-26T13:41:42.296Z</time></trkpt><trkpt lat="42.9956017" lon="11.752195"><ele>321.0</ele><time>2026-04-26T13:41:43.295Z</time></trkpt><trkpt lat="42.995505" lon="11.7522867"><ele>321.0</ele><time>2026-04-26T13:41:44.298Z</time></trkpt><trkpt lat="42.9954083" lon="11.7523767"><ele>321.0</ele><time>2026-04-26T13:41:45.296Z</time></trkpt><trkpt lat="42.9953117" lon="11.75246"><ele>321.0</ele><time>2026-04-26T13:41:46.296Z</time></trkpt><trkpt lat="42.9952133" lon="11.75254"><ele>321.0</ele><time>2026-04-26T13:41:47.292Z</time></trkpt><trkpt lat="42.995115" lon="11.7526167"><ele>321.0</ele><time>2026-04-26T13:41:48.292Z</time></trkpt><trkpt lat="42.995015" lon="11.75269"><ele>321.0</ele><time>2026-04-26T13:41:49.292Z</time></trkpt><trkpt lat="42.9949133" lon="11.75276"><ele>320.2</ele><time>2026-04-26T13:41:50.293Z</time></trkpt><trkpt lat="42.9948133" lon="11.7528283"><ele>319.40000000000003</ele><time>2026-04-26T13:41:51.292Z</time></trkpt><trkpt lat="42.9947133" lon="11.7528967"><ele>318.6</ele><time>2026-04-26T13:41:52.293Z</time></trkpt><trkpt lat="42.9946167" lon="11.7529633"><ele>317.8</ele><time>2026-04-26T13:41:53.293Z</time></trkpt><trkpt lat="42.9945233" lon="11.753025"><ele>317.0</ele><time>2026-04-26T13:41:54.295Z</time></trkpt><trkpt lat="42.994435" lon="11.7530817"><ele>317.0</ele><time>2026-04-26T13:41:55.296Z</time></trkpt><trkpt lat="42.9943533" lon="11.7531383"><ele>317.0</ele><time>2026-04-26T13:41:56.296Z</time></trkpt><trkpt lat="42.9942767" lon="11.7531917"><ele>317.0</ele><time>2026-04-26T13:41:57.292Z</time></trkpt><trkpt lat="42.99421" lon="11.7532317"><ele>317.0</ele><time>2026-04-26T13:41:58.295Z</time></trkpt><trkpt lat="42.99415" lon="11.7532717"><ele>317.0</ele><time>2026-04-26T13:41:59.296Z</time></trkpt><trkpt lat="42.9940567" lon="11.75333"><ele>317.0</ele><time>2026-04-26T13:42:01.293Z</time></trkpt><trkpt lat="42.9939883" lon="11.7533783"><ele>317.2</ele><time>2026-04-26T13:42:04.296Z</time></trkpt><trkpt lat="42.9938983" lon="11.7534467"><ele>317.4</ele><time>2026-04-26T13:42:33.297Z</time></trkpt><trkpt lat="42.993795" lon="11.7535317"><ele>317.6</ele><time>2026-04-26T13:42:35.296Z</time></trkpt><trkpt lat="42.9937317" lon="11.75359"><ele>317.8</ele><time>2026-04-26T13:42:36.295Z</time></trkpt><trkpt lat="42.9936633" lon="11.7536583"><ele>318.0</ele><time>2026-04-26T13:42:37.295Z</time></trkpt><trkpt lat="42.993595" lon="11.7537317"><ele>318.6</ele><time>2026-04-26T13:42:38.299Z</time></trkpt><trkpt lat="42.9935217" lon="11.7538167"><ele>319.20000000000005</ele><time>2026-04-26T13:42:39.296Z</time></trkpt><trkpt lat="42.9934417" lon="11.7539183"><ele>319.8</ele><time>2026-04-26T13:42:40.297Z</time></trkpt><trkpt lat="42.9933583" lon="11.7540317"><ele>320.40000000000003</ele><time>2026-04-26T13:42:41.295Z</time></trkpt><trkpt lat="42.9932717" lon="11.75415"><ele>321.0</ele><time>2026-04-26T13:42:42.296Z</time></trkpt><trkpt lat="42.9931817" lon="11.7542767"><ele>322.5</ele><time>2026-04-26T13:42:43.295Z</time></trkpt><trkpt lat="42.9930883" lon="11.7544083"><ele>324.0</ele><time>2026-04-26T13:42:44.295Z</time></trkpt><trkpt lat="42.992995" lon="11.7545433"><ele>325.5</ele><time>2026-04-26T13:42:45.295Z</time></trkpt><trkpt lat="42.9929" lon="11.7546833"><ele>327.0</ele><time>2026-04-26T13:42:46.295Z</time></trkpt><trkpt lat="42.9928067" lon="11.7548267"><ele>327.0</ele><time>2026-04-26T13:42:47.296Z</time></trkpt><trkpt lat="42.992715" lon="11.7549783"><ele>327.0</ele><time>2026-04-26T13:42:48.295Z</time></trkpt><trkpt lat="42.99263" lon="11.7551417"><ele>327.0</ele><time>2026-04-26T13:42:49.295Z</time></trkpt><trkpt lat="42.9925533" lon="11.7553167"><ele>327.0</ele><time>2026-04-26T13:42:50.296Z</time></trkpt><trkpt lat="42.99249" lon="11.755505"><ele>327.0</ele><time>2026-04-26T13:42:51.295Z</time></trkpt><trkpt lat="42.9924467" lon="11.7557"><ele>327.0</ele><time>2026-04-26T13:42:52.296Z</time></trkpt><trkpt lat="42.9924217" lon="11.7559033"><ele>327.0</ele><time>2026-04-26T13:42:53.295Z</time></trkpt><trkpt lat="42.9924083" lon="11.7561133"><ele>327.0</ele><time>2026-04-26T13:42:54.295Z</time></trkpt><trkpt lat="42.9924117" lon="11.7563283"><ele>327.0</ele><time>2026-04-26T13:42:55.295Z</time></trkpt><trkpt lat="42.9924267" lon="11.756545"><ele>327.0</ele><time>2026-04-26T13:42:56.299Z</time></trkpt><trkpt lat="42.9924483" lon="11.7567683"><ele>328.6666666666667</ele><time>2026-04-26T13:42:57.295Z</time></trkpt><trkpt lat="42.992475" lon="11.7569917"><ele>330.33333333333337</ele><time>2026-04-26T13:42:58.296Z</time></trkpt><trkpt lat="42.9925067" lon="11.7572017"><ele>332.0</ele><time>2026-04-26T13:42:59.296Z</time></trkpt><trkpt lat="42.99255" lon="11.757395"><ele>332.5</ele><time>2026-04-26T13:43:00.296Z</time></trkpt><trkpt lat="42.9926117" lon="11.7575733"><ele>333.0</ele><time>2026-04-26T13:43:01.296Z</time></trkpt><trkpt lat="42.9926917" lon="11.7577383"><ele>333.5</ele><time>2026-04-26T13:43:02.295Z</time></trkpt><trkpt lat="42.9927733" lon="11.7579017"><ele>334.0</ele><time>2026-04-26T13:43:03.293Z</time></trkpt><trkpt lat="42.99284" lon="11.7580717"><ele>334.0</ele><time>2026-04-26T13:43:04.296Z</time></trkpt><trkpt lat="42.9928867" lon="11.7582533"><ele>334.0</ele><time>2026-04-26T13:43:05.296Z</time></trkpt><trkpt lat="42.9929167" lon="11.7584433"><ele>334.0</ele><time>2026-04-26T13:43:06.295Z</time></trkpt><trkpt lat="42.992925" lon="11.7586417"><ele>334.0</ele><time>2026-04-26T13:43:07.295Z</time></trkpt><trkpt lat="42.99292" lon="11.7588383"><ele>334.5</ele><time>2026-04-26T13:43:08.296Z</time></trkpt><trkpt lat="42.9929067" lon="11.7590367"><ele>335.0</ele><time>2026-04-26T13:43:09.295Z</time></trkpt><trkpt lat="42.9928883" lon="11.7592317"><ele>335.5</ele><time>2026-04-26T13:43:10.297Z</time></trkpt><trkpt lat="42.99287" lon="11.7594267"><ele>336.0</ele><time>2026-04-26T13:43:11.295Z</time></trkpt><trkpt lat="42.99285" lon="11.759615"><ele>337.5</ele><time>2026-04-26T13:43:12.296Z</time></trkpt><trkpt lat="42.9928183" lon="11.7598017"><ele>339.0</ele><time>2026-04-26T13:43:13.296Z</time></trkpt><trkpt lat="42.9927867" lon="11.7599883"><ele>340.5</ele><time>2026-04-26T13:43:14.297Z</time></trkpt><trkpt lat="42.9927533" lon="11.7601717"><ele>342.0</ele><time>2026-04-26T13:43:15.295Z</time></trkpt><trkpt lat="42.992715" lon="11.7603517"><ele>343.75</ele><time>2026-04-26T13:43:16.296Z</time></trkpt><trkpt lat="42.9926767" lon="11.7605283"><ele>345.5</ele><time>2026-04-26T13:43:17.296Z</time></trkpt><trkpt lat="42.9926333" lon="11.7607017"><ele>347.25</ele><time>2026-04-26T13:43:18.296Z</time></trkpt><trkpt lat="42.9925867" lon="11.7608717"><ele>349.0</ele><time>2026-04-26T13:43:19.296Z</time></trkpt><trkpt lat="42.9925383" lon="11.7610367"><ele>349.0</ele><time>2026-04-26T13:43:20.296Z</time></trkpt><trkpt lat="42.9924833" lon="11.7611983"><ele>349.0</ele><time>2026-04-26T13:43:21.295Z</time></trkpt><trkpt lat="42.9924267" lon="11.7613583"><ele>349.0</ele><time>2026-04-26T13:43:22.293Z</time></trkpt><trkpt lat="42.9923633" lon="11.7615183"><ele>349.0</ele><time>2026-04-26T13:43:23.295Z</time></trkpt><trkpt lat="42.9922983" lon="11.7616717"><ele>349.0</ele><time>2026-04-26T13:43:24.296Z</time></trkpt><trkpt lat="42.9922317" lon="11.7618183"><ele>349.0</ele><time>2026-04-26T13:43:25.295Z</time></trkpt><trkpt lat="42.992165" lon="11.7619533"><ele>349.0</ele><time>2026-04-26T13:43:26.293Z</time></trkpt><trkpt lat="42.9920883" lon="11.7620717"><ele>349.0</ele><time>2026-04-26T13:43:27.296Z</time></trkpt><trkpt lat="42.9920067" lon="11.7621667"><ele>349.0</ele><time>2026-04-26T13:43:28.304Z</time></trkpt><trkpt lat="42.99193" lon="11.7622383"><ele>349.0</ele><time>2026-04-26T13:43:29.297Z</time></trkpt><trkpt lat="42.9918667" lon="11.7622967"><ele>349.0</ele><time>2026-04-26T13:43:30.296Z</time></trkpt><trkpt lat="42.9917917" lon="11.7624067"><ele>349.0</ele><time>2026-04-26T13:43:32.295Z</time></trkpt><trkpt lat="42.9917867" lon="11.7625183"><ele>349.0</ele><time>2026-04-26T13:43:34.297Z</time></trkpt><trkpt lat="42.9918267" lon="11.762645"><ele>349.3333333333333</ele><time>2026-04-26T13:43:36.296Z</time></trkpt><trkpt lat="42.991855" lon="11.762735"><ele>349.66666666666663</ele><time>2026-04-26T13:43:37.299Z</time></trkpt><trkpt lat="42.9918833" lon="11.7628367"><ele>350.0</ele><time>2026-04-26T13:43:38.297Z</time></trkpt><trkpt lat="42.9919083" lon="11.76295"><ele>350.3333333333333</ele><time>2026-04-26T13:43:39.296Z</time></trkpt><trkpt lat="42.9919367" lon="11.7630717"><ele>350.6666666666667</ele><time>2026-04-26T13:43:40.296Z</time></trkpt><trkpt lat="42.9919683" lon="11.7632033"><ele>351.0</ele><time>2026-04-26T13:43:41.296Z</time></trkpt><trkpt lat="42.9920067" lon="11.7633417"><ele>351.0</ele><time>2026-04-26T13:43:42.297Z</time></trkpt><trkpt lat="42.9920483" lon="11.7634817"><ele>351.0</ele><time>2026-04-26T13:43:43.301Z</time></trkpt><trkpt lat="42.9920933" lon="11.7636233"><ele>351.0</ele><time>2026-04-26T13:43:44.295Z</time></trkpt><trkpt lat="42.9921367" lon="11.7637633"><ele>351.0</ele><time>2026-04-26T13:43:45.295Z</time></trkpt><trkpt lat="42.9921817" lon="11.763905"><ele>351.0</ele><time>2026-04-26T13:43:46.295Z</time></trkpt><trkpt lat="42.992225" lon="11.7640517"><ele>351.5</ele><time>2026-04-26T13:43:47.296Z</time></trkpt><trkpt lat="42.992265" lon="11.7641983"><ele>352.0</ele><time>2026-04-26T13:43:48.296Z</time></trkpt><trkpt lat="42.9923067" lon="11.7643517"><ele>352.5</ele><time>2026-04-26T13:43:49.296Z</time></trkpt><trkpt lat="42.99235" lon="11.7645033"><ele>353.0</ele><time>2026-04-26T13:43:50.296Z</time></trkpt><trkpt lat="42.9923917" lon="11.7646567"><ele>354.2</ele><time>2026-04-26T13:43:51.292Z</time></trkpt><trkpt lat="42.992435" lon="11.764795"><ele>355.4</ele><time>2026-04-26T13:43:52.292Z</time></trkpt><trkpt lat="42.9924733" lon="11.764915"><ele>356.59999999999997</ele><time>2026-04-26T13:43:53.296Z</time></trkpt><trkpt lat="42.9924983" lon="11.7650217"><ele>357.79999999999995</ele><time>2026-04-26T13:43:54.295Z</time></trkpt><trkpt lat="42.9925117" lon="11.7651133"><ele>359.0</ele><time>2026-04-26T13:43:55.295Z</time></trkpt><trkpt lat="42.9924817" lon="11.76526"><ele>359.83333333333337</ele><time>2026-04-26T13:43:57.294Z</time></trkpt><trkpt lat="42.9924333" lon="11.7653167"><ele>360.6666666666667</ele><time>2026-04-26T13:43:58.296Z</time></trkpt><trkpt lat="42.9923683" lon="11.7653617"><ele>361.5</ele><time>2026-04-26T13:43:59.296Z</time></trkpt><trkpt lat="42.9922917" lon="11.7654083"><ele>362.3333333333333</ele><time>2026-04-26T13:44:00.295Z</time></trkpt><trkpt lat="42.9922033" lon="11.7654567"><ele>363.16666666666663</ele><time>2026-04-26T13:44:01.295Z</time></trkpt><trkpt lat="42.9921033" lon="11.7655"><ele>364.0</ele><time>2026-04-26T13:44:02.296Z</time></trkpt><trkpt lat="42.9919967" lon="11.7655183"><ele>364.0</ele><time>2026-04-26T13:44:03.296Z</time></trkpt><trkpt lat="42.991885" lon="11.7655117"><ele>364.0</ele><time>2026-04-26T13:44:04.296Z</time></trkpt><trkpt lat="42.9917767" lon="11.7654933"><ele>364.0</ele><time>2026-04-26T13:44:05.304Z</time></trkpt><trkpt lat="42.9916733" lon="11.765475"><ele>364.0</ele><time>2026-04-26T13:44:06.296Z</time></trkpt><trkpt lat="42.9915783" lon="11.76546"><ele>364.0</ele><time>2026-04-26T13:44:07.294Z</time></trkpt><trkpt lat="42.99149" lon="11.7654533"><ele>362.79999999999995</ele><time>2026-04-26T13:44:08.296Z</time></trkpt><trkpt lat="42.991405" lon="11.7654583"><ele>361.59999999999997</ele><time>2026-04-26T13:44:09.296Z</time></trkpt><trkpt lat="42.99132" lon="11.7654767"><ele>360.4</ele><time>2026-04-26T13:44:10.293Z</time></trkpt><trkpt lat="42.991235" lon="11.76552"><ele>359.2</ele><time>2026-04-26T13:44:11.296Z</time></trkpt><trkpt lat="42.9911367" lon="11.76559"><ele>358.0</ele><time>2026-04-26T13:44:12.298Z</time></trkpt><trkpt lat="42.9910333" lon="11.7656717"><ele>358.0</ele><time>2026-04-26T13:44:13.295Z</time></trkpt><trkpt lat="42.9909367" lon="11.765755"><ele>358.0</ele><time>2026-04-26T13:44:14.297Z</time></trkpt><trkpt lat="42.990845" lon="11.765845"><ele>358.0</ele><time>2026-04-26T13:44:15.295Z</time></trkpt><trkpt lat="42.99076" lon="11.7659483"><ele>358.0</ele><time>2026-04-26T13:44:16.297Z</time></trkpt><trkpt lat="42.9906817" lon="11.7660717"><ele>356.5</ele><time>2026-04-26T13:44:17.296Z</time></trkpt><trkpt lat="42.9906117" lon="11.7662133"><ele>355.0</ele><time>2026-04-26T13:44:18.296Z</time></trkpt><trkpt lat="42.990545" lon="11.7663733"><ele>353.5</ele><time>2026-04-26T13:44:19.296Z</time></trkpt><trkpt lat="42.9904817" lon="11.7665383"><ele>352.0</ele><time>2026-04-26T13:44:20.297Z</time></trkpt><trkpt lat="42.9904233" lon="11.7667"><ele>352.0</ele><time>2026-04-26T13:44:21.295Z</time></trkpt><trkpt lat="42.9903617" lon="11.7668433"><ele>352.0</ele><time>2026-04-26T13:44:22.295Z</time></trkpt><trkpt lat="42.9902917" lon="11.7669667"><ele>352.0</ele><time>2026-04-26T13:44:23.296Z</time></trkpt><trkpt lat="42.9902083" lon="11.76707"><ele>352.0</ele><time>2026-04-26T13:44:24.295Z</time></trkpt><trkpt lat="42.9901167" lon="11.7671517"><ele>352.0</ele><time>2026-04-26T13:44:25.296Z</time></trkpt><trkpt lat="42.9900117" lon="11.7672133"><ele>352.0</ele><time>2026-04-26T13:44:26.297Z</time></trkpt><trkpt lat="42.9899033" lon="11.767265"><ele>352.0</ele><time>2026-04-26T13:44:27.295Z</time></trkpt><trkpt lat="42.9897933" lon="11.76732"><ele>352.0</ele><time>2026-04-26T13:44:28.293Z</time></trkpt><trkpt lat="42.9896833" lon="11.767375"><ele>349.75</ele><time>2026-04-26T13:44:29.292Z</time></trkpt><trkpt lat="42.9895733" lon="11.7674317"><ele>347.5</ele><time>2026-04-26T13:44:30.292Z</time></trkpt><trkpt lat="42.9894683" lon="11.7674883"><ele>345.25</ele><time>2026-04-26T13:44:31.293Z</time></trkpt><trkpt lat="42.9893617" lon="11.7675433"><ele>343.0</ele><time>2026-04-26T13:44:32.293Z</time></trkpt><trkpt lat="42.9892617" lon="11.7675983"><ele>343.4</ele><time>2026-04-26T13:44:33.295Z</time></trkpt><trkpt lat="42.9891683" lon="11.7676667"><ele>343.79999999999995</ele><time>2026-04-26T13:44:34.292Z</time></trkpt><trkpt lat="42.9890883" lon="11.7677483"><ele>344.2</ele><time>2026-04-26T13:44:35.293Z</time></trkpt><trkpt lat="42.9890167" lon="11.7678483"><ele>344.6</ele><time>2026-04-26T13:44:36.294Z</time></trkpt><trkpt lat="42.9889533" lon="11.7679717"><ele>345.0</ele><time>2026-04-26T13:44:37.294Z</time></trkpt><trkpt lat="42.9888983" lon="11.7681033"><ele>346.4</ele><time>2026-04-26T13:44:38.293Z</time></trkpt><trkpt lat="42.988845" lon="11.76823"><ele>347.8</ele><time>2026-04-26T13:44:39.293Z</time></trkpt><trkpt lat="42.988795" lon="11.768365"><ele>349.20000000000005</ele><time>2026-04-26T13:44:40.292Z</time></trkpt><trkpt lat="42.9887483" lon="11.768495"><ele>350.6</ele><time>2026-04-26T13:44:41.292Z</time></trkpt><trkpt lat="42.9887133" lon="11.768625"><ele>352.0</ele><time>2026-04-26T13:44:42.293Z</time></trkpt><trkpt lat="42.9886967" lon="11.7687483"><ele>352.40000000000003</ele><time>2026-04-26T13:44:43.295Z</time></trkpt><trkpt lat="42.9886967" lon="11.7688633"><ele>352.8</ele><time>2026-04-26T13:44:44.294Z</time></trkpt><trkpt lat="42.9887017" lon="11.7689767"><ele>353.2</ele><time>2026-04-26T13:44:45.296Z</time></trkpt><trkpt lat="42.9887433" lon="11.76911"><ele>353.6</ele><time>2026-04-26T13:44:46.293Z</time></trkpt><trkpt lat="42.988815" lon="11.76927"><ele>354.0</ele><time>2026-04-26T13:44:47.297Z</time></trkpt><trkpt lat="42.988885" lon="11.7694283"><ele>354.75</ele><time>2026-04-26T13:44:48.296Z</time></trkpt><trkpt lat="42.9889467" lon="11.76958"><ele>355.5</ele><time>2026-04-26T13:44:49.295Z</time></trkpt><trkpt lat="42.9889933" lon="11.76973"><ele>356.25</ele><time>2026-04-26T13:44:50.296Z</time></trkpt><trkpt lat="42.989025" lon="11.7698833"><ele>357.0</ele><time>2026-04-26T13:44:51.296Z</time></trkpt><trkpt lat="42.9890533" lon="11.770035"><ele>357.0</ele><time>2026-04-26T13:44:52.297Z</time></trkpt><trkpt lat="42.9890883" lon="11.770185"><ele>357.0</ele><time>2026-04-26T13:44:53.296Z</time></trkpt><trkpt lat="42.9891333" lon="11.7703283"><ele>357.0</ele><time>2026-04-26T13:44:54.292Z</time></trkpt><trkpt lat="42.9891917" lon="11.770465"><ele>357.0</ele><time>2026-04-26T13:44:55.294Z</time></trkpt><trkpt lat="42.9892467" lon="11.7705967"><ele>357.40000000000003</ele><time>2026-04-26T13:44:56.296Z</time></trkpt><trkpt lat="42.9892983" lon="11.7707217"><ele>357.8</ele><time>2026-04-26T13:44:57.295Z</time></trkpt><trkpt lat="42.989335" lon="11.7708533"><ele>358.2</ele><time>2026-04-26T13:44:58.297Z</time></trkpt><trkpt lat="42.989355" lon="11.7709967"><ele>358.6</ele><time>2026-04-26T13:44:59.295Z</time></trkpt><trkpt lat="42.989365" lon="11.7711483"><ele>359.0</ele><time>2026-04-26T13:45:00.295Z</time></trkpt><trkpt lat="42.9893733" lon="11.7713067"><ele>359.0</ele><time>2026-04-26T13:45:01.299Z</time></trkpt><trkpt lat="42.989375" lon="11.771465"><ele>359.0</ele><time>2026-04-26T13:45:02.296Z</time></trkpt><trkpt lat="42.9893683" lon="11.7716117"><ele>359.0</ele><time>2026-04-26T13:45:03.297Z</time></trkpt><trkpt lat="42.9893533" lon="11.7717467"><ele>359.0</ele><time>2026-04-26T13:45:04.296Z</time></trkpt><trkpt lat="42.9893217" lon="11.7718717"><ele>359.0</ele><time>2026-04-26T13:45:05.296Z</time></trkpt><trkpt lat="42.98927" lon="11.771985"><ele>360.4</ele><time>2026-04-26T13:45:06.297Z</time></trkpt><trkpt lat="42.989195" lon="11.77208"><ele>361.79999999999995</ele><time>2026-04-26T13:45:07.295Z</time></trkpt><trkpt lat="42.9891033" lon="11.7721517"><ele>363.20000000000005</ele><time>2026-04-26T13:45:08.297Z</time></trkpt><trkpt lat="42.9889983" lon="11.7722033"><ele>364.6</ele><time>2026-04-26T13:45:09.296Z</time></trkpt><trkpt lat="42.9888817" lon="11.77224"><ele>366.0</ele><time>2026-04-26T13:45:10.296Z</time></trkpt><trkpt lat="42.98876" lon="11.77227"><ele>366.0</ele><time>2026-04-26T13:45:11.296Z</time></trkpt><trkpt lat="42.988635" lon="11.7722983"><ele>366.0</ele><time>2026-04-26T13:45:12.296Z</time></trkpt><trkpt lat="42.98851" lon="11.7723167"><ele>366.0</ele><time>2026-04-26T13:45:13.297Z</time></trkpt><trkpt lat="42.98839" lon="11.7723267"><ele>366.0</ele><time>2026-04-26T13:45:14.297Z</time></trkpt><trkpt lat="42.9882833" lon="11.77233"><ele>365.20000000000005</ele><time>2026-04-26T13:45:15.295Z</time></trkpt><trkpt lat="42.988195" lon="11.7723133"><ele>364.40000000000003</ele><time>2026-04-26T13:45:16.297Z</time></trkpt><trkpt lat="42.9881217" lon="11.7723"><ele>363.6</ele><time>2026-04-26T13:45:17.296Z</time></trkpt><trkpt lat="42.988005" lon="11.772325"><ele>362.8</ele><time>2026-04-26T13:45:19.295Z</time></trkpt><trkpt lat="42.9879267" lon="11.772405"><ele>362.0</ele><time>2026-04-26T13:45:21.297Z</time></trkpt><trkpt lat="42.98793" lon="11.7725717"><ele>362.0</ele><time>2026-04-26T13:45:23.297Z</time></trkpt><trkpt lat="42.987945" lon="11.7726883"><ele>362.0</ele><time>2026-04-26T13:45:24.295Z</time></trkpt><trkpt lat="42.9879617" lon="11.77282"><ele>362.0</ele><time>2026-04-26T13:45:25.296Z</time></trkpt><trkpt lat="42.9879667" lon="11.7729483"><ele>362.0</ele><time>2026-04-26T13:45:26.297Z</time></trkpt><trkpt lat="42.9879833" lon="11.7730783"><ele>362.0</ele><time>2026-04-26T13:45:27.296Z</time></trkpt><trkpt lat="42.988005" lon="11.773205"><ele>363.40000000000003</ele><time>2026-04-26T13:45:28.297Z</time></trkpt><trkpt lat="42.9880417" lon="11.773335"><ele>364.8</ele><time>2026-04-26T13:45:29.293Z</time></trkpt><trkpt lat="42.9880867" lon="11.7734667"><ele>366.2</ele><time>2026-04-26T13:45:30.296Z</time></trkpt><trkpt lat="42.98813" lon="11.7735983"><ele>367.6</ele><time>2026-04-26T13:45:31.297Z</time></trkpt><trkpt lat="42.9881767" lon="11.773725"><ele>369.0</ele><time>2026-04-26T13:45:32.298Z</time></trkpt><trkpt lat="42.9882233" lon="11.77385"><ele>370.4</ele><time>2026-04-26T13:45:33.296Z</time></trkpt><trkpt lat="42.9882767" lon="11.7739683"><ele>371.79999999999995</ele><time>2026-04-26T13:45:34.296Z</time></trkpt><trkpt lat="42.9883317" lon="11.77408"><ele>373.20000000000005</ele><time>2026-04-26T13:45:35.296Z</time></trkpt><trkpt lat="42.9883867" lon="11.77418"><ele>374.6</ele><time>2026-04-26T13:45:36.297Z</time></trkpt><trkpt lat="42.988445" lon="11.7742667"><ele>376.0</ele><time>2026-04-26T13:45:37.297Z</time></trkpt><trkpt lat="42.9885183" lon="11.7743233"><ele>378.4</ele><time>2026-04-26T13:45:38.297Z</time></trkpt><trkpt lat="42.9886033" lon="11.7743533"><ele>380.8</ele><time>2026-04-26T13:45:39.296Z</time></trkpt><trkpt lat="42.9886983" lon="11.774365"><ele>383.2</ele><time>2026-04-26T13:45:40.304Z</time></trkpt><trkpt lat="42.9887917" lon="11.7743733"><ele>385.59999999999997</ele><time>2026-04-26T13:45:41.295Z</time></trkpt><trkpt lat="42.9888883" lon="11.7743833"><ele>388.0</ele><time>2026-04-26T13:45:42.296Z</time></trkpt><trkpt lat="42.988985" lon="11.7744017"><ele>388.4</ele><time>2026-04-26T13:45:43.297Z</time></trkpt><trkpt lat="42.9890717" lon="11.7744367"><ele>388.79999999999995</ele><time>2026-04-26T13:45:44.297Z</time></trkpt><trkpt lat="42.9891433" lon="11.774495"><ele>389.2</ele><time>2026-04-26T13:45:45.297Z</time></trkpt><trkpt lat="42.9892067" lon="11.7745833"><ele>389.6</ele><time>2026-04-26T13:45:46.297Z</time></trkpt><trkpt lat="42.9892433" lon="11.774705"><ele>390.0</ele><time>2026-04-26T13:45:47.293Z</time></trkpt><trkpt lat="42.989275" lon="11.7748233"><ele>391.8</ele><time>2026-04-26T13:45:48.294Z</time></trkpt><trkpt lat="42.9893117" lon="11.7749417"><ele>393.6</ele><time>2026-04-26T13:45:49.295Z</time></trkpt><trkpt lat="42.98936" lon="11.77505"><ele>395.4</ele><time>2026-04-26T13:45:50.295Z</time></trkpt><trkpt lat="42.9894167" lon="11.7751467"><ele>397.2</ele><time>2026-04-26T13:45:51.295Z</time></trkpt><trkpt lat="42.9894733" lon="11.7752367"><ele>399.0</ele><time>2026-04-26T13:45:52.294Z</time></trkpt><trkpt lat="42.9895283" lon="11.7753267"><ele>399.0</ele><time>2026-04-26T13:45:53.298Z</time></trkpt><trkpt lat="42.98958" lon="11.775425"><ele>399.0</ele><time>2026-04-26T13:45:54.294Z</time></trkpt><trkpt lat="42.98963" lon="11.775525"><ele>399.0</ele><time>2026-04-26T13:45:55.296Z</time></trkpt><trkpt lat="42.9896833" lon="11.775625"><ele>399.0</ele><time>2026-04-26T13:45:56.296Z</time></trkpt><trkpt lat="42.9897467" lon="11.7757133"><ele>399.0</ele><time>2026-04-26T13:45:57.297Z</time></trkpt><trkpt lat="42.9898183" lon="11.7757917"><ele>399.0</ele><time>2026-04-26T13:45:58.296Z</time></trkpt><trkpt lat="42.9898967" lon="11.775855"><ele>399.0</ele><time>2026-04-26T13:45:59.296Z</time></trkpt><trkpt lat="42.9899817" lon="11.77591"><ele>399.0</ele><time>2026-04-26T13:46:00.295Z</time></trkpt><trkpt lat="42.9900633" lon="11.7759533"><ele>399.0</ele><time>2026-04-26T13:46:01.295Z</time></trkpt><trkpt lat="42.99015" lon="11.775985"><ele>399.0</ele><time>2026-04-26T13:46:02.294Z</time></trkpt><trkpt lat="42.9902367" lon="11.7760183"><ele>398.6</ele><time>2026-04-26T13:46:03.295Z</time></trkpt><trkpt lat="42.9903117" lon="11.77607"><ele>398.2</ele><time>2026-04-26T13:46:04.295Z</time></trkpt><trkpt lat="42.9903717" lon="11.7761533"><ele>397.8</ele><time>2026-04-26T13:46:05.296Z</time></trkpt><trkpt lat="42.99042" lon="11.7762667"><ele>397.40000000000003</ele><time>2026-04-26T13:46:06.295Z</time></trkpt><trkpt lat="42.9904483" lon="11.7764083"><ele>397.0</ele><time>2026-04-26T13:46:07.295Z</time></trkpt><trkpt lat="42.9904817" lon="11.7765383"><ele>397.0</ele><time>2026-04-26T13:46:08.296Z</time></trkpt><trkpt lat="42.9905183" lon="11.7766633"><ele>397.0</ele><time>2026-04-26T13:46:09.296Z</time></trkpt><trkpt lat="42.9905517" lon="11.7767883"><ele>397.0</ele><time>2026-04-26T13:46:10.298Z</time></trkpt><trkpt lat="42.990585" lon="11.7769183"><ele>397.0</ele><time>2026-04-26T13:46:11.295Z</time></trkpt><trkpt lat="42.9906233" lon="11.777055"><ele>397.0</ele><time>2026-04-26T13:46:12.295Z</time></trkpt><trkpt lat="42.990665" lon="11.7771983"><ele>398.5</ele><time>2026-04-26T13:46:13.295Z</time></trkpt><trkpt lat="42.990705" lon="11.7773483"><ele>400.0</ele><time>2026-04-26T13:46:14.296Z</time></trkpt><trkpt lat="42.9907467" lon="11.7775033"><ele>401.5</ele><time>2026-04-26T13:46:15.295Z</time></trkpt><trkpt lat="42.9907833" lon="11.7776617"><ele>403.0</ele><time>2026-04-26T13:46:16.296Z</time></trkpt><trkpt lat="42.9908183" lon="11.77782"><ele>402.0</ele><time>2026-04-26T13:46:17.292Z</time></trkpt><trkpt lat="42.99085" lon="11.777975"><ele>401.0</ele><time>2026-04-26T13:46:18.292Z</time></trkpt><trkpt lat="42.99088" lon="11.7781283"><ele>400.0</ele><time>2026-04-26T13:46:19.293Z</time></trkpt><trkpt lat="42.9909033" lon="11.77828"><ele>399.0</ele><time>2026-04-26T13:46:20.292Z</time></trkpt><trkpt lat="42.9909217" lon="11.7784317"><ele>402.0</ele><time>2026-04-26T13:46:21.293Z</time></trkpt><trkpt lat="42.990935" lon="11.7785833"><ele>405.0</ele><time>2026-04-26T13:46:22.293Z</time></trkpt><trkpt lat="42.9909433" lon="11.7787367"><ele>408.0</ele><time>2026-04-26T13:46:23.292Z</time></trkpt><trkpt lat="42.9909417" lon="11.7788933"><ele>411.0</ele><time>2026-04-26T13:46:24.296Z</time></trkpt><trkpt lat="42.9909383" lon="11.77905"><ele>411.0</ele><time>2026-04-26T13:46:25.296Z</time></trkpt><trkpt lat="42.9909367" lon="11.7792067"><ele>411.0</ele><time>2026-04-26T13:46:26.293Z</time></trkpt><trkpt lat="42.990935" lon="11.779365"><ele>411.0</ele><time>2026-04-26T13:46:27.295Z</time></trkpt><trkpt lat="42.990935" lon="11.7795233"><ele>411.0</ele><time>2026-04-26T13:46:28.295Z</time></trkpt><trkpt lat="42.9909317" lon="11.77968"><ele>412.8</ele><time>2026-04-26T13:46:29.295Z</time></trkpt><trkpt lat="42.9909333" lon="11.7798317"><ele>414.6</ele><time>2026-04-26T13:46:30.296Z</time></trkpt><trkpt lat="42.9909383" lon="11.779985"><ele>416.4</ele><time>2026-04-26T13:46:31.295Z</time></trkpt><trkpt lat="42.9909483" lon="11.780135"><ele>418.2</ele><time>2026-04-26T13:46:32.296Z</time></trkpt><trkpt lat="42.9909617" lon="11.780285"><ele>420.0</ele><time>2026-04-26T13:46:33.296Z</time></trkpt><trkpt lat="42.990975" lon="11.78043"><ele>422.4</ele><time>2026-04-26T13:46:34.295Z</time></trkpt><trkpt lat="42.9909983" lon="11.7805683"><ele>424.8</ele><time>2026-04-26T13:46:35.296Z</time></trkpt><trkpt lat="42.99102" lon="11.7806983"><ele>427.20000000000005</ele><time>2026-04-26T13:46:36.296Z</time></trkpt><trkpt lat="42.9910417" lon="11.7808167"><ele>429.6</ele><time>2026-04-26T13:46:37.296Z</time></trkpt><trkpt lat="42.9910583" lon="11.7809167"><ele>432.0</ele><time>2026-04-26T13:46:38.295Z</time></trkpt><trkpt lat="42.9911017" lon="11.7810717"><ele>433.5</ele><time>2026-04-26T13:46:40.295Z</time></trkpt><trkpt lat="42.9911933" lon="11.7811783"><ele>435.0</ele><time>2026-04-26T13:46:42.296Z</time></trkpt><trkpt lat="42.991255" lon="11.7812033"><ele>436.5</ele><time>2026-04-26T13:46:43.295Z</time></trkpt><trkpt lat="42.9913283" lon="11.7812067"><ele>438.0</ele><time>2026-04-26T13:46:44.295Z</time></trkpt><trkpt lat="42.9913967" lon="11.78122"><ele>439.5</ele><time>2026-04-26T13:46:45.296Z</time></trkpt><trkpt lat="42.9914633" lon="11.7812583"><ele>441.0</ele><time>2026-04-26T13:46:46.295Z</time></trkpt><trkpt lat="42.9915117" lon="11.781325"><ele>441.0</ele><time>2026-04-26T13:46:47.292Z</time></trkpt><trkpt lat="42.9915433" lon="11.78141"><ele>441.0</ele><time>2026-04-26T13:46:48.295Z</time></trkpt><trkpt lat="42.9915667" lon="11.7815083"><ele>441.0</ele><time>2026-04-26T13:46:49.294Z</time></trkpt><trkpt lat="42.9915867" lon="11.78162"><ele>441.0</ele><time>2026-04-26T13:46:50.293Z</time></trkpt><trkpt lat="42.9916117" lon="11.78173"><ele>441.0</ele><time>2026-04-26T13:46:51.293Z</time></trkpt><trkpt lat="42.9916433" lon="11.781835"><ele>441.0</ele><time>2026-04-26T13:46:52.293Z</time></trkpt><trkpt lat="42.9916917" lon="11.78194"><ele>443.0</ele><time>2026-04-26T13:46:53.294Z</time></trkpt><trkpt lat="42.9917517" lon="11.7820383"><ele>445.0</ele><time>2026-04-26T13:46:54.295Z</time></trkpt><trkpt lat="42.9918133" lon="11.7821333"><ele>447.0</ele><time>2026-04-26T13:46:55.295Z</time></trkpt><trkpt lat="42.9918767" lon="11.7822233"><ele>449.0</ele><time>2026-04-26T13:46:56.296Z</time></trkpt><trkpt lat="42.9919417" lon="11.78231"><ele>451.0</ele><time>2026-04-26T13:46:57.295Z</time></trkpt><trkpt lat="42.992005" lon="11.7823917"><ele>451.00000000000006</ele><time>2026-04-26T13:46:58.295Z</time></trkpt><trkpt lat="42.9920667" lon="11.7824733"><ele>451.0</ele><time>2026-04-26T13:46:59.295Z</time></trkpt><trkpt lat="42.9921217" lon="11.7825583"><ele>451.0</ele><time>2026-04-26T13:47:00.295Z</time></trkpt><trkpt lat="42.99217" lon="11.7826467"><ele>451.0</ele><time>2026-04-26T13:47:01.296Z</time></trkpt><trkpt lat="42.9922117" lon="11.7827433"><ele>451.00000000000006</ele><time>2026-04-26T13:47:02.295Z</time></trkpt><trkpt lat="42.992245" lon="11.7828433"><ele>451.0</ele><time>2026-04-26T13:47:03.296Z</time></trkpt><trkpt lat="42.9922783" lon="11.7829467"><ele>451.50000000000006</ele><time>2026-04-26T13:47:04.295Z</time></trkpt><trkpt lat="42.99232" lon="11.7830433"><ele>452.0</ele><time>2026-04-26T13:47:05.295Z</time></trkpt><trkpt lat="42.9923633" lon="11.78314"><ele>452.5</ele><time>2026-04-26T13:47:06.296Z</time></trkpt><trkpt lat="42.9924117" lon="11.7832383"><ele>453.0</ele><time>2026-04-26T13:47:07.295Z</time></trkpt><trkpt lat="42.9924633" lon="11.7833283"><ele>453.50000000000006</ele><time>2026-04-26T13:47:08.296Z</time></trkpt><trkpt lat="42.9925167" lon="11.7834233"><ele>454.0</ele><time>2026-04-26T13:47:09.293Z</time></trkpt><trkpt lat="42.9925717" lon="11.7835233"><ele>455.2</ele><time>2026-04-26T13:47:10.296Z</time></trkpt><trkpt lat="42.9926317" lon="11.7836283"><ele>456.4</ele><time>2026-04-26T13:47:11.296Z</time></trkpt><trkpt lat="42.9926967" lon="11.783735"><ele>457.6</ele><time>2026-04-26T13:47:12.296Z</time></trkpt><trkpt lat="42.9927633" lon="11.7838433"><ele>458.8</ele><time>2026-04-26T13:47:13.293Z</time></trkpt><trkpt lat="42.99283" lon="11.7839567"><ele>460.0</ele><time>2026-04-26T13:47:14.293Z</time></trkpt><trkpt lat="42.9928983" lon="11.7840667"><ele>460.0</ele><time>2026-04-26T13:47:15.295Z</time></trkpt><trkpt lat="42.992965" lon="11.784175"><ele>460.0</ele><time>2026-04-26T13:47:16.293Z</time></trkpt><trkpt lat="42.9930367" lon="11.7842833"><ele>460.0</ele><time>2026-04-26T13:47:17.293Z</time></trkpt><trkpt lat="42.9931117" lon="11.78439"><ele>460.0</ele><time>2026-04-26T13:47:18.293Z</time></trkpt><trkpt lat="42.99319" lon="11.7844983"><ele>460.0</ele><time>2026-04-26T13:47:19.292Z</time></trkpt><trkpt lat="42.9932733" lon="11.7846067"><ele>462.75</ele><time>2026-04-26T13:47:20.294Z</time></trkpt><trkpt lat="42.9933583" lon="11.784715"><ele>465.5</ele><time>2026-04-26T13:47:21.293Z</time></trkpt><trkpt lat="42.993445" lon="11.7848217"><ele>468.25</ele><time>2026-04-26T13:47:22.292Z</time></trkpt><trkpt lat="42.9935283" lon="11.7849283"><ele>471.0</ele><time>2026-04-26T13:47:23.292Z</time></trkpt><trkpt lat="42.9936083" lon="11.785035"><ele>471.0</ele><time>2026-04-26T13:47:24.295Z</time></trkpt><trkpt lat="42.9936783" lon="11.7851467"><ele>471.0</ele><time>2026-04-26T13:47:25.296Z</time></trkpt><trkpt lat="42.9937333" lon="11.7852533"><ele>471.0</ele><time>2026-04-26T13:47:26.296Z</time></trkpt><trkpt lat="42.9937717" lon="11.7853533"><ele>471.0</ele><time>2026-04-26T13:47:27.295Z</time></trkpt><trkpt lat="42.9938033" lon="11.7854433"><ele>471.0</ele><time>2026-04-26T13:47:28.292Z</time></trkpt><trkpt lat="42.9938383" lon="11.78553"><ele>471.0</ele><time>2026-04-26T13:47:29.296Z</time></trkpt><trkpt lat="42.9938783" lon="11.785615"><ele>471.5</ele><time>2026-04-26T13:47:30.296Z</time></trkpt><trkpt lat="42.9939217" lon="11.7857017"><ele>472.0</ele><time>2026-04-26T13:47:31.293Z</time></trkpt><trkpt lat="42.9939683" lon="11.7857883"><ele>472.5</ele><time>2026-04-26T13:47:32.296Z</time></trkpt><trkpt lat="42.9940167" lon="11.7858733"><ele>473.0</ele><time>2026-04-26T13:47:33.297Z</time></trkpt><trkpt lat="42.9940633" lon="11.7859583"><ele>473.5</ele><time>2026-04-26T13:47:34.295Z</time></trkpt><trkpt lat="42.9941133" lon="11.7860433"><ele>474.0</ele><time>2026-04-26T13:47:35.295Z</time></trkpt><trkpt lat="42.994165" lon="11.78613"><ele>475.6</ele><time>2026-04-26T13:47:36.295Z</time></trkpt><trkpt lat="42.99422" lon="11.7862183"><ele>477.2</ele><time>2026-04-26T13:47:37.295Z</time></trkpt><trkpt lat="42.9942783" lon="11.7863083"><ele>478.80000000000007</ele><time>2026-04-26T13:47:38.295Z</time></trkpt><trkpt lat="42.994345" lon="11.7863983"><ele>480.40000000000003</ele><time>2026-04-26T13:47:39.296Z</time></trkpt><trkpt lat="42.9944133" lon="11.786485"><ele>482.0</ele><time>2026-04-26T13:47:40.298Z</time></trkpt><trkpt lat="42.994485" lon="11.7865667"><ele>482.0</ele><time>2026-04-26T13:47:41.296Z</time></trkpt><trkpt lat="42.9945567" lon="11.78665"><ele>482.00000000000006</ele><time>2026-04-26T13:47:42.296Z</time></trkpt><trkpt lat="42.9946333" lon="11.7867267"><ele>482.00000000000006</ele><time>2026-04-26T13:47:43.295Z</time></trkpt><trkpt lat="42.9947183" lon="11.7867933"><ele>482.0</ele><time>2026-04-26T13:47:44.295Z</time></trkpt><trkpt lat="42.9948017" lon="11.7868517"><ele>482.0</ele><time>2026-04-26T13:47:45.296Z</time></trkpt><trkpt lat="42.99489" lon="11.78689"><ele>481.16666666666663</ele><time>2026-04-26T13:47:46.296Z</time></trkpt><trkpt lat="42.9949833" lon="11.78692"><ele>480.3333333333333</ele><time>2026-04-26T13:47:47.296Z</time></trkpt><trkpt lat="42.9950767" lon="11.7869417"><ele>479.5</ele><time>2026-04-26T13:47:48.295Z</time></trkpt><trkpt lat="42.9951667" lon="11.7869567"><ele>478.66666666666663</ele><time>2026-04-26T13:47:49.297Z</time></trkpt><trkpt lat="42.99525" lon="11.7869767"><ele>477.8333333333333</ele><time>2026-04-26T13:47:50.293Z</time></trkpt><trkpt lat="42.9953233" lon="11.7870067"><ele>477.0</ele><time>2026-04-26T13:47:51.297Z</time></trkpt><trkpt lat="42.9953933" lon="11.7870583"><ele>477.0</ele><time>2026-04-26T13:47:52.295Z</time></trkpt><trkpt lat="42.9954617" lon="11.7871383"><ele>477.00000000000006</ele><time>2026-04-26T13:47:53.296Z</time></trkpt><trkpt lat="42.9955283" lon="11.78724"><ele>477.00000000000006</ele><time>2026-04-26T13:47:54.295Z</time></trkpt><trkpt lat="42.9955967" lon="11.7873533"><ele>477.0</ele><time>2026-04-26T13:47:55.297Z</time></trkpt><trkpt lat="42.9956667" lon="11.78747"><ele>477.0</ele><time>2026-04-26T13:47:56.296Z</time></trkpt><trkpt lat="42.9957367" lon="11.7875883"><ele>476.0</ele><time>2026-04-26T13:47:57.292Z</time></trkpt><trkpt lat="42.99581" lon="11.7877"><ele>475.00000000000006</ele><time>2026-04-26T13:47:58.295Z</time></trkpt><trkpt lat="42.995885" lon="11.7877983"><ele>474.00000000000006</ele><time>2026-04-26T13:47:59.295Z</time></trkpt><trkpt lat="42.9959633" lon="11.787885"><ele>473.0</ele><time>2026-04-26T13:48:00.296Z</time></trkpt><trkpt lat="42.9960383" lon="11.7879617"><ele>472.0</ele><time>2026-04-26T13:48:01.296Z</time></trkpt><trkpt lat="42.996115" lon="11.7880283"><ele>471.33333333333337</ele><time>2026-04-26T13:48:02.298Z</time></trkpt><trkpt lat="42.99619" lon="11.7880883"><ele>470.6666666666667</ele><time>2026-04-26T13:48:03.295Z</time></trkpt><trkpt lat="42.996265" lon="11.7881467"><ele>470.0</ele><time>2026-04-26T13:48:04.295Z</time></trkpt><trkpt lat="42.9963383" lon="11.7881983"><ele>469.33333333333337</ele><time>2026-04-26T13:48:05.295Z</time></trkpt><trkpt lat="42.9964167" lon="11.7882533"><ele>468.6666666666667</ele><time>2026-04-26T13:48:06.296Z</time></trkpt><trkpt lat="42.9965017" lon="11.7883217"><ele>468.0</ele><time>2026-04-26T13:48:07.296Z</time></trkpt><trkpt lat="42.99659" lon="11.78841"><ele>468.25</ele><time>2026-04-26T13:48:08.296Z</time></trkpt><trkpt lat="42.9966733" lon="11.7885167"><ele>468.5</ele><time>2026-04-26T13:48:09.296Z</time></trkpt><trkpt lat="42.9967533" lon="11.7886417"><ele>468.75</ele><time>2026-04-26T13:48:10.297Z</time></trkpt><trkpt lat="42.9968367" lon="11.7887767"><ele>469.0</ele><time>2026-04-26T13:48:11.296Z</time></trkpt><trkpt lat="42.99692" lon="11.7889117"><ele>469.0</ele><time>2026-04-26T13:48:12.296Z</time></trkpt><trkpt lat="42.9970083" lon="11.7890467"><ele>469.0</ele><time>2026-04-26T13:48:13.295Z</time></trkpt><trkpt lat="42.997095" lon="11.7891783"><ele>469.0</ele><time>2026-04-26T13:48:14.293Z</time></trkpt><trkpt lat="42.9971833" lon="11.7893083"><ele>469.0</ele><time>2026-04-26T13:48:15.293Z</time></trkpt><trkpt lat="42.99727" lon="11.789435"><ele>469.5</ele><time>2026-04-26T13:48:16.295Z</time></trkpt><trkpt lat="42.9973533" lon="11.78956"><ele>470.0</ele><time>2026-04-26T13:48:17.297Z</time></trkpt><trkpt lat="42.99743" lon="11.789685"><ele>470.5</ele><time>2026-04-26T13:48:18.296Z</time></trkpt><trkpt lat="42.9975" lon="11.78981"><ele>471.0</ele><time>2026-04-26T13:48:19.296Z</time></trkpt><trkpt lat="42.9975617" lon="11.7899367"><ele>471.0</ele><time>2026-04-26T13:48:20.296Z</time></trkpt><trkpt lat="42.9976167" lon="11.790065"><ele>471.0</ele><time>2026-04-26T13:48:21.296Z</time></trkpt><trkpt lat="42.9976733" lon="11.7901867"><ele>471.0</ele><time>2026-04-26T13:48:22.298Z</time></trkpt><trkpt lat="42.99773" lon="11.7902983"><ele>471.0</ele><time>2026-04-26T13:48:23.296Z</time></trkpt><trkpt lat="42.9978" lon="11.7903917"><ele>471.0</ele><time>2026-04-26T13:48:24.295Z</time></trkpt><trkpt lat="42.9978783" lon="11.79047"><ele>472.4</ele><time>2026-04-26T13:48:25.296Z</time></trkpt><trkpt lat="42.9979617" lon="11.79055"><ele>473.8</ele><time>2026-04-26T13:48:26.296Z</time></trkpt><trkpt lat="42.9980517" lon="11.7906283"><ele>475.19999999999993</ele><time>2026-04-26T13:48:27.295Z</time></trkpt><trkpt lat="42.998145" lon="11.7907117"><ele>476.59999999999997</ele><time>2026-04-26T13:48:28.296Z</time></trkpt><trkpt lat="42.99824" lon="11.7907983"><ele>478.0</ele><time>2026-04-26T13:48:29.296Z</time></trkpt><trkpt lat="42.9983333" lon="11.7908833"><ele>477.0</ele><time>2026-04-26T13:48:30.296Z</time></trkpt><trkpt lat="42.9984183" lon="11.79097"><ele>475.99999999999994</ele><time>2026-04-26T13:48:31.297Z</time></trkpt><trkpt lat="42.9984933" lon="11.791055"><ele>474.99999999999994</ele><time>2026-04-26T13:48:32.296Z</time></trkpt><trkpt lat="42.9985583" lon="11.7911417"><ele>474.0</ele><time>2026-04-26T13:48:33.296Z</time></trkpt><trkpt lat="42.9986067" lon="11.791245"><ele>473.0</ele><time>2026-04-26T13:48:34.296Z</time></trkpt><trkpt lat="42.998635" lon="11.7913567"><ele>473.0</ele><time>2026-04-26T13:48:35.295Z</time></trkpt><trkpt lat="42.9986417" lon="11.7914817"><ele>472.99999999999994</ele><time>2026-04-26T13:48:36.295Z</time></trkpt><trkpt lat="42.9986367" lon="11.7916167"><ele>472.99999999999994</ele><time>2026-04-26T13:48:37.296Z</time></trkpt><trkpt lat="42.9986217" lon="11.791755"><ele>473.0</ele><time>2026-04-26T13:48:38.296Z</time></trkpt><trkpt lat="42.9985967" lon="11.7918933"><ele>473.0</ele><time>2026-04-26T13:48:39.295Z</time></trkpt><trkpt lat="42.99857" lon="11.7920267"><ele>474.49999999999994</ele><time>2026-04-26T13:48:40.297Z</time></trkpt><trkpt lat="42.99855" lon="11.7921517"><ele>476.0</ele><time>2026-04-26T13:48:41.295Z</time></trkpt><trkpt lat="42.9985433" lon="11.79227"><ele>477.5</ele><time>2026-04-26T13:48:42.295Z</time></trkpt><trkpt lat="42.9985517" lon="11.7923883"><ele>479.0</ele><time>2026-04-26T13:48:43.295Z</time></trkpt><trkpt lat="42.9985733" lon="11.792505"><ele>480.49999999999994</ele><time>2026-04-26T13:48:44.296Z</time></trkpt><trkpt lat="42.99861" lon="11.7926183"><ele>482.0</ele><time>2026-04-26T13:48:45.297Z</time></trkpt><trkpt lat="42.99866" lon="11.7927183"><ele>483.75</ele><time>2026-04-26T13:48:46.296Z</time></trkpt><trkpt lat="42.9987317" lon="11.7928083"><ele>485.5</ele><time>2026-04-26T13:48:47.296Z</time></trkpt><trkpt lat="42.9988217" lon="11.7928967"><ele>487.25</ele><time>2026-04-26T13:48:48.297Z</time></trkpt><trkpt lat="42.99892" lon="11.79299"><ele>489.0</ele><time>2026-04-26T13:48:49.295Z</time></trkpt><trkpt lat="42.9990217" lon="11.7930883"><ele>489.0</ele><time>2026-04-26T13:48:50.297Z</time></trkpt><trkpt lat="42.999115" lon="11.7931817"><ele>489.0</ele><time>2026-04-26T13:48:51.293Z</time></trkpt><trkpt lat="42.9992" lon="11.7932767"><ele>489.0</ele><time>2026-04-26T13:48:52.296Z</time></trkpt><trkpt lat="42.9992717" lon="11.79338"><ele>489.0</ele><time>2026-04-26T13:48:53.295Z</time></trkpt><trkpt lat="42.9993317" lon="11.7934967"><ele>489.0</ele><time>2026-04-26T13:48:54.295Z</time></trkpt><trkpt lat="42.9993833" lon="11.793625"><ele>491.0</ele><time>2026-04-26T13:48:55.295Z</time></trkpt><trkpt lat="42.9994283" lon="11.793755"><ele>493.0</ele><time>2026-04-26T13:48:56.293Z</time></trkpt><trkpt lat="42.99947" lon="11.7938867"><ele>495.0</ele><time>2026-04-26T13:48:57.297Z</time></trkpt><trkpt lat="42.9995133" lon="11.7940133"><ele>497.0</ele><time>2026-04-26T13:48:58.295Z</time></trkpt><trkpt lat="42.9995517" lon="11.7941383"><ele>499.0</ele><time>2026-04-26T13:48:59.295Z</time></trkpt><trkpt lat="42.999595" lon="11.79426"><ele>501.2</ele><time>2026-04-26T13:49:00.297Z</time></trkpt><trkpt lat="42.9996367" lon="11.7943817"><ele>503.4</ele><time>2026-04-26T13:49:01.296Z</time></trkpt><trkpt lat="42.99968" lon="11.794505"><ele>505.6</ele><time>2026-04-26T13:49:02.296Z</time></trkpt><trkpt lat="42.9997217" lon="11.79463"><ele>507.8</ele><time>2026-04-26T13:49:03.295Z</time></trkpt><trkpt lat="42.9997683" lon="11.7947533"><ele>510.0</ele><time>2026-04-26T13:49:04.296Z</time></trkpt><trkpt lat="42.9998083" lon="11.794875"><ele>510.0</ele><time>2026-04-26T13:49:05.296Z</time></trkpt><trkpt lat="42.9998467" lon="11.7949867"><ele>510.0</ele><time>2026-04-26T13:49:06.292Z</time></trkpt><trkpt lat="42.9998867" lon="11.7950917"><ele>510.0</ele><time>2026-04-26T13:49:07.296Z</time></trkpt><trkpt lat="42.9999217" lon="11.7951767"><ele>510.0</ele><time>2026-04-26T13:49:08.293Z</time></trkpt><trkpt lat="42.9999767" lon="11.7952917"><ele>510.0</ele><time>2026-04-26T13:49:10.295Z</time></trkpt><trkpt lat="43.0000583" lon="11.7952983"><ele>510.0</ele><time>2026-04-26T13:49:13.296Z</time></trkpt><trkpt lat="43.000135" lon="11.7952683"><ele>510.0</ele><time>2026-04-26T13:49:15.297Z</time></trkpt><trkpt lat="43.0002067" lon="11.79523"><ele>510.0</ele><time>2026-04-26T13:49:17.296Z</time></trkpt><trkpt lat="43.0002833" lon="11.7952033"><ele>510.0</ele><time>2026-04-26T13:49:19.295Z</time></trkpt><trkpt lat="43.0003633" lon="11.79518"><ele>510.0</ele><time>2026-04-26T13:49:21.296Z</time></trkpt><trkpt lat="43.0004417" lon="11.79516"><ele>510.0</ele><time>2026-04-26T13:49:23.296Z</time></trkpt><trkpt lat="43.00052" lon="11.7951433"><ele>510.0</ele><time>2026-04-26T13:49:25.297Z</time></trkpt><trkpt lat="43.0005933" lon="11.7951167"><ele>510.0</ele><time>2026-04-26T13:49:27.293Z</time></trkpt><trkpt lat="43.0006683" lon="11.7950867"><ele>510.0</ele><time>2026-04-26T13:49:29.297Z</time></trkpt><trkpt lat="43.0007533" lon="11.795055"><ele>510.0</ele><time>2026-04-26T13:49:31.295Z</time></trkpt><trkpt lat="43.0008733" lon="11.79501"><ele>510.0</ele><time>2026-04-26T13:49:33.295Z</time></trkpt><trkpt lat="43.0009433" lon="11.79499"><ele>510.0</ele><time>2026-04-26T13:49:34.296Z</time></trkpt><trkpt lat="43.0010217" lon="11.7949617"><ele>510.0</ele><time>2026-04-26T13:49:35.296Z</time></trkpt><trkpt lat="43.0011017" lon="11.7949333"><ele>510.1666666666667</ele><time>2026-04-26T13:49:36.295Z</time></trkpt><trkpt lat="43.0011817" lon="11.794905"><ele>510.33333333333337</ele><time>2026-04-26T13:49:37.296Z</time></trkpt><trkpt lat="43.001265" lon="11.794875"><ele>510.5</ele><time>2026-04-26T13:49:38.296Z</time></trkpt><trkpt lat="43.0013483" lon="11.7948433"><ele>510.6666666666667</ele><time>2026-04-26T13:49:39.296Z</time></trkpt><trkpt lat="43.0014367" lon="11.7948133"><ele>510.83333333333337</ele><time>2026-04-26T13:49:40.297Z</time></trkpt><trkpt lat="43.0015233" lon="11.7947833"><ele>511.0</ele><time>2026-04-26T13:49:41.297Z</time></trkpt><trkpt lat="43.001615" lon="11.7947517"><ele>510.8</ele><time>2026-04-26T13:49:42.296Z</time></trkpt><trkpt lat="43.001705" lon="11.7947167"><ele>510.6</ele><time>2026-04-26T13:49:43.297Z</time></trkpt><trkpt lat="43.0018017" lon="11.7946783"><ele>510.4</ele><time>2026-04-26T13:49:44.296Z</time></trkpt><trkpt lat="43.001905" lon="11.7946417"><ele>510.2</ele><time>2026-04-26T13:49:45.296Z</time></trkpt><trkpt lat="43.0020167" lon="11.7946083"><ele>510.0</ele><time>2026-04-26T13:49:46.296Z</time></trkpt><trkpt lat="43.002135" lon="11.7945733"><ele>510.0</ele><time>2026-04-26T13:49:47.297Z</time></trkpt><trkpt lat="43.0022583" lon="11.7945417"><ele>510.0</ele><time>2026-04-26T13:49:48.297Z</time></trkpt><trkpt lat="43.0023767" lon="11.7945083"><ele>510.0</ele><time>2026-04-26T13:49:49.293Z</time></trkpt><trkpt lat="43.0024967" lon="11.7944783"><ele>510.0</ele><time>2026-04-26T13:49:50.297Z</time></trkpt><trkpt lat="43.0026117" lon="11.794445"><ele>511.5</ele><time>2026-04-26T13:49:51.296Z</time></trkpt><trkpt lat="43.0027267" lon="11.794415"><ele>513.0</ele><time>2026-04-26T13:49:52.296Z</time></trkpt><trkpt lat="43.0028417" lon="11.79439"><ele>514.5</ele><time>2026-04-26T13:49:53.296Z</time></trkpt><trkpt lat="43.00295" lon="11.7943683"><ele>516.0</ele><time>2026-04-26T13:49:54.296Z</time></trkpt><trkpt lat="43.0030583" lon="11.7943417"><ele>514.8</ele><time>2026-04-26T13:49:55.293Z</time></trkpt><trkpt lat="43.0031683" lon="11.7943117"><ele>513.6</ele><time>2026-04-26T13:49:56.297Z</time></trkpt><trkpt lat="43.003275" lon="11.7942833"><ele>512.4</ele><time>2026-04-26T13:49:57.296Z</time></trkpt><trkpt lat="43.0033733" lon="11.79425"><ele>511.2</ele><time>2026-04-26T13:49:58.296Z</time></trkpt><trkpt lat="43.0034583" lon="11.794205"><ele>510.0</ele><time>2026-04-26T13:49:59.295Z</time></trkpt><trkpt lat="43.0035383" lon="11.7941417"><ele>510.0</ele><time>2026-04-26T13:50:00.297Z</time></trkpt><trkpt lat="43.00362" lon="11.79405"><ele>510.0</ele><time>2026-04-26T13:50:01.297Z</time></trkpt><trkpt lat="43.0037033" lon="11.79395"><ele>510.0</ele><time>2026-04-26T13:50:02.296Z</time></trkpt><trkpt lat="43.00379" lon="11.7938383"><ele>510.0</ele><time>2026-04-26T13:50:03.293Z</time></trkpt><trkpt lat="43.0038767" lon="11.7937233"><ele>510.0</ele><time>2026-04-26T13:50:04.296Z</time></trkpt><trkpt lat="43.0039617" lon="11.7936083"><ele>510.0</ele><time>2026-04-26T13:50:05.297Z</time></trkpt><trkpt lat="43.004045" lon="11.7934933"><ele>510.0</ele><time>2026-04-26T13:50:06.295Z</time></trkpt><trkpt lat="43.0041333" lon="11.7933667"><ele>510.0</ele><time>2026-04-26T13:50:07.296Z</time></trkpt><trkpt lat="43.0042267" lon="11.79325"><ele>510.25</ele><time>2026-04-26T13:50:08.297Z</time></trkpt><trkpt lat="43.004315" lon="11.7931367"><ele>510.5</ele><time>2026-04-26T13:50:09.297Z</time></trkpt><trkpt lat="43.0044" lon="11.7930183"><ele>510.75</ele><time>2026-04-26T13:50:10.296Z</time></trkpt><trkpt lat="43.004485" lon="11.792905"><ele>511.0</ele><time>2026-04-26T13:50:11.296Z</time></trkpt><trkpt lat="43.004575" lon="11.7927983"><ele>511.0</ele><time>2026-04-26T13:50:12.297Z</time></trkpt><trkpt lat="43.0046633" lon="11.7926967"><ele>511.0</ele><time>2026-04-26T13:50:13.294Z</time></trkpt><trkpt lat="43.0047517" lon="11.7926033"><ele>511.0</ele><time>2026-04-26T13:50:14.297Z</time></trkpt><trkpt lat="43.004835" lon="11.7925133"><ele>511.0</ele><time>2026-04-26T13:50:15.295Z</time></trkpt><trkpt lat="43.0049183" lon="11.79244"><ele>511.0</ele><time>2026-04-26T13:50:16.296Z</time></trkpt><trkpt lat="43.004995" lon="11.7923683"><ele>511.50000000000006</ele><time>2026-04-26T13:50:17.296Z</time></trkpt><trkpt lat="43.005065" lon="11.7923067"><ele>512.0</ele><time>2026-04-26T13:50:18.296Z</time></trkpt><trkpt lat="43.0051267" lon="11.7922433"><ele>512.5</ele><time>2026-04-26T13:50:19.294Z</time></trkpt><trkpt lat="43.0051883" lon="11.7921833"><ele>513.0</ele><time>2026-04-26T13:50:20.294Z</time></trkpt><trkpt lat="43.0052467" lon="11.7921133"><ele>513.5</ele><time>2026-04-26T13:50:21.296Z</time></trkpt><trkpt lat="43.005305" lon="11.7920383"><ele>514.0</ele><time>2026-04-26T13:50:22.293Z</time></trkpt><trkpt lat="43.0053633" lon="11.7919483"><ele>514.0</ele><time>2026-04-26T13:50:23.295Z</time></trkpt><trkpt lat="43.0054217" lon="11.7918483"><ele>514.0</ele><time>2026-04-26T13:50:24.294Z</time></trkpt><trkpt lat="43.00548" lon="11.79174"><ele>514.0</ele><time>2026-04-26T13:50:25.296Z</time></trkpt><trkpt lat="43.0055317" lon="11.791625"><ele>514.0</ele><time>2026-04-26T13:50:26.296Z</time></trkpt><trkpt lat="43.0055867" lon="11.7915067"><ele>514.0</ele><time>2026-04-26T13:50:27.293Z</time></trkpt><trkpt lat="43.00564" lon="11.7913883"><ele>514.6</ele><time>2026-04-26T13:50:28.294Z</time></trkpt><trkpt lat="43.005695" lon="11.7912717"><ele>515.2</ele><time>2026-04-26T13:50:29.297Z</time></trkpt><trkpt lat="43.0057517" lon="11.7911517"><ele>515.8000000000001</ele><time>2026-04-26T13:50:30.296Z</time></trkpt><trkpt lat="43.005805" lon="11.7910383"><ele>516.4</ele><time>2026-04-26T13:50:31.296Z</time></trkpt><trkpt lat="43.0058567" lon="11.7909267"><ele>517.0</ele><time>2026-04-26T13:50:32.295Z</time></trkpt><trkpt lat="43.00591" lon="11.7908167"><ele>517.0</ele><time>2026-04-26T13:50:33.294Z</time></trkpt><trkpt lat="43.0059633" lon="11.790705"><ele>517.0</ele><time>2026-04-26T13:50:34.296Z</time></trkpt><trkpt lat="43.0060167" lon="11.790605"><ele>517.0</ele><time>2026-04-26T13:50:35.296Z</time></trkpt><trkpt lat="43.00607" lon="11.79051"><ele>517.0</ele><time>2026-04-26T13:50:36.297Z</time></trkpt><trkpt lat="43.0061283" lon="11.7904317"><ele>517.0</ele><time>2026-04-26T13:50:37.296Z</time></trkpt><trkpt lat="43.0061917" lon="11.7903617"><ele>517.0</ele><time>2026-04-26T13:50:38.296Z</time></trkpt><trkpt lat="43.0062633" lon="11.7902967"><ele>517.0</ele><time>2026-04-26T13:50:39.296Z</time></trkpt><trkpt lat="43.00634" lon="11.7902333"><ele>517.0</ele><time>2026-04-26T13:50:40.296Z</time></trkpt><trkpt lat="43.00642" lon="11.7901683"><ele>517.0</ele><time>2026-04-26T13:50:41.296Z</time></trkpt><trkpt lat="43.006505" lon="11.7901033"><ele>517.0</ele><time>2026-04-26T13:50:42.294Z</time></trkpt><trkpt lat="43.0065883" lon="11.79003"><ele>517.0</ele><time>2026-04-26T13:50:43.297Z</time></trkpt><trkpt lat="43.0066783" lon="11.78996"><ele>517.0</ele><time>2026-04-26T13:50:44.293Z</time></trkpt><trkpt lat="43.0067733" lon="11.7898933"><ele>517.0</ele><time>2026-04-26T13:50:45.297Z</time></trkpt><trkpt lat="43.0068717" lon="11.7898167"><ele>517.0</ele><time>2026-04-26T13:50:46.296Z</time></trkpt><trkpt lat="43.0069683" lon="11.7897483"><ele>517.0</ele><time>2026-04-26T13:50:47.296Z</time></trkpt><trkpt lat="43.0070533" lon="11.7896833"><ele>517.0</ele><time>2026-04-26T13:50:48.296Z</time></trkpt><trkpt lat="43.007135" lon="11.789625"><ele>517.0</ele><time>2026-04-26T13:50:49.296Z</time></trkpt><trkpt lat="43.0072117" lon="11.78958"><ele>517.0</ele><time>2026-04-26T13:50:50.293Z</time></trkpt><trkpt lat="43.0072833" lon="11.7895533"><ele>517.0</ele><time>2026-04-26T13:50:51.297Z</time></trkpt><trkpt lat="43.007365" lon="11.789555"><ele>517.0</ele><time>2026-04-26T13:50:52.301Z</time></trkpt><trkpt lat="43.00745" lon="11.7895717"><ele>517.0</ele><time>2026-04-26T13:50:53.296Z</time></trkpt><trkpt lat="43.0075367" lon="11.7896017"><ele>517.0</ele><time>2026-04-26T13:50:54.296Z</time></trkpt><trkpt lat="43.007625" lon="11.7896267"><ele>518.4</ele><time>2026-04-26T13:50:55.294Z</time></trkpt><trkpt lat="43.0077133" lon="11.7896533"><ele>519.8000000000001</ele><time>2026-04-26T13:50:56.295Z</time></trkpt><trkpt lat="43.0078017" lon="11.7896767"><ele>521.2</ele><time>2026-04-26T13:50:57.296Z</time></trkpt><trkpt lat="43.0078867" lon="11.7896967"><ele>522.6</ele><time>2026-04-26T13:50:58.296Z</time></trkpt><trkpt lat="43.0079767" lon="11.7897217"><ele>524.0</ele><time>2026-04-26T13:50:59.296Z</time></trkpt><trkpt lat="43.0080717" lon="11.789745"><ele>524.0</ele><time>2026-04-26T13:51:00.295Z</time></trkpt><trkpt lat="43.008165" lon="11.789775"><ele>524.0</ele><time>2026-04-26T13:51:01.295Z</time></trkpt><trkpt lat="43.0082517" lon="11.7898017"><ele>524.0</ele><time>2026-04-26T13:51:02.295Z</time></trkpt><trkpt lat="43.0083383" lon="11.78983"><ele>524.0</ele><time>2026-04-26T13:51:03.292Z</time></trkpt><trkpt lat="43.00842" lon="11.789855"><ele>524.0</ele><time>2026-04-26T13:51:04.295Z</time></trkpt><trkpt lat="43.0085067" lon="11.7898733"><ele>524.0</ele><time>2026-04-26T13:51:05.292Z</time></trkpt><trkpt lat="43.0085867" lon="11.7898783"><ele>523.6666666666666</ele><time>2026-04-26T13:51:06.297Z</time></trkpt><trkpt lat="43.00866" lon="11.7898733"><ele>523.3333333333333</ele><time>2026-04-26T13:51:07.293Z</time></trkpt><trkpt lat="43.0087283" lon="11.7898567"><ele>523.0</ele><time>2026-04-26T13:51:08.293Z</time></trkpt><trkpt lat="43.0087967" lon="11.7898117"><ele>522.6666666666666</ele><time>2026-04-26T13:51:09.295Z</time></trkpt><trkpt lat="43.0088533" lon="11.78974"><ele>522.3333333333334</ele><time>2026-04-26T13:51:10.296Z</time></trkpt><trkpt lat="43.0089083" lon="11.78965"><ele>522.0</ele><time>2026-04-26T13:51:11.296Z</time></trkpt><trkpt lat="43.0089483" lon="11.78955"><ele>522.0</ele><time>2026-04-26T13:51:12.295Z</time></trkpt><trkpt lat="43.00898" lon="11.789435"><ele>522.0</ele><time>2026-04-26T13:51:13.296Z</time></trkpt><trkpt lat="43.00901" lon="11.7893217"><ele>522.0</ele><time>2026-04-26T13:51:14.296Z</time></trkpt><trkpt lat="43.0090367" lon="11.7892017"><ele>522.0</ele><time>2026-04-26T13:51:15.296Z</time></trkpt><trkpt lat="43.0090633" lon="11.7890767"><ele>522.0</ele><time>2026-04-26T13:51:16.296Z</time></trkpt><trkpt lat="43.0090983" lon="11.788955"><ele>520.4</ele><time>2026-04-26T13:51:17.296Z</time></trkpt><trkpt lat="43.0091333" lon="11.7888283"><ele>518.8000000000001</ele><time>2026-04-26T13:51:18.292Z</time></trkpt><trkpt lat="43.0091667" lon="11.7886967"><ele>517.2</ele><time>2026-04-26T13:51:19.294Z</time></trkpt><trkpt lat="43.0092133" lon="11.788565"><ele>515.6</ele><time>2026-04-26T13:51:20.294Z</time></trkpt><trkpt lat="43.0092717" lon="11.78843"><ele>514.0</ele><time>2026-04-26T13:51:21.295Z</time></trkpt><trkpt lat="43.00934" lon="11.7883017"><ele>512.75</ele><time>2026-04-26T13:51:22.293Z</time></trkpt><trkpt lat="43.0094183" lon="11.7881767"><ele>511.5</ele><time>2026-04-26T13:51:23.293Z</time></trkpt><trkpt lat="43.0095033" lon="11.7880517"><ele>510.25</ele><time>2026-04-26T13:51:24.293Z</time></trkpt><trkpt lat="43.0095867" lon="11.78793"><ele>509.0</ele><time>2026-04-26T13:51:25.293Z</time></trkpt><trkpt lat="43.0096717" lon="11.7878133"><ele>509.0</ele><time>2026-04-26T13:51:26.293Z</time></trkpt><trkpt lat="43.00975" lon="11.7876883"><ele>509.0</ele><time>2026-04-26T13:51:27.293Z</time></trkpt><trkpt lat="43.00983" lon="11.7875683"><ele>509.0</ele><time>2026-04-26T13:51:28.293Z</time></trkpt><trkpt lat="43.0099117" lon="11.7874533"><ele>509.0</ele><time>2026-04-26T13:51:29.297Z</time></trkpt><trkpt lat="43.0100017" lon="11.78734"><ele>509.75</ele><time>2026-04-26T13:51:30.291Z</time></trkpt><trkpt lat="43.01009" lon="11.7872383"><ele>510.5</ele><time>2026-04-26T13:51:31.295Z</time></trkpt><trkpt lat="43.010185" lon="11.7871333"><ele>511.25</ele><time>2026-04-26T13:51:32.295Z</time></trkpt><trkpt lat="43.0102883" lon="11.787025"><ele>512.0</ele><time>2026-04-26T13:51:33.292Z</time></trkpt><trkpt lat="43.0103867" lon="11.7869133"><ele>510.0</ele><time>2026-04-26T13:51:34.296Z</time></trkpt><trkpt lat="43.0104817" lon="11.7868067"><ele>508.0</ele><time>2026-04-26T13:51:35.296Z</time></trkpt><trkpt lat="43.0105817" lon="11.786695"><ele>506.0</ele><time>2026-04-26T13:51:36.293Z</time></trkpt><trkpt lat="43.0106833" lon="11.78659"><ele>504.0</ele><time>2026-04-26T13:51:37.292Z</time></trkpt><trkpt lat="43.01078" lon="11.7864883"><ele>506.25</ele><time>2026-04-26T13:51:38.292Z</time></trkpt><trkpt lat="43.0108767" lon="11.7863817"><ele>508.5</ele><time>2026-04-26T13:51:39.293Z</time></trkpt><trkpt lat="43.0109717" lon="11.78627"><ele>510.75</ele><time>2026-04-26T13:51:40.293Z</time></trkpt><trkpt lat="43.0110633" lon="11.7861717"><ele>513.0</ele><time>2026-04-26T13:51:41.295Z</time></trkpt><trkpt lat="43.011145" lon="11.7860883"><ele>513.0</ele><time>2026-04-26T13:51:42.296Z</time></trkpt><trkpt lat="43.01123" lon="11.7860167"><ele>513.0</ele><time>2026-04-26T13:51:43.295Z</time></trkpt><trkpt lat="43.0113133" lon="11.785955"><ele>513.0</ele><time>2026-04-26T13:51:44.295Z</time></trkpt><trkpt lat="43.01141" lon="11.7859133"><ele>513.0</ele><time>2026-04-26T13:51:45.295Z</time></trkpt><trkpt lat="43.0115117" lon="11.7858767"><ele>513.0</ele><time>2026-04-26T13:51:46.295Z</time></trkpt><trkpt lat="43.0116167" lon="11.78584"><ele>514.75</ele><time>2026-04-26T13:51:47.297Z</time></trkpt><trkpt lat="43.0117317" lon="11.7858033"><ele>516.5</ele><time>2026-04-26T13:51:48.292Z</time></trkpt><trkpt lat="43.0118483" lon="11.78576"><ele>518.25</ele><time>2026-04-26T13:51:49.293Z</time></trkpt><trkpt lat="43.0119633" lon="11.7857067"><ele>520.0</ele><time>2026-04-26T13:51:50.293Z</time></trkpt><trkpt lat="43.0120833" lon="11.7856517"><ele>520.0</ele><time>2026-04-26T13:51:51.293Z</time></trkpt><trkpt lat="43.0122" lon="11.7855983"><ele>520.0</ele><time>2026-04-26T13:51:52.292Z</time></trkpt><trkpt lat="43.01231" lon="11.785545"><ele>520.0</ele><time>2026-04-26T13:51:53.293Z</time></trkpt><trkpt lat="43.0124233" lon="11.7855017"><ele>520.0</ele><time>2026-04-26T13:51:54.292Z</time></trkpt><trkpt lat="43.012535" lon="11.7854617"><ele>522.6</ele><time>2026-04-26T13:51:55.293Z</time></trkpt><trkpt lat="43.0126483" lon="11.7854317"><ele>525.2</ele><time>2026-04-26T13:51:56.292Z</time></trkpt><trkpt lat="43.0127533" lon="11.7853967"><ele>527.8</ele><time>2026-04-26T13:51:57.292Z</time></trkpt><trkpt lat="43.0128517" lon="11.7853467"><ele>530.4</ele><time>2026-04-26T13:51:58.293Z</time></trkpt><trkpt lat="43.0129483" lon="11.7852883"><ele>533.0</ele><time>2026-04-26T13:51:59.297Z</time></trkpt><trkpt lat="43.0130383" lon="11.785215"><ele>532.1999999999999</ele><time>2026-04-26T13:52:00.296Z</time></trkpt><trkpt lat="43.0131283" lon="11.7851367"><ele>531.4</ele><time>2026-04-26T13:52:01.295Z</time></trkpt><trkpt lat="43.0132117" lon="11.78505"><ele>530.5999999999999</ele><time>2026-04-26T13:52:02.295Z</time></trkpt><trkpt lat="43.0132917" lon="11.7849633"><ele>529.8</ele><time>2026-04-26T13:52:03.292Z</time></trkpt><trkpt lat="43.0133733" lon="11.7848683"><ele>529.0</ele><time>2026-04-26T13:52:04.295Z</time></trkpt><trkpt lat="43.013455" lon="11.7847767"><ele>530.6</ele><time>2026-04-26T13:52:05.297Z</time></trkpt><trkpt lat="43.01354" lon="11.7846867"><ele>532.2</ele><time>2026-04-26T13:52:06.295Z</time></trkpt><trkpt lat="43.013625" lon="11.7845917"><ele>533.8000000000001</ele><time>2026-04-26T13:52:07.296Z</time></trkpt><trkpt lat="43.0137117" lon="11.784505"><ele>535.4</ele><time>2026-04-26T13:52:08.295Z</time></trkpt><trkpt lat="43.0137933" lon="11.78442"><ele>537.0</ele><time>2026-04-26T13:52:09.296Z</time></trkpt><trkpt lat="43.0138767" lon="11.7843383"><ele>537.0</ele><time>2026-04-26T13:52:10.295Z</time></trkpt><trkpt lat="43.0139583" lon="11.7842583"><ele>537.0</ele><time>2026-04-26T13:52:11.296Z</time></trkpt><trkpt lat="43.0140417" lon="11.7841817"><ele>537.0</ele><time>2026-04-26T13:52:12.295Z</time></trkpt><trkpt lat="43.0141183" lon="11.784105"><ele>537.0</ele><time>2026-04-26T13:52:13.296Z</time></trkpt><trkpt lat="43.0141983" lon="11.78403"><ele>537.0</ele><time>2026-04-26T13:52:14.295Z</time></trkpt><trkpt lat="43.0142817" lon="11.78395"><ele>539.4</ele><time>2026-04-26T13:52:15.296Z</time></trkpt><trkpt lat="43.01437" lon="11.7838683"><ele>541.8000000000001</ele><time>2026-04-26T13:52:16.297Z</time></trkpt><trkpt lat="43.0144533" lon="11.7837933"><ele>544.2</ele><time>2026-04-26T13:52:17.296Z</time></trkpt><trkpt lat="43.0145367" lon="11.7837267"><ele>546.6</ele><time>2026-04-26T13:52:18.292Z</time></trkpt><trkpt lat="43.0146233" lon="11.783665"><ele>549.0</ele><time>2026-04-26T13:52:19.293Z</time></trkpt><trkpt lat="43.0147167" lon="11.7836067"><ele>549.0</ele><time>2026-04-26T13:52:20.293Z</time></trkpt><trkpt lat="43.0148033" lon="11.7835467"><ele>549.0</ele><time>2026-04-26T13:52:21.293Z</time></trkpt><trkpt lat="43.0148967" lon="11.7834817"><ele>549.0</ele><time>2026-04-26T13:52:22.292Z</time></trkpt><trkpt lat="43.014995" lon="11.7834167"><ele>549.0</ele><time>2026-04-26T13:52:23.293Z</time></trkpt><trkpt lat="43.015095" lon="11.7833483"><ele>549.0</ele><time>2026-04-26T13:52:24.293Z</time></trkpt><trkpt lat="43.015205" lon="11.7832817"><ele>549.25</ele><time>2026-04-26T13:52:25.293Z</time></trkpt><trkpt lat="43.015315" lon="11.7832167"><ele>549.5</ele><time>2026-04-26T13:52:26.294Z</time></trkpt><trkpt lat="43.0154283" lon="11.7831567"><ele>549.75</ele><time>2026-04-26T13:52:27.292Z</time></trkpt><trkpt lat="43.0155383" lon="11.7831017"><ele>550.0</ele><time>2026-04-26T13:52:28.292Z</time></trkpt><trkpt lat="43.015645" lon="11.7830417"><ele>550.0</ele><time>2026-04-26T13:52:29.295Z</time></trkpt><trkpt lat="43.0157483" lon="11.7829833"><ele>550.0</ele><time>2026-04-26T13:52:30.295Z</time></trkpt><trkpt lat="43.0158483" lon="11.78293"><ele>550.0</ele><time>2026-04-26T13:52:31.295Z</time></trkpt><trkpt lat="43.01595" lon="11.7828867"><ele>550.0</ele><time>2026-04-26T13:52:32.298Z</time></trkpt><trkpt lat="43.01605" lon="11.7828517"><ele>550.0</ele><time>2026-04-26T13:52:33.295Z</time></trkpt><trkpt lat="43.0161483" lon="11.7828117"><ele>550.2</ele><time>2026-04-26T13:52:34.296Z</time></trkpt><trkpt lat="43.0162483" lon="11.782765"><ele>550.4</ele><time>2026-04-26T13:52:35.296Z</time></trkpt><trkpt lat="43.0163517" lon="11.7827167"><ele>550.6</ele><time>2026-04-26T13:52:36.295Z</time></trkpt><trkpt lat="43.0164583" lon="11.782665"><ele>550.8</ele><time>2026-04-26T13:52:37.297Z</time></trkpt><trkpt lat="43.0165633" lon="11.782615"><ele>551.0</ele><time>2026-04-26T13:52:38.295Z</time></trkpt><trkpt lat="43.0166667" lon="11.782565"><ele>552.2</ele><time>2026-04-26T13:52:39.293Z</time></trkpt><trkpt lat="43.0167717" lon="11.7825167"><ele>553.4000000000001</ele><time>2026-04-26T13:52:40.296Z</time></trkpt><trkpt lat="43.0168767" lon="11.78247"><ele>554.6</ele><time>2026-04-26T13:52:41.296Z</time></trkpt><trkpt lat="43.016985" lon="11.7824217"><ele>555.8000000000001</ele><time>2026-04-26T13:52:42.295Z</time></trkpt><trkpt lat="43.0170867" lon="11.782375"><ele>557.0</ele><time>2026-04-26T13:52:43.295Z</time></trkpt><trkpt lat="43.0171867" lon="11.7823267"><ele>557.0</ele><time>2026-04-26T13:52:44.294Z</time></trkpt><trkpt lat="43.0172883" lon="11.7822767"><ele>557.0</ele><time>2026-04-26T13:52:45.295Z</time></trkpt><trkpt lat="43.0173933" lon="11.7822233"><ele>557.0</ele><time>2026-04-26T13:52:46.295Z</time></trkpt><trkpt lat="43.017495" lon="11.7821767"><ele>557.0</ele><time>2026-04-26T13:52:47.296Z</time></trkpt><trkpt lat="43.0175967" lon="11.7821283"><ele>557.0</ele><time>2026-04-26T13:52:48.291Z</time></trkpt><trkpt lat="43.0176983" lon="11.78208"><ele>556.4</ele><time>2026-04-26T13:52:49.294Z</time></trkpt><trkpt lat="43.0177983" lon="11.7820283"><ele>555.8000000000001</ele><time>2026-04-26T13:52:50.292Z</time></trkpt><trkpt lat="43.0178967" lon="11.7819667"><ele>555.2</ele><time>2026-04-26T13:52:51.292Z</time></trkpt><trkpt lat="43.01799" lon="11.7818983"><ele>554.6</ele><time>2026-04-26T13:52:52.297Z</time></trkpt><trkpt lat="43.0180767" lon="11.7818167"><ele>554.0</ele><time>2026-04-26T13:52:53.292Z</time></trkpt><trkpt lat="43.018155" lon="11.781725"><ele>554.0</ele><time>2026-04-26T13:52:54.294Z</time></trkpt><trkpt lat="43.0182317" lon="11.7816267"><ele>554.0</ele><time>2026-04-26T13:52:55.293Z</time></trkpt><trkpt lat="43.018305" lon="11.78153"><ele>554.0</ele><time>2026-04-26T13:52:56.293Z</time></trkpt><trkpt lat="43.0183733" lon="11.78142"><ele>554.0</ele><time>2026-04-26T13:52:57.292Z</time></trkpt><trkpt lat="43.01844" lon="11.7813117"><ele>554.0</ele><time>2026-04-26T13:52:58.292Z</time></trkpt><trkpt lat="43.0185133" lon="11.7812067"><ele>555.0</ele><time>2026-04-26T13:52:59.295Z</time></trkpt><trkpt lat="43.01859" lon="11.781105"><ele>556.0</ele><time>2026-04-26T13:53:00.293Z</time></trkpt><trkpt lat="43.0186667" lon="11.7810033"><ele>557.0</ele><time>2026-04-26T13:53:01.295Z</time></trkpt><trkpt lat="43.0187517" lon="11.7809083"><ele>558.0</ele><time>2026-04-26T13:53:02.297Z</time></trkpt><trkpt lat="43.0188333" lon="11.78081"><ele>559.0</ele><time>2026-04-26T13:53:03.295Z</time></trkpt><trkpt lat="43.0189117" lon="11.780725"><ele>559.0</ele><time>2026-04-26T13:53:04.295Z</time></trkpt><trkpt lat="43.0189767" lon="11.780645"><ele>559.0</ele><time>2026-04-26T13:53:05.296Z</time></trkpt><trkpt lat="43.01904" lon="11.7805717"><ele>559.0</ele><time>2026-04-26T13:53:06.296Z</time></trkpt><trkpt lat="43.0190983" lon="11.7805017"><ele>559.0</ele><time>2026-04-26T13:53:07.295Z</time></trkpt><trkpt lat="43.019155" lon="11.7804417"><ele>559.0</ele><time>2026-04-26T13:53:08.295Z</time></trkpt><trkpt lat="43.0192133" lon="11.7803833"><ele>559.0</ele><time>2026-04-26T13:53:09.295Z</time></trkpt><trkpt lat="43.0192717" lon="11.780325"><ele>558.5</ele><time>2026-04-26T13:53:10.295Z</time></trkpt><trkpt lat="43.0193317" lon="11.7802683"><ele>558.0</ele><time>2026-04-26T13:53:11.295Z</time></trkpt><trkpt lat="43.01939" lon="11.7802083"><ele>557.5</ele><time>2026-04-26T13:53:12.296Z</time></trkpt><trkpt lat="43.0194483" lon="11.7801517"><ele>557.0</ele><time>2026-04-26T13:53:13.295Z</time></trkpt><trkpt lat="43.0195067" lon="11.7800867"><ele>556.5</ele><time>2026-04-26T13:53:14.297Z</time></trkpt><trkpt lat="43.0195717" lon="11.7800233"><ele>556.0</ele><time>2026-04-26T13:53:15.293Z</time></trkpt><trkpt lat="43.0196467" lon="11.77996"><ele>556.0</ele><time>2026-04-26T13:53:16.296Z</time></trkpt><trkpt lat="43.01973" lon="11.7798983"><ele>556.0</ele><time>2026-04-26T13:53:17.295Z</time></trkpt><trkpt lat="43.0198133" lon="11.7798383"><ele>556.0</ele><time>2026-04-26T13:53:18.295Z</time></trkpt><trkpt lat="43.0199" lon="11.77978"><ele>556.0</ele><time>2026-04-26T13:53:19.295Z</time></trkpt><trkpt lat="43.0199917" lon="11.7797317"><ele>556.0</ele><time>2026-04-26T13:53:20.296Z</time></trkpt><trkpt lat="43.0200767" lon="11.7796983"><ele>556.8571428571429</ele><time>2026-04-26T13:53:21.295Z</time></trkpt><trkpt lat="43.0201533" lon="11.77968"><ele>557.7142857142858</ele><time>2026-04-26T13:53:22.292Z</time></trkpt><trkpt lat="43.0202267" lon="11.7796783"><ele>558.5714285714287</ele><time>2026-04-26T13:53:23.293Z</time></trkpt><trkpt lat="43.0202967" lon="11.7796917"><ele>559.4285714285714</ele><time>2026-04-26T13:53:24.295Z</time></trkpt><trkpt lat="43.0203583" lon="11.77973"><ele>560.2857142857143</ele><time>2026-04-26T13:53:25.293Z</time></trkpt><trkpt lat="43.0204217" lon="11.7797667"><ele>561.1428571428572</ele><time>2026-04-26T13:53:26.298Z</time></trkpt><trkpt lat="43.0204917" lon="11.7797933"><ele>562.0</ele><time>2026-04-26T13:53:27.292Z</time></trkpt><trkpt lat="43.020555" lon="11.7797933"><ele>562.0</ele><time>2026-04-26T13:53:28.297Z</time></trkpt><trkpt lat="43.0206567" lon="11.7797233"><ele>562.0</ele><time>2026-04-26T13:53:30.296Z</time></trkpt><trkpt lat="43.0207633" lon="11.7796283"><ele>562.0</ele><time>2026-04-26T13:53:32.297Z</time></trkpt><trkpt lat="43.0208283" lon="11.7795783"><ele>562.0</ele><time>2026-04-26T13:53:33.295Z</time></trkpt><trkpt lat="43.0209067" lon="11.779525"><ele>562.0</ele><time>2026-04-26T13:53:34.295Z</time></trkpt><trkpt lat="43.0209983" lon="11.7794683"><ele>562.6</ele><time>2026-04-26T13:53:35.295Z</time></trkpt><trkpt lat="43.0210967" lon="11.7794233"><ele>563.2</ele><time>2026-04-26T13:53:36.295Z</time></trkpt><trkpt lat="43.0211933" lon="11.7793817"><ele>563.8</ele><time>2026-04-26T13:53:37.298Z</time></trkpt><trkpt lat="43.02129" lon="11.7793533"><ele>564.4</ele><time>2026-04-26T13:53:38.296Z</time></trkpt><trkpt lat="43.0213833" lon="11.7793183"><ele>565.0</ele><time>2026-04-26T13:53:39.297Z</time></trkpt><trkpt lat="43.02147" lon="11.7792633"><ele>562.0</ele><time>2026-04-26T13:53:40.293Z</time></trkpt><trkpt lat="43.021555" lon="11.7791867"><ele>559.0</ele><time>2026-04-26T13:53:41.296Z</time></trkpt><trkpt lat="43.0216417" lon="11.7791017"><ele>556.0</ele><time>2026-04-26T13:53:42.295Z</time></trkpt><trkpt lat="43.0217283" lon="11.779015"><ele>553.0</ele><time>2026-04-26T13:53:43.292Z</time></trkpt><trkpt lat="43.02181" lon="11.7789333"><ele>550.0</ele><time>2026-04-26T13:53:44.296Z</time></trkpt><trkpt lat="43.0218933" lon="11.7788517"><ele>550.0</ele><time>2026-04-26T13:53:45.293Z</time></trkpt><trkpt lat="43.021975" lon="11.7787667"><ele>550.0</ele><time>2026-04-26T13:53:46.296Z</time></trkpt><trkpt lat="43.0220467" lon="11.778675"><ele>550.0</ele><time>2026-04-26T13:53:47.295Z</time></trkpt><trkpt lat="43.0221117" lon="11.7785833"><ele>550.0</ele><time>2026-04-26T13:53:48.296Z</time></trkpt><trkpt lat="43.0221667" lon="11.7784817"><ele>550.0</ele><time>2026-04-26T13:53:49.295Z</time></trkpt><trkpt lat="43.0222183" lon="11.778385"><ele>548.2</ele><time>2026-04-26T13:53:50.296Z</time></trkpt><trkpt lat="43.0222683" lon="11.7782867"><ele>546.4</ele><time>2026-04-26T13:53:51.295Z</time></trkpt><trkpt lat="43.0223333" lon="11.778205"><ele>544.6</ele><time>2026-04-26T13:53:52.292Z</time></trkpt><trkpt lat="43.0224067" lon="11.7781317"><ele>542.8</ele><time>2026-04-26T13:53:53.294Z</time></trkpt><trkpt lat="43.0224883" lon="11.778065"><ele>541.0</ele><time>2026-04-26T13:53:54.295Z</time></trkpt><trkpt lat="43.0225767" lon="11.778"><ele>541.0</ele><time>2026-04-26T13:53:55.293Z</time></trkpt><trkpt lat="43.0226683" lon="11.77794"><ele>541.0</ele><time>2026-04-26T13:53:56.294Z</time></trkpt><trkpt lat="43.022755" lon="11.77788"><ele>541.0</ele><time>2026-04-26T13:53:57.296Z</time></trkpt><trkpt lat="43.022835" lon="11.7778217"><ele>541.0</ele><time>2026-04-26T13:53:58.296Z</time></trkpt><trkpt lat="43.0229133" lon="11.7777717"><ele>541.0</ele><time>2026-04-26T13:53:59.294Z</time></trkpt><trkpt lat="43.0229817" lon="11.777725"><ele>541.0</ele><time>2026-04-26T13:54:00.296Z</time></trkpt><trkpt lat="43.0230417" lon="11.7776833"><ele>541.0</ele><time>2026-04-26T13:54:01.293Z</time></trkpt><trkpt lat="43.02316" lon="11.77767"><ele>541.0</ele><time>2026-04-26T13:54:03.295Z</time></trkpt><trkpt lat="43.0232767" lon="11.777725"><ele>541.0</ele><time>2026-04-26T13:54:05.297Z</time></trkpt><trkpt lat="43.0233367" lon="11.7777567"><ele>541.0</ele><time>2026-04-26T13:54:06.295Z</time></trkpt><trkpt lat="43.0234583" lon="11.7777867"><ele>542.5714285714287</ele><time>2026-04-26T13:54:08.296Z</time></trkpt><trkpt lat="43.0235267" lon="11.7777933"><ele>544.1428571428571</ele><time>2026-04-26T13:54:09.296Z</time></trkpt><trkpt lat="43.0236" lon="11.7777917"><ele>545.7142857142858</ele><time>2026-04-26T13:54:10.293Z</time></trkpt><trkpt lat="43.0236717" lon="11.7777833"><ele>547.2857142857143</ele><time>2026-04-26T13:54:11.296Z</time></trkpt><trkpt lat="43.0237483" lon="11.777775"><ele>548.8571428571429</ele><time>2026-04-26T13:54:12.296Z</time></trkpt><trkpt lat="43.0238233" lon="11.7777783"><ele>550.4285714285714</ele><time>2026-04-26T13:54:13.297Z</time></trkpt><trkpt lat="43.0238967" lon="11.7778017"><ele>552.0</ele><time>2026-04-26T13:54:14.296Z</time></trkpt><trkpt lat="43.02396" lon="11.777825"><ele>552.0</ele><time>2026-04-26T13:54:15.295Z</time></trkpt><trkpt lat="43.024065" lon="11.7779133"><ele>552.0</ele><time>2026-04-26T13:54:17.297Z</time></trkpt><trkpt lat="43.0241433" lon="11.7780483"><ele>552.0</ele><time>2026-04-26T13:54:19.297Z</time></trkpt><trkpt lat="43.0241817" lon="11.7781233"><ele>552.0</ele><time>2026-04-26T13:54:20.296Z</time></trkpt><trkpt lat="43.0242233" lon="11.7782017"><ele>552.0</ele><time>2026-04-26T13:54:21.292Z</time></trkpt><trkpt lat="43.02427" lon="11.7782783"><ele>551.6</ele><time>2026-04-26T13:54:22.297Z</time></trkpt><trkpt lat="43.0243167" lon="11.77835"><ele>551.2</ele><time>2026-04-26T13:54:23.293Z</time></trkpt><trkpt lat="43.0244033" lon="11.778465"><ele>550.8</ele><time>2026-04-26T13:54:25.294Z</time></trkpt><trkpt lat="43.0244867" lon="11.7785117"><ele>550.4</ele><time>2026-04-26T13:54:27.296Z</time></trkpt><trkpt lat="43.024595" lon="11.77846"><ele>550.0</ele><time>2026-04-26T13:54:29.296Z</time></trkpt><trkpt lat="43.0246833" lon="11.7783433"><ele>550.0</ele><time>2026-04-26T13:54:31.297Z</time></trkpt><trkpt lat="43.0247683" lon="11.7782483"><ele>550.0</ele><time>2026-04-26T13:54:33.296Z</time></trkpt><trkpt lat="43.0248367" lon="11.77819"><ele>550.0</ele><time>2026-04-26T13:54:35.297Z</time></trkpt><trkpt lat="43.0248967" lon="11.77814"><ele>550.0</ele><time>2026-04-26T13:54:37.295Z</time></trkpt><trkpt lat="43.024985" lon="11.77812"><ele>550.0</ele><time>2026-04-26T13:56:17.295Z</time></trkpt><trkpt lat="43.02507" lon="11.7781333"><ele>550.0</ele><time>2026-04-26T13:56:43.295Z</time></trkpt><trkpt lat="43.0251767" lon="11.7781333"><ele>550.2</ele><time>2026-04-26T13:56:51.295Z</time></trkpt><trkpt lat="43.0253" lon="11.7781383"><ele>550.4</ele><time>2026-04-26T13:56:53.295Z</time></trkpt><trkpt lat="43.025365" lon="11.7781433"><ele>550.6</ele><time>2026-04-26T13:56:54.295Z</time></trkpt><trkpt lat="43.0254917" lon="11.7781267"><ele>550.8</ele><time>2026-04-26T13:56:56.295Z</time></trkpt><trkpt lat="43.02561" lon="11.7780883"><ele>551.0</ele><time>2026-04-26T13:56:58.293Z</time></trkpt><trkpt lat="43.02572" lon="11.7780433"><ele>552.6</ele><time>2026-04-26T13:57:00.293Z</time></trkpt><trkpt lat="43.0258233" lon="11.77798"><ele>554.2</ele><time>2026-04-26T13:57:02.293Z</time></trkpt><trkpt lat="43.025925" lon="11.7778883"><ele>555.8</ele><time>2026-04-26T13:57:04.293Z</time></trkpt><trkpt lat="43.02598" lon="11.7778367"><ele>557.4</ele><time>2026-04-26T13:57:05.293Z</time></trkpt><trkpt lat="43.0260467" lon="11.77777"><ele>559.0</ele><time>2026-04-26T13:57:06.292Z</time></trkpt><trkpt lat="43.0261133" lon="11.7777"><ele>557.3333333333334</ele><time>2026-04-26T13:57:07.293Z</time></trkpt><trkpt lat="43.0261783" lon="11.7776383"><ele>555.6666666666667</ele><time>2026-04-26T13:57:08.292Z</time></trkpt><trkpt lat="43.0262383" lon="11.7775617"><ele>554.0</ele><time>2026-04-26T13:57:09.293Z</time></trkpt><trkpt lat="43.026305" lon="11.777495"><ele>552.3333333333334</ele><time>2026-04-26T13:57:10.293Z</time></trkpt><trkpt lat="43.0263733" lon="11.777435"><ele>550.6666666666666</ele><time>2026-04-26T13:57:11.293Z</time></trkpt><trkpt lat="43.0264383" lon="11.777395"><ele>549.0</ele><time>2026-04-26T13:57:12.293Z</time></trkpt><trkpt lat="43.0265117" lon="11.7773783"><ele>549.0</ele><time>2026-04-26T13:57:13.293Z</time></trkpt><trkpt lat="43.026595" lon="11.777365"><ele>549.0</ele><time>2026-04-26T13:57:14.293Z</time></trkpt><trkpt lat="43.0266817" lon="11.7773467"><ele>549.0</ele><time>2026-04-26T13:57:15.295Z</time></trkpt><trkpt lat="43.0267667" lon="11.7773183"><ele>549.0</ele><time>2026-04-26T13:57:16.295Z</time></trkpt><trkpt lat="43.026855" lon="11.7772867"><ele>549.0</ele><time>2026-04-26T13:57:17.296Z</time></trkpt><trkpt lat="43.026945" lon="11.7772617"><ele>549.0</ele><time>2026-04-26T13:57:18.292Z</time></trkpt><trkpt lat="43.0270417" lon="11.7772383"><ele>551.4</ele><time>2026-04-26T13:57:19.296Z</time></trkpt><trkpt lat="43.0271433" lon="11.7772333"><ele>553.8</ele><time>2026-04-26T13:57:20.295Z</time></trkpt><trkpt lat="43.0272433" lon="11.77724"><ele>556.2</ele><time>2026-04-26T13:57:21.295Z</time></trkpt><trkpt lat="43.02734" lon="11.77726"><ele>558.6</ele><time>2026-04-26T13:57:22.296Z</time></trkpt><trkpt lat="43.0274367" lon="11.7772867"><ele>561.0</ele><time>2026-04-26T13:57:23.295Z</time></trkpt><trkpt lat="43.027535" lon="11.777335"><ele>561.0</ele><time>2026-04-26T13:57:24.295Z</time></trkpt><trkpt lat="43.0276283" lon="11.7773833"><ele>561.0</ele><time>2026-04-26T13:57:25.297Z</time></trkpt><trkpt lat="43.027725" lon="11.7774283"><ele>561.0</ele><time>2026-04-26T13:57:26.296Z</time></trkpt><trkpt lat="43.02783" lon="11.7774617"><ele>561.0</ele><time>2026-04-26T13:57:27.295Z</time></trkpt><trkpt lat="43.0279417" lon="11.77748"><ele>561.0</ele><time>2026-04-26T13:57:28.295Z</time></trkpt><trkpt lat="43.028055" lon="11.7774917"><ele>561.0</ele><time>2026-04-26T13:57:29.296Z</time></trkpt><trkpt lat="43.0281683" lon="11.7774983"><ele>561.0</ele><time>2026-04-26T13:57:30.296Z</time></trkpt><trkpt lat="43.0282767" lon="11.7775017"><ele>561.0</ele><time>2026-04-26T13:57:31.295Z</time></trkpt><trkpt lat="43.02838" lon="11.7775"><ele>561.0</ele><time>2026-04-26T13:57:32.297Z</time></trkpt><trkpt lat="43.0284883" lon="11.777495"><ele>561.0</ele><time>2026-04-26T13:57:33.296Z</time></trkpt><trkpt lat="43.0286" lon="11.7774917"><ele>559.0</ele><time>2026-04-26T13:57:34.296Z</time></trkpt><trkpt lat="43.0287183" lon="11.777475"><ele>557.0</ele><time>2026-04-26T13:57:35.295Z</time></trkpt><trkpt lat="43.0288417" lon="11.77747"><ele>555.0</ele><time>2026-04-26T13:57:36.295Z</time></trkpt><trkpt lat="43.028965" lon="11.7774667"><ele>553.0</ele><time>2026-04-26T13:57:37.296Z</time></trkpt><trkpt lat="43.0290933" lon="11.77747"><ele>553.25</ele><time>2026-04-26T13:57:38.296Z</time></trkpt><trkpt lat="43.0292183" lon="11.777475"><ele>553.5</ele><time>2026-04-26T13:57:39.296Z</time></trkpt><trkpt lat="43.0293433" lon="11.7774767"><ele>553.75</ele><time>2026-04-26T13:57:40.295Z</time></trkpt><trkpt lat="43.0294617" lon="11.7774833"><ele>554.0</ele><time>2026-04-26T13:57:41.295Z</time></trkpt><trkpt lat="43.0295767" lon="11.7774883"><ele>554.0</ele><time>2026-04-26T13:57:42.295Z</time></trkpt><trkpt lat="43.0296883" lon="11.7774933"><ele>554.0</ele><time>2026-04-26T13:57:43.296Z</time></trkpt><trkpt lat="43.0297967" lon="11.7774917"><ele>554.0</ele><time>2026-04-26T13:57:44.296Z</time></trkpt><trkpt lat="43.0299067" lon="11.7774917"><ele>554.0</ele><time>2026-04-26T13:57:45.295Z</time></trkpt><trkpt lat="43.03002" lon="11.777495"><ele>554.0</ele><time>2026-04-26T13:57:46.297Z</time></trkpt><trkpt lat="43.03013" lon="11.7774967"><ele>555.4</ele><time>2026-04-26T13:57:47.296Z</time></trkpt><trkpt lat="43.03024" lon="11.7775067"><ele>556.8</ele><time>2026-04-26T13:57:48.295Z</time></trkpt><trkpt lat="43.0303483" lon="11.77752"><ele>558.2</ele><time>2026-04-26T13:57:49.292Z</time></trkpt><trkpt lat="43.03045" lon="11.777525"><ele>559.6</ele><time>2026-04-26T13:57:50.293Z</time></trkpt><trkpt lat="43.030545" lon="11.7775133"><ele>561.0</ele><time>2026-04-26T13:57:51.292Z</time></trkpt><trkpt lat="43.0306433" lon="11.777485"><ele>561.0</ele><time>2026-04-26T13:57:52.292Z</time></trkpt><trkpt lat="43.0307433" lon="11.7774433"><ele>561.0</ele><time>2026-04-26T13:57:53.294Z</time></trkpt><trkpt lat="43.03084" lon="11.77739"><ele>561.0</ele><time>2026-04-26T13:57:54.292Z</time></trkpt><trkpt lat="43.030935" lon="11.7773333"><ele>561.0</ele><time>2026-04-26T13:57:55.292Z</time></trkpt><trkpt lat="43.0310233" lon="11.7772517"><ele>561.0</ele><time>2026-04-26T13:57:56.293Z</time></trkpt><trkpt lat="43.0311133" lon="11.777165"><ele>560.3333333333334</ele><time>2026-04-26T13:57:57.292Z</time></trkpt><trkpt lat="43.0311983" lon="11.777085"><ele>559.6666666666666</ele><time>2026-04-26T13:57:58.294Z</time></trkpt><trkpt lat="43.031285" lon="11.777015"><ele>559.0</ele><time>2026-04-26T13:57:59.294Z</time></trkpt><trkpt lat="43.0313617" lon="11.77696"><ele>558.3333333333333</ele><time>2026-04-26T13:58:00.293Z</time></trkpt><trkpt lat="43.0314283" lon="11.7769083"><ele>557.6666666666666</ele><time>2026-04-26T13:58:01.293Z</time></trkpt><trkpt lat="43.0314883" lon="11.7768533"><ele>557.0</ele><time>2026-04-26T13:58:02.293Z</time></trkpt><trkpt lat="43.0315467" lon="11.7768033"><ele>557.0</ele><time>2026-04-26T13:58:03.292Z</time></trkpt><trkpt lat="43.0316017" lon="11.7767483"><ele>557.0</ele><time>2026-04-26T13:58:04.292Z</time></trkpt><trkpt lat="43.03166" lon="11.776695"><ele>557.0</ele><time>2026-04-26T13:58:05.295Z</time></trkpt><trkpt lat="43.0317217" lon="11.7766433"><ele>557.0</ele><time>2026-04-26T13:58:06.293Z</time></trkpt><trkpt lat="43.0317833" lon="11.7765967"><ele>557.0</ele><time>2026-04-26T13:58:07.296Z</time></trkpt><trkpt lat="43.0318433" lon="11.77654"><ele>557.0</ele><time>2026-04-26T13:58:08.295Z</time></trkpt><trkpt lat="43.0319" lon="11.7764833"><ele>557.0</ele><time>2026-04-26T13:58:09.296Z</time></trkpt><trkpt lat="43.0319983" lon="11.7764183"><ele>560.5</ele><time>2026-04-26T13:58:11.295Z</time></trkpt><trkpt lat="43.0320817" lon="11.776425"><ele>564.0</ele><time>2026-04-26T13:58:13.298Z</time></trkpt><trkpt lat="43.0321533" lon="11.7764967"><ele>567.5</ele><time>2026-04-26T13:58:15.296Z</time></trkpt><trkpt lat="43.032225" lon="11.7765667"><ele>571.0</ele><time>2026-04-26T13:58:17.295Z</time></trkpt><trkpt lat="43.0323" lon="11.7765333"><ele>574.5</ele><time>2026-04-26T13:58:19.294Z</time></trkpt><trkpt lat="43.0323867" lon="11.7764433"><ele>578.0</ele><time>2026-04-26T13:58:21.292Z</time></trkpt><trkpt lat="43.0324433" lon="11.776385"><ele>578.0</ele><time>2026-04-26T13:58:22.293Z</time></trkpt><trkpt lat="43.0325033" lon="11.7763267"><ele>578.0</ele><time>2026-04-26T13:58:23.293Z</time></trkpt><trkpt lat="43.0325633" lon="11.7762483"><ele>578.0</ele><time>2026-04-26T13:58:24.293Z</time></trkpt><trkpt lat="43.03262" lon="11.7761583"><ele>578.0</ele><time>2026-04-26T13:58:25.296Z</time></trkpt><trkpt lat="43.0326783" lon="11.776075"><ele>578.0</ele><time>2026-04-26T13:58:26.296Z</time></trkpt><trkpt lat="43.0327367" lon="11.7759933"><ele>578.0</ele><time>2026-04-26T13:58:27.292Z</time></trkpt><trkpt lat="43.0328017" lon="11.7759183"><ele>578.0</ele><time>2026-04-26T13:58:28.295Z</time></trkpt><trkpt lat="43.0328733" lon="11.7758617"><ele>578.0</ele><time>2026-04-26T13:58:29.295Z</time></trkpt><trkpt lat="43.0329517" lon="11.7758283"><ele>578.0</ele><time>2026-04-26T13:58:30.296Z</time></trkpt><trkpt lat="43.0330367" lon="11.7757967"><ele>578.0</ele><time>2026-04-26T13:58:31.295Z</time></trkpt><trkpt lat="43.0331333" lon="11.77578"><ele>578.0</ele><time>2026-04-26T13:58:32.293Z</time></trkpt><trkpt lat="43.0332283" lon="11.7757617"><ele>578.0</ele><time>2026-04-26T13:58:33.297Z</time></trkpt><trkpt lat="43.0333233" lon="11.7757383"><ele>577.0</ele><time>2026-04-26T13:58:34.295Z</time></trkpt><trkpt lat="43.0334167" lon="11.775715"><ele>576.0</ele><time>2026-04-26T13:58:35.296Z</time></trkpt><trkpt lat="43.0335033" lon="11.7757033"><ele>575.0</ele><time>2026-04-26T13:58:36.298Z</time></trkpt><trkpt lat="43.03358" lon="11.7757017"><ele>574.0</ele><time>2026-04-26T13:58:37.296Z</time></trkpt><trkpt lat="43.0336617" lon="11.7757417"><ele>573.0</ele><time>2026-04-26T13:58:38.297Z</time></trkpt><trkpt lat="43.0337317" lon="11.7757917"><ele>572.0</ele><time>2026-04-26T13:58:39.296Z</time></trkpt><trkpt lat="43.033805" lon="11.7758867"><ele>572.0</ele><time>2026-04-26T13:58:40.295Z</time></trkpt><trkpt lat="43.0338717" lon="11.7760183"><ele>572.0</ele><time>2026-04-26T13:58:41.296Z</time></trkpt><trkpt lat="43.0339117" lon="11.7761567"><ele>572.0</ele><time>2026-04-26T13:58:42.295Z</time></trkpt><trkpt lat="43.0339433" lon="11.77631"><ele>572.0</ele><time>2026-04-26T13:58:43.296Z</time></trkpt><trkpt lat="43.0339567" lon="11.7764633"><ele>570.75</ele><time>2026-04-26T13:58:44.299Z</time></trkpt><trkpt lat="43.0339583" lon="11.77662"><ele>569.5</ele><time>2026-04-26T13:58:45.297Z</time></trkpt><trkpt lat="43.03395" lon="11.7767767"><ele>568.25</ele><time>2026-04-26T13:58:46.295Z</time></trkpt><trkpt lat="43.0339367" lon="11.77693"><ele>567.0</ele><time>2026-04-26T13:58:47.292Z</time></trkpt><trkpt lat="43.0339233" lon="11.777095"><ele>567.0</ele><time>2026-04-26T13:58:48.292Z</time></trkpt><trkpt lat="43.033915" lon="11.7772567"><ele>567.0</ele><time>2026-04-26T13:58:49.292Z</time></trkpt><trkpt lat="43.033915" lon="11.7774183"><ele>567.0</ele><time>2026-04-26T13:58:50.292Z</time></trkpt><trkpt lat="43.03392" lon="11.7775783"><ele>567.0</ele><time>2026-04-26T13:58:51.292Z</time></trkpt><trkpt lat="43.0339317" lon="11.7777383"><ele>567.5</ele><time>2026-04-26T13:58:52.293Z</time></trkpt><trkpt lat="43.0339467" lon="11.7779083"><ele>568.0</ele><time>2026-04-26T13:58:53.293Z</time></trkpt><trkpt lat="43.0339633" lon="11.7780717"><ele>568.5</ele><time>2026-04-26T13:58:54.296Z</time></trkpt><trkpt lat="43.0339817" lon="11.7782317"><ele>569.0</ele><time>2026-04-26T13:58:55.296Z</time></trkpt><trkpt lat="43.034005" lon="11.77839"><ele>569.75</ele><time>2026-04-26T13:58:56.297Z</time></trkpt><trkpt lat="43.0340317" lon="11.7785517"><ele>570.5</ele><time>2026-04-26T13:58:57.296Z</time></trkpt><trkpt lat="43.03406" lon="11.7787133"><ele>571.25</ele><time>2026-04-26T13:58:58.297Z</time></trkpt><trkpt lat="43.0340933" lon="11.7788767"><ele>572.0</ele><time>2026-04-26T13:58:59.296Z</time></trkpt><trkpt lat="43.0341283" lon="11.7790367"><ele>575.0</ele><time>2026-04-26T13:59:00.297Z</time></trkpt><trkpt lat="43.0341667" lon="11.7791967"><ele>578.0</ele><time>2026-04-26T13:59:01.296Z</time></trkpt><trkpt lat="43.034205" lon="11.7793567"><ele>581.0</ele><time>2026-04-26T13:59:02.301Z</time></trkpt><trkpt lat="43.0342417" lon="11.7795133"><ele>584.0</ele><time>2026-04-26T13:59:03.295Z</time></trkpt><trkpt lat="43.0342817" lon="11.7796667"><ele>585.5</ele><time>2026-04-26T13:59:04.297Z</time></trkpt><trkpt lat="43.0343267" lon="11.7798233"><ele>587.0</ele><time>2026-04-26T13:59:05.295Z</time></trkpt><trkpt lat="43.0343717" lon="11.77998"><ele>588.5</ele><time>2026-04-26T13:59:06.295Z</time></trkpt><trkpt lat="43.03442" lon="11.7801283"><ele>590.0</ele><time>2026-04-26T13:59:07.295Z</time></trkpt><trkpt lat="43.0344767" lon="11.78027"><ele>591.75</ele><time>2026-04-26T13:59:08.296Z</time></trkpt><trkpt lat="43.0345383" lon="11.7804033"><ele>593.5</ele><time>2026-04-26T13:59:09.297Z</time></trkpt><trkpt lat="43.034615" lon="11.7805283"><ele>595.25</ele><time>2026-04-26T13:59:10.295Z</time></trkpt><trkpt lat="43.0347" lon="11.7806433"><ele>597.0</ele><time>2026-04-26T13:59:11.298Z</time></trkpt><trkpt lat="43.034795" lon="11.780745"><ele>597.0</ele><time>2026-04-26T13:59:12.296Z</time></trkpt><trkpt lat="43.034895" lon="11.7808367"><ele>597.0</ele><time>2026-04-26T13:59:13.296Z</time></trkpt><trkpt lat="43.0350033" lon="11.78092"><ele>597.0</ele><time>2026-04-26T13:59:14.297Z</time></trkpt><trkpt lat="43.0351117" lon="11.780985"><ele>597.0</ele><time>2026-04-26T13:59:15.295Z</time></trkpt><trkpt lat="43.0352217" lon="11.78104"><ele>600.75</ele><time>2026-04-26T13:59:16.295Z</time></trkpt><trkpt lat="43.0353317" lon="11.7810867"><ele>604.5</ele><time>2026-04-26T13:59:17.294Z</time></trkpt><trkpt lat="43.035445" lon="11.7811233"><ele>608.25</ele><time>2026-04-26T13:59:18.293Z</time></trkpt><trkpt lat="43.0355583" lon="11.781155"><ele>612.0</ele><time>2026-04-26T13:59:19.292Z</time></trkpt><trkpt lat="43.0356767" lon="11.78118"><ele>612.0</ele><time>2026-04-26T13:59:20.293Z</time></trkpt><trkpt lat="43.0357967" lon="11.7812"><ele>612.0</ele><time>2026-04-26T13:59:21.293Z</time></trkpt><trkpt lat="43.0359167" lon="11.781215"><ele>612.0</ele><time>2026-04-26T13:59:22.297Z</time></trkpt><trkpt lat="43.036035" lon="11.7812217"><ele>612.0</ele><time>2026-04-26T13:59:23.296Z</time></trkpt><trkpt lat="43.0361533" lon="11.781225"><ele>613.0</ele><time>2026-04-26T13:59:24.295Z</time></trkpt><trkpt lat="43.0362667" lon="11.7812233"><ele>614.0</ele><time>2026-04-26T13:59:25.297Z</time></trkpt><trkpt lat="43.036375" lon="11.7812233"><ele>615.0</ele><time>2026-04-26T13:59:26.296Z</time></trkpt><trkpt lat="43.0364833" lon="11.7812167"><ele>616.0</ele><time>2026-04-26T13:59:27.297Z</time></trkpt><trkpt lat="43.0365883" lon="11.781185"><ele>617.0</ele><time>2026-04-26T13:59:28.297Z</time></trkpt><trkpt lat="43.036685" lon="11.7811267"><ele>616.2</ele><time>2026-04-26T13:59:29.293Z</time></trkpt><trkpt lat="43.03678" lon="11.7810683"><ele>615.4000000000001</ele><time>2026-04-26T13:59:30.296Z</time></trkpt><trkpt lat="43.03688" lon="11.78101"><ele>614.5999999999999</ele><time>2026-04-26T13:59:31.296Z</time></trkpt><trkpt lat="43.0369783" lon="11.7809567"><ele>613.8</ele><time>2026-04-26T13:59:32.297Z</time></trkpt><trkpt lat="43.037075" lon="11.7808967"><ele>613.0</ele><time>2026-04-26T13:59:33.295Z</time></trkpt><trkpt lat="43.0371717" lon="11.780835"><ele>613.0</ele><time>2026-04-26T13:59:34.295Z</time></trkpt><trkpt lat="43.0372683" lon="11.7807733"><ele>613.0</ele><time>2026-04-26T13:59:35.295Z</time></trkpt><trkpt lat="43.037365" lon="11.7807117"><ele>613.0</ele><time>2026-04-26T13:59:36.295Z</time></trkpt><trkpt lat="43.0374617" lon="11.7806517"><ele>613.0</ele><time>2026-04-26T13:59:37.296Z</time></trkpt><trkpt lat="43.0375617" lon="11.7806"><ele>613.0</ele><time>2026-04-26T13:59:38.296Z</time></trkpt><trkpt lat="43.037665" lon="11.78055"><ele>615.25</ele><time>2026-04-26T13:59:39.296Z</time></trkpt><trkpt lat="43.03777" lon="11.7804933"><ele>617.5</ele><time>2026-04-26T13:59:40.296Z</time></trkpt><trkpt lat="43.037875" lon="11.7804367"><ele>619.75</ele><time>2026-04-26T13:59:41.297Z</time></trkpt><trkpt lat="43.0379833" lon="11.78038"><ele>622.0</ele><time>2026-04-26T13:59:42.297Z</time></trkpt><trkpt lat="43.0380883" lon="11.7803217"><ele>622.0</ele><time>2026-04-26T13:59:43.296Z</time></trkpt><trkpt lat="43.038195" lon="11.7802583"><ele>622.0</ele><time>2026-04-26T13:59:44.294Z</time></trkpt><trkpt lat="43.0382983" lon="11.7801917"><ele>622.0</ele><time>2026-04-26T13:59:45.297Z</time></trkpt><trkpt lat="43.0384033" lon="11.7801283"><ele>622.0</ele><time>2026-04-26T13:59:46.293Z</time></trkpt><trkpt lat="43.0385067" lon="11.7800633"><ele>621.8000000000001</ele><time>2026-04-26T13:59:47.297Z</time></trkpt><trkpt lat="43.0386167" lon="11.78"><ele>621.6</ele><time>2026-04-26T13:59:48.293Z</time></trkpt><trkpt lat="43.0387217" lon="11.779935"><ele>621.4000000000001</ele><time>2026-04-26T13:59:49.296Z</time></trkpt><trkpt lat="43.0388117" lon="11.7798733"><ele>621.2</ele><time>2026-04-26T13:59:50.293Z</time></trkpt><trkpt lat="43.03889" lon="11.7798033"><ele>621.0</ele><time>2026-04-26T13:59:51.296Z</time></trkpt><trkpt lat="43.0389567" lon="11.7797117"><ele>621.0</ele><time>2026-04-26T13:59:52.297Z</time></trkpt><trkpt lat="43.0390133" lon="11.77961"><ele>621.0</ele><time>2026-04-26T13:59:53.296Z</time></trkpt><trkpt lat="43.03905" lon="11.7794883"><ele>621.0</ele><time>2026-04-26T13:59:54.295Z</time></trkpt><trkpt lat="43.0390667" lon="11.779355"><ele>621.0</ele><time>2026-04-26T13:59:55.293Z</time></trkpt><trkpt lat="43.03906" lon="11.7792167"><ele>621.0</ele><time>2026-04-26T13:59:56.293Z</time></trkpt><trkpt lat="43.039035" lon="11.7790833"><ele>620.8</ele><time>2026-04-26T13:59:57.297Z</time></trkpt><trkpt lat="43.038995" lon="11.7789483"><ele>620.6</ele><time>2026-04-26T13:59:58.292Z</time></trkpt><trkpt lat="43.0389483" lon="11.7788133"><ele>620.4</ele><time>2026-04-26T13:59:59.294Z</time></trkpt><trkpt lat="43.0389" lon="11.77868"><ele>620.2</ele><time>2026-04-26T14:00:00.293Z</time></trkpt><trkpt lat="43.038855" lon="11.7785417"><ele>620.0</ele><time>2026-04-26T14:00:01.294Z</time></trkpt><trkpt lat="43.0388067" lon="11.7784083"><ele>621.8</ele><time>2026-04-26T14:00:02.295Z</time></trkpt><trkpt lat="43.03876" lon="11.7782783"><ele>623.6</ele><time>2026-04-26T14:00:03.292Z</time></trkpt><trkpt lat="43.0387117" lon="11.7781483"><ele>625.4</ele><time>2026-04-26T14:00:04.293Z</time></trkpt><trkpt lat="43.0386717" lon="11.7780217"><ele>627.2</ele><time>2026-04-26T14:00:05.294Z</time></trkpt><trkpt lat="43.0386433" lon="11.7779"><ele>629.0</ele><time>2026-04-26T14:00:06.296Z</time></trkpt><trkpt lat="43.038635" lon="11.777785"><ele>630.2</ele><time>2026-04-26T14:00:07.294Z</time></trkpt><trkpt lat="43.0386367" lon="11.77768"><ele>631.4</ele><time>2026-04-26T14:00:08.293Z</time></trkpt><trkpt lat="43.038705" lon="11.7775417"><ele>632.6</ele><time>2026-04-26T14:00:10.293Z</time></trkpt><trkpt lat="43.0387717" lon="11.77751"><ele>633.8</ele><time>2026-04-26T14:00:11.296Z</time></trkpt><trkpt lat="43.038875" lon="11.77751"><ele>635.0</ele><time>2026-04-26T14:00:12.295Z</time></trkpt><trkpt lat="43.0389683" lon="11.7775117"><ele>635.0</ele><time>2026-04-26T14:00:13.296Z</time></trkpt><trkpt lat="43.03908" lon="11.777525"><ele>635.0</ele><time>2026-04-26T14:00:14.298Z</time></trkpt><trkpt lat="43.0391983" lon="11.7775383"><ele>635.0</ele><time>2026-04-26T14:00:15.297Z</time></trkpt><trkpt lat="43.0393233" lon="11.7775567"><ele>635.0</ele><time>2026-04-26T14:00:16.296Z</time></trkpt><trkpt lat="43.0394483" lon="11.7775717"><ele>636.75</ele><time>2026-04-26T14:00:17.296Z</time></trkpt><trkpt lat="43.03957" lon="11.7775833"><ele>638.5</ele><time>2026-04-26T14:00:18.299Z</time></trkpt><trkpt lat="43.03969" lon="11.7776017"><ele>640.25</ele><time>2026-04-26T14:00:19.296Z</time></trkpt><trkpt lat="43.0398133" lon="11.7776183"><ele>642.0</ele><time>2026-04-26T14:00:20.297Z</time></trkpt><trkpt lat="43.0399283" lon="11.7776333"><ele>641.6</ele><time>2026-04-26T14:00:21.297Z</time></trkpt><trkpt lat="43.0400417" lon="11.7776467"><ele>641.2</ele><time>2026-04-26T14:00:22.297Z</time></trkpt><trkpt lat="43.040155" lon="11.7776533"><ele>640.8</ele><time>2026-04-26T14:00:23.297Z</time></trkpt><trkpt lat="43.040265" lon="11.7776417"><ele>640.4</ele><time>2026-04-26T14:00:24.296Z</time></trkpt><trkpt lat="43.0403717" lon="11.7776067"><ele>640.0</ele><time>2026-04-26T14:00:25.296Z</time></trkpt><trkpt lat="43.0404717" lon="11.7775533"><ele>640.0</ele><time>2026-04-26T14:00:26.296Z</time></trkpt><trkpt lat="43.04057" lon="11.777485"><ele>640.0</ele><time>2026-04-26T14:00:27.298Z</time></trkpt><trkpt lat="43.040665" lon="11.7774133"><ele>640.0</ele><time>2026-04-26T14:00:28.295Z</time></trkpt><trkpt lat="43.0407583" lon="11.777335"><ele>640.0</ele><time>2026-04-26T14:00:29.293Z</time></trkpt><trkpt lat="43.04085" lon="11.7772533"><ele>640.0</ele><time>2026-04-26T14:00:30.296Z</time></trkpt><trkpt lat="43.040945" lon="11.777175"><ele>641.8</ele><time>2026-04-26T14:00:31.294Z</time></trkpt><trkpt lat="43.0410417" lon="11.7771067"><ele>643.6</ele><time>2026-04-26T14:00:32.294Z</time></trkpt><trkpt lat="43.0411333" lon="11.77705"><ele>645.4000000000001</ele><time>2026-04-26T14:00:33.292Z</time></trkpt><trkpt lat="43.041225" lon="11.7770117"><ele>647.2</ele><time>2026-04-26T14:00:34.296Z</time></trkpt><trkpt lat="43.041315" lon="11.777"><ele>649.0</ele><time>2026-04-26T14:00:35.294Z</time></trkpt><trkpt lat="43.0414067" lon="11.777"><ele>649.0</ele><time>2026-04-26T14:00:36.294Z</time></trkpt><trkpt lat="43.0415017" lon="11.7770183"><ele>649.0</ele><time>2026-04-26T14:00:37.294Z</time></trkpt><trkpt lat="43.0416017" lon="11.777055"><ele>649.0</ele><time>2026-04-26T14:00:38.293Z</time></trkpt><trkpt lat="43.0417" lon="11.7771017"><ele>649.0</ele><time>2026-04-26T14:00:39.293Z</time></trkpt><trkpt lat="43.041785" lon="11.7771783"><ele>649.0</ele><time>2026-04-26T14:00:40.294Z</time></trkpt><trkpt lat="43.0418767" lon="11.7772433"><ele>648.25</ele><time>2026-04-26T14:00:41.294Z</time></trkpt><trkpt lat="43.0419783" lon="11.77732"><ele>647.5</ele><time>2026-04-26T14:00:42.296Z</time></trkpt><trkpt lat="43.042085" lon="11.777385"><ele>646.75</ele><time>2026-04-26T14:00:43.296Z</time></trkpt><trkpt lat="43.0421867" lon="11.7774483"><ele>646.0</ele><time>2026-04-26T14:00:44.296Z</time></trkpt><trkpt lat="43.0422967" lon="11.7775033"><ele>646.0</ele><time>2026-04-26T14:00:45.297Z</time></trkpt><trkpt lat="43.0424067" lon="11.7775567"><ele>646.0</ele><time>2026-04-26T14:00:46.295Z</time></trkpt><trkpt lat="43.042515" lon="11.7775983"><ele>646.0</ele><time>2026-04-26T14:00:47.297Z</time></trkpt><trkpt lat="43.0426283" lon="11.77764"><ele>646.0</ele><time>2026-04-26T14:00:48.292Z</time></trkpt><trkpt lat="43.0427383" lon="11.7776717"><ele>644.75</ele><time>2026-04-26T14:00:49.297Z</time></trkpt><trkpt lat="43.042845" lon="11.77769"><ele>643.5</ele><time>2026-04-26T14:00:50.297Z</time></trkpt><trkpt lat="43.0429567" lon="11.7777067"><ele>642.25</ele><time>2026-04-26T14:00:51.296Z</time></trkpt><trkpt lat="43.0430733" lon="11.7777167"><ele>641.0</ele><time>2026-04-26T14:00:52.297Z</time></trkpt><trkpt lat="43.0431883" lon="11.77772"><ele>640.25</ele><time>2026-04-26T14:00:53.296Z</time></trkpt><trkpt lat="43.0433017" lon="11.7777133"><ele>639.5</ele><time>2026-04-26T14:00:54.296Z</time></trkpt><trkpt lat="43.0434167" lon="11.7776967"><ele>638.75</ele><time>2026-04-26T14:00:55.296Z</time></trkpt><trkpt lat="43.04353" lon="11.7776667"><ele>638.0</ele><time>2026-04-26T14:00:56.296Z</time></trkpt><trkpt lat="43.04364" lon="11.7776233"><ele>637.6</ele><time>2026-04-26T14:00:57.296Z</time></trkpt><trkpt lat="43.0437417" lon="11.7775617"><ele>637.1999999999999</ele><time>2026-04-26T14:00:58.296Z</time></trkpt><trkpt lat="43.0438417" lon="11.7774967"><ele>636.8</ele><time>2026-04-26T14:00:59.294Z</time></trkpt><trkpt lat="43.0439383" lon="11.7774233"><ele>636.4</ele><time>2026-04-26T14:01:00.294Z</time></trkpt><trkpt lat="43.0440333" lon="11.77735"><ele>636.0</ele><time>2026-04-26T14:01:01.293Z</time></trkpt><trkpt lat="43.0441233" lon="11.777275"><ele>636.0</ele><time>2026-04-26T14:01:02.297Z</time></trkpt><trkpt lat="43.0442117" lon="11.7772"><ele>636.0</ele><time>2026-04-26T14:01:03.297Z</time></trkpt><trkpt lat="43.044295" lon="11.77712"><ele>636.0</ele><time>2026-04-26T14:01:04.293Z</time></trkpt><trkpt lat="43.0443733" lon="11.7770333"><ele>636.0</ele><time>2026-04-26T14:01:05.294Z</time></trkpt><trkpt lat="43.0444483" lon="11.7769417"><ele>636.0</ele><time>2026-04-26T14:01:06.293Z</time></trkpt><trkpt lat="43.0445217" lon="11.776845"><ele>636.0</ele><time>2026-04-26T14:01:07.295Z</time></trkpt><trkpt lat="43.0445967" lon="11.7767467"><ele>636.0</ele><time>2026-04-26T14:01:08.293Z</time></trkpt><trkpt lat="43.04467" lon="11.77664"><ele>636.0</ele><time>2026-04-26T14:01:09.292Z</time></trkpt><trkpt lat="43.044745" lon="11.7765333"><ele>636.0</ele><time>2026-04-26T14:01:10.293Z</time></trkpt><trkpt lat="43.0448183" lon="11.7764267"><ele>636.0</ele><time>2026-04-26T14:01:11.297Z</time></trkpt><trkpt lat="43.0448933" lon="11.7763167"><ele>635.4</ele><time>2026-04-26T14:01:12.298Z</time></trkpt><trkpt lat="43.0449717" lon="11.7762067"><ele>634.8</ele><time>2026-04-26T14:01:13.296Z</time></trkpt><trkpt lat="43.0450533" lon="11.7761017"><ele>634.1999999999999</ele><time>2026-04-26T14:01:14.296Z</time></trkpt><trkpt lat="43.0451367" lon="11.7760017"><ele>633.6</ele><time>2026-04-26T14:01:15.296Z</time></trkpt><trkpt lat="43.04522" lon="11.775905"><ele>633.0</ele><time>2026-04-26T14:01:16.296Z</time></trkpt><trkpt lat="43.04531" lon="11.7758167"><ele>633.6</ele><time>2026-04-26T14:01:17.294Z</time></trkpt><trkpt lat="43.045405" lon="11.7757467"><ele>634.1999999999999</ele><time>2026-04-26T14:01:18.292Z</time></trkpt><trkpt lat="43.0455067" lon="11.7756983"><ele>634.8</ele><time>2026-04-26T14:01:19.296Z</time></trkpt><trkpt lat="43.0456117" lon="11.7756667"><ele>635.4</ele><time>2026-04-26T14:01:20.293Z</time></trkpt><trkpt lat="43.0457167" lon="11.7756433"><ele>636.0</ele><time>2026-04-26T14:01:21.291Z</time></trkpt><trkpt lat="43.0458217" lon="11.7756283"><ele>636.0</ele><time>2026-04-26T14:01:22.295Z</time></trkpt><trkpt lat="43.0459283" lon="11.7756133"><ele>636.0</ele><time>2026-04-26T14:01:23.292Z</time></trkpt><trkpt lat="43.046035" lon="11.7755967"><ele>636.0</ele><time>2026-04-26T14:01:24.295Z</time></trkpt><trkpt lat="43.0461417" lon="11.77558"><ele>636.0</ele><time>2026-04-26T14:01:25.295Z</time></trkpt><trkpt lat="43.04625" lon="11.7755633"><ele>636.0</ele><time>2026-04-26T14:01:26.295Z</time></trkpt><trkpt lat="43.0463533" lon="11.7755417"><ele>636.0</ele><time>2026-04-26T14:01:27.295Z</time></trkpt><trkpt lat="43.0464483" lon="11.7755217"><ele>636.0</ele><time>2026-04-26T14:01:28.292Z</time></trkpt><trkpt lat="43.0465417" lon="11.7754967"><ele>636.0</ele><time>2026-04-26T14:01:29.292Z</time></trkpt><trkpt lat="43.046635" lon="11.775455"><ele>636.0</ele><time>2026-04-26T14:01:30.293Z</time></trkpt><trkpt lat="43.0467217" lon="11.7753917"><ele>636.0</ele><time>2026-04-26T14:01:31.292Z</time></trkpt><trkpt lat="43.0468033" lon="11.7753117"><ele>635.8</ele><time>2026-04-26T14:01:32.294Z</time></trkpt><trkpt lat="43.046885" lon="11.7752217"><ele>635.6</ele><time>2026-04-26T14:01:33.293Z</time></trkpt><trkpt lat="43.04696" lon="11.7751167"><ele>635.4</ele><time>2026-04-26T14:01:34.294Z</time></trkpt><trkpt lat="43.0470333" lon="11.7750133"><ele>635.2</ele><time>2026-04-26T14:01:35.293Z</time></trkpt><trkpt lat="43.0471033" lon="11.77491"><ele>635.0</ele><time>2026-04-26T14:01:36.292Z</time></trkpt><trkpt lat="43.0471767" lon="11.7748033"><ele>634.4</ele><time>2026-04-26T14:01:37.292Z</time></trkpt><trkpt lat="43.0472583" lon="11.7747017"><ele>633.8</ele><time>2026-04-26T14:01:38.292Z</time></trkpt><trkpt lat="43.0473467" lon="11.774605"><ele>633.2</ele><time>2026-04-26T14:01:39.292Z</time></trkpt><trkpt lat="43.0474433" lon="11.7745233"><ele>632.6</ele><time>2026-04-26T14:01:40.292Z</time></trkpt><trkpt lat="43.0475433" lon="11.77446"><ele>632.0</ele><time>2026-04-26T14:01:41.296Z</time></trkpt><trkpt lat="43.0476433" lon="11.7744083"><ele>632.0</ele><time>2026-04-26T14:01:42.296Z</time></trkpt><trkpt lat="43.047745" lon="11.7743717"><ele>632.0</ele><time>2026-04-26T14:01:43.295Z</time></trkpt><trkpt lat="43.0478483" lon="11.7743383"><ele>632.0</ele><time>2026-04-26T14:01:44.295Z</time></trkpt><trkpt lat="43.047955" lon="11.7743117"><ele>632.0</ele><time>2026-04-26T14:01:45.296Z</time></trkpt><trkpt lat="43.0480617" lon="11.77429"><ele>632.0</ele><time>2026-04-26T14:01:46.295Z</time></trkpt><trkpt lat="43.0481733" lon="11.7742717"><ele>631.0</ele><time>2026-04-26T14:01:47.295Z</time></trkpt><trkpt lat="43.0482867" lon="11.774255"><ele>630.0</ele><time>2026-04-26T14:01:48.296Z</time></trkpt><trkpt lat="43.0484" lon="11.7742417"><ele>629.0</ele><time>2026-04-26T14:01:49.295Z</time></trkpt><trkpt lat="43.0485117" lon="11.77423"><ele>628.0</ele><time>2026-04-26T14:01:50.296Z</time></trkpt><trkpt lat="43.0486267" lon="11.7742217"><ele>627.1999999999999</ele><time>2026-04-26T14:01:51.296Z</time></trkpt><trkpt lat="43.0487417" lon="11.7742233"><ele>626.4</ele><time>2026-04-26T14:01:52.296Z</time></trkpt><trkpt lat="43.048855" lon="11.7742367"><ele>625.5999999999999</ele><time>2026-04-26T14:01:53.295Z</time></trkpt><trkpt lat="43.048965" lon="11.7742583"><ele>624.8</ele><time>2026-04-26T14:01:54.295Z</time></trkpt><trkpt lat="43.0490667" lon="11.7742867"><ele>624.0</ele><time>2026-04-26T14:01:55.295Z</time></trkpt><trkpt lat="43.0491667" lon="11.7743183"><ele>624.0</ele><time>2026-04-26T14:01:56.295Z</time></trkpt><trkpt lat="43.04926" lon="11.7743483"><ele>624.0</ele><time>2026-04-26T14:01:57.295Z</time></trkpt><trkpt lat="43.04935" lon="11.774375"><ele>624.0</ele><time>2026-04-26T14:01:58.293Z</time></trkpt><trkpt lat="43.0494433" lon="11.7743967"><ele>624.0</ele><time>2026-04-26T14:01:59.293Z</time></trkpt><trkpt lat="43.0495467" lon="11.77442"><ele>624.0</ele><time>2026-04-26T14:02:00.293Z</time></trkpt><trkpt lat="43.049655" lon="11.7744467"><ele>623.75</ele><time>2026-04-26T14:02:01.292Z</time></trkpt><trkpt lat="43.0497683" lon="11.7744817"><ele>623.5</ele><time>2026-04-26T14:02:02.292Z</time></trkpt><trkpt lat="43.0498817" lon="11.77452"><ele>623.25</ele><time>2026-04-26T14:02:03.293Z</time></trkpt><trkpt lat="43.0499983" lon="11.7745683"><ele>623.0</ele><time>2026-04-26T14:02:04.293Z</time></trkpt><trkpt lat="43.0501167" lon="11.7746167"><ele>622.5</ele><time>2026-04-26T14:02:05.3Z</time></trkpt><trkpt lat="43.0502383" lon="11.7746583"><ele>622.0</ele><time>2026-04-26T14:02:06.296Z</time></trkpt><trkpt lat="43.0503667" lon="11.7747017"><ele>621.5</ele><time>2026-04-26T14:02:07.295Z</time></trkpt><trkpt lat="43.0504917" lon="11.774745"><ele>621.0</ele><time>2026-04-26T14:02:08.295Z</time></trkpt><trkpt lat="43.050615" lon="11.7747867"><ele>621.0</ele><time>2026-04-26T14:02:09.293Z</time></trkpt><trkpt lat="43.0507367" lon="11.7748233"><ele>621.0</ele><time>2026-04-26T14:02:10.292Z</time></trkpt><trkpt lat="43.0508617" lon="11.7748583"><ele>621.0</ele><time>2026-04-26T14:02:11.295Z</time></trkpt><trkpt lat="43.0509883" lon="11.774895"><ele>621.0</ele><time>2026-04-26T14:02:12.295Z</time></trkpt><trkpt lat="43.05111" lon="11.77493"><ele>620.6</ele><time>2026-04-26T14:02:13.296Z</time></trkpt><trkpt lat="43.0512283" lon="11.7749667"><ele>620.2</ele><time>2026-04-26T14:02:14.295Z</time></trkpt><trkpt lat="43.05134" lon="11.7750017"><ele>619.8</ele><time>2026-04-26T14:02:15.295Z</time></trkpt><trkpt lat="43.051445" lon="11.7750317"><ele>619.4</ele><time>2026-04-26T14:02:16.295Z</time></trkpt><trkpt lat="43.051545" lon="11.7750633"><ele>619.0</ele><time>2026-04-26T14:02:17.296Z</time></trkpt><trkpt lat="43.0516367" lon="11.7750883"><ele>617.8</ele><time>2026-04-26T14:02:18.296Z</time></trkpt><trkpt lat="43.0517167" lon="11.7751033"><ele>616.5999999999999</ele><time>2026-04-26T14:02:19.296Z</time></trkpt><trkpt lat="43.0517833" lon="11.775105"><ele>615.4</ele><time>2026-04-26T14:02:20.296Z</time></trkpt><trkpt lat="43.051885" lon="11.7750733"><ele>614.1999999999999</ele><time>2026-04-26T14:02:22.295Z</time></trkpt><trkpt lat="43.0519183" lon="11.7749517"><ele>613.0</ele><time>2026-04-26T14:02:24.296Z</time></trkpt><trkpt lat="43.0519033" lon="11.774775"><ele>613.0</ele><time>2026-04-26T14:02:26.293Z</time></trkpt><trkpt lat="43.05187" lon="11.7746583"><ele>613.0</ele><time>2026-04-26T14:02:27.296Z</time></trkpt><trkpt lat="43.051855" lon="11.7745333"><ele>613.0</ele><time>2026-04-26T14:02:28.292Z</time></trkpt><trkpt lat="43.05184" lon="11.7743933"><ele>613.0</ele><time>2026-04-26T14:02:29.292Z</time></trkpt><trkpt lat="43.0518283" lon="11.7742433"><ele>613.0</ele><time>2026-04-26T14:02:30.293Z</time></trkpt><trkpt lat="43.051815" lon="11.7740883"><ele>614.0</ele><time>2026-04-26T14:02:31.293Z</time></trkpt><trkpt lat="43.051795" lon="11.7739133"><ele>615.0</ele><time>2026-04-26T14:02:32.293Z</time></trkpt><trkpt lat="43.0517717" lon="11.7737217"><ele>616.0</ele><time>2026-04-26T14:02:33.293Z</time></trkpt><trkpt lat="43.0517533" lon="11.7735267"><ele>617.0</ele><time>2026-04-26T14:02:34.293Z</time></trkpt><trkpt lat="43.0517333" lon="11.7733233"><ele>617.0</ele><time>2026-04-26T14:02:35.294Z</time></trkpt><trkpt lat="43.0517083" lon="11.7731133"><ele>617.0</ele><time>2026-04-26T14:02:36.294Z</time></trkpt><trkpt lat="43.0516733" lon="11.7728933"><ele>617.0</ele><time>2026-04-26T14:02:37.295Z</time></trkpt><trkpt lat="43.05163" lon="11.7726533"><ele>619.6666666666666</ele><time>2026-04-26T14:02:38.296Z</time></trkpt><trkpt lat="43.0515817" lon="11.7724083"><ele>622.3333333333334</ele><time>2026-04-26T14:02:39.297Z</time></trkpt><trkpt lat="43.0515333" lon="11.7721683"><ele>625.0</ele><time>2026-04-26T14:02:40.295Z</time></trkpt><trkpt lat="43.0514883" lon="11.77194"><ele>624.0</ele><time>2026-04-26T14:02:41.295Z</time></trkpt><trkpt lat="43.0514417" lon="11.77172"><ele>623.0</ele><time>2026-04-26T14:02:42.296Z</time></trkpt><trkpt lat="43.0513983" lon="11.7715133"><ele>622.0</ele><time>2026-04-26T14:02:43.297Z</time></trkpt><trkpt lat="43.0513433" lon="11.771315"><ele>622.0</ele><time>2026-04-26T14:02:44.298Z</time></trkpt><trkpt lat="43.0512783" lon="11.7711333"><ele>622.0</ele><time>2026-04-26T14:02:45.298Z</time></trkpt><trkpt lat="43.05119" lon="11.7709633"><ele>622.0</ele><time>2026-04-26T14:02:46.298Z</time></trkpt><trkpt lat="43.0511017" lon="11.770785"><ele>621.6666666666667</ele><time>2026-04-26T14:02:47.298Z</time></trkpt><trkpt lat="43.051035" lon="11.7705867"><ele>621.3333333333334</ele><time>2026-04-26T14:02:48.298Z</time></trkpt><trkpt lat="43.0509983" lon="11.770365"><ele>621.0</ele><time>2026-04-26T14:02:49.295Z</time></trkpt><trkpt lat="43.0509767" lon="11.7701367"><ele>621.0</ele><time>2026-04-26T14:02:50.298Z</time></trkpt><trkpt lat="43.0509617" lon="11.7699033"><ele>621.0</ele><time>2026-04-26T14:02:51.297Z</time></trkpt><trkpt lat="43.0509483" lon="11.769665"><ele>621.0</ele><time>2026-04-26T14:02:52.296Z</time></trkpt><trkpt lat="43.0509283" lon="11.7694233"><ele>621.3333333333334</ele><time>2026-04-26T14:02:53.297Z</time></trkpt><trkpt lat="43.0509083" lon="11.76918"><ele>621.6666666666667</ele><time>2026-04-26T14:02:54.297Z</time></trkpt><trkpt lat="43.0508867" lon="11.7689333"><ele>622.0</ele><time>2026-04-26T14:02:55.298Z</time></trkpt><trkpt lat="43.0508633" lon="11.768685"><ele>622.3333333333334</ele><time>2026-04-26T14:02:56.299Z</time></trkpt><trkpt lat="43.05084" lon="11.768435"><ele>622.6666666666666</ele><time>2026-04-26T14:02:57.298Z</time></trkpt><trkpt lat="43.0508183" lon="11.76818"><ele>623.0</ele><time>2026-04-26T14:02:58.297Z</time></trkpt><trkpt lat="43.0508" lon="11.7679233"><ele>622.0</ele><time>2026-04-26T14:02:59.297Z</time></trkpt><trkpt lat="43.0507817" lon="11.7676683"><ele>621.0</ele><time>2026-04-26T14:03:00.298Z</time></trkpt><trkpt lat="43.0507617" lon="11.76741"><ele>620.0</ele><time>2026-04-26T14:03:01.295Z</time></trkpt><trkpt lat="43.0507417" lon="11.767155"><ele>620.0</ele><time>2026-04-26T14:03:02.294Z</time></trkpt><trkpt lat="43.0507167" lon="11.7669017"><ele>620.0</ele><time>2026-04-26T14:03:03.297Z</time></trkpt><trkpt lat="43.050695" lon="11.7666483"><ele>620.0</ele><time>2026-04-26T14:03:04.294Z</time></trkpt><trkpt lat="43.0506733" lon="11.7663967"><ele>621.3333333333333</ele><time>2026-04-26T14:03:05.294Z</time></trkpt><trkpt lat="43.0506517" lon="11.76614"><ele>622.6666666666666</ele><time>2026-04-26T14:03:06.298Z</time></trkpt><trkpt lat="43.0506317" lon="11.7658867"><ele>624.0</ele><time>2026-04-26T14:03:07.295Z</time></trkpt><trkpt lat="43.0506117" lon="11.765635"><ele>625.3333333333334</ele><time>2026-04-26T14:03:08.297Z</time></trkpt><trkpt lat="43.0505883" lon="11.7653833"><ele>626.6666666666667</ele><time>2026-04-26T14:03:09.295Z</time></trkpt><trkpt lat="43.050565" lon="11.765135"><ele>628.0</ele><time>2026-04-26T14:03:10.296Z</time></trkpt><trkpt lat="43.05054" lon="11.7648917"><ele>630.3333333333334</ele><time>2026-04-26T14:03:11.299Z</time></trkpt><trkpt lat="43.0505183" lon="11.76465"><ele>632.6666666666666</ele><time>2026-04-26T14:03:12.298Z</time></trkpt><trkpt lat="43.0504967" lon="11.7644133"><ele>635.0</ele><time>2026-04-26T14:03:13.294Z</time></trkpt><trkpt lat="43.0504817" lon="11.7641933"><ele>637.0</ele><time>2026-04-26T14:03:14.299Z</time></trkpt><trkpt lat="43.0504683" lon="11.7639933"><ele>639.0</ele><time>2026-04-26T14:03:15.294Z</time></trkpt><trkpt lat="43.050455" lon="11.7638033"><ele>641.0</ele><time>2026-04-26T14:03:16.295Z</time></trkpt><trkpt lat="43.0504333" lon="11.7636217"><ele>643.0</ele><time>2026-04-26T14:03:17.298Z</time></trkpt><trkpt lat="43.050395" lon="11.7634467"><ele>644.0</ele><time>2026-04-26T14:03:18.295Z</time></trkpt><trkpt lat="43.0503383" lon="11.7632733"><ele>645.0</ele><time>2026-04-26T14:03:19.296Z</time></trkpt><trkpt lat="43.0502583" lon="11.76311"><ele>646.0</ele><time>2026-04-26T14:03:20.296Z</time></trkpt><trkpt lat="43.05017" lon="11.7629533"><ele>647.0</ele><time>2026-04-26T14:03:21.296Z</time></trkpt><trkpt lat="43.0500783" lon="11.7627983"><ele>649.0</ele><time>2026-04-26T14:03:22.294Z</time></trkpt><trkpt lat="43.0499933" lon="11.7626283"><ele>651.0</ele><time>2026-04-26T14:03:23.296Z</time></trkpt><trkpt lat="43.0499183" lon="11.7624483"><ele>653.0</ele><time>2026-04-26T14:03:24.297Z</time></trkpt><trkpt lat="43.049855" lon="11.7622633"><ele>655.75</ele><time>2026-04-26T14:03:25.295Z</time></trkpt><trkpt lat="43.0498117" lon="11.7620767"><ele>658.5</ele><time>2026-04-26T14:03:26.298Z</time></trkpt><trkpt lat="43.0497883" lon="11.7618967"><ele>661.25</ele><time>2026-04-26T14:03:27.297Z</time></trkpt><trkpt lat="43.0497767" lon="11.7617083"><ele>664.0</ele><time>2026-04-26T14:03:28.296Z</time></trkpt><trkpt lat="43.0497717" lon="11.7615233"><ele>664.75</ele><time>2026-04-26T14:03:29.297Z</time></trkpt><trkpt lat="43.0497733" lon="11.761335"><ele>665.5</ele><time>2026-04-26T14:03:30.298Z</time></trkpt><trkpt lat="43.04978" lon="11.7611567"><ele>666.25</ele><time>2026-04-26T14:03:31.299Z</time></trkpt><trkpt lat="43.0498017" lon="11.76099"><ele>667.0</ele><time>2026-04-26T14:03:32.295Z</time></trkpt><trkpt lat="43.0498383" lon="11.7608367"><ele>666.6</ele><time>2026-04-26T14:03:33.298Z</time></trkpt><trkpt lat="43.0499017" lon="11.7607133"><ele>666.2</ele><time>2026-04-26T14:03:34.298Z</time></trkpt><trkpt lat="43.04998" lon="11.7606333"><ele>665.8</ele><time>2026-04-26T14:03:35.295Z</time></trkpt><trkpt lat="43.0500667" lon="11.7605817"><ele>665.4</ele><time>2026-04-26T14:03:36.297Z</time></trkpt><trkpt lat="43.050155" lon="11.7605617"><ele>665.0</ele><time>2026-04-26T14:03:37.295Z</time></trkpt><trkpt lat="43.0502383" lon="11.7605367"><ele>665.0</ele><time>2026-04-26T14:03:38.296Z</time></trkpt><trkpt lat="43.0503133" lon="11.7605083"><ele>665.0</ele><time>2026-04-26T14:03:39.297Z</time></trkpt><trkpt lat="43.0503733" lon="11.7604567"><ele>665.0</ele><time>2026-04-26T14:03:40.294Z</time></trkpt><trkpt lat="43.0503983" lon="11.760375"><ele>665.0</ele><time>2026-04-26T14:03:41.295Z</time></trkpt><trkpt lat="43.0503883" lon="11.7602767"><ele>665.0</ele><time>2026-04-26T14:03:42.299Z</time></trkpt><trkpt lat="43.05034" lon="11.7601433"><ele>665.0</ele><time>2026-04-26T14:03:43.299Z</time></trkpt><trkpt lat="43.0502933" lon="11.7600017"><ele>667.6666666666666</ele><time>2026-04-26T14:03:44.298Z</time></trkpt><trkpt lat="43.0502333" lon="11.7598117"><ele>670.3333333333334</ele><time>2026-04-26T14:03:45.298Z</time></trkpt><trkpt lat="43.0502133" lon="11.759595"><ele>673.0</ele><time>2026-04-26T14:03:46.296Z</time></trkpt><trkpt lat="43.05021" lon="11.759375"><ele>674.0</ele><time>2026-04-26T14:03:47.298Z</time></trkpt><trkpt lat="43.0502167" lon="11.7591583"><ele>675.0</ele><time>2026-04-26T14:03:48.294Z</time></trkpt><trkpt lat="43.05024" lon="11.758945"><ele>676.0</ele><time>2026-04-26T14:03:49.295Z</time></trkpt><trkpt lat="43.0502717" lon="11.758745"><ele>676.0</ele><time>2026-04-26T14:03:50.296Z</time></trkpt><trkpt lat="43.0503133" lon="11.7585583"><ele>676.0</ele><time>2026-04-26T14:03:51.296Z</time></trkpt><trkpt lat="43.050345" lon="11.7583833"><ele>676.0</ele><time>2026-04-26T14:03:52.295Z</time></trkpt><trkpt lat="43.0503533" lon="11.7582117"><ele>676.0</ele><time>2026-04-26T14:03:53.296Z</time></trkpt><trkpt lat="43.0503583" lon="11.7580417"><ele>676.25</ele><time>2026-04-26T14:03:54.295Z</time></trkpt><trkpt lat="43.050365" lon="11.7578817"><ele>676.5</ele><time>2026-04-26T14:03:55.296Z</time></trkpt><trkpt lat="43.0503883" lon="11.7577233"><ele>676.75</ele><time>2026-04-26T14:03:56.297Z</time></trkpt><trkpt lat="43.05042" lon="11.757555"><ele>677.0</ele><time>2026-04-26T14:03:57.296Z</time></trkpt><trkpt lat="43.0504517" lon="11.7573783"><ele>674.75</ele><time>2026-04-26T14:03:58.295Z</time></trkpt><trkpt lat="43.0504833" lon="11.7572017"><ele>672.5</ele><time>2026-04-26T14:03:59.298Z</time></trkpt><trkpt lat="43.0505183" lon="11.75702"><ele>670.25</ele><time>2026-04-26T14:04:00.298Z</time></trkpt><trkpt lat="43.050565" lon="11.7568383"><ele>668.0</ele><time>2026-04-26T14:04:01.297Z</time></trkpt><trkpt lat="43.0506333" lon="11.7566633"><ele>666.75</ele><time>2026-04-26T14:04:02.298Z</time></trkpt><trkpt lat="43.050715" lon="11.7565017"><ele>665.5</ele><time>2026-04-26T14:04:03.298Z</time></trkpt><trkpt lat="43.0508067" lon="11.7563583"><ele>664.25</ele><time>2026-04-26T14:04:04.297Z</time></trkpt><trkpt lat="43.0509067" lon="11.7562317"><ele>663.0</ele><time>2026-04-26T14:04:05.298Z</time></trkpt><trkpt lat="43.0510217" lon="11.7561167"><ele>660.5</ele><time>2026-04-26T14:04:06.298Z</time></trkpt><trkpt lat="43.051145" lon="11.7560033"><ele>658.0</ele><time>2026-04-26T14:04:07.298Z</time></trkpt><trkpt lat="43.05126" lon="11.7558917"><ele>655.5</ele><time>2026-04-26T14:04:08.298Z</time></trkpt><trkpt lat="43.0513667" lon="11.7557817"><ele>653.0</ele><time>2026-04-26T14:04:09.298Z</time></trkpt><trkpt lat="43.05146" lon="11.7556633"><ele>653.0</ele><time>2026-04-26T14:04:10.297Z</time></trkpt><trkpt lat="43.0515333" lon="11.7555333"><ele>653.0</ele><time>2026-04-26T14:04:11.299Z</time></trkpt><trkpt lat="43.05159" lon="11.7553933"><ele>653.0</ele><time>2026-04-26T14:04:12.299Z</time></trkpt><trkpt lat="43.0516233" lon="11.7552483"><ele>653.0</ele><time>2026-04-26T14:04:13.297Z</time></trkpt><trkpt lat="43.0516233" lon="11.7551033"><ele>650.8</ele><time>2026-04-26T14:04:14.298Z</time></trkpt><trkpt lat="43.0516" lon="11.7549533"><ele>648.5999999999999</ele><time>2026-04-26T14:04:15.298Z</time></trkpt><trkpt lat="43.0515783" lon="11.7548033"><ele>646.4000000000001</ele><time>2026-04-26T14:04:16.298Z</time></trkpt><trkpt lat="43.0515783" lon="11.7546533"><ele>644.2</ele><time>2026-04-26T14:04:17.298Z</time></trkpt><trkpt lat="43.05161" lon="11.7545017"><ele>642.0</ele><time>2026-04-26T14:04:18.295Z</time></trkpt><trkpt lat="43.0516667" lon="11.7543417"><ele>642.0</ele><time>2026-04-26T14:04:19.295Z</time></trkpt><trkpt lat="43.0517233" lon="11.754175"><ele>642.0</ele><time>2026-04-26T14:04:20.296Z</time></trkpt><trkpt lat="43.0517717" lon="11.754005"><ele>642.0</ele><time>2026-04-26T14:04:21.297Z</time></trkpt><trkpt lat="43.05181" lon="11.7538333"><ele>642.0</ele><time>2026-04-26T14:04:22.296Z</time></trkpt><trkpt lat="43.0518417" lon="11.753665"><ele>638.75</ele><time>2026-04-26T14:04:23.296Z</time></trkpt><trkpt lat="43.0518783" lon="11.7535017"><ele>635.5</ele><time>2026-04-26T14:04:24.296Z</time></trkpt><trkpt lat="43.0519333" lon="11.7533417"><ele>632.25</ele><time>2026-04-26T14:04:25.295Z</time></trkpt><trkpt lat="43.0520067" lon="11.7531867"><ele>629.0</ele><time>2026-04-26T14:04:26.296Z</time></trkpt><trkpt lat="43.0521033" lon="11.7530383"><ele>629.0</ele><time>2026-04-26T14:04:27.297Z</time></trkpt><trkpt lat="43.0522167" lon="11.7529"><ele>629.0</ele><time>2026-04-26T14:04:28.296Z</time></trkpt><trkpt lat="43.052345" lon="11.7527667"><ele>629.0</ele><time>2026-04-26T14:04:29.297Z</time></trkpt><trkpt lat="43.05248" lon="11.7526367"><ele>628.0</ele><time>2026-04-26T14:04:30.299Z</time></trkpt><trkpt lat="43.0526183" lon="11.7525083"><ele>627.0</ele><time>2026-04-26T14:04:31.297Z</time></trkpt><trkpt lat="43.0527467" lon="11.7523767"><ele>626.0</ele><time>2026-04-26T14:04:32.3Z</time></trkpt><trkpt lat="43.0528633" lon="11.7522333"><ele>626.0</ele><time>2026-04-26T14:04:33.297Z</time></trkpt><trkpt lat="43.0529717" lon="11.7520783"><ele>626.0</ele><time>2026-04-26T14:04:34.297Z</time></trkpt><trkpt lat="43.0530783" lon="11.7519083"><ele>626.0</ele><time>2026-04-26T14:04:35.298Z</time></trkpt><trkpt lat="43.053185" lon="11.7517233"><ele>626.0</ele><time>2026-04-26T14:04:36.299Z</time></trkpt><trkpt lat="43.0532867" lon="11.7515233"><ele>626.0</ele><time>2026-04-26T14:04:37.298Z</time></trkpt><trkpt lat="43.0533917" lon="11.7513117"><ele>626.0</ele><time>2026-04-26T14:04:38.297Z</time></trkpt><trkpt lat="43.053495" lon="11.751095"><ele>620.6666666666666</ele><time>2026-04-26T14:04:39.297Z</time></trkpt><trkpt lat="43.0535967" lon="11.7508817"><ele>615.3333333333334</ele><time>2026-04-26T14:04:40.298Z</time></trkpt><trkpt lat="43.0536967" lon="11.75067"><ele>610.0</ele><time>2026-04-26T14:04:41.294Z</time></trkpt><trkpt lat="43.0537883" lon="11.7504667"><ele>610.0</ele><time>2026-04-26T14:04:42.298Z</time></trkpt><trkpt lat="43.0538783" lon="11.7502683"><ele>610.0</ele><time>2026-04-26T14:04:43.298Z</time></trkpt><trkpt lat="43.0539567" lon="11.750075"><ele>610.0</ele><time>2026-04-26T14:04:44.297Z</time></trkpt><trkpt lat="43.0540217" lon="11.7498883"><ele>606.75</ele><time>2026-04-26T14:04:45.294Z</time></trkpt><trkpt lat="43.0540667" lon="11.7497017"><ele>603.5</ele><time>2026-04-26T14:04:46.293Z</time></trkpt><trkpt lat="43.0540917" lon="11.7495083"><ele>600.25</ele><time>2026-04-26T14:04:47.296Z</time></trkpt><trkpt lat="43.0540917" lon="11.7493"><ele>597.0</ele><time>2026-04-26T14:04:48.297Z</time></trkpt><trkpt lat="43.0540717" lon="11.749085"><ele>595.3333333333334</ele><time>2026-04-26T14:04:49.296Z</time></trkpt><trkpt lat="43.0540483" lon="11.7488683"><ele>593.6666666666667</ele><time>2026-04-26T14:04:50.296Z</time></trkpt><trkpt lat="43.0540367" lon="11.7486517"><ele>592.0</ele><time>2026-04-26T14:04:51.296Z</time></trkpt><trkpt lat="43.054045" lon="11.74844"><ele>591.25</ele><time>2026-04-26T14:04:52.295Z</time></trkpt><trkpt lat="43.05408" lon="11.7482417"><ele>590.5</ele><time>2026-04-26T14:04:53.295Z</time></trkpt><trkpt lat="43.0541317" lon="11.7480567"><ele>589.75</ele><time>2026-04-26T14:04:54.295Z</time></trkpt><trkpt lat="43.05421" lon="11.747895"><ele>589.0</ele><time>2026-04-26T14:04:55.296Z</time></trkpt><trkpt lat="43.0543133" lon="11.747755"><ele>592.6666666666667</ele><time>2026-04-26T14:04:56.295Z</time></trkpt><trkpt lat="43.0544367" lon="11.747625"><ele>596.3333333333334</ele><time>2026-04-26T14:04:57.297Z</time></trkpt><trkpt lat="43.05457" lon="11.7474933"><ele>600.0</ele><time>2026-04-26T14:04:58.297Z</time></trkpt><trkpt lat="43.054695" lon="11.74734"><ele>600.0</ele><time>2026-04-26T14:04:59.298Z</time></trkpt><trkpt lat="43.0548183" lon="11.7471683"><ele>600.0</ele><time>2026-04-26T14:05:00.297Z</time></trkpt><trkpt lat="43.054945" lon="11.7469817"><ele>600.0</ele><time>2026-04-26T14:05:01.298Z</time></trkpt><trkpt lat="43.055075" lon="11.7467883"><ele>600.6666666666666</ele><time>2026-04-26T14:05:02.298Z</time></trkpt><trkpt lat="43.0552017" lon="11.746585"><ele>601.3333333333333</ele><time>2026-04-26T14:05:03.297Z</time></trkpt><trkpt lat="43.055335" lon="11.7463733"><ele>602.0</ele><time>2026-04-26T14:05:04.298Z</time></trkpt><trkpt lat="43.0554667" lon="11.7461617"><ele>603.0</ele><time>2026-04-26T14:05:05.298Z</time></trkpt><trkpt lat="43.0555933" lon="11.745945"><ele>604.0</ele><time>2026-04-26T14:05:06.298Z</time></trkpt><trkpt lat="43.0557217" lon="11.7457383"><ele>605.0</ele><time>2026-04-26T14:05:07.297Z</time></trkpt><trkpt lat="43.0558517" lon="11.745535"><ele>605.0</ele><time>2026-04-26T14:05:08.297Z</time></trkpt><trkpt lat="43.05598" lon="11.745335"><ele>605.0</ele><time>2026-04-26T14:05:09.298Z</time></trkpt><trkpt lat="43.05611" lon="11.7451433"><ele>605.0</ele><time>2026-04-26T14:05:10.298Z</time></trkpt><trkpt lat="43.0562333" lon="11.744965"><ele>601.0</ele><time>2026-04-26T14:05:11.298Z</time></trkpt><trkpt lat="43.0563433" lon="11.7448033"><ele>597.0</ele><time>2026-04-26T14:05:12.297Z</time></trkpt><trkpt lat="43.0564483" lon="11.7446533"><ele>593.0</ele><time>2026-04-26T14:05:13.297Z</time></trkpt><trkpt lat="43.0565483" lon="11.7445117"><ele>594.75</ele><time>2026-04-26T14:05:14.299Z</time></trkpt><trkpt lat="43.0566433" lon="11.7443717"><ele>596.5</ele><time>2026-04-26T14:05:15.297Z</time></trkpt><trkpt lat="43.0567267" lon="11.74423"><ele>598.25</ele><time>2026-04-26T14:05:16.298Z</time></trkpt><trkpt lat="43.056795" lon="11.744085"><ele>600.0</ele><time>2026-04-26T14:05:17.298Z</time></trkpt><trkpt lat="43.056835" lon="11.7439233"><ele>600.0</ele><time>2026-04-26T14:05:18.298Z</time></trkpt><trkpt lat="43.0568583" lon="11.7437533"><ele>600.0</ele><time>2026-04-26T14:05:19.297Z</time></trkpt><trkpt lat="43.05688" lon="11.7435983"><ele>600.0</ele><time>2026-04-26T14:05:20.298Z</time></trkpt><trkpt lat="43.0569083" lon="11.7434567"><ele>600.0</ele><time>2026-04-26T14:05:21.297Z</time></trkpt><trkpt lat="43.05695" lon="11.743335"><ele>600.0</ele><time>2026-04-26T14:05:22.296Z</time></trkpt><trkpt lat="43.0570133" lon="11.7432317"><ele>599.8</ele><time>2026-04-26T14:05:23.296Z</time></trkpt><trkpt lat="43.0571017" lon="11.7431633"><ele>599.6</ele><time>2026-04-26T14:05:24.297Z</time></trkpt><trkpt lat="43.0572017" lon="11.7431233"><ele>599.4</ele><time>2026-04-26T14:05:25.299Z</time></trkpt><trkpt lat="43.05731" lon="11.7431217"><ele>599.2</ele><time>2026-04-26T14:05:26.298Z</time></trkpt><trkpt lat="43.0574217" lon="11.74315"><ele>599.0</ele><time>2026-04-26T14:05:27.299Z</time></trkpt><trkpt lat="43.0575383" lon="11.7431867"><ele>599.0</ele><time>2026-04-26T14:05:28.298Z</time></trkpt><trkpt lat="43.057665" lon="11.7432"><ele>599.0</ele><time>2026-04-26T14:05:29.299Z</time></trkpt><trkpt lat="43.0577967" lon="11.74319"><ele>599.0</ele><time>2026-04-26T14:05:30.298Z</time></trkpt><trkpt lat="43.0579217" lon="11.7431367"><ele>599.0</ele><time>2026-04-26T14:05:31.299Z</time></trkpt><trkpt lat="43.0580417" lon="11.74305"><ele>599.0</ele><time>2026-04-26T14:05:32.297Z</time></trkpt><trkpt lat="43.0581667" lon="11.7429367"><ele>599.0</ele><time>2026-04-26T14:05:33.297Z</time></trkpt><trkpt lat="43.0582967" lon="11.74278"><ele>599.0</ele><time>2026-04-26T14:05:34.298Z</time></trkpt><trkpt lat="43.0584433" lon="11.74259"><ele>595.3333333333333</ele><time>2026-04-26T14:05:35.298Z</time></trkpt><trkpt lat="43.0586" lon="11.7423867"><ele>591.6666666666666</ele><time>2026-04-26T14:05:36.297Z</time></trkpt><trkpt lat="43.0587567" lon="11.7421783"><ele>588.0</ele><time>2026-04-26T14:05:37.299Z</time></trkpt><trkpt lat="43.05891" lon="11.7419717"><ele>587.3333333333334</ele><time>2026-04-26T14:05:38.298Z</time></trkpt><trkpt lat="43.05906" lon="11.74177"><ele>586.6666666666667</ele><time>2026-04-26T14:05:39.298Z</time></trkpt><trkpt lat="43.0592033" lon="11.74158"><ele>586.0</ele><time>2026-04-26T14:05:40.298Z</time></trkpt><trkpt lat="43.0593317" lon="11.7414"><ele>586.0</ele><time>2026-04-26T14:05:41.297Z</time></trkpt><trkpt lat="43.05944" lon="11.74122"><ele>586.0</ele><time>2026-04-26T14:05:42.297Z</time></trkpt><trkpt lat="43.0595233" lon="11.7410217"><ele>586.0</ele><time>2026-04-26T14:05:43.296Z</time></trkpt><trkpt lat="43.05959" lon="11.7408183"><ele>584.0</ele><time>2026-04-26T14:05:44.298Z</time></trkpt><trkpt lat="43.0596317" lon="11.74062"><ele>582.0</ele><time>2026-04-26T14:05:45.298Z</time></trkpt><trkpt lat="43.0596633" lon="11.7404417"><ele>580.0</ele><time>2026-04-26T14:05:46.298Z</time></trkpt><trkpt lat="43.0596933" lon="11.74028"><ele>578.0</ele><time>2026-04-26T14:05:47.297Z</time></trkpt><trkpt lat="43.0597333" lon="11.7401433"><ele>576.1999999999999</ele><time>2026-04-26T14:05:48.296Z</time></trkpt><trkpt lat="43.0597883" lon="11.7400233"><ele>574.4</ele><time>2026-04-26T14:05:49.295Z</time></trkpt><trkpt lat="43.05986" lon="11.7399133"><ele>572.5999999999999</ele><time>2026-04-26T14:05:50.296Z</time></trkpt><trkpt lat="43.0599367" lon="11.7398033"><ele>570.8</ele><time>2026-04-26T14:05:51.298Z</time></trkpt><trkpt lat="43.0600167" lon="11.739695"><ele>569.0</ele><time>2026-04-26T14:05:52.297Z</time></trkpt><trkpt lat="43.060095" lon="11.7395817"><ele>570.2</ele><time>2026-04-26T14:05:53.297Z</time></trkpt><trkpt lat="43.06017" lon="11.7394767"><ele>571.4</ele><time>2026-04-26T14:05:54.299Z</time></trkpt><trkpt lat="43.0602467" lon="11.7393717"><ele>572.6</ele><time>2026-04-26T14:05:55.297Z</time></trkpt><trkpt lat="43.0603217" lon="11.7392617"><ele>573.8</ele><time>2026-04-26T14:05:56.298Z</time></trkpt><trkpt lat="43.06039" lon="11.7391483"><ele>575.0</ele><time>2026-04-26T14:05:57.298Z</time></trkpt><trkpt lat="43.0604533" lon="11.7390317"><ele>575.0</ele><time>2026-04-26T14:05:58.295Z</time></trkpt><trkpt lat="43.0605183" lon="11.7389083"><ele>575.0</ele><time>2026-04-26T14:05:59.294Z</time></trkpt><trkpt lat="43.060585" lon="11.738785"><ele>575.0</ele><time>2026-04-26T14:06:00.302Z</time></trkpt><trkpt lat="43.0606533" lon="11.738655"><ele>575.0</ele><time>2026-04-26T14:06:01.297Z</time></trkpt><trkpt lat="43.060725" lon="11.7385233"><ele>573.75</ele><time>2026-04-26T14:06:02.298Z</time></trkpt><trkpt lat="43.0607983" lon="11.73839"><ele>572.5</ele><time>2026-04-26T14:06:03.298Z</time></trkpt><trkpt lat="43.0608733" lon="11.738255"><ele>571.25</ele><time>2026-04-26T14:06:04.298Z</time></trkpt><trkpt lat="43.0609483" lon="11.7381183"><ele>570.0</ele><time>2026-04-26T14:06:05.297Z</time></trkpt><trkpt lat="43.06102" lon="11.7379817"><ele>570.0</ele><time>2026-04-26T14:06:06.298Z</time></trkpt><trkpt lat="43.0610917" lon="11.7378467"><ele>570.0</ele><time>2026-04-26T14:06:07.298Z</time></trkpt><trkpt lat="43.0611617" lon="11.737715"><ele>570.0</ele><time>2026-04-26T14:06:08.298Z</time></trkpt><trkpt lat="43.0612333" lon="11.7375867"><ele>570.0</ele><time>2026-04-26T14:06:09.299Z</time></trkpt><trkpt lat="43.0613067" lon="11.7374617"><ele>568.25</ele><time>2026-04-26T14:06:10.296Z</time></trkpt><trkpt lat="43.061375" lon="11.7373367"><ele>566.5</ele><time>2026-04-26T14:06:11.296Z</time></trkpt><trkpt lat="43.0614433" lon="11.73721"><ele>564.75</ele><time>2026-04-26T14:06:12.296Z</time></trkpt><trkpt lat="43.0615133" lon="11.7370867"><ele>563.0</ele><time>2026-04-26T14:06:13.299Z</time></trkpt><trkpt lat="43.0615817" lon="11.7369667"><ele>562.25</ele><time>2026-04-26T14:06:14.297Z</time></trkpt><trkpt lat="43.061655" lon="11.7368467"><ele>561.5</ele><time>2026-04-26T14:06:15.298Z</time></trkpt><trkpt lat="43.0617367" lon="11.736725"><ele>560.75</ele><time>2026-04-26T14:06:16.296Z</time></trkpt><trkpt lat="43.0618283" lon="11.7366017"><ele>560.0</ele><time>2026-04-26T14:06:17.296Z</time></trkpt><trkpt lat="43.06193" lon="11.73648"><ele>560.0</ele><time>2026-04-26T14:06:18.296Z</time></trkpt><trkpt lat="43.062035" lon="11.7363567"><ele>560.0</ele><time>2026-04-26T14:06:19.297Z</time></trkpt><trkpt lat="43.0621417" lon="11.73623"><ele>560.0</ele><time>2026-04-26T14:06:20.297Z</time></trkpt><trkpt lat="43.0622483" lon="11.736105"><ele>560.0</ele><time>2026-04-26T14:06:21.297Z</time></trkpt><trkpt lat="43.0623533" lon="11.7359833"><ele>558.25</ele><time>2026-04-26T14:06:22.298Z</time></trkpt><trkpt lat="43.062455" lon="11.73586"><ele>556.5</ele><time>2026-04-26T14:06:23.299Z</time></trkpt><trkpt lat="43.0625533" lon="11.73574"><ele>554.75</ele><time>2026-04-26T14:06:24.298Z</time></trkpt><trkpt lat="43.0626483" lon="11.735625"><ele>553.0</ele><time>2026-04-26T14:06:25.298Z</time></trkpt><trkpt lat="43.062735" lon="11.7355233"><ele>553.0</ele><time>2026-04-26T14:06:26.298Z</time></trkpt><trkpt lat="43.06281" lon="11.73543"><ele>553.0</ele><time>2026-04-26T14:06:27.297Z</time></trkpt><trkpt lat="43.0628733" lon="11.735325"><ele>553.0</ele><time>2026-04-26T14:06:28.299Z</time></trkpt><trkpt lat="43.06292" lon="11.7352083"><ele>553.0</ele><time>2026-04-26T14:06:29.298Z</time></trkpt><trkpt lat="43.0629533" lon="11.7350833"><ele>553.0</ele><time>2026-04-26T14:06:30.297Z</time></trkpt><trkpt lat="43.06296" lon="11.7349517"><ele>551.0</ele><time>2026-04-26T14:06:31.298Z</time></trkpt><trkpt lat="43.0629467" lon="11.7348267"><ele>549.0</ele><time>2026-04-26T14:06:32.299Z</time></trkpt><trkpt lat="43.0629167" lon="11.734715"><ele>547.0</ele><time>2026-04-26T14:06:33.295Z</time></trkpt><trkpt lat="43.0628767" lon="11.7346167"><ele>545.0</ele><time>2026-04-26T14:06:34.297Z</time></trkpt><trkpt lat="43.0628367" lon="11.73453"><ele>543.0</ele><time>2026-04-26T14:06:35.296Z</time></trkpt><trkpt lat="43.0628" lon="11.73445"><ele>541.0</ele><time>2026-04-26T14:06:36.298Z</time></trkpt><trkpt lat="43.06277" lon="11.7343717"><ele>538.6</ele><time>2026-04-26T14:06:37.297Z</time></trkpt><trkpt lat="43.0627667" lon="11.7342167"><ele>536.2</ele><time>2026-04-26T14:06:39.298Z</time></trkpt><trkpt lat="43.0628467" lon="11.73412"><ele>533.8</ele><time>2026-04-26T14:06:41.298Z</time></trkpt><trkpt lat="43.0629567" lon="11.7341133"><ele>531.4</ele><time>2026-04-26T14:06:43.298Z</time></trkpt><trkpt lat="43.06307" lon="11.7341033"><ele>529.0</ele><time>2026-04-26T14:06:45.298Z</time></trkpt><trkpt lat="43.0631633" lon="11.734"><ele>529.0</ele><time>2026-04-26T14:06:47.297Z</time></trkpt><trkpt lat="43.0631783" lon="11.7339"><ele>529.0</ele><time>2026-04-26T14:06:48.297Z</time></trkpt><trkpt lat="43.0631683" lon="11.7337917"><ele>529.0</ele><time>2026-04-26T14:06:49.298Z</time></trkpt><trkpt lat="43.0631367" lon="11.7337033"><ele>529.0</ele><time>2026-04-26T14:06:50.298Z</time></trkpt><trkpt lat="43.0630717" lon="11.7336367"><ele>529.0</ele><time>2026-04-26T14:06:51.297Z</time></trkpt><trkpt lat="43.0629983" lon="11.733595"><ele>529.0</ele><time>2026-04-26T14:06:52.298Z</time></trkpt><trkpt lat="43.06291" lon="11.7335833"><ele>529.0</ele><time>2026-04-26T14:06:53.298Z</time></trkpt><trkpt lat="43.0628233" lon="11.73358"><ele>529.0</ele><time>2026-04-26T14:06:54.298Z</time></trkpt><trkpt lat="43.0627333" lon="11.7335767"><ele>529.0</ele><time>2026-04-26T14:06:55.297Z</time></trkpt><trkpt lat="43.062645" lon="11.7335667"><ele>529.0</ele><time>2026-04-26T14:06:56.297Z</time></trkpt><trkpt lat="43.0625633" lon="11.73354"><ele>529.0</ele><time>2026-04-26T14:06:57.297Z</time></trkpt><trkpt lat="43.0624917" lon="11.7335017"><ele>529.0</ele><time>2026-04-26T14:06:58.296Z</time></trkpt><trkpt lat="43.0624317" lon="11.7334333"><ele>527.6666666666667</ele><time>2026-04-26T14:06:59.297Z</time></trkpt><trkpt lat="43.0623967" lon="11.73335"><ele>526.3333333333334</ele><time>2026-04-26T14:07:00.297Z</time></trkpt><trkpt lat="43.0624067" lon="11.7332433"><ele>525.0</ele><time>2026-04-26T14:07:01.299Z</time></trkpt><trkpt lat="43.062435" lon="11.7331367"><ele>523.6666666666666</ele><time>2026-04-26T14:07:02.298Z</time></trkpt><trkpt lat="43.0624883" lon="11.7330283"><ele>522.3333333333333</ele><time>2026-04-26T14:07:03.298Z</time></trkpt><trkpt lat="43.0625483" lon="11.73293"><ele>521.0</ele><time>2026-04-26T14:07:04.298Z</time></trkpt><trkpt lat="43.0626083" lon="11.732845"><ele>521.0</ele><time>2026-04-26T14:07:05.298Z</time></trkpt><trkpt lat="43.0626667" lon="11.7327667"><ele>521.0</ele><time>2026-04-26T14:07:06.299Z</time></trkpt><trkpt lat="43.0627283" lon="11.7326983"><ele>521.0</ele><time>2026-04-26T14:07:07.296Z</time></trkpt><trkpt lat="43.06279" lon="11.732645"><ele>521.0</ele><time>2026-04-26T14:07:08.297Z</time></trkpt><trkpt lat="43.0628617" lon="11.7326083"><ele>521.0</ele><time>2026-04-26T14:07:09.298Z</time></trkpt><trkpt lat="43.0629333" lon="11.7325883"><ele>521.0</ele><time>2026-04-26T14:07:10.298Z</time></trkpt><trkpt lat="43.06301" lon="11.7325883"><ele>519.3333333333333</ele><time>2026-04-26T14:07:11.299Z</time></trkpt><trkpt lat="43.0630817" lon="11.7326067"><ele>517.6666666666666</ele><time>2026-04-26T14:07:12.299Z</time></trkpt><trkpt lat="43.0631483" lon="11.7326433"><ele>516.0</ele><time>2026-04-26T14:07:13.298Z</time></trkpt><trkpt lat="43.0632117" lon="11.732675"><ele>514.3333333333334</ele><time>2026-04-26T14:07:14.299Z</time></trkpt><trkpt lat="43.0633267" lon="11.7326867"><ele>512.6666666666667</ele><time>2026-04-26T14:07:16.298Z</time></trkpt><trkpt lat="43.0634117" lon="11.73262"><ele>511.0</ele><time>2026-04-26T14:07:18.298Z</time></trkpt><trkpt lat="43.0634267" lon="11.7325017"><ele>511.00000000000006</ele><time>2026-04-26T14:07:20.298Z</time></trkpt><trkpt lat="43.06339" lon="11.7324283"><ele>511.0</ele><time>2026-04-26T14:07:21.299Z</time></trkpt><trkpt lat="43.0633383" lon="11.7323433"><ele>511.0</ele><time>2026-04-26T14:07:22.298Z</time></trkpt><trkpt lat="43.0632817" lon="11.7322567"><ele>511.0</ele><time>2026-04-26T14:07:23.299Z</time></trkpt><trkpt lat="43.0632117" lon="11.7321583"><ele>511.00000000000006</ele><time>2026-04-26T14:07:24.297Z</time></trkpt><trkpt lat="43.063135" lon="11.73205"><ele>511.0</ele><time>2026-04-26T14:07:25.298Z</time></trkpt><trkpt lat="43.0630567" lon="11.73193"><ele>508.25</ele><time>2026-04-26T14:07:26.298Z</time></trkpt><trkpt lat="43.0629833" lon="11.7317967"><ele>505.5</ele><time>2026-04-26T14:07:27.297Z</time></trkpt><trkpt lat="43.0629217" lon="11.7316533"><ele>502.75</ele><time>2026-04-26T14:07:28.297Z</time></trkpt><trkpt lat="43.0628717" lon="11.7315083"><ele>500.0</ele><time>2026-04-26T14:07:29.299Z</time></trkpt><trkpt lat="43.0628433" lon="11.7313533"><ele>500.0</ele><time>2026-04-26T14:07:30.298Z</time></trkpt><trkpt lat="43.0628317" lon="11.7311983"><ele>500.0</ele><time>2026-04-26T14:07:31.298Z</time></trkpt><trkpt lat="43.0628333" lon="11.7310417"><ele>500.0</ele><time>2026-04-26T14:07:32.295Z</time></trkpt><trkpt lat="43.0628417" lon="11.7308833"><ele>500.0</ele><time>2026-04-26T14:07:33.295Z</time></trkpt><trkpt lat="43.06285" lon="11.73072"><ele>497.5</ele><time>2026-04-26T14:07:34.299Z</time></trkpt><trkpt lat="43.06286" lon="11.7305533"><ele>495.0</ele><time>2026-04-26T14:07:35.296Z</time></trkpt><trkpt lat="43.0628717" lon="11.730385"><ele>492.5</ele><time>2026-04-26T14:07:36.299Z</time></trkpt><trkpt lat="43.0628833" lon="11.7302183"><ele>490.0</ele><time>2026-04-26T14:07:37.296Z</time></trkpt><trkpt lat="43.06289" lon="11.7300533"><ele>488.25</ele><time>2026-04-26T14:07:38.296Z</time></trkpt><trkpt lat="43.062895" lon="11.7298867"><ele>486.5</ele><time>2026-04-26T14:07:39.298Z</time></trkpt><trkpt lat="43.0629017" lon="11.7297267"><ele>484.75</ele><time>2026-04-26T14:07:40.296Z</time></trkpt><trkpt lat="43.0629083" lon="11.7295733"><ele>483.0</ele><time>2026-04-26T14:07:41.297Z</time></trkpt><trkpt lat="43.0629067" lon="11.7294317"><ele>481.4</ele><time>2026-04-26T14:07:42.297Z</time></trkpt><trkpt lat="43.06289" lon="11.7292983"><ele>479.79999999999995</ele><time>2026-04-26T14:07:43.297Z</time></trkpt><trkpt lat="43.0628467" lon="11.729175"><ele>478.2</ele><time>2026-04-26T14:07:44.298Z</time></trkpt><trkpt lat="43.06279" lon="11.729065"><ele>476.6</ele><time>2026-04-26T14:07:45.299Z</time></trkpt><trkpt lat="43.0627367" lon="11.7289633"><ele>475.0</ele><time>2026-04-26T14:07:46.298Z</time></trkpt><trkpt lat="43.062695" lon="11.7288683"><ele>475.00000000000006</ele><time>2026-04-26T14:07:47.298Z</time></trkpt><trkpt lat="43.0626767" lon="11.7287683"><ele>475.0</ele><time>2026-04-26T14:07:48.298Z</time></trkpt><trkpt lat="43.06268" lon="11.7286617"><ele>475.0</ele><time>2026-04-26T14:07:49.298Z</time></trkpt><trkpt lat="43.06271" lon="11.7285583"><ele>475.0</ele><time>2026-04-26T14:07:50.299Z</time></trkpt><trkpt lat="43.0627517" lon="11.7284617"><ele>475.00000000000006</ele><time>2026-04-26T14:07:51.299Z</time></trkpt><trkpt lat="43.0627933" lon="11.728365"><ele>475.0</ele><time>2026-04-26T14:07:52.298Z</time></trkpt><trkpt lat="43.062825" lon="11.72826"><ele>473.6666666666667</ele><time>2026-04-26T14:07:53.298Z</time></trkpt><trkpt lat="43.0628483" lon="11.72815"><ele>472.33333333333337</ele><time>2026-04-26T14:07:54.298Z</time></trkpt><trkpt lat="43.0628617" lon="11.72804"><ele>471.0</ele><time>2026-04-26T14:07:55.299Z</time></trkpt><trkpt lat="43.0628533" lon="11.7279183"><ele>469.66666666666663</ele><time>2026-04-26T14:07:56.298Z</time></trkpt><trkpt lat="43.0628233" lon="11.7278067"><ele>468.3333333333333</ele><time>2026-04-26T14:07:57.297Z</time></trkpt><trkpt lat="43.0627567" lon="11.7277383"><ele>467.0</ele><time>2026-04-26T14:07:58.297Z</time></trkpt><trkpt lat="43.0626783" lon="11.7277067"><ele>465.6</ele><time>2026-04-26T14:07:59.295Z</time></trkpt><trkpt lat="43.0625667" lon="11.72766"><ele>464.20000000000005</ele><time>2026-04-26T14:08:01.296Z</time></trkpt><trkpt lat="43.06249" lon="11.7275867"><ele>462.8</ele><time>2026-04-26T14:08:03.296Z</time></trkpt><trkpt lat="43.0624983" lon="11.7274583"><ele>461.4</ele><time>2026-04-26T14:08:05.298Z</time></trkpt><trkpt lat="43.062535" lon="11.7273867"><ele>460.0</ele><time>2026-04-26T14:08:06.296Z</time></trkpt><trkpt lat="43.0626033" lon="11.7273233"><ele>460.00000000000006</ele><time>2026-04-26T14:08:07.296Z</time></trkpt><trkpt lat="43.0626817" lon="11.7272717"><ele>460.0</ele><time>2026-04-26T14:08:08.296Z</time></trkpt><trkpt lat="43.0627517" lon="11.72722"><ele>460.0</ele><time>2026-04-26T14:08:09.295Z</time></trkpt><trkpt lat="43.062805" lon="11.7271583"><ele>460.0</ele><time>2026-04-26T14:08:10.298Z</time></trkpt><trkpt lat="43.062845" lon="11.72709"><ele>460.00000000000006</ele><time>2026-04-26T14:08:11.299Z</time></trkpt><trkpt lat="43.0628417" lon="11.7269233"><ele>460.0</ele><time>2026-04-26T14:08:13.298Z</time></trkpt><trkpt lat="43.0627867" lon="11.7268433"><ele>459.2</ele><time>2026-04-26T14:08:14.298Z</time></trkpt><trkpt lat="43.0627117" lon="11.7267683"><ele>458.4</ele><time>2026-04-26T14:08:15.297Z</time></trkpt><trkpt lat="43.0626233" lon="11.7266967"><ele>457.6</ele><time>2026-04-26T14:08:16.297Z</time></trkpt><trkpt lat="43.06254" lon="11.7266183"><ele>456.8</ele><time>2026-04-26T14:08:17.298Z</time></trkpt><trkpt lat="43.0624717" lon="11.726515"><ele>456.0</ele><time>2026-04-26T14:08:18.298Z</time></trkpt><trkpt lat="43.0624183" lon="11.726405"><ele>456.0</ele><time>2026-04-26T14:08:19.298Z</time></trkpt><trkpt lat="43.06238" lon="11.726285"><ele>456.0</ele><time>2026-04-26T14:08:20.298Z</time></trkpt><trkpt lat="43.0623517" lon="11.72616"><ele>456.0</ele><time>2026-04-26T14:08:21.299Z</time></trkpt><trkpt lat="43.06233" lon="11.7260433"><ele>456.0</ele><time>2026-04-26T14:08:22.299Z</time></trkpt><trkpt lat="43.0623183" lon="11.7259283"><ele>456.0</ele><time>2026-04-26T14:08:23.298Z</time></trkpt><trkpt lat="43.0623267" lon="11.7258183"><ele>456.0</ele><time>2026-04-26T14:08:24.298Z</time></trkpt><trkpt lat="43.062355" lon="11.72571"><ele>456.20000000000005</ele><time>2026-04-26T14:08:25.299Z</time></trkpt><trkpt lat="43.0624033" lon="11.7256217"><ele>456.40000000000003</ele><time>2026-04-26T14:08:26.298Z</time></trkpt><trkpt lat="43.0624817" lon="11.7255767"><ele>456.6</ele><time>2026-04-26T14:08:27.297Z</time></trkpt><trkpt lat="43.0625817" lon="11.7255617"><ele>456.8</ele><time>2026-04-26T14:08:28.299Z</time></trkpt><trkpt lat="43.062695" lon="11.7255617"><ele>457.0</ele><time>2026-04-26T14:08:29.295Z</time></trkpt><trkpt lat="43.0628067" lon="11.725545"><ele>455.5</ele><time>2026-04-26T14:08:30.297Z</time></trkpt><trkpt lat="43.06292" lon="11.725505"><ele>454.0</ele><time>2026-04-26T14:08:31.299Z</time></trkpt><trkpt lat="43.063035" lon="11.7254517"><ele>452.5</ele><time>2026-04-26T14:08:32.298Z</time></trkpt><trkpt lat="43.0631583" lon="11.7253767"><ele>451.0</ele><time>2026-04-26T14:08:33.296Z</time></trkpt><trkpt lat="43.0632933" lon="11.725285"><ele>453.0</ele><time>2026-04-26T14:08:34.297Z</time></trkpt><trkpt lat="43.0634417" lon="11.7251683"><ele>455.0</ele><time>2026-04-26T14:08:35.294Z</time></trkpt><trkpt lat="43.0636067" lon="11.7250417"><ele>457.0</ele><time>2026-04-26T14:08:36.296Z</time></trkpt><trkpt lat="43.0637733" lon="11.7249133"><ele>457.0</ele><time>2026-04-26T14:08:37.298Z</time></trkpt><trkpt lat="43.063925" lon="11.724795"><ele>457.0</ele><time>2026-04-26T14:08:38.296Z</time></trkpt><trkpt lat="43.0640583" lon="11.7246817"><ele>457.0</ele><time>2026-04-26T14:08:39.294Z</time></trkpt><trkpt lat="43.0641683" lon="11.72457"><ele>457.40000000000003</ele><time>2026-04-26T14:08:40.298Z</time></trkpt><trkpt lat="43.0642533" lon="11.7244533"><ele>457.80000000000007</ele><time>2026-04-26T14:08:41.298Z</time></trkpt><trkpt lat="43.0643133" lon="11.72433"><ele>458.2</ele><time>2026-04-26T14:08:42.299Z</time></trkpt><trkpt lat="43.0643517" lon="11.7242"><ele>458.6</ele><time>2026-04-26T14:08:43.298Z</time></trkpt><trkpt lat="43.0643817" lon="11.72406"><ele>459.0</ele><time>2026-04-26T14:08:44.298Z</time></trkpt><trkpt lat="43.0644067" lon="11.72392"><ele>460.0</ele><time>2026-04-26T14:08:45.297Z</time></trkpt><trkpt lat="43.0644317" lon="11.7237833"><ele>461.0</ele><time>2026-04-26T14:08:46.296Z</time></trkpt><trkpt lat="43.0644583" lon="11.7236467"><ele>462.0</ele><time>2026-04-26T14:08:47.299Z</time></trkpt><trkpt lat="43.0644833" lon="11.7235083"><ele>463.0</ele><time>2026-04-26T14:08:48.299Z</time></trkpt><trkpt lat="43.06451" lon="11.7233783"><ele>464.0</ele><time>2026-04-26T14:08:49.296Z</time></trkpt><trkpt lat="43.064535" lon="11.7232583"><ele>464.66666666666663</ele><time>2026-04-26T14:08:50.298Z</time></trkpt><trkpt lat="43.0645583" lon="11.72315"><ele>465.3333333333333</ele><time>2026-04-26T14:08:51.298Z</time></trkpt><trkpt lat="43.06458" lon="11.723055"><ele>466.0</ele><time>2026-04-26T14:08:52.299Z</time></trkpt><trkpt lat="43.0646117" lon="11.7229167"><ele>466.66666666666663</ele><time>2026-04-26T14:08:54.296Z</time></trkpt><trkpt lat="43.06463" lon="11.72281"><ele>467.3333333333333</ele><time>2026-04-26T14:08:57.295Z</time></trkpt><trkpt lat="43.0646233" lon="11.7227233"><ele>468.0</ele><time>2026-04-26T14:09:01.298Z</time></trkpt><trkpt lat="43.0645433" lon="11.7226467"><ele>468.5714285714286</ele><time>2026-04-26T14:09:03.298Z</time></trkpt><trkpt lat="43.0644867" lon="11.7226083"><ele>469.1428571428572</ele><time>2026-04-26T14:09:04.295Z</time></trkpt><trkpt lat="43.0644233" lon="11.7225717"><ele>469.7142857142857</ele><time>2026-04-26T14:09:05.296Z</time></trkpt><trkpt lat="43.0643533" lon="11.72253"><ele>470.28571428571433</ele><time>2026-04-26T14:09:06.297Z</time></trkpt><trkpt lat="43.0642833" lon="11.7224817"><ele>470.8571428571429</ele><time>2026-04-26T14:09:07.298Z</time></trkpt><trkpt lat="43.064215" lon="11.722425"><ele>471.42857142857144</ele><time>2026-04-26T14:09:08.295Z</time></trkpt><trkpt lat="43.0641467" lon="11.7223667"><ele>472.0</ele><time>2026-04-26T14:09:09.295Z</time></trkpt><trkpt lat="43.0640767" lon="11.7223117"><ele>472.1666666666667</ele><time>2026-04-26T14:09:10.296Z</time></trkpt><trkpt lat="43.0640067" lon="11.722255"><ele>472.33333333333337</ele><time>2026-04-26T14:09:11.299Z</time></trkpt><trkpt lat="43.0639367" lon="11.7221983"><ele>472.5</ele><time>2026-04-26T14:09:12.299Z</time></trkpt><trkpt lat="43.0638667" lon="11.7221433"><ele>472.66666666666663</ele><time>2026-04-26T14:09:13.299Z</time></trkpt><trkpt lat="43.063795" lon="11.72209"><ele>472.8333333333333</ele><time>2026-04-26T14:09:14.297Z</time></trkpt><trkpt lat="43.063725" lon="11.7220333"><ele>473.0</ele><time>2026-04-26T14:09:15.297Z</time></trkpt><trkpt lat="43.063655" lon="11.7219817"><ele>472.99999999999994</ele><time>2026-04-26T14:09:16.296Z</time></trkpt><trkpt lat="43.06358" lon="11.7219283"><ele>473.0</ele><time>2026-04-26T14:09:17.297Z</time></trkpt><trkpt lat="43.06351" lon="11.7218783"><ele>473.0</ele><time>2026-04-26T14:09:18.298Z</time></trkpt><trkpt lat="43.063445" lon="11.7218283"><ele>473.0</ele><time>2026-04-26T14:09:19.298Z</time></trkpt><trkpt lat="43.0633867" lon="11.721785"><ele>472.99999999999994</ele><time>2026-04-26T14:09:20.298Z</time></trkpt><trkpt lat="43.0632883" lon="11.72176"><ele>473.0</ele><time>2026-04-26T14:09:22.299Z</time></trkpt><trkpt lat="43.0631833" lon="11.7218467"><ele>474.79999999999995</ele><time>2026-04-26T14:09:24.298Z</time></trkpt><trkpt lat="43.0631017" lon="11.7219233"><ele>476.59999999999997</ele><time>2026-04-26T14:09:25.298Z</time></trkpt><trkpt lat="43.063005" lon="11.721995"><ele>478.40000000000003</ele><time>2026-04-26T14:09:26.298Z</time></trkpt><trkpt lat="43.0629083" lon="11.72206"><ele>480.20000000000005</ele><time>2026-04-26T14:09:27.299Z</time></trkpt><trkpt lat="43.0628083" lon="11.72212"><ele>482.0</ele><time>2026-04-26T14:09:28.297Z</time></trkpt><trkpt lat="43.06271" lon="11.7221767"><ele>481.99999999999994</ele><time>2026-04-26T14:09:29.297Z</time></trkpt><trkpt lat="43.0626183" lon="11.7222267"><ele>482.0</ele><time>2026-04-26T14:09:30.296Z</time></trkpt><trkpt lat="43.0625333" lon="11.7222767"><ele>482.0</ele><time>2026-04-26T14:09:31.297Z</time></trkpt><trkpt lat="43.0624583" lon="11.7223317"><ele>482.0</ele><time>2026-04-26T14:09:32.297Z</time></trkpt><trkpt lat="43.0623917" lon="11.7223833"><ele>481.99999999999994</ele><time>2026-04-26T14:09:33.295Z</time></trkpt><trkpt lat="43.0623333" lon="11.7224333"><ele>482.0</ele><time>2026-04-26T14:09:34.296Z</time></trkpt><trkpt lat="43.0622783" lon="11.7224817"><ele>482.0</ele><time>2026-04-26T14:09:35.295Z</time></trkpt><trkpt lat="43.06217" lon="11.72257"><ele>482.0</ele><time>2026-04-26T14:09:37.297Z</time></trkpt><trkpt lat="43.0620567" lon="11.722635"><ele>482.0</ele><time>2026-04-26T14:09:39.298Z</time></trkpt><trkpt lat="43.0619467" lon="11.72269"><ele>482.0</ele><time>2026-04-26T14:09:41.297Z</time></trkpt><trkpt lat="43.0618583" lon="11.7227333"><ele>481.99999999999994</ele><time>2026-04-26T14:09:43.297Z</time></trkpt><trkpt lat="43.0617883" lon="11.7227967"><ele>482.0</ele><time>2026-04-26T14:09:46.298Z</time></trkpt><trkpt lat="43.0618283" lon="11.7227283"><ele>482.0</ele><time>2026-04-26T14:23:12.297Z</time></trkpt><trkpt lat="43.061905" lon="11.7226983"><ele>482.0</ele><time>2026-04-26T14:23:15.299Z</time></trkpt><trkpt lat="43.0619717" lon="11.7226717"><ele>481.99999999999994</ele><time>2026-04-26T14:23:17.298Z</time></trkpt><trkpt lat="43.0620483" lon="11.7226383"><ele>482.0</ele><time>2026-04-26T14:23:19.297Z</time></trkpt><trkpt lat="43.0621267" lon="11.7225983"><ele>481.99999999999994</ele><time>2026-04-26T14:23:21.298Z</time></trkpt><trkpt lat="43.0622033" lon="11.722545"><ele>482.0</ele><time>2026-04-26T14:23:23.298Z</time></trkpt><trkpt lat="43.0622833" lon="11.722485"><ele>482.0</ele><time>2026-04-26T14:23:25.298Z</time></trkpt><trkpt lat="43.06239" lon="11.7224033"><ele>482.0</ele><time>2026-04-26T14:23:27.297Z</time></trkpt><trkpt lat="43.0624517" lon="11.7223583"><ele>481.99999999999994</ele><time>2026-04-26T14:23:28.298Z</time></trkpt><trkpt lat="43.0625133" lon="11.722315"><ele>482.0</ele><time>2026-04-26T14:23:29.298Z</time></trkpt><trkpt lat="43.0625733" lon="11.7222767"><ele>481.99999999999994</ele><time>2026-04-26T14:23:30.297Z</time></trkpt><trkpt lat="43.0626367" lon="11.7222417"><ele>482.0</ele><time>2026-04-26T14:23:31.298Z</time></trkpt><trkpt lat="43.0627017" lon="11.7222"><ele>482.0</ele><time>2026-04-26T14:23:32.298Z</time></trkpt><trkpt lat="43.0627717" lon="11.7221567"><ele>482.0</ele><time>2026-04-26T14:23:33.298Z</time></trkpt><trkpt lat="43.0628467" lon="11.722115"><ele>481.99999999999994</ele><time>2026-04-26T14:23:34.297Z</time></trkpt><trkpt lat="43.0629217" lon="11.7220733"><ele>482.0</ele><time>2026-04-26T14:23:35.298Z</time></trkpt><trkpt lat="43.06299" lon="11.7220317"><ele>481.99999999999994</ele><time>2026-04-26T14:23:36.298Z</time></trkpt><trkpt lat="43.0630517" lon="11.7219917"><ele>482.0</ele><time>2026-04-26T14:23:37.298Z</time></trkpt><trkpt lat="43.063155" lon="11.7219283"><ele>482.0</ele><time>2026-04-26T14:23:39.298Z</time></trkpt><trkpt lat="43.0632333" lon="11.7218767"><ele>482.0</ele><time>2026-04-26T14:23:41.298Z</time></trkpt><trkpt lat="43.06331" lon="11.72183"><ele>481.99999999999994</ele><time>2026-04-26T14:23:44.299Z</time></trkpt><trkpt lat="43.0633867" lon="11.7218133"><ele>482.0</ele><time>2026-04-26T14:23:48.297Z</time></trkpt><trkpt lat="43.0634517" lon="11.7218583"><ele>480.49999999999994</ele><time>2026-04-26T14:23:51.299Z</time></trkpt><trkpt lat="43.063515" lon="11.7219133"><ele>479.0</ele><time>2026-04-26T14:23:54.298Z</time></trkpt><trkpt lat="43.0635683" lon="11.721965"><ele>477.5</ele><time>2026-04-26T14:23:57.299Z</time></trkpt><trkpt lat="43.0636333" lon="11.7220033"><ele>476.0</ele><time>2026-04-26T14:24:01.298Z</time></trkpt><trkpt lat="43.0636917" lon="11.7220533"><ele>474.49999999999994</ele><time>2026-04-26T14:24:05.295Z</time></trkpt><trkpt lat="43.063755" lon="11.7220967"><ele>473.0</ele><time>2026-04-26T14:24:16.298Z</time></trkpt><trkpt lat="43.0638517" lon="11.72216"><ele>472.99999999999994</ele><time>2026-04-26T14:24:18.298Z</time></trkpt><trkpt lat="43.0639133" lon="11.7222033"><ele>473.0</ele><time>2026-04-26T14:24:19.298Z</time></trkpt><trkpt lat="43.0639767" lon="11.7222533"><ele>473.0</ele><time>2026-04-26T14:24:20.299Z</time></trkpt><trkpt lat="43.064045" lon="11.7223067"><ele>473.0</ele><time>2026-04-26T14:24:21.299Z</time></trkpt><trkpt lat="43.0641167" lon="11.7223617"><ele>472.99999999999994</ele><time>2026-04-26T14:24:22.298Z</time></trkpt><trkpt lat="43.0641883" lon="11.722415"><ele>473.0</ele><time>2026-04-26T14:24:23.297Z</time></trkpt><trkpt lat="43.06426" lon="11.7224683"><ele>472.8333333333333</ele><time>2026-04-26T14:24:24.297Z</time></trkpt><trkpt lat="43.0643333" lon="11.72252"><ele>472.66666666666663</ele><time>2026-04-26T14:24:25.299Z</time></trkpt><trkpt lat="43.0643983" lon="11.7225717"><ele>472.5</ele><time>2026-04-26T14:24:26.298Z</time></trkpt><trkpt lat="43.0644617" lon="11.7226233"><ele>472.33333333333337</ele><time>2026-04-26T14:24:27.298Z</time></trkpt><trkpt lat="43.064525" lon="11.7226667"><ele>472.1666666666667</ele><time>2026-04-26T14:24:28.298Z</time></trkpt><trkpt lat="43.0645883" lon="11.7227033"><ele>472.0</ele><time>2026-04-26T14:24:29.299Z</time></trkpt><trkpt lat="43.064705" lon="11.7226967"><ele>472.0</ele><time>2026-04-26T14:24:31.297Z</time></trkpt><trkpt lat="43.0647667" lon="11.7226483"><ele>472.00000000000006</ele><time>2026-04-26T14:24:32.298Z</time></trkpt><trkpt lat="43.064835" lon="11.7225783"><ele>472.00000000000006</ele><time>2026-04-26T14:24:33.297Z</time></trkpt><trkpt lat="43.0649167" lon="11.7225083"><ele>472.0</ele><time>2026-04-26T14:24:34.298Z</time></trkpt><trkpt lat="43.06501" lon="11.72244"><ele>472.0</ele><time>2026-04-26T14:24:35.299Z</time></trkpt><trkpt lat="43.065115" lon="11.7223733"><ele>471.8</ele><time>2026-04-26T14:24:36.299Z</time></trkpt><trkpt lat="43.0652217" lon="11.7223067"><ele>471.6</ele><time>2026-04-26T14:24:37.298Z</time></trkpt><trkpt lat="43.0653233" lon="11.722245"><ele>471.40000000000003</ele><time>2026-04-26T14:24:38.299Z</time></trkpt><trkpt lat="43.0654233" lon="11.7221817"><ele>471.20000000000005</ele><time>2026-04-26T14:24:39.299Z</time></trkpt><trkpt lat="43.06552" lon="11.722125"><ele>471.0</ele><time>2026-04-26T14:24:40.298Z</time></trkpt><trkpt lat="43.065615" lon="11.7220683"><ele>471.0</ele><time>2026-04-26T14:24:41.298Z</time></trkpt><trkpt lat="43.0657067" lon="11.7220117"><ele>471.0</ele><time>2026-04-26T14:24:42.298Z</time></trkpt><trkpt lat="43.0658" lon="11.721955"><ele>471.0</ele><time>2026-04-26T14:24:43.298Z</time></trkpt><trkpt lat="43.0658967" lon="11.721895"><ele>471.0</ele><time>2026-04-26T14:24:44.298Z</time></trkpt><trkpt lat="43.0659967" lon="11.7218367"><ele>471.0</ele><time>2026-04-26T14:24:45.298Z</time></trkpt><trkpt lat="43.0660967" lon="11.7217783"><ele>468.0</ele><time>2026-04-26T14:24:46.298Z</time></trkpt><trkpt lat="43.0661917" lon="11.7217267"><ele>465.0</ele><time>2026-04-26T14:24:47.298Z</time></trkpt><trkpt lat="43.0662817" lon="11.7216783"><ele>462.0</ele><time>2026-04-26T14:24:48.299Z</time></trkpt><trkpt lat="43.0663733" lon="11.7216367"><ele>459.0</ele><time>2026-04-26T14:24:49.298Z</time></trkpt><trkpt lat="43.0664633" lon="11.721595"><ele>456.0</ele><time>2026-04-26T14:24:50.298Z</time></trkpt><trkpt lat="43.0665517" lon="11.721555"><ele>455.4</ele><time>2026-04-26T14:24:51.298Z</time></trkpt><trkpt lat="43.0666433" lon="11.7215233"><ele>454.8</ele><time>2026-04-26T14:24:52.298Z</time></trkpt><trkpt lat="43.0667367" lon="11.7214967"><ele>454.19999999999993</ele><time>2026-04-26T14:24:53.299Z</time></trkpt><trkpt lat="43.0668317" lon="11.7214767"><ele>453.59999999999997</ele><time>2026-04-26T14:24:54.299Z</time></trkpt><trkpt lat="43.0669283" lon="11.72146"><ele>453.0</ele><time>2026-04-26T14:24:55.299Z</time></trkpt><trkpt lat="43.067025" lon="11.7214467"><ele>453.0</ele><time>2026-04-26T14:24:56.299Z</time></trkpt><trkpt lat="43.0671183" lon="11.7214333"><ele>453.0</ele><time>2026-04-26T14:24:57.299Z</time></trkpt><trkpt lat="43.06721" lon="11.7214217"><ele>453.0</ele><time>2026-04-26T14:24:58.297Z</time></trkpt><trkpt lat="43.0672983" lon="11.7214117"><ele>453.0</ele><time>2026-04-26T14:24:59.297Z</time></trkpt><trkpt lat="43.0673833" lon="11.7213983"><ele>453.0</ele><time>2026-04-26T14:25:00.297Z</time></trkpt><trkpt lat="43.0674617" lon="11.7213867"><ele>453.0</ele><time>2026-04-26T14:25:01.298Z</time></trkpt><trkpt lat="43.0675317" lon="11.7213733"><ele>452.3333333333333</ele><time>2026-04-26T14:25:02.299Z</time></trkpt><trkpt lat="43.0675967" lon="11.7213467"><ele>451.66666666666663</ele><time>2026-04-26T14:25:03.298Z</time></trkpt><trkpt lat="43.0676633" lon="11.7212933"><ele>451.0</ele><time>2026-04-26T14:25:04.297Z</time></trkpt><trkpt lat="43.06772" lon="11.7212067"><ele>450.3333333333333</ele><time>2026-04-26T14:25:05.297Z</time></trkpt><trkpt lat="43.067775" lon="11.7211033"><ele>449.66666666666663</ele><time>2026-04-26T14:25:06.297Z</time></trkpt><trkpt lat="43.0678333" lon="11.7209917"><ele>449.0</ele><time>2026-04-26T14:25:07.299Z</time></trkpt><trkpt lat="43.0678983" lon="11.7208967"><ele>446.4</ele><time>2026-04-26T14:25:08.299Z</time></trkpt><trkpt lat="43.0679633" lon="11.7207983"><ele>443.79999999999995</ele><time>2026-04-26T14:25:09.296Z</time></trkpt><trkpt lat="43.0680317" lon="11.7206967"><ele>441.20000000000005</ele><time>2026-04-26T14:25:10.297Z</time></trkpt><trkpt lat="43.068105" lon="11.7205983"><ele>438.6</ele><time>2026-04-26T14:25:11.299Z</time></trkpt><trkpt lat="43.0681783" lon="11.7204933"><ele>436.0</ele><time>2026-04-26T14:25:12.298Z</time></trkpt><trkpt lat="43.068255" lon="11.7203917"><ele>434.4</ele><time>2026-04-26T14:25:13.298Z</time></trkpt><trkpt lat="43.0683383" lon="11.7202917"><ele>432.8</ele><time>2026-04-26T14:25:14.298Z</time></trkpt><trkpt lat="43.0684267" lon="11.720205"><ele>431.19999999999993</ele><time>2026-04-26T14:25:15.297Z</time></trkpt><trkpt lat="43.0685183" lon="11.7201267"><ele>429.59999999999997</ele><time>2026-04-26T14:25:16.298Z</time></trkpt><trkpt lat="43.068615" lon="11.7200517"><ele>428.0</ele><time>2026-04-26T14:25:17.297Z</time></trkpt><trkpt lat="43.06871" lon="11.7199817"><ele>426.2</ele><time>2026-04-26T14:25:18.297Z</time></trkpt><trkpt lat="43.0688033" lon="11.71991"><ele>424.4</ele><time>2026-04-26T14:25:19.296Z</time></trkpt><trkpt lat="43.0688933" lon="11.7198383"><ele>422.59999999999997</ele><time>2026-04-26T14:25:20.299Z</time></trkpt><trkpt lat="43.0689833" lon="11.71977"><ele>420.79999999999995</ele><time>2026-04-26T14:25:21.295Z</time></trkpt><trkpt lat="43.0690717" lon="11.7197033"><ele>419.0</ele><time>2026-04-26T14:25:22.296Z</time></trkpt><trkpt lat="43.0691617" lon="11.7196417"><ele>418.2</ele><time>2026-04-26T14:25:23.298Z</time></trkpt><trkpt lat="43.069255" lon="11.7195833"><ele>417.4</ele><time>2026-04-26T14:25:24.299Z</time></trkpt><trkpt lat="43.0693467" lon="11.7195317"><ele>416.6</ele><time>2026-04-26T14:25:25.297Z</time></trkpt><trkpt lat="43.0694283" lon="11.7194783"><ele>415.8</ele><time>2026-04-26T14:25:26.298Z</time></trkpt><trkpt lat="43.0695067" lon="11.719435"><ele>415.0</ele><time>2026-04-26T14:25:27.298Z</time></trkpt><trkpt lat="43.0695783" lon="11.7193933"><ele>414.0</ele><time>2026-04-26T14:25:28.298Z</time></trkpt><trkpt lat="43.06964" lon="11.7193517"><ele>413.0</ele><time>2026-04-26T14:25:29.297Z</time></trkpt><trkpt lat="43.0696917" lon="11.7193"><ele>412.0</ele><time>2026-04-26T14:25:30.297Z</time></trkpt><trkpt lat="43.06974" lon="11.7192367"><ele>411.0</ele><time>2026-04-26T14:25:31.299Z</time></trkpt><trkpt lat="43.0697783" lon="11.71916"><ele>410.0</ele><time>2026-04-26T14:25:32.299Z</time></trkpt><trkpt lat="43.069805" lon="11.719065"><ele>409.0</ele><time>2026-04-26T14:25:33.299Z</time></trkpt><trkpt lat="43.0698233" lon="11.7189467"><ele>408.0</ele><time>2026-04-26T14:25:34.298Z</time></trkpt><trkpt lat="43.0698433" lon="11.7188317"><ele>408.0</ele><time>2026-04-26T14:25:35.298Z</time></trkpt><trkpt lat="43.0698617" lon="11.7187083"><ele>408.0</ele><time>2026-04-26T14:25:36.298Z</time></trkpt><trkpt lat="43.0698817" lon="11.7185867"><ele>408.0</ele><time>2026-04-26T14:25:37.299Z</time></trkpt><trkpt lat="43.0699033" lon="11.718465"><ele>408.0</ele><time>2026-04-26T14:25:38.299Z</time></trkpt><trkpt lat="43.0699233" lon="11.7183433"><ele>408.0</ele><time>2026-04-26T14:25:39.299Z</time></trkpt><trkpt lat="43.0699483" lon="11.7182217"><ele>405.0</ele><time>2026-04-26T14:25:40.298Z</time></trkpt><trkpt lat="43.069975" lon="11.7180983"><ele>402.0</ele><time>2026-04-26T14:25:41.298Z</time></trkpt><trkpt lat="43.0700033" lon="11.7179733"><ele>399.0</ele><time>2026-04-26T14:25:42.298Z</time></trkpt><trkpt lat="43.0700367" lon="11.71785"><ele>396.0</ele><time>2026-04-26T14:25:43.299Z</time></trkpt><trkpt lat="43.0700733" lon="11.717725"><ele>393.0</ele><time>2026-04-26T14:25:44.298Z</time></trkpt><trkpt lat="43.070115" lon="11.7176017"><ele>391.2</ele><time>2026-04-26T14:25:45.298Z</time></trkpt><trkpt lat="43.0701617" lon="11.7174817"><ele>389.4</ele><time>2026-04-26T14:25:46.299Z</time></trkpt><trkpt lat="43.0702167" lon="11.717365"><ele>387.59999999999997</ele><time>2026-04-26T14:25:47.297Z</time></trkpt><trkpt lat="43.0702733" lon="11.7172483"><ele>385.79999999999995</ele><time>2026-04-26T14:25:48.297Z</time></trkpt><trkpt lat="43.0703267" lon="11.7171283"><ele>384.0</ele><time>2026-04-26T14:25:49.298Z</time></trkpt><trkpt lat="43.0703783" lon="11.717005"><ele>381.79999999999995</ele><time>2026-04-26T14:25:50.298Z</time></trkpt><trkpt lat="43.0704217" lon="11.7168783"><ele>379.59999999999997</ele><time>2026-04-26T14:25:51.298Z</time></trkpt><trkpt lat="43.0704583" lon="11.7167467"><ele>377.4</ele><time>2026-04-26T14:25:52.298Z</time></trkpt><trkpt lat="43.07049" lon="11.716615"><ele>375.2</ele><time>2026-04-26T14:25:53.299Z</time></trkpt><trkpt lat="43.0705167" lon="11.7164833"><ele>373.0</ele><time>2026-04-26T14:25:54.298Z</time></trkpt><trkpt lat="43.0705467" lon="11.7163633"><ele>373.0</ele><time>2026-04-26T14:25:55.298Z</time></trkpt><trkpt lat="43.0705717" lon="11.716245"><ele>373.0</ele><time>2026-04-26T14:25:56.299Z</time></trkpt><trkpt lat="43.0706" lon="11.7161367"><ele>373.0</ele><time>2026-04-26T14:25:57.299Z</time></trkpt><trkpt lat="43.070625" lon="11.7160283"><ele>373.0</ele><time>2026-04-26T14:25:58.298Z</time></trkpt><trkpt lat="43.0706467" lon="11.7159233"><ele>373.0</ele><time>2026-04-26T14:25:59.298Z</time></trkpt><trkpt lat="43.0706567" lon="11.715815"><ele>373.0</ele><time>2026-04-26T14:26:00.298Z</time></trkpt><trkpt lat="43.0706533" lon="11.7157083"><ele>372.0</ele><time>2026-04-26T14:26:01.298Z</time></trkpt><trkpt lat="43.0706417" lon="11.7156133"><ele>371.0</ele><time>2026-04-26T14:26:02.298Z</time></trkpt><trkpt lat="43.070605" lon="11.7155217"><ele>370.0</ele><time>2026-04-26T14:26:03.299Z</time></trkpt><trkpt lat="43.07056" lon="11.71544"><ele>369.0</ele><time>2026-04-26T14:26:04.297Z</time></trkpt><trkpt lat="43.0705017" lon="11.7153583"><ele>368.0</ele><time>2026-04-26T14:26:05.299Z</time></trkpt><trkpt lat="43.0704333" lon="11.7152833"><ele>367.0</ele><time>2026-04-26T14:26:06.298Z</time></trkpt><trkpt lat="43.070355" lon="11.7152017"><ele>365.40000000000003</ele><time>2026-04-26T14:26:07.297Z</time></trkpt><trkpt lat="43.0702867" lon="11.7151033"><ele>363.8</ele><time>2026-04-26T14:26:08.3Z</time></trkpt><trkpt lat="43.0702383" lon="11.7149867"><ele>362.2</ele><time>2026-04-26T14:26:09.298Z</time></trkpt><trkpt lat="43.0702117" lon="11.7148617"><ele>360.6</ele><time>2026-04-26T14:26:10.298Z</time></trkpt><trkpt lat="43.07021" lon="11.7147333"><ele>359.0</ele><time>2026-04-26T14:26:11.298Z</time></trkpt><trkpt lat="43.0702233" lon="11.7146033"><ele>359.0</ele><time>2026-04-26T14:26:12.298Z</time></trkpt><trkpt lat="43.0702433" lon="11.7144683"><ele>359.0</ele><time>2026-04-26T14:26:13.298Z</time></trkpt><trkpt lat="43.0702583" lon="11.7143333"><ele>359.0</ele><time>2026-04-26T14:26:14.3Z</time></trkpt><trkpt lat="43.070265" lon="11.714195"><ele>359.0</ele><time>2026-04-26T14:26:15.299Z</time></trkpt><trkpt lat="43.070265" lon="11.71406"><ele>359.0</ele><time>2026-04-26T14:26:16.299Z</time></trkpt><trkpt lat="43.0702567" lon="11.713925"><ele>358.6</ele><time>2026-04-26T14:26:17.298Z</time></trkpt><trkpt lat="43.0702433" lon="11.7137867"><ele>358.2</ele><time>2026-04-26T14:26:18.299Z</time></trkpt><trkpt lat="43.0702283" lon="11.7136467"><ele>357.8</ele><time>2026-04-26T14:26:19.297Z</time></trkpt><trkpt lat="43.07021" lon="11.7134983"><ele>357.40000000000003</ele><time>2026-04-26T14:26:20.298Z</time></trkpt><trkpt lat="43.0701933" lon="11.7133367"><ele>357.0</ele><time>2026-04-26T14:26:21.299Z</time></trkpt><trkpt lat="43.0701783" lon="11.713175"><ele>355.6</ele><time>2026-04-26T14:26:22.299Z</time></trkpt><trkpt lat="43.070165" lon="11.713015"><ele>354.20000000000005</ele><time>2026-04-26T14:26:23.299Z</time></trkpt><trkpt lat="43.0701533" lon="11.712855"><ele>352.8</ele><time>2026-04-26T14:26:24.299Z</time></trkpt><trkpt lat="43.0701433" lon="11.7127017"><ele>351.4</ele><time>2026-04-26T14:26:25.298Z</time></trkpt><trkpt lat="43.07014" lon="11.7125633"><ele>350.0</ele><time>2026-04-26T14:26:26.3Z</time></trkpt><trkpt lat="43.07015" lon="11.7124283"><ele>349.0</ele><time>2026-04-26T14:26:27.297Z</time></trkpt><trkpt lat="43.0701767" lon="11.7123117"><ele>348.0</ele><time>2026-04-26T14:26:28.298Z</time></trkpt><trkpt lat="43.0702233" lon="11.71221"><ele>347.0</ele><time>2026-04-26T14:26:29.298Z</time></trkpt><trkpt lat="43.0702833" lon="11.7121267"><ele>346.0</ele><time>2026-04-26T14:26:30.299Z</time></trkpt><trkpt lat="43.070355" lon="11.712075"><ele>345.0</ele><time>2026-04-26T14:26:31.3Z</time></trkpt><trkpt lat="43.0704367" lon="11.7120617"><ele>344.0</ele><time>2026-04-26T14:26:32.299Z</time></trkpt><trkpt lat="43.0705183" lon="11.7120817"><ele>344.0</ele><time>2026-04-26T14:26:33.299Z</time></trkpt><trkpt lat="43.07061" lon="11.7121233"><ele>344.0</ele><time>2026-04-26T14:26:34.298Z</time></trkpt><trkpt lat="43.07071" lon="11.7121683"><ele>344.0</ele><time>2026-04-26T14:26:35.298Z</time></trkpt><trkpt lat="43.07081" lon="11.7122167"><ele>344.0</ele><time>2026-04-26T14:26:36.298Z</time></trkpt><trkpt lat="43.07091" lon="11.712265"><ele>344.0</ele><time>2026-04-26T14:26:37.297Z</time></trkpt><trkpt lat="43.0710067" lon="11.7123133"><ele>344.0</ele><time>2026-04-26T14:26:38.298Z</time></trkpt><trkpt lat="43.0711" lon="11.71235"><ele>344.0</ele><time>2026-04-26T14:26:39.298Z</time></trkpt><trkpt lat="43.07119" lon="11.7123767"><ele>344.0</ele><time>2026-04-26T14:26:40.297Z</time></trkpt><trkpt lat="43.0712717" lon="11.712385"><ele>344.0</ele><time>2026-04-26T14:26:41.299Z</time></trkpt><trkpt lat="43.0713517" lon="11.71238"><ele>344.0</ele><time>2026-04-26T14:26:42.298Z</time></trkpt><trkpt lat="43.07143" lon="11.712355"><ele>344.0</ele><time>2026-04-26T14:26:43.296Z</time></trkpt><trkpt lat="43.0715017" lon="11.7123067"><ele>344.0</ele><time>2026-04-26T14:26:44.3Z</time></trkpt><trkpt lat="43.0715717" lon="11.7122467"><ele>344.0</ele><time>2026-04-26T14:26:45.296Z</time></trkpt><trkpt lat="43.0716333" lon="11.7121533"><ele>344.0</ele><time>2026-04-26T14:26:46.299Z</time></trkpt><trkpt lat="43.071685" lon="11.7120233"><ele>344.0</ele><time>2026-04-26T14:26:47.298Z</time></trkpt><trkpt lat="43.0717383" lon="11.7118767"><ele>344.0</ele><time>2026-04-26T14:26:48.298Z</time></trkpt><trkpt lat="43.0717917" lon="11.71173"><ele>343.75</ele><time>2026-04-26T14:26:49.298Z</time></trkpt><trkpt lat="43.0718517" lon="11.711585"><ele>343.5</ele><time>2026-04-26T14:26:50.3Z</time></trkpt><trkpt lat="43.0719083" lon="11.71143"><ele>343.25</ele><time>2026-04-26T14:26:51.297Z</time></trkpt><trkpt lat="43.0719633" lon="11.711275"><ele>343.0</ele><time>2026-04-26T14:26:52.299Z</time></trkpt><trkpt lat="43.072015" lon="11.7111267"><ele>343.2</ele><time>2026-04-26T14:26:53.298Z</time></trkpt><trkpt lat="43.07206" lon="11.71099"><ele>343.4</ele><time>2026-04-26T14:26:54.298Z</time></trkpt><trkpt lat="43.072095" lon="11.7108717"><ele>343.59999999999997</ele><time>2026-04-26T14:26:55.298Z</time></trkpt><trkpt lat="43.072115" lon="11.7107617"><ele>343.79999999999995</ele><time>2026-04-26T14:26:56.298Z</time></trkpt><trkpt lat="43.0721083" lon="11.7106417"><ele>344.0</ele><time>2026-04-26T14:26:57.296Z</time></trkpt><trkpt lat="43.0720767" lon="11.7105117"><ele>344.0</ele><time>2026-04-26T14:26:58.297Z</time></trkpt><trkpt lat="43.0720383" lon="11.7103883"><ele>344.0</ele><time>2026-04-26T14:26:59.298Z</time></trkpt><trkpt lat="43.0720017" lon="11.7102717"><ele>344.0</ele><time>2026-04-26T14:27:00.298Z</time></trkpt><trkpt lat="43.0719683" lon="11.710155"><ele>344.0</ele><time>2026-04-26T14:27:01.298Z</time></trkpt><trkpt lat="43.0719333" lon="11.7100417"><ele>344.0</ele><time>2026-04-26T14:27:02.299Z</time></trkpt><trkpt lat="43.071905" lon="11.7099317"><ele>343.6666666666667</ele><time>2026-04-26T14:27:03.296Z</time></trkpt><trkpt lat="43.071875" lon="11.709825"><ele>343.33333333333337</ele><time>2026-04-26T14:27:04.297Z</time></trkpt><trkpt lat="43.0718467" lon="11.70972"><ele>343.0</ele><time>2026-04-26T14:27:05.298Z</time></trkpt><trkpt lat="43.0718183" lon="11.709615"><ele>342.6666666666667</ele><time>2026-04-26T14:27:06.298Z</time></trkpt><trkpt lat="43.07179" lon="11.7095083"><ele>342.3333333333333</ele><time>2026-04-26T14:27:07.298Z</time></trkpt><trkpt lat="43.07176" lon="11.709395"><ele>342.0</ele><time>2026-04-26T14:27:08.299Z</time></trkpt><trkpt lat="43.07173" lon="11.7092733"><ele>341.6</ele><time>2026-04-26T14:27:09.298Z</time></trkpt><trkpt lat="43.0716967" lon="11.709145"><ele>341.20000000000005</ele><time>2026-04-26T14:27:10.296Z</time></trkpt><trkpt lat="43.07166" lon="11.7090067"><ele>340.8</ele><time>2026-04-26T14:27:11.298Z</time></trkpt><trkpt lat="43.0716217" lon="11.70887"><ele>340.4</ele><time>2026-04-26T14:27:12.297Z</time></trkpt><trkpt lat="43.0715817" lon="11.7087317"><ele>340.0</ele><time>2026-04-26T14:27:13.3Z</time></trkpt><trkpt lat="43.0715433" lon="11.7085983"><ele>339.4</ele><time>2026-04-26T14:27:14.299Z</time></trkpt><trkpt lat="43.0715017" lon="11.7084667"><ele>338.8</ele><time>2026-04-26T14:27:15.298Z</time></trkpt><trkpt lat="43.071465" lon="11.7083383"><ele>338.20000000000005</ele><time>2026-04-26T14:27:16.299Z</time></trkpt><trkpt lat="43.0714317" lon="11.7082083"><ele>337.6</ele><time>2026-04-26T14:27:17.299Z</time></trkpt><trkpt lat="43.0714017" lon="11.708075"><ele>337.0</ele><time>2026-04-26T14:27:18.296Z</time></trkpt><trkpt lat="43.0713733" lon="11.7079367"><ele>337.0</ele><time>2026-04-26T14:27:19.296Z</time></trkpt><trkpt lat="43.0713517" lon="11.7077967"><ele>337.0</ele><time>2026-04-26T14:27:20.297Z</time></trkpt><trkpt lat="43.0713317" lon="11.7076517"><ele>337.0</ele><time>2026-04-26T14:27:21.295Z</time></trkpt><trkpt lat="43.0713133" lon="11.7075083"><ele>337.0</ele><time>2026-04-26T14:27:22.296Z</time></trkpt><trkpt lat="43.071295" lon="11.7073633"><ele>337.0</ele><time>2026-04-26T14:27:23.298Z</time></trkpt><trkpt lat="43.07127" lon="11.7072167"><ele>337.0</ele><time>2026-04-26T14:27:24.296Z</time></trkpt><trkpt lat="43.0712317" lon="11.70707"><ele>337.0</ele><time>2026-04-26T14:27:25.294Z</time></trkpt><trkpt lat="43.0711883" lon="11.7069267"><ele>337.0</ele><time>2026-04-26T14:27:26.297Z</time></trkpt><trkpt lat="43.0711383" lon="11.706785"><ele>337.0</ele><time>2026-04-26T14:27:27.297Z</time></trkpt><trkpt lat="43.0710883" lon="11.7066433"><ele>336.5</ele><time>2026-04-26T14:27:28.296Z</time></trkpt><trkpt lat="43.0710333" lon="11.7065033"><ele>336.0</ele><time>2026-04-26T14:27:29.297Z</time></trkpt><trkpt lat="43.0709767" lon="11.7063717"><ele>335.5</ele><time>2026-04-26T14:27:30.298Z</time></trkpt><trkpt lat="43.07092" lon="11.7062383"><ele>335.0</ele><time>2026-04-26T14:27:31.298Z</time></trkpt><trkpt lat="43.0708583" lon="11.7061083"><ele>335.0</ele><time>2026-04-26T14:27:32.299Z</time></trkpt><trkpt lat="43.0707983" lon="11.7059817"><ele>335.0</ele><time>2026-04-26T14:27:33.298Z</time></trkpt><trkpt lat="43.070735" lon="11.7058583"><ele>335.0</ele><time>2026-04-26T14:27:34.298Z</time></trkpt><trkpt lat="43.0706683" lon="11.70573"><ele>335.0</ele><time>2026-04-26T14:27:35.298Z</time></trkpt><trkpt lat="43.0705983" lon="11.7056033"><ele>334.25</ele><time>2026-04-26T14:27:36.299Z</time></trkpt><trkpt lat="43.0705233" lon="11.7054783"><ele>333.5</ele><time>2026-04-26T14:27:37.299Z</time></trkpt><trkpt lat="43.0704467" lon="11.70535"><ele>332.75</ele><time>2026-04-26T14:27:38.3Z</time></trkpt><trkpt lat="43.0703667" lon="11.7052317"><ele>332.0</ele><time>2026-04-26T14:27:39.297Z</time></trkpt><trkpt lat="43.070285" lon="11.70511"><ele>331.75</ele><time>2026-04-26T14:27:40.298Z</time></trkpt><trkpt lat="43.0702033" lon="11.7049933"><ele>331.5</ele><time>2026-04-26T14:27:41.298Z</time></trkpt><trkpt lat="43.0701233" lon="11.7048717"><ele>331.25</ele><time>2026-04-26T14:27:42.298Z</time></trkpt><trkpt lat="43.0700467" lon="11.704755"><ele>331.0</ele><time>2026-04-26T14:27:43.297Z</time></trkpt><trkpt lat="43.0699683" lon="11.7046383"><ele>331.0</ele><time>2026-04-26T14:27:44.297Z</time></trkpt><trkpt lat="43.0698917" lon="11.7045217"><ele>331.0</ele><time>2026-04-26T14:27:45.298Z</time></trkpt><trkpt lat="43.069815" lon="11.7044067"><ele>331.0</ele><time>2026-04-26T14:27:46.298Z</time></trkpt><trkpt lat="43.0697417" lon="11.704285"><ele>331.0</ele><time>2026-04-26T14:27:47.296Z</time></trkpt><trkpt lat="43.0696683" lon="11.7041633"><ele>331.0</ele><time>2026-04-26T14:27:48.297Z</time></trkpt><trkpt lat="43.0696" lon="11.7040383"><ele>331.0</ele><time>2026-04-26T14:27:49.296Z</time></trkpt><trkpt lat="43.0695383" lon="11.70391"><ele>331.0</ele><time>2026-04-26T14:27:50.298Z</time></trkpt><trkpt lat="43.0694867" lon="11.7037783"><ele>331.0</ele><time>2026-04-26T14:27:51.298Z</time></trkpt><trkpt lat="43.06944" lon="11.703645"><ele>331.0</ele><time>2026-04-26T14:27:52.297Z</time></trkpt><trkpt lat="43.0693933" lon="11.703515"><ele>331.0</ele><time>2026-04-26T14:27:53.297Z</time></trkpt><trkpt lat="43.0693417" lon="11.7033883"><ele>331.0</ele><time>2026-04-26T14:27:54.296Z</time></trkpt><trkpt lat="43.0692833" lon="11.703265"><ele>331.0</ele><time>2026-04-26T14:27:55.296Z</time></trkpt><trkpt lat="43.06922" lon="11.70314"><ele>331.0</ele><time>2026-04-26T14:27:56.297Z</time></trkpt><trkpt lat="43.069155" lon="11.7030167"><ele>331.0</ele><time>2026-04-26T14:27:57.297Z</time></trkpt><trkpt lat="43.069085" lon="11.7028917"><ele>331.0</ele><time>2026-04-26T14:27:58.297Z</time></trkpt><trkpt lat="43.0690083" lon="11.7027567"><ele>331.0</ele><time>2026-04-26T14:27:59.298Z</time></trkpt><trkpt lat="43.0689267" lon="11.7026083"><ele>331.0</ele><time>2026-04-26T14:28:00.295Z</time></trkpt><trkpt lat="43.06884" lon="11.7024517"><ele>331.0</ele><time>2026-04-26T14:28:01.298Z</time></trkpt><trkpt lat="43.0687567" lon="11.70229"><ele>331.25</ele><time>2026-04-26T14:28:02.299Z</time></trkpt><trkpt lat="43.0686767" lon="11.7021317"><ele>331.5</ele><time>2026-04-26T14:28:03.299Z</time></trkpt><trkpt lat="43.0686067" lon="11.701975"><ele>331.75</ele><time>2026-04-26T14:28:04.299Z</time></trkpt><trkpt lat="43.0685483" lon="11.7018167"><ele>332.0</ele><time>2026-04-26T14:28:05.299Z</time></trkpt><trkpt lat="43.0685017" lon="11.7016567"><ele>334.25</ele><time>2026-04-26T14:28:06.298Z</time></trkpt><trkpt lat="43.0684633" lon="11.70149"><ele>336.5</ele><time>2026-04-26T14:28:07.298Z</time></trkpt><trkpt lat="43.0684283" lon="11.701315"><ele>338.75</ele><time>2026-04-26T14:28:08.299Z</time></trkpt><trkpt lat="43.0683867" lon="11.7011383"><ele>341.0</ele><time>2026-04-26T14:28:09.297Z</time></trkpt><trkpt lat="43.06834" lon="11.7009683"><ele>341.5</ele><time>2026-04-26T14:28:10.297Z</time></trkpt><trkpt lat="43.06829" lon="11.7008017"><ele>342.0</ele><time>2026-04-26T14:28:11.298Z</time></trkpt><trkpt lat="43.06823" lon="11.7006417"><ele>342.5</ele><time>2026-04-26T14:28:12.298Z</time></trkpt><trkpt lat="43.0681667" lon="11.70049"><ele>343.0</ele><time>2026-04-26T14:28:13.298Z</time></trkpt><trkpt lat="43.0681017" lon="11.70034"><ele>345.25</ele><time>2026-04-26T14:28:14.298Z</time></trkpt><trkpt lat="43.0680383" lon="11.700195"><ele>347.5</ele><time>2026-04-26T14:28:15.298Z</time></trkpt><trkpt lat="43.0679767" lon="11.7000433"><ele>349.75</ele><time>2026-04-26T14:28:16.298Z</time></trkpt><trkpt lat="43.0679133" lon="11.69989"><ele>352.0</ele><time>2026-04-26T14:28:17.298Z</time></trkpt><trkpt lat="43.0678517" lon="11.6997417"><ele>352.0</ele><time>2026-04-26T14:28:18.296Z</time></trkpt><trkpt lat="43.06779" lon="11.699595"><ele>352.0</ele><time>2026-04-26T14:28:19.296Z</time></trkpt><trkpt lat="43.0677217" lon="11.6994583"><ele>352.0</ele><time>2026-04-26T14:28:20.298Z</time></trkpt><trkpt lat="43.0676383" lon="11.69934"><ele>352.0</ele><time>2026-04-26T14:28:21.297Z</time></trkpt><trkpt lat="43.0675433" lon="11.69924"><ele>351.5</ele><time>2026-04-26T14:28:22.294Z</time></trkpt><trkpt lat="43.0674367" lon="11.6991517"><ele>351.0</ele><time>2026-04-26T14:28:23.298Z</time></trkpt><trkpt lat="43.0673267" lon="11.69906"><ele>350.5</ele><time>2026-04-26T14:28:24.296Z</time></trkpt><trkpt lat="43.067215" lon="11.6989683"><ele>350.0</ele><time>2026-04-26T14:28:25.296Z</time></trkpt><trkpt lat="43.067105" lon="11.6988817"><ele>350.0</ele><time>2026-04-26T14:28:26.298Z</time></trkpt><trkpt lat="43.0669967" lon="11.698795"><ele>350.0</ele><time>2026-04-26T14:28:27.296Z</time></trkpt><trkpt lat="43.0668883" lon="11.6987033"><ele>350.0</ele><time>2026-04-26T14:28:28.295Z</time></trkpt><trkpt lat="43.066775" lon="11.6986167"><ele>350.0</ele><time>2026-04-26T14:28:29.299Z</time></trkpt><trkpt lat="43.06666" lon="11.6985283"><ele>349.0</ele><time>2026-04-26T14:28:30.298Z</time></trkpt><trkpt lat="43.0665433" lon="11.69844"><ele>348.0</ele><time>2026-04-26T14:28:31.298Z</time></trkpt><trkpt lat="43.0664267" lon="11.69835"><ele>347.0</ele><time>2026-04-26T14:28:32.299Z</time></trkpt><trkpt lat="43.0663133" lon="11.69826"><ele>346.0</ele><time>2026-04-26T14:28:33.298Z</time></trkpt><trkpt lat="43.0662017" lon="11.69817"><ele>346.0</ele><time>2026-04-26T14:28:34.298Z</time></trkpt><trkpt lat="43.0660983" lon="11.6980867"><ele>346.0</ele><time>2026-04-26T14:28:35.297Z</time></trkpt><trkpt lat="43.066" lon="11.69801"><ele>346.0</ele><time>2026-04-26T14:28:36.296Z</time></trkpt><trkpt lat="43.0659083" lon="11.697935"><ele>346.0</ele><time>2026-04-26T14:28:37.298Z</time></trkpt><trkpt lat="43.065825" lon="11.6978567"><ele>346.0</ele><time>2026-04-26T14:28:38.302Z</time></trkpt><trkpt lat="43.0657483" lon="11.69777"><ele>344.4</ele><time>2026-04-26T14:28:39.298Z</time></trkpt><trkpt lat="43.0656833" lon="11.697655"><ele>342.8</ele><time>2026-04-26T14:28:40.298Z</time></trkpt><trkpt lat="43.06564" lon="11.69752"><ele>341.2</ele><time>2026-04-26T14:28:41.298Z</time></trkpt><trkpt lat="43.0656117" lon="11.697375"><ele>339.59999999999997</ele><time>2026-04-26T14:28:42.299Z</time></trkpt><trkpt lat="43.0655917" lon="11.697225"><ele>338.0</ele><time>2026-04-26T14:28:43.297Z</time></trkpt><trkpt lat="43.065575" lon="11.6970717"><ele>339.25</ele><time>2026-04-26T14:28:44.3Z</time></trkpt><trkpt lat="43.0655567" lon="11.6969117"><ele>340.5</ele><time>2026-04-26T14:28:45.298Z</time></trkpt><trkpt lat="43.0655333" lon="11.6967517"><ele>341.75</ele><time>2026-04-26T14:28:46.298Z</time></trkpt><trkpt lat="43.0655083" lon="11.69659"><ele>343.0</ele><time>2026-04-26T14:28:47.298Z</time></trkpt><trkpt lat="43.0654867" lon="11.69643"><ele>343.0</ele><time>2026-04-26T14:28:48.297Z</time></trkpt><trkpt lat="43.0654667" lon="11.6962683"><ele>343.0</ele><time>2026-04-26T14:28:49.295Z</time></trkpt><trkpt lat="43.0654417" lon="11.6961083"><ele>343.0</ele><time>2026-04-26T14:28:50.296Z</time></trkpt><trkpt lat="43.0654133" lon="11.695945"><ele>343.0</ele><time>2026-04-26T14:28:51.298Z</time></trkpt><trkpt lat="43.0653883" lon="11.695775"><ele>344.25</ele><time>2026-04-26T14:28:52.296Z</time></trkpt><trkpt lat="43.0653633" lon="11.6956"><ele>345.5</ele><time>2026-04-26T14:28:53.297Z</time></trkpt><trkpt lat="43.065335" lon="11.69542"><ele>346.75</ele><time>2026-04-26T14:28:54.296Z</time></trkpt><trkpt lat="43.065305" lon="11.6952367"><ele>348.0</ele><time>2026-04-26T14:28:55.297Z</time></trkpt><trkpt lat="43.0652767" lon="11.6950517"><ele>348.25</ele><time>2026-04-26T14:28:56.298Z</time></trkpt><trkpt lat="43.0652483" lon="11.6948683"><ele>348.5</ele><time>2026-04-26T14:28:57.296Z</time></trkpt><trkpt lat="43.0652183" lon="11.694685"><ele>348.75</ele><time>2026-04-26T14:28:58.295Z</time></trkpt><trkpt lat="43.06519" lon="11.6945017"><ele>349.0</ele><time>2026-04-26T14:28:59.298Z</time></trkpt><trkpt lat="43.0651633" lon="11.69432"><ele>350.25</ele><time>2026-04-26T14:29:00.299Z</time></trkpt><trkpt lat="43.0651433" lon="11.69414"><ele>351.5</ele><time>2026-04-26T14:29:01.297Z</time></trkpt><trkpt lat="43.06513" lon="11.6939617"><ele>352.75</ele><time>2026-04-26T14:29:02.298Z</time></trkpt><trkpt lat="43.065135" lon="11.6937867"><ele>354.0</ele><time>2026-04-26T14:29:03.299Z</time></trkpt><trkpt lat="43.0651483" lon="11.69361"><ele>354.5</ele><time>2026-04-26T14:29:04.298Z</time></trkpt><trkpt lat="43.0651667" lon="11.6934333"><ele>355.0</ele><time>2026-04-26T14:29:05.299Z</time></trkpt><trkpt lat="43.0651883" lon="11.6932533"><ele>355.5</ele><time>2026-04-26T14:29:06.298Z</time></trkpt><trkpt lat="43.06521" lon="11.6930717"><ele>356.0</ele><time>2026-04-26T14:29:07.298Z</time></trkpt><trkpt lat="43.0652317" lon="11.69289"><ele>356.25</ele><time>2026-04-26T14:29:08.299Z</time></trkpt><trkpt lat="43.0652533" lon="11.6927067"><ele>356.5</ele><time>2026-04-26T14:29:09.299Z</time></trkpt><trkpt lat="43.0652767" lon="11.6925217"><ele>356.75</ele><time>2026-04-26T14:29:10.299Z</time></trkpt><trkpt lat="43.0653" lon="11.6923367"><ele>357.0</ele><time>2026-04-26T14:29:11.298Z</time></trkpt><trkpt lat="43.0653217" lon="11.6921483"><ele>357.0</ele><time>2026-04-26T14:29:12.298Z</time></trkpt><trkpt lat="43.0653417" lon="11.6919617"><ele>357.0</ele><time>2026-04-26T14:29:13.299Z</time></trkpt><trkpt lat="43.065365" lon="11.691775"><ele>357.0</ele><time>2026-04-26T14:29:14.299Z</time></trkpt><trkpt lat="43.0653867" lon="11.6915933"><ele>357.0</ele><time>2026-04-26T14:29:15.298Z</time></trkpt><trkpt lat="43.0654067" lon="11.691415"><ele>358.5</ele><time>2026-04-26T14:29:16.298Z</time></trkpt><trkpt lat="43.0654283" lon="11.6912367"><ele>360.0</ele><time>2026-04-26T14:29:17.297Z</time></trkpt><trkpt lat="43.0654467" lon="11.691065"><ele>361.5</ele><time>2026-04-26T14:29:18.297Z</time></trkpt><trkpt lat="43.06546" lon="11.6909083"><ele>363.0</ele><time>2026-04-26T14:29:19.296Z</time></trkpt><trkpt lat="43.0654583" lon="11.690765"><ele>363.25</ele><time>2026-04-26T14:29:20.298Z</time></trkpt><trkpt lat="43.0654417" lon="11.6906233"><ele>363.5</ele><time>2026-04-26T14:29:21.296Z</time></trkpt><trkpt lat="43.065405" lon="11.6904817"><ele>363.75</ele><time>2026-04-26T14:29:22.296Z</time></trkpt><trkpt lat="43.0653567" lon="11.690335"><ele>364.0</ele><time>2026-04-26T14:29:23.295Z</time></trkpt><trkpt lat="43.0653083" lon="11.6901833"><ele>363.25</ele><time>2026-04-26T14:29:24.299Z</time></trkpt><trkpt lat="43.0652617" lon="11.6900317"><ele>362.5</ele><time>2026-04-26T14:29:25.298Z</time></trkpt><trkpt lat="43.0652267" lon="11.68988"><ele>361.75</ele><time>2026-04-26T14:29:26.298Z</time></trkpt><trkpt lat="43.0652067" lon="11.6897283"><ele>361.0</ele><time>2026-04-26T14:29:27.298Z</time></trkpt><trkpt lat="43.0652" lon="11.68957"><ele>360.25</ele><time>2026-04-26T14:29:28.297Z</time></trkpt><trkpt lat="43.0652017" lon="11.6894067"><ele>359.5</ele><time>2026-04-26T14:29:29.299Z</time></trkpt><trkpt lat="43.0652083" lon="11.6892367"><ele>358.75</ele><time>2026-04-26T14:29:30.297Z</time></trkpt><trkpt lat="43.0652217" lon="11.6890617"><ele>358.0</ele><time>2026-04-26T14:29:31.298Z</time></trkpt><trkpt lat="43.06524" lon="11.6888883"><ele>358.0</ele><time>2026-04-26T14:29:32.297Z</time></trkpt><trkpt lat="43.06526" lon="11.6887133"><ele>358.0</ele><time>2026-04-26T14:29:33.299Z</time></trkpt><trkpt lat="43.0652867" lon="11.6885433"><ele>358.0</ele><time>2026-04-26T14:29:34.298Z</time></trkpt><trkpt lat="43.06532" lon="11.688385"><ele>358.0</ele><time>2026-04-26T14:29:35.298Z</time></trkpt><trkpt lat="43.0653567" lon="11.688245"><ele>357.2</ele><time>2026-04-26T14:29:36.298Z</time></trkpt><trkpt lat="43.065405" lon="11.68813"><ele>356.4</ele><time>2026-04-26T14:29:37.298Z</time></trkpt><trkpt lat="43.0654617" lon="11.688035"><ele>355.59999999999997</ele><time>2026-04-26T14:29:38.299Z</time></trkpt><trkpt lat="43.065525" lon="11.6879533"><ele>354.79999999999995</ele><time>2026-04-26T14:29:39.298Z</time></trkpt><trkpt lat="43.0655883" lon="11.6878683"><ele>354.0</ele><time>2026-04-26T14:29:40.298Z</time></trkpt><trkpt lat="43.0656483" lon="11.6877683"><ele>354.79999999999995</ele><time>2026-04-26T14:29:41.298Z</time></trkpt><trkpt lat="43.065695" lon="11.6876467"><ele>355.59999999999997</ele><time>2026-04-26T14:29:42.298Z</time></trkpt><trkpt lat="43.0657267" lon="11.6874983"><ele>356.4</ele><time>2026-04-26T14:29:43.298Z</time></trkpt><trkpt lat="43.0657567" lon="11.6873467"><ele>357.2</ele><time>2026-04-26T14:29:44.299Z</time></trkpt><trkpt lat="43.0657783" lon="11.6871883"><ele>358.0</ele><time>2026-04-26T14:29:45.298Z</time></trkpt><trkpt lat="43.0657933" lon="11.6870233"><ele>356.5</ele><time>2026-04-26T14:29:46.297Z</time></trkpt><trkpt lat="43.0658133" lon="11.68686"><ele>355.0</ele><time>2026-04-26T14:29:47.297Z</time></trkpt><trkpt lat="43.0658333" lon="11.6867"><ele>353.5</ele><time>2026-04-26T14:29:48.297Z</time></trkpt><trkpt lat="43.065855" lon="11.6865417"><ele>352.0</ele><time>2026-04-26T14:29:49.299Z</time></trkpt><trkpt lat="43.0658817" lon="11.6863817"><ele>352.0</ele><time>2026-04-26T14:29:50.294Z</time></trkpt><trkpt lat="43.065915" lon="11.6862267"><ele>352.0</ele><time>2026-04-26T14:29:51.296Z</time></trkpt><trkpt lat="43.065955" lon="11.6860833"><ele>352.0</ele><time>2026-04-26T14:29:52.296Z</time></trkpt><trkpt lat="43.0660033" lon="11.68595"><ele>352.0</ele><time>2026-04-26T14:29:53.295Z</time></trkpt><trkpt lat="43.0660567" lon="11.6858317"><ele>352.0</ele><time>2026-04-26T14:29:54.3Z</time></trkpt><trkpt lat="43.06611" lon="11.6857217"><ele>350.8</ele><time>2026-04-26T14:29:55.298Z</time></trkpt><trkpt lat="43.0661583" lon="11.68562"><ele>349.6</ele><time>2026-04-26T14:29:56.298Z</time></trkpt><trkpt lat="43.0662017" lon="11.685525"><ele>348.40000000000003</ele><time>2026-04-26T14:29:57.299Z</time></trkpt><trkpt lat="43.0662367" lon="11.6854383"><ele>347.20000000000005</ele><time>2026-04-26T14:29:58.296Z</time></trkpt><trkpt lat="43.0662583" lon="11.6852717"><ele>346.0</ele><time>2026-04-26T14:30:00.296Z</time></trkpt><trkpt lat="43.0662133" lon="11.6851267"><ele>344.5</ele><time>2026-04-26T14:30:02.296Z</time></trkpt><trkpt lat="43.0661117" lon="11.6850367"><ele>343.0</ele><time>2026-04-26T14:30:04.296Z</time></trkpt><trkpt lat="43.06605" lon="11.6850067"><ele>341.5</ele><time>2026-04-26T14:30:05.298Z</time></trkpt><trkpt lat="43.06599" lon="11.68496"><ele>340.0</ele><time>2026-04-26T14:30:06.297Z</time></trkpt><trkpt lat="43.06593" lon="11.684895"><ele>338.5</ele><time>2026-04-26T14:30:07.297Z</time></trkpt><trkpt lat="43.06587" lon="11.684805"><ele>337.0</ele><time>2026-04-26T14:30:08.297Z</time></trkpt><trkpt lat="43.0658217" lon="11.6846833"><ele>337.0</ele><time>2026-04-26T14:30:09.296Z</time></trkpt><trkpt lat="43.0657883" lon="11.68453"><ele>337.0</ele><time>2026-04-26T14:30:10.295Z</time></trkpt><trkpt lat="43.0657583" lon="11.6843567"><ele>337.0</ele><time>2026-04-26T14:30:11.297Z</time></trkpt><trkpt lat="43.0657183" lon="11.6841883"><ele>337.0</ele><time>2026-04-26T14:30:12.298Z</time></trkpt><trkpt lat="43.065675" lon="11.6840183"><ele>333.5</ele><time>2026-04-26T14:30:13.298Z</time></trkpt><trkpt lat="43.0656317" lon="11.6838467"><ele>330.0</ele><time>2026-04-26T14:30:14.299Z</time></trkpt><trkpt lat="43.0655883" lon="11.6836717"><ele>326.5</ele><time>2026-04-26T14:30:15.298Z</time></trkpt><trkpt lat="43.0655383" lon="11.6835"><ele>323.0</ele><time>2026-04-26T14:30:16.297Z</time></trkpt><trkpt lat="43.065485" lon="11.683335"><ele>322.75</ele><time>2026-04-26T14:30:17.297Z</time></trkpt><trkpt lat="43.06543" lon="11.683175"><ele>322.5</ele><time>2026-04-26T14:30:18.298Z</time></trkpt><trkpt lat="43.0653767" lon="11.68302"><ele>322.25</ele><time>2026-04-26T14:30:19.298Z</time></trkpt><trkpt lat="43.065325" lon="11.6828717"><ele>322.0</ele><time>2026-04-26T14:30:20.3Z</time></trkpt><trkpt lat="43.0652733" lon="11.6827267"><ele>321.5</ele><time>2026-04-26T14:30:21.298Z</time></trkpt><trkpt lat="43.0652233" lon="11.68258"><ele>321.0</ele><time>2026-04-26T14:30:22.298Z</time></trkpt><trkpt lat="43.0651733" lon="11.6824367"><ele>320.5</ele><time>2026-04-26T14:30:23.298Z</time></trkpt><trkpt lat="43.0651217" lon="11.6822983"><ele>320.0</ele><time>2026-04-26T14:30:24.298Z</time></trkpt><trkpt lat="43.0650733" lon="11.682165"><ele>320.0</ele><time>2026-04-26T14:30:25.298Z</time></trkpt><trkpt lat="43.0650283" lon="11.682035"><ele>320.0</ele><time>2026-04-26T14:30:26.298Z</time></trkpt><trkpt lat="43.0649867" lon="11.681915"><ele>320.0</ele><time>2026-04-26T14:30:27.297Z</time></trkpt><trkpt lat="43.0649467" lon="11.6818"><ele>320.0</ele><time>2026-04-26T14:30:28.296Z</time></trkpt><trkpt lat="43.0649117" lon="11.6817017"><ele>320.0</ele><time>2026-04-26T14:30:29.297Z</time></trkpt><trkpt lat="43.0648833" lon="11.6816033"><ele>320.0</ele><time>2026-04-26T14:30:30.298Z</time></trkpt><trkpt lat="43.06486" lon="11.6815183"><ele>320.0</ele><time>2026-04-26T14:30:31.297Z</time></trkpt><trkpt lat="43.064825" lon="11.6813817"><ele>320.0</ele><time>2026-04-26T14:30:33.299Z</time></trkpt><trkpt lat="43.06482" lon="11.6812917"><ele>320.0</ele><time>2026-04-26T14:30:35.297Z</time></trkpt><trkpt lat="43.0649017" lon="11.681205"><ele>320.0</ele><time>2026-04-26T14:30:38.298Z</time></trkpt><trkpt lat="43.0649733" lon="11.68119"><ele>320.0</ele><time>2026-04-26T14:30:39.296Z</time></trkpt><trkpt lat="43.065065" lon="11.6811833"><ele>320.0</ele><time>2026-04-26T14:30:40.296Z</time></trkpt><trkpt lat="43.06516" lon="11.6811717"><ele>320.0</ele><time>2026-04-26T14:30:41.298Z</time></trkpt><trkpt lat="43.0652617" lon="11.6811583"><ele>320.0</ele><time>2026-04-26T14:30:42.298Z</time></trkpt><trkpt lat="43.065365" lon="11.681145"><ele>320.0</ele><time>2026-04-26T14:30:43.298Z</time></trkpt><trkpt lat="43.0654717" lon="11.6811317"><ele>320.0</ele><time>2026-04-26T14:30:44.3Z</time></trkpt><trkpt lat="43.0655783" lon="11.68112"><ele>320.0</ele><time>2026-04-26T14:30:45.299Z</time></trkpt><trkpt lat="43.0656867" lon="11.6811083"><ele>320.0</ele><time>2026-04-26T14:30:46.299Z</time></trkpt><trkpt lat="43.0657917" lon="11.6811033"><ele>320.0</ele><time>2026-04-26T14:30:47.299Z</time></trkpt><trkpt lat="43.0658933" lon="11.68109"><ele>320.0</ele><time>2026-04-26T14:30:48.299Z</time></trkpt><trkpt lat="43.0659867" lon="11.681055"><ele>320.0</ele><time>2026-04-26T14:30:49.297Z</time></trkpt><trkpt lat="43.0660717" lon="11.6809833"><ele>320.6</ele><time>2026-04-26T14:30:50.299Z</time></trkpt><trkpt lat="43.0661383" lon="11.6808833"><ele>321.2</ele><time>2026-04-26T14:30:51.299Z</time></trkpt><trkpt lat="43.066175" lon="11.6807533"><ele>321.79999999999995</ele><time>2026-04-26T14:30:52.298Z</time></trkpt><trkpt lat="43.0661783" lon="11.6805967"><ele>322.4</ele><time>2026-04-26T14:30:53.298Z</time></trkpt><trkpt lat="43.0661583" lon="11.6804183"><ele>323.0</ele><time>2026-04-26T14:30:54.298Z</time></trkpt><trkpt lat="43.0661217" lon="11.6802217"><ele>324.0</ele><time>2026-04-26T14:30:55.297Z</time></trkpt><trkpt lat="43.06608" lon="11.6800067"><ele>325.0</ele><time>2026-04-26T14:30:56.298Z</time></trkpt><trkpt lat="43.066025" lon="11.679785"><ele>326.0</ele><time>2026-04-26T14:30:57.297Z</time></trkpt><trkpt lat="43.0659533" lon="11.67956"><ele>328.33333333333337</ele><time>2026-04-26T14:30:58.296Z</time></trkpt><trkpt lat="43.06587" lon="11.6793533"><ele>330.6666666666667</ele><time>2026-04-26T14:30:59.296Z</time></trkpt><trkpt lat="43.0658017" lon="11.6791667"><ele>333.0</ele><time>2026-04-26T14:31:00.297Z</time></trkpt><trkpt lat="43.0657617" lon="11.6789917"><ele>333.0</ele><time>2026-04-26T14:31:01.296Z</time></trkpt><trkpt lat="43.065755" lon="11.6788233"><ele>333.0</ele><time>2026-04-26T14:31:02.296Z</time></trkpt><trkpt lat="43.06578" lon="11.6786567"><ele>333.0</ele><time>2026-04-26T14:31:03.297Z</time></trkpt><trkpt lat="43.0658233" lon="11.678495"><ele>333.0</ele><time>2026-04-26T14:31:04.297Z</time></trkpt><trkpt lat="43.0658817" lon="11.6783383"><ele>333.25</ele><time>2026-04-26T14:31:05.296Z</time></trkpt><trkpt lat="43.0659567" lon="11.67819"><ele>333.5</ele><time>2026-04-26T14:31:06.295Z</time></trkpt><trkpt lat="43.0660467" lon="11.6780683"><ele>333.75</ele><time>2026-04-26T14:31:07.297Z</time></trkpt><trkpt lat="43.06615" lon="11.6779817"><ele>334.0</ele><time>2026-04-26T14:31:08.3Z</time></trkpt><trkpt lat="43.0662667" lon="11.6779317"><ele>334.0</ele><time>2026-04-26T14:31:09.297Z</time></trkpt><trkpt lat="43.0663933" lon="11.677935"><ele>334.0</ele><time>2026-04-26T14:31:10.296Z</time></trkpt><trkpt lat="43.06652" lon="11.6779783"><ele>334.0</ele><time>2026-04-26T14:31:11.299Z</time></trkpt><trkpt lat="43.06664" lon="11.6780617"><ele>334.0</ele><time>2026-04-26T14:31:12.298Z</time></trkpt><trkpt lat="43.06676" lon="11.6781633"><ele>336.25</ele><time>2026-04-26T14:31:13.3Z</time></trkpt><trkpt lat="43.066885" lon="11.67826"><ele>338.5</ele><time>2026-04-26T14:31:14.299Z</time></trkpt><trkpt lat="43.06702" lon="11.6783433"><ele>340.75</ele><time>2026-04-26T14:31:15.298Z</time></trkpt><trkpt lat="43.0671617" lon="11.6784167"><ele>343.0</ele><time>2026-04-26T14:31:16.298Z</time></trkpt><trkpt lat="43.067305" lon="11.6784783"><ele>343.75</ele><time>2026-04-26T14:31:17.298Z</time></trkpt><trkpt lat="43.0674467" lon="11.678535"><ele>344.5</ele><time>2026-04-26T14:31:18.297Z</time></trkpt><trkpt lat="43.0675833" lon="11.678585"><ele>345.25</ele><time>2026-04-26T14:31:19.298Z</time></trkpt><trkpt lat="43.0677133" lon="11.6786133"><ele>346.0</ele><time>2026-04-26T14:31:20.3Z</time></trkpt><trkpt lat="43.06784" lon="11.6786117"><ele>346.0</ele><time>2026-04-26T14:31:21.297Z</time></trkpt><trkpt lat="43.0679633" lon="11.678585"><ele>346.0</ele><time>2026-04-26T14:31:22.297Z</time></trkpt><trkpt lat="43.0680817" lon="11.6785383"><ele>346.0</ele><time>2026-04-26T14:31:23.297Z</time></trkpt><trkpt lat="43.0681917" lon="11.678495"><ele>346.0</ele><time>2026-04-26T14:31:24.298Z</time></trkpt><trkpt lat="43.06829" lon="11.6784667"><ele>347.3333333333333</ele><time>2026-04-26T14:31:25.299Z</time></trkpt><trkpt lat="43.0683783" lon="11.6784633"><ele>348.66666666666663</ele><time>2026-04-26T14:31:26.298Z</time></trkpt><trkpt lat="43.0684567" lon="11.678485"><ele>350.0</ele><time>2026-04-26T14:31:27.298Z</time></trkpt><trkpt lat="43.0685167" lon="11.678545"><ele>351.3333333333333</ele><time>2026-04-26T14:31:28.295Z</time></trkpt><trkpt lat="43.0685533" lon="11.6786367"><ele>352.6666666666667</ele><time>2026-04-26T14:31:29.297Z</time></trkpt><trkpt lat="43.0685583" lon="11.6787417"><ele>354.0</ele><time>2026-04-26T14:31:30.296Z</time></trkpt><trkpt lat="43.0685417" lon="11.678855"><ele>355.1666666666667</ele><time>2026-04-26T14:31:31.295Z</time></trkpt><trkpt lat="43.0685217" lon="11.6789667"><ele>356.3333333333333</ele><time>2026-04-26T14:31:32.296Z</time></trkpt><trkpt lat="43.0685033" lon="11.679075"><ele>357.5</ele><time>2026-04-26T14:31:33.297Z</time></trkpt><trkpt lat="43.068485" lon="11.6791833"><ele>358.66666666666663</ele><time>2026-04-26T14:31:34.295Z</time></trkpt><trkpt lat="43.06847" lon="11.6792933"><ele>359.8333333333333</ele><time>2026-04-26T14:31:35.297Z</time></trkpt><trkpt lat="43.068455" lon="11.679405"><ele>361.0</ele><time>2026-04-26T14:31:36.297Z</time></trkpt><trkpt lat="43.0684467" lon="11.6795183"><ele>361.20000000000005</ele><time>2026-04-26T14:31:37.297Z</time></trkpt><trkpt lat="43.0684533" lon="11.6796367"><ele>361.40000000000003</ele><time>2026-04-26T14:31:38.298Z</time></trkpt><trkpt lat="43.0684783" lon="11.679755"><ele>361.6</ele><time>2026-04-26T14:31:39.297Z</time></trkpt><trkpt lat="43.068525" lon="11.6798617"><ele>361.8</ele><time>2026-04-26T14:31:40.295Z</time></trkpt><trkpt lat="43.0685917" lon="11.67995"><ele>362.0</ele><time>2026-04-26T14:31:41.297Z</time></trkpt><trkpt lat="43.0686767" lon="11.68"><ele>362.0</ele><time>2026-04-26T14:31:42.297Z</time></trkpt><trkpt lat="43.0687767" lon="11.6800117"><ele>362.0</ele><time>2026-04-26T14:31:43.299Z</time></trkpt><trkpt lat="43.068885" lon="11.6799633"><ele>362.0</ele><time>2026-04-26T14:31:44.299Z</time></trkpt><trkpt lat="43.06898" lon="11.6798533"><ele>362.0</ele><time>2026-04-26T14:31:45.298Z</time></trkpt><trkpt lat="43.0690317" lon="11.67967"><ele>362.0</ele><time>2026-04-26T14:31:46.298Z</time></trkpt><trkpt lat="43.0690783" lon="11.679495"><ele>362.0</ele><time>2026-04-26T14:31:47.298Z</time></trkpt><trkpt lat="43.0691183" lon="11.67931"><ele>362.0</ele><time>2026-04-26T14:31:48.299Z</time></trkpt><trkpt lat="43.0691833" lon="11.679145"><ele>362.0</ele><time>2026-04-26T14:31:49.298Z</time></trkpt><trkpt lat="43.069275" lon="11.6790117"><ele>364.25</ele><time>2026-04-26T14:31:50.299Z</time></trkpt><trkpt lat="43.0693917" lon="11.6789183"><ele>366.5</ele><time>2026-04-26T14:31:51.299Z</time></trkpt><trkpt lat="43.06952" lon="11.6788583"><ele>368.75</ele><time>2026-04-26T14:31:52.299Z</time></trkpt><trkpt lat="43.0696633" lon="11.6788283"><ele>371.0</ele><time>2026-04-26T14:31:53.296Z</time></trkpt><trkpt lat="43.0698133" lon="11.67881"><ele>374.0</ele><time>2026-04-26T14:31:54.301Z</time></trkpt><trkpt lat="43.0699667" lon="11.6787967"><ele>377.0</ele><time>2026-04-26T14:31:55.298Z</time></trkpt><trkpt lat="43.0701283" lon="11.67878"><ele>380.0</ele><time>2026-04-26T14:31:56.298Z</time></trkpt><trkpt lat="43.0702933" lon="11.6787633"><ele>380.0</ele><time>2026-04-26T14:31:57.299Z</time></trkpt><trkpt lat="43.0704583" lon="11.6787483"><ele>380.0</ele><time>2026-04-26T14:31:58.297Z</time></trkpt><trkpt lat="43.070625" lon="11.6787317"><ele>380.0</ele><time>2026-04-26T14:31:59.295Z</time></trkpt><trkpt lat="43.0707933" lon="11.6787117"><ele>382.33333333333337</ele><time>2026-04-26T14:32:00.295Z</time></trkpt><trkpt lat="43.0709633" lon="11.67869"><ele>384.6666666666667</ele><time>2026-04-26T14:32:01.298Z</time></trkpt><trkpt lat="43.071135" lon="11.6786667"><ele>387.0</ele><time>2026-04-26T14:32:02.299Z</time></trkpt><trkpt lat="43.07131" lon="11.6786467"><ele>387.0</ele><time>2026-04-26T14:32:03.298Z</time></trkpt><trkpt lat="43.0714817" lon="11.6786233"><ele>387.0</ele><time>2026-04-26T14:32:04.297Z</time></trkpt><trkpt lat="43.0716483" lon="11.6786"><ele>387.0</ele><time>2026-04-26T14:32:05.297Z</time></trkpt><trkpt lat="43.0717983" lon="11.6785833"><ele>386.6</ele><time>2026-04-26T14:32:06.298Z</time></trkpt><trkpt lat="43.0719333" lon="11.6785767"><ele>386.20000000000005</ele><time>2026-04-26T14:32:07.297Z</time></trkpt><trkpt lat="43.0720483" lon="11.6785967"><ele>385.8</ele><time>2026-04-26T14:32:08.297Z</time></trkpt><trkpt lat="43.0721383" lon="11.6786567"><ele>385.4</ele><time>2026-04-26T14:32:09.298Z</time></trkpt><trkpt lat="43.0721917" lon="11.6787583"><ele>385.0</ele><time>2026-04-26T14:32:10.295Z</time></trkpt><trkpt lat="43.0722167" lon="11.67888"><ele>387.0</ele><time>2026-04-26T14:32:11.3Z</time></trkpt><trkpt lat="43.0722067" lon="11.6790117"><ele>389.0</ele><time>2026-04-26T14:32:12.299Z</time></trkpt><trkpt lat="43.0721717" lon="11.6791483"><ele>391.0</ele><time>2026-04-26T14:32:13.298Z</time></trkpt><trkpt lat="43.0721283" lon="11.6792833"><ele>393.0</ele><time>2026-04-26T14:32:14.3Z</time></trkpt><trkpt lat="43.0720883" lon="11.6794117"><ele>395.0</ele><time>2026-04-26T14:32:15.298Z</time></trkpt><trkpt lat="43.0720533" lon="11.6795367"><ele>395.8</ele><time>2026-04-26T14:32:16.299Z</time></trkpt><trkpt lat="43.072025" lon="11.6796567"><ele>396.6</ele><time>2026-04-26T14:32:17.296Z</time></trkpt><trkpt lat="43.072" lon="11.67978"><ele>397.4</ele><time>2026-04-26T14:32:18.297Z</time></trkpt><trkpt lat="43.0719817" lon="11.679905"><ele>398.2</ele><time>2026-04-26T14:32:19.299Z</time></trkpt><trkpt lat="43.0719783" lon="11.6800267"><ele>399.0</ele><time>2026-04-26T14:32:20.299Z</time></trkpt><trkpt lat="43.072" lon="11.6801433"><ele>399.0</ele><time>2026-04-26T14:32:21.299Z</time></trkpt><trkpt lat="43.0720433" lon="11.6802283"><ele>399.0</ele><time>2026-04-26T14:32:22.299Z</time></trkpt><trkpt lat="43.0721117" lon="11.680275"><ele>399.0</ele><time>2026-04-26T14:32:23.297Z</time></trkpt><trkpt lat="43.0721933" lon="11.6802733"><ele>399.0</ele><time>2026-04-26T14:32:24.299Z</time></trkpt><trkpt lat="43.072275" lon="11.680265"><ele>399.0</ele><time>2026-04-26T14:32:25.298Z</time></trkpt><trkpt lat="43.0723567" lon="11.6801617"><ele>399.0</ele><time>2026-04-26T14:32:26.298Z</time></trkpt><trkpt lat="43.0724367" lon="11.6800433"><ele>400.5</ele><time>2026-04-26T14:32:27.298Z</time></trkpt><trkpt lat="43.0725083" lon="11.6798917"><ele>402.0</ele><time>2026-04-26T14:32:28.298Z</time></trkpt><trkpt lat="43.0725817" lon="11.6797133"><ele>403.5</ele><time>2026-04-26T14:32:29.298Z</time></trkpt><trkpt lat="43.0726617" lon="11.6795167"><ele>405.0</ele><time>2026-04-26T14:32:30.299Z</time></trkpt><trkpt lat="43.072755" lon="11.6793217"><ele>405.0</ele><time>2026-04-26T14:32:31.298Z</time></trkpt><trkpt lat="43.0728567" lon="11.6791283"><ele>405.0</ele><time>2026-04-26T14:32:32.3Z</time></trkpt><trkpt lat="43.0729733" lon="11.6789433"><ele>405.0</ele><time>2026-04-26T14:32:33.297Z</time></trkpt><trkpt lat="43.0731017" lon="11.6787667"><ele>402.33333333333337</ele><time>2026-04-26T14:32:34.299Z</time></trkpt><trkpt lat="43.073235" lon="11.6785967"><ele>399.6666666666667</ele><time>2026-04-26T14:32:35.299Z</time></trkpt><trkpt lat="43.0733667" lon="11.678425"><ele>397.0</ele><time>2026-04-26T14:32:36.299Z</time></trkpt><trkpt lat="43.07349" lon="11.6782367"><ele>400.6666666666667</ele><time>2026-04-26T14:32:37.298Z</time></trkpt><trkpt lat="43.073605" lon="11.67803"><ele>404.33333333333337</ele><time>2026-04-26T14:32:38.299Z</time></trkpt><trkpt lat="43.0737133" lon="11.6778117"><ele>408.0</ele><time>2026-04-26T14:32:39.298Z</time></trkpt><trkpt lat="43.0738067" lon="11.677585"><ele>408.0</ele><time>2026-04-26T14:32:40.297Z</time></trkpt><trkpt lat="43.073885" lon="11.67737"><ele>408.0</ele><time>2026-04-26T14:32:41.297Z</time></trkpt><trkpt lat="43.07395" lon="11.67717"><ele>408.0</ele><time>2026-04-26T14:32:42.297Z</time></trkpt><trkpt lat="43.0740017" lon="11.6769817"><ele>407.25</ele><time>2026-04-26T14:32:43.298Z</time></trkpt><trkpt lat="43.0740467" lon="11.676815"><ele>406.5</ele><time>2026-04-26T14:32:44.298Z</time></trkpt><trkpt lat="43.0740867" lon="11.67666"><ele>405.75</ele><time>2026-04-26T14:32:45.296Z</time></trkpt><trkpt lat="43.074125" lon="11.676515"><ele>405.0</ele><time>2026-04-26T14:32:46.297Z</time></trkpt><trkpt lat="43.07417" lon="11.6763783"><ele>409.6</ele><time>2026-04-26T14:32:47.298Z</time></trkpt><trkpt lat="43.0742183" lon="11.6762433"><ele>414.2</ele><time>2026-04-26T14:32:48.298Z</time></trkpt><trkpt lat="43.0742733" lon="11.6761133"><ele>418.79999999999995</ele><time>2026-04-26T14:32:49.297Z</time></trkpt><trkpt lat="43.0743367" lon="11.6759833"><ele>423.4</ele><time>2026-04-26T14:32:50.298Z</time></trkpt><trkpt lat="43.0743983" lon="11.6758517"><ele>428.0</ele><time>2026-04-26T14:32:51.298Z</time></trkpt><trkpt lat="43.0744667" lon="11.67572"><ele>428.0</ele><time>2026-04-26T14:32:52.297Z</time></trkpt><trkpt lat="43.0745383" lon="11.6755883"><ele>428.0</ele><time>2026-04-26T14:32:53.299Z</time></trkpt><trkpt lat="43.0746167" lon="11.6754617"><ele>428.0</ele><time>2026-04-26T14:32:54.297Z</time></trkpt><trkpt lat="43.0747133" lon="11.6753483"><ele>428.0</ele><time>2026-04-26T14:32:55.298Z</time></trkpt><trkpt lat="43.074815" lon="11.6752467"><ele>429.25</ele><time>2026-04-26T14:32:56.298Z</time></trkpt><trkpt lat="43.0749233" lon="11.675165"><ele>430.5</ele><time>2026-04-26T14:32:57.296Z</time></trkpt><trkpt lat="43.075035" lon="11.6750983"><ele>431.75</ele><time>2026-04-26T14:32:58.298Z</time></trkpt><trkpt lat="43.0751467" lon="11.6750317"><ele>433.0</ele><time>2026-04-26T14:32:59.299Z</time></trkpt><trkpt lat="43.0752533" lon="11.6749633"><ele>433.0</ele><time>2026-04-26T14:33:00.293Z</time></trkpt><trkpt lat="43.075355" lon="11.6748867"><ele>433.0</ele><time>2026-04-26T14:33:01.296Z</time></trkpt><trkpt lat="43.075455" lon="11.6748083"><ele>433.0</ele><time>2026-04-26T14:33:02.296Z</time></trkpt><trkpt lat="43.075555" lon="11.67473"><ele>433.0</ele><time>2026-04-26T14:33:03.297Z</time></trkpt><trkpt lat="43.0756533" lon="11.6746483"><ele>433.0</ele><time>2026-04-26T14:33:04.297Z</time></trkpt><trkpt lat="43.0757517" lon="11.6745717"><ele>432.99999999999994</ele><time>2026-04-26T14:33:05.296Z</time></trkpt><trkpt lat="43.0758417" lon="11.6745033"><ele>432.99999999999994</ele><time>2026-04-26T14:33:06.297Z</time></trkpt><trkpt lat="43.0759083" lon="11.674445"><ele>433.0</ele><time>2026-04-26T14:33:07.298Z</time></trkpt><trkpt lat="43.07599" lon="11.6743833"><ele>433.0</ele><time>2026-04-26T14:33:09.296Z</time></trkpt><trkpt lat="43.0760733" lon="11.6743"><ele>433.6666666666667</ele><time>2026-04-26T14:33:12.298Z</time></trkpt><trkpt lat="43.0761717" lon="11.6742083"><ele>434.33333333333337</ele><time>2026-04-26T14:33:14.298Z</time></trkpt><trkpt lat="43.0762333" lon="11.67415"><ele>435.0</ele><time>2026-04-26T14:33:15.297Z</time></trkpt><trkpt lat="43.076295" lon="11.6740783"><ele>435.66666666666663</ele><time>2026-04-26T14:33:16.298Z</time></trkpt><trkpt lat="43.0763567" lon="11.6740033"><ele>436.3333333333333</ele><time>2026-04-26T14:33:17.298Z</time></trkpt><trkpt lat="43.07641" lon="11.67392"><ele>437.0</ele><time>2026-04-26T14:33:18.296Z</time></trkpt><trkpt lat="43.0764583" lon="11.6738333"><ele>436.99999999999994</ele><time>2026-04-26T14:33:19.297Z</time></trkpt><trkpt lat="43.076505" lon="11.6737483"><ele>437.0</ele><time>2026-04-26T14:33:20.298Z</time></trkpt><trkpt lat="43.0765433" lon="11.6736667"><ele>437.0</ele><time>2026-04-26T14:33:21.297Z</time></trkpt><trkpt lat="43.0765817" lon="11.6735883"><ele>437.0</ele><time>2026-04-26T14:33:22.298Z</time></trkpt><trkpt lat="43.07665" lon="11.67345"><ele>436.99999999999994</ele><time>2026-04-26T14:33:24.298Z</time></trkpt><trkpt lat="43.0767117" lon="11.6733333"><ele>437.0</ele><time>2026-04-26T14:33:26.297Z</time></trkpt><trkpt lat="43.0768017" lon="11.673245"><ele>438.8</ele><time>2026-04-26T14:33:28.296Z</time></trkpt><trkpt lat="43.0769017" lon="11.67325"><ele>440.6</ele><time>2026-04-26T14:33:30.295Z</time></trkpt><trkpt lat="43.0769633" lon="11.673395"><ele>442.40000000000003</ele><time>2026-04-26T14:33:32.297Z</time></trkpt><trkpt lat="43.07696" lon="11.6735033"><ele>444.20000000000005</ele><time>2026-04-26T14:33:33.294Z</time></trkpt><trkpt lat="43.0769517" lon="11.67362"><ele>446.0</ele><time>2026-04-26T14:33:34.294Z</time></trkpt><trkpt lat="43.0769533" lon="11.673745"><ele>447.20000000000005</ele><time>2026-04-26T14:33:35.297Z</time></trkpt><trkpt lat="43.0769633" lon="11.6738817"><ele>448.40000000000003</ele><time>2026-04-26T14:33:36.296Z</time></trkpt><trkpt lat="43.0769733" lon="11.674015"><ele>449.6</ele><time>2026-04-26T14:33:37.296Z</time></trkpt><trkpt lat="43.0769783" lon="11.6741533"><ele>450.8</ele><time>2026-04-26T14:33:38.295Z</time></trkpt><trkpt lat="43.0769667" lon="11.6742833"><ele>452.0</ele><time>2026-04-26T14:33:39.296Z</time></trkpt><trkpt lat="43.07694" lon="11.674405"><ele>453.49999999999994</ele><time>2026-04-26T14:33:40.295Z</time></trkpt><trkpt lat="43.0769033" lon="11.6745233"><ele>455.0</ele><time>2026-04-26T14:33:41.298Z</time></trkpt><trkpt lat="43.076865" lon="11.674635"><ele>456.5</ele><time>2026-04-26T14:33:42.298Z</time></trkpt><trkpt lat="43.0768267" lon="11.6747467"><ele>458.0</ele><time>2026-04-26T14:33:43.298Z</time></trkpt><trkpt lat="43.0767933" lon="11.6748567"><ele>459.49999999999994</ele><time>2026-04-26T14:33:44.298Z</time></trkpt><trkpt lat="43.0767633" lon="11.6749683"><ele>461.0</ele><time>2026-04-26T14:33:45.297Z</time></trkpt><trkpt lat="43.0767367" lon="11.67508"><ele>461.0</ele><time>2026-04-26T14:33:46.298Z</time></trkpt><trkpt lat="43.0767133" lon="11.675195"><ele>461.0</ele><time>2026-04-26T14:33:47.296Z</time></trkpt><trkpt lat="43.076685" lon="11.6753117"><ele>461.0</ele><time>2026-04-26T14:33:48.296Z</time></trkpt><trkpt lat="43.0766533" lon="11.675445"><ele>461.0</ele><time>2026-04-26T14:33:49.297Z</time></trkpt><trkpt lat="43.076615" lon="11.6755833"><ele>461.0</ele><time>2026-04-26T14:33:50.296Z</time></trkpt><trkpt lat="43.0765733" lon="11.6757217"><ele>461.20000000000005</ele><time>2026-04-26T14:33:51.295Z</time></trkpt><trkpt lat="43.07654" lon="11.67586"><ele>461.40000000000003</ele><time>2026-04-26T14:33:52.295Z</time></trkpt><trkpt lat="43.076505" lon="11.67599"><ele>461.6</ele><time>2026-04-26T14:33:53.296Z</time></trkpt><trkpt lat="43.0764717" lon="11.6761183"><ele>461.8</ele><time>2026-04-26T14:33:54.298Z</time></trkpt><trkpt lat="43.0764367" lon="11.676235"><ele>462.0</ele><time>2026-04-26T14:33:55.298Z</time></trkpt><trkpt lat="43.0764067" lon="11.6763433"><ele>462.0</ele><time>2026-04-26T14:33:56.297Z</time></trkpt><trkpt lat="43.07638" lon="11.6764417"><ele>462.0</ele><time>2026-04-26T14:33:57.297Z</time></trkpt><trkpt lat="43.0763517" lon="11.676525"><ele>462.0</ele><time>2026-04-26T14:33:58.293Z</time></trkpt><trkpt lat="43.0762967" lon="11.67667"><ele>462.0</ele><time>2026-04-26T14:34:00.296Z</time></trkpt><trkpt lat="43.0762333" lon="11.6768083"><ele>462.0</ele><time>2026-04-26T14:34:02.296Z</time></trkpt><trkpt lat="43.0762033" lon="11.676885"><ele>462.0</ele><time>2026-04-26T14:34:03.294Z</time></trkpt><trkpt lat="43.076175" lon="11.6769633"><ele>463.1428571428571</ele><time>2026-04-26T14:34:04.295Z</time></trkpt><trkpt lat="43.0761533" lon="11.6770483"><ele>464.2857142857143</ele><time>2026-04-26T14:34:05.297Z</time></trkpt><trkpt lat="43.07613" lon="11.6771417"><ele>465.42857142857144</ele><time>2026-04-26T14:34:06.298Z</time></trkpt><trkpt lat="43.07611" lon="11.6772383"><ele>466.57142857142856</ele><time>2026-04-26T14:34:07.297Z</time></trkpt><trkpt lat="43.0760933" lon="11.6773383"><ele>467.71428571428567</ele><time>2026-04-26T14:34:08.297Z</time></trkpt><trkpt lat="43.0760767" lon="11.6774417"><ele>468.85714285714283</ele><time>2026-04-26T14:34:09.297Z</time></trkpt><trkpt lat="43.0760517" lon="11.6775483"><ele>470.0</ele><time>2026-04-26T14:34:10.295Z</time></trkpt><trkpt lat="43.0760333" lon="11.677675"><ele>471.4</ele><time>2026-04-26T14:34:11.297Z</time></trkpt><trkpt lat="43.0760117" lon="11.6778033"><ele>472.8</ele><time>2026-04-26T14:34:12.298Z</time></trkpt><trkpt lat="43.0759867" lon="11.6779383"><ele>474.20000000000005</ele><time>2026-04-26T14:34:13.296Z</time></trkpt><trkpt lat="43.07596" lon="11.6780833"><ele>475.6</ele><time>2026-04-26T14:34:14.298Z</time></trkpt><trkpt lat="43.0759383" lon="11.6782367"><ele>477.0</ele><time>2026-04-26T14:34:15.297Z</time></trkpt><trkpt lat="43.075935" lon="11.6784067"><ele>477.0</ele><time>2026-04-26T14:34:16.298Z</time></trkpt><trkpt lat="43.0759433" lon="11.6785717"><ele>477.00000000000006</ele><time>2026-04-26T14:34:17.295Z</time></trkpt><trkpt lat="43.0759517" lon="11.6787217"><ele>477.00000000000006</ele><time>2026-04-26T14:34:18.297Z</time></trkpt><trkpt lat="43.0759617" lon="11.6788417"><ele>477.0</ele><time>2026-04-26T14:34:19.296Z</time></trkpt><trkpt lat="43.0759717" lon="11.6789383"><ele>477.0</ele><time>2026-04-26T14:34:20.296Z</time></trkpt><trkpt lat="43.0759817" lon="11.6790533"><ele>477.1666666666667</ele><time>2026-04-26T14:34:22.295Z</time></trkpt><trkpt lat="43.07599" lon="11.6791567"><ele>477.33333333333337</ele><time>2026-04-26T14:34:26.297Z</time></trkpt><trkpt lat="43.07601" lon="11.67925"><ele>477.5</ele><time>2026-04-26T14:34:28.297Z</time></trkpt><trkpt lat="43.0760367" lon="11.67937"><ele>477.6666666666667</ele><time>2026-04-26T14:34:30.297Z</time></trkpt><trkpt lat="43.0760583" lon="11.6794983"><ele>477.83333333333337</ele><time>2026-04-26T14:34:32.297Z</time></trkpt><trkpt lat="43.0760667" lon="11.6795983"><ele>478.0</ele><time>2026-04-26T14:34:34.296Z</time></trkpt><trkpt lat="43.076075" lon="11.6796917"><ele>478.00000000000006</ele><time>2026-04-26T14:34:36.295Z</time></trkpt><trkpt lat="43.0760717" lon="11.67981"><ele>478.0</ele><time>2026-04-26T14:34:38.297Z</time></trkpt><trkpt lat="43.076065" lon="11.6799333"><ele>478.0</ele><time>2026-04-26T14:34:40.294Z</time></trkpt><trkpt lat="43.0760533" lon="11.680045"><ele>478.0</ele><time>2026-04-26T14:34:42.296Z</time></trkpt><trkpt lat="43.0760433" lon="11.6801367"><ele>478.00000000000006</ele><time>2026-04-26T14:34:44.295Z</time></trkpt><trkpt lat="43.0760333" lon="11.6802383"><ele>478.0</ele><time>2026-04-26T14:34:46.298Z</time></trkpt><trkpt lat="43.0760267" lon="11.680365"><ele>478.00000000000006</ele><time>2026-04-26T14:34:48.296Z</time></trkpt><trkpt lat="43.0760033" lon="11.6805283"><ele>478.0</ele><time>2026-04-26T14:34:50.296Z</time></trkpt><trkpt lat="43.075995" lon="11.68062"><ele>478.0</ele><time>2026-04-26T14:34:51.297Z</time></trkpt><trkpt lat="43.0759983" lon="11.6807167"><ele>478.0</ele><time>2026-04-26T14:34:52.296Z</time></trkpt><trkpt lat="43.076005" lon="11.6808133"><ele>478.00000000000006</ele><time>2026-04-26T14:34:53.297Z</time></trkpt><trkpt lat="43.076015" lon="11.68091"><ele>478.0</ele><time>2026-04-26T14:34:54.3Z</time></trkpt><trkpt lat="43.0760317" lon="11.681"><ele>478.0</ele><time>2026-04-26T14:34:55.298Z</time></trkpt><trkpt lat="43.0760467" lon="11.681085"><ele>477.99999999999994</ele><time>2026-04-26T14:34:56.298Z</time></trkpt><trkpt lat="43.0760717" lon="11.681225"><ele>477.99999999999994</ele><time>2026-04-26T14:34:58.296Z</time></trkpt><trkpt lat="43.0760933" lon="11.6813683"><ele>478.0</ele><time>2026-04-26T14:35:00.297Z</time></trkpt><trkpt lat="43.0761233" lon="11.6815233"><ele>478.0</ele><time>2026-04-26T14:35:02.297Z</time></trkpt><trkpt lat="43.0761517" lon="11.681605"><ele>477.28571428571433</ele><time>2026-04-26T14:35:03.294Z</time></trkpt><trkpt lat="43.0761867" lon="11.6816817"><ele>476.57142857142856</ele><time>2026-04-26T14:35:04.298Z</time></trkpt><trkpt lat="43.076235" lon="11.6817467"><ele>475.8571428571429</ele><time>2026-04-26T14:35:05.296Z</time></trkpt><trkpt lat="43.076295" lon="11.681795"><ele>475.14285714285717</ele><time>2026-04-26T14:35:06.297Z</time></trkpt><trkpt lat="43.0763567" lon="11.6818383"><ele>474.42857142857144</ele><time>2026-04-26T14:35:07.296Z</time></trkpt><trkpt lat="43.0764317" lon="11.6818533"><ele>473.7142857142857</ele><time>2026-04-26T14:35:08.297Z</time></trkpt><trkpt lat="43.0765167" lon="11.6818483"><ele>473.0</ele><time>2026-04-26T14:35:09.296Z</time></trkpt><trkpt lat="43.0766033" lon="11.68183"><ele>474.42857142857144</ele><time>2026-04-26T14:35:10.297Z</time></trkpt><trkpt lat="43.0766833" lon="11.68182"><ele>475.85714285714283</ele><time>2026-04-26T14:35:11.296Z</time></trkpt><trkpt lat="43.07676" lon="11.6818067"><ele>477.2857142857143</ele><time>2026-04-26T14:35:12.297Z</time></trkpt><trkpt lat="43.0768333" lon="11.6817867"><ele>478.7142857142857</ele><time>2026-04-26T14:35:13.296Z</time></trkpt><trkpt lat="43.0769017" lon="11.6817567"><ele>480.1428571428571</ele><time>2026-04-26T14:35:14.297Z</time></trkpt><trkpt lat="43.0769633" lon="11.681715"><ele>481.57142857142856</ele><time>2026-04-26T14:35:15.299Z</time></trkpt><trkpt lat="43.0770167" lon="11.6816533"><ele>483.0</ele><time>2026-04-26T14:35:16.295Z</time></trkpt><trkpt lat="43.0770567" lon="11.6815867"><ele>483.0</ele><time>2026-04-26T14:35:17.298Z</time></trkpt><trkpt lat="43.0770817" lon="11.681505"><ele>483.0</ele><time>2026-04-26T14:35:18.296Z</time></trkpt><trkpt lat="43.077085" lon="11.6814083"><ele>483.0</ele><time>2026-04-26T14:35:19.297Z</time></trkpt><trkpt lat="43.0770883" lon="11.6813083"><ele>483.0</ele><time>2026-04-26T14:35:20.297Z</time></trkpt><trkpt lat="43.077095" lon="11.6812133"><ele>483.0</ele><time>2026-04-26T14:35:21.296Z</time></trkpt><trkpt lat="43.0771033" lon="11.681115"><ele>483.0</ele><time>2026-04-26T14:35:22.297Z</time></trkpt><trkpt lat="43.0771183" lon="11.681025"><ele>483.0</ele><time>2026-04-26T14:35:23.295Z</time></trkpt><trkpt lat="43.077135" lon="11.68094"><ele>485.0</ele><time>2026-04-26T14:35:24.296Z</time></trkpt><trkpt lat="43.0771617" lon="11.6807917"><ele>486.99999999999994</ele><time>2026-04-26T14:35:26.299Z</time></trkpt><trkpt lat="43.0771917" lon="11.6806517"><ele>488.99999999999994</ele><time>2026-04-26T14:35:28.295Z</time></trkpt><trkpt lat="43.0772217" lon="11.6805117"><ele>491.0</ele><time>2026-04-26T14:35:30.296Z</time></trkpt><trkpt lat="43.0772467" lon="11.6803867"><ele>493.0</ele><time>2026-04-26T14:35:32.296Z</time></trkpt><trkpt lat="43.0772717" lon="11.6802767"><ele>493.50000000000006</ele><time>2026-04-26T14:35:34.297Z</time></trkpt><trkpt lat="43.0772967" lon="11.680155"><ele>494.0</ele><time>2026-04-26T14:35:36.296Z</time></trkpt><trkpt lat="43.077335" lon="11.6799983"><ele>494.5</ele><time>2026-04-26T14:35:38.296Z</time></trkpt><trkpt lat="43.0773567" lon="11.6799083"><ele>495.0</ele><time>2026-04-26T14:35:39.296Z</time></trkpt><trkpt lat="43.0773783" lon="11.6798167"><ele>495.50000000000006</ele><time>2026-04-26T14:35:40.296Z</time></trkpt><trkpt lat="43.0774" lon="11.679725"><ele>496.0</ele><time>2026-04-26T14:35:41.297Z</time></trkpt><trkpt lat="43.0774233" lon="11.6796333"><ele>495.1666666666667</ele><time>2026-04-26T14:35:42.296Z</time></trkpt><trkpt lat="43.077445" lon="11.6795383"><ele>494.33333333333337</ele><time>2026-04-26T14:35:43.297Z</time></trkpt><trkpt lat="43.0774633" lon="11.679445"><ele>493.5</ele><time>2026-04-26T14:35:44.297Z</time></trkpt><trkpt lat="43.0774767" lon="11.6793533"><ele>492.66666666666663</ele><time>2026-04-26T14:35:45.297Z</time></trkpt><trkpt lat="43.0774933" lon="11.6791917"><ele>491.8333333333333</ele><time>2026-04-26T14:35:47.296Z</time></trkpt><trkpt lat="43.0775017" lon="11.679045"><ele>491.0</ele><time>2026-04-26T14:35:49.299Z</time></trkpt><trkpt lat="43.0775167" lon="11.678915"><ele>490.99999999999994</ele><time>2026-04-26T14:35:51.298Z</time></trkpt><trkpt lat="43.0775733" lon="11.6788333"><ele>491.0</ele><time>2026-04-26T14:35:53.296Z</time></trkpt><trkpt lat="43.0776483" lon="11.678795"><ele>491.0</ele><time>2026-04-26T14:35:55.297Z</time></trkpt><trkpt lat="43.0777217" lon="11.67878"><ele>491.0</ele><time>2026-04-26T14:35:57.298Z</time></trkpt><trkpt lat="43.077805" lon="11.6787567"><ele>490.99999999999994</ele><time>2026-04-26T14:35:59.298Z</time></trkpt><trkpt lat="43.0778867" lon="11.6786567"><ele>491.0</ele><time>2026-04-26T14:36:01.297Z</time></trkpt><trkpt lat="43.0779383" lon="11.67852"><ele>491.0</ele><time>2026-04-26T14:36:03.296Z</time></trkpt><trkpt lat="43.0779833" lon="11.6783683"><ele>491.0</ele><time>2026-04-26T14:36:05.296Z</time></trkpt><trkpt lat="43.07803" lon="11.678235"><ele>491.0</ele><time>2026-04-26T14:36:07.296Z</time></trkpt><trkpt lat="43.0780783" lon="11.6781267"><ele>491.0</ele><time>2026-04-26T14:36:09.297Z</time></trkpt><trkpt lat="43.0781133" lon="11.67804"><ele>491.0</ele><time>2026-04-26T14:36:11.298Z</time></trkpt><trkpt lat="43.0781367" lon="11.6779567"><ele>490.99999999999994</ele><time>2026-04-26T14:36:14.297Z</time></trkpt><trkpt lat="43.0782033" lon="11.6779133"><ele>491.0</ele><time>2026-04-26T14:36:36.297Z</time></trkpt><trkpt lat="43.0783233" lon="11.677865"><ele>491.0</ele><time>2026-04-26T14:36:38.298Z</time></trkpt><trkpt lat="43.0783967" lon="11.677825"><ele>491.0</ele><time>2026-04-26T14:36:39.296Z</time></trkpt><trkpt lat="43.07847" lon="11.6777783"><ele>490.99999999999994</ele><time>2026-04-26T14:36:40.297Z</time></trkpt><trkpt lat="43.078545" lon="11.6777217"><ele>491.0</ele><time>2026-04-26T14:36:41.299Z</time></trkpt><trkpt lat="43.0786267" lon="11.6776733"><ele>490.3333333333333</ele><time>2026-04-26T14:36:42.299Z</time></trkpt><trkpt lat="43.0787067" lon="11.6776217"><ele>489.66666666666663</ele><time>2026-04-26T14:36:43.296Z</time></trkpt><trkpt lat="43.0787817" lon="11.6775717"><ele>489.0</ele><time>2026-04-26T14:36:44.298Z</time></trkpt><trkpt lat="43.0788633" lon="11.677525"><ele>488.33333333333337</ele><time>2026-04-26T14:36:45.296Z</time></trkpt><trkpt lat="43.0789417" lon="11.6774767"><ele>487.6666666666667</ele><time>2026-04-26T14:36:46.295Z</time></trkpt><trkpt lat="43.0790183" lon="11.6774317"><ele>487.0</ele><time>2026-04-26T14:36:47.296Z</time></trkpt><trkpt lat="43.07909" lon="11.6773883"><ele>486.6666666666667</ele><time>2026-04-26T14:36:48.297Z</time></trkpt><trkpt lat="43.0791533" lon="11.67735"><ele>486.33333333333337</ele><time>2026-04-26T14:36:49.299Z</time></trkpt><trkpt lat="43.0792567" lon="11.6773133"><ele>486.0</ele><time>2026-04-26T14:36:51.297Z</time></trkpt><trkpt lat="43.0793367" lon="11.677315"><ele>485.66666666666663</ele><time>2026-04-26T14:36:53.297Z</time></trkpt><trkpt lat="43.079415" lon="11.6773033"><ele>485.3333333333333</ele><time>2026-04-26T14:36:56.3Z</time></trkpt><trkpt lat="43.07948" lon="11.6772933"><ele>485.0</ele><time>2026-04-26T14:41:45.293Z</time></trkpt><trkpt lat="43.0794283" lon="11.67735"><ele>484.99999999999994</ele><time>2026-04-26T14:41:46.295Z</time></trkpt><trkpt lat="43.0794483" lon="11.677265"><ele>485.0</ele><time>2026-04-26T14:42:12.298Z</time></trkpt><trkpt lat="43.07952" lon="11.6772283"><ele>485.0</ele><time>2026-04-26T14:42:19.297Z</time></trkpt><trkpt lat="43.0796167" lon="11.6772117"><ele>485.0</ele><time>2026-04-26T14:43:15.298Z</time></trkpt><trkpt lat="43.0796567" lon="11.6771183"><ele>484.99999999999994</ele><time>2026-04-26T14:43:18.298Z</time></trkpt><trkpt lat="43.0797117" lon="11.6770383"><ele>485.0</ele><time>2026-04-26T14:43:20.299Z</time></trkpt><trkpt lat="43.0798" lon="11.6769567"><ele>485.00000000000006</ele><time>2026-04-26T14:43:22.299Z</time></trkpt><trkpt lat="43.079855" lon="11.6769117"><ele>485.0</ele><time>2026-04-26T14:43:23.299Z</time></trkpt><trkpt lat="43.0799133" lon="11.676865"><ele>485.00000000000006</ele><time>2026-04-26T14:43:24.299Z</time></trkpt><trkpt lat="43.079975" lon="11.67682"><ele>485.00000000000006</ele><time>2026-04-26T14:43:25.298Z</time></trkpt><trkpt lat="43.08004" lon="11.6767767"><ele>485.0</ele><time>2026-04-26T14:43:26.302Z</time></trkpt><trkpt lat="43.0801083" lon="11.6767317"><ele>485.00000000000006</ele><time>2026-04-26T14:43:27.298Z</time></trkpt><trkpt lat="43.0801783" lon="11.6766883"><ele>485.00000000000006</ele><time>2026-04-26T14:43:28.299Z</time></trkpt><trkpt lat="43.0802433" lon="11.6766433"><ele>484.99999999999994</ele><time>2026-04-26T14:43:29.296Z</time></trkpt><trkpt lat="43.0803117" lon="11.6765967"><ele>485.0</ele><time>2026-04-26T14:43:30.298Z</time></trkpt><trkpt lat="43.0803833" lon="11.6765533"><ele>485.0</ele><time>2026-04-26T14:43:31.297Z</time></trkpt><trkpt lat="43.08046" lon="11.67651"><ele>485.0</ele><time>2026-04-26T14:43:32.298Z</time></trkpt><trkpt lat="43.0805483" lon="11.6764717"><ele>484.99999999999994</ele><time>2026-04-26T14:43:33.298Z</time></trkpt><trkpt lat="43.0806467" lon="11.67644"><ele>485.0</ele><time>2026-04-26T14:43:34.297Z</time></trkpt><trkpt lat="43.0807433" lon="11.676405"><ele>483.6</ele><time>2026-04-26T14:43:35.298Z</time></trkpt><trkpt lat="43.080845" lon="11.6763733"><ele>482.2</ele><time>2026-04-26T14:43:36.299Z</time></trkpt><trkpt lat="43.0809567" lon="11.6763683"><ele>480.79999999999995</ele><time>2026-04-26T14:43:37.298Z</time></trkpt><trkpt lat="43.0810683" lon="11.6763633"><ele>479.4</ele><time>2026-04-26T14:43:38.301Z</time></trkpt><trkpt lat="43.0811783" lon="11.6763583"><ele>478.0</ele><time>2026-04-26T14:43:39.3Z</time></trkpt><trkpt lat="43.08129" lon="11.6763567"><ele>478.0</ele><time>2026-04-26T14:43:40.297Z</time></trkpt><trkpt lat="43.0814" lon="11.676355"><ele>478.0</ele><time>2026-04-26T14:43:41.297Z</time></trkpt><trkpt lat="43.08151" lon="11.6763533"><ele>478.0</ele><time>2026-04-26T14:43:42.298Z</time></trkpt><trkpt lat="43.0816233" lon="11.6763483"><ele>478.0</ele><time>2026-04-26T14:43:43.3Z</time></trkpt><trkpt lat="43.08174" lon="11.6763467"><ele>476.0</ele><time>2026-04-26T14:43:44.3Z</time></trkpt><trkpt lat="43.0818633" lon="11.6763517"><ele>474.0</ele><time>2026-04-26T14:43:45.297Z</time></trkpt><trkpt lat="43.0819967" lon="11.6763683"><ele>472.0</ele><time>2026-04-26T14:43:46.298Z</time></trkpt><trkpt lat="43.0821383" lon="11.6763883"><ele>470.0</ele><time>2026-04-26T14:43:47.298Z</time></trkpt><trkpt lat="43.0822833" lon="11.67641"><ele>470.0</ele><time>2026-04-26T14:43:48.298Z</time></trkpt><trkpt lat="43.08243" lon="11.67643"><ele>470.0</ele><time>2026-04-26T14:43:49.299Z</time></trkpt><trkpt lat="43.0825733" lon="11.67645"><ele>470.0</ele><time>2026-04-26T14:43:50.299Z</time></trkpt><trkpt lat="43.082715" lon="11.6764717"><ele>470.0</ele><time>2026-04-26T14:43:51.299Z</time></trkpt><trkpt lat="43.0828533" lon="11.6764933"><ele>467.75</ele><time>2026-04-26T14:43:52.3Z</time></trkpt><trkpt lat="43.082985" lon="11.676515"><ele>465.5</ele><time>2026-04-26T14:43:53.297Z</time></trkpt><trkpt lat="43.0831083" lon="11.6765383"><ele>463.25</ele><time>2026-04-26T14:43:54.298Z</time></trkpt><trkpt lat="43.08323" lon="11.67656"><ele>461.0</ele><time>2026-04-26T14:43:55.299Z</time></trkpt><trkpt lat="43.0833533" lon="11.6765817"><ele>459.75</ele><time>2026-04-26T14:43:56.297Z</time></trkpt><trkpt lat="43.0834767" lon="11.6765983"><ele>458.5</ele><time>2026-04-26T14:43:57.298Z</time></trkpt><trkpt lat="43.0836" lon="11.6766167"><ele>457.25</ele><time>2026-04-26T14:43:58.297Z</time></trkpt><trkpt lat="43.0837183" lon="11.6766267"><ele>456.0</ele><time>2026-04-26T14:43:59.296Z</time></trkpt><trkpt lat="43.08384" lon="11.6766333"><ele>456.0</ele><time>2026-04-26T14:44:00.298Z</time></trkpt><trkpt lat="43.083955" lon="11.6766217"><ele>456.0</ele><time>2026-04-26T14:44:01.297Z</time></trkpt><trkpt lat="43.0840633" lon="11.676595"><ele>456.0</ele><time>2026-04-26T14:44:02.299Z</time></trkpt><trkpt lat="43.0841683" lon="11.6765633"><ele>456.0</ele><time>2026-04-26T14:44:03.299Z</time></trkpt><trkpt lat="43.0842733" lon="11.6765517"><ele>456.0</ele><time>2026-04-26T14:44:04.299Z</time></trkpt><trkpt lat="43.0843733" lon="11.6765617"><ele>454.8</ele><time>2026-04-26T14:44:05.299Z</time></trkpt><trkpt lat="43.0844717" lon="11.6766017"><ele>453.6</ele><time>2026-04-26T14:44:06.299Z</time></trkpt><trkpt lat="43.0845617" lon="11.67667"><ele>452.4</ele><time>2026-04-26T14:44:07.3Z</time></trkpt><trkpt lat="43.084645" lon="11.6767617"><ele>451.2</ele><time>2026-04-26T14:44:08.297Z</time></trkpt><trkpt lat="43.0847217" lon="11.67687"><ele>450.0</ele><time>2026-04-26T14:44:09.299Z</time></trkpt><trkpt lat="43.084795" lon="11.67699"><ele>449.5</ele><time>2026-04-26T14:44:10.299Z</time></trkpt><trkpt lat="43.084865" lon="11.6771117"><ele>449.0</ele><time>2026-04-26T14:44:11.298Z</time></trkpt><trkpt lat="43.08493" lon="11.67724"><ele>448.5</ele><time>2026-04-26T14:44:12.298Z</time></trkpt><trkpt lat="43.0849983" lon="11.6773667"><ele>448.0</ele><time>2026-04-26T14:44:13.3Z</time></trkpt><trkpt lat="43.0850667" lon="11.6774933"><ele>448.75</ele><time>2026-04-26T14:44:14.301Z</time></trkpt><trkpt lat="43.08514" lon="11.6776117"><ele>449.5</ele><time>2026-04-26T14:44:15.299Z</time></trkpt><trkpt lat="43.0852217" lon="11.6777217"><ele>450.25</ele><time>2026-04-26T14:44:16.3Z</time></trkpt><trkpt lat="43.08531" lon="11.677825"><ele>451.0</ele><time>2026-04-26T14:44:17.297Z</time></trkpt><trkpt lat="43.085405" lon="11.67792"><ele>451.0</ele><time>2026-04-26T14:44:18.299Z</time></trkpt><trkpt lat="43.0855017" lon="11.6780117"><ele>451.0</ele><time>2026-04-26T14:44:19.299Z</time></trkpt><trkpt lat="43.0855983" lon="11.6781017"><ele>451.0</ele><time>2026-04-26T14:44:20.3Z</time></trkpt><trkpt lat="43.0856983" lon="11.67819"><ele>451.0</ele><time>2026-04-26T14:44:21.297Z</time></trkpt><trkpt lat="43.0858033" lon="11.6782817"><ele>451.75</ele><time>2026-04-26T14:44:22.298Z</time></trkpt><trkpt lat="43.0859083" lon="11.6783733"><ele>452.5</ele><time>2026-04-26T14:44:23.299Z</time></trkpt><trkpt lat="43.08602" lon="11.678465"><ele>453.25</ele><time>2026-04-26T14:44:24.3Z</time></trkpt><trkpt lat="43.0861317" lon="11.67856"><ele>454.0</ele><time>2026-04-26T14:44:25.298Z</time></trkpt><trkpt lat="43.0862417" lon="11.6786567"><ele>454.0</ele><time>2026-04-26T14:44:26.3Z</time></trkpt><trkpt lat="43.0863533" lon="11.6787533"><ele>454.0</ele><time>2026-04-26T14:44:27.298Z</time></trkpt><trkpt lat="43.086465" lon="11.6788467"><ele>454.0</ele><time>2026-04-26T14:44:28.3Z</time></trkpt><trkpt lat="43.0865767" lon="11.67894"><ele>454.0</ele><time>2026-04-26T14:44:29.299Z</time></trkpt><trkpt lat="43.08669" lon="11.67904"><ele>454.25</ele><time>2026-04-26T14:44:30.297Z</time></trkpt><trkpt lat="43.0868067" lon="11.679145"><ele>454.5</ele><time>2026-04-26T14:44:31.297Z</time></trkpt><trkpt lat="43.0869217" lon="11.6792583"><ele>454.75</ele><time>2026-04-26T14:44:32.301Z</time></trkpt><trkpt lat="43.087035" lon="11.6793817"><ele>455.0</ele><time>2026-04-26T14:44:33.3Z</time></trkpt><trkpt lat="43.087145" lon="11.6795183"><ele>455.0</ele><time>2026-04-26T14:44:34.3Z</time></trkpt><trkpt lat="43.0872433" lon="11.6796717"><ele>455.0</ele><time>2026-04-26T14:44:35.298Z</time></trkpt><trkpt lat="43.08733" lon="11.67984"><ele>455.0</ele><time>2026-04-26T14:44:36.299Z</time></trkpt><trkpt lat="43.0874133" lon="11.6800217"><ele>455.66666666666663</ele><time>2026-04-26T14:44:37.298Z</time></trkpt><trkpt lat="43.0874817" lon="11.680215"><ele>456.33333333333337</ele><time>2026-04-26T14:44:38.298Z</time></trkpt><trkpt lat="43.087545" lon="11.6804167"><ele>457.0</ele><time>2026-04-26T14:44:39.298Z</time></trkpt><trkpt lat="43.0876" lon="11.6806283"><ele>457.0</ele><time>2026-04-26T14:44:40.298Z</time></trkpt><trkpt lat="43.0876517" lon="11.6808467"><ele>457.0</ele><time>2026-04-26T14:44:41.299Z</time></trkpt><trkpt lat="43.0877" lon="11.6810633"><ele>457.0</ele><time>2026-04-26T14:44:42.299Z</time></trkpt><trkpt lat="43.08775" lon="11.68128"><ele>457.6666666666667</ele><time>2026-04-26T14:44:43.3Z</time></trkpt><trkpt lat="43.0878" lon="11.6814983"><ele>458.33333333333337</ele><time>2026-04-26T14:44:44.301Z</time></trkpt><trkpt lat="43.0878533" lon="11.6817183"><ele>459.0</ele><time>2026-04-26T14:44:45.299Z</time></trkpt><trkpt lat="43.0879083" lon="11.68194"><ele>459.66666666666663</ele><time>2026-04-26T14:44:46.298Z</time></trkpt><trkpt lat="43.08796" lon="11.6821667"><ele>460.3333333333333</ele><time>2026-04-26T14:44:47.3Z</time></trkpt><trkpt lat="43.088015" lon="11.68239"><ele>461.0</ele><time>2026-04-26T14:44:48.299Z</time></trkpt><trkpt lat="43.08807" lon="11.682615"><ele>460.3333333333333</ele><time>2026-04-26T14:44:49.3Z</time></trkpt><trkpt lat="43.088125" lon="11.6828383"><ele>459.66666666666663</ele><time>2026-04-26T14:44:50.299Z</time></trkpt><trkpt lat="43.08818" lon="11.6830583"><ele>459.0</ele><time>2026-04-26T14:44:51.299Z</time></trkpt><trkpt lat="43.08824" lon="11.6832717"><ele>457.33333333333337</ele><time>2026-04-26T14:44:52.298Z</time></trkpt><trkpt lat="43.0883117" lon="11.68348"><ele>455.6666666666667</ele><time>2026-04-26T14:44:53.299Z</time></trkpt><trkpt lat="43.0883933" lon="11.683675"><ele>454.0</ele><time>2026-04-26T14:44:54.299Z</time></trkpt><trkpt lat="43.088485" lon="11.6838617"><ele>453.6666666666667</ele><time>2026-04-26T14:44:55.3Z</time></trkpt><trkpt lat="43.08859" lon="11.6840367"><ele>453.33333333333337</ele><time>2026-04-26T14:44:56.298Z</time></trkpt><trkpt lat="43.0887017" lon="11.684195"><ele>453.0</ele><time>2026-04-26T14:44:57.299Z</time></trkpt><trkpt lat="43.0888283" lon="11.68434"><ele>452.33333333333337</ele><time>2026-04-26T14:44:58.298Z</time></trkpt><trkpt lat="43.0889567" lon="11.684485"><ele>451.6666666666667</ele><time>2026-04-26T14:44:59.298Z</time></trkpt><trkpt lat="43.0890883" lon="11.6846233"><ele>451.0</ele><time>2026-04-26T14:45:00.297Z</time></trkpt><trkpt lat="43.089215" lon="11.6847633"><ele>449.6666666666667</ele><time>2026-04-26T14:45:01.298Z</time></trkpt><trkpt lat="43.089345" lon="11.684905"><ele>448.33333333333337</ele><time>2026-04-26T14:45:02.299Z</time></trkpt><trkpt lat="43.0894717" lon="11.6850433"><ele>447.0</ele><time>2026-04-26T14:45:03.298Z</time></trkpt><trkpt lat="43.0895983" lon="11.6851783"><ele>446.0</ele><time>2026-04-26T14:45:04.296Z</time></trkpt><trkpt lat="43.0897267" lon="11.6853167"><ele>445.0</ele><time>2026-04-26T14:45:05.298Z</time></trkpt><trkpt lat="43.08985" lon="11.6854517"><ele>444.0</ele><time>2026-04-26T14:45:06.297Z</time></trkpt><trkpt lat="43.089975" lon="11.6855867"><ele>443.66666666666663</ele><time>2026-04-26T14:45:07.297Z</time></trkpt><trkpt lat="43.090095" lon="11.6857183"><ele>443.3333333333333</ele><time>2026-04-26T14:45:08.299Z</time></trkpt><trkpt lat="43.0902167" lon="11.6858533"><ele>443.0</ele><time>2026-04-26T14:45:09.296Z</time></trkpt><trkpt lat="43.0903383" lon="11.68598"><ele>443.0</ele><time>2026-04-26T14:45:10.296Z</time></trkpt><trkpt lat="43.0904667" lon="11.68609"><ele>443.0</ele><time>2026-04-26T14:45:11.296Z</time></trkpt><trkpt lat="43.0906017" lon="11.6861817"><ele>443.0</ele><time>2026-04-26T14:45:12.297Z</time></trkpt><trkpt lat="43.0907383" lon="11.68626"><ele>442.5</ele><time>2026-04-26T14:45:13.296Z</time></trkpt><trkpt lat="43.0908733" lon="11.6863383"><ele>442.0</ele><time>2026-04-26T14:45:14.297Z</time></trkpt><trkpt lat="43.0910067" lon="11.686415"><ele>441.5</ele><time>2026-04-26T14:45:15.297Z</time></trkpt><trkpt lat="43.09114" lon="11.6864867"><ele>441.0</ele><time>2026-04-26T14:45:16.296Z</time></trkpt><trkpt lat="43.09127" lon="11.68656"><ele>441.0</ele><time>2026-04-26T14:45:17.296Z</time></trkpt><trkpt lat="43.0913967" lon="11.6866333"><ele>441.0</ele><time>2026-04-26T14:45:18.296Z</time></trkpt><trkpt lat="43.0915133" lon="11.6867183"><ele>441.0</ele><time>2026-04-26T14:45:19.298Z</time></trkpt><trkpt lat="43.0916133" lon="11.6868267"><ele>441.0</ele><time>2026-04-26T14:45:20.299Z</time></trkpt><trkpt lat="43.0916883" lon="11.6869583"><ele>439.75</ele><time>2026-04-26T14:45:21.296Z</time></trkpt><trkpt lat="43.0917333" lon="11.6871133"><ele>438.5</ele><time>2026-04-26T14:45:22.297Z</time></trkpt><trkpt lat="43.0917583" lon="11.68728"><ele>437.25</ele><time>2026-04-26T14:45:23.298Z</time></trkpt><trkpt lat="43.0917933" lon="11.6874433"><ele>436.0</ele><time>2026-04-26T14:45:24.298Z</time></trkpt><trkpt lat="43.091855" lon="11.6875883"><ele>436.0</ele><time>2026-04-26T14:45:25.296Z</time></trkpt><trkpt lat="43.0919533" lon="11.68772"><ele>436.0</ele><time>2026-04-26T14:45:26.298Z</time></trkpt><trkpt lat="43.092065" lon="11.68784"><ele>436.0</ele><time>2026-04-26T14:45:27.299Z</time></trkpt><trkpt lat="43.0921783" lon="11.6879483"><ele>436.0</ele><time>2026-04-26T14:45:28.298Z</time></trkpt><trkpt lat="43.09229" lon="11.68805"><ele>436.25</ele><time>2026-04-26T14:45:29.297Z</time></trkpt><trkpt lat="43.0924083" lon="11.6881533"><ele>436.5</ele><time>2026-04-26T14:45:30.297Z</time></trkpt><trkpt lat="43.0925217" lon="11.688255"><ele>436.75</ele><time>2026-04-26T14:45:31.297Z</time></trkpt><trkpt lat="43.092635" lon="11.688355"><ele>437.0</ele><time>2026-04-26T14:45:32.294Z</time></trkpt><trkpt lat="43.09275" lon="11.6884533"><ele>435.5</ele><time>2026-04-26T14:45:33.296Z</time></trkpt><trkpt lat="43.09287" lon="11.688545"><ele>434.0</ele><time>2026-04-26T14:45:34.298Z</time></trkpt><trkpt lat="43.09299" lon="11.6886283"><ele>432.5</ele><time>2026-04-26T14:45:35.298Z</time></trkpt><trkpt lat="43.0931117" lon="11.6887083"><ele>431.0</ele><time>2026-04-26T14:45:36.298Z</time></trkpt><trkpt lat="43.0932367" lon="11.6887817"><ele>429.75</ele><time>2026-04-26T14:45:37.299Z</time></trkpt><trkpt lat="43.093365" lon="11.6888417"><ele>428.5</ele><time>2026-04-26T14:45:38.297Z</time></trkpt><trkpt lat="43.0934967" lon="11.6888917"><ele>427.25</ele><time>2026-04-26T14:45:39.296Z</time></trkpt><trkpt lat="43.0936283" lon="11.68893"><ele>426.0</ele><time>2026-04-26T14:45:40.299Z</time></trkpt><trkpt lat="43.0937617" lon="11.6889533"><ele>426.0</ele><time>2026-04-26T14:45:41.297Z</time></trkpt><trkpt lat="43.09389" lon="11.6889683"><ele>426.0</ele><time>2026-04-26T14:45:42.297Z</time></trkpt><trkpt lat="43.09402" lon="11.6889833"><ele>426.0</ele><time>2026-04-26T14:45:43.297Z</time></trkpt><trkpt lat="43.0941467" lon="11.6890017"><ele>426.0</ele><time>2026-04-26T14:45:44.299Z</time></trkpt><trkpt lat="43.0942767" lon="11.68903"><ele>426.25</ele><time>2026-04-26T14:45:45.299Z</time></trkpt><trkpt lat="43.094405" lon="11.6890667"><ele>426.5</ele><time>2026-04-26T14:45:46.298Z</time></trkpt><trkpt lat="43.094535" lon="11.68911"><ele>426.75</ele><time>2026-04-26T14:45:47.296Z</time></trkpt><trkpt lat="43.0946633" lon="11.6891617"><ele>427.0</ele><time>2026-04-26T14:45:48.297Z</time></trkpt><trkpt lat="43.0947883" lon="11.6892233"><ele>427.0</ele><time>2026-04-26T14:45:49.297Z</time></trkpt><trkpt lat="43.0949133" lon="11.6893"><ele>427.0</ele><time>2026-04-26T14:45:50.297Z</time></trkpt><trkpt lat="43.09504" lon="11.68939"><ele>427.0</ele><time>2026-04-26T14:45:51.295Z</time></trkpt><trkpt lat="43.0951717" lon="11.689495"><ele>427.0</ele><time>2026-04-26T14:45:52.296Z</time></trkpt><trkpt lat="43.095305" lon="11.6896183"><ele>425.33333333333337</ele><time>2026-04-26T14:45:53.295Z</time></trkpt><trkpt lat="43.0954417" lon="11.6897533"><ele>423.66666666666663</ele><time>2026-04-26T14:45:54.3Z</time></trkpt><trkpt lat="43.09558" lon="11.6898967"><ele>422.0</ele><time>2026-04-26T14:45:55.298Z</time></trkpt><trkpt lat="43.09572" lon="11.6900467"><ele>421.66666666666663</ele><time>2026-04-26T14:45:56.299Z</time></trkpt><trkpt lat="43.0958567" lon="11.6901967"><ele>421.33333333333337</ele><time>2026-04-26T14:45:57.298Z</time></trkpt><trkpt lat="43.095995" lon="11.690345"><ele>421.0</ele><time>2026-04-26T14:45:58.298Z</time></trkpt><trkpt lat="43.0961217" lon="11.69049"><ele>420.0</ele><time>2026-04-26T14:45:59.299Z</time></trkpt><trkpt lat="43.0962367" lon="11.6906367"><ele>419.0</ele><time>2026-04-26T14:46:00.298Z</time></trkpt><trkpt lat="43.0963367" lon="11.6907883"><ele>418.0</ele><time>2026-04-26T14:46:01.298Z</time></trkpt><trkpt lat="43.0964217" lon="11.6909583"><ele>417.33333333333337</ele><time>2026-04-26T14:46:02.298Z</time></trkpt><trkpt lat="43.0964883" lon="11.6911483"><ele>416.66666666666663</ele><time>2026-04-26T14:46:03.298Z</time></trkpt><trkpt lat="43.0965283" lon="11.6913683"><ele>416.0</ele><time>2026-04-26T14:46:04.297Z</time></trkpt><trkpt lat="43.0965483" lon="11.6916033"><ele>416.0</ele><time>2026-04-26T14:46:05.298Z</time></trkpt><trkpt lat="43.0965617" lon="11.69184"><ele>416.0</ele><time>2026-04-26T14:46:06.296Z</time></trkpt><trkpt lat="43.0965717" lon="11.692075"><ele>416.0</ele><time>2026-04-26T14:46:07.298Z</time></trkpt><trkpt lat="43.09658" lon="11.6922983"><ele>416.75</ele><time>2026-04-26T14:46:08.299Z</time></trkpt><trkpt lat="43.0965883" lon="11.6925083"><ele>417.5</ele><time>2026-04-26T14:46:09.297Z</time></trkpt><trkpt lat="43.096605" lon="11.6927083"><ele>418.25</ele><time>2026-04-26T14:46:10.298Z</time></trkpt><trkpt lat="43.0966417" lon="11.6928983"><ele>419.0</ele><time>2026-04-26T14:46:11.299Z</time></trkpt><trkpt lat="43.09671" lon="11.6930683"><ele>419.66666666666663</ele><time>2026-04-26T14:46:12.297Z</time></trkpt><trkpt lat="43.0968117" lon="11.69322"><ele>420.33333333333337</ele><time>2026-04-26T14:46:13.297Z</time></trkpt><trkpt lat="43.0969333" lon="11.69336"><ele>421.0</ele><time>2026-04-26T14:46:14.299Z</time></trkpt><trkpt lat="43.097065" lon="11.6934983"><ele>421.33333333333337</ele><time>2026-04-26T14:46:15.297Z</time></trkpt><trkpt lat="43.0971983" lon="11.69364"><ele>421.66666666666663</ele><time>2026-04-26T14:46:16.298Z</time></trkpt><trkpt lat="43.09733" lon="11.6937833"><ele>422.0</ele><time>2026-04-26T14:46:17.296Z</time></trkpt><trkpt lat="43.0974633" lon="11.6939333"><ele>422.0</ele><time>2026-04-26T14:46:18.295Z</time></trkpt><trkpt lat="43.0975983" lon="11.6940867"><ele>422.0</ele><time>2026-04-26T14:46:19.297Z</time></trkpt><trkpt lat="43.0977333" lon="11.694245"><ele>422.0</ele><time>2026-04-26T14:46:20.295Z</time></trkpt><trkpt lat="43.0978683" lon="11.6943967"><ele>423.3333333333333</ele><time>2026-04-26T14:46:21.297Z</time></trkpt><trkpt lat="43.0980083" lon="11.694545"><ele>424.66666666666663</ele><time>2026-04-26T14:46:22.296Z</time></trkpt><trkpt lat="43.09815" lon="11.6946967"><ele>426.0</ele><time>2026-04-26T14:46:23.297Z</time></trkpt><trkpt lat="43.0982933" lon="11.6948567"><ele>426.33333333333337</ele><time>2026-04-26T14:46:24.3Z</time></trkpt><trkpt lat="43.0984383" lon="11.6950167"><ele>426.6666666666667</ele><time>2026-04-26T14:46:25.299Z</time></trkpt><trkpt lat="43.0985783" lon="11.695175"><ele>427.0</ele><time>2026-04-26T14:46:26.299Z</time></trkpt><trkpt lat="43.0987183" lon="11.6953333"><ele>428.33333333333337</ele><time>2026-04-26T14:46:27.299Z</time></trkpt><trkpt lat="43.0988583" lon="11.69549"><ele>429.66666666666663</ele><time>2026-04-26T14:46:28.298Z</time></trkpt><trkpt lat="43.0989967" lon="11.6956467"><ele>431.0</ele><time>2026-04-26T14:46:29.298Z</time></trkpt><trkpt lat="43.0991367" lon="11.6958017"><ele>433.0</ele><time>2026-04-26T14:46:30.299Z</time></trkpt><trkpt lat="43.0992767" lon="11.6959567"><ele>435.0</ele><time>2026-04-26T14:46:31.298Z</time></trkpt><trkpt lat="43.0994117" lon="11.6961"><ele>437.0</ele><time>2026-04-26T14:46:32.298Z</time></trkpt><trkpt lat="43.09955" lon="11.69622"><ele>437.66666666666663</ele><time>2026-04-26T14:46:33.299Z</time></trkpt><trkpt lat="43.099695" lon="11.69631"><ele>438.33333333333337</ele><time>2026-04-26T14:46:34.299Z</time></trkpt><trkpt lat="43.09985" lon="11.6963783"><ele>439.0</ele><time>2026-04-26T14:46:35.297Z</time></trkpt><trkpt lat="43.1000117" lon="11.696435"><ele>441.6666666666667</ele><time>2026-04-26T14:46:36.298Z</time></trkpt><trkpt lat="43.1001767" lon="11.6964917"><ele>444.33333333333337</ele><time>2026-04-26T14:46:37.298Z</time></trkpt><trkpt lat="43.100345" lon="11.69654"><ele>447.0</ele><time>2026-04-26T14:46:38.299Z</time></trkpt><trkpt lat="43.1005167" lon="11.6965833"><ele>447.0</ele><time>2026-04-26T14:46:39.297Z</time></trkpt><trkpt lat="43.1006917" lon="11.69662"><ele>447.0</ele><time>2026-04-26T14:46:40.297Z</time></trkpt><trkpt lat="43.1008617" lon="11.6966667"><ele>447.0</ele><time>2026-04-26T14:46:41.298Z</time></trkpt><trkpt lat="43.1010233" lon="11.6967217"><ele>448.33333333333337</ele><time>2026-04-26T14:46:42.298Z</time></trkpt><trkpt lat="43.101175" lon="11.6967967"><ele>449.6666666666667</ele><time>2026-04-26T14:46:43.299Z</time></trkpt><trkpt lat="43.1013183" lon="11.696895"><ele>451.0</ele><time>2026-04-26T14:46:44.296Z</time></trkpt><trkpt lat="43.1014567" lon="11.6970017"><ele>455.6666666666667</ele><time>2026-04-26T14:46:45.297Z</time></trkpt><trkpt lat="43.101585" lon="11.6971133"><ele>460.33333333333337</ele><time>2026-04-26T14:46:46.298Z</time></trkpt><trkpt lat="43.1017133" lon="11.6972317"><ele>465.0</ele><time>2026-04-26T14:46:47.297Z</time></trkpt><trkpt lat="43.10184" lon="11.6973567"><ele>465.0</ele><time>2026-04-26T14:46:48.297Z</time></trkpt><trkpt lat="43.1019683" lon="11.69749"><ele>465.0</ele><time>2026-04-26T14:46:49.295Z</time></trkpt><trkpt lat="43.1020917" lon="11.69763"><ele>465.0</ele><time>2026-04-26T14:46:50.296Z</time></trkpt><trkpt lat="43.1022067" lon="11.6977833"><ele>464.33333333333337</ele><time>2026-04-26T14:46:51.296Z</time></trkpt><trkpt lat="43.1023083" lon="11.69795"><ele>463.6666666666667</ele><time>2026-04-26T14:46:52.296Z</time></trkpt><trkpt lat="43.1024017" lon="11.6981217"><ele>463.0</ele><time>2026-04-26T14:46:53.296Z</time></trkpt><trkpt lat="43.1024917" lon="11.698295"><ele>463.0</ele><time>2026-04-26T14:46:54.299Z</time></trkpt><trkpt lat="43.1025817" lon="11.6984683"><ele>463.0</ele><time>2026-04-26T14:46:55.298Z</time></trkpt><trkpt lat="43.1026667" lon="11.6986417"><ele>463.0</ele><time>2026-04-26T14:46:56.301Z</time></trkpt><trkpt lat="43.1027483" lon="11.6988167"><ele>467.33333333333337</ele><time>2026-04-26T14:46:57.297Z</time></trkpt><trkpt lat="43.1028333" lon="11.69899"><ele>471.66666666666663</ele><time>2026-04-26T14:46:58.296Z</time></trkpt><trkpt lat="43.1029167" lon="11.6991667"><ele>476.0</ele><time>2026-04-26T14:46:59.294Z</time></trkpt><trkpt lat="43.1029933" lon="11.6993483"><ele>476.3333333333333</ele><time>2026-04-26T14:47:00.296Z</time></trkpt><trkpt lat="43.10306" lon="11.6995367"><ele>476.66666666666663</ele><time>2026-04-26T14:47:01.295Z</time></trkpt><trkpt lat="43.10313" lon="11.6997217"><ele>477.0</ele><time>2026-04-26T14:47:02.297Z</time></trkpt><trkpt lat="43.1032117" lon="11.6998967"><ele>473.0</ele><time>2026-04-26T14:47:03.296Z</time></trkpt><trkpt lat="43.1033017" lon="11.700065"><ele>469.0</ele><time>2026-04-26T14:47:04.296Z</time></trkpt><trkpt lat="43.103395" lon="11.7002267"><ele>465.0</ele><time>2026-04-26T14:47:05.296Z</time></trkpt><trkpt lat="43.1034917" lon="11.7003833"><ele>465.0</ele><time>2026-04-26T14:47:06.295Z</time></trkpt><trkpt lat="43.1035867" lon="11.7005383"><ele>465.0</ele><time>2026-04-26T14:47:07.296Z</time></trkpt><trkpt lat="43.10368" lon="11.7006933"><ele>465.0</ele><time>2026-04-26T14:47:08.297Z</time></trkpt><trkpt lat="43.1037667" lon="11.7008517"><ele>465.0</ele><time>2026-04-26T14:47:09.296Z</time></trkpt><trkpt lat="43.10385" lon="11.7010133"><ele>466.25</ele><time>2026-04-26T14:47:10.296Z</time></trkpt><trkpt lat="43.1039233" lon="11.7011783"><ele>467.5</ele><time>2026-04-26T14:47:11.296Z</time></trkpt><trkpt lat="43.10398" lon="11.7013433"><ele>468.75</ele><time>2026-04-26T14:47:12.298Z</time></trkpt><trkpt lat="43.10403" lon="11.701505"><ele>470.0</ele><time>2026-04-26T14:47:13.295Z</time></trkpt><trkpt lat="43.10407" lon="11.7016533"><ele>469.8</ele><time>2026-04-26T14:47:14.296Z</time></trkpt><trkpt lat="43.1041067" lon="11.701785"><ele>469.6</ele><time>2026-04-26T14:47:15.298Z</time></trkpt><trkpt lat="43.1041383" lon="11.701905"><ele>469.4</ele><time>2026-04-26T14:47:16.297Z</time></trkpt><trkpt lat="43.1041583" lon="11.7020067"><ele>469.2</ele><time>2026-04-26T14:47:17.296Z</time></trkpt><trkpt lat="43.10417" lon="11.702145"><ele>469.0</ele><time>2026-04-26T14:47:19.297Z</time></trkpt><trkpt lat="43.1042283" lon="11.7022267"><ele>469.00000000000006</ele><time>2026-04-26T14:47:22.298Z</time></trkpt><trkpt lat="43.1043267" lon="11.7021733"><ele>469.0</ele><time>2026-04-26T14:47:24.298Z</time></trkpt><trkpt lat="43.1044283" lon="11.7020783"><ele>469.0</ele><time>2026-04-26T14:47:26.3Z</time></trkpt><trkpt lat="43.104475" lon="11.7020133"><ele>469.0</ele><time>2026-04-26T14:47:27.298Z</time></trkpt><trkpt lat="43.1045117" lon="11.701935"><ele>469.00000000000006</ele><time>2026-04-26T14:47:28.299Z</time></trkpt><trkpt lat="43.1045433" lon="11.7018433"><ele>469.0</ele><time>2026-04-26T14:47:29.299Z</time></trkpt><trkpt lat="43.1045733" lon="11.701735"><ele>469.0</ele><time>2026-04-26T14:47:30.297Z</time></trkpt><trkpt lat="43.1046" lon="11.701615"><ele>469.0</ele><time>2026-04-26T14:47:31.298Z</time></trkpt><trkpt lat="43.1046233" lon="11.7014783"><ele>469.0</ele><time>2026-04-26T14:47:32.3Z</time></trkpt><trkpt lat="43.1046483" lon="11.7013367"><ele>469.0</ele><time>2026-04-26T14:47:33.299Z</time></trkpt><trkpt lat="43.104675" lon="11.70119"><ele>469.0</ele><time>2026-04-26T14:47:34.297Z</time></trkpt><trkpt lat="43.1047033" lon="11.7010383"><ele>467.25</ele><time>2026-04-26T14:47:35.298Z</time></trkpt><trkpt lat="43.104735" lon="11.7008817"><ele>465.5</ele><time>2026-04-26T14:47:36.298Z</time></trkpt><trkpt lat="43.1047667" lon="11.7007267"><ele>463.75</ele><time>2026-04-26T14:47:37.299Z</time></trkpt><trkpt lat="43.1047983" lon="11.7005667"><ele>462.0</ele><time>2026-04-26T14:47:38.299Z</time></trkpt><trkpt lat="43.1048317" lon="11.7003967"><ele>462.25</ele><time>2026-04-26T14:47:39.298Z</time></trkpt><trkpt lat="43.10487" lon="11.70023"><ele>462.5</ele><time>2026-04-26T14:47:40.298Z</time></trkpt><trkpt lat="43.1049083" lon="11.7000683"><ele>462.75</ele><time>2026-04-26T14:47:41.299Z</time></trkpt><trkpt lat="43.1049483" lon="11.6999017"><ele>463.0</ele><time>2026-04-26T14:47:42.298Z</time></trkpt><trkpt lat="43.1049883" lon="11.6997283"><ele>463.0</ele><time>2026-04-26T14:47:43.297Z</time></trkpt><trkpt lat="43.10503" lon="11.6995583"><ele>463.0</ele><time>2026-04-26T14:47:44.301Z</time></trkpt><trkpt lat="43.10507" lon="11.6993917"><ele>463.0</ele><time>2026-04-26T14:47:45.298Z</time></trkpt><trkpt lat="43.10511" lon="11.6992317"><ele>463.0</ele><time>2026-04-26T14:47:46.299Z</time></trkpt><trkpt lat="43.1051417" lon="11.69908"><ele>462.79999999999995</ele><time>2026-04-26T14:47:47.297Z</time></trkpt><trkpt lat="43.105175" lon="11.6989367"><ele>462.59999999999997</ele><time>2026-04-26T14:47:48.298Z</time></trkpt><trkpt lat="43.1052067" lon="11.698795"><ele>462.40000000000003</ele><time>2026-04-26T14:47:49.299Z</time></trkpt><trkpt lat="43.1052383" lon="11.6986517"><ele>462.20000000000005</ele><time>2026-04-26T14:47:50.298Z</time></trkpt><trkpt lat="43.1052683" lon="11.6985067"><ele>462.0</ele><time>2026-04-26T14:47:51.298Z</time></trkpt><trkpt lat="43.1052983" lon="11.698365"><ele>461.6666666666667</ele><time>2026-04-26T14:47:52.299Z</time></trkpt><trkpt lat="43.1053267" lon="11.698235"><ele>461.33333333333337</ele><time>2026-04-26T14:47:53.299Z</time></trkpt><trkpt lat="43.1053467" lon="11.6981083"><ele>461.0</ele><time>2026-04-26T14:47:54.296Z</time></trkpt><trkpt lat="43.10536" lon="11.6979867"><ele>460.6666666666667</ele><time>2026-04-26T14:47:55.299Z</time></trkpt><trkpt lat="43.1053733" lon="11.6978767"><ele>460.33333333333337</ele><time>2026-04-26T14:47:56.299Z</time></trkpt><trkpt lat="43.105395" lon="11.6977783"><ele>460.0</ele><time>2026-04-26T14:47:57.298Z</time></trkpt><trkpt lat="43.1054317" lon="11.6976917"><ele>460.6</ele><time>2026-04-26T14:47:58.298Z</time></trkpt><trkpt lat="43.1054883" lon="11.6976167"><ele>461.2</ele><time>2026-04-26T14:47:59.299Z</time></trkpt><trkpt lat="43.1055583" lon="11.69754"><ele>461.79999999999995</ele><time>2026-04-26T14:48:00.298Z</time></trkpt><trkpt lat="43.1056383" lon="11.6974517"><ele>462.4</ele><time>2026-04-26T14:48:01.298Z</time></trkpt><trkpt lat="43.1057283" lon="11.69737"><ele>463.0</ele><time>2026-04-26T14:48:02.299Z</time></trkpt><trkpt lat="43.10583" lon="11.6973"><ele>463.0</ele><time>2026-04-26T14:48:03.299Z</time></trkpt><trkpt lat="43.1059333" lon="11.6972417"><ele>463.0</ele><time>2026-04-26T14:48:04.298Z</time></trkpt><trkpt lat="43.1060467" lon="11.6972"><ele>463.0</ele><time>2026-04-26T14:48:05.297Z</time></trkpt><trkpt lat="43.1061633" lon="11.69717"><ele>463.0</ele><time>2026-04-26T14:48:06.299Z</time></trkpt><trkpt lat="43.106275" lon="11.6971433"><ele>463.0</ele><time>2026-04-26T14:48:07.298Z</time></trkpt><trkpt lat="43.1063883" lon="11.6971133"><ele>463.0</ele><time>2026-04-26T14:48:08.299Z</time></trkpt><trkpt lat="43.1064983" lon="11.69708"><ele>463.0</ele><time>2026-04-26T14:48:09.298Z</time></trkpt><trkpt lat="43.10661" lon="11.697045"><ele>463.0</ele><time>2026-04-26T14:48:10.298Z</time></trkpt><trkpt lat="43.1067217" lon="11.69701"><ele>463.0</ele><time>2026-04-26T14:48:11.298Z</time></trkpt><trkpt lat="43.1068317" lon="11.6969667"><ele>463.0</ele><time>2026-04-26T14:48:12.298Z</time></trkpt><trkpt lat="43.10694" lon="11.6969133"><ele>463.0</ele><time>2026-04-26T14:48:13.298Z</time></trkpt><trkpt lat="43.107045" lon="11.6968417"><ele>463.0</ele><time>2026-04-26T14:48:14.298Z</time></trkpt><trkpt lat="43.1071467" lon="11.6967483"><ele>463.0</ele><time>2026-04-26T14:48:15.299Z</time></trkpt><trkpt lat="43.1072417" lon="11.6966417"><ele>463.0</ele><time>2026-04-26T14:48:16.299Z</time></trkpt><trkpt lat="43.1073367" lon="11.6965283"><ele>463.0</ele><time>2026-04-26T14:48:17.298Z</time></trkpt><trkpt lat="43.10743" lon="11.69641"><ele>463.0</ele><time>2026-04-26T14:48:18.298Z</time></trkpt><trkpt lat="43.1075233" lon="11.696295"><ele>463.25</ele><time>2026-04-26T14:48:19.299Z</time></trkpt><trkpt lat="43.1076167" lon="11.696175"><ele>463.5</ele><time>2026-04-26T14:48:20.297Z</time></trkpt><trkpt lat="43.10771" lon="11.69606"><ele>463.75</ele><time>2026-04-26T14:48:21.299Z</time></trkpt><trkpt lat="43.1078033" lon="11.6959467"><ele>464.0</ele><time>2026-04-26T14:48:22.298Z</time></trkpt><trkpt lat="43.1078967" lon="11.69583"><ele>463.0</ele><time>2026-04-26T14:48:23.298Z</time></trkpt><trkpt lat="43.10799" lon="11.6957133"><ele>462.0</ele><time>2026-04-26T14:48:24.298Z</time></trkpt><trkpt lat="43.1080817" lon="11.695595"><ele>461.0</ele><time>2026-04-26T14:48:25.298Z</time></trkpt><trkpt lat="43.108175" lon="11.695475"><ele>460.0</ele><time>2026-04-26T14:48:26.299Z</time></trkpt><trkpt lat="43.10827" lon="11.6953567"><ele>459.0</ele><time>2026-04-26T14:48:27.298Z</time></trkpt><trkpt lat="43.108365" lon="11.6952367"><ele>458.0</ele><time>2026-04-26T14:48:28.299Z</time></trkpt><trkpt lat="43.1084617" lon="11.6951133"><ele>457.0</ele><time>2026-04-26T14:48:29.298Z</time></trkpt><trkpt lat="43.1085633" lon="11.694995"><ele>456.0</ele><time>2026-04-26T14:48:30.299Z</time></trkpt><trkpt lat="43.1086633" lon="11.6948767"><ele>456.0</ele><time>2026-04-26T14:48:31.298Z</time></trkpt><trkpt lat="43.108755" lon="11.6947533"><ele>456.0</ele><time>2026-04-26T14:48:32.299Z</time></trkpt><trkpt lat="43.1088483" lon="11.6946317"><ele>456.0</ele><time>2026-04-26T14:48:33.298Z</time></trkpt><trkpt lat="43.108945" lon="11.6945133"><ele>456.0</ele><time>2026-04-26T14:48:34.298Z</time></trkpt><trkpt lat="43.1090367" lon="11.6943983"><ele>453.25</ele><time>2026-04-26T14:48:35.298Z</time></trkpt><trkpt lat="43.109125" lon="11.694285"><ele>450.5</ele><time>2026-04-26T14:48:36.298Z</time></trkpt><trkpt lat="43.1092083" lon="11.6941783"><ele>447.75</ele><time>2026-04-26T14:48:37.298Z</time></trkpt><trkpt lat="43.10929" lon="11.6940767"><ele>445.0</ele><time>2026-04-26T14:48:38.299Z</time></trkpt><trkpt lat="43.109365" lon="11.6939683"><ele>445.0</ele><time>2026-04-26T14:48:39.299Z</time></trkpt><trkpt lat="43.1094267" lon="11.6938417"><ele>445.0</ele><time>2026-04-26T14:48:40.296Z</time></trkpt><trkpt lat="43.1094833" lon="11.6937083"><ele>445.0</ele><time>2026-04-26T14:48:41.298Z</time></trkpt><trkpt lat="43.1095333" lon="11.6935583"><ele>445.0</ele><time>2026-04-26T14:48:42.299Z</time></trkpt><trkpt lat="43.1095717" lon="11.6934"><ele>443.0</ele><time>2026-04-26T14:48:43.298Z</time></trkpt><trkpt lat="43.1096117" lon="11.693245"><ele>441.0</ele><time>2026-04-26T14:48:44.299Z</time></trkpt><trkpt lat="43.109655" lon="11.6931"><ele>439.0</ele><time>2026-04-26T14:48:45.298Z</time></trkpt><trkpt lat="43.1097017" lon="11.6929617"><ele>437.0</ele><time>2026-04-26T14:48:46.298Z</time></trkpt><trkpt lat="43.1097517" lon="11.6928333"><ele>437.20000000000005</ele><time>2026-04-26T14:48:47.299Z</time></trkpt><trkpt lat="43.1098133" lon="11.692725"><ele>437.40000000000003</ele><time>2026-04-26T14:48:48.298Z</time></trkpt><trkpt lat="43.1098883" lon="11.6926417"><ele>437.59999999999997</ele><time>2026-04-26T14:48:49.299Z</time></trkpt><trkpt lat="43.1099767" lon="11.6925933"><ele>437.79999999999995</ele><time>2026-04-26T14:48:50.299Z</time></trkpt><trkpt lat="43.11007" lon="11.692565"><ele>438.0</ele><time>2026-04-26T14:48:51.298Z</time></trkpt><trkpt lat="43.1101683" lon="11.6925717"><ele>438.0</ele><time>2026-04-26T14:48:52.298Z</time></trkpt><trkpt lat="43.1102633" lon="11.6926067"><ele>437.99999999999994</ele><time>2026-04-26T14:48:53.298Z</time></trkpt><trkpt lat="43.1103517" lon="11.6926667"><ele>437.99999999999994</ele><time>2026-04-26T14:48:54.299Z</time></trkpt><trkpt lat="43.1104317" lon="11.6927617"><ele>438.0</ele><time>2026-04-26T14:48:55.297Z</time></trkpt><trkpt lat="43.1105017" lon="11.6928733"><ele>438.0</ele><time>2026-04-26T14:48:56.297Z</time></trkpt><trkpt lat="43.1105617" lon="11.693005"><ele>439.2</ele><time>2026-04-26T14:48:57.297Z</time></trkpt><trkpt lat="43.1106167" lon="11.69314"><ele>440.4</ele><time>2026-04-26T14:48:58.298Z</time></trkpt><trkpt lat="43.1106633" lon="11.69327"><ele>441.59999999999997</ele><time>2026-04-26T14:48:59.297Z</time></trkpt><trkpt lat="43.1106983" lon="11.693405"><ele>442.79999999999995</ele><time>2026-04-26T14:49:00.297Z</time></trkpt><trkpt lat="43.11072" lon="11.6935417"><ele>444.0</ele><time>2026-04-26T14:49:01.298Z</time></trkpt><trkpt lat="43.110725" lon="11.69368"><ele>444.0</ele><time>2026-04-26T14:49:02.303Z</time></trkpt><trkpt lat="43.1107133" lon="11.69382"><ele>444.0</ele><time>2026-04-26T14:49:03.298Z</time></trkpt><trkpt lat="43.110685" lon="11.69396"><ele>444.0</ele><time>2026-04-26T14:49:04.3Z</time></trkpt><trkpt lat="43.1106467" lon="11.6941"><ele>444.0</ele><time>2026-04-26T14:49:05.297Z</time></trkpt><trkpt lat="43.1105967" lon="11.6942383"><ele>444.0</ele><time>2026-04-26T14:49:06.297Z</time></trkpt><trkpt lat="43.1105467" lon="11.6943783"><ele>442.2</ele><time>2026-04-26T14:49:07.301Z</time></trkpt><trkpt lat="43.1104933" lon="11.6945167"><ele>440.4</ele><time>2026-04-26T14:49:08.3Z</time></trkpt><trkpt lat="43.1104383" lon="11.69465"><ele>438.6</ele><time>2026-04-26T14:49:09.298Z</time></trkpt><trkpt lat="43.1103883" lon="11.6947733"><ele>436.8</ele><time>2026-04-26T14:49:10.298Z</time></trkpt><trkpt lat="43.1103433" lon="11.69489"><ele>435.0</ele><time>2026-04-26T14:49:11.297Z</time></trkpt><trkpt lat="43.11031" lon="11.695"><ele>435.0</ele><time>2026-04-26T14:49:12.298Z</time></trkpt><trkpt lat="43.110295" lon="11.695115"><ele>435.0</ele><time>2026-04-26T14:49:13.296Z</time></trkpt><trkpt lat="43.1102883" lon="11.6952283"><ele>435.0</ele><time>2026-04-26T14:49:14.299Z</time></trkpt><trkpt lat="43.1103" lon="11.6953383"><ele>435.0</ele><time>2026-04-26T14:49:15.298Z</time></trkpt><trkpt lat="43.1103417" lon="11.695455"><ele>435.0</ele><time>2026-04-26T14:49:16.294Z</time></trkpt><trkpt lat="43.1104133" lon="11.6955717"><ele>434.6</ele><time>2026-04-26T14:49:17.298Z</time></trkpt><trkpt lat="43.11048" lon="11.695685"><ele>434.2</ele><time>2026-04-26T14:49:18.298Z</time></trkpt><trkpt lat="43.11054" lon="11.6957917"><ele>433.79999999999995</ele><time>2026-04-26T14:49:19.299Z</time></trkpt><trkpt lat="43.11059" lon="11.6959"><ele>433.4</ele><time>2026-04-26T14:49:20.296Z</time></trkpt><trkpt lat="43.1106083" lon="11.6960183"><ele>433.0</ele><time>2026-04-26T14:49:21.297Z</time></trkpt><trkpt lat="43.1106067" lon="11.6961367"><ele>432.99999999999994</ele><time>2026-04-26T14:49:22.297Z</time></trkpt><trkpt lat="43.1105867" lon="11.696245"><ele>433.0</ele><time>2026-04-26T14:49:23.297Z</time></trkpt><trkpt lat="43.110555" lon="11.6963417"><ele>433.0</ele><time>2026-04-26T14:49:24.3Z</time></trkpt><trkpt lat="43.1105333" lon="11.6964417"><ele>433.0</ele><time>2026-04-26T14:49:25.298Z</time></trkpt><trkpt lat="43.1105217" lon="11.69654"><ele>433.0</ele><time>2026-04-26T14:49:26.299Z</time></trkpt><trkpt lat="43.1105167" lon="11.6966367"><ele>432.99999999999994</ele><time>2026-04-26T14:49:27.298Z</time></trkpt><trkpt lat="43.1105167" lon="11.6967267"><ele>433.0</ele><time>2026-04-26T14:49:28.298Z</time></trkpt><trkpt lat="43.110545" lon="11.6968183"><ele>433.00000000000006</ele><time>2026-04-26T14:49:29.297Z</time></trkpt><trkpt lat="43.1106" lon="11.6969017"><ele>433.0</ele><time>2026-04-26T14:49:30.297Z</time></trkpt><trkpt lat="43.110655" lon="11.69697"><ele>433.0</ele><time>2026-04-26T14:49:31.299Z</time></trkpt><trkpt lat="43.1107333" lon="11.69701"><ele>433.0</ele><time>2026-04-26T14:49:32.3Z</time></trkpt><trkpt lat="43.1108233" lon="11.6970083"><ele>433.00000000000006</ele><time>2026-04-26T14:49:33.298Z</time></trkpt><trkpt lat="43.11091" lon="11.6969683"><ele>433.0</ele><time>2026-04-26T14:49:34.297Z</time></trkpt><trkpt lat="43.1109933" lon="11.6968933"><ele>429.0</ele><time>2026-04-26T14:49:35.298Z</time></trkpt><trkpt lat="43.11107" lon="11.696785"><ele>425.0</ele><time>2026-04-26T14:49:36.298Z</time></trkpt><trkpt lat="43.1111467" lon="11.6966533"><ele>421.0</ele><time>2026-04-26T14:49:37.298Z</time></trkpt><trkpt lat="43.1112183" lon="11.6965217"><ele>417.0</ele><time>2026-04-26T14:49:38.298Z</time></trkpt><trkpt lat="43.1112967" lon="11.696385"><ele>417.0</ele><time>2026-04-26T14:49:39.296Z</time></trkpt><trkpt lat="43.11137" lon="11.6962483"><ele>417.0</ele><time>2026-04-26T14:49:40.3Z</time></trkpt><trkpt lat="43.11144" lon="11.696125"><ele>417.0</ele><time>2026-04-26T14:49:41.295Z</time></trkpt><trkpt lat="43.1115167" lon="11.6960117"><ele>417.0</ele><time>2026-04-26T14:49:42.298Z</time></trkpt><trkpt lat="43.1116017" lon="11.6959067"><ele>414.0</ele><time>2026-04-26T14:49:43.295Z</time></trkpt><trkpt lat="43.1116933" lon="11.69581"><ele>411.0</ele><time>2026-04-26T14:49:44.3Z</time></trkpt><trkpt lat="43.1118017" lon="11.6957267"><ele>408.0</ele><time>2026-04-26T14:49:45.298Z</time></trkpt><trkpt lat="43.1119133" lon="11.6956617"><ele>405.0</ele><time>2026-04-26T14:49:46.297Z</time></trkpt><trkpt lat="43.112015" lon="11.6956067"><ele>405.0</ele><time>2026-04-26T14:49:47.296Z</time></trkpt><trkpt lat="43.1121067" lon="11.695555"><ele>405.0</ele><time>2026-04-26T14:49:48.299Z</time></trkpt><trkpt lat="43.11218" lon="11.6955"><ele>405.0</ele><time>2026-04-26T14:49:49.299Z</time></trkpt><trkpt lat="43.1122417" lon="11.6954333"><ele>405.0</ele><time>2026-04-26T14:49:50.298Z</time></trkpt><trkpt lat="43.112295" lon="11.695355"><ele>405.0</ele><time>2026-04-26T14:49:51.298Z</time></trkpt><trkpt lat="43.11235" lon="11.69526"><ele>405.0</ele><time>2026-04-26T14:49:52.298Z</time></trkpt><trkpt lat="43.11237" lon="11.6951283"><ele>405.0</ele><time>2026-04-26T14:49:53.297Z</time></trkpt><trkpt lat="43.1123833" lon="11.6949767"><ele>405.0</ele><time>2026-04-26T14:49:54.297Z</time></trkpt><trkpt lat="43.112405" lon="11.6948133"><ele>405.0</ele><time>2026-04-26T14:49:55.298Z</time></trkpt><trkpt lat="43.1124433" lon="11.6946683"><ele>405.0</ele><time>2026-04-26T14:49:56.298Z</time></trkpt><trkpt lat="43.1125067" lon="11.69453"><ele>405.0</ele><time>2026-04-26T14:49:57.299Z</time></trkpt><trkpt lat="43.112565" lon="11.694385"><ele>405.0</ele><time>2026-04-26T14:49:58.297Z</time></trkpt><trkpt lat="43.11263" lon="11.6942467"><ele>405.0</ele><time>2026-04-26T14:49:59.297Z</time></trkpt><trkpt lat="43.1127" lon="11.6941183"><ele>405.0</ele><time>2026-04-26T14:50:00.298Z</time></trkpt><trkpt lat="43.1127683" lon="11.6940017"><ele>405.0</ele><time>2026-04-26T14:50:01.298Z</time></trkpt><trkpt lat="43.1128267" lon="11.6938933"><ele>405.0</ele><time>2026-04-26T14:50:02.297Z</time></trkpt><trkpt lat="43.1128767" lon="11.6937983"><ele>405.0</ele><time>2026-04-26T14:50:03.299Z</time></trkpt><trkpt lat="43.1129167" lon="11.6937083"><ele>405.0</ele><time>2026-04-26T14:50:04.298Z</time></trkpt><trkpt lat="43.1129467" lon="11.6936067"><ele>405.0</ele><time>2026-04-26T14:50:05.298Z</time></trkpt><trkpt lat="43.1129717" lon="11.6934917"><ele>405.0</ele><time>2026-04-26T14:50:06.297Z</time></trkpt><trkpt lat="43.112985" lon="11.6933683"><ele>404.4</ele><time>2026-04-26T14:50:07.298Z</time></trkpt><trkpt lat="43.1129967" lon="11.69324"><ele>403.8</ele><time>2026-04-26T14:50:08.301Z</time></trkpt><trkpt lat="43.1130033" lon="11.6931017"><ele>403.20000000000005</ele><time>2026-04-26T14:50:09.299Z</time></trkpt><trkpt lat="43.11301" lon="11.692955"><ele>402.6</ele><time>2026-04-26T14:50:10.298Z</time></trkpt><trkpt lat="43.113025" lon="11.692815"><ele>402.0</ele><time>2026-04-26T14:50:11.296Z</time></trkpt><trkpt lat="43.1130567" lon="11.6926833"><ele>401.20000000000005</ele><time>2026-04-26T14:50:12.297Z</time></trkpt><trkpt lat="43.1131033" lon="11.6925583"><ele>400.4</ele><time>2026-04-26T14:50:13.299Z</time></trkpt><trkpt lat="43.113165" lon="11.69244"><ele>399.6</ele><time>2026-04-26T14:50:14.3Z</time></trkpt><trkpt lat="43.11324" lon="11.6923233"><ele>398.79999999999995</ele><time>2026-04-26T14:50:15.298Z</time></trkpt><trkpt lat="43.11332" lon="11.6922067"><ele>398.0</ele><time>2026-04-26T14:50:16.299Z</time></trkpt><trkpt lat="43.1134" lon="11.69209"><ele>399.79999999999995</ele><time>2026-04-26T14:50:17.297Z</time></trkpt><trkpt lat="43.1134717" lon="11.69197"><ele>401.6</ele><time>2026-04-26T14:50:18.298Z</time></trkpt><trkpt lat="43.113535" lon="11.6918467"><ele>403.4</ele><time>2026-04-26T14:50:19.297Z</time></trkpt><trkpt lat="43.113585" lon="11.6917133"><ele>405.20000000000005</ele><time>2026-04-26T14:50:20.297Z</time></trkpt><trkpt lat="43.1136283" lon="11.6915717"><ele>407.0</ele><time>2026-04-26T14:50:21.297Z</time></trkpt><trkpt lat="43.1136617" lon="11.69142"><ele>407.0</ele><time>2026-04-26T14:50:22.297Z</time></trkpt><trkpt lat="43.11369" lon="11.69126"><ele>407.0</ele><time>2026-04-26T14:50:23.298Z</time></trkpt><trkpt lat="43.1137167" lon="11.6911"><ele>407.0</ele><time>2026-04-26T14:50:24.298Z</time></trkpt><trkpt lat="43.11374" lon="11.690935"><ele>407.0</ele><time>2026-04-26T14:50:25.297Z</time></trkpt><trkpt lat="43.1137633" lon="11.69076"><ele>405.75</ele><time>2026-04-26T14:50:26.3Z</time></trkpt><trkpt lat="43.1137917" lon="11.6905867"><ele>404.5</ele><time>2026-04-26T14:50:27.296Z</time></trkpt><trkpt lat="43.113815" lon="11.69041"><ele>403.25</ele><time>2026-04-26T14:50:28.297Z</time></trkpt><trkpt lat="43.1138383" lon="11.690235"><ele>402.0</ele><time>2026-04-26T14:50:29.297Z</time></trkpt><trkpt lat="43.113865" lon="11.6900717"><ele>401.20000000000005</ele><time>2026-04-26T14:50:30.298Z</time></trkpt><trkpt lat="43.1138883" lon="11.689915"><ele>400.4</ele><time>2026-04-26T14:50:31.298Z</time></trkpt><trkpt lat="43.1139117" lon="11.6897767"><ele>399.6</ele><time>2026-04-26T14:50:32.299Z</time></trkpt><trkpt lat="43.1139333" lon="11.6896517"><ele>398.79999999999995</ele><time>2026-04-26T14:50:33.296Z</time></trkpt><trkpt lat="43.1139567" lon="11.68953"><ele>398.0</ele><time>2026-04-26T14:50:34.296Z</time></trkpt><trkpt lat="43.1139767" lon="11.6894083"><ele>397.59999999999997</ele><time>2026-04-26T14:50:35.295Z</time></trkpt><trkpt lat="43.1139983" lon="11.6892817"><ele>397.2</ele><time>2026-04-26T14:50:36.297Z</time></trkpt><trkpt lat="43.11402" lon="11.68915"><ele>396.8</ele><time>2026-04-26T14:50:37.295Z</time></trkpt><trkpt lat="43.1140433" lon="11.6890167"><ele>396.4</ele><time>2026-04-26T14:50:38.298Z</time></trkpt><trkpt lat="43.11407" lon="11.6888783"><ele>396.0</ele><time>2026-04-26T14:50:39.295Z</time></trkpt><trkpt lat="43.1141033" lon="11.6887467"><ele>397.6</ele><time>2026-04-26T14:50:40.296Z</time></trkpt><trkpt lat="43.1141467" lon="11.6886217"><ele>399.20000000000005</ele><time>2026-04-26T14:50:41.299Z</time></trkpt><trkpt lat="43.1142033" lon="11.6885167"><ele>400.79999999999995</ele><time>2026-04-26T14:50:42.299Z</time></trkpt><trkpt lat="43.1142783" lon="11.688425"><ele>402.4</ele><time>2026-04-26T14:50:43.298Z</time></trkpt><trkpt lat="43.1143717" lon="11.6883583"><ele>404.0</ele><time>2026-04-26T14:50:44.3Z</time></trkpt><trkpt lat="43.1144817" lon="11.6883133"><ele>404.0</ele><time>2026-04-26T14:50:45.298Z</time></trkpt><trkpt lat="43.1145983" lon="11.6882783"><ele>404.0</ele><time>2026-04-26T14:50:46.299Z</time></trkpt><trkpt lat="43.11472" lon="11.6882533"><ele>404.0</ele><time>2026-04-26T14:50:47.298Z</time></trkpt><trkpt lat="43.11484" lon="11.6882367"><ele>404.0</ele><time>2026-04-26T14:50:48.298Z</time></trkpt><trkpt lat="43.114955" lon="11.6882167"><ele>405.6</ele><time>2026-04-26T14:50:49.298Z</time></trkpt><trkpt lat="43.1150617" lon="11.6881933"><ele>407.2</ele><time>2026-04-26T14:50:50.299Z</time></trkpt><trkpt lat="43.1151617" lon="11.68816"><ele>408.8</ele><time>2026-04-26T14:50:51.296Z</time></trkpt><trkpt lat="43.1152533" lon="11.6881067"><ele>410.40000000000003</ele><time>2026-04-26T14:50:52.299Z</time></trkpt><trkpt lat="43.1153417" lon="11.688035"><ele>412.0</ele><time>2026-04-26T14:50:53.297Z</time></trkpt><trkpt lat="43.11542" lon="11.6879383"><ele>412.0</ele><time>2026-04-26T14:50:54.298Z</time></trkpt><trkpt lat="43.1154983" lon="11.6878167"><ele>412.0</ele><time>2026-04-26T14:50:55.298Z</time></trkpt><trkpt lat="43.1155833" lon="11.687705"><ele>412.0</ele><time>2026-04-26T14:50:56.299Z</time></trkpt><trkpt lat="43.1156733" lon="11.6876133"><ele>412.0</ele><time>2026-04-26T14:50:57.298Z</time></trkpt><trkpt lat="43.11576" lon="11.6875383"><ele>412.40000000000003</ele><time>2026-04-26T14:50:58.297Z</time></trkpt><trkpt lat="43.1158583" lon="11.687505"><ele>412.8</ele><time>2026-04-26T14:50:59.299Z</time></trkpt><trkpt lat="43.1159683" lon="11.687495"><ele>413.2</ele><time>2026-04-26T14:51:00.299Z</time></trkpt><trkpt lat="43.116085" lon="11.6875033"><ele>413.6</ele><time>2026-04-26T14:51:01.298Z</time></trkpt><trkpt lat="43.116205" lon="11.68752"><ele>414.0</ele><time>2026-04-26T14:51:02.297Z</time></trkpt><trkpt lat="43.1163283" lon="11.6875367"><ele>414.0</ele><time>2026-04-26T14:51:03.298Z</time></trkpt><trkpt lat="43.1164517" lon="11.6875567"><ele>414.0</ele><time>2026-04-26T14:51:04.298Z</time></trkpt><trkpt lat="43.1165633" lon="11.68757"><ele>414.0</ele><time>2026-04-26T14:51:05.297Z</time></trkpt><trkpt lat="43.116665" lon="11.6875667"><ele>414.0</ele><time>2026-04-26T14:51:06.298Z</time></trkpt><trkpt lat="43.116765" lon="11.6875467"><ele>414.0</ele><time>2026-04-26T14:51:07.298Z</time></trkpt><trkpt lat="43.1168583" lon="11.6874967"><ele>415.2</ele><time>2026-04-26T14:51:08.299Z</time></trkpt><trkpt lat="43.116945" lon="11.68742"><ele>416.4</ele><time>2026-04-26T14:51:09.297Z</time></trkpt><trkpt lat="43.1170233" lon="11.68731"><ele>417.6</ele><time>2026-04-26T14:51:10.3Z</time></trkpt><trkpt lat="43.1170967" lon="11.68718"><ele>418.8</ele><time>2026-04-26T14:51:11.297Z</time></trkpt><trkpt lat="43.1171733" lon="11.687065"><ele>420.0</ele><time>2026-04-26T14:51:12.3Z</time></trkpt><trkpt lat="43.11726" lon="11.686975"><ele>419.75</ele><time>2026-04-26T14:51:13.299Z</time></trkpt><trkpt lat="43.1173617" lon="11.6869083"><ele>419.5</ele><time>2026-04-26T14:51:14.298Z</time></trkpt><trkpt lat="43.117485" lon="11.686855"><ele>419.25</ele><time>2026-04-26T14:51:15.299Z</time></trkpt><trkpt lat="43.1176133" lon="11.6868083"><ele>419.0</ele><time>2026-04-26T14:51:16.299Z</time></trkpt><trkpt lat="43.1177333" lon="11.68677"><ele>419.0</ele><time>2026-04-26T14:51:17.298Z</time></trkpt><trkpt lat="43.11785" lon="11.6867367"><ele>419.0</ele><time>2026-04-26T14:51:18.296Z</time></trkpt><trkpt lat="43.117965" lon="11.6866883"><ele>419.0</ele><time>2026-04-26T14:51:19.296Z</time></trkpt><trkpt lat="43.1180683" lon="11.6866217"><ele>419.0</ele><time>2026-04-26T14:51:20.298Z</time></trkpt><trkpt lat="43.1181617" lon="11.68653"><ele>420.25</ele><time>2026-04-26T14:51:21.297Z</time></trkpt><trkpt lat="43.1182533" lon="11.6864267"><ele>421.5</ele><time>2026-04-26T14:51:22.298Z</time></trkpt><trkpt lat="43.1183517" lon="11.6863217"><ele>422.75</ele><time>2026-04-26T14:51:23.295Z</time></trkpt><trkpt lat="43.11845" lon="11.6862117"><ele>424.0</ele><time>2026-04-26T14:51:24.297Z</time></trkpt><trkpt lat="43.11855" lon="11.6861017"><ele>422.0</ele><time>2026-04-26T14:51:25.298Z</time></trkpt><trkpt lat="43.1186467" lon="11.685995"><ele>420.0</ele><time>2026-04-26T14:51:26.297Z</time></trkpt><trkpt lat="43.1187367" lon="11.6858967"><ele>418.0</ele><time>2026-04-26T14:51:27.295Z</time></trkpt><trkpt lat="43.1188217" lon="11.6858067"><ele>416.0</ele><time>2026-04-26T14:51:28.296Z</time></trkpt><trkpt lat="43.118895" lon="11.685715"><ele>414.0</ele><time>2026-04-26T14:51:29.297Z</time></trkpt><trkpt lat="43.118955" lon="11.68562"><ele>414.0</ele><time>2026-04-26T14:51:30.296Z</time></trkpt><trkpt lat="43.1190033" lon="11.6855133"><ele>414.0</ele><time>2026-04-26T14:51:31.295Z</time></trkpt><trkpt lat="43.11904" lon="11.68539"><ele>414.0</ele><time>2026-04-26T14:51:32.297Z</time></trkpt><trkpt lat="43.1190583" lon="11.6852533"><ele>414.0</ele><time>2026-04-26T14:51:33.297Z</time></trkpt><trkpt lat="43.1190533" lon="11.6851"><ele>414.0</ele><time>2026-04-26T14:51:34.297Z</time></trkpt><trkpt lat="43.1190367" lon="11.684945"><ele>413.4</ele><time>2026-04-26T14:51:35.299Z</time></trkpt><trkpt lat="43.1190183" lon="11.68481"><ele>412.79999999999995</ele><time>2026-04-26T14:51:36.298Z</time></trkpt><trkpt lat="43.1190067" lon="11.68469"><ele>412.20000000000005</ele><time>2026-04-26T14:51:37.296Z</time></trkpt><trkpt lat="43.1190067" lon="11.6845817"><ele>411.6</ele><time>2026-04-26T14:51:38.296Z</time></trkpt><trkpt lat="43.1190283" lon="11.6844967"><ele>411.0</ele><time>2026-04-26T14:51:39.297Z</time></trkpt><trkpt lat="43.119125" lon="11.6844067"><ele>410.6666666666667</ele><time>2026-04-26T14:51:41.298Z</time></trkpt><trkpt lat="43.1191883" lon="11.68439"><ele>410.33333333333337</ele><time>2026-04-26T14:51:42.297Z</time></trkpt><trkpt lat="43.11925" lon="11.6843683"><ele>410.0</ele><time>2026-04-26T14:51:43.297Z</time></trkpt><trkpt lat="43.1193533" lon="11.684275"><ele>409.6666666666667</ele><time>2026-04-26T14:51:45.299Z</time></trkpt><trkpt lat="43.1193967" lon="11.6842067"><ele>409.33333333333337</ele><time>2026-04-26T14:51:46.297Z</time></trkpt><trkpt lat="43.1194267" lon="11.6841083"><ele>409.0</ele><time>2026-04-26T14:51:47.296Z</time></trkpt><trkpt lat="43.11945" lon="11.6839967"><ele>409.0</ele><time>2026-04-26T14:51:48.297Z</time></trkpt><trkpt lat="43.119465" lon="11.683855"><ele>409.0</ele><time>2026-04-26T14:51:49.295Z</time></trkpt><trkpt lat="43.1194667" lon="11.6836917"><ele>409.0</ele><time>2026-04-26T14:51:50.299Z</time></trkpt><trkpt lat="43.1194667" lon="11.6835167"><ele>409.0</ele><time>2026-04-26T14:51:51.294Z</time></trkpt><trkpt lat="43.11946" lon="11.683325"><ele>407.0</ele><time>2026-04-26T14:51:52.295Z</time></trkpt><trkpt lat="43.1194533" lon="11.6831367"><ele>405.0</ele><time>2026-04-26T14:51:53.297Z</time></trkpt><trkpt lat="43.1194517" lon="11.6829567"><ele>403.0</ele><time>2026-04-26T14:51:54.298Z</time></trkpt><trkpt lat="43.1194483" lon="11.6827867"><ele>401.0</ele><time>2026-04-26T14:51:55.298Z</time></trkpt><trkpt lat="43.119445" lon="11.6826183"><ele>399.25</ele><time>2026-04-26T14:51:56.297Z</time></trkpt><trkpt lat="43.11944" lon="11.6824483"><ele>397.5</ele><time>2026-04-26T14:51:57.296Z</time></trkpt><trkpt lat="43.1194317" lon="11.6822767"><ele>395.75</ele><time>2026-04-26T14:51:58.298Z</time></trkpt><trkpt lat="43.1194233" lon="11.682105"><ele>394.0</ele><time>2026-04-26T14:51:59.299Z</time></trkpt><trkpt lat="43.11941" lon="11.6819367"><ele>393.4</ele><time>2026-04-26T14:52:00.297Z</time></trkpt><trkpt lat="43.1194017" lon="11.6817767"><ele>392.79999999999995</ele><time>2026-04-26T14:52:01.298Z</time></trkpt><trkpt lat="43.119395" lon="11.681625"><ele>392.20000000000005</ele><time>2026-04-26T14:52:02.299Z</time></trkpt><trkpt lat="43.11939" lon="11.6814817"><ele>391.6</ele><time>2026-04-26T14:52:03.298Z</time></trkpt><trkpt lat="43.11938" lon="11.681345"><ele>391.0</ele><time>2026-04-26T14:52:04.298Z</time></trkpt><trkpt lat="43.1193633" lon="11.681215"><ele>391.6</ele><time>2026-04-26T14:52:05.295Z</time></trkpt><trkpt lat="43.1193383" lon="11.6810783"><ele>392.20000000000005</ele><time>2026-04-26T14:52:06.299Z</time></trkpt><trkpt lat="43.1193" lon="11.680945"><ele>392.79999999999995</ele><time>2026-04-26T14:52:07.299Z</time></trkpt><trkpt lat="43.1192467" lon="11.6808167"><ele>393.4</ele><time>2026-04-26T14:52:08.3Z</time></trkpt><trkpt lat="43.1191833" lon="11.680705"><ele>394.0</ele><time>2026-04-26T14:52:09.297Z</time></trkpt><trkpt lat="43.1191" lon="11.6806083"><ele>392.0</ele><time>2026-04-26T14:52:10.299Z</time></trkpt><trkpt lat="43.1190017" lon="11.6805283"><ele>390.0</ele><time>2026-04-26T14:52:11.299Z</time></trkpt><trkpt lat="43.1188967" lon="11.6804567"><ele>388.0</ele><time>2026-04-26T14:52:12.297Z</time></trkpt><trkpt lat="43.1187783" lon="11.6803983"><ele>386.0</ele><time>2026-04-26T14:52:13.296Z</time></trkpt><trkpt lat="43.1186533" lon="11.680345"><ele>386.0</ele><time>2026-04-26T14:52:14.295Z</time></trkpt><trkpt lat="43.1185283" lon="11.680295"><ele>386.0</ele><time>2026-04-26T14:52:15.296Z</time></trkpt><trkpt lat="43.1184067" lon="11.6802417"><ele>386.0</ele><time>2026-04-26T14:52:16.295Z</time></trkpt><trkpt lat="43.1182917" lon="11.680185"><ele>386.0</ele><time>2026-04-26T14:52:17.297Z</time></trkpt><trkpt lat="43.1181817" lon="11.6801233"><ele>384.8</ele><time>2026-04-26T14:52:18.295Z</time></trkpt><trkpt lat="43.1180783" lon="11.6800517"><ele>383.6</ele><time>2026-04-26T14:52:19.295Z</time></trkpt><trkpt lat="43.1179883" lon="11.6799733"><ele>382.4</ele><time>2026-04-26T14:52:20.296Z</time></trkpt><trkpt lat="43.1179017" lon="11.679875"><ele>381.2</ele><time>2026-04-26T14:52:21.296Z</time></trkpt><trkpt lat="43.1178117" lon="11.6797833"><ele>380.0</ele><time>2026-04-26T14:52:22.294Z</time></trkpt><trkpt lat="43.11771" lon="11.6796917"><ele>380.0</ele><time>2026-04-26T14:52:23.295Z</time></trkpt><trkpt lat="43.117605" lon="11.6795967"><ele>380.0</ele><time>2026-04-26T14:52:24.298Z</time></trkpt><trkpt lat="43.11749" lon="11.6795"><ele>380.0</ele><time>2026-04-26T14:52:25.293Z</time></trkpt><trkpt lat="43.1173733" lon="11.6794033"><ele>380.0</ele><time>2026-04-26T14:52:26.295Z</time></trkpt><trkpt lat="43.1172583" lon="11.67931"><ele>378.5</ele><time>2026-04-26T14:52:27.294Z</time></trkpt><trkpt lat="43.1171467" lon="11.679215"><ele>377.0</ele><time>2026-04-26T14:52:28.296Z</time></trkpt><trkpt lat="43.1170317" lon="11.679125"><ele>375.5</ele><time>2026-04-26T14:52:29.298Z</time></trkpt><trkpt lat="43.116925" lon="11.6790367"><ele>374.0</ele><time>2026-04-26T14:52:30.298Z</time></trkpt><trkpt lat="43.1168167" lon="11.678955"><ele>374.0</ele><time>2026-04-26T14:52:31.294Z</time></trkpt><trkpt lat="43.1167117" lon="11.6788817"><ele>374.0</ele><time>2026-04-26T14:52:32.296Z</time></trkpt><trkpt lat="43.1166117" lon="11.678805"><ele>374.0</ele><time>2026-04-26T14:52:33.296Z</time></trkpt><trkpt lat="43.1165183" lon="11.6787383"><ele>374.0</ele><time>2026-04-26T14:52:34.298Z</time></trkpt><trkpt lat="43.1164283" lon="11.6786667"><ele>374.0</ele><time>2026-04-26T14:52:35.296Z</time></trkpt><trkpt lat="43.116345" lon="11.6785917"><ele>372.79999999999995</ele><time>2026-04-26T14:52:36.299Z</time></trkpt><trkpt lat="43.1162683" lon="11.6785083"><ele>371.59999999999997</ele><time>2026-04-26T14:52:37.298Z</time></trkpt><trkpt lat="43.1162017" lon="11.6784217"><ele>370.4</ele><time>2026-04-26T14:52:38.299Z</time></trkpt><trkpt lat="43.1161517" lon="11.6783217"><ele>369.2</ele><time>2026-04-26T14:52:39.299Z</time></trkpt><trkpt lat="43.1161133" lon="11.6782133"><ele>368.0</ele><time>2026-04-26T14:52:40.299Z</time></trkpt><trkpt lat="43.116085" lon="11.6781"><ele>368.0</ele><time>2026-04-26T14:52:41.298Z</time></trkpt><trkpt lat="43.1160733" lon="11.67798"><ele>368.0</ele><time>2026-04-26T14:52:42.296Z</time></trkpt><trkpt lat="43.11608" lon="11.67785"><ele>368.0</ele><time>2026-04-26T14:52:43.297Z</time></trkpt><trkpt lat="43.1160917" lon="11.6777067"><ele>368.0</ele><time>2026-04-26T14:52:44.298Z</time></trkpt><trkpt lat="43.116115" lon="11.67755"><ele>368.0</ele><time>2026-04-26T14:52:45.298Z</time></trkpt><trkpt lat="43.1161417" lon="11.6773983"><ele>367.75</ele><time>2026-04-26T14:52:46.296Z</time></trkpt><trkpt lat="43.1161717" lon="11.6772417"><ele>367.5</ele><time>2026-04-26T14:52:47.295Z</time></trkpt><trkpt lat="43.116205" lon="11.6770833"><ele>367.25</ele><time>2026-04-26T14:52:48.296Z</time></trkpt><trkpt lat="43.1162467" lon="11.6769267"><ele>367.0</ele><time>2026-04-26T14:52:49.297Z</time></trkpt><trkpt lat="43.1162867" lon="11.6767667"><ele>366.5</ele><time>2026-04-26T14:52:50.295Z</time></trkpt><trkpt lat="43.11633" lon="11.6766067"><ele>366.0</ele><time>2026-04-26T14:52:51.296Z</time></trkpt><trkpt lat="43.1163733" lon="11.6764417"><ele>365.5</ele><time>2026-04-26T14:52:52.294Z</time></trkpt><trkpt lat="43.1164167" lon="11.6762733"><ele>365.0</ele><time>2026-04-26T14:52:53.295Z</time></trkpt><trkpt lat="43.1164633" lon="11.6760983"><ele>364.75</ele><time>2026-04-26T14:52:54.296Z</time></trkpt><trkpt lat="43.1165117" lon="11.6759167"><ele>364.5</ele><time>2026-04-26T14:52:55.296Z</time></trkpt><trkpt lat="43.1165617" lon="11.67573"><ele>364.25</ele><time>2026-04-26T14:52:56.296Z</time></trkpt><trkpt lat="43.1166133" lon="11.6755383"><ele>364.0</ele><time>2026-04-26T14:52:57.296Z</time></trkpt><trkpt lat="43.1166667" lon="11.6753417"><ele>365.0</ele><time>2026-04-26T14:52:58.297Z</time></trkpt><trkpt lat="43.1167217" lon="11.6751467"><ele>366.0</ele><time>2026-04-26T14:52:59.299Z</time></trkpt><trkpt lat="43.1167733" lon="11.6749517"><ele>367.0</ele><time>2026-04-26T14:53:00.297Z</time></trkpt><trkpt lat="43.1168233" lon="11.6747533"><ele>367.0</ele><time>2026-04-26T14:53:01.297Z</time></trkpt><trkpt lat="43.11687" lon="11.674555"><ele>367.0</ele><time>2026-04-26T14:53:02.297Z</time></trkpt><trkpt lat="43.1169183" lon="11.67436"><ele>367.0</ele><time>2026-04-26T14:53:03.297Z</time></trkpt><trkpt lat="43.116965" lon="11.6741667"><ele>366.66666666666663</ele><time>2026-04-26T14:53:04.299Z</time></trkpt><trkpt lat="43.1170117" lon="11.673975"><ele>366.3333333333333</ele><time>2026-04-26T14:53:05.298Z</time></trkpt><trkpt lat="43.1170633" lon="11.6737783"><ele>366.0</ele><time>2026-04-26T14:53:06.298Z</time></trkpt><trkpt lat="43.1171183" lon="11.6735817"><ele>366.0</ele><time>2026-04-26T14:53:07.296Z</time></trkpt><trkpt lat="43.1171633" lon="11.67339"><ele>366.0</ele><time>2026-04-26T14:53:08.3Z</time></trkpt><trkpt lat="43.1172067" lon="11.6732167"><ele>366.0</ele><time>2026-04-26T14:53:09.297Z</time></trkpt><trkpt lat="43.1172483" lon="11.6730633"><ele>366.0</ele><time>2026-04-26T14:53:10.296Z</time></trkpt><trkpt lat="43.11728" lon="11.6729217"><ele>366.0</ele><time>2026-04-26T14:53:11.298Z</time></trkpt><trkpt lat="43.1173" lon="11.6727933"><ele>366.0</ele><time>2026-04-26T14:53:12.298Z</time></trkpt><trkpt lat="43.1173033" lon="11.6726667"><ele>366.0</ele><time>2026-04-26T14:53:13.298Z</time></trkpt><trkpt lat="43.1172883" lon="11.6725433"><ele>366.0</ele><time>2026-04-26T14:53:14.298Z</time></trkpt><trkpt lat="43.1172617" lon="11.6724267"><ele>366.0</ele><time>2026-04-26T14:53:15.297Z</time></trkpt><trkpt lat="43.1172233" lon="11.672315"><ele>366.20000000000005</ele><time>2026-04-26T14:53:16.298Z</time></trkpt><trkpt lat="43.1171783" lon="11.672205"><ele>366.40000000000003</ele><time>2026-04-26T14:53:17.296Z</time></trkpt><trkpt lat="43.1171317" lon="11.6720983"><ele>366.6</ele><time>2026-04-26T14:53:18.295Z</time></trkpt><trkpt lat="43.11708" lon="11.6719983"><ele>366.8</ele><time>2026-04-26T14:53:19.297Z</time></trkpt><trkpt lat="43.11702" lon="11.6719067"><ele>367.0</ele><time>2026-04-26T14:53:20.296Z</time></trkpt><trkpt lat="43.11695" lon="11.6718283"><ele>367.0</ele><time>2026-04-26T14:53:21.295Z</time></trkpt><trkpt lat="43.116855" lon="11.6717767"><ele>367.0</ele><time>2026-04-26T14:53:22.296Z</time></trkpt><trkpt lat="43.1167467" lon="11.671725"><ele>367.0</ele><time>2026-04-26T14:53:23.296Z</time></trkpt><trkpt lat="43.116625" lon="11.671675"><ele>367.0</ele><time>2026-04-26T14:53:24.296Z</time></trkpt><trkpt lat="43.1164967" lon="11.6716233"><ele>367.0</ele><time>2026-04-26T14:53:25.299Z</time></trkpt><trkpt lat="43.1163683" lon="11.671575"><ele>367.0</ele><time>2026-04-26T14:53:26.298Z</time></trkpt><trkpt lat="43.1162483" lon="11.671525"><ele>367.0</ele><time>2026-04-26T14:53:27.298Z</time></trkpt><trkpt lat="43.116135" lon="11.6714767"><ele>367.0</ele><time>2026-04-26T14:53:28.296Z</time></trkpt><trkpt lat="43.11603" lon="11.6714317"><ele>367.0</ele><time>2026-04-26T14:53:29.297Z</time></trkpt><trkpt lat="43.115935" lon="11.6713767"><ele>367.0</ele><time>2026-04-26T14:53:30.298Z</time></trkpt><trkpt lat="43.11585" lon="11.671305"><ele>367.0</ele><time>2026-04-26T14:53:31.297Z</time></trkpt><trkpt lat="43.1157683" lon="11.67121"><ele>367.0</ele><time>2026-04-26T14:53:32.3Z</time></trkpt><trkpt lat="43.1156867" lon="11.6711"><ele>367.0</ele><time>2026-04-26T14:53:33.297Z</time></trkpt><trkpt lat="43.1156017" lon="11.6709833"><ele>366.75</ele><time>2026-04-26T14:53:34.299Z</time></trkpt><trkpt lat="43.1155117" lon="11.670875"><ele>366.5</ele><time>2026-04-26T14:53:35.297Z</time></trkpt><trkpt lat="43.115415" lon="11.67078"><ele>366.25</ele><time>2026-04-26T14:53:36.296Z</time></trkpt><trkpt lat="43.1153117" lon="11.6707"><ele>366.0</ele><time>2026-04-26T14:53:37.299Z</time></trkpt><trkpt lat="43.1152" lon="11.6706283"><ele>366.0</ele><time>2026-04-26T14:53:38.298Z</time></trkpt><trkpt lat="43.1150783" lon="11.6705717"><ele>366.0</ele><time>2026-04-26T14:53:39.295Z</time></trkpt><trkpt lat="43.1149533" lon="11.6705183"><ele>366.0</ele><time>2026-04-26T14:53:40.299Z</time></trkpt><trkpt lat="43.1148233" lon="11.6704633"><ele>366.0</ele><time>2026-04-26T14:53:41.297Z</time></trkpt><trkpt lat="43.1146933" lon="11.6704083"><ele>366.25</ele><time>2026-04-26T14:53:42.296Z</time></trkpt><trkpt lat="43.11456" lon="11.670355"><ele>366.5</ele><time>2026-04-26T14:53:43.298Z</time></trkpt><trkpt lat="43.1144283" lon="11.6702983"><ele>366.75</ele><time>2026-04-26T14:53:44.3Z</time></trkpt><trkpt lat="43.1142983" lon="11.670235"><ele>367.0</ele><time>2026-04-26T14:53:45.297Z</time></trkpt><trkpt lat="43.1141633" lon="11.670175"><ele>367.25</ele><time>2026-04-26T14:53:46.295Z</time></trkpt><trkpt lat="43.1140367" lon="11.67013"><ele>367.5</ele><time>2026-04-26T14:53:47.296Z</time></trkpt><trkpt lat="43.1139083" lon="11.6700933"><ele>367.75</ele><time>2026-04-26T14:53:48.296Z</time></trkpt><trkpt lat="43.1137817" lon="11.67006"><ele>368.0</ele><time>2026-04-26T14:53:49.296Z</time></trkpt><trkpt lat="43.113655" lon="11.6700233"><ele>368.0</ele><time>2026-04-26T14:53:50.297Z</time></trkpt><trkpt lat="43.1135267" lon="11.66999"><ele>368.0</ele><time>2026-04-26T14:53:51.295Z</time></trkpt><trkpt lat="43.1134033" lon="11.6699567"><ele>368.0</ele><time>2026-04-26T14:53:52.295Z</time></trkpt><trkpt lat="43.1132833" lon="11.6699283"><ele>368.0</ele><time>2026-04-26T14:53:53.296Z</time></trkpt><trkpt lat="43.1131717" lon="11.66991"><ele>366.59999999999997</ele><time>2026-04-26T14:53:54.297Z</time></trkpt><trkpt lat="43.1130633" lon="11.6698983"><ele>365.2</ele><time>2026-04-26T14:53:55.297Z</time></trkpt><trkpt lat="43.11296" lon="11.6698917"><ele>363.8</ele><time>2026-04-26T14:53:56.298Z</time></trkpt><trkpt lat="43.1128633" lon="11.6699"><ele>362.4</ele><time>2026-04-26T14:53:57.299Z</time></trkpt><trkpt lat="43.1127717" lon="11.6699183"><ele>361.0</ele><time>2026-04-26T14:53:58.298Z</time></trkpt><trkpt lat="43.1126883" lon="11.669945"><ele>361.0</ele><time>2026-04-26T14:53:59.297Z</time></trkpt><trkpt lat="43.1126133" lon="11.6699667"><ele>361.0</ele><time>2026-04-26T14:54:00.298Z</time></trkpt><trkpt lat="43.112545" lon="11.66997"><ele>361.0</ele><time>2026-04-26T14:54:01.295Z</time></trkpt><trkpt lat="43.1124283" lon="11.6699167"><ele>361.0</ele><time>2026-04-26T14:54:03.298Z</time></trkpt><trkpt lat="43.1123783" lon="11.6698517"><ele>361.0</ele><time>2026-04-26T14:54:04.295Z</time></trkpt><trkpt lat="43.11233" lon="11.6697583"><ele>361.0</ele><time>2026-04-26T14:54:05.299Z</time></trkpt><trkpt lat="43.1122833" lon="11.6696367"><ele>359.6</ele><time>2026-04-26T14:54:06.297Z</time></trkpt><trkpt lat="43.1122383" lon="11.6695117"><ele>358.20000000000005</ele><time>2026-04-26T14:54:07.298Z</time></trkpt><trkpt lat="43.11221" lon="11.6693867"><ele>356.79999999999995</ele><time>2026-04-26T14:54:08.296Z</time></trkpt><trkpt lat="43.1121917" lon="11.669265"><ele>355.4</ele><time>2026-04-26T14:54:09.298Z</time></trkpt><trkpt lat="43.1121817" lon="11.669155"><ele>354.0</ele><time>2026-04-26T14:54:10.297Z</time></trkpt><trkpt lat="43.11218" lon="11.66904"><ele>354.0</ele><time>2026-04-26T14:54:11.297Z</time></trkpt><trkpt lat="43.1121867" lon="11.6689267"><ele>354.0</ele><time>2026-04-26T14:54:12.296Z</time></trkpt><trkpt lat="43.1121967" lon="11.6688217"><ele>354.0</ele><time>2026-04-26T14:54:13.297Z</time></trkpt><trkpt lat="43.1122" lon="11.6687233"><ele>354.0</ele><time>2026-04-26T14:54:14.297Z</time></trkpt><trkpt lat="43.1122" lon="11.6686233"><ele>354.0</ele><time>2026-04-26T14:54:15.297Z</time></trkpt><trkpt lat="43.1121833" lon="11.6685383"><ele>354.0</ele><time>2026-04-26T14:54:16.299Z</time></trkpt><trkpt lat="43.1121433" lon="11.668455"><ele>354.0</ele><time>2026-04-26T14:54:17.297Z</time></trkpt><trkpt lat="43.1120733" lon="11.668385"><ele>355.25</ele><time>2026-04-26T14:54:18.299Z</time></trkpt><trkpt lat="43.1119883" lon="11.6683083"><ele>356.5</ele><time>2026-04-26T14:54:19.298Z</time></trkpt><trkpt lat="43.1118833" lon="11.6682433"><ele>357.75</ele><time>2026-04-26T14:54:20.3Z</time></trkpt><trkpt lat="43.1117733" lon="11.6681733"><ele>359.0</ele><time>2026-04-26T14:54:21.298Z</time></trkpt><trkpt lat="43.1116683" lon="11.6680883"><ele>357.75</ele><time>2026-04-26T14:54:22.298Z</time></trkpt><trkpt lat="43.1115617" lon="11.6679967"><ele>356.5</ele><time>2026-04-26T14:54:23.298Z</time></trkpt><trkpt lat="43.1114567" lon="11.6678917"><ele>355.25</ele><time>2026-04-26T14:54:24.297Z</time></trkpt><trkpt lat="43.1113533" lon="11.6677767"><ele>354.0</ele><time>2026-04-26T14:54:25.297Z</time></trkpt><trkpt lat="43.1112533" lon="11.66767"><ele>356.2</ele><time>2026-04-26T14:54:26.298Z</time></trkpt><trkpt lat="43.1111533" lon="11.66756"><ele>358.4</ele><time>2026-04-26T14:54:27.298Z</time></trkpt><trkpt lat="43.1110633" lon="11.6674517"><ele>360.6</ele><time>2026-04-26T14:54:28.296Z</time></trkpt><trkpt lat="43.110985" lon="11.6673617"><ele>362.8</ele><time>2026-04-26T14:54:29.299Z</time></trkpt><trkpt lat="43.1109133" lon="11.6672883"><ele>365.0</ele><time>2026-04-26T14:54:30.298Z</time></trkpt><trkpt lat="43.11084" lon="11.6672417"><ele>365.0</ele><time>2026-04-26T14:54:31.297Z</time></trkpt><trkpt lat="43.11077" lon="11.6672167"><ele>365.0</ele><time>2026-04-26T14:54:32.301Z</time></trkpt><trkpt lat="43.1106933" lon="11.6672333"><ele>365.0</ele><time>2026-04-26T14:54:33.296Z</time></trkpt><trkpt lat="43.1106167" lon="11.6672667"><ele>365.0</ele><time>2026-04-26T14:54:34.299Z</time></trkpt><trkpt lat="43.1105533" lon="11.6673483"><ele>365.0</ele><time>2026-04-26T14:54:35.296Z</time></trkpt><trkpt lat="43.1104833" lon="11.6674433"><ele>365.0</ele><time>2026-04-26T14:54:36.296Z</time></trkpt><trkpt lat="43.1104117" lon="11.66754"><ele>365.1666666666667</ele><time>2026-04-26T14:54:37.295Z</time></trkpt><trkpt lat="43.1103367" lon="11.6676267"><ele>365.33333333333337</ele><time>2026-04-26T14:54:38.3Z</time></trkpt><trkpt lat="43.110265" lon="11.6677033"><ele>365.5</ele><time>2026-04-26T14:54:39.299Z</time></trkpt><trkpt lat="43.1101883" lon="11.6677583"><ele>365.6666666666667</ele><time>2026-04-26T14:54:40.298Z</time></trkpt><trkpt lat="43.1101117" lon="11.6677967"><ele>365.8333333333333</ele><time>2026-04-26T14:54:41.295Z</time></trkpt><trkpt lat="43.1100283" lon="11.6678167"><ele>366.0</ele><time>2026-04-26T14:54:42.296Z</time></trkpt><trkpt lat="43.1099383" lon="11.6678233"><ele>364.4</ele><time>2026-04-26T14:54:43.296Z</time></trkpt><trkpt lat="43.1098417" lon="11.6678167"><ele>362.8</ele><time>2026-04-26T14:54:44.298Z</time></trkpt><trkpt lat="43.109745" lon="11.6677933"><ele>361.2</ele><time>2026-04-26T14:54:45.295Z</time></trkpt><trkpt lat="43.1096433" lon="11.66775"><ele>359.59999999999997</ele><time>2026-04-26T14:54:46.297Z</time></trkpt><trkpt lat="43.1095333" lon="11.667685"><ele>358.0</ele><time>2026-04-26T14:54:47.298Z</time></trkpt><trkpt lat="43.1094217" lon="11.6676133"><ele>358.0</ele><time>2026-04-26T14:54:48.298Z</time></trkpt><trkpt lat="43.1093117" lon="11.6675467"><ele>358.0</ele><time>2026-04-26T14:54:49.296Z</time></trkpt><trkpt lat="43.1092" lon="11.66748"><ele>358.0</ele><time>2026-04-26T14:54:50.296Z</time></trkpt><trkpt lat="43.1090933" lon="11.6674133"><ele>358.0</ele><time>2026-04-26T14:54:51.294Z</time></trkpt><trkpt lat="43.1089883" lon="11.6673483"><ele>356.4</ele><time>2026-04-26T14:54:52.297Z</time></trkpt><trkpt lat="43.1088933" lon="11.6672983"><ele>354.79999999999995</ele><time>2026-04-26T14:54:53.299Z</time></trkpt><trkpt lat="43.1088033" lon="11.6672417"><ele>353.2</ele><time>2026-04-26T14:54:54.296Z</time></trkpt><trkpt lat="43.1087183" lon="11.6671933"><ele>351.6</ele><time>2026-04-26T14:54:55.295Z</time></trkpt><trkpt lat="43.108635" lon="11.6671483"><ele>350.0</ele><time>2026-04-26T14:54:56.299Z</time></trkpt><trkpt lat="43.1085567" lon="11.667095"><ele>350.0</ele><time>2026-04-26T14:54:57.296Z</time></trkpt><trkpt lat="43.10848" lon="11.6670267"><ele>350.0</ele><time>2026-04-26T14:54:58.299Z</time></trkpt><trkpt lat="43.1084033" lon="11.6669417"><ele>350.0</ele><time>2026-04-26T14:54:59.297Z</time></trkpt><trkpt lat="43.1083283" lon="11.66685"><ele>350.0</ele><time>2026-04-26T14:55:00.296Z</time></trkpt><trkpt lat="43.10826" lon="11.6667433"><ele>350.0</ele><time>2026-04-26T14:55:01.296Z</time></trkpt><trkpt lat="43.1081833" lon="11.6666367"><ele>350.1666666666667</ele><time>2026-04-26T14:55:02.297Z</time></trkpt><trkpt lat="43.10811" lon="11.6665433"><ele>350.33333333333337</ele><time>2026-04-26T14:55:03.297Z</time></trkpt><trkpt lat="43.10806" lon="11.6664667"><ele>350.5</ele><time>2026-04-26T14:55:04.298Z</time></trkpt><trkpt lat="43.10801" lon="11.6664017"><ele>350.6666666666667</ele><time>2026-04-26T14:55:05.295Z</time></trkpt><trkpt lat="43.10793" lon="11.6662817"><ele>350.8333333333333</ele><time>2026-04-26T14:55:07.296Z</time></trkpt><trkpt lat="43.107885" lon="11.666215"><ele>351.0</ele><time>2026-04-26T14:55:08.299Z</time></trkpt><trkpt lat="43.1078367" lon="11.6661417"><ele>351.5</ele><time>2026-04-26T14:55:09.297Z</time></trkpt><trkpt lat="43.1077833" lon="11.6660633"><ele>352.0</ele><time>2026-04-26T14:55:10.297Z</time></trkpt><trkpt lat="43.1077283" lon="11.6659817"><ele>352.5</ele><time>2026-04-26T14:55:11.298Z</time></trkpt><trkpt lat="43.1076683" lon="11.6658883"><ele>353.0</ele><time>2026-04-26T14:55:12.298Z</time></trkpt><trkpt lat="43.1076033" lon="11.6657917"><ele>353.5</ele><time>2026-04-26T14:55:13.299Z</time></trkpt><trkpt lat="43.1075333" lon="11.6656883"><ele>354.0</ele><time>2026-04-26T14:55:14.299Z</time></trkpt><trkpt lat="43.10746" lon="11.6655733"><ele>353.0</ele><time>2026-04-26T14:55:15.298Z</time></trkpt><trkpt lat="43.10738" lon="11.6654583"><ele>352.0</ele><time>2026-04-26T14:55:16.298Z</time></trkpt><trkpt lat="43.1072983" lon="11.6653433"><ele>351.0</ele><time>2026-04-26T14:55:17.299Z</time></trkpt><trkpt lat="43.1072183" lon="11.6652233"><ele>350.0</ele><time>2026-04-26T14:55:18.298Z</time></trkpt><trkpt lat="43.1071333" lon="11.6651167"><ele>350.0</ele><time>2026-04-26T14:55:19.296Z</time></trkpt><trkpt lat="43.1070533" lon="11.665"><ele>350.0</ele><time>2026-04-26T14:55:20.298Z</time></trkpt><trkpt lat="43.1069733" lon="11.6648833"><ele>350.0</ele><time>2026-04-26T14:55:21.298Z</time></trkpt><trkpt lat="43.1068917" lon="11.6647667"><ele>350.0</ele><time>2026-04-26T14:55:22.298Z</time></trkpt><trkpt lat="43.1068117" lon="11.6646433"><ele>350.0</ele><time>2026-04-26T14:55:23.299Z</time></trkpt><trkpt lat="43.10673" lon="11.6645233"><ele>350.0</ele><time>2026-04-26T14:55:24.296Z</time></trkpt><trkpt lat="43.10665" lon="11.6643983"><ele>350.0</ele><time>2026-04-26T14:55:25.295Z</time></trkpt><trkpt lat="43.10657" lon="11.6642783"><ele>350.0</ele><time>2026-04-26T14:55:26.297Z</time></trkpt><trkpt lat="43.1064917" lon="11.6641583"><ele>349.0</ele><time>2026-04-26T14:55:27.298Z</time></trkpt><trkpt lat="43.10642" lon="11.6640367"><ele>348.0</ele><time>2026-04-26T14:55:28.298Z</time></trkpt><trkpt lat="43.1063467" lon="11.6639233"><ele>347.0</ele><time>2026-04-26T14:55:29.298Z</time></trkpt><trkpt lat="43.1062783" lon="11.663815"><ele>346.0</ele><time>2026-04-26T14:55:30.298Z</time></trkpt><trkpt lat="43.1062117" lon="11.6637167"><ele>345.0</ele><time>2026-04-26T14:55:31.297Z</time></trkpt><trkpt lat="43.1061467" lon="11.6636267"><ele>345.42857142857144</ele><time>2026-04-26T14:55:32.3Z</time></trkpt><trkpt lat="43.1060767" lon="11.6635667"><ele>345.85714285714283</ele><time>2026-04-26T14:55:33.297Z</time></trkpt><trkpt lat="43.10601" lon="11.663515"><ele>346.2857142857143</ele><time>2026-04-26T14:55:34.298Z</time></trkpt><trkpt lat="43.1059517" lon="11.6634667"><ele>346.7142857142857</ele><time>2026-04-26T14:55:35.297Z</time></trkpt><trkpt lat="43.1059" lon="11.663405"><ele>347.14285714285717</ele><time>2026-04-26T14:55:36.295Z</time></trkpt><trkpt lat="43.1058583" lon="11.6633333"><ele>347.57142857142856</ele><time>2026-04-26T14:55:37.297Z</time></trkpt><trkpt lat="43.1058333" lon="11.663245"><ele>348.0</ele><time>2026-04-26T14:55:38.299Z</time></trkpt><trkpt lat="43.10583" lon="11.6631333"><ele>348.0</ele><time>2026-04-26T14:55:39.297Z</time></trkpt><trkpt lat="43.1058467" lon="11.6630083"><ele>348.0</ele><time>2026-04-26T14:55:40.295Z</time></trkpt><trkpt lat="43.1058617" lon="11.6628833"><ele>348.0</ele><time>2026-04-26T14:55:41.298Z</time></trkpt><trkpt lat="43.10587" lon="11.6627583"><ele>348.0</ele><time>2026-04-26T14:55:42.299Z</time></trkpt><trkpt lat="43.1058633" lon="11.6626217"><ele>348.0</ele><time>2026-04-26T14:55:43.297Z</time></trkpt><trkpt lat="43.1058417" lon="11.6624867"><ele>347.5</ele><time>2026-04-26T14:55:44.3Z</time></trkpt><trkpt lat="43.1058117" lon="11.6623367"><ele>347.0</ele><time>2026-04-26T14:55:45.298Z</time></trkpt><trkpt lat="43.1057783" lon="11.6621717"><ele>346.5</ele><time>2026-04-26T14:55:46.297Z</time></trkpt><trkpt lat="43.105735" lon="11.6619967"><ele>346.0</ele><time>2026-04-26T14:55:47.298Z</time></trkpt><trkpt lat="43.1056917" lon="11.6618167"><ele>344.25</ele><time>2026-04-26T14:55:48.297Z</time></trkpt><trkpt lat="43.10565" lon="11.661635"><ele>342.5</ele><time>2026-04-26T14:55:49.298Z</time></trkpt><trkpt lat="43.10561" lon="11.66145"><ele>340.75</ele><time>2026-04-26T14:55:50.3Z</time></trkpt><trkpt lat="43.105575" lon="11.6612717"><ele>339.0</ele><time>2026-04-26T14:55:51.298Z</time></trkpt><trkpt lat="43.1055433" lon="11.6610983"><ele>338.75</ele><time>2026-04-26T14:55:52.299Z</time></trkpt><trkpt lat="43.1055117" lon="11.6609317"><ele>338.5</ele><time>2026-04-26T14:55:53.297Z</time></trkpt><trkpt lat="43.1054833" lon="11.6607733"><ele>338.25</ele><time>2026-04-26T14:55:54.299Z</time></trkpt><trkpt lat="43.10547" lon="11.6606233"><ele>338.0</ele><time>2026-04-26T14:55:55.298Z</time></trkpt><trkpt lat="43.1054667" lon="11.6604867"><ele>338.0</ele><time>2026-04-26T14:55:56.297Z</time></trkpt><trkpt lat="43.1054783" lon="11.6603717"><ele>338.0</ele><time>2026-04-26T14:55:57.298Z</time></trkpt><trkpt lat="43.1054917" lon="11.660265"><ele>338.0</ele><time>2026-04-26T14:55:58.297Z</time></trkpt><trkpt lat="43.1055033" lon="11.660175"><ele>338.0</ele><time>2026-04-26T14:55:59.296Z</time></trkpt><trkpt lat="43.1055183" lon="11.660055"><ele>338.0</ele><time>2026-04-26T14:56:01.298Z</time></trkpt><trkpt lat="43.1055683" lon="11.659975"><ele>338.0</ele><time>2026-04-26T14:56:30.297Z</time></trkpt><trkpt lat="43.1056767" lon="11.6599467"><ele>338.1666666666667</ele><time>2026-04-26T14:56:32.3Z</time></trkpt><trkpt lat="43.10575" lon="11.659925"><ele>338.33333333333337</ele><time>2026-04-26T14:56:33.298Z</time></trkpt><trkpt lat="43.1058233" lon="11.6598933"><ele>338.5</ele><time>2026-04-26T14:56:34.298Z</time></trkpt><trkpt lat="43.1059033" lon="11.65987"><ele>338.6666666666667</ele><time>2026-04-26T14:56:35.297Z</time></trkpt><trkpt lat="43.105985" lon="11.659855"><ele>338.8333333333333</ele><time>2026-04-26T14:56:36.298Z</time></trkpt><trkpt lat="43.106075" lon="11.6598483"><ele>339.0</ele><time>2026-04-26T14:56:37.297Z</time></trkpt><trkpt lat="43.106185" lon="11.659855"><ele>339.0</ele><time>2026-04-26T14:56:38.299Z</time></trkpt><trkpt lat="43.1063083" lon="11.6598733"><ele>339.0</ele><time>2026-04-26T14:56:39.298Z</time></trkpt><trkpt lat="43.1064533" lon="11.6599067"><ele>339.0</ele><time>2026-04-26T14:56:40.294Z</time></trkpt><trkpt lat="43.1066167" lon="11.65994"><ele>339.0</ele><time>2026-04-26T14:56:41.297Z</time></trkpt><trkpt lat="43.1067983" lon="11.6599683"><ele>341.0</ele><time>2026-04-26T14:56:42.298Z</time></trkpt><trkpt lat="43.10699" lon="11.6599933"><ele>343.0</ele><time>2026-04-26T14:56:43.296Z</time></trkpt><trkpt lat="43.10718" lon="11.6600083"><ele>345.0</ele><time>2026-04-26T14:56:44.298Z</time></trkpt><trkpt lat="43.107365" lon="11.6600117"><ele>347.6666666666667</ele><time>2026-04-26T14:56:45.298Z</time></trkpt><trkpt lat="43.10754" lon="11.6599983"><ele>350.33333333333337</ele><time>2026-04-26T14:56:46.299Z</time></trkpt><trkpt lat="43.107705" lon="11.6599767"><ele>353.0</ele><time>2026-04-26T14:56:47.298Z</time></trkpt><trkpt lat="43.1078733" lon="11.6599417"><ele>353.0</ele><time>2026-04-26T14:56:48.296Z</time></trkpt><trkpt lat="43.10804" lon="11.6599217"><ele>353.0</ele><time>2026-04-26T14:56:49.297Z</time></trkpt><trkpt lat="43.1082067" lon="11.6599267"><ele>353.0</ele><time>2026-04-26T14:56:50.296Z</time></trkpt><trkpt lat="43.108375" lon="11.6599617"><ele>355.33333333333337</ele><time>2026-04-26T14:56:51.299Z</time></trkpt><trkpt lat="43.108535" lon="11.66002"><ele>357.6666666666667</ele><time>2026-04-26T14:56:52.299Z</time></trkpt><trkpt lat="43.10868" lon="11.6600717"><ele>360.0</ele><time>2026-04-26T14:56:53.298Z</time></trkpt><trkpt lat="43.1088167" lon="11.6601033"><ele>360.0</ele><time>2026-04-26T14:56:54.296Z</time></trkpt><trkpt lat="43.1089583" lon="11.6601"><ele>360.0</ele><time>2026-04-26T14:56:55.296Z</time></trkpt><trkpt lat="43.1091" lon="11.660075"><ele>360.0</ele><time>2026-04-26T14:56:56.295Z</time></trkpt><trkpt lat="43.1092433" lon="11.660005"><ele>360.0</ele><time>2026-04-26T14:56:57.297Z</time></trkpt><trkpt lat="43.109405" lon="11.659915"><ele>360.6666666666667</ele><time>2026-04-26T14:56:58.299Z</time></trkpt><trkpt lat="43.109565" lon="11.6598167"><ele>361.33333333333337</ele><time>2026-04-26T14:56:59.297Z</time></trkpt><trkpt lat="43.1097167" lon="11.6597267"><ele>362.0</ele><time>2026-04-26T14:57:00.299Z</time></trkpt><trkpt lat="43.1098617" lon="11.6596283"><ele>363.6666666666667</ele><time>2026-04-26T14:57:01.3Z</time></trkpt><trkpt lat="43.11001" lon="11.65954"><ele>365.3333333333333</ele><time>2026-04-26T14:57:02.297Z</time></trkpt><trkpt lat="43.110145" lon="11.6594467"><ele>367.0</ele><time>2026-04-26T14:57:03.297Z</time></trkpt><trkpt lat="43.1102683" lon="11.65936"><ele>368.5</ele><time>2026-04-26T14:57:04.297Z</time></trkpt><trkpt lat="43.11038" lon="11.6592917"><ele>370.0</ele><time>2026-04-26T14:57:05.297Z</time></trkpt><trkpt lat="43.110485" lon="11.6592433"><ele>371.5</ele><time>2026-04-26T14:57:06.303Z</time></trkpt><trkpt lat="43.1105967" lon="11.6592233"><ele>373.0</ele><time>2026-04-26T14:57:07.297Z</time></trkpt><trkpt lat="43.1107117" lon="11.6592317"><ele>373.0</ele><time>2026-04-26T14:57:08.301Z</time></trkpt><trkpt lat="43.11083" lon="11.659265"><ele>373.0</ele><time>2026-04-26T14:57:09.3Z</time></trkpt><trkpt lat="43.11095" lon="11.6593283"><ele>373.0</ele><time>2026-04-26T14:57:10.297Z</time></trkpt><trkpt lat="43.1110717" lon="11.6594117"><ele>373.0</ele><time>2026-04-26T14:57:11.296Z</time></trkpt><trkpt lat="43.111205" lon="11.6595"><ele>373.0</ele><time>2026-04-26T14:57:12.296Z</time></trkpt><trkpt lat="43.1113483" lon="11.65957"><ele>373.0</ele><time>2026-04-26T14:57:13.297Z</time></trkpt><trkpt lat="43.111505" lon="11.6596183"><ele>373.0</ele><time>2026-04-26T14:57:14.297Z</time></trkpt><trkpt lat="43.111665" lon="11.6596533"><ele>373.0</ele><time>2026-04-26T14:57:15.296Z</time></trkpt><trkpt lat="43.111825" lon="11.6596733"><ele>373.0</ele><time>2026-04-26T14:57:16.296Z</time></trkpt><trkpt lat="43.1119867" lon="11.6596933"><ele>373.0</ele><time>2026-04-26T14:57:17.297Z</time></trkpt><trkpt lat="43.112145" lon="11.6597133"><ele>373.0</ele><time>2026-04-26T14:57:18.295Z</time></trkpt><trkpt lat="43.1122967" lon="11.65974"><ele>373.0</ele><time>2026-04-26T14:57:19.297Z</time></trkpt><trkpt lat="43.11245" lon="11.6597717"><ele>373.0</ele><time>2026-04-26T14:57:20.297Z</time></trkpt><trkpt lat="43.1127483" lon="11.6598567"><ele>373.25</ele><time>2026-04-26T14:57:22.295Z</time></trkpt><trkpt lat="43.1128883" lon="11.6599117"><ele>373.5</ele><time>2026-04-26T14:57:23.297Z</time></trkpt><trkpt lat="43.1130217" lon="11.6599633"><ele>373.75</ele><time>2026-04-26T14:57:24.296Z</time></trkpt><trkpt lat="43.1131467" lon="11.6599933"><ele>374.0</ele><time>2026-04-26T14:57:25.296Z</time></trkpt><trkpt lat="43.1132767" lon="11.6600283"><ele>375.75</ele><time>2026-04-26T14:57:26.298Z</time></trkpt><trkpt lat="43.1134083" lon="11.6600517"><ele>377.5</ele><time>2026-04-26T14:57:27.297Z</time></trkpt><trkpt lat="43.1135433" lon="11.660055"><ele>379.25</ele><time>2026-04-26T14:57:28.297Z</time></trkpt><trkpt lat="43.1136833" lon="11.66005"><ele>381.0</ele><time>2026-04-26T14:57:29.297Z</time></trkpt><trkpt lat="43.11383" lon="11.66004"><ele>381.0</ele><time>2026-04-26T14:57:30.294Z</time></trkpt><trkpt lat="43.1139783" lon="11.660025"><ele>381.0</ele><time>2026-04-26T14:57:31.297Z</time></trkpt><trkpt lat="43.1141317" lon="11.66001"><ele>381.0</ele><time>2026-04-26T14:57:32.295Z</time></trkpt><trkpt lat="43.114285" lon="11.65999"><ele>383.33333333333337</ele><time>2026-04-26T14:57:33.298Z</time></trkpt><trkpt lat="43.1144383" lon="11.6599717"><ele>385.6666666666667</ele><time>2026-04-26T14:57:34.294Z</time></trkpt><trkpt lat="43.1145917" lon="11.65996"><ele>388.0</ele><time>2026-04-26T14:57:35.297Z</time></trkpt><trkpt lat="43.1147467" lon="11.65996"><ele>388.0</ele><time>2026-04-26T14:57:36.296Z</time></trkpt><trkpt lat="43.1148933" lon="11.6599583"><ele>388.0</ele><time>2026-04-26T14:57:37.297Z</time></trkpt><trkpt lat="43.1150317" lon="11.65995"><ele>388.0</ele><time>2026-04-26T14:57:38.298Z</time></trkpt><trkpt lat="43.11516" lon="11.6599383"><ele>388.0</ele><time>2026-04-26T14:57:39.298Z</time></trkpt><trkpt lat="43.1152867" lon="11.659915"><ele>389.0</ele><time>2026-04-26T14:57:40.297Z</time></trkpt><trkpt lat="43.115415" lon="11.6598867"><ele>390.0</ele><time>2026-04-26T14:57:41.297Z</time></trkpt><trkpt lat="43.11554" lon="11.6598333"><ele>391.0</ele><time>2026-04-26T14:57:42.296Z</time></trkpt><trkpt lat="43.1156683" lon="11.659765"><ele>392.0</ele><time>2026-04-26T14:57:43.295Z</time></trkpt><trkpt lat="43.1158017" lon="11.6596833"><ele>392.0</ele><time>2026-04-26T14:57:44.296Z</time></trkpt><trkpt lat="43.1159467" lon="11.6596117"><ele>392.0</ele><time>2026-04-26T14:57:45.297Z</time></trkpt><trkpt lat="43.116095" lon="11.659535"><ele>392.0</ele><time>2026-04-26T14:57:46.298Z</time></trkpt><trkpt lat="43.1162567" lon="11.659455"><ele>394.66666666666663</ele><time>2026-04-26T14:57:47.295Z</time></trkpt><trkpt lat="43.1164267" lon="11.6593667"><ele>397.33333333333337</ele><time>2026-04-26T14:57:48.295Z</time></trkpt><trkpt lat="43.1166" lon="11.659275"><ele>400.0</ele><time>2026-04-26T14:57:49.296Z</time></trkpt><trkpt lat="43.1167733" lon="11.6591833"><ele>400.0</ele><time>2026-04-26T14:57:50.296Z</time></trkpt><trkpt lat="43.11695" lon="11.65909"><ele>400.0</ele><time>2026-04-26T14:57:51.299Z</time></trkpt><trkpt lat="43.1171283" lon="11.6589967"><ele>400.0</ele><time>2026-04-26T14:57:52.296Z</time></trkpt><trkpt lat="43.1173083" lon="11.6589017"><ele>400.33333333333337</ele><time>2026-04-26T14:57:53.295Z</time></trkpt><trkpt lat="43.117485" lon="11.6588067"><ele>400.66666666666663</ele><time>2026-04-26T14:57:54.297Z</time></trkpt><trkpt lat="43.1176617" lon="11.6587167"><ele>401.0</ele><time>2026-04-26T14:57:55.297Z</time></trkpt><trkpt lat="43.1178367" lon="11.6586317"><ele>402.0</ele><time>2026-04-26T14:57:56.298Z</time></trkpt><trkpt lat="43.118005" lon="11.6585433"><ele>403.0</ele><time>2026-04-26T14:57:57.297Z</time></trkpt><trkpt lat="43.1181733" lon="11.6584517"><ele>404.0</ele><time>2026-04-26T14:57:58.299Z</time></trkpt><trkpt lat="43.1183417" lon="11.6583567"><ele>406.0</ele><time>2026-04-26T14:57:59.296Z</time></trkpt><trkpt lat="43.1185167" lon="11.6582717"><ele>408.0</ele><time>2026-04-26T14:58:00.297Z</time></trkpt><trkpt lat="43.1186883" lon="11.6581817"><ele>410.0</ele><time>2026-04-26T14:58:01.297Z</time></trkpt><trkpt lat="43.1188617" lon="11.65809"><ele>410.0</ele><time>2026-04-26T14:58:02.3Z</time></trkpt><trkpt lat="43.119035" lon="11.658"><ele>410.0</ele><time>2026-04-26T14:58:03.298Z</time></trkpt><trkpt lat="43.1192017" lon="11.6579183"><ele>410.0</ele><time>2026-04-26T14:58:04.298Z</time></trkpt><trkpt lat="43.119355" lon="11.6578417"><ele>410.66666666666663</ele><time>2026-04-26T14:58:05.297Z</time></trkpt><trkpt lat="43.1195" lon="11.6577717"><ele>411.33333333333337</ele><time>2026-04-26T14:58:06.298Z</time></trkpt><trkpt lat="43.11964" lon="11.6577067"><ele>412.0</ele><time>2026-04-26T14:58:07.298Z</time></trkpt><trkpt lat="43.1197817" lon="11.657635"><ele>411.33333333333337</ele><time>2026-04-26T14:58:08.299Z</time></trkpt><trkpt lat="43.119925" lon="11.657565"><ele>410.66666666666663</ele><time>2026-04-26T14:58:09.3Z</time></trkpt><trkpt lat="43.1200683" lon="11.6574967"><ele>410.0</ele><time>2026-04-26T14:58:10.297Z</time></trkpt><trkpt lat="43.1202083" lon="11.6574267"><ele>410.0</ele><time>2026-04-26T14:58:11.296Z</time></trkpt><trkpt lat="43.12035" lon="11.657355"><ele>410.0</ele><time>2026-04-26T14:58:12.296Z</time></trkpt><trkpt lat="43.1204883" lon="11.65728"><ele>410.0</ele><time>2026-04-26T14:58:13.298Z</time></trkpt><trkpt lat="43.120625" lon="11.65721"><ele>410.0</ele><time>2026-04-26T14:58:14.296Z</time></trkpt><trkpt lat="43.1207583" lon="11.6571433"><ele>410.25</ele><time>2026-04-26T14:58:15.298Z</time></trkpt><trkpt lat="43.1208883" lon="11.657075"><ele>410.5</ele><time>2026-04-26T14:58:16.296Z</time></trkpt><trkpt lat="43.12102" lon="11.6570067"><ele>410.75</ele><time>2026-04-26T14:58:17.295Z</time></trkpt><trkpt lat="43.1211483" lon="11.656945"><ele>411.0</ele><time>2026-04-26T14:58:18.295Z</time></trkpt><trkpt lat="43.12127" lon="11.6568883"><ele>411.0</ele><time>2026-04-26T14:58:19.296Z</time></trkpt><trkpt lat="43.12139" lon="11.6568383"><ele>411.0</ele><time>2026-04-26T14:58:20.297Z</time></trkpt><trkpt lat="43.1215017" lon="11.6567983"><ele>411.0</ele><time>2026-04-26T14:58:21.297Z</time></trkpt><trkpt lat="43.1216117" lon="11.656765"><ele>411.0</ele><time>2026-04-26T14:58:22.296Z</time></trkpt><trkpt lat="43.121725" lon="11.6567417"><ele>411.5</ele><time>2026-04-26T14:58:23.298Z</time></trkpt><trkpt lat="43.1218383" lon="11.6567233"><ele>412.0</ele><time>2026-04-26T14:58:24.295Z</time></trkpt><trkpt lat="43.1219483" lon="11.6567067"><ele>412.5</ele><time>2026-04-26T14:58:25.296Z</time></trkpt><trkpt lat="43.12206" lon="11.6567033"><ele>413.0</ele><time>2026-04-26T14:58:26.3Z</time></trkpt><trkpt lat="43.122175" lon="11.65671"><ele>413.0</ele><time>2026-04-26T14:58:27.298Z</time></trkpt><trkpt lat="43.1222933" lon="11.65673"><ele>413.0</ele><time>2026-04-26T14:58:28.298Z</time></trkpt><trkpt lat="43.1224133" lon="11.6567633"><ele>413.0</ele><time>2026-04-26T14:58:29.299Z</time></trkpt><trkpt lat="43.122535" lon="11.65681"><ele>413.0</ele><time>2026-04-26T14:58:30.298Z</time></trkpt><trkpt lat="43.1226567" lon="11.65686"><ele>412.25</ele><time>2026-04-26T14:58:31.297Z</time></trkpt><trkpt lat="43.1227783" lon="11.656915"><ele>411.5</ele><time>2026-04-26T14:58:32.3Z</time></trkpt><trkpt lat="43.1228967" lon="11.6569667"><ele>410.75</ele><time>2026-04-26T14:58:33.297Z</time></trkpt><trkpt lat="43.1230183" lon="11.6570183"><ele>410.0</ele><time>2026-04-26T14:58:34.295Z</time></trkpt><trkpt lat="43.12314" lon="11.6570667"><ele>408.5</ele><time>2026-04-26T14:58:35.298Z</time></trkpt><trkpt lat="43.123265" lon="11.65711"><ele>407.0</ele><time>2026-04-26T14:58:36.298Z</time></trkpt><trkpt lat="43.1233917" lon="11.657145"><ele>405.5</ele><time>2026-04-26T14:58:37.298Z</time></trkpt><trkpt lat="43.1235183" lon="11.65717"><ele>404.0</ele><time>2026-04-26T14:58:38.297Z</time></trkpt><trkpt lat="43.123645" lon="11.6571867"><ele>404.0</ele><time>2026-04-26T14:58:39.298Z</time></trkpt><trkpt lat="43.123775" lon="11.6571983"><ele>404.0</ele><time>2026-04-26T14:58:40.295Z</time></trkpt><trkpt lat="43.1238967" lon="11.6572117"><ele>404.0</ele><time>2026-04-26T14:58:41.297Z</time></trkpt><trkpt lat="43.1240183" lon="11.6572183"><ele>404.0</ele><time>2026-04-26T14:58:42.298Z</time></trkpt><trkpt lat="43.1241433" lon="11.657215"><ele>403.5</ele><time>2026-04-26T14:58:43.298Z</time></trkpt><trkpt lat="43.12427" lon="11.6572017"><ele>403.0</ele><time>2026-04-26T14:58:44.297Z</time></trkpt><trkpt lat="43.1244" lon="11.65718"><ele>402.5</ele><time>2026-04-26T14:58:45.3Z</time></trkpt><trkpt lat="43.12453" lon="11.6571583"><ele>402.0</ele><time>2026-04-26T14:58:46.297Z</time></trkpt><trkpt lat="43.1246617" lon="11.6571283"><ele>402.0</ele><time>2026-04-26T14:58:47.297Z</time></trkpt><trkpt lat="43.12479" lon="11.65709"><ele>402.0</ele><time>2026-04-26T14:58:48.297Z</time></trkpt><trkpt lat="43.1249133" lon="11.6570383"><ele>402.0</ele><time>2026-04-26T14:58:49.298Z</time></trkpt><trkpt lat="43.1250367" lon="11.6569667"><ele>402.0</ele><time>2026-04-26T14:58:50.296Z</time></trkpt><trkpt lat="43.1251583" lon="11.6568783"><ele>403.75</ele><time>2026-04-26T14:58:51.298Z</time></trkpt><trkpt lat="43.125275" lon="11.656775"><ele>405.5</ele><time>2026-04-26T14:58:52.296Z</time></trkpt><trkpt lat="43.12539" lon="11.656665"><ele>407.25</ele><time>2026-04-26T14:58:53.295Z</time></trkpt><trkpt lat="43.1255033" lon="11.656555"><ele>409.0</ele><time>2026-04-26T14:58:54.296Z</time></trkpt><trkpt lat="43.1256067" lon="11.6564433"><ele>409.0</ele><time>2026-04-26T14:58:55.298Z</time></trkpt><trkpt lat="43.1256983" lon="11.6563317"><ele>409.0</ele><time>2026-04-26T14:58:56.297Z</time></trkpt><trkpt lat="43.1257817" lon="11.656205"><ele>409.0</ele><time>2026-04-26T14:58:57.295Z</time></trkpt><trkpt lat="43.12586" lon="11.6560783"><ele>409.0</ele><time>2026-04-26T14:58:58.297Z</time></trkpt><trkpt lat="43.1259383" lon="11.6559417"><ele>407.5</ele><time>2026-04-26T14:58:59.295Z</time></trkpt><trkpt lat="43.1260183" lon="11.6558033"><ele>406.0</ele><time>2026-04-26T14:59:00.297Z</time></trkpt><trkpt lat="43.1260983" lon="11.6556667"><ele>404.5</ele><time>2026-04-26T14:59:01.297Z</time></trkpt><trkpt lat="43.1261717" lon="11.6555283"><ele>403.0</ele><time>2026-04-26T14:59:02.298Z</time></trkpt><trkpt lat="43.1262433" lon="11.6553983"><ele>401.5</ele><time>2026-04-26T14:59:03.295Z</time></trkpt><trkpt lat="43.1263183" lon="11.6552817"><ele>400.0</ele><time>2026-04-26T14:59:04.298Z</time></trkpt><trkpt lat="43.1263933" lon="11.6551683"><ele>398.5</ele><time>2026-04-26T14:59:05.296Z</time></trkpt><trkpt lat="43.126485" lon="11.6550767"><ele>397.0</ele><time>2026-04-26T14:59:06.298Z</time></trkpt><trkpt lat="43.1265883" lon="11.6550067"><ele>397.0</ele><time>2026-04-26T14:59:07.297Z</time></trkpt><trkpt lat="43.1266933" lon="11.6549383"><ele>397.0</ele><time>2026-04-26T14:59:08.298Z</time></trkpt><trkpt lat="43.1267933" lon="11.6548633"><ele>397.0</ele><time>2026-04-26T14:59:09.299Z</time></trkpt><trkpt lat="43.1269" lon="11.65479"><ele>397.0</ele><time>2026-04-26T14:59:10.299Z</time></trkpt><trkpt lat="43.12701" lon="11.6547183"><ele>397.0</ele><time>2026-04-26T14:59:11.298Z</time></trkpt><trkpt lat="43.1271283" lon="11.6546467"><ele>397.0</ele><time>2026-04-26T14:59:12.297Z</time></trkpt><trkpt lat="43.1272483" lon="11.65457"><ele>397.0</ele><time>2026-04-26T14:59:13.297Z</time></trkpt><trkpt lat="43.12737" lon="11.6544933"><ele>397.0</ele><time>2026-04-26T14:59:14.297Z</time></trkpt><trkpt lat="43.1274917" lon="11.6544117"><ele>395.5</ele><time>2026-04-26T14:59:15.297Z</time></trkpt><trkpt lat="43.1276167" lon="11.65434"><ele>394.0</ele><time>2026-04-26T14:59:16.297Z</time></trkpt><trkpt lat="43.1277367" lon="11.65427"><ele>392.5</ele><time>2026-04-26T14:59:17.295Z</time></trkpt><trkpt lat="43.1278583" lon="11.6542067"><ele>391.0</ele><time>2026-04-26T14:59:18.298Z</time></trkpt><trkpt lat="43.1279817" lon="11.65416"><ele>391.0</ele><time>2026-04-26T14:59:19.296Z</time></trkpt><trkpt lat="43.128105" lon="11.6541117"><ele>391.0</ele><time>2026-04-26T14:59:20.297Z</time></trkpt><trkpt lat="43.1282317" lon="11.654065"><ele>391.0</ele><time>2026-04-26T14:59:21.297Z</time></trkpt><trkpt lat="43.128355" lon="11.6540133"><ele>391.0</ele><time>2026-04-26T14:59:22.296Z</time></trkpt><trkpt lat="43.12848" lon="11.6539667"><ele>388.75</ele><time>2026-04-26T14:59:23.298Z</time></trkpt><trkpt lat="43.1286083" lon="11.6539167"><ele>386.5</ele><time>2026-04-26T14:59:24.297Z</time></trkpt><trkpt lat="43.1287367" lon="11.65387"><ele>384.25</ele><time>2026-04-26T14:59:25.295Z</time></trkpt><trkpt lat="43.1288617" lon="11.6538167"><ele>382.0</ele><time>2026-04-26T14:59:26.296Z</time></trkpt><trkpt lat="43.128985" lon="11.6537567"><ele>381.25</ele><time>2026-04-26T14:59:27.3Z</time></trkpt><trkpt lat="43.1291017" lon="11.6536817"><ele>380.5</ele><time>2026-04-26T14:59:28.295Z</time></trkpt><trkpt lat="43.1292083" lon="11.6535817"><ele>379.75</ele><time>2026-04-26T14:59:29.296Z</time></trkpt><trkpt lat="43.129305" lon="11.65347"><ele>379.0</ele><time>2026-04-26T14:59:30.297Z</time></trkpt><trkpt lat="43.1293983" lon="11.6533583"><ele>379.0</ele><time>2026-04-26T14:59:31.297Z</time></trkpt><trkpt lat="43.1294967" lon="11.6532533"><ele>379.0</ele><time>2026-04-26T14:59:32.297Z</time></trkpt><trkpt lat="43.129595" lon="11.6531567"><ele>379.0</ele><time>2026-04-26T14:59:33.297Z</time></trkpt><trkpt lat="43.1297" lon="11.65308"><ele>379.0</ele><time>2026-04-26T14:59:34.294Z</time></trkpt><trkpt lat="43.1298167" lon="11.6530317"><ele>375.0</ele><time>2026-04-26T14:59:35.296Z</time></trkpt><trkpt lat="43.12994" lon="11.653015"><ele>371.0</ele><time>2026-04-26T14:59:36.298Z</time></trkpt><trkpt lat="43.130065" lon="11.6530283"><ele>367.0</ele><time>2026-04-26T14:59:37.296Z</time></trkpt><trkpt lat="43.1301883" lon="11.6530717"><ele>363.0</ele><time>2026-04-26T14:59:38.295Z</time></trkpt><trkpt lat="43.1303067" lon="11.653145"><ele>363.0</ele><time>2026-04-26T14:59:39.294Z</time></trkpt><trkpt lat="43.1304183" lon="11.6532483"><ele>363.0</ele><time>2026-04-26T14:59:40.295Z</time></trkpt><trkpt lat="43.1305183" lon="11.6533817"><ele>363.0</ele><time>2026-04-26T14:59:41.296Z</time></trkpt><trkpt lat="43.1305983" lon="11.6535433"><ele>363.0</ele><time>2026-04-26T14:59:42.298Z</time></trkpt><trkpt lat="43.1306583" lon="11.653725"><ele>363.0</ele><time>2026-04-26T14:59:43.297Z</time></trkpt><trkpt lat="43.1306967" lon="11.6539217"><ele>363.0</ele><time>2026-04-26T14:59:44.297Z</time></trkpt><trkpt lat="43.1307217" lon="11.6541217"><ele>363.0</ele><time>2026-04-26T14:59:45.297Z</time></trkpt><trkpt lat="43.1307467" lon="11.6543233"><ele>363.0</ele><time>2026-04-26T14:59:46.299Z</time></trkpt><trkpt lat="43.13077" lon="11.6545183"><ele>359.5</ele><time>2026-04-26T14:59:47.299Z</time></trkpt><trkpt lat="43.13079" lon="11.6547117"><ele>356.0</ele><time>2026-04-26T14:59:48.298Z</time></trkpt><trkpt lat="43.1308117" lon="11.6549"><ele>352.5</ele><time>2026-04-26T14:59:49.298Z</time></trkpt><trkpt lat="43.13083" lon="11.655085"><ele>349.0</ele><time>2026-04-26T14:59:50.298Z</time></trkpt><trkpt lat="43.13085" lon="11.6552633"><ele>349.25</ele><time>2026-04-26T14:59:51.298Z</time></trkpt><trkpt lat="43.13088" lon="11.655425"><ele>349.5</ele><time>2026-04-26T14:59:52.296Z</time></trkpt><trkpt lat="43.130935" lon="11.6555667"><ele>349.75</ele><time>2026-04-26T14:59:53.297Z</time></trkpt><trkpt lat="43.1310133" lon="11.655685"><ele>350.0</ele><time>2026-04-26T14:59:54.297Z</time></trkpt><trkpt lat="43.1311033" lon="11.65577"><ele>350.0</ele><time>2026-04-26T14:59:55.297Z</time></trkpt><trkpt lat="43.1312233" lon="11.6558167"><ele>350.0</ele><time>2026-04-26T14:59:56.298Z</time></trkpt><trkpt lat="43.131355" lon="11.6558333"><ele>350.0</ele><time>2026-04-26T14:59:57.297Z</time></trkpt><trkpt lat="43.1315083" lon="11.65583"><ele>350.0</ele><time>2026-04-26T14:59:58.296Z</time></trkpt><trkpt lat="43.131675" lon="11.6558183"><ele>346.33333333333337</ele><time>2026-04-26T14:59:59.295Z</time></trkpt><trkpt lat="43.1318483" lon="11.6557967"><ele>342.6666666666667</ele><time>2026-04-26T15:00:00.295Z</time></trkpt><trkpt lat="43.1320233" lon="11.65577"><ele>339.0</ele><time>2026-04-26T15:00:01.294Z</time></trkpt><trkpt lat="43.132195" lon="11.6557383"><ele>339.0</ele><time>2026-04-26T15:00:02.297Z</time></trkpt><trkpt lat="43.132365" lon="11.6557083"><ele>339.0</ele><time>2026-04-26T15:00:03.296Z</time></trkpt><trkpt lat="43.1325333" lon="11.6556733"><ele>339.0</ele><time>2026-04-26T15:00:04.296Z</time></trkpt><trkpt lat="43.1327017" lon="11.6556333"><ele>335.0</ele><time>2026-04-26T15:00:05.297Z</time></trkpt><trkpt lat="43.132865" lon="11.6555917"><ele>331.0</ele><time>2026-04-26T15:00:06.296Z</time></trkpt><trkpt lat="43.1330217" lon="11.655545"><ele>327.0</ele><time>2026-04-26T15:00:07.296Z</time></trkpt><trkpt lat="43.1331717" lon="11.6555033"><ele>322.3333333333333</ele><time>2026-04-26T15:00:08.295Z</time></trkpt><trkpt lat="43.1333217" lon="11.655485"><ele>317.66666666666663</ele><time>2026-04-26T15:00:09.296Z</time></trkpt><trkpt lat="43.1334717" lon="11.6554967"><ele>313.0</ele><time>2026-04-26T15:00:10.295Z</time></trkpt><trkpt lat="43.1336217" lon="11.6555417"><ele>313.0</ele><time>2026-04-26T15:00:11.296Z</time></trkpt><trkpt lat="43.1337633" lon="11.6555917"><ele>313.0</ele><time>2026-04-26T15:00:12.297Z</time></trkpt><trkpt lat="43.1338933" lon="11.6556367"><ele>313.0</ele><time>2026-04-26T15:00:13.296Z</time></trkpt><trkpt lat="43.1340117" lon="11.655665"><ele>313.0</ele><time>2026-04-26T15:00:14.297Z</time></trkpt><trkpt lat="43.1341183" lon="11.65567"><ele>312.0</ele><time>2026-04-26T15:00:15.299Z</time></trkpt><trkpt lat="43.1342133" lon="11.6556317"><ele>311.0</ele><time>2026-04-26T15:00:16.298Z</time></trkpt><trkpt lat="43.1343" lon="11.6555517"><ele>310.0</ele><time>2026-04-26T15:00:17.297Z</time></trkpt><trkpt lat="43.134375" lon="11.6554233"><ele>309.0</ele><time>2026-04-26T15:00:18.298Z</time></trkpt><trkpt lat="43.1344417" lon="11.6552717"><ele>309.0</ele><time>2026-04-26T15:00:19.298Z</time></trkpt><trkpt lat="43.13451" lon="11.6551267"><ele>309.0</ele><time>2026-04-26T15:00:20.298Z</time></trkpt><trkpt lat="43.13459" lon="11.6550017"><ele>309.0</ele><time>2026-04-26T15:00:21.299Z</time></trkpt><trkpt lat="43.1346917" lon="11.654905"><ele>309.0</ele><time>2026-04-26T15:00:22.297Z</time></trkpt><trkpt lat="43.1348183" lon="11.6548233"><ele>308.3333333333333</ele><time>2026-04-26T15:00:23.298Z</time></trkpt><trkpt lat="43.1349567" lon="11.6547533"><ele>307.66666666666663</ele><time>2026-04-26T15:00:24.294Z</time></trkpt><trkpt lat="43.1351067" lon="11.654685"><ele>307.0</ele><time>2026-04-26T15:00:25.295Z</time></trkpt><trkpt lat="43.1352617" lon="11.65462"><ele>307.0</ele><time>2026-04-26T15:00:26.297Z</time></trkpt><trkpt lat="43.1354133" lon="11.6545517"><ele>307.0</ele><time>2026-04-26T15:00:27.297Z</time></trkpt><trkpt lat="43.1355583" lon="11.6544967"><ele>307.0</ele><time>2026-04-26T15:00:28.293Z</time></trkpt><trkpt lat="43.135685" lon="11.65446"><ele>307.0</ele><time>2026-04-26T15:00:29.293Z</time></trkpt><trkpt lat="43.1358033" lon="11.654445"><ele>309.5</ele><time>2026-04-26T15:00:30.294Z</time></trkpt><trkpt lat="43.1359233" lon="11.65446"><ele>312.0</ele><time>2026-04-26T15:00:31.295Z</time></trkpt><trkpt lat="43.1360383" lon="11.6545"><ele>314.5</ele><time>2026-04-26T15:00:32.294Z</time></trkpt><trkpt lat="43.13614" lon="11.65457"><ele>317.0</ele><time>2026-04-26T15:00:33.294Z</time></trkpt><trkpt lat="43.136225" lon="11.6546833"><ele>317.0</ele><time>2026-04-26T15:00:34.296Z</time></trkpt><trkpt lat="43.1362867" lon="11.6548267"><ele>317.0</ele><time>2026-04-26T15:00:35.296Z</time></trkpt><trkpt lat="43.136335" lon="11.6549867"><ele>317.0</ele><time>2026-04-26T15:00:36.297Z</time></trkpt><trkpt lat="43.136375" lon="11.6551583"><ele>317.0</ele><time>2026-04-26T15:00:37.296Z</time></trkpt><trkpt lat="43.1364167" lon="11.6553133"><ele>317.0</ele><time>2026-04-26T15:00:38.294Z</time></trkpt><trkpt lat="43.1364733" lon="11.65544"><ele>317.0</ele><time>2026-04-26T15:00:39.294Z</time></trkpt><trkpt lat="43.1365433" lon="11.65555"><ele>317.0</ele><time>2026-04-26T15:00:40.295Z</time></trkpt><trkpt lat="43.1366283" lon="11.6556333"><ele>317.0</ele><time>2026-04-26T15:00:41.298Z</time></trkpt><trkpt lat="43.1365567" lon="11.65537"><ele>317.75</ele><time>2026-04-26T15:00:42.559Z</time></trkpt><trkpt lat="43.1366933" lon="11.6553733"><ele>318.5</ele><time>2026-04-26T15:00:43.793Z</time></trkpt><trkpt lat="43.13684" lon="11.655295"><ele>319.25</ele><time>2026-04-26T15:00:45.295Z</time></trkpt><trkpt lat="43.1369367" lon="11.6552317"><ele>320.0</ele><time>2026-04-26T15:00:46.295Z</time></trkpt><trkpt lat="43.1370333" lon="11.6551633"><ele>320.0</ele><time>2026-04-26T15:00:47.294Z</time></trkpt><trkpt lat="43.13713" lon="11.6551"><ele>320.0</ele><time>2026-04-26T15:00:48.294Z</time></trkpt><trkpt lat="43.1372283" lon="11.65504"><ele>320.0</ele><time>2026-04-26T15:00:49.295Z</time></trkpt><trkpt lat="43.1373233" lon="11.65496"><ele>320.0</ele><time>2026-04-26T15:00:50.295Z</time></trkpt><trkpt lat="43.1374283" lon="11.6549"><ele>320.0</ele><time>2026-04-26T15:00:51.295Z</time></trkpt><trkpt lat="43.13753" lon="11.6548567"><ele>322.8</ele><time>2026-04-26T15:00:52.296Z</time></trkpt><trkpt lat="43.1376317" lon="11.654825"><ele>325.6</ele><time>2026-04-26T15:00:53.294Z</time></trkpt><trkpt lat="43.1377317" lon="11.6548483"><ele>328.4</ele><time>2026-04-26T15:00:54.296Z</time></trkpt><trkpt lat="43.1378167" lon="11.654905"><ele>331.2</ele><time>2026-04-26T15:00:55.296Z</time></trkpt><trkpt lat="43.1378467" lon="11.6550133"><ele>334.0</ele><time>2026-04-26T15:00:56.296Z</time></trkpt><trkpt lat="43.1378433" lon="11.6551417"><ele>334.0</ele><time>2026-04-26T15:00:57.297Z</time></trkpt><trkpt lat="43.1378117" lon="11.6552817"><ele>334.0</ele><time>2026-04-26T15:00:58.295Z</time></trkpt><trkpt lat="43.1377667" lon="11.655425"><ele>334.0</ele><time>2026-04-26T15:00:59.294Z</time></trkpt><trkpt lat="43.13772" lon="11.6555717"><ele>334.0</ele><time>2026-04-26T15:01:00.294Z</time></trkpt><trkpt lat="43.1376783" lon="11.655715"><ele>335.4</ele><time>2026-04-26T15:01:01.295Z</time></trkpt><trkpt lat="43.1376383" lon="11.65586"><ele>336.79999999999995</ele><time>2026-04-26T15:01:02.296Z</time></trkpt><trkpt lat="43.1376067" lon="11.6560067"><ele>338.20000000000005</ele><time>2026-04-26T15:01:03.295Z</time></trkpt><trkpt lat="43.13759" lon="11.6561533"><ele>339.6</ele><time>2026-04-26T15:01:04.296Z</time></trkpt><trkpt lat="43.1376" lon="11.656305"><ele>341.0</ele><time>2026-04-26T15:01:05.293Z</time></trkpt><trkpt lat="43.13764" lon="11.656445"><ele>342.25</ele><time>2026-04-26T15:01:06.297Z</time></trkpt><trkpt lat="43.1377017" lon="11.6565733"><ele>343.5</ele><time>2026-04-26T15:01:07.297Z</time></trkpt><trkpt lat="43.1377717" lon="11.6566933"><ele>344.75</ele><time>2026-04-26T15:01:08.298Z</time></trkpt><trkpt lat="43.1378483" lon="11.6568117"><ele>346.0</ele><time>2026-04-26T15:01:09.296Z</time></trkpt><trkpt lat="43.13792" lon="11.6569367"><ele>345.6</ele><time>2026-04-26T15:01:10.296Z</time></trkpt><trkpt lat="43.1379833" lon="11.6570667"><ele>345.20000000000005</ele><time>2026-04-26T15:01:11.296Z</time></trkpt><trkpt lat="43.1380283" lon="11.6572033"><ele>344.79999999999995</ele><time>2026-04-26T15:01:12.297Z</time></trkpt><trkpt lat="43.1380517" lon="11.657345"><ele>344.4</ele><time>2026-04-26T15:01:13.298Z</time></trkpt><trkpt lat="43.13804" lon="11.6574917"><ele>344.0</ele><time>2026-04-26T15:01:14.297Z</time></trkpt><trkpt lat="43.138005" lon="11.6576267"><ele>344.0</ele><time>2026-04-26T15:01:15.296Z</time></trkpt><trkpt lat="43.13796" lon="11.6577533"><ele>344.0</ele><time>2026-04-26T15:01:16.297Z</time></trkpt><trkpt lat="43.137935" lon="11.6578767"><ele>344.0</ele><time>2026-04-26T15:01:17.295Z</time></trkpt><trkpt lat="43.1379333" lon="11.658005"><ele>344.0</ele><time>2026-04-26T15:01:18.296Z</time></trkpt><trkpt lat="43.1379433" lon="11.6581283"><ele>344.0</ele><time>2026-04-26T15:01:19.296Z</time></trkpt><trkpt lat="43.13797" lon="11.6582383"><ele>343.6</ele><time>2026-04-26T15:01:20.298Z</time></trkpt><trkpt lat="43.1380183" lon="11.6583433"><ele>343.2</ele><time>2026-04-26T15:01:21.295Z</time></trkpt><trkpt lat="43.1380783" lon="11.658425"><ele>342.8</ele><time>2026-04-26T15:01:22.295Z</time></trkpt><trkpt lat="43.1381533" lon="11.6584917"><ele>342.40000000000003</ele><time>2026-04-26T15:01:23.297Z</time></trkpt><trkpt lat="43.1382633" lon="11.65855"><ele>342.0</ele><time>2026-04-26T15:01:24.298Z</time></trkpt><trkpt lat="43.1384033" lon="11.6586217"><ele>345.25</ele><time>2026-04-26T15:01:25.295Z</time></trkpt><trkpt lat="43.1385333" lon="11.65869"><ele>348.5</ele><time>2026-04-26T15:01:26.296Z</time></trkpt><trkpt lat="43.1386617" lon="11.6587633"><ele>351.75</ele><time>2026-04-26T15:01:27.293Z</time></trkpt><trkpt lat="43.13879" lon="11.658835"><ele>355.0</ele><time>2026-04-26T15:01:28.297Z</time></trkpt><trkpt lat="43.1389133" lon="11.6589133"><ele>355.0</ele><time>2026-04-26T15:01:29.294Z</time></trkpt><trkpt lat="43.1390283" lon="11.6590067"><ele>355.0</ele><time>2026-04-26T15:01:30.297Z</time></trkpt><trkpt lat="43.13913" lon="11.659115"><ele>355.0</ele><time>2026-04-26T15:01:31.297Z</time></trkpt><trkpt lat="43.13922" lon="11.6592367"><ele>355.0</ele><time>2026-04-26T15:01:32.294Z</time></trkpt><trkpt lat="43.1392967" lon="11.6593667"><ele>358.8</ele><time>2026-04-26T15:01:33.297Z</time></trkpt><trkpt lat="43.1393417" lon="11.659505"><ele>362.6</ele><time>2026-04-26T15:01:34.296Z</time></trkpt><trkpt lat="43.1393717" lon="11.6596517"><ele>366.4</ele><time>2026-04-26T15:01:35.297Z</time></trkpt><trkpt lat="43.1393833" lon="11.65979"><ele>370.2</ele><time>2026-04-26T15:01:36.296Z</time></trkpt><trkpt lat="43.1393867" lon="11.6599133"><ele>374.0</ele><time>2026-04-26T15:01:37.296Z</time></trkpt><trkpt lat="43.1393833" lon="11.6600233"><ele>374.0</ele><time>2026-04-26T15:01:38.296Z</time></trkpt><trkpt lat="43.13938" lon="11.6601233"><ele>374.0</ele><time>2026-04-26T15:01:39.296Z</time></trkpt><trkpt lat="43.13938" lon="11.6602167"><ele>374.0</ele><time>2026-04-26T15:01:40.295Z</time></trkpt><trkpt lat="43.13938" lon="11.6603683"><ele>374.0</ele><time>2026-04-26T15:01:42.297Z</time></trkpt><trkpt lat="43.1393983" lon="11.6604683"><ele>374.0</ele><time>2026-04-26T15:01:44.297Z</time></trkpt><trkpt lat="43.13947" lon="11.660535"><ele>374.0</ele><time>2026-04-26T15:01:46.298Z</time></trkpt><trkpt lat="43.1395333" lon="11.6605517"><ele>374.4</ele><time>2026-04-26T15:01:47.296Z</time></trkpt><trkpt lat="43.13961" lon="11.6605717"><ele>374.79999999999995</ele><time>2026-04-26T15:01:48.298Z</time></trkpt><trkpt lat="43.139695" lon="11.6606033"><ele>375.20000000000005</ele><time>2026-04-26T15:01:49.297Z</time></trkpt><trkpt lat="43.1397867" lon="11.660645"><ele>375.6</ele><time>2026-04-26T15:01:50.298Z</time></trkpt><trkpt lat="43.13988" lon="11.6606917"><ele>376.0</ele><time>2026-04-26T15:01:51.298Z</time></trkpt><trkpt lat="43.1399717" lon="11.6607433"><ele>378.8333333333333</ele><time>2026-04-26T15:01:52.296Z</time></trkpt><trkpt lat="43.1400567" lon="11.6607933"><ele>381.66666666666663</ele><time>2026-04-26T15:01:53.296Z</time></trkpt><trkpt lat="43.1401333" lon="11.6608333"><ele>384.5</ele><time>2026-04-26T15:01:54.294Z</time></trkpt><trkpt lat="43.1401983" lon="11.6608683"><ele>387.3333333333333</ele><time>2026-04-26T15:01:55.298Z</time></trkpt><trkpt lat="43.1402567" lon="11.6609033"><ele>390.1666666666667</ele><time>2026-04-26T15:01:56.299Z</time></trkpt><trkpt lat="43.1403367" lon="11.661005"><ele>393.0</ele><time>2026-04-26T15:01:58.296Z</time></trkpt><trkpt lat="43.140365" lon="11.6611667"><ele>393.7142857142857</ele><time>2026-04-26T15:02:00.297Z</time></trkpt><trkpt lat="43.1403517" lon="11.661255"><ele>394.42857142857144</ele><time>2026-04-26T15:02:01.296Z</time></trkpt><trkpt lat="43.1403333" lon="11.6613467"><ele>395.1428571428571</ele><time>2026-04-26T15:02:02.296Z</time></trkpt><trkpt lat="43.1403183" lon="11.661445"><ele>395.8571428571429</ele><time>2026-04-26T15:02:03.296Z</time></trkpt><trkpt lat="43.14031" lon="11.661545"><ele>396.57142857142856</ele><time>2026-04-26T15:02:04.295Z</time></trkpt><trkpt lat="43.1403167" lon="11.6616483"><ele>397.2857142857143</ele><time>2026-04-26T15:02:05.296Z</time></trkpt><trkpt lat="43.1403433" lon="11.661755"><ele>398.0</ele><time>2026-04-26T15:02:06.297Z</time></trkpt><trkpt lat="43.1403767" lon="11.6618583"><ele>398.66666666666663</ele><time>2026-04-26T15:02:07.296Z</time></trkpt><trkpt lat="43.14042" lon="11.6619533"><ele>399.3333333333333</ele><time>2026-04-26T15:02:08.297Z</time></trkpt><trkpt lat="43.1404683" lon="11.6620467"><ele>400.0</ele><time>2026-04-26T15:02:09.297Z</time></trkpt><trkpt lat="43.1405167" lon="11.6621383"><ele>400.66666666666663</ele><time>2026-04-26T15:02:10.296Z</time></trkpt><trkpt lat="43.140565" lon="11.6622317"><ele>401.3333333333333</ele><time>2026-04-26T15:02:11.296Z</time></trkpt><trkpt lat="43.1406117" lon="11.6623233"><ele>402.0</ele><time>2026-04-26T15:02:12.297Z</time></trkpt><trkpt lat="43.1406517" lon="11.6624217"><ele>402.0</ele><time>2026-04-26T15:02:13.296Z</time></trkpt><trkpt lat="43.1406967" lon="11.662515"><ele>402.0</ele><time>2026-04-26T15:02:14.299Z</time></trkpt><trkpt lat="43.14074" lon="11.6626117"><ele>402.0</ele><time>2026-04-26T15:02:15.296Z</time></trkpt><trkpt lat="43.1407817" lon="11.6627133"><ele>402.0</ele><time>2026-04-26T15:02:16.296Z</time></trkpt><trkpt lat="43.1408233" lon="11.6628083"><ele>402.0</ele><time>2026-04-26T15:02:17.297Z</time></trkpt><trkpt lat="43.14086" lon="11.6628983"><ele>402.0</ele><time>2026-04-26T15:02:18.297Z</time></trkpt><trkpt lat="43.1408933" lon="11.6629817"><ele>406.2857142857143</ele><time>2026-04-26T15:02:19.297Z</time></trkpt><trkpt lat="43.14092" lon="11.66306"><ele>410.5714285714286</ele><time>2026-04-26T15:02:20.296Z</time></trkpt><trkpt lat="43.14095" lon="11.6631383"><ele>414.8571428571429</ele><time>2026-04-26T15:02:21.296Z</time></trkpt><trkpt lat="43.1409733" lon="11.66322"><ele>419.1428571428571</ele><time>2026-04-26T15:02:22.299Z</time></trkpt><trkpt lat="43.1409817" lon="11.66331"><ele>423.42857142857144</ele><time>2026-04-26T15:02:23.294Z</time></trkpt><trkpt lat="43.1409783" lon="11.6634017"><ele>427.7142857142857</ele><time>2026-04-26T15:02:24.298Z</time></trkpt><trkpt lat="43.1409683" lon="11.663555"><ele>432.0</ele><time>2026-04-26T15:02:26.296Z</time></trkpt><trkpt lat="43.14098" lon="11.6636717"><ele>433.8333333333333</ele><time>2026-04-26T15:02:28.293Z</time></trkpt><trkpt lat="43.141025" lon="11.6637733"><ele>435.66666666666663</ele><time>2026-04-26T15:02:30.294Z</time></trkpt><trkpt lat="43.14111" lon="11.6638417"><ele>437.5</ele><time>2026-04-26T15:02:32.298Z</time></trkpt><trkpt lat="43.14118" lon="11.6638817"><ele>439.3333333333333</ele><time>2026-04-26T15:02:34.296Z</time></trkpt><trkpt lat="43.1412533" lon="11.6638983"><ele>441.16666666666663</ele><time>2026-04-26T15:02:37.296Z</time></trkpt><trkpt lat="43.141295" lon="11.6637883"><ele>443.0</ele><time>2026-04-26T15:02:39.297Z</time></trkpt><trkpt lat="43.141315" lon="11.6637033"><ele>441.49999999999994</ele><time>2026-04-26T15:02:40.294Z</time></trkpt><trkpt lat="43.1413383" lon="11.6636133"><ele>440.0</ele><time>2026-04-26T15:02:41.294Z</time></trkpt><trkpt lat="43.141375" lon="11.6635183"><ele>438.5</ele><time>2026-04-26T15:02:42.297Z</time></trkpt><trkpt lat="43.1414133" lon="11.6634267"><ele>437.0</ele><time>2026-04-26T15:02:43.296Z</time></trkpt><trkpt lat="43.1414517" lon="11.6633433"><ele>435.49999999999994</ele><time>2026-04-26T15:02:44.295Z</time></trkpt><trkpt lat="43.1415017" lon="11.6632583"><ele>434.0</ele><time>2026-04-26T15:02:45.298Z</time></trkpt><trkpt lat="43.1415517" lon="11.6631667"><ele>433.99999999999994</ele><time>2026-04-26T15:02:46.295Z</time></trkpt><trkpt lat="43.1415967" lon="11.6630833"><ele>434.0</ele><time>2026-04-26T15:02:47.295Z</time></trkpt><trkpt lat="43.14164" lon="11.662995"><ele>434.0</ele><time>2026-04-26T15:02:48.296Z</time></trkpt><trkpt lat="43.14169" lon="11.662905"><ele>434.0</ele><time>2026-04-26T15:02:49.297Z</time></trkpt><trkpt lat="43.1417383" lon="11.6628133"><ele>433.99999999999994</ele><time>2026-04-26T15:02:50.298Z</time></trkpt><trkpt lat="43.1417867" lon="11.6627183"><ele>434.0</ele><time>2026-04-26T15:02:51.298Z</time></trkpt><trkpt lat="43.14184" lon="11.6626217"><ele>434.66666666666663</ele><time>2026-04-26T15:02:52.299Z</time></trkpt><trkpt lat="43.1418883" lon="11.6625233"><ele>435.3333333333333</ele><time>2026-04-26T15:02:53.297Z</time></trkpt><trkpt lat="43.1419383" lon="11.6624283"><ele>436.0</ele><time>2026-04-26T15:02:54.296Z</time></trkpt><trkpt lat="43.1419867" lon="11.662325"><ele>436.66666666666663</ele><time>2026-04-26T15:02:55.296Z</time></trkpt><trkpt lat="43.14203" lon="11.6622133"><ele>437.3333333333333</ele><time>2026-04-26T15:02:56.295Z</time></trkpt><trkpt lat="43.1420667" lon="11.6620983"><ele>438.0</ele><time>2026-04-26T15:02:57.295Z</time></trkpt><trkpt lat="43.1421" lon="11.66198"><ele>437.79999999999995</ele><time>2026-04-26T15:02:58.292Z</time></trkpt><trkpt lat="43.1421283" lon="11.6618583"><ele>437.59999999999997</ele><time>2026-04-26T15:02:59.297Z</time></trkpt><trkpt lat="43.1421567" lon="11.6617367"><ele>437.40000000000003</ele><time>2026-04-26T15:03:00.296Z</time></trkpt><trkpt lat="43.1421717" lon="11.6616133"><ele>437.20000000000005</ele><time>2026-04-26T15:03:01.296Z</time></trkpt><trkpt lat="43.1421883" lon="11.6614883"><ele>437.0</ele><time>2026-04-26T15:03:02.294Z</time></trkpt><trkpt lat="43.1422017" lon="11.6613567"><ele>437.0</ele><time>2026-04-26T15:03:03.296Z</time></trkpt><trkpt lat="43.1422133" lon="11.6612233"><ele>437.00000000000006</ele><time>2026-04-26T15:03:04.295Z</time></trkpt><trkpt lat="43.1422183" lon="11.6610833"><ele>437.00000000000006</ele><time>2026-04-26T15:03:05.295Z</time></trkpt><trkpt lat="43.1422267" lon="11.6609433"><ele>437.0</ele><time>2026-04-26T15:03:06.296Z</time></trkpt><trkpt lat="43.1422333" lon="11.6608033"><ele>437.0</ele><time>2026-04-26T15:03:07.296Z</time></trkpt><trkpt lat="43.1422467" lon="11.6606633"><ele>437.0</ele><time>2026-04-26T15:03:08.296Z</time></trkpt><trkpt lat="43.1422633" lon="11.660525"><ele>437.00000000000006</ele><time>2026-04-26T15:03:09.293Z</time></trkpt><trkpt lat="43.1423" lon="11.6603867"><ele>437.00000000000006</ele><time>2026-04-26T15:03:10.295Z</time></trkpt><trkpt lat="43.1423483" lon="11.660255"><ele>437.0</ele><time>2026-04-26T15:03:11.296Z</time></trkpt><trkpt lat="43.1424017" lon="11.6601317"><ele>437.0</ele><time>2026-04-26T15:03:12.295Z</time></trkpt><trkpt lat="43.1424617" lon="11.66002"><ele>435.0</ele><time>2026-04-26T15:03:13.292Z</time></trkpt><trkpt lat="43.1425233" lon="11.6598933"><ele>433.0</ele><time>2026-04-26T15:03:14.296Z</time></trkpt><trkpt lat="43.1425833" lon="11.65975"><ele>431.0</ele><time>2026-04-26T15:03:15.297Z</time></trkpt><trkpt lat="43.1426333" lon="11.6595817"><ele>429.0</ele><time>2026-04-26T15:03:16.298Z</time></trkpt><trkpt lat="43.14267" lon="11.6594033"><ele>429.0</ele><time>2026-04-26T15:03:17.298Z</time></trkpt><trkpt lat="43.1427" lon="11.6592267"><ele>429.0</ele><time>2026-04-26T15:03:18.296Z</time></trkpt><trkpt lat="43.142715" lon="11.6590483"><ele>429.0</ele><time>2026-04-26T15:03:19.297Z</time></trkpt><trkpt lat="43.1427267" lon="11.6588667"><ele>429.0</ele><time>2026-04-26T15:03:20.297Z</time></trkpt><trkpt lat="43.1427367" lon="11.6586817"><ele>427.5</ele><time>2026-04-26T15:03:21.293Z</time></trkpt><trkpt lat="43.142745" lon="11.6585"><ele>426.0</ele><time>2026-04-26T15:03:22.296Z</time></trkpt><trkpt lat="43.1427567" lon="11.6583183"><ele>424.5</ele><time>2026-04-26T15:03:23.295Z</time></trkpt><trkpt lat="43.14278" lon="11.6581483"><ele>423.0</ele><time>2026-04-26T15:03:24.297Z</time></trkpt><trkpt lat="43.142815" lon="11.657985"><ele>423.0</ele><time>2026-04-26T15:03:25.297Z</time></trkpt><trkpt lat="43.1428517" lon="11.6578267"><ele>423.0</ele><time>2026-04-26T15:03:26.297Z</time></trkpt><trkpt lat="43.1428933" lon="11.65767"><ele>423.0</ele><time>2026-04-26T15:03:27.295Z</time></trkpt><trkpt lat="43.1429417" lon="11.657515"><ele>423.0</ele><time>2026-04-26T15:03:28.295Z</time></trkpt><trkpt lat="43.14299" lon="11.657375"><ele>421.59999999999997</ele><time>2026-04-26T15:03:29.296Z</time></trkpt><trkpt lat="43.1430467" lon="11.6572567"><ele>420.2</ele><time>2026-04-26T15:03:30.297Z</time></trkpt><trkpt lat="43.1431117" lon="11.6571683"><ele>418.8</ele><time>2026-04-26T15:03:31.297Z</time></trkpt><trkpt lat="43.14319" lon="11.657105"><ele>417.4</ele><time>2026-04-26T15:03:32.297Z</time></trkpt><trkpt lat="43.14328" lon="11.65707"><ele>416.0</ele><time>2026-04-26T15:03:33.297Z</time></trkpt><trkpt lat="43.14338" lon="11.6570633"><ele>414.6</ele><time>2026-04-26T15:03:34.295Z</time></trkpt><trkpt lat="43.1434833" lon="11.657065"><ele>413.20000000000005</ele><time>2026-04-26T15:03:35.298Z</time></trkpt><trkpt lat="43.1435867" lon="11.6570617"><ele>411.79999999999995</ele><time>2026-04-26T15:03:36.297Z</time></trkpt><trkpt lat="43.1436917" lon="11.6570517"><ele>410.4</ele><time>2026-04-26T15:03:37.293Z</time></trkpt><trkpt lat="43.1438" lon="11.65703"><ele>409.0</ele><time>2026-04-26T15:03:38.296Z</time></trkpt><trkpt lat="43.1439117" lon="11.656985"><ele>410.0</ele><time>2026-04-26T15:03:39.296Z</time></trkpt><trkpt lat="43.1440183" lon="11.6569183"><ele>411.0</ele><time>2026-04-26T15:03:40.297Z</time></trkpt><trkpt lat="43.1441267" lon="11.65684"><ele>412.0</ele><time>2026-04-26T15:03:41.295Z</time></trkpt><trkpt lat="43.1442333" lon="11.6567567"><ele>413.0</ele><time>2026-04-26T15:03:42.296Z</time></trkpt><trkpt lat="43.1443467" lon="11.6566883"><ele>413.0</ele><time>2026-04-26T15:03:43.296Z</time></trkpt><trkpt lat="43.144465" lon="11.65664"><ele>413.0</ele><time>2026-04-26T15:03:44.296Z</time></trkpt><trkpt lat="43.1445833" lon="11.6566033"><ele>413.0</ele><time>2026-04-26T15:03:45.299Z</time></trkpt><trkpt lat="43.1446933" lon="11.6565667"><ele>413.0</ele><time>2026-04-26T15:03:46.299Z</time></trkpt><trkpt lat="43.1448" lon="11.6565233"><ele>412.75</ele><time>2026-04-26T15:03:47.298Z</time></trkpt><trkpt lat="43.144895" lon="11.6564533"><ele>412.5</ele><time>2026-04-26T15:03:48.296Z</time></trkpt><trkpt lat="43.144975" lon="11.6563467"><ele>412.25</ele><time>2026-04-26T15:03:49.297Z</time></trkpt><trkpt lat="43.1450467" lon="11.6562183"><ele>412.0</ele><time>2026-04-26T15:03:50.296Z</time></trkpt><trkpt lat="43.1451167" lon="11.6560833"><ele>412.0</ele><time>2026-04-26T15:03:51.295Z</time></trkpt><trkpt lat="43.145195" lon="11.6559683"><ele>412.0</ele><time>2026-04-26T15:03:52.295Z</time></trkpt><trkpt lat="43.14528" lon="11.6558867"><ele>412.0</ele><time>2026-04-26T15:03:53.295Z</time></trkpt><trkpt lat="43.1453783" lon="11.6558567"><ele>412.0</ele><time>2026-04-26T15:03:54.297Z</time></trkpt><trkpt lat="43.1454833" lon="11.6558567"><ele>412.0</ele><time>2026-04-26T15:03:55.297Z</time></trkpt><trkpt lat="43.1455917" lon="11.6558833"><ele>412.0</ele><time>2026-04-26T15:03:56.296Z</time></trkpt><trkpt lat="43.1457017" lon="11.6559133"><ele>412.0</ele><time>2026-04-26T15:03:57.297Z</time></trkpt><trkpt lat="43.14582" lon="11.6559533"><ele>412.0</ele><time>2026-04-26T15:03:58.296Z</time></trkpt><trkpt lat="43.1459383" lon="11.6559967"><ele>412.0</ele><time>2026-04-26T15:03:59.296Z</time></trkpt><trkpt lat="43.1460533" lon="11.6560433"><ele>410.20000000000005</ele><time>2026-04-26T15:04:00.297Z</time></trkpt><trkpt lat="43.14616" lon="11.6560933"><ele>408.4</ele><time>2026-04-26T15:04:01.296Z</time></trkpt><trkpt lat="43.1462683" lon="11.6561467"><ele>406.6</ele><time>2026-04-26T15:04:02.295Z</time></trkpt><trkpt lat="43.1463717" lon="11.6561967"><ele>404.79999999999995</ele><time>2026-04-26T15:04:03.297Z</time></trkpt><trkpt lat="43.1464733" lon="11.65625"><ele>403.0</ele><time>2026-04-26T15:04:04.295Z</time></trkpt><trkpt lat="43.1465717" lon="11.6562867"><ele>401.83333333333337</ele><time>2026-04-26T15:04:05.296Z</time></trkpt><trkpt lat="43.1466733" lon="11.65631"><ele>400.6666666666667</ele><time>2026-04-26T15:04:06.295Z</time></trkpt><trkpt lat="43.1467617" lon="11.6563017"><ele>399.5</ele><time>2026-04-26T15:04:07.297Z</time></trkpt><trkpt lat="43.1468433" lon="11.6562567"><ele>398.33333333333337</ele><time>2026-04-26T15:04:08.298Z</time></trkpt><trkpt lat="43.1469167" lon="11.6561917"><ele>397.1666666666667</ele><time>2026-04-26T15:04:09.297Z</time></trkpt><trkpt lat="43.146965" lon="11.656115"><ele>396.0</ele><time>2026-04-26T15:04:10.296Z</time></trkpt><trkpt lat="43.146985" lon="11.6560167"><ele>396.0</ele><time>2026-04-26T15:04:11.294Z</time></trkpt><trkpt lat="43.1470083" lon="11.6559183"><ele>396.0</ele><time>2026-04-26T15:04:12.296Z</time></trkpt><trkpt lat="43.1469967" lon="11.65582"><ele>396.0</ele><time>2026-04-26T15:04:13.295Z</time></trkpt><trkpt lat="43.14695" lon="11.6556967"><ele>396.0</ele><time>2026-04-26T15:04:14.296Z</time></trkpt><trkpt lat="43.1468917" lon="11.6555617"><ele>396.0</ele><time>2026-04-26T15:04:15.298Z</time></trkpt><trkpt lat="43.1468183" lon="11.65543"><ele>396.0</ele><time>2026-04-26T15:04:16.297Z</time></trkpt><trkpt lat="43.1467517" lon="11.6553"><ele>396.0</ele><time>2026-04-26T15:04:17.298Z</time></trkpt><trkpt lat="43.1467" lon="11.6551667"><ele>396.0</ele><time>2026-04-26T15:04:18.297Z</time></trkpt><trkpt lat="43.1466833" lon="11.6550317"><ele>396.0</ele><time>2026-04-26T15:04:19.296Z</time></trkpt><trkpt lat="43.146695" lon="11.654905"><ele>396.0</ele><time>2026-04-26T15:04:20.296Z</time></trkpt><trkpt lat="43.1467317" lon="11.6548"><ele>395.20000000000005</ele><time>2026-04-26T15:04:21.295Z</time></trkpt><trkpt lat="43.1467867" lon="11.65471"><ele>394.40000000000003</ele><time>2026-04-26T15:04:22.295Z</time></trkpt><trkpt lat="43.14687" lon="11.6546633"><ele>393.6</ele><time>2026-04-26T15:04:23.296Z</time></trkpt><trkpt lat="43.1469617" lon="11.6546283"><ele>392.8</ele><time>2026-04-26T15:04:24.298Z</time></trkpt><trkpt lat="43.1470533" lon="11.6545983"><ele>392.0</ele><time>2026-04-26T15:04:25.296Z</time></trkpt><trkpt lat="43.1471417" lon="11.65456"><ele>391.99999999999994</ele><time>2026-04-26T15:04:26.296Z</time></trkpt><trkpt lat="43.1472233" lon="11.65451"><ele>392.0</ele><time>2026-04-26T15:04:27.296Z</time></trkpt><trkpt lat="43.1472883" lon="11.6544267"><ele>392.0</ele><time>2026-04-26T15:04:28.297Z</time></trkpt><trkpt lat="43.14733" lon="11.6543317"><ele>392.0</ele><time>2026-04-26T15:04:29.297Z</time></trkpt><trkpt lat="43.1473583" lon="11.6542267"><ele>391.99999999999994</ele><time>2026-04-26T15:04:30.297Z</time></trkpt><trkpt lat="43.147355" lon="11.6541267"><ele>392.0</ele><time>2026-04-26T15:04:31.295Z</time></trkpt><trkpt lat="43.14735" lon="11.65404"><ele>392.6</ele><time>2026-04-26T15:04:32.296Z</time></trkpt><trkpt lat="43.1472917" lon="11.653935"><ele>393.20000000000005</ele><time>2026-04-26T15:04:33.298Z</time></trkpt><trkpt lat="43.147205" lon="11.6538417"><ele>393.8</ele><time>2026-04-26T15:04:34.297Z</time></trkpt><trkpt lat="43.147095" lon="11.65374"><ele>394.4</ele><time>2026-04-26T15:04:35.297Z</time></trkpt><trkpt lat="43.1470183" lon="11.6536367"><ele>395.0</ele><time>2026-04-26T15:04:36.295Z</time></trkpt><trkpt lat="43.1469533" lon="11.6535367"><ele>393.99999999999994</ele><time>2026-04-26T15:04:37.296Z</time></trkpt><trkpt lat="43.1469217" lon="11.6534333"><ele>393.0</ele><time>2026-04-26T15:04:38.298Z</time></trkpt><trkpt lat="43.14691" lon="11.6533233"><ele>392.0</ele><time>2026-04-26T15:04:39.296Z</time></trkpt><trkpt lat="43.146925" lon="11.653225"><ele>391.0</ele><time>2026-04-26T15:04:40.294Z</time></trkpt><trkpt lat="43.1469783" lon="11.6531467"><ele>389.99999999999994</ele><time>2026-04-26T15:04:41.296Z</time></trkpt><trkpt lat="43.1470733" lon="11.6531067"><ele>389.0</ele><time>2026-04-26T15:04:42.297Z</time></trkpt><trkpt lat="43.1471817" lon="11.6530967"><ele>389.0</ele><time>2026-04-26T15:04:43.295Z</time></trkpt><trkpt lat="43.14732" lon="11.6531067"><ele>389.0</ele><time>2026-04-26T15:04:44.297Z</time></trkpt><trkpt lat="43.1474533" lon="11.6531117"><ele>389.0</ele><time>2026-04-26T15:04:45.298Z</time></trkpt><trkpt lat="43.14757" lon="11.65311"><ele>389.0</ele><time>2026-04-26T15:04:46.295Z</time></trkpt><trkpt lat="43.1476917" lon="11.65311"><ele>386.25</ele><time>2026-04-26T15:04:47.296Z</time></trkpt><trkpt lat="43.1478233" lon="11.6531133"><ele>383.5</ele><time>2026-04-26T15:04:48.296Z</time></trkpt><trkpt lat="43.1479583" lon="11.65311"><ele>380.75</ele><time>2026-04-26T15:04:49.295Z</time></trkpt><trkpt lat="43.1480917" lon="11.6531117"><ele>378.0</ele><time>2026-04-26T15:04:50.295Z</time></trkpt><trkpt lat="43.1482183" lon="11.65312"><ele>375.5</ele><time>2026-04-26T15:04:51.297Z</time></trkpt><trkpt lat="43.1483533" lon="11.6531483"><ele>373.0</ele><time>2026-04-26T15:04:52.297Z</time></trkpt><trkpt lat="43.148485" lon="11.6531633"><ele>370.5</ele><time>2026-04-26T15:04:53.296Z</time></trkpt><trkpt lat="43.148615" lon="11.653155"><ele>368.0</ele><time>2026-04-26T15:04:54.296Z</time></trkpt><trkpt lat="43.1487367" lon="11.653115"><ele>368.0</ele><time>2026-04-26T15:04:55.295Z</time></trkpt><trkpt lat="43.1488467" lon="11.6530633"><ele>368.0</ele><time>2026-04-26T15:04:56.299Z</time></trkpt><trkpt lat="43.1489483" lon="11.653005"><ele>368.0</ele><time>2026-04-26T15:04:57.295Z</time></trkpt><trkpt lat="43.1490267" lon="11.6529083"><ele>368.0</ele><time>2026-04-26T15:04:58.296Z</time></trkpt><trkpt lat="43.1490933" lon="11.652805"><ele>368.0</ele><time>2026-04-26T15:04:59.297Z</time></trkpt><trkpt lat="43.14914" lon="11.6526917"><ele>365.79999999999995</ele><time>2026-04-26T15:05:00.297Z</time></trkpt><trkpt lat="43.14916" lon="11.6525617"><ele>363.6</ele><time>2026-04-26T15:05:01.297Z</time></trkpt><trkpt lat="43.1491633" lon="11.6524183"><ele>361.4</ele><time>2026-04-26T15:05:02.295Z</time></trkpt><trkpt lat="43.1491517" lon="11.65227"><ele>359.20000000000005</ele><time>2026-04-26T15:05:03.295Z</time></trkpt><trkpt lat="43.1491417" lon="11.6521283"><ele>357.0</ele><time>2026-04-26T15:05:04.297Z</time></trkpt><trkpt lat="43.1491433" lon="11.6520033"><ele>357.0</ele><time>2026-04-26T15:05:05.295Z</time></trkpt><trkpt lat="43.1491583" lon="11.651915"><ele>357.0</ele><time>2026-04-26T15:05:06.296Z</time></trkpt><trkpt lat="43.1492117" lon="11.6518283"><ele>357.0</ele><time>2026-04-26T15:05:08.297Z</time></trkpt><trkpt lat="43.1492983" lon="11.651935"><ele>357.0</ele><time>2026-04-26T15:05:10.296Z</time></trkpt><trkpt lat="43.14933" lon="11.6520367"><ele>357.0</ele><time>2026-04-26T15:05:11.297Z</time></trkpt><trkpt lat="43.14936" lon="11.65215"><ele>357.0</ele><time>2026-04-26T15:05:12.299Z</time></trkpt><trkpt lat="43.1494033" lon="11.6522817"><ele>357.0</ele><time>2026-04-26T15:05:13.295Z</time></trkpt><trkpt lat="43.14945" lon="11.652435"><ele>357.0</ele><time>2026-04-26T15:05:14.297Z</time></trkpt><trkpt lat="43.1494933" lon="11.6525883"><ele>357.0</ele><time>2026-04-26T15:05:15.297Z</time></trkpt><trkpt lat="43.1495133" lon="11.652765"><ele>357.0</ele><time>2026-04-26T15:05:16.295Z</time></trkpt><trkpt lat="43.1495133" lon="11.652945"><ele>355.8</ele><time>2026-04-26T15:05:17.296Z</time></trkpt><trkpt lat="43.1494967" lon="11.6530833"><ele>354.6</ele><time>2026-04-26T15:05:18.295Z</time></trkpt><trkpt lat="43.1494667" lon="11.6531967"><ele>353.40000000000003</ele><time>2026-04-26T15:05:19.296Z</time></trkpt><trkpt lat="43.1494383" lon="11.6533033"><ele>352.20000000000005</ele><time>2026-04-26T15:05:20.297Z</time></trkpt><trkpt lat="43.1494317" lon="11.6534567"><ele>351.0</ele><time>2026-04-26T15:05:22.295Z</time></trkpt><trkpt lat="43.1494917" lon="11.6535433"><ele>351.0</ele><time>2026-04-26T15:05:24.296Z</time></trkpt><trkpt lat="43.1495983" lon="11.65347"><ele>351.0</ele><time>2026-04-26T15:05:26.297Z</time></trkpt><trkpt lat="43.1496333" lon="11.653385"><ele>351.0</ele><time>2026-04-26T15:05:27.296Z</time></trkpt><trkpt lat="43.1497" lon="11.6532483"><ele>351.0</ele><time>2026-04-26T15:05:28.294Z</time></trkpt><trkpt lat="43.149775" lon="11.6531567"><ele>351.0</ele><time>2026-04-26T15:05:29.295Z</time></trkpt><trkpt lat="43.149845" lon="11.6531"><ele>346.6</ele><time>2026-04-26T15:05:30.296Z</time></trkpt><trkpt lat="43.149935" lon="11.6531017"><ele>342.20000000000005</ele><time>2026-04-26T15:05:31.296Z</time></trkpt><trkpt lat="43.1500167" lon="11.6531467"><ele>337.79999999999995</ele><time>2026-04-26T15:05:32.297Z</time></trkpt><trkpt lat="43.15011" lon="11.653215"><ele>333.4</ele><time>2026-04-26T15:05:33.297Z</time></trkpt><trkpt lat="43.150195" lon="11.6532583"><ele>329.0</ele><time>2026-04-26T15:05:34.296Z</time></trkpt><trkpt lat="43.150285" lon="11.653265"><ele>329.0</ele><time>2026-04-26T15:05:35.298Z</time></trkpt><trkpt lat="43.15039" lon="11.65323"><ele>329.0</ele><time>2026-04-26T15:05:36.296Z</time></trkpt><trkpt lat="43.1504833" lon="11.65315"><ele>329.0</ele><time>2026-04-26T15:05:37.297Z</time></trkpt><trkpt lat="43.1505983" lon="11.6530367"><ele>329.0</ele><time>2026-04-26T15:05:38.297Z</time></trkpt><trkpt lat="43.1507017" lon="11.6529217"><ele>327.25</ele><time>2026-04-26T15:05:39.297Z</time></trkpt><trkpt lat="43.1508" lon="11.6528"><ele>325.5</ele><time>2026-04-26T15:05:40.297Z</time></trkpt><trkpt lat="43.150875" lon="11.6526683"><ele>323.75</ele><time>2026-04-26T15:05:41.297Z</time></trkpt><trkpt lat="43.1509267" lon="11.6525183"><ele>322.0</ele><time>2026-04-26T15:05:42.296Z</time></trkpt><trkpt lat="43.1509533" lon="11.652355"><ele>321.75</ele><time>2026-04-26T15:05:43.297Z</time></trkpt><trkpt lat="43.15096" lon="11.6521767"><ele>321.5</ele><time>2026-04-26T15:05:44.297Z</time></trkpt><trkpt lat="43.1509433" lon="11.6519933"><ele>321.25</ele><time>2026-04-26T15:05:45.297Z</time></trkpt><trkpt lat="43.150915" lon="11.651805"><ele>321.0</ele><time>2026-04-26T15:05:46.294Z</time></trkpt><trkpt lat="43.150885" lon="11.651615"><ele>322.0</ele><time>2026-04-26T15:05:47.295Z</time></trkpt><trkpt lat="43.15086" lon="11.6514233"><ele>323.0</ele><time>2026-04-26T15:05:48.295Z</time></trkpt><trkpt lat="43.1508383" lon="11.6512217"><ele>324.0</ele><time>2026-04-26T15:05:49.296Z</time></trkpt><trkpt lat="43.1508233" lon="11.65102"><ele>325.0</ele><time>2026-04-26T15:05:50.298Z</time></trkpt><trkpt lat="43.15082" lon="11.6508217"><ele>325.25</ele><time>2026-04-26T15:05:51.296Z</time></trkpt><trkpt lat="43.150835" lon="11.650625"><ele>325.5</ele><time>2026-04-26T15:05:52.296Z</time></trkpt><trkpt lat="43.1508683" lon="11.65044"><ele>325.75</ele><time>2026-04-26T15:05:53.298Z</time></trkpt><trkpt lat="43.15092" lon="11.6502633"><ele>326.0</ele><time>2026-04-26T15:05:54.295Z</time></trkpt><trkpt lat="43.15099" lon="11.65009"><ele>326.0</ele><time>2026-04-26T15:05:55.296Z</time></trkpt><trkpt lat="43.1510783" lon="11.6499217"><ele>326.0</ele><time>2026-04-26T15:05:56.296Z</time></trkpt><trkpt lat="43.1511733" lon="11.649755"><ele>326.0</ele><time>2026-04-26T15:05:57.296Z</time></trkpt><trkpt lat="43.1512667" lon="11.649595"><ele>326.0</ele><time>2026-04-26T15:05:58.297Z</time></trkpt><trkpt lat="43.1513533" lon="11.64946"><ele>326.0</ele><time>2026-04-26T15:05:59.297Z</time></trkpt><trkpt lat="43.1514317" lon="11.64935"><ele>326.0</ele><time>2026-04-26T15:06:00.295Z</time></trkpt><trkpt lat="43.15152" lon="11.6492617"><ele>326.0</ele><time>2026-04-26T15:06:01.294Z</time></trkpt><trkpt lat="43.1516167" lon="11.6491967"><ele>328.5</ele><time>2026-04-26T15:06:02.295Z</time></trkpt><trkpt lat="43.1517233" lon="11.649165"><ele>331.0</ele><time>2026-04-26T15:06:03.296Z</time></trkpt><trkpt lat="43.1518367" lon="11.6491717"><ele>333.5</ele><time>2026-04-26T15:06:04.294Z</time></trkpt><trkpt lat="43.15195" lon="11.6492133"><ele>336.0</ele><time>2026-04-26T15:06:05.296Z</time></trkpt><trkpt lat="43.1520533" lon="11.6492933"><ele>336.0</ele><time>2026-04-26T15:06:06.295Z</time></trkpt><trkpt lat="43.1521483" lon="11.6493983"><ele>336.0</ele><time>2026-04-26T15:06:07.297Z</time></trkpt><trkpt lat="43.15223" lon="11.6495233"><ele>336.0</ele><time>2026-04-26T15:06:08.295Z</time></trkpt><trkpt lat="43.15231" lon="11.6496633"><ele>336.0</ele><time>2026-04-26T15:06:09.297Z</time></trkpt><trkpt lat="43.1523933" lon="11.649805"><ele>341.5</ele><time>2026-04-26T15:06:10.295Z</time></trkpt><trkpt lat="43.1524817" lon="11.6499317"><ele>347.0</ele><time>2026-04-26T15:06:11.299Z</time></trkpt><trkpt lat="43.1525783" lon="11.6500417"><ele>352.5</ele><time>2026-04-26T15:06:12.298Z</time></trkpt><trkpt lat="43.1526817" lon="11.650125"><ele>358.0</ele><time>2026-04-26T15:06:13.299Z</time></trkpt><trkpt lat="43.152785" lon="11.6501917"><ele>358.0</ele><time>2026-04-26T15:06:14.297Z</time></trkpt><trkpt lat="43.15289" lon="11.6502483"><ele>358.0</ele><time>2026-04-26T15:06:15.295Z</time></trkpt><trkpt lat="43.153" lon="11.6502833"><ele>358.0</ele><time>2026-04-26T15:06:16.294Z</time></trkpt><trkpt lat="43.1531083" lon="11.6503117"><ele>358.0</ele><time>2026-04-26T15:06:17.297Z</time></trkpt><trkpt lat="43.1532167" lon="11.6503333"><ele>358.0</ele><time>2026-04-26T15:06:18.297Z</time></trkpt><trkpt lat="43.15333" lon="11.6503567"><ele>360.0</ele><time>2026-04-26T15:06:19.295Z</time></trkpt><trkpt lat="43.153445" lon="11.6503683"><ele>362.0</ele><time>2026-04-26T15:06:20.294Z</time></trkpt><trkpt lat="43.1535583" lon="11.650375"><ele>364.0</ele><time>2026-04-26T15:06:21.296Z</time></trkpt><trkpt lat="43.1536683" lon="11.6503733"><ele>366.0</ele><time>2026-04-26T15:06:22.296Z</time></trkpt><trkpt lat="43.15378" lon="11.650365"><ele>366.0</ele><time>2026-04-26T15:06:23.295Z</time></trkpt><trkpt lat="43.15389" lon="11.6503567"><ele>366.0</ele><time>2026-04-26T15:06:24.293Z</time></trkpt><trkpt lat="43.1539917" lon="11.6503367"><ele>366.0</ele><time>2026-04-26T15:06:25.296Z</time></trkpt><trkpt lat="43.15408" lon="11.65032"><ele>366.0</ele><time>2026-04-26T15:06:26.294Z</time></trkpt><trkpt lat="43.1541617" lon="11.6503033"><ele>366.0</ele><time>2026-04-26T15:06:27.295Z</time></trkpt><trkpt lat="43.1542283" lon="11.6502933"><ele>366.5</ele><time>2026-04-26T15:06:28.294Z</time></trkpt><trkpt lat="43.1543417" lon="11.6503167"><ele>367.0</ele><time>2026-04-26T15:06:30.297Z</time></trkpt><trkpt lat="43.1544" lon="11.6503617"><ele>367.5</ele><time>2026-04-26T15:06:31.297Z</time></trkpt><trkpt lat="43.154455" lon="11.650445"><ele>368.0</ele><time>2026-04-26T15:06:32.299Z</time></trkpt><trkpt lat="43.1545067" lon="11.650535"><ele>368.5</ele><time>2026-04-26T15:06:33.299Z</time></trkpt><trkpt lat="43.154565" lon="11.6506433"><ele>369.0</ele><time>2026-04-26T15:06:34.295Z</time></trkpt><trkpt lat="43.1546233" lon="11.6507583"><ele>369.0</ele><time>2026-04-26T15:06:35.295Z</time></trkpt><trkpt lat="43.1546867" lon="11.6508733"><ele>369.0</ele><time>2026-04-26T15:06:36.294Z</time></trkpt><trkpt lat="43.1547467" lon="11.6509933"><ele>369.0</ele><time>2026-04-26T15:06:37.295Z</time></trkpt><trkpt lat="43.15481" lon="11.6511183"><ele>369.0</ele><time>2026-04-26T15:06:38.297Z</time></trkpt><trkpt lat="43.154875" lon="11.6512467"><ele>369.0</ele><time>2026-04-26T15:06:39.296Z</time></trkpt><trkpt lat="43.1549467" lon="11.6513767"><ele>371.75</ele><time>2026-04-26T15:06:40.296Z</time></trkpt><trkpt lat="43.1550233" lon="11.65151"><ele>374.5</ele><time>2026-04-26T15:06:41.298Z</time></trkpt><trkpt lat="43.1551033" lon="11.65165"><ele>377.25</ele><time>2026-04-26T15:06:42.295Z</time></trkpt><trkpt lat="43.1551883" lon="11.651795"><ele>380.0</ele><time>2026-04-26T15:06:43.295Z</time></trkpt><trkpt lat="43.155275" lon="11.6519483"><ele>378.6666666666667</ele><time>2026-04-26T15:06:44.299Z</time></trkpt><trkpt lat="43.1553717" lon="11.6521117"><ele>377.3333333333333</ele><time>2026-04-26T15:06:45.296Z</time></trkpt><trkpt lat="43.15547" lon="11.65228"><ele>376.0</ele><time>2026-04-26T15:06:46.294Z</time></trkpt><trkpt lat="43.1555717" lon="11.65245"><ele>376.0</ele><time>2026-04-26T15:06:47.298Z</time></trkpt><trkpt lat="43.1556783" lon="11.6526317"><ele>376.0</ele><time>2026-04-26T15:06:48.295Z</time></trkpt><trkpt lat="43.15579" lon="11.6528167"><ele>376.0</ele><time>2026-04-26T15:06:49.299Z</time></trkpt><trkpt lat="43.1558933" lon="11.6530067"><ele>377.3333333333333</ele><time>2026-04-26T15:06:50.299Z</time></trkpt><trkpt lat="43.1559983" lon="11.653205"><ele>378.6666666666667</ele><time>2026-04-26T15:06:51.296Z</time></trkpt><trkpt lat="43.1561033" lon="11.6533983"><ele>380.0</ele><time>2026-04-26T15:06:52.295Z</time></trkpt><trkpt lat="43.15621" lon="11.653585"><ele>377.6666666666667</ele><time>2026-04-26T15:06:53.294Z</time></trkpt><trkpt lat="43.1563133" lon="11.653765"><ele>375.3333333333333</ele><time>2026-04-26T15:06:54.293Z</time></trkpt><trkpt lat="43.1564117" lon="11.6539367"><ele>373.0</ele><time>2026-04-26T15:06:55.295Z</time></trkpt><trkpt lat="43.1565083" lon="11.654105"><ele>375.5</ele><time>2026-04-26T15:06:56.296Z</time></trkpt><trkpt lat="43.1566017" lon="11.654265"><ele>378.0</ele><time>2026-04-26T15:06:57.296Z</time></trkpt><trkpt lat="43.1566967" lon="11.6544183"><ele>380.5</ele><time>2026-04-26T15:06:58.297Z</time></trkpt><trkpt lat="43.1567983" lon="11.6545633"><ele>383.0</ele><time>2026-04-26T15:06:59.297Z</time></trkpt><trkpt lat="43.1569183" lon="11.6546767"><ele>383.0</ele><time>2026-04-26T15:07:00.295Z</time></trkpt><trkpt lat="43.157055" lon="11.65476"><ele>383.0</ele><time>2026-04-26T15:07:01.296Z</time></trkpt><trkpt lat="43.1572017" lon="11.6548383"><ele>383.0</ele><time>2026-04-26T15:07:02.298Z</time></trkpt><trkpt lat="43.157355" lon="11.6549083"><ele>385.6666666666667</ele><time>2026-04-26T15:07:03.294Z</time></trkpt><trkpt lat="43.15751" lon="11.6549767"><ele>388.33333333333337</ele><time>2026-04-26T15:07:04.294Z</time></trkpt><trkpt lat="43.1576617" lon="11.65505"><ele>391.0</ele><time>2026-04-26T15:07:05.295Z</time></trkpt><trkpt lat="43.1578083" lon="11.6551233"><ele>391.0</ele><time>2026-04-26T15:07:06.298Z</time></trkpt><trkpt lat="43.15795" lon="11.655205"><ele>391.0</ele><time>2026-04-26T15:07:07.297Z</time></trkpt><trkpt lat="43.158085" lon="11.6553"><ele>391.0</ele><time>2026-04-26T15:07:08.299Z</time></trkpt><trkpt lat="43.1582183" lon="11.65541"><ele>389.6666666666667</ele><time>2026-04-26T15:07:09.296Z</time></trkpt><trkpt lat="43.1583483" lon="11.6555267"><ele>388.33333333333337</ele><time>2026-04-26T15:07:10.294Z</time></trkpt><trkpt lat="43.1584733" lon="11.65565"><ele>387.0</ele><time>2026-04-26T15:07:11.297Z</time></trkpt><trkpt lat="43.1585967" lon="11.655775"><ele>387.0</ele><time>2026-04-26T15:07:12.295Z</time></trkpt><trkpt lat="43.1587183" lon="11.6559017"><ele>387.0</ele><time>2026-04-26T15:07:13.296Z</time></trkpt><trkpt lat="43.15884" lon="11.6560233"><ele>387.0</ele><time>2026-04-26T15:07:14.295Z</time></trkpt><trkpt lat="43.1589583" lon="11.65614"><ele>387.0</ele><time>2026-04-26T15:07:15.295Z</time></trkpt><trkpt lat="43.1590767" lon="11.65625"><ele>389.0</ele><time>2026-04-26T15:07:16.296Z</time></trkpt><trkpt lat="43.1591983" lon="11.65635"><ele>391.0</ele><time>2026-04-26T15:07:17.295Z</time></trkpt><trkpt lat="43.1593183" lon="11.656445"><ele>393.0</ele><time>2026-04-26T15:07:18.297Z</time></trkpt><trkpt lat="43.1594367" lon="11.6565283"><ele>395.0</ele><time>2026-04-26T15:07:19.297Z</time></trkpt><trkpt lat="43.159555" lon="11.6566"><ele>395.0</ele><time>2026-04-26T15:07:20.294Z</time></trkpt><trkpt lat="43.1596783" lon="11.6566583"><ele>395.0</ele><time>2026-04-26T15:07:21.296Z</time></trkpt><trkpt lat="43.159805" lon="11.6567033"><ele>395.0</ele><time>2026-04-26T15:07:22.296Z</time></trkpt><trkpt lat="43.15994" lon="11.6567417"><ele>395.0</ele><time>2026-04-26T15:07:23.294Z</time></trkpt><trkpt lat="43.160075" lon="11.6567733"><ele>396.0</ele><time>2026-04-26T15:07:24.295Z</time></trkpt><trkpt lat="43.16021" lon="11.6568"><ele>397.0</ele><time>2026-04-26T15:07:25.297Z</time></trkpt><trkpt lat="43.160345" lon="11.6568283"><ele>398.0</ele><time>2026-04-26T15:07:26.297Z</time></trkpt><trkpt lat="43.16048" lon="11.6568583"><ele>399.0</ele><time>2026-04-26T15:07:27.296Z</time></trkpt><trkpt lat="43.1606133" lon="11.6568717"><ele>399.0</ele><time>2026-04-26T15:07:28.295Z</time></trkpt><trkpt lat="43.1607467" lon="11.6568667"><ele>399.0</ele><time>2026-04-26T15:07:29.295Z</time></trkpt><trkpt lat="43.1608783" lon="11.6568417"><ele>399.0</ele><time>2026-04-26T15:07:30.298Z</time></trkpt><trkpt lat="43.161005" lon="11.6568133"><ele>399.0</ele><time>2026-04-26T15:07:31.295Z</time></trkpt><trkpt lat="43.16113" lon="11.656805"><ele>399.0</ele><time>2026-04-26T15:07:32.296Z</time></trkpt><trkpt lat="43.16125" lon="11.6568217"><ele>399.0</ele><time>2026-04-26T15:07:33.297Z</time></trkpt><trkpt lat="43.1613633" lon="11.65688"><ele>399.0</ele><time>2026-04-26T15:07:34.295Z</time></trkpt><trkpt lat="43.1614683" lon="11.6569717"><ele>399.0</ele><time>2026-04-26T15:07:35.298Z</time></trkpt><trkpt lat="43.1615617" lon="11.65709"><ele>402.5</ele><time>2026-04-26T15:07:36.299Z</time></trkpt><trkpt lat="43.1616483" lon="11.6572267"><ele>406.0</ele><time>2026-04-26T15:07:37.298Z</time></trkpt><trkpt lat="43.1617317" lon="11.65738"><ele>409.5</ele><time>2026-04-26T15:07:38.299Z</time></trkpt><trkpt lat="43.1618083" lon="11.6575433"><ele>413.0</ele><time>2026-04-26T15:07:39.297Z</time></trkpt><trkpt lat="43.161885" lon="11.6577133"><ele>417.5</ele><time>2026-04-26T15:07:40.297Z</time></trkpt><trkpt lat="43.1619533" lon="11.657885"><ele>422.0</ele><time>2026-04-26T15:07:41.299Z</time></trkpt><trkpt lat="43.162015" lon="11.65806"><ele>426.5</ele><time>2026-04-26T15:07:42.299Z</time></trkpt><trkpt lat="43.162075" lon="11.6582333"><ele>431.0</ele><time>2026-04-26T15:07:43.298Z</time></trkpt><trkpt lat="43.1621267" lon="11.6584033"><ele>431.0</ele><time>2026-04-26T15:07:44.298Z</time></trkpt><trkpt lat="43.162175" lon="11.6585617"><ele>431.0</ele><time>2026-04-26T15:07:45.297Z</time></trkpt><trkpt lat="43.16223" lon="11.6587"><ele>431.0</ele><time>2026-04-26T15:07:46.298Z</time></trkpt><trkpt lat="43.162295" lon="11.658815"><ele>431.0</ele><time>2026-04-26T15:07:47.298Z</time></trkpt><trkpt lat="43.1623833" lon="11.658885"><ele>431.0</ele><time>2026-04-26T15:07:48.298Z</time></trkpt><trkpt lat="43.1624817" lon="11.6589133"><ele>431.4</ele><time>2026-04-26T15:07:49.297Z</time></trkpt><trkpt lat="43.1625867" lon="11.65888"><ele>431.8</ele><time>2026-04-26T15:07:50.3Z</time></trkpt><trkpt lat="43.162685" lon="11.6588033"><ele>432.19999999999993</ele><time>2026-04-26T15:07:51.3Z</time></trkpt><trkpt lat="43.1627667" lon="11.6587017"><ele>432.59999999999997</ele><time>2026-04-26T15:07:52.299Z</time></trkpt><trkpt lat="43.1628433" lon="11.6585817"><ele>433.0</ele><time>2026-04-26T15:07:53.298Z</time></trkpt><trkpt lat="43.1629333" lon="11.658465"><ele>431.0</ele><time>2026-04-26T15:07:54.297Z</time></trkpt><trkpt lat="43.163035" lon="11.6583583"><ele>429.0</ele><time>2026-04-26T15:07:55.296Z</time></trkpt><trkpt lat="43.1631467" lon="11.6582683"><ele>427.0</ele><time>2026-04-26T15:07:56.297Z</time></trkpt><trkpt lat="43.16327" lon="11.65819"><ele>425.0</ele><time>2026-04-26T15:07:57.294Z</time></trkpt><trkpt lat="43.1633983" lon="11.658135"><ele>425.0</ele><time>2026-04-26T15:07:58.296Z</time></trkpt><trkpt lat="43.1635367" lon="11.6581017"><ele>425.0</ele><time>2026-04-26T15:07:59.295Z</time></trkpt><trkpt lat="43.1636817" lon="11.6581017"><ele>425.0</ele><time>2026-04-26T15:08:00.295Z</time></trkpt><trkpt lat="43.1638267" lon="11.6581117"><ele>425.0</ele><time>2026-04-26T15:08:01.294Z</time></trkpt><trkpt lat="43.1639767" lon="11.6581233"><ele>426.0</ele><time>2026-04-26T15:08:02.294Z</time></trkpt><trkpt lat="43.1641267" lon="11.658135"><ele>427.0</ele><time>2026-04-26T15:08:03.295Z</time></trkpt><trkpt lat="43.1642783" lon="11.6581567"><ele>428.0</ele><time>2026-04-26T15:08:04.295Z</time></trkpt><trkpt lat="43.1644267" lon="11.6581717"><ele>428.0</ele><time>2026-04-26T15:08:05.294Z</time></trkpt><trkpt lat="43.1645633" lon="11.65818"><ele>428.0</ele><time>2026-04-26T15:08:06.297Z</time></trkpt><trkpt lat="43.1646967" lon="11.6581917"><ele>428.0</ele><time>2026-04-26T15:08:07.296Z</time></trkpt><trkpt lat="43.1648267" lon="11.6582"><ele>428.0</ele><time>2026-04-26T15:08:08.296Z</time></trkpt><trkpt lat="43.16495" lon="11.65821"><ele>427.0</ele><time>2026-04-26T15:08:09.295Z</time></trkpt><trkpt lat="43.1650717" lon="11.65822"><ele>426.0</ele><time>2026-04-26T15:08:10.293Z</time></trkpt><trkpt lat="43.1651917" lon="11.65824"><ele>425.0</ele><time>2026-04-26T15:08:11.294Z</time></trkpt><trkpt lat="43.1653117" lon="11.6582733"><ele>424.0</ele><time>2026-04-26T15:08:12.297Z</time></trkpt><trkpt lat="43.1654233" lon="11.6583267"><ele>424.0</ele><time>2026-04-26T15:08:13.296Z</time></trkpt><trkpt lat="43.1655283" lon="11.6584"><ele>424.0</ele><time>2026-04-26T15:08:14.295Z</time></trkpt><trkpt lat="43.1656267" lon="11.65849"><ele>424.0</ele><time>2026-04-26T15:08:15.296Z</time></trkpt><trkpt lat="43.1657217" lon="11.6585817"><ele>424.0</ele><time>2026-04-26T15:08:16.299Z</time></trkpt><trkpt lat="43.1658133" lon="11.6586767"><ele>425.25</ele><time>2026-04-26T15:08:17.293Z</time></trkpt><trkpt lat="43.1659067" lon="11.6587767"><ele>426.5</ele><time>2026-04-26T15:08:18.297Z</time></trkpt><trkpt lat="43.166" lon="11.65888"><ele>427.75</ele><time>2026-04-26T15:08:19.296Z</time></trkpt><trkpt lat="43.1660883" lon="11.6589983"><ele>429.0</ele><time>2026-04-26T15:08:20.298Z</time></trkpt><trkpt lat="43.166165" lon="11.659135"><ele>429.0</ele><time>2026-04-26T15:08:21.299Z</time></trkpt><trkpt lat="43.166235" lon="11.65928"><ele>429.0</ele><time>2026-04-26T15:08:22.296Z</time></trkpt><trkpt lat="43.1663033" lon="11.659425"><ele>429.0</ele><time>2026-04-26T15:08:23.298Z</time></trkpt><trkpt lat="43.16637" lon="11.6595733"><ele>429.0</ele><time>2026-04-26T15:08:24.299Z</time></trkpt><trkpt lat="43.1664367" lon="11.659715"><ele>431.0</ele><time>2026-04-26T15:08:25.297Z</time></trkpt><trkpt lat="43.1664983" lon="11.6598583"><ele>433.0</ele><time>2026-04-26T15:08:26.297Z</time></trkpt><trkpt lat="43.1665517" lon="11.6600017"><ele>435.0</ele><time>2026-04-26T15:08:27.296Z</time></trkpt><trkpt lat="43.1666067" lon="11.66013"><ele>437.0</ele><time>2026-04-26T15:08:28.295Z</time></trkpt><trkpt lat="43.1666583" lon="11.6602533"><ele>436.20000000000005</ele><time>2026-04-26T15:08:29.296Z</time></trkpt><trkpt lat="43.166715" lon="11.6603683"><ele>435.40000000000003</ele><time>2026-04-26T15:08:30.3Z</time></trkpt><trkpt lat="43.16677" lon="11.6604817"><ele>434.59999999999997</ele><time>2026-04-26T15:08:31.299Z</time></trkpt><trkpt lat="43.1668183" lon="11.6606"><ele>433.79999999999995</ele><time>2026-04-26T15:08:32.3Z</time></trkpt><trkpt lat="43.166855" lon="11.6607317"><ele>433.0</ele><time>2026-04-26T15:08:33.298Z</time></trkpt><trkpt lat="43.1668717" lon="11.6608733"><ele>433.0</ele><time>2026-04-26T15:08:34.297Z</time></trkpt><trkpt lat="43.1668717" lon="11.66102"><ele>432.99999999999994</ele><time>2026-04-26T15:08:35.296Z</time></trkpt><trkpt lat="43.1668633" lon="11.66117"><ele>432.99999999999994</ele><time>2026-04-26T15:08:36.3Z</time></trkpt><trkpt lat="43.1668533" lon="11.661325"><ele>433.0</ele><time>2026-04-26T15:08:37.294Z</time></trkpt><trkpt lat="43.1668417" lon="11.66148"><ele>433.0</ele><time>2026-04-26T15:08:38.297Z</time></trkpt><trkpt lat="43.16683" lon="11.6616283"><ele>433.0</ele><time>2026-04-26T15:08:39.295Z</time></trkpt><trkpt lat="43.16682" lon="11.6617733"><ele>432.99999999999994</ele><time>2026-04-26T15:08:40.295Z</time></trkpt><trkpt lat="43.1668117" lon="11.6619167"><ele>432.99999999999994</ele><time>2026-04-26T15:08:41.298Z</time></trkpt><trkpt lat="43.166815" lon="11.6620583"><ele>433.0</ele><time>2026-04-26T15:08:42.298Z</time></trkpt><trkpt lat="43.1668317" lon="11.6621983"><ele>433.0</ele><time>2026-04-26T15:08:43.295Z</time></trkpt><trkpt lat="43.1668617" lon="11.6623317"><ele>433.0</ele><time>2026-04-26T15:08:44.297Z</time></trkpt><trkpt lat="43.1669033" lon="11.6624567"><ele>432.99999999999994</ele><time>2026-04-26T15:08:45.298Z</time></trkpt><trkpt lat="43.1669567" lon="11.6625767"><ele>432.99999999999994</ele><time>2026-04-26T15:08:46.298Z</time></trkpt><trkpt lat="43.1670167" lon="11.662695"><ele>433.0</ele><time>2026-04-26T15:08:47.299Z</time></trkpt><trkpt lat="43.16708" lon="11.6628133"><ele>433.0</ele><time>2026-04-26T15:08:48.295Z</time></trkpt><trkpt lat="43.1671433" lon="11.6629317"><ele>434.50000000000006</ele><time>2026-04-26T15:08:49.298Z</time></trkpt><trkpt lat="43.1672033" lon="11.6630483"><ele>436.0</ele><time>2026-04-26T15:08:50.299Z</time></trkpt><trkpt lat="43.1672583" lon="11.6631617"><ele>437.5</ele><time>2026-04-26T15:08:51.299Z</time></trkpt><trkpt lat="43.1673117" lon="11.6632633"><ele>439.0</ele><time>2026-04-26T15:08:52.298Z</time></trkpt><trkpt lat="43.1673567" lon="11.663355"><ele>440.50000000000006</ele><time>2026-04-26T15:08:53.298Z</time></trkpt><trkpt lat="43.1674" lon="11.663435"><ele>442.0</ele><time>2026-04-26T15:08:54.296Z</time></trkpt><trkpt lat="43.1674417" lon="11.663505"><ele>440.33333333333337</ele><time>2026-04-26T15:08:55.296Z</time></trkpt><trkpt lat="43.16748" lon="11.663575"><ele>438.6666666666667</ele><time>2026-04-26T15:08:56.297Z</time></trkpt><trkpt lat="43.16752" lon="11.6636467"><ele>437.0</ele><time>2026-04-26T15:08:57.298Z</time></trkpt><trkpt lat="43.1675617" lon="11.6637233"><ele>435.33333333333337</ele><time>2026-04-26T15:08:58.295Z</time></trkpt><trkpt lat="43.1676283" lon="11.66384"><ele>433.6666666666667</ele><time>2026-04-26T15:09:00.296Z</time></trkpt><trkpt lat="43.16771" lon="11.6639717"><ele>432.0</ele><time>2026-04-26T15:09:07.297Z</time></trkpt><trkpt lat="43.1678017" lon="11.6641283"><ele>432.0</ele><time>2026-04-26T15:09:09.296Z</time></trkpt><trkpt lat="43.1678583" lon="11.6642517"><ele>432.0</ele><time>2026-04-26T15:09:10.293Z</time></trkpt><trkpt lat="43.1679333" lon="11.6644067"><ele>432.0</ele><time>2026-04-26T15:09:11.295Z</time></trkpt><trkpt lat="43.168005" lon="11.6645817"><ele>432.0</ele><time>2026-04-26T15:09:12.296Z</time></trkpt><trkpt lat="43.1680783" lon="11.664775"><ele>433.0</ele><time>2026-04-26T15:09:13.297Z</time></trkpt><trkpt lat="43.1681517" lon="11.6649767"><ele>434.0</ele><time>2026-04-26T15:09:14.293Z</time></trkpt><trkpt lat="43.1682267" lon="11.6651783"><ele>435.0</ele><time>2026-04-26T15:09:15.296Z</time></trkpt><trkpt lat="43.16831" lon="11.6653667"><ele>430.0</ele><time>2026-04-26T15:09:16.298Z</time></trkpt><trkpt lat="43.1684017" lon="11.6655367"><ele>425.0</ele><time>2026-04-26T15:09:17.299Z</time></trkpt><trkpt lat="43.1685" lon="11.6656933"><ele>420.0</ele><time>2026-04-26T15:09:18.299Z</time></trkpt><trkpt lat="43.16863" lon="11.6658133"><ele>420.0</ele><time>2026-04-26T15:09:19.296Z</time></trkpt><trkpt lat="43.1687933" lon="11.6658983"><ele>420.0</ele><time>2026-04-26T15:09:20.298Z</time></trkpt><trkpt lat="43.1689667" lon="11.6659767"><ele>420.0</ele><time>2026-04-26T15:09:21.298Z</time></trkpt><trkpt lat="43.1691533" lon="11.6660483"><ele>420.0</ele><time>2026-04-26T15:09:22.299Z</time></trkpt><trkpt lat="43.1693417" lon="11.6661267"><ele>420.0</ele><time>2026-04-26T15:09:23.297Z</time></trkpt><trkpt lat="43.1695333" lon="11.66621"><ele>420.0</ele><time>2026-04-26T15:09:24.296Z</time></trkpt><trkpt lat="43.169725" lon="11.6662983"><ele>417.66666666666663</ele><time>2026-04-26T15:09:25.297Z</time></trkpt><trkpt lat="43.1699133" lon="11.6663883"><ele>415.3333333333333</ele><time>2026-04-26T15:09:26.296Z</time></trkpt><trkpt lat="43.1700983" lon="11.6664783"><ele>413.0</ele><time>2026-04-26T15:09:27.296Z</time></trkpt><trkpt lat="43.170275" lon="11.666555"><ele>413.0</ele><time>2026-04-26T15:09:28.294Z</time></trkpt><trkpt lat="43.1704533" lon="11.6666117"><ele>413.0</ele><time>2026-04-26T15:09:29.296Z</time></trkpt><trkpt lat="43.1706333" lon="11.666645"><ele>413.0</ele><time>2026-04-26T15:09:30.297Z</time></trkpt><trkpt lat="43.1708117" lon="11.6666667"><ele>409.66666666666663</ele><time>2026-04-26T15:09:31.297Z</time></trkpt><trkpt lat="43.1709867" lon="11.6666883"><ele>406.33333333333337</ele><time>2026-04-26T15:09:32.3Z</time></trkpt><trkpt lat="43.1711467" lon="11.6667033"><ele>403.0</ele><time>2026-04-26T15:09:33.298Z</time></trkpt><trkpt lat="43.1712883" lon="11.6667133"><ele>403.0</ele><time>2026-04-26T15:09:34.297Z</time></trkpt><trkpt lat="43.171425" lon="11.6667083"><ele>403.0</ele><time>2026-04-26T15:09:35.298Z</time></trkpt><trkpt lat="43.17155" lon="11.66667"><ele>403.0</ele><time>2026-04-26T15:09:36.295Z</time></trkpt><trkpt lat="43.17166" lon="11.6665867"><ele>403.0</ele><time>2026-04-26T15:09:37.296Z</time></trkpt><trkpt lat="43.1717583" lon="11.6664633"><ele>402.75</ele><time>2026-04-26T15:09:38.296Z</time></trkpt><trkpt lat="43.1718483" lon="11.66632"><ele>402.5</ele><time>2026-04-26T15:09:39.297Z</time></trkpt><trkpt lat="43.1719417" lon="11.66618"><ele>402.25</ele><time>2026-04-26T15:09:40.295Z</time></trkpt><trkpt lat="43.172055" lon="11.66607"><ele>402.0</ele><time>2026-04-26T15:09:41.296Z</time></trkpt><trkpt lat="43.1721917" lon="11.6660017"><ele>402.0</ele><time>2026-04-26T15:09:42.295Z</time></trkpt><trkpt lat="43.1723433" lon="11.6659633"><ele>402.0</ele><time>2026-04-26T15:09:43.296Z</time></trkpt><trkpt lat="43.1725017" lon="11.6659317"><ele>402.0</ele><time>2026-04-26T15:09:44.298Z</time></trkpt><trkpt lat="43.1726683" lon="11.665905"><ele>404.33333333333337</ele><time>2026-04-26T15:09:45.295Z</time></trkpt><trkpt lat="43.1728383" lon="11.66589"><ele>406.6666666666667</ele><time>2026-04-26T15:09:46.295Z</time></trkpt><trkpt lat="43.1730067" lon="11.6658917"><ele>409.0</ele><time>2026-04-26T15:09:47.296Z</time></trkpt><trkpt lat="43.1731733" lon="11.665915"><ele>410.6666666666667</ele><time>2026-04-26T15:09:48.298Z</time></trkpt><trkpt lat="43.1733383" lon="11.6659617"><ele>412.33333333333337</ele><time>2026-04-26T15:09:49.296Z</time></trkpt><trkpt lat="43.1734983" lon="11.6660267"><ele>414.0</ele><time>2026-04-26T15:09:50.295Z</time></trkpt><trkpt lat="43.1736567" lon="11.666105"><ele>418.0</ele><time>2026-04-26T15:09:51.295Z</time></trkpt><trkpt lat="43.1738133" lon="11.666195"><ele>422.0</ele><time>2026-04-26T15:09:52.299Z</time></trkpt><trkpt lat="43.1739567" lon="11.6662983"><ele>426.0</ele><time>2026-04-26T15:09:53.296Z</time></trkpt><trkpt lat="43.1740767" lon="11.6664067"><ele>427.20000000000005</ele><time>2026-04-26T15:09:54.297Z</time></trkpt><trkpt lat="43.1741767" lon="11.66651"><ele>428.40000000000003</ele><time>2026-04-26T15:09:55.296Z</time></trkpt><trkpt lat="43.1742667" lon="11.6665883"><ele>429.6</ele><time>2026-04-26T15:09:56.296Z</time></trkpt><trkpt lat="43.1743583" lon="11.6666383"><ele>430.8</ele><time>2026-04-26T15:09:57.296Z</time></trkpt><trkpt lat="43.1744517" lon="11.66664"><ele>432.0</ele><time>2026-04-26T15:09:58.297Z</time></trkpt><trkpt lat="43.174545" lon="11.666595"><ele>432.0</ele><time>2026-04-26T15:09:59.296Z</time></trkpt><trkpt lat="43.1746267" lon="11.6665017"><ele>432.0</ele><time>2026-04-26T15:10:00.297Z</time></trkpt><trkpt lat="43.1746883" lon="11.6663733"><ele>432.0</ele><time>2026-04-26T15:10:01.294Z</time></trkpt><trkpt lat="43.174735" lon="11.6662167"><ele>432.0</ele><time>2026-04-26T15:10:02.296Z</time></trkpt><trkpt lat="43.1747783" lon="11.6660517"><ele>433.0</ele><time>2026-04-26T15:10:03.296Z</time></trkpt><trkpt lat="43.1748183" lon="11.6658817"><ele>434.0</ele><time>2026-04-26T15:10:04.297Z</time></trkpt><trkpt lat="43.1748667" lon="11.6657233"><ele>435.0</ele><time>2026-04-26T15:10:05.295Z</time></trkpt><trkpt lat="43.174935" lon="11.6655883"><ele>436.0</ele><time>2026-04-26T15:10:06.297Z</time></trkpt><trkpt lat="43.1750267" lon="11.6654933"><ele>436.0</ele><time>2026-04-26T15:10:07.294Z</time></trkpt><trkpt lat="43.175135" lon="11.6654467"><ele>436.0</ele><time>2026-04-26T15:10:08.296Z</time></trkpt><trkpt lat="43.1752533" lon="11.6654517"><ele>436.0</ele><time>2026-04-26T15:10:09.297Z</time></trkpt><trkpt lat="43.1753683" lon="11.6655033"><ele>436.0</ele><time>2026-04-26T15:10:10.295Z</time></trkpt><trkpt lat="43.1754683" lon="11.665595"><ele>436.0</ele><time>2026-04-26T15:10:11.295Z</time></trkpt><trkpt lat="43.1755567" lon="11.6657133"><ele>436.0</ele><time>2026-04-26T15:10:12.299Z</time></trkpt><trkpt lat="43.1756417" lon="11.6658417"><ele>436.0</ele><time>2026-04-26T15:10:13.297Z</time></trkpt><trkpt lat="43.17573" lon="11.6659733"><ele>436.0</ele><time>2026-04-26T15:10:14.299Z</time></trkpt><trkpt lat="43.1758183" lon="11.666105"><ele>440.0</ele><time>2026-04-26T15:10:15.298Z</time></trkpt><trkpt lat="43.17591" lon="11.6662367"><ele>444.0</ele><time>2026-04-26T15:10:16.297Z</time></trkpt><trkpt lat="43.1759983" lon="11.6663733"><ele>448.0</ele><time>2026-04-26T15:10:17.297Z</time></trkpt><trkpt lat="43.1760883" lon="11.6665133"><ele>452.0</ele><time>2026-04-26T15:10:18.298Z</time></trkpt><trkpt lat="43.17617" lon="11.6666617"><ele>452.0</ele><time>2026-04-26T15:10:19.296Z</time></trkpt><trkpt lat="43.1762433" lon="11.6668183"><ele>452.0</ele><time>2026-04-26T15:10:20.296Z</time></trkpt><trkpt lat="43.1763133" lon="11.666975"><ele>452.0</ele><time>2026-04-26T15:10:21.296Z</time></trkpt><trkpt lat="43.1763817" lon="11.6671367"><ele>452.0</ele><time>2026-04-26T15:10:22.296Z</time></trkpt><trkpt lat="43.1764517" lon="11.6673"><ele>455.5</ele><time>2026-04-26T15:10:23.296Z</time></trkpt><trkpt lat="43.17652" lon="11.667455"><ele>459.0</ele><time>2026-04-26T15:10:24.297Z</time></trkpt><trkpt lat="43.1765933" lon="11.6676067"><ele>462.5</ele><time>2026-04-26T15:10:25.296Z</time></trkpt><trkpt lat="43.17666" lon="11.6677517"><ele>466.0</ele><time>2026-04-26T15:10:26.294Z</time></trkpt><trkpt lat="43.17672" lon="11.6678817"><ele>466.83333333333337</ele><time>2026-04-26T15:10:27.296Z</time></trkpt><trkpt lat="43.1767767" lon="11.667995"><ele>467.6666666666667</ele><time>2026-04-26T15:10:28.295Z</time></trkpt><trkpt lat="43.1768283" lon="11.6680967"><ele>468.5</ele><time>2026-04-26T15:10:29.295Z</time></trkpt><trkpt lat="43.1768667" lon="11.668185"><ele>469.33333333333337</ele><time>2026-04-26T15:10:30.297Z</time></trkpt><trkpt lat="43.1769283" lon="11.66831"><ele>470.1666666666667</ele><time>2026-04-26T15:10:32.3Z</time></trkpt><trkpt lat="43.1769967" lon="11.6682883"><ele>471.0</ele><time>2026-04-26T15:10:35.298Z</time></trkpt><trkpt lat="43.176985" lon="11.6681867"><ele>471.0</ele><time>2026-04-26T15:10:37.299Z</time></trkpt><trkpt lat="43.1769367" lon="11.6680583"><ele>471.0</ele><time>2026-04-26T15:10:39.296Z</time></trkpt><trkpt lat="43.17687" lon="11.6679133"><ele>471.0</ele><time>2026-04-26T15:10:41.296Z</time></trkpt><trkpt lat="43.176825" lon="11.6678383"><ele>471.0</ele><time>2026-04-26T15:10:42.298Z</time></trkpt><trkpt lat="43.1767833" lon="11.667765"><ele>471.0</ele><time>2026-04-26T15:10:43.296Z</time></trkpt><trkpt lat="43.17674" lon="11.6676833"><ele>471.0</ele><time>2026-04-26T15:10:44.296Z</time></trkpt><trkpt lat="43.176705" lon="11.6675917"><ele>470.57142857142867</ele><time>2026-04-26T15:10:45.296Z</time></trkpt><trkpt lat="43.1766767" lon="11.6675033"><ele>470.14285714285717</ele><time>2026-04-26T15:10:46.296Z</time></trkpt><trkpt lat="43.176665" lon="11.66741"><ele>469.7142857142858</ele><time>2026-04-26T15:10:47.296Z</time></trkpt><trkpt lat="43.1766667" lon="11.667315"><ele>469.28571428571433</ele><time>2026-04-26T15:10:48.297Z</time></trkpt><trkpt lat="43.1766917" lon="11.6672183"><ele>468.8571428571429</ele><time>2026-04-26T15:10:49.295Z</time></trkpt><trkpt lat="43.17672" lon="11.66713"><ele>468.42857142857144</ele><time>2026-04-26T15:10:50.298Z</time></trkpt><trkpt lat="43.1767517" lon="11.6670417"><ele>468.0</ele><time>2026-04-26T15:10:51.295Z</time></trkpt><trkpt lat="43.1767733" lon="11.6669417"><ele>468.0</ele><time>2026-04-26T15:10:52.295Z</time></trkpt><trkpt lat="43.1767783" lon="11.6668283"><ele>468.0</ele><time>2026-04-26T15:10:53.297Z</time></trkpt><trkpt lat="43.1767833" lon="11.6667117"><ele>468.0</ele><time>2026-04-26T15:10:54.296Z</time></trkpt><trkpt lat="43.176785" lon="11.6665983"><ele>468.0</ele><time>2026-04-26T15:10:55.296Z</time></trkpt><trkpt lat="43.1767867" lon="11.6665033"><ele>468.0</ele><time>2026-04-26T15:10:56.298Z</time></trkpt><trkpt lat="43.176785" lon="11.6664067"><ele>468.0</ele><time>2026-04-26T15:10:57.296Z</time></trkpt><trkpt lat="43.1767817" lon="11.6663033"><ele>468.0</ele><time>2026-04-26T15:10:58.296Z</time></trkpt><trkpt lat="43.176785" lon="11.6662033"><ele>468.0</ele><time>2026-04-26T15:10:59.296Z</time></trkpt><trkpt lat="43.1767917" lon="11.666115"><ele>468.0</ele><time>2026-04-26T15:11:00.296Z</time></trkpt><trkpt lat="43.1768283" lon="11.6659533"><ele>468.0</ele><time>2026-04-26T15:11:02.295Z</time></trkpt><trkpt lat="43.17686" lon="11.6658767"><ele>468.0</ele><time>2026-04-26T15:11:03.298Z</time></trkpt><trkpt lat="43.1769033" lon="11.665805"><ele>468.0</ele><time>2026-04-26T15:11:04.295Z</time></trkpt><trkpt lat="43.17696" lon="11.665735"><ele>467.4</ele><time>2026-04-26T15:11:05.299Z</time></trkpt><trkpt lat="43.1770233" lon="11.6656617"><ele>466.79999999999995</ele><time>2026-04-26T15:11:06.298Z</time></trkpt><trkpt lat="43.1770983" lon="11.665585"><ele>466.2</ele><time>2026-04-26T15:11:07.298Z</time></trkpt><trkpt lat="43.17718" lon="11.6655017"><ele>465.6</ele><time>2026-04-26T15:11:08.299Z</time></trkpt><trkpt lat="43.1772667" lon="11.6654167"><ele>465.0</ele><time>2026-04-26T15:11:09.299Z</time></trkpt><trkpt lat="43.177355" lon="11.6653367"><ele>467.1666666666667</ele><time>2026-04-26T15:11:10.294Z</time></trkpt><trkpt lat="43.1774333" lon="11.66527"><ele>469.33333333333337</ele><time>2026-04-26T15:11:11.295Z</time></trkpt><trkpt lat="43.1775033" lon="11.66522"><ele>471.5</ele><time>2026-04-26T15:11:12.296Z</time></trkpt><trkpt lat="43.17756" lon="11.6651733"><ele>473.6666666666667</ele><time>2026-04-26T15:11:13.297Z</time></trkpt><trkpt lat="43.177605" lon="11.66506"><ele>475.83333333333337</ele><time>2026-04-26T15:11:15.295Z</time></trkpt><trkpt lat="43.17758" lon="11.6649017"><ele>478.0</ele><time>2026-04-26T15:11:17.296Z</time></trkpt><trkpt lat="43.177555" lon="11.66481"><ele>478.00000000000006</ele><time>2026-04-26T15:11:18.297Z</time></trkpt><trkpt lat="43.17753" lon="11.6647083"><ele>478.0</ele><time>2026-04-26T15:11:19.295Z</time></trkpt><trkpt lat="43.1775083" lon="11.6646167"><ele>478.00000000000006</ele><time>2026-04-26T15:11:20.295Z</time></trkpt><trkpt lat="43.177495" lon="11.6645267"><ele>478.00000000000006</ele><time>2026-04-26T15:11:21.296Z</time></trkpt><trkpt lat="43.177485" lon="11.6644383"><ele>478.0</ele><time>2026-04-26T15:11:22.294Z</time></trkpt><trkpt lat="43.1774817" lon="11.664345"><ele>478.00000000000006</ele><time>2026-04-26T15:11:23.299Z</time></trkpt><trkpt lat="43.1774767" lon="11.6642567"><ele>478.00000000000006</ele><time>2026-04-26T15:11:24.295Z</time></trkpt><trkpt lat="43.17745" lon="11.6640967"><ele>478.2</ele><time>2026-04-26T15:11:26.297Z</time></trkpt><trkpt lat="43.1774133" lon="11.6639433"><ele>478.4</ele><time>2026-04-26T15:11:28.296Z</time></trkpt><trkpt lat="43.1774167" lon="11.6637867"><ele>478.59999999999997</ele><time>2026-04-26T15:11:30.297Z</time></trkpt><trkpt lat="43.1774467" lon="11.66364"><ele>478.79999999999995</ele><time>2026-04-26T15:11:32.294Z</time></trkpt><trkpt lat="43.177485" lon="11.6635117"><ele>479.0</ele><time>2026-04-26T15:11:34.296Z</time></trkpt><trkpt lat="43.177535" lon="11.6633867"><ele>478.2</ele><time>2026-04-26T15:11:36.296Z</time></trkpt><trkpt lat="43.17761" lon="11.6632617"><ele>477.4</ele><time>2026-04-26T15:11:38.298Z</time></trkpt><trkpt lat="43.1776667" lon="11.66312"><ele>476.6</ele><time>2026-04-26T15:11:40.296Z</time></trkpt><trkpt lat="43.1776817" lon="11.6629583"><ele>475.8</ele><time>2026-04-26T15:11:42.295Z</time></trkpt><trkpt lat="43.1776767" lon="11.66286"><ele>475.0</ele><time>2026-04-26T15:11:43.295Z</time></trkpt><trkpt lat="43.1776583" lon="11.66275"><ele>473.83333333333337</ele><time>2026-04-26T15:11:44.296Z</time></trkpt><trkpt lat="43.1776333" lon="11.6626367"><ele>472.6666666666667</ele><time>2026-04-26T15:11:45.296Z</time></trkpt><trkpt lat="43.1776017" lon="11.6625267"><ele>471.5</ele><time>2026-04-26T15:11:46.296Z</time></trkpt><trkpt lat="43.1775717" lon="11.6624217"><ele>470.33333333333337</ele><time>2026-04-26T15:11:47.297Z</time></trkpt><trkpt lat="43.177555" lon="11.6623283"><ele>469.1666666666667</ele><time>2026-04-26T15:11:48.298Z</time></trkpt><trkpt lat="43.1775433" lon="11.6622367"><ele>468.0</ele><time>2026-04-26T15:11:49.298Z</time></trkpt><trkpt lat="43.1775283" lon="11.6621517"><ele>468.0</ele><time>2026-04-26T15:11:50.297Z</time></trkpt><trkpt lat="43.1775117" lon="11.66199"><ele>468.0</ele><time>2026-04-26T15:11:52.294Z</time></trkpt><trkpt lat="43.1775083" lon="11.6618967"><ele>468.0</ele><time>2026-04-26T15:11:53.295Z</time></trkpt><trkpt lat="43.17751" lon="11.6617917"><ele>468.0</ele><time>2026-04-26T15:11:54.297Z</time></trkpt><trkpt lat="43.177515" lon="11.6616817"><ele>468.0</ele><time>2026-04-26T15:11:55.293Z</time></trkpt><trkpt lat="43.1775217" lon="11.6615717"><ele>468.0</ele><time>2026-04-26T15:11:56.297Z</time></trkpt><trkpt lat="43.177535" lon="11.6614633"><ele>466.3333333333333</ele><time>2026-04-26T15:11:57.297Z</time></trkpt><trkpt lat="43.17755" lon="11.6613617"><ele>464.66666666666663</ele><time>2026-04-26T15:11:58.296Z</time></trkpt><trkpt lat="43.1775683" lon="11.6612717"><ele>463.0</ele><time>2026-04-26T15:11:59.298Z</time></trkpt><trkpt lat="43.1775983" lon="11.66119"><ele>461.3333333333333</ele><time>2026-04-26T15:12:00.296Z</time></trkpt><trkpt lat="43.17767" lon="11.6610567"><ele>459.66666666666663</ele><time>2026-04-26T15:12:02.295Z</time></trkpt><trkpt lat="43.177725" lon="11.6610083"><ele>458.0</ele><time>2026-04-26T15:12:03.294Z</time></trkpt><trkpt lat="43.1777783" lon="11.6609483"><ele>457.16666666666663</ele><time>2026-04-26T15:12:04.295Z</time></trkpt><trkpt lat="43.177825" lon="11.6608767"><ele>456.3333333333333</ele><time>2026-04-26T15:12:05.295Z</time></trkpt><trkpt lat="43.177875" lon="11.6608033"><ele>455.5</ele><time>2026-04-26T15:12:06.295Z</time></trkpt><trkpt lat="43.1779233" lon="11.6607333"><ele>454.66666666666663</ele><time>2026-04-26T15:12:07.294Z</time></trkpt><trkpt lat="43.1779717" lon="11.6606633"><ele>453.8333333333333</ele><time>2026-04-26T15:12:08.295Z</time></trkpt><trkpt lat="43.17804" lon="11.660515"><ele>453.0</ele><time>2026-04-26T15:12:10.294Z</time></trkpt><trkpt lat="43.1780633" lon="11.6604317"><ele>452.2</ele><time>2026-04-26T15:12:11.294Z</time></trkpt><trkpt lat="43.1781067" lon="11.6602667"><ele>451.4</ele><time>2026-04-26T15:12:13.295Z</time></trkpt><trkpt lat="43.1781183" lon="11.66008"><ele>450.59999999999997</ele><time>2026-04-26T15:12:15.294Z</time></trkpt><trkpt lat="43.178115" lon="11.659975"><ele>449.79999999999995</ele><time>2026-04-26T15:12:16.294Z</time></trkpt><trkpt lat="43.1781233" lon="11.6598683"><ele>449.0</ele><time>2026-04-26T15:12:17.295Z</time></trkpt><trkpt lat="43.1781233" lon="11.6597717"><ele>448.99999999999994</ele><time>2026-04-26T15:12:18.296Z</time></trkpt><trkpt lat="43.1781117" lon="11.6596783"><ele>449.0</ele><time>2026-04-26T15:12:19.3Z</time></trkpt><trkpt lat="43.1780933" lon="11.659575"><ele>449.0</ele><time>2026-04-26T15:12:20.298Z</time></trkpt><trkpt lat="43.178075" lon="11.6594633"><ele>449.0</ele><time>2026-04-26T15:12:21.297Z</time></trkpt><trkpt lat="43.1780533" lon="11.6593483"><ele>448.99999999999994</ele><time>2026-04-26T15:12:22.297Z</time></trkpt><trkpt lat="43.17804" lon="11.6592267"><ele>449.0</ele><time>2026-04-26T15:12:23.296Z</time></trkpt><trkpt lat="43.178025" lon="11.6591033"><ele>447.8333333333333</ele><time>2026-04-26T15:12:24.295Z</time></trkpt><trkpt lat="43.1780133" lon="11.6589917"><ele>446.66666666666663</ele><time>2026-04-26T15:12:25.296Z</time></trkpt><trkpt lat="43.1779983" lon="11.6588817"><ele>445.5</ele><time>2026-04-26T15:12:26.294Z</time></trkpt><trkpt lat="43.177985" lon="11.6587733"><ele>444.33333333333337</ele><time>2026-04-26T15:12:27.298Z</time></trkpt><trkpt lat="43.1779767" lon="11.6586783"><ele>443.1666666666667</ele><time>2026-04-26T15:12:28.295Z</time></trkpt><trkpt lat="43.1779783" lon="11.6585217"><ele>442.0</ele><time>2026-04-26T15:12:30.297Z</time></trkpt><trkpt lat="43.1779883" lon="11.65839"><ele>440.8</ele><time>2026-04-26T15:12:32.298Z</time></trkpt><trkpt lat="43.1780233" lon="11.6582667"><ele>439.6</ele><time>2026-04-26T15:12:34.294Z</time></trkpt><trkpt lat="43.1781" lon="11.6581717"><ele>438.40000000000003</ele><time>2026-04-26T15:12:36.299Z</time></trkpt><trkpt lat="43.178195" lon="11.6581217"><ele>437.20000000000005</ele><time>2026-04-26T15:12:38.299Z</time></trkpt><trkpt lat="43.1782717" lon="11.6580483"><ele>436.0</ele><time>2026-04-26T15:12:40.297Z</time></trkpt><trkpt lat="43.178345" lon="11.657945"><ele>436.0</ele><time>2026-04-26T15:12:42.299Z</time></trkpt><trkpt lat="43.1784367" lon="11.657845"><ele>436.0</ele><time>2026-04-26T15:12:44.297Z</time></trkpt><trkpt lat="43.1785467" lon="11.657805"><ele>436.0</ele><time>2026-04-26T15:12:46.297Z</time></trkpt><trkpt lat="43.17861" lon="11.65779"><ele>436.0</ele><time>2026-04-26T15:12:47.296Z</time></trkpt><trkpt lat="43.1786767" lon="11.65778"><ele>436.0</ele><time>2026-04-26T15:12:48.3Z</time></trkpt><trkpt lat="43.1787633" lon="11.65771"><ele>434.1666666666667</ele><time>2026-04-26T15:12:50.297Z</time></trkpt><trkpt lat="43.1787933" lon="11.657565"><ele>432.33333333333337</ele><time>2026-04-26T15:12:52.299Z</time></trkpt><trkpt lat="43.1788067" lon="11.65746"><ele>430.5</ele><time>2026-04-26T15:12:53.297Z</time></trkpt><trkpt lat="43.1788283" lon="11.65736"><ele>428.66666666666663</ele><time>2026-04-26T15:12:54.295Z</time></trkpt><trkpt lat="43.1788583" lon="11.65726"><ele>426.8333333333333</ele><time>2026-04-26T15:12:55.295Z</time></trkpt><trkpt lat="43.1788933" lon="11.657155"><ele>425.0</ele><time>2026-04-26T15:12:56.297Z</time></trkpt><trkpt lat="43.1789233" lon="11.6570633"><ele>424.99999999999994</ele><time>2026-04-26T15:12:57.296Z</time></trkpt><trkpt lat="43.1789683" lon="11.65698"><ele>425.0</ele><time>2026-04-26T15:12:58.301Z</time></trkpt><trkpt lat="43.179015" lon="11.6569"><ele>425.0</ele><time>2026-04-26T15:12:59.297Z</time></trkpt><trkpt lat="43.1790683" lon="11.65681"><ele>425.0</ele><time>2026-04-26T15:13:00.297Z</time></trkpt><trkpt lat="43.1791283" lon="11.656725"><ele>424.99999999999994</ele><time>2026-04-26T15:13:01.294Z</time></trkpt><trkpt lat="43.1791833" lon="11.6566433"><ele>425.0</ele><time>2026-04-26T15:13:02.294Z</time></trkpt><trkpt lat="43.1792733" lon="11.6565083"><ele>424.8</ele><time>2026-04-26T15:13:04.299Z</time></trkpt><trkpt lat="43.1793117" lon="11.65643"><ele>424.6</ele><time>2026-04-26T15:13:05.296Z</time></trkpt><trkpt lat="43.17934" lon="11.6563483"><ele>424.4</ele><time>2026-04-26T15:13:06.295Z</time></trkpt><trkpt lat="43.179395" lon="11.65619"><ele>424.2</ele><time>2026-04-26T15:13:08.295Z</time></trkpt><trkpt lat="43.179425" lon="11.6561083"><ele>424.0</ele><time>2026-04-26T15:13:09.295Z</time></trkpt><trkpt lat="43.179485" lon="11.655965"><ele>421.25</ele><time>2026-04-26T15:13:11.296Z</time></trkpt><trkpt lat="43.179575" lon="11.6557783"><ele>418.5</ele><time>2026-04-26T15:13:14.294Z</time></trkpt><trkpt lat="43.17966" lon="11.6556883"><ele>415.75</ele><time>2026-04-26T15:13:16.296Z</time></trkpt><trkpt lat="43.1797533" lon="11.6555867"><ele>413.0</ele><time>2026-04-26T15:13:18.295Z</time></trkpt><trkpt lat="43.1798467" lon="11.6555"><ele>416.0</ele><time>2026-04-26T15:13:20.295Z</time></trkpt><trkpt lat="43.1799417" lon="11.6554533"><ele>419.0</ele><time>2026-04-26T15:13:22.294Z</time></trkpt><trkpt lat="43.180035" lon="11.655395"><ele>421.99999999999994</ele><time>2026-04-26T15:13:24.298Z</time></trkpt><trkpt lat="43.18014" lon="11.6553633"><ele>425.0</ele><time>2026-04-26T15:13:26.295Z</time></trkpt><trkpt lat="43.1802517" lon="11.6553167"><ele>428.0</ele><time>2026-04-26T15:13:28.296Z</time></trkpt><trkpt lat="43.18037" lon="11.6552883"><ele>426.66666666666663</ele><time>2026-04-26T15:13:30.298Z</time></trkpt><trkpt lat="43.1804967" lon="11.6552517"><ele>425.3333333333333</ele><time>2026-04-26T15:13:32.294Z</time></trkpt><trkpt lat="43.180565" lon="11.6552283"><ele>424.0</ele><time>2026-04-26T15:13:33.295Z</time></trkpt><trkpt lat="43.18063" lon="11.6552033"><ele>422.66666666666663</ele><time>2026-04-26T15:13:34.294Z</time></trkpt><trkpt lat="43.18069" lon="11.6551683"><ele>421.3333333333333</ele><time>2026-04-26T15:13:35.297Z</time></trkpt><trkpt lat="43.1808017" lon="11.6551233"><ele>420.0</ele><time>2026-04-26T15:13:37.296Z</time></trkpt><trkpt lat="43.1809067" lon="11.6550933"><ele>420.0</ele><time>2026-04-26T15:13:39.295Z</time></trkpt><trkpt lat="43.1810033" lon="11.6550433"><ele>420.0</ele><time>2026-04-26T15:13:41.3Z</time></trkpt><trkpt lat="43.1810833" lon="11.6549783"><ele>420.0</ele><time>2026-04-26T15:13:43.295Z</time></trkpt><trkpt lat="43.1811683" lon="11.6549067"><ele>420.0</ele><time>2026-04-26T15:13:45.298Z</time></trkpt><trkpt lat="43.1812433" lon="11.6548383"><ele>420.0</ele><time>2026-04-26T15:13:47.295Z</time></trkpt><trkpt lat="43.1813133" lon="11.6547767"><ele>420.0</ele><time>2026-04-26T15:13:49.295Z</time></trkpt><trkpt lat="43.1813617" lon="11.65471"><ele>420.0</ele><time>2026-04-26T15:13:51.297Z</time></trkpt><trkpt lat="43.18136" lon="11.6546183"><ele>420.0</ele><time>2026-04-26T15:13:53.299Z</time></trkpt><trkpt lat="43.1813217" lon="11.654495"><ele>420.0</ele><time>2026-04-26T15:13:55.297Z</time></trkpt><trkpt lat="43.181305" lon="11.65438"><ele>420.0</ele><time>2026-04-26T15:13:57.308Z</time></trkpt><trkpt lat="43.1813183" lon="11.6542867"><ele>420.0</ele><time>2026-04-26T15:13:59.299Z</time></trkpt><trkpt lat="43.18139" lon="11.654205"><ele>418.4</ele><time>2026-04-26T15:14:01.301Z</time></trkpt><trkpt lat="43.181495" lon="11.65416"><ele>416.8</ele><time>2026-04-26T15:14:03.295Z</time></trkpt><trkpt lat="43.1816083" lon="11.65415"><ele>415.20000000000005</ele><time>2026-04-26T15:14:05.297Z</time></trkpt><trkpt lat="43.1817083" lon="11.6541417"><ele>413.6</ele><time>2026-04-26T15:14:07.298Z</time></trkpt><trkpt lat="43.181795" lon="11.654125"><ele>412.0</ele><time>2026-04-26T15:14:09.3Z</time></trkpt><trkpt lat="43.1818833" lon="11.65406"><ele>412.00000000000006</ele><time>2026-04-26T15:14:11.295Z</time></trkpt><trkpt lat="43.18198" lon="11.6539567"><ele>412.0</ele><time>2026-04-26T15:14:13.295Z</time></trkpt><trkpt lat="43.18203" lon="11.6539"><ele>412.0</ele><time>2026-04-26T15:14:14.296Z</time></trkpt><trkpt lat="43.1820867" lon="11.6538483"><ele>412.0</ele><time>2026-04-26T15:14:15.296Z</time></trkpt><trkpt lat="43.1821417" lon="11.6537967"><ele>412.00000000000006</ele><time>2026-04-26T15:14:16.297Z</time></trkpt><trkpt lat="43.1821933" lon="11.6537417"><ele>412.0</ele><time>2026-04-26T15:14:17.296Z</time></trkpt><trkpt lat="43.18224" lon="11.6536783"><ele>410.71428571428567</ele><time>2026-04-26T15:14:18.3Z</time></trkpt><trkpt lat="43.1822767" lon="11.6536033"><ele>409.42857142857144</ele><time>2026-04-26T15:14:19.296Z</time></trkpt><trkpt lat="43.1823083" lon="11.6535217"><ele>408.1428571428571</ele><time>2026-04-26T15:14:20.299Z</time></trkpt><trkpt lat="43.1823233" lon="11.653435"><ele>406.85714285714283</ele><time>2026-04-26T15:14:21.297Z</time></trkpt><trkpt lat="43.1823317" lon="11.6533433"><ele>405.57142857142856</ele><time>2026-04-26T15:14:22.296Z</time></trkpt><trkpt lat="43.1823317" lon="11.6532433"><ele>404.2857142857143</ele><time>2026-04-26T15:14:23.297Z</time></trkpt><trkpt lat="43.182325" lon="11.65313"><ele>403.0</ele><time>2026-04-26T15:14:24.294Z</time></trkpt><trkpt lat="43.1823167" lon="11.653005"><ele>403.00000000000006</ele><time>2026-04-26T15:14:25.295Z</time></trkpt><trkpt lat="43.1823117" lon="11.6528767"><ele>403.0</ele><time>2026-04-26T15:14:26.294Z</time></trkpt><trkpt lat="43.182305" lon="11.6527517"><ele>403.0</ele><time>2026-04-26T15:14:27.295Z</time></trkpt><trkpt lat="43.1823033" lon="11.6526317"><ele>403.0</ele><time>2026-04-26T15:14:28.294Z</time></trkpt><trkpt lat="43.1823067" lon="11.652515"><ele>403.00000000000006</ele><time>2026-04-26T15:14:29.293Z</time></trkpt><trkpt lat="43.1823067" lon="11.6523967"><ele>403.0</ele><time>2026-04-26T15:14:30.297Z</time></trkpt><trkpt lat="43.1823083" lon="11.652275"><ele>401.83333333333337</ele><time>2026-04-26T15:14:31.296Z</time></trkpt><trkpt lat="43.18231" lon="11.6521517"><ele>400.6666666666667</ele><time>2026-04-26T15:14:32.294Z</time></trkpt><trkpt lat="43.1823083" lon="11.6520283"><ele>399.5</ele><time>2026-04-26T15:14:33.294Z</time></trkpt><trkpt lat="43.182305" lon="11.6519033"><ele>398.33333333333337</ele><time>2026-04-26T15:14:34.294Z</time></trkpt><trkpt lat="43.1823017" lon="11.65178"><ele>397.1666666666667</ele><time>2026-04-26T15:14:35.295Z</time></trkpt><trkpt lat="43.1823" lon="11.651665"><ele>396.0</ele><time>2026-04-26T15:14:36.295Z</time></trkpt><trkpt lat="43.182305" lon="11.6515533"><ele>396.3333333333333</ele><time>2026-04-26T15:14:37.294Z</time></trkpt><trkpt lat="43.1823217" lon="11.6514433"><ele>396.66666666666663</ele><time>2026-04-26T15:14:38.296Z</time></trkpt><trkpt lat="43.1823483" lon="11.6513317"><ele>397.0</ele><time>2026-04-26T15:14:39.294Z</time></trkpt><trkpt lat="43.1823833" lon="11.6512267"><ele>397.3333333333333</ele><time>2026-04-26T15:14:40.294Z</time></trkpt><trkpt lat="43.1824267" lon="11.6511333"><ele>397.66666666666663</ele><time>2026-04-26T15:14:41.296Z</time></trkpt><trkpt lat="43.1824717" lon="11.6510533"><ele>398.0</ele><time>2026-04-26T15:14:42.295Z</time></trkpt><trkpt lat="43.1825183" lon="11.6509917"><ele>397.99999999999994</ele><time>2026-04-26T15:14:43.295Z</time></trkpt><trkpt lat="43.182625" lon="11.6509233"><ele>398.0</ele><time>2026-04-26T15:14:45.298Z</time></trkpt><trkpt lat="43.1826917" lon="11.6509233"><ele>398.0</ele><time>2026-04-26T15:14:46.298Z</time></trkpt><trkpt lat="43.1827633" lon="11.6509467"><ele>398.0</ele><time>2026-04-26T15:14:47.297Z</time></trkpt><trkpt lat="43.182845" lon="11.6510017"><ele>397.99999999999994</ele><time>2026-04-26T15:14:48.295Z</time></trkpt><trkpt lat="43.18293" lon="11.6510533"><ele>398.0</ele><time>2026-04-26T15:14:49.297Z</time></trkpt><trkpt lat="43.183015" lon="11.651105"><ele>397.66666666666663</ele><time>2026-04-26T15:14:50.295Z</time></trkpt><trkpt lat="43.1830967" lon="11.6511333"><ele>397.3333333333333</ele><time>2026-04-26T15:14:51.296Z</time></trkpt><trkpt lat="43.183175" lon="11.651145"><ele>397.0</ele><time>2026-04-26T15:14:52.295Z</time></trkpt><trkpt lat="43.18325" lon="11.6511533"><ele>396.66666666666663</ele><time>2026-04-26T15:14:53.296Z</time></trkpt><trkpt lat="43.1833167" lon="11.65115"><ele>396.3333333333333</ele><time>2026-04-26T15:14:54.294Z</time></trkpt><trkpt lat="43.1833817" lon="11.6511367"><ele>396.0</ele><time>2026-04-26T15:14:55.294Z</time></trkpt><trkpt lat="43.1834983" lon="11.65112"><ele>396.0</ele><time>2026-04-26T15:14:57.296Z</time></trkpt><trkpt lat="43.1835933" lon="11.6510733"><ele>396.0</ele><time>2026-04-26T15:14:59.297Z</time></trkpt><trkpt lat="43.1836783" lon="11.65103"><ele>396.0</ele><time>2026-04-26T15:15:01.294Z</time></trkpt><trkpt lat="43.1837583" lon="11.6509867"><ele>396.0</ele><time>2026-04-26T15:15:03.295Z</time></trkpt><trkpt lat="43.1838583" lon="11.650915"><ele>396.0</ele><time>2026-04-26T15:15:05.295Z</time></trkpt><trkpt lat="43.1839183" lon="11.6508733"><ele>396.0</ele><time>2026-04-26T15:15:06.295Z</time></trkpt><trkpt lat="43.1839867" lon="11.6508283"><ele>396.0</ele><time>2026-04-26T15:15:07.299Z</time></trkpt><trkpt lat="43.1840633" lon="11.65078"><ele>396.0</ele><time>2026-04-26T15:15:08.297Z</time></trkpt><trkpt lat="43.1841467" lon="11.650725"><ele>396.0</ele><time>2026-04-26T15:15:09.295Z</time></trkpt><trkpt lat="43.184235" lon="11.6506683"><ele>396.0</ele><time>2026-04-26T15:15:10.294Z</time></trkpt><trkpt lat="43.184325" lon="11.65061"><ele>396.20000000000005</ele><time>2026-04-26T15:15:11.294Z</time></trkpt><trkpt lat="43.1844167" lon="11.6505533"><ele>396.40000000000003</ele><time>2026-04-26T15:15:12.294Z</time></trkpt><trkpt lat="43.1845083" lon="11.6504967"><ele>396.6</ele><time>2026-04-26T15:15:13.294Z</time></trkpt><trkpt lat="43.184595" lon="11.6504283"><ele>396.8</ele><time>2026-04-26T15:15:14.295Z</time></trkpt><trkpt lat="43.18467" lon="11.65034"><ele>397.0</ele><time>2026-04-26T15:15:15.297Z</time></trkpt><trkpt lat="43.1847367" lon="11.6502317"><ele>394.6</ele><time>2026-04-26T15:15:16.296Z</time></trkpt><trkpt lat="43.1847917" lon="11.650105"><ele>392.20000000000005</ele><time>2026-04-26T15:15:17.298Z</time></trkpt><trkpt lat="43.1848433" lon="11.649975"><ele>389.8</ele><time>2026-04-26T15:15:18.295Z</time></trkpt><trkpt lat="43.184895" lon="11.64984"><ele>387.4</ele><time>2026-04-26T15:15:19.296Z</time></trkpt><trkpt lat="43.1849433" lon="11.649695"><ele>385.0</ele><time>2026-04-26T15:15:20.296Z</time></trkpt><trkpt lat="43.1849933" lon="11.649545"><ele>384.5</ele><time>2026-04-26T15:15:21.295Z</time></trkpt><trkpt lat="43.1850483" lon="11.6493983"><ele>384.0</ele><time>2026-04-26T15:15:22.294Z</time></trkpt><trkpt lat="43.1851033" lon="11.6492517"><ele>383.5</ele><time>2026-04-26T15:15:23.297Z</time></trkpt><trkpt lat="43.1851583" lon="11.6491083"><ele>383.0</ele><time>2026-04-26T15:15:24.296Z</time></trkpt><trkpt lat="43.18521" lon="11.6489617"><ele>383.0</ele><time>2026-04-26T15:15:25.295Z</time></trkpt><trkpt lat="43.1852617" lon="11.6488133"><ele>383.0</ele><time>2026-04-26T15:15:26.295Z</time></trkpt><trkpt lat="43.18531" lon="11.64867"><ele>383.0</ele><time>2026-04-26T15:15:27.294Z</time></trkpt><trkpt lat="43.185355" lon="11.648535"><ele>383.0</ele><time>2026-04-26T15:15:28.295Z</time></trkpt><trkpt lat="43.185385" lon="11.6483933"><ele>382.75</ele><time>2026-04-26T15:15:29.294Z</time></trkpt><trkpt lat="43.1854" lon="11.64824"><ele>382.5</ele><time>2026-04-26T15:15:30.295Z</time></trkpt><trkpt lat="43.185405" lon="11.6480883"><ele>382.25</ele><time>2026-04-26T15:15:31.296Z</time></trkpt><trkpt lat="43.1854" lon="11.64793"><ele>382.0</ele><time>2026-04-26T15:15:32.295Z</time></trkpt><trkpt lat="43.1853933" lon="11.64777"><ele>381.75</ele><time>2026-04-26T15:15:33.294Z</time></trkpt><trkpt lat="43.1853833" lon="11.6476017"><ele>381.5</ele><time>2026-04-26T15:15:34.295Z</time></trkpt><trkpt lat="43.1853717" lon="11.647435"><ele>381.25</ele><time>2026-04-26T15:15:35.294Z</time></trkpt><trkpt lat="43.1853617" lon="11.6472767"><ele>381.0</ele><time>2026-04-26T15:15:36.297Z</time></trkpt><trkpt lat="43.18535" lon="11.647135"><ele>381.0</ele><time>2026-04-26T15:15:37.294Z</time></trkpt><trkpt lat="43.18534" lon="11.6470133"><ele>381.0</ele><time>2026-04-26T15:15:38.295Z</time></trkpt><trkpt lat="43.1853333" lon="11.646905"><ele>381.0</ele><time>2026-04-26T15:15:39.294Z</time></trkpt><trkpt lat="43.1853283" lon="11.6468133"><ele>381.0</ele><time>2026-04-26T15:15:40.294Z</time></trkpt><trkpt lat="43.18533" lon="11.6467267"><ele>381.0</ele><time>2026-04-26T15:15:41.294Z</time></trkpt><trkpt lat="43.18536" lon="11.6465633"><ele>381.0</ele><time>2026-04-26T15:15:43.294Z</time></trkpt><trkpt lat="43.18543" lon="11.6464117"><ele>382.20000000000005</ele><time>2026-04-26T15:15:45.298Z</time></trkpt><trkpt lat="43.1854867" lon="11.64632"><ele>383.40000000000003</ele><time>2026-04-26T15:15:46.296Z</time></trkpt><trkpt lat="43.1855533" lon="11.6462217"><ele>384.6</ele><time>2026-04-26T15:15:47.297Z</time></trkpt><trkpt lat="43.1856233" lon="11.6461117"><ele>385.8</ele><time>2026-04-26T15:15:48.293Z</time></trkpt><trkpt lat="43.1857017" lon="11.6459933"><ele>387.0</ele><time>2026-04-26T15:15:49.295Z</time></trkpt><trkpt lat="43.1857867" lon="11.64587"><ele>387.75</ele><time>2026-04-26T15:15:50.295Z</time></trkpt><trkpt lat="43.1858767" lon="11.64574"><ele>388.5</ele><time>2026-04-26T15:15:51.295Z</time></trkpt><trkpt lat="43.1859667" lon="11.6456033"><ele>389.25</ele><time>2026-04-26T15:15:52.294Z</time></trkpt><trkpt lat="43.1860583" lon="11.6454633"><ele>390.0</ele><time>2026-04-26T15:15:53.294Z</time></trkpt><trkpt lat="43.1861483" lon="11.6453233"><ele>388.5</ele><time>2026-04-26T15:15:54.294Z</time></trkpt><trkpt lat="43.18624" lon="11.6451817"><ele>387.0</ele><time>2026-04-26T15:15:55.295Z</time></trkpt><trkpt lat="43.18633" lon="11.6450417"><ele>385.5</ele><time>2026-04-26T15:15:56.295Z</time></trkpt><trkpt lat="43.18642" lon="11.6449067"><ele>384.0</ele><time>2026-04-26T15:15:57.295Z</time></trkpt><trkpt lat="43.1865033" lon="11.6447767"><ele>384.75</ele><time>2026-04-26T15:15:58.293Z</time></trkpt><trkpt lat="43.186585" lon="11.6446533"><ele>385.5</ele><time>2026-04-26T15:15:59.295Z</time></trkpt><trkpt lat="43.1866667" lon="11.6445383"><ele>386.25</ele><time>2026-04-26T15:16:00.296Z</time></trkpt><trkpt lat="43.18675" lon="11.6444283"><ele>387.0</ele><time>2026-04-26T15:16:01.294Z</time></trkpt><trkpt lat="43.1868383" lon="11.6443267"><ele>385.6</ele><time>2026-04-26T15:16:02.294Z</time></trkpt><trkpt lat="43.18693" lon="11.64424"><ele>384.20000000000005</ele><time>2026-04-26T15:16:03.296Z</time></trkpt><trkpt lat="43.1870217" lon="11.64416"><ele>382.8</ele><time>2026-04-26T15:16:04.294Z</time></trkpt><trkpt lat="43.1871117" lon="11.644085"><ele>381.4</ele><time>2026-04-26T15:16:05.294Z</time></trkpt><trkpt lat="43.1871983" lon="11.6440117"><ele>380.0</ele><time>2026-04-26T15:16:06.295Z</time></trkpt><trkpt lat="43.18728" lon="11.6439383"><ele>380.1666666666667</ele><time>2026-04-26T15:16:07.295Z</time></trkpt><trkpt lat="43.187355" lon="11.64387"><ele>380.33333333333337</ele><time>2026-04-26T15:16:08.296Z</time></trkpt><trkpt lat="43.1874183" lon="11.6438083"><ele>380.5</ele><time>2026-04-26T15:16:09.295Z</time></trkpt><trkpt lat="43.1874717" lon="11.6437583"><ele>380.6666666666667</ele><time>2026-04-26T15:16:10.296Z</time></trkpt><trkpt lat="43.187555" lon="11.64371"><ele>380.8333333333333</ele><time>2026-04-26T15:16:12.295Z</time></trkpt><trkpt lat="43.1876267" lon="11.6437633"><ele>381.0</ele><time>2026-04-26T15:16:14.298Z</time></trkpt><trkpt lat="43.1876617" lon="11.64393"><ele>381.0</ele><time>2026-04-26T15:16:16.297Z</time></trkpt><trkpt lat="43.187685" lon="11.6440267"><ele>381.0</ele><time>2026-04-26T15:16:17.297Z</time></trkpt><trkpt lat="43.1877083" lon="11.6441317"><ele>381.0</ele><time>2026-04-26T15:16:18.294Z</time></trkpt><trkpt lat="43.18773" lon="11.6442467"><ele>381.0</ele><time>2026-04-26T15:16:19.294Z</time></trkpt><trkpt lat="43.1877483" lon="11.6443783"><ele>381.0</ele><time>2026-04-26T15:16:20.297Z</time></trkpt><trkpt lat="43.1877717" lon="11.6445267"><ele>381.0</ele><time>2026-04-26T15:16:21.295Z</time></trkpt><trkpt lat="43.1877983" lon="11.6446833"><ele>380.75</ele><time>2026-04-26T15:16:22.296Z</time></trkpt><trkpt lat="43.187835" lon="11.644845"><ele>380.5</ele><time>2026-04-26T15:16:23.296Z</time></trkpt><trkpt lat="43.1878683" lon="11.645015"><ele>380.25</ele><time>2026-04-26T15:16:24.301Z</time></trkpt><trkpt lat="43.1878917" lon="11.6451933"><ele>380.0</ele><time>2026-04-26T15:16:25.294Z</time></trkpt><trkpt lat="43.1878983" lon="11.6453883"><ele>380.0</ele><time>2026-04-26T15:16:26.296Z</time></trkpt><trkpt lat="43.18788" lon="11.6455717"><ele>380.0</ele><time>2026-04-26T15:16:27.297Z</time></trkpt><trkpt lat="43.1878333" lon="11.64573"><ele>380.0</ele><time>2026-04-26T15:16:28.294Z</time></trkpt><trkpt lat="43.1877617" lon="11.64587"><ele>380.0</ele><time>2026-04-26T15:16:29.296Z</time></trkpt><trkpt lat="43.1876717" lon="11.6459917"><ele>380.0</ele><time>2026-04-26T15:16:30.296Z</time></trkpt><trkpt lat="43.1875817" lon="11.6461033"><ele>380.0</ele><time>2026-04-26T15:16:31.295Z</time></trkpt><trkpt lat="43.1874933" lon="11.646215"><ele>380.0</ele><time>2026-04-26T15:16:32.296Z</time></trkpt><trkpt lat="43.1874183" lon="11.6463367"><ele>380.0</ele><time>2026-04-26T15:16:33.295Z</time></trkpt><trkpt lat="43.1873667" lon="11.6464767"><ele>379.4</ele><time>2026-04-26T15:16:34.295Z</time></trkpt><trkpt lat="43.187335" lon="11.646625"><ele>378.8</ele><time>2026-04-26T15:16:35.295Z</time></trkpt><trkpt lat="43.187335" lon="11.6467717"><ele>378.20000000000005</ele><time>2026-04-26T15:16:36.294Z</time></trkpt><trkpt lat="43.1873667" lon="11.6469133"><ele>377.6</ele><time>2026-04-26T15:16:37.295Z</time></trkpt><trkpt lat="43.1874367" lon="11.6470233"><ele>377.0</ele><time>2026-04-26T15:16:38.297Z</time></trkpt><trkpt lat="43.18754" lon="11.647125"><ele>379.0</ele><time>2026-04-26T15:16:39.296Z</time></trkpt><trkpt lat="43.187675" lon="11.6472267"><ele>381.0</ele><time>2026-04-26T15:16:40.296Z</time></trkpt><trkpt lat="43.1878233" lon="11.6473383"><ele>383.0</ele><time>2026-04-26T15:16:41.297Z</time></trkpt><trkpt lat="43.1879583" lon="11.647465"><ele>383.0</ele><time>2026-04-26T15:16:42.3Z</time></trkpt><trkpt lat="43.188085" lon="11.6476017"><ele>383.0</ele><time>2026-04-26T15:16:43.296Z</time></trkpt><trkpt lat="43.1882" lon="11.64775"><ele>383.0</ele><time>2026-04-26T15:16:44.298Z</time></trkpt><trkpt lat="43.1883067" lon="11.6478967"><ele>380.25</ele><time>2026-04-26T15:16:45.297Z</time></trkpt><trkpt lat="43.188395" lon="11.6480583"><ele>377.5</ele><time>2026-04-26T15:16:46.297Z</time></trkpt><trkpt lat="43.1884633" lon="11.6482233"><ele>374.75</ele><time>2026-04-26T15:16:47.294Z</time></trkpt><trkpt lat="43.1885017" lon="11.6483967"><ele>372.0</ele><time>2026-04-26T15:16:48.294Z</time></trkpt><trkpt lat="43.18851" lon="11.648575"><ele>371.25</ele><time>2026-04-26T15:16:49.294Z</time></trkpt><trkpt lat="43.188515" lon="11.6487567"><ele>370.5</ele><time>2026-04-26T15:16:50.294Z</time></trkpt><trkpt lat="43.188525" lon="11.6489417"><ele>369.75</ele><time>2026-04-26T15:16:51.296Z</time></trkpt><trkpt lat="43.1885417" lon="11.6491283"><ele>369.0</ele><time>2026-04-26T15:16:52.295Z</time></trkpt><trkpt lat="43.188565" lon="11.649325"><ele>367.0</ele><time>2026-04-26T15:16:53.294Z</time></trkpt><trkpt lat="43.1885817" lon="11.6495317"><ele>365.0</ele><time>2026-04-26T15:16:54.295Z</time></trkpt><trkpt lat="43.188585" lon="11.64974"><ele>363.0</ele><time>2026-04-26T15:16:55.294Z</time></trkpt><trkpt lat="43.1885817" lon="11.64995"><ele>363.0</ele><time>2026-04-26T15:16:56.296Z</time></trkpt><trkpt lat="43.1885733" lon="11.6501517"><ele>363.0</ele><time>2026-04-26T15:16:57.295Z</time></trkpt><trkpt lat="43.18855" lon="11.6503367"><ele>363.0</ele><time>2026-04-26T15:16:58.296Z</time></trkpt><trkpt lat="43.18851" lon="11.6505017"><ele>363.0</ele><time>2026-04-26T15:16:59.294Z</time></trkpt><trkpt lat="43.1884483" lon="11.6506367"><ele>363.2</ele><time>2026-04-26T15:17:00.297Z</time></trkpt><trkpt lat="43.18837" lon="11.6507467"><ele>363.4</ele><time>2026-04-26T15:17:01.296Z</time></trkpt><trkpt lat="43.18829" lon="11.6508417"><ele>363.59999999999997</ele><time>2026-04-26T15:17:02.297Z</time></trkpt><trkpt lat="43.1882167" lon="11.6509317"><ele>363.79999999999995</ele><time>2026-04-26T15:17:03.3Z</time></trkpt><trkpt lat="43.188165" lon="11.6510317"><ele>364.0</ele><time>2026-04-26T15:17:04.296Z</time></trkpt><trkpt lat="43.1881333" lon="11.6511417"><ele>365.6</ele><time>2026-04-26T15:17:05.296Z</time></trkpt><trkpt lat="43.1881133" lon="11.6512567"><ele>367.2</ele><time>2026-04-26T15:17:06.296Z</time></trkpt><trkpt lat="43.18812" lon="11.6513883"><ele>368.8</ele><time>2026-04-26T15:17:07.297Z</time></trkpt><trkpt lat="43.18816" lon="11.6515333"><ele>370.40000000000003</ele><time>2026-04-26T15:17:08.298Z</time></trkpt><trkpt lat="43.18823" lon="11.65168"><ele>372.0</ele><time>2026-04-26T15:17:09.298Z</time></trkpt><trkpt lat="43.1882883" lon="11.6518283"><ele>367.0</ele><time>2026-04-26T15:17:10.295Z</time></trkpt><trkpt lat="43.1883067" lon="11.651975"><ele>362.0</ele><time>2026-04-26T15:17:11.297Z</time></trkpt><trkpt lat="43.1882983" lon="11.6521267"><ele>357.0</ele><time>2026-04-26T15:17:12.297Z</time></trkpt><trkpt lat="43.188255" lon="11.6522733"><ele>352.0</ele><time>2026-04-26T15:17:13.297Z</time></trkpt><trkpt lat="43.1881867" lon="11.6524183"><ele>357.0</ele><time>2026-04-26T15:17:14.297Z</time></trkpt><trkpt lat="43.188115" lon="11.6525667"><ele>362.0</ele><time>2026-04-26T15:17:15.294Z</time></trkpt><trkpt lat="43.1880483" lon="11.65271"><ele>367.0</ele><time>2026-04-26T15:17:16.296Z</time></trkpt><trkpt lat="43.1879983" lon="11.6528517"><ele>372.0</ele><time>2026-04-26T15:17:17.295Z</time></trkpt><trkpt lat="43.187965" lon="11.653005"><ele>372.0</ele><time>2026-04-26T15:17:18.295Z</time></trkpt><trkpt lat="43.1879517" lon="11.6531717"><ele>372.0</ele><time>2026-04-26T15:17:19.294Z</time></trkpt><trkpt lat="43.1879583" lon="11.6533483"><ele>372.0</ele><time>2026-04-26T15:17:20.295Z</time></trkpt><trkpt lat="43.1879833" lon="11.65354"><ele>372.0</ele><time>2026-04-26T15:17:21.296Z</time></trkpt><trkpt lat="43.188015" lon="11.6537383"><ele>369.5</ele><time>2026-04-26T15:17:22.3Z</time></trkpt><trkpt lat="43.1880333" lon="11.6539333"><ele>367.0</ele><time>2026-04-26T15:17:23.293Z</time></trkpt><trkpt lat="43.1880283" lon="11.6541183"><ele>364.5</ele><time>2026-04-26T15:17:24.296Z</time></trkpt><trkpt lat="43.1879983" lon="11.6542833"><ele>362.0</ele><time>2026-04-26T15:17:25.297Z</time></trkpt><trkpt lat="43.1879317" lon="11.65443"><ele>360.5</ele><time>2026-04-26T15:17:26.301Z</time></trkpt><trkpt lat="43.1878417" lon="11.6545667"><ele>359.0</ele><time>2026-04-26T15:17:27.293Z</time></trkpt><trkpt lat="43.1877533" lon="11.6546917"><ele>357.5</ele><time>2026-04-26T15:17:28.297Z</time></trkpt><trkpt lat="43.1876817" lon="11.654825"><ele>356.0</ele><time>2026-04-26T15:17:29.296Z</time></trkpt><trkpt lat="43.1876383" lon="11.6549733"><ele>356.0</ele><time>2026-04-26T15:17:30.297Z</time></trkpt><trkpt lat="43.187615" lon="11.65513"><ele>356.0</ele><time>2026-04-26T15:17:31.296Z</time></trkpt><trkpt lat="43.18764" lon="11.6552883"><ele>356.0</ele><time>2026-04-26T15:17:32.293Z</time></trkpt><trkpt lat="43.1877083" lon="11.6554433"><ele>356.0</ele><time>2026-04-26T15:17:33.297Z</time></trkpt><trkpt lat="43.1877883" lon="11.6555883"><ele>356.0</ele><time>2026-04-26T15:17:34.296Z</time></trkpt><trkpt lat="43.187865" lon="11.65574"><ele>356.0</ele><time>2026-04-26T15:17:35.297Z</time></trkpt><trkpt lat="43.187915" lon="11.6559133"><ele>356.0</ele><time>2026-04-26T15:17:36.297Z</time></trkpt><trkpt lat="43.18793" lon="11.6561067"><ele>356.0</ele><time>2026-04-26T15:17:37.298Z</time></trkpt><trkpt lat="43.1879167" lon="11.6563117"><ele>354.33333333333337</ele><time>2026-04-26T15:17:38.298Z</time></trkpt><trkpt lat="43.18789" lon="11.656525"><ele>352.6666666666667</ele><time>2026-04-26T15:17:39.297Z</time></trkpt><trkpt lat="43.18785" lon="11.6567383"><ele>351.0</ele><time>2026-04-26T15:17:40.296Z</time></trkpt><trkpt lat="43.1878167" lon="11.6569417"><ele>351.6666666666667</ele><time>2026-04-26T15:17:41.297Z</time></trkpt><trkpt lat="43.1877933" lon="11.6571533"><ele>352.33333333333337</ele><time>2026-04-26T15:17:42.296Z</time></trkpt><trkpt lat="43.1877783" lon="11.6573683"><ele>353.0</ele><time>2026-04-26T15:17:43.297Z</time></trkpt><trkpt lat="43.187775" lon="11.65758"><ele>353.0</ele><time>2026-04-26T15:17:44.297Z</time></trkpt><trkpt lat="43.1877933" lon="11.65778"><ele>353.0</ele><time>2026-04-26T15:17:45.297Z</time></trkpt><trkpt lat="43.187835" lon="11.6579783"><ele>353.0</ele><time>2026-04-26T15:17:46.296Z</time></trkpt><trkpt lat="43.1878917" lon="11.6581683"><ele>353.0</ele><time>2026-04-26T15:17:47.295Z</time></trkpt><trkpt lat="43.187955" lon="11.6583633"><ele>353.0</ele><time>2026-04-26T15:17:48.296Z</time></trkpt><trkpt lat="43.188005" lon="11.65857"><ele>353.0</ele><time>2026-04-26T15:17:49.296Z</time></trkpt><trkpt lat="43.18804" lon="11.6587833"><ele>353.0</ele><time>2026-04-26T15:17:50.297Z</time></trkpt><trkpt lat="43.188055" lon="11.6590017"><ele>354.33333333333337</ele><time>2026-04-26T15:17:51.295Z</time></trkpt><trkpt lat="43.188065" lon="11.65922"><ele>355.6666666666667</ele><time>2026-04-26T15:17:52.295Z</time></trkpt><trkpt lat="43.1880583" lon="11.6594367"><ele>357.0</ele><time>2026-04-26T15:17:53.297Z</time></trkpt><trkpt lat="43.1880317" lon="11.6596517"><ele>359.6666666666667</ele><time>2026-04-26T15:17:54.297Z</time></trkpt><trkpt lat="43.18799" lon="11.6598617"><ele>362.33333333333337</ele><time>2026-04-26T15:17:55.296Z</time></trkpt><trkpt lat="43.1879483" lon="11.6600717"><ele>365.0</ele><time>2026-04-26T15:17:56.294Z</time></trkpt><trkpt lat="43.1879117" lon="11.6602783"><ele>367.0</ele><time>2026-04-26T15:17:57.294Z</time></trkpt><trkpt lat="43.1878883" lon="11.6604917"><ele>369.0</ele><time>2026-04-26T15:17:58.297Z</time></trkpt><trkpt lat="43.1878767" lon="11.66071"><ele>371.0</ele><time>2026-04-26T15:17:59.296Z</time></trkpt><trkpt lat="43.1878717" lon="11.66093"><ele>373.33333333333337</ele><time>2026-04-26T15:18:00.297Z</time></trkpt><trkpt lat="43.1878683" lon="11.6611567"><ele>375.6666666666667</ele><time>2026-04-26T15:18:01.297Z</time></trkpt><trkpt lat="43.1878667" lon="11.6613833"><ele>378.0</ele><time>2026-04-26T15:18:02.298Z</time></trkpt><trkpt lat="43.18787" lon="11.6616133"><ele>378.0</ele><time>2026-04-26T15:18:03.295Z</time></trkpt><trkpt lat="43.1878933" lon="11.6618467"><ele>378.0</ele><time>2026-04-26T15:18:04.295Z</time></trkpt><trkpt lat="43.1879217" lon="11.6620733"><ele>378.0</ele><time>2026-04-26T15:18:05.295Z</time></trkpt><trkpt lat="43.18795" lon="11.6622917"><ele>380.0</ele><time>2026-04-26T15:18:06.298Z</time></trkpt><trkpt lat="43.1879617" lon="11.6625067"><ele>382.0</ele><time>2026-04-26T15:18:07.297Z</time></trkpt><trkpt lat="43.18796" lon="11.66272"><ele>384.0</ele><time>2026-04-26T15:18:08.297Z</time></trkpt><trkpt lat="43.187945" lon="11.6629333"><ele>386.66666666666663</ele><time>2026-04-26T15:18:09.296Z</time></trkpt><trkpt lat="43.18792" lon="11.6631433"><ele>389.3333333333333</ele><time>2026-04-26T15:18:10.296Z</time></trkpt><trkpt lat="43.1878833" lon="11.66335"><ele>392.0</ele><time>2026-04-26T15:18:11.296Z</time></trkpt><trkpt lat="43.18784" lon="11.6635517"><ele>393.66666666666663</ele><time>2026-04-26T15:18:12.296Z</time></trkpt><trkpt lat="43.187795" lon="11.6637517"><ele>395.33333333333337</ele><time>2026-04-26T15:18:13.297Z</time></trkpt><trkpt lat="43.18775" lon="11.6639533"><ele>397.0</ele><time>2026-04-26T15:18:14.297Z</time></trkpt><trkpt lat="43.1877183" lon="11.66416"><ele>397.0</ele><time>2026-04-26T15:18:15.297Z</time></trkpt><trkpt lat="43.1877067" lon="11.6643717"><ele>397.0</ele><time>2026-04-26T15:18:16.298Z</time></trkpt><trkpt lat="43.1877083" lon="11.6645833"><ele>397.0</ele><time>2026-04-26T15:18:17.298Z</time></trkpt><trkpt lat="43.1877167" lon="11.6647933"><ele>399.33333333333337</ele><time>2026-04-26T15:18:18.297Z</time></trkpt><trkpt lat="43.1877283" lon="11.66501"><ele>401.66666666666663</ele><time>2026-04-26T15:18:19.299Z</time></trkpt><trkpt lat="43.1877283" lon="11.6652217"><ele>404.0</ele><time>2026-04-26T15:18:20.3Z</time></trkpt><trkpt lat="43.1877317" lon="11.6654317"><ele>405.25</ele><time>2026-04-26T15:18:21.297Z</time></trkpt><trkpt lat="43.1877383" lon="11.6656367"><ele>406.5</ele><time>2026-04-26T15:18:22.296Z</time></trkpt><trkpt lat="43.1877483" lon="11.66583"><ele>407.75</ele><time>2026-04-26T15:18:23.298Z</time></trkpt><trkpt lat="43.1877617" lon="11.6660067"><ele>409.0</ele><time>2026-04-26T15:18:24.297Z</time></trkpt><trkpt lat="43.18778" lon="11.6661733"><ele>410.4</ele><time>2026-04-26T15:18:25.295Z</time></trkpt><trkpt lat="43.187795" lon="11.6663267"><ele>411.79999999999995</ele><time>2026-04-26T15:18:26.295Z</time></trkpt><trkpt lat="43.1878083" lon="11.666465"><ele>413.20000000000005</ele><time>2026-04-26T15:18:27.297Z</time></trkpt><trkpt lat="43.1878167" lon="11.6665917"><ele>414.6</ele><time>2026-04-26T15:18:28.297Z</time></trkpt><trkpt lat="43.1878267" lon="11.6667117"><ele>416.0</ele><time>2026-04-26T15:18:29.296Z</time></trkpt><trkpt lat="43.1878367" lon="11.6668317"><ele>417.66666666666663</ele><time>2026-04-26T15:18:30.299Z</time></trkpt><trkpt lat="43.1878417" lon="11.6669467"><ele>419.3333333333333</ele><time>2026-04-26T15:18:31.295Z</time></trkpt><trkpt lat="43.187845" lon="11.667055"><ele>421.0</ele><time>2026-04-26T15:18:32.298Z</time></trkpt><trkpt lat="43.1878567" lon="11.6671567"><ele>422.66666666666663</ele><time>2026-04-26T15:18:33.296Z</time></trkpt><trkpt lat="43.187865" lon="11.6672567"><ele>424.3333333333333</ele><time>2026-04-26T15:18:34.296Z</time></trkpt><trkpt lat="43.187865" lon="11.6673567"><ele>426.0</ele><time>2026-04-26T15:18:35.296Z</time></trkpt><trkpt lat="43.1878583" lon="11.6674533"><ele>426.0</ele><time>2026-04-26T15:18:36.297Z</time></trkpt><trkpt lat="43.187845" lon="11.6675517"><ele>426.0</ele><time>2026-04-26T15:18:37.298Z</time></trkpt><trkpt lat="43.187825" lon="11.6676467"><ele>426.0</ele><time>2026-04-26T15:18:38.297Z</time></trkpt><trkpt lat="43.1878067" lon="11.6677417"><ele>426.0</ele><time>2026-04-26T15:18:39.294Z</time></trkpt><trkpt lat="43.1877883" lon="11.6678333"><ele>426.0</ele><time>2026-04-26T15:18:40.296Z</time></trkpt><trkpt lat="43.1877683" lon="11.6679167"><ele>426.0</ele><time>2026-04-26T15:18:41.297Z</time></trkpt><trkpt lat="43.1877317" lon="11.6680633"><ele>427.6</ele><time>2026-04-26T15:18:43.298Z</time></trkpt><trkpt lat="43.1877117" lon="11.6681583"><ele>429.20000000000005</ele><time>2026-04-26T15:18:45.298Z</time></trkpt><trkpt lat="43.1877517" lon="11.6682683"><ele>430.79999999999995</ele><time>2026-04-26T15:18:48.299Z</time></trkpt><trkpt lat="43.1878217" lon="11.6683467"><ele>432.4</ele><time>2026-04-26T15:18:50.298Z</time></trkpt><trkpt lat="43.1879133" lon="11.668385"><ele>434.0</ele><time>2026-04-26T15:18:52.299Z</time></trkpt><trkpt lat="43.18803" lon="11.6684"><ele>434.0</ele><time>2026-04-26T15:18:54.296Z</time></trkpt><trkpt lat="43.1881533" lon="11.6684067"><ele>434.0</ele><time>2026-04-26T15:18:56.297Z</time></trkpt><trkpt lat="43.1882767" lon="11.6684233"><ele>434.0</ele><time>2026-04-26T15:18:58.298Z</time></trkpt><trkpt lat="43.18839" lon="11.6684483"><ele>434.0</ele><time>2026-04-26T15:19:00.297Z</time></trkpt><trkpt lat="43.18849" lon="11.668475"><ele>436.0</ele><time>2026-04-26T15:19:02.3Z</time></trkpt><trkpt lat="43.1885817" lon="11.668465"><ele>438.0</ele><time>2026-04-26T15:19:04.297Z</time></trkpt><trkpt lat="43.1886617" lon="11.6683967"><ele>440.0</ele><time>2026-04-26T15:19:06.296Z</time></trkpt><trkpt lat="43.188715" lon="11.6682833"><ele>442.0</ele><time>2026-04-26T15:19:08.296Z</time></trkpt><trkpt lat="43.1887483" lon="11.6681467"><ele>444.0</ele><time>2026-04-26T15:19:10.298Z</time></trkpt><trkpt lat="43.1887767" lon="11.668015"><ele>444.0</ele><time>2026-04-26T15:19:12.298Z</time></trkpt><trkpt lat="43.1888233" lon="11.6679117"><ele>444.0</ele><time>2026-04-26T15:19:14.298Z</time></trkpt><trkpt lat="43.188885" lon="11.6678367"><ele>444.0</ele><time>2026-04-26T15:19:16.297Z</time></trkpt><trkpt lat="43.188965" lon="11.667775"><ele>444.0</ele><time>2026-04-26T15:19:18.298Z</time></trkpt><trkpt lat="43.18904" lon="11.6677067"><ele>444.0</ele><time>2026-04-26T15:19:20.301Z</time></trkpt><trkpt lat="43.1890733" lon="11.6676233"><ele>444.0</ele><time>2026-04-26T15:19:22.297Z</time></trkpt><trkpt lat="43.18906" lon="11.6675083"><ele>444.4</ele><time>2026-04-26T15:19:25.297Z</time></trkpt><trkpt lat="43.1889317" lon="11.6674983"><ele>444.79999999999995</ele><time>2026-04-26T15:21:25.298Z</time></trkpt><trkpt lat="43.1888083" lon="11.6675183"><ele>445.20000000000005</ele><time>2026-04-26T15:22:01.296Z</time></trkpt><trkpt lat="43.1887433" lon="11.6675483"><ele>445.6</ele><time>2026-04-26T15:22:10.293Z</time></trkpt><trkpt lat="43.1886817" lon="11.667455"><ele>446.0</ele><time>2026-04-26T15:22:15.293Z</time></trkpt><trkpt lat="43.1887667" lon="11.6673367"><ele>445.99999999999994</ele><time>2026-04-26T15:22:17.292Z</time></trkpt><trkpt lat="43.1888333" lon="11.667245"><ele>446.0</ele><time>2026-04-26T15:22:19.292Z</time></trkpt><trkpt lat="43.1889267" lon="11.6671917"><ele>446.0</ele><time>2026-04-26T15:22:20.294Z</time></trkpt><trkpt lat="43.18898" lon="11.6671333"><ele>446.0</ele><time>2026-04-26T15:22:21.296Z</time></trkpt><trkpt lat="43.189015" lon="11.667055"><ele>445.99999999999994</ele><time>2026-04-26T15:22:23.296Z</time></trkpt><trkpt lat="43.1890333" lon="11.666955"><ele>446.0</ele><time>2026-04-26T15:22:25.294Z</time></trkpt><trkpt lat="43.1890067" lon="11.666835"><ele>445.99999999999994</ele><time>2026-04-26T15:22:27.297Z</time></trkpt><trkpt lat="43.1889267" lon="11.666745"><ele>446.0</ele><time>2026-04-26T15:22:29.297Z</time></trkpt><trkpt lat="43.188905" lon="11.6666633"><ele>446.0</ele><time>2026-04-26T15:22:31.296Z</time></trkpt><trkpt lat="43.1888833" lon="11.6665633"><ele>446.0</ele><time>2026-04-26T15:22:34.297Z</time></trkpt><trkpt lat="43.1888083" lon="11.6665667"><ele>445.99999999999994</ele><time>2026-04-26T15:22:38.296Z</time></trkpt><trkpt lat="43.1887233" lon="11.6666483"><ele>446.0</ele><time>2026-04-26T15:22:40.295Z</time></trkpt><trkpt lat="43.1886983" lon="11.6669783"><ele>446.0</ele><time>2026-04-26T15:22:47.296Z</time></trkpt><trkpt lat="43.1887167" lon="11.6671683"><ele>446.0</ele><time>2026-04-26T15:22:49.297Z</time></trkpt><trkpt lat="43.18873" lon="11.6672633"><ele>446.0</ele><time>2026-04-26T15:22:50.297Z</time></trkpt><trkpt lat="43.1887433" lon="11.66748"><ele>446.0</ele><time>2026-04-26T15:22:52.296Z</time></trkpt><trkpt lat="43.18878" lon="11.6675983"><ele>445.99999999999994</ele><time>2026-04-26T15:23:16.296Z</time></trkpt><trkpt lat="43.1888383" lon="11.6674933"><ele>446.0</ele><time>2026-04-26T15:23:21.296Z</time></trkpt><trkpt lat="43.1889267" lon="11.6675783"><ele>446.0</ele><time>2026-04-26T15:27:00.297Z</time></trkpt><trkpt lat="43.1888841" lon="11.6674675"><ele>446.0</ele><time>2026-04-26T15:34:55.295Z</time></trkpt><trkpt lat="43.1889174" lon="11.6673785"><ele>445.99999999999994</ele><time>2026-04-26T15:40:12.295Z</time></trkpt><trkpt lat="43.1889879" lon="11.6673845"><ele>446.0</ele><time>2026-04-26T15:40:29.296Z</time></trkpt><trkpt lat="43.1889462" lon="11.6674726"><ele>446.0</ele><time>2026-04-26T15:43:18.296Z</time></trkpt><trkpt lat="43.1888918" lon="11.6675218"><ele>446.0</ele><time>2026-04-26T15:43:29.298Z</time></trkpt><trkpt lat="43.1888275" lon="11.6676469"><ele>446.0</ele><time>2026-04-26T15:43:31.299Z</time></trkpt><trkpt lat="43.1888169" lon="11.6677668"><ele>446.0</ele><time>2026-04-26T15:43:33.301Z</time></trkpt><trkpt lat="43.1888264" lon="11.6679249"><ele>446.0</ele><time>2026-04-26T15:43:35.294Z</time></trkpt><trkpt lat="43.1888049" lon="11.668086"><ele>445.66666666666663</ele><time>2026-04-26T15:43:37.296Z</time></trkpt><trkpt lat="43.1887848" lon="11.6682023"><ele>445.3333333333333</ele><time>2026-04-26T15:43:39.296Z</time></trkpt><trkpt lat="43.1887605" lon="11.6682826"><ele>445.0</ele><time>2026-04-26T15:43:42.299Z</time></trkpt><trkpt lat="43.188712" lon="11.6683527"><ele>444.66666666666663</ele><time>2026-04-26T15:44:03.295Z</time></trkpt><trkpt lat="43.1886412" lon="11.6684088"><ele>444.3333333333333</ele><time>2026-04-26T15:44:06.298Z</time></trkpt><trkpt lat="43.1885867" lon="11.668504"><ele>444.0</ele><time>2026-04-26T15:44:44.299Z</time></trkpt><trkpt lat="43.188505" lon="11.6685261"><ele>444.0</ele><time>2026-04-26T15:44:46.298Z</time></trkpt><trkpt lat="43.1883993" lon="11.6685064"><ele>444.0</ele><time>2026-04-26T15:44:48.299Z</time></trkpt><trkpt lat="43.1883282" lon="11.6684942"><ele>444.0</ele><time>2026-04-26T15:44:49.297Z</time></trkpt><trkpt lat="43.1882461" lon="11.6684715"><ele>444.0</ele><time>2026-04-26T15:44:50.299Z</time></trkpt><trkpt lat="43.1881622" lon="11.6684468"><ele>444.0</ele><time>2026-04-26T15:44:51.299Z</time></trkpt><trkpt lat="43.1880817" lon="11.66843"><ele>444.0</ele><time>2026-04-26T15:44:52.297Z</time></trkpt><trkpt lat="43.188008" lon="11.6684148"><ele>442.0</ele><time>2026-04-26T15:44:53.298Z</time></trkpt><trkpt lat="43.1879412" lon="11.6683963"><ele>440.0</ele><time>2026-04-26T15:44:54.296Z</time></trkpt><trkpt lat="43.1878328" lon="11.6683477"><ele>438.0</ele><time>2026-04-26T15:44:56.296Z</time></trkpt><trkpt lat="43.1877569" lon="11.6682606"><ele>436.0</ele><time>2026-04-26T15:44:58.298Z</time></trkpt><trkpt lat="43.1877377" lon="11.6681517"><ele>434.0</ele><time>2026-04-26T15:45:00.294Z</time></trkpt><trkpt lat="43.187767" lon="11.6680193"><ele>433.99999999999994</ele><time>2026-04-26T15:45:02.297Z</time></trkpt><trkpt lat="43.1878035" lon="11.6678656"><ele>434.0</ele><time>2026-04-26T15:45:04.294Z</time></trkpt><trkpt lat="43.1878366" lon="11.6677021"><ele>434.0</ele><time>2026-04-26T15:45:06.296Z</time></trkpt><trkpt lat="43.1878554" lon="11.6676189"><ele>434.0</ele><time>2026-04-26T15:45:07.296Z</time></trkpt><trkpt lat="43.1878724" lon="11.6675344"><ele>433.99999999999994</ele><time>2026-04-26T15:45:08.296Z</time></trkpt><trkpt lat="43.1878839" lon="11.6674426"><ele>434.0</ele><time>2026-04-26T15:45:09.296Z</time></trkpt><trkpt lat="43.1878865" lon="11.667344"><ele>432.66666666666663</ele><time>2026-04-26T15:45:10.295Z</time></trkpt><trkpt lat="43.1878812" lon="11.6672408"><ele>431.3333333333333</ele><time>2026-04-26T15:45:11.297Z</time></trkpt><trkpt lat="43.1878733" lon="11.6671338"><ele>430.0</ele><time>2026-04-26T15:45:12.297Z</time></trkpt><trkpt lat="43.1878652" lon="11.6670196"><ele>428.66666666666663</ele><time>2026-04-26T15:45:13.295Z</time></trkpt><trkpt lat="43.1878613" lon="11.6668975"><ele>427.3333333333333</ele><time>2026-04-26T15:45:14.299Z</time></trkpt><trkpt lat="43.187855" lon="11.6667646"><ele>426.0</ele><time>2026-04-26T15:45:15.296Z</time></trkpt><trkpt lat="43.1878466" lon="11.6666265"><ele>424.0</ele><time>2026-04-26T15:45:16.298Z</time></trkpt><trkpt lat="43.1878369" lon="11.6664825"><ele>422.0</ele><time>2026-04-26T15:45:17.298Z</time></trkpt><trkpt lat="43.1878271" lon="11.6663398"><ele>420.0</ele><time>2026-04-26T15:45:18.298Z</time></trkpt><trkpt lat="43.1878157" lon="11.6661953"><ele>418.0</ele><time>2026-04-26T15:45:19.299Z</time></trkpt><trkpt lat="43.1878091" lon="11.6660447"><ele>416.0</ele><time>2026-04-26T15:45:20.298Z</time></trkpt><trkpt lat="43.1878005" lon="11.6658884"><ele>414.25</ele><time>2026-04-26T15:45:21.298Z</time></trkpt><trkpt lat="43.1877837" lon="11.6657252"><ele>412.5</ele><time>2026-04-26T15:45:22.296Z</time></trkpt><trkpt lat="43.1877684" lon="11.6655625"><ele>410.75</ele><time>2026-04-26T15:45:23.296Z</time></trkpt><trkpt lat="43.1877611" lon="11.6653982"><ele>409.0</ele><time>2026-04-26T15:45:24.298Z</time></trkpt><trkpt lat="43.1877577" lon="11.6652345"><ele>407.75</ele><time>2026-04-26T15:45:25.297Z</time></trkpt><trkpt lat="43.1877569" lon="11.6650682"><ele>406.5</ele><time>2026-04-26T15:45:26.297Z</time></trkpt><trkpt lat="43.187749" lon="11.6649016"><ele>405.25</ele><time>2026-04-26T15:45:27.296Z</time></trkpt><trkpt lat="43.1877386" lon="11.6647305"><ele>404.0</ele><time>2026-04-26T15:45:28.295Z</time></trkpt><trkpt lat="43.18773" lon="11.6645554"><ele>402.25</ele><time>2026-04-26T15:45:29.294Z</time></trkpt><trkpt lat="43.1877293" lon="11.6643771"><ele>400.5</ele><time>2026-04-26T15:45:30.297Z</time></trkpt><trkpt lat="43.1877345" lon="11.6641971"><ele>398.75</ele><time>2026-04-26T15:45:31.296Z</time></trkpt><trkpt lat="43.1877518" lon="11.6640179"><ele>397.0</ele><time>2026-04-26T15:45:32.296Z</time></trkpt><trkpt lat="43.1877806" lon="11.6638429"><ele>397.0</ele><time>2026-04-26T15:45:33.296Z</time></trkpt><trkpt lat="43.1878145" lon="11.6636727"><ele>397.0</ele><time>2026-04-26T15:45:34.295Z</time></trkpt><trkpt lat="43.1878515" lon="11.6634985"><ele>397.0</ele><time>2026-04-26T15:45:35.297Z</time></trkpt><trkpt lat="43.1878893" lon="11.6633247"><ele>397.0</ele><time>2026-04-26T15:45:36.296Z</time></trkpt><trkpt lat="43.1879237" lon="11.66315"><ele>395.75</ele><time>2026-04-26T15:45:37.295Z</time></trkpt><trkpt lat="43.1879506" lon="11.6629731"><ele>394.5</ele><time>2026-04-26T15:45:38.299Z</time></trkpt><trkpt lat="43.187967" lon="11.6627981"><ele>393.25</ele><time>2026-04-26T15:45:39.297Z</time></trkpt><trkpt lat="43.1879769" lon="11.6626217"><ele>392.0</ele><time>2026-04-26T15:45:40.296Z</time></trkpt><trkpt lat="43.187976" lon="11.662448"><ele>390.0</ele><time>2026-04-26T15:45:41.295Z</time></trkpt><trkpt lat="43.1879657" lon="11.6622748"><ele>388.0</ele><time>2026-04-26T15:45:42.3Z</time></trkpt><trkpt lat="43.1879438" lon="11.662108"><ele>386.0</ele><time>2026-04-26T15:45:43.295Z</time></trkpt><trkpt lat="43.1879155" lon="11.6619416"><ele>384.0</ele><time>2026-04-26T15:45:44.296Z</time></trkpt><trkpt lat="43.1878941" lon="11.6617673"><ele>382.5</ele><time>2026-04-26T15:45:45.298Z</time></trkpt><trkpt lat="43.1878805" lon="11.6615917"><ele>381.0</ele><time>2026-04-26T15:45:46.299Z</time></trkpt><trkpt lat="43.1878741" lon="11.6614214"><ele>379.5</ele><time>2026-04-26T15:45:47.295Z</time></trkpt><trkpt lat="43.1878727" lon="11.66125"><ele>378.0</ele><time>2026-04-26T15:45:48.297Z</time></trkpt><trkpt lat="43.1878719" lon="11.661077"><ele>376.25</ele><time>2026-04-26T15:45:49.294Z</time></trkpt><trkpt lat="43.1878699" lon="11.6609"><ele>374.5</ele><time>2026-04-26T15:45:50.296Z</time></trkpt><trkpt lat="43.187876" lon="11.6607173"><ele>372.75</ele><time>2026-04-26T15:45:51.296Z</time></trkpt><trkpt lat="43.1878875" lon="11.6605304"><ele>371.0</ele><time>2026-04-26T15:45:52.297Z</time></trkpt><trkpt lat="43.1879055" lon="11.6603435"><ele>369.5</ele><time>2026-04-26T15:45:53.295Z</time></trkpt><trkpt lat="43.1879323" lon="11.660158"><ele>368.0</ele><time>2026-04-26T15:45:54.297Z</time></trkpt><trkpt lat="43.187969" lon="11.6599759"><ele>366.5</ele><time>2026-04-26T15:45:55.298Z</time></trkpt><trkpt lat="43.1880077" lon="11.6597948"><ele>365.0</ele><time>2026-04-26T15:45:56.299Z</time></trkpt><trkpt lat="43.1880422" lon="11.6596151"><ele>363.0</ele><time>2026-04-26T15:45:57.295Z</time></trkpt><trkpt lat="43.1880644" lon="11.6594305"><ele>361.0</ele><time>2026-04-26T15:45:58.296Z</time></trkpt><trkpt lat="43.1880692" lon="11.659248"><ele>359.0</ele><time>2026-04-26T15:45:59.297Z</time></trkpt><trkpt lat="43.1880653" lon="11.6590647"><ele>357.0</ele><time>2026-04-26T15:46:00.296Z</time></trkpt><trkpt lat="43.1880537" lon="11.6588831"><ele>357.0</ele><time>2026-04-26T15:46:01.293Z</time></trkpt><trkpt lat="43.1880354" lon="11.6587045"><ele>357.0</ele><time>2026-04-26T15:46:02.297Z</time></trkpt><trkpt lat="43.188009" lon="11.6585311"><ele>357.0</ele><time>2026-04-26T15:46:03.296Z</time></trkpt><trkpt lat="43.1879705" lon="11.6583613"><ele>357.0</ele><time>2026-04-26T15:46:04.297Z</time></trkpt><trkpt lat="43.1879204" lon="11.6581943"><ele>356.0</ele><time>2026-04-26T15:46:05.295Z</time></trkpt><trkpt lat="43.1878667" lon="11.6580297"><ele>355.0</ele><time>2026-04-26T15:46:06.296Z</time></trkpt><trkpt lat="43.1878219" lon="11.6578601"><ele>354.0</ele><time>2026-04-26T15:46:07.295Z</time></trkpt><trkpt lat="43.1877935" lon="11.6576836"><ele>353.0</ele><time>2026-04-26T15:46:08.296Z</time></trkpt><trkpt lat="43.1877834" lon="11.657502"><ele>353.0</ele><time>2026-04-26T15:46:09.296Z</time></trkpt><trkpt lat="43.187784" lon="11.6573152"><ele>353.0</ele><time>2026-04-26T15:46:10.297Z</time></trkpt><trkpt lat="43.1877972" lon="11.6571175"><ele>353.0</ele><time>2026-04-26T15:46:11.298Z</time></trkpt><trkpt lat="43.1878207" lon="11.6569112"><ele>353.0</ele><time>2026-04-26T15:46:12.298Z</time></trkpt><trkpt lat="43.1878496" lon="11.6566965"><ele>352.33333333333337</ele><time>2026-04-26T15:46:13.297Z</time></trkpt><trkpt lat="43.1878828" lon="11.6564757"><ele>351.6666666666667</ele><time>2026-04-26T15:46:14.299Z</time></trkpt><trkpt lat="43.1879133" lon="11.6562629"><ele>351.0</ele><time>2026-04-26T15:46:15.297Z</time></trkpt><trkpt lat="43.1879315" lon="11.6560666"><ele>352.25</ele><time>2026-04-26T15:46:16.298Z</time></trkpt><trkpt lat="43.1879246" lon="11.6558905"><ele>353.5</ele><time>2026-04-26T15:46:17.297Z</time></trkpt><trkpt lat="43.1878887" lon="11.6557257"><ele>354.75</ele><time>2026-04-26T15:46:18.296Z</time></trkpt><trkpt lat="43.1878226" lon="11.655564"><ele>356.0</ele><time>2026-04-26T15:46:19.296Z</time></trkpt><trkpt lat="43.1877459" lon="11.6554105"><ele>356.0</ele><time>2026-04-26T15:46:20.297Z</time></trkpt><trkpt lat="43.1876823" lon="11.6552568"><ele>356.0</ele><time>2026-04-26T15:46:21.296Z</time></trkpt><trkpt lat="43.1876471" lon="11.6550985"><ele>356.0</ele><time>2026-04-26T15:46:22.295Z</time></trkpt><trkpt lat="43.1876504" lon="11.6549413"><ele>356.0</ele><time>2026-04-26T15:46:23.296Z</time></trkpt><trkpt lat="43.187684" lon="11.6547937"><ele>356.0</ele><time>2026-04-26T15:46:24.298Z</time></trkpt><trkpt lat="43.1877467" lon="11.6546566"><ele>356.0</ele><time>2026-04-26T15:46:25.298Z</time></trkpt><trkpt lat="43.1878333" lon="11.6545324"><ele>356.0</ele><time>2026-04-26T15:46:26.299Z</time></trkpt><trkpt lat="43.1879215" lon="11.6544096"><ele>356.0</ele><time>2026-04-26T15:46:27.298Z</time></trkpt><trkpt lat="43.1879954" lon="11.6542815"><ele>357.5</ele><time>2026-04-26T15:46:28.298Z</time></trkpt><trkpt lat="43.1880451" lon="11.6541338"><ele>359.0</ele><time>2026-04-26T15:46:29.297Z</time></trkpt><trkpt lat="43.1880675" lon="11.6539664"><ele>360.5</ele><time>2026-04-26T15:46:30.298Z</time></trkpt><trkpt lat="43.1880561" lon="11.6537747"><ele>362.0</ele><time>2026-04-26T15:46:31.297Z</time></trkpt><trkpt lat="43.1880173" lon="11.653569"><ele>364.5</ele><time>2026-04-26T15:46:32.298Z</time></trkpt><trkpt lat="43.1879844" lon="11.6533657"><ele>367.0</ele><time>2026-04-26T15:46:33.295Z</time></trkpt><trkpt lat="43.1879715" lon="11.6531678"><ele>369.5</ele><time>2026-04-26T15:46:34.297Z</time></trkpt><trkpt lat="43.1879804" lon="11.6529865"><ele>372.0</ele><time>2026-04-26T15:46:35.298Z</time></trkpt><trkpt lat="43.1880194" lon="11.6528265"><ele>373.0</ele><time>2026-04-26T15:46:36.301Z</time></trkpt><trkpt lat="43.1880838" lon="11.6526791"><ele>374.0</ele><time>2026-04-26T15:46:37.297Z</time></trkpt><trkpt lat="43.1881603" lon="11.6525304"><ele>375.0</ele><time>2026-04-26T15:46:38.299Z</time></trkpt><trkpt lat="43.1882413" lon="11.6523872"><ele>376.0</ele><time>2026-04-26T15:46:39.298Z</time></trkpt><trkpt lat="43.1883124" lon="11.6522557"><ele>371.6</ele><time>2026-04-26T15:46:40.297Z</time></trkpt><trkpt lat="43.1883587" lon="11.6521271"><ele>367.20000000000005</ele><time>2026-04-26T15:46:41.296Z</time></trkpt><trkpt lat="43.18839" lon="11.6519989"><ele>362.79999999999995</ele><time>2026-04-26T15:46:42.296Z</time></trkpt><trkpt lat="43.1884013" lon="11.6518636"><ele>358.4</ele><time>2026-04-26T15:46:43.297Z</time></trkpt><trkpt lat="43.1883808" lon="11.6517223"><ele>354.0</ele><time>2026-04-26T15:46:44.3Z</time></trkpt><trkpt lat="43.1883306" lon="11.6515813"><ele>354.0</ele><time>2026-04-26T15:46:45.298Z</time></trkpt><trkpt lat="43.1882651" lon="11.6514411"><ele>354.0</ele><time>2026-04-26T15:46:46.297Z</time></trkpt><trkpt lat="43.188204" lon="11.6513049"><ele>354.0</ele><time>2026-04-26T15:46:47.294Z</time></trkpt><trkpt lat="43.1881715" lon="11.6511732"><ele>354.0</ele><time>2026-04-26T15:46:48.297Z</time></trkpt><trkpt lat="43.1881814" lon="11.6510422"><ele>354.0</ele><time>2026-04-26T15:46:49.294Z</time></trkpt><trkpt lat="43.1882171" lon="11.6509206"><ele>354.25</ele><time>2026-04-26T15:46:50.296Z</time></trkpt><trkpt lat="43.1882909" lon="11.6508088"><ele>354.5</ele><time>2026-04-26T15:46:51.296Z</time></trkpt><trkpt lat="43.1883797" lon="11.6506884"><ele>354.75</ele><time>2026-04-26T15:46:52.296Z</time></trkpt><trkpt lat="43.1884648" lon="11.6505578"><ele>355.0</ele><time>2026-04-26T15:46:53.296Z</time></trkpt><trkpt lat="43.1885229" lon="11.6504041"><ele>357.0</ele><time>2026-04-26T15:46:54.299Z</time></trkpt><trkpt lat="43.188553" lon="11.6502256"><ele>359.0</ele><time>2026-04-26T15:46:55.296Z</time></trkpt><trkpt lat="43.1885701" lon="11.6500266"><ele>361.0</ele><time>2026-04-26T15:46:56.298Z</time></trkpt><trkpt lat="43.1885763" lon="11.6498134"><ele>363.0</ele><time>2026-04-26T15:46:57.299Z</time></trkpt><trkpt lat="43.1885817" lon="11.6495997"><ele>365.0</ele><time>2026-04-26T15:46:58.296Z</time></trkpt><trkpt lat="43.1885787" lon="11.6493847"><ele>367.0</ele><time>2026-04-26T15:46:59.296Z</time></trkpt><trkpt lat="43.1885551" lon="11.6491705"><ele>369.0</ele><time>2026-04-26T15:47:00.299Z</time></trkpt><trkpt lat="43.1885251" lon="11.6489702"><ele>369.0</ele><time>2026-04-26T15:47:01.298Z</time></trkpt><trkpt lat="43.1885117" lon="11.6487821"><ele>369.0</ele><time>2026-04-26T15:47:02.297Z</time></trkpt><trkpt lat="43.188508" lon="11.648598"><ele>369.0</ele><time>2026-04-26T15:47:03.296Z</time></trkpt><trkpt lat="43.1885033" lon="11.64842"><ele>369.0</ele><time>2026-04-26T15:47:04.298Z</time></trkpt><trkpt lat="43.1884823" lon="11.6482581"><ele>369.75</ele><time>2026-04-26T15:47:05.298Z</time></trkpt><trkpt lat="43.1884368" lon="11.6480982"><ele>370.5</ele><time>2026-04-26T15:47:06.297Z</time></trkpt><trkpt lat="43.1883659" lon="11.6479482"><ele>371.25</ele><time>2026-04-26T15:47:07.296Z</time></trkpt><trkpt lat="43.1882817" lon="11.647803"><ele>372.0</ele><time>2026-04-26T15:47:08.297Z</time></trkpt><trkpt lat="43.1881835" lon="11.6476548"><ele>375.6666666666667</ele><time>2026-04-26T15:47:09.296Z</time></trkpt><trkpt lat="43.1880688" lon="11.6475182"><ele>379.33333333333337</ele><time>2026-04-26T15:47:10.298Z</time></trkpt><trkpt lat="43.1879463" lon="11.6473878"><ele>383.0</ele><time>2026-04-26T15:47:11.297Z</time></trkpt><trkpt lat="43.1878179" lon="11.6472632"><ele>383.0</ele><time>2026-04-26T15:47:12.297Z</time></trkpt><trkpt lat="43.1876826" lon="11.6471621"><ele>383.0</ele><time>2026-04-26T15:47:13.296Z</time></trkpt><trkpt lat="43.1875637" lon="11.6470633"><ele>383.0</ele><time>2026-04-26T15:47:14.298Z</time></trkpt><trkpt lat="43.1874669" lon="11.646968"><ele>383.0</ele><time>2026-04-26T15:47:15.297Z</time></trkpt><trkpt lat="43.1873942" lon="11.6468546"><ele>381.79999999999995</ele><time>2026-04-26T15:47:16.297Z</time></trkpt><trkpt lat="43.187351" lon="11.6467293"><ele>380.6</ele><time>2026-04-26T15:47:17.296Z</time></trkpt><trkpt lat="43.1873373" lon="11.6465902"><ele>379.4</ele><time>2026-04-26T15:47:18.298Z</time></trkpt><trkpt lat="43.1873568" lon="11.6464422"><ele>378.20000000000005</ele><time>2026-04-26T15:47:19.296Z</time></trkpt><trkpt lat="43.1874113" lon="11.6462973"><ele>377.0</ele><time>2026-04-26T15:47:20.298Z</time></trkpt><trkpt lat="43.1874895" lon="11.6461576"><ele>377.75</ele><time>2026-04-26T15:47:21.296Z</time></trkpt><trkpt lat="43.1875913" lon="11.6460215"><ele>378.5</ele><time>2026-04-26T15:47:22.294Z</time></trkpt><trkpt lat="43.1876982" lon="11.6459038"><ele>379.25</ele><time>2026-04-26T15:47:23.297Z</time></trkpt><trkpt lat="43.1877964" lon="11.6457875"><ele>380.0</ele><time>2026-04-26T15:47:24.299Z</time></trkpt><trkpt lat="43.1878668" lon="11.6456514"><ele>380.0</ele><time>2026-04-26T15:47:25.297Z</time></trkpt><trkpt lat="43.1879076" lon="11.6454904"><ele>380.0</ele><time>2026-04-26T15:47:26.299Z</time></trkpt><trkpt lat="43.18792" lon="11.6453093"><ele>380.0</ele><time>2026-04-26T15:47:27.299Z</time></trkpt><trkpt lat="43.1879006" lon="11.6451201"><ele>380.0</ele><time>2026-04-26T15:47:28.297Z</time></trkpt><trkpt lat="43.1878586" lon="11.6449213"><ele>380.25</ele><time>2026-04-26T15:47:29.298Z</time></trkpt><trkpt lat="43.187814" lon="11.6447238"><ele>380.5</ele><time>2026-04-26T15:47:30.298Z</time></trkpt><trkpt lat="43.1877757" lon="11.6445236"><ele>380.75</ele><time>2026-04-26T15:47:31.298Z</time></trkpt><trkpt lat="43.1877473" lon="11.644329"><ele>381.0</ele><time>2026-04-26T15:47:32.299Z</time></trkpt><trkpt lat="43.1877167" lon="11.6441317"><ele>381.0</ele><time>2026-04-26T15:47:33.296Z</time></trkpt><trkpt lat="43.1876789" lon="11.6439362"><ele>381.0</ele><time>2026-04-26T15:47:34.296Z</time></trkpt><trkpt lat="43.1876378" lon="11.6437538"><ele>381.0</ele><time>2026-04-26T15:47:35.296Z</time></trkpt><trkpt lat="43.1876204" lon="11.6435856"><ele>381.0</ele><time>2026-04-26T15:47:36.296Z</time></trkpt><trkpt lat="43.1876377" lon="11.6434286"><ele>379.75</ele><time>2026-04-26T15:47:37.297Z</time></trkpt><trkpt lat="43.187686" lon="11.6432711"><ele>378.5</ele><time>2026-04-26T15:47:38.298Z</time></trkpt><trkpt lat="43.1877512" lon="11.6431132"><ele>377.25</ele><time>2026-04-26T15:47:39.295Z</time></trkpt><trkpt lat="43.1878164" lon="11.6429513"><ele>376.0</ele><time>2026-04-26T15:47:40.298Z</time></trkpt><trkpt lat="43.187876" lon="11.6428062"><ele>375.4</ele><time>2026-04-26T15:47:41.298Z</time></trkpt><trkpt lat="43.1879422" lon="11.6426902"><ele>374.8</ele><time>2026-04-26T15:47:42.298Z</time></trkpt><trkpt lat="43.1880188" lon="11.6426116"><ele>374.2</ele><time>2026-04-26T15:47:43.298Z</time></trkpt><trkpt lat="43.1880995" lon="11.6425696"><ele>373.59999999999997</ele><time>2026-04-26T15:47:44.3Z</time></trkpt><trkpt lat="43.1881887" lon="11.6425589"><ele>373.0</ele><time>2026-04-26T15:47:45.299Z</time></trkpt><trkpt lat="43.1882791" lon="11.6425868"><ele>373.2</ele><time>2026-04-26T15:47:46.299Z</time></trkpt><trkpt lat="43.1883659" lon="11.6426416"><ele>373.4</ele><time>2026-04-26T15:47:47.297Z</time></trkpt><trkpt lat="43.1884526" lon="11.6427246"><ele>373.59999999999997</ele><time>2026-04-26T15:47:48.298Z</time></trkpt><trkpt lat="43.1885471" lon="11.6428"><ele>373.79999999999995</ele><time>2026-04-26T15:47:49.299Z</time></trkpt><trkpt lat="43.1886474" lon="11.6428448"><ele>374.0</ele><time>2026-04-26T15:47:50.3Z</time></trkpt><trkpt lat="43.1887544" lon="11.6428503"><ele>374.0</ele><time>2026-04-26T15:47:51.296Z</time></trkpt><trkpt lat="43.1888646" lon="11.6428199"><ele>374.0</ele><time>2026-04-26T15:47:52.298Z</time></trkpt><trkpt lat="43.1889729" lon="11.6427648"><ele>374.0</ele><time>2026-04-26T15:47:53.299Z</time></trkpt><trkpt lat="43.1890831" lon="11.6426913"><ele>374.0</ele><time>2026-04-26T15:47:54.298Z</time></trkpt><trkpt lat="43.1891895" lon="11.6426174"><ele>378.0</ele><time>2026-04-26T15:47:55.295Z</time></trkpt><trkpt lat="43.1892978" lon="11.6425513"><ele>382.0</ele><time>2026-04-26T15:47:56.298Z</time></trkpt><trkpt lat="43.1894113" lon="11.6425026"><ele>386.0</ele><time>2026-04-26T15:47:57.298Z</time></trkpt><trkpt lat="43.1895275" lon="11.6424857"><ele>390.0</ele><time>2026-04-26T15:47:58.298Z</time></trkpt><trkpt lat="43.1896402" lon="11.642489"><ele>390.0</ele><time>2026-04-26T15:47:59.297Z</time></trkpt><trkpt lat="43.1897499" lon="11.6425033"><ele>390.0</ele><time>2026-04-26T15:48:00.297Z</time></trkpt><trkpt lat="43.1898585" lon="11.6425101"><ele>390.0</ele><time>2026-04-26T15:48:01.295Z</time></trkpt><trkpt lat="43.1899652" lon="11.6424969"><ele>390.0</ele><time>2026-04-26T15:48:02.296Z</time></trkpt><trkpt lat="43.1900643" lon="11.6424644"><ele>390.0</ele><time>2026-04-26T15:48:03.296Z</time></trkpt><trkpt lat="43.1901564" lon="11.6424046"><ele>389.5</ele><time>2026-04-26T15:48:04.298Z</time></trkpt><trkpt lat="43.1902406" lon="11.6423107"><ele>389.0</ele><time>2026-04-26T15:48:05.298Z</time></trkpt><trkpt lat="43.19031" lon="11.642179"><ele>388.5</ele><time>2026-04-26T15:48:06.294Z</time></trkpt><trkpt lat="43.1903766" lon="11.6420433"><ele>388.0</ele><time>2026-04-26T15:48:07.299Z</time></trkpt><trkpt lat="43.190447" lon="11.6419138"><ele>387.5</ele><time>2026-04-26T15:48:08.299Z</time></trkpt><trkpt lat="43.1905183" lon="11.6417841"><ele>387.0</ele><time>2026-04-26T15:48:09.298Z</time></trkpt><trkpt lat="43.1905972" lon="11.6416602"><ele>386.5</ele><time>2026-04-26T15:48:10.298Z</time></trkpt><trkpt lat="43.1906751" lon="11.6415373"><ele>386.0</ele><time>2026-04-26T15:48:11.296Z</time></trkpt><trkpt lat="43.1907458" lon="11.6414093"><ele>386.0</ele><time>2026-04-26T15:48:12.3Z</time></trkpt><trkpt lat="43.1907976" lon="11.6412734"><ele>386.0</ele><time>2026-04-26T15:48:13.298Z</time></trkpt><trkpt lat="43.1908248" lon="11.6411262"><ele>386.0</ele><time>2026-04-26T15:48:14.297Z</time></trkpt><trkpt lat="43.1908344" lon="11.640969"><ele>386.0</ele><time>2026-04-26T15:48:15.298Z</time></trkpt><trkpt lat="43.1908265" lon="11.6407923"><ele>386.0</ele><time>2026-04-26T15:48:16.298Z</time></trkpt><trkpt lat="43.1908151" lon="11.6406097"><ele>386.0</ele><time>2026-04-26T15:48:17.299Z</time></trkpt><trkpt lat="43.1908029" lon="11.6404178"><ele>386.0</ele><time>2026-04-26T15:48:18.298Z</time></trkpt><trkpt lat="43.1907975" lon="11.6402224"><ele>386.0</ele><time>2026-04-26T15:48:19.297Z</time></trkpt><trkpt lat="43.1908038" lon="11.6400211"><ele>386.0</ele><time>2026-04-26T15:48:20.297Z</time></trkpt><trkpt lat="43.1908205" lon="11.6398185"><ele>386.0</ele><time>2026-04-26T15:48:21.297Z</time></trkpt><trkpt lat="43.190858" lon="11.6396132"><ele>386.0</ele><time>2026-04-26T15:48:22.297Z</time></trkpt><trkpt lat="43.1909192" lon="11.6394129"><ele>386.3333333333333</ele><time>2026-04-26T15:48:23.297Z</time></trkpt><trkpt lat="43.1909949" lon="11.6392211"><ele>386.66666666666663</ele><time>2026-04-26T15:48:24.297Z</time></trkpt><trkpt lat="43.191079" lon="11.6390348"><ele>387.0</ele><time>2026-04-26T15:48:25.298Z</time></trkpt><trkpt lat="43.1911588" lon="11.6388452"><ele>387.0</ele><time>2026-04-26T15:48:26.299Z</time></trkpt><trkpt lat="43.1912321" lon="11.63865"><ele>387.0</ele><time>2026-04-26T15:48:27.298Z</time></trkpt><trkpt lat="43.1913014" lon="11.6384515"><ele>387.0</ele><time>2026-04-26T15:48:28.298Z</time></trkpt><trkpt lat="43.1913686" lon="11.6382652"><ele>387.5</ele><time>2026-04-26T15:48:29.297Z</time></trkpt><trkpt lat="43.1914247" lon="11.6380965"><ele>388.0</ele><time>2026-04-26T15:48:30.296Z</time></trkpt><trkpt lat="43.1914636" lon="11.6379423"><ele>388.5</ele><time>2026-04-26T15:48:31.299Z</time></trkpt><trkpt lat="43.191475" lon="11.6377988"><ele>389.0</ele><time>2026-04-26T15:48:32.297Z</time></trkpt><trkpt lat="43.1914527" lon="11.6376535"><ele>389.0</ele><time>2026-04-26T15:48:33.299Z</time></trkpt><trkpt lat="43.1914023" lon="11.6375008"><ele>389.0</ele><time>2026-04-26T15:48:34.298Z</time></trkpt><trkpt lat="43.1913386" lon="11.6373361"><ele>389.0</ele><time>2026-04-26T15:48:35.297Z</time></trkpt><trkpt lat="43.1912695" lon="11.6371655"><ele>389.0</ele><time>2026-04-26T15:48:36.295Z</time></trkpt><trkpt lat="43.1912005" lon="11.6369893"><ele>388.66666666666663</ele><time>2026-04-26T15:48:37.296Z</time></trkpt><trkpt lat="43.1911301" lon="11.6368057"><ele>388.33333333333337</ele><time>2026-04-26T15:48:38.295Z</time></trkpt><trkpt lat="43.1910585" lon="11.6366206"><ele>388.0</ele><time>2026-04-26T15:48:39.294Z</time></trkpt><trkpt lat="43.1909837" lon="11.6364305"><ele>388.0</ele><time>2026-04-26T15:48:40.295Z</time></trkpt><trkpt lat="43.1909083" lon="11.6362407"><ele>388.0</ele><time>2026-04-26T15:48:41.295Z</time></trkpt><trkpt lat="43.1908315" lon="11.6360398"><ele>388.0</ele><time>2026-04-26T15:48:42.296Z</time></trkpt><trkpt lat="43.1907545" lon="11.6358362"><ele>387.6666666666667</ele><time>2026-04-26T15:48:43.295Z</time></trkpt><trkpt lat="43.1906796" lon="11.6356338"><ele>387.33333333333337</ele><time>2026-04-26T15:48:44.296Z</time></trkpt><trkpt lat="43.1906049" lon="11.6354318"><ele>387.0</ele><time>2026-04-26T15:48:45.298Z</time></trkpt><trkpt lat="43.1905284" lon="11.6352282"><ele>386.0</ele><time>2026-04-26T15:48:46.297Z</time></trkpt><trkpt lat="43.1904486" lon="11.6350268"><ele>385.0</ele><time>2026-04-26T15:48:47.297Z</time></trkpt><trkpt lat="43.1903667" lon="11.6348264"><ele>384.0</ele><time>2026-04-26T15:48:48.299Z</time></trkpt><trkpt lat="43.1902833" lon="11.634624"><ele>383.3333333333333</ele><time>2026-04-26T15:48:49.297Z</time></trkpt><trkpt lat="43.1902016" lon="11.6344186"><ele>382.66666666666663</ele><time>2026-04-26T15:48:50.3Z</time></trkpt><trkpt lat="43.1901198" lon="11.6342078"><ele>382.0</ele><time>2026-04-26T15:48:51.297Z</time></trkpt><trkpt lat="43.190041" lon="11.6340006"><ele>382.0</ele><time>2026-04-26T15:48:52.298Z</time></trkpt><trkpt lat="43.1899658" lon="11.6338048"><ele>382.0</ele><time>2026-04-26T15:48:53.298Z</time></trkpt><trkpt lat="43.1898903" lon="11.6336163"><ele>382.0</ele><time>2026-04-26T15:48:54.295Z</time></trkpt><trkpt lat="43.189804" lon="11.6334435"><ele>380.3333333333333</ele><time>2026-04-26T15:48:55.295Z</time></trkpt><trkpt lat="43.1897055" lon="11.6332886"><ele>378.6666666666667</ele><time>2026-04-26T15:48:56.299Z</time></trkpt><trkpt lat="43.1895986" lon="11.6331384"><ele>377.0</ele><time>2026-04-26T15:48:57.298Z</time></trkpt><trkpt lat="43.1894949" lon="11.6329822"><ele>377.0</ele><time>2026-04-26T15:48:58.296Z</time></trkpt><trkpt lat="43.189406" lon="11.6328076"><ele>377.0</ele><time>2026-04-26T15:48:59.298Z</time></trkpt><trkpt lat="43.189333" lon="11.632615"><ele>377.0</ele><time>2026-04-26T15:49:00.298Z</time></trkpt><trkpt lat="43.1892648" lon="11.6324174"><ele>375.33333333333337</ele><time>2026-04-26T15:49:01.298Z</time></trkpt><trkpt lat="43.1891874" lon="11.6322241"><ele>373.6666666666667</ele><time>2026-04-26T15:49:02.295Z</time></trkpt><trkpt lat="43.1890929" lon="11.6320412"><ele>372.0</ele><time>2026-04-26T15:49:03.297Z</time></trkpt><trkpt lat="43.1889904" lon="11.6318622"><ele>369.0</ele><time>2026-04-26T15:49:04.294Z</time></trkpt><trkpt lat="43.1888927" lon="11.6316793"><ele>366.0</ele><time>2026-04-26T15:49:05.297Z</time></trkpt><trkpt lat="43.1888038" lon="11.6314861"><ele>363.0</ele><time>2026-04-26T15:49:06.296Z</time></trkpt><trkpt lat="43.1887257" lon="11.6312827"><ele>363.0</ele><time>2026-04-26T15:49:07.296Z</time></trkpt><trkpt lat="43.1886526" lon="11.6310737"><ele>363.0</ele><time>2026-04-26T15:49:08.294Z</time></trkpt><trkpt lat="43.1885811" lon="11.6308635"><ele>363.0</ele><time>2026-04-26T15:49:09.296Z</time></trkpt><trkpt lat="43.1885024" lon="11.6306533"><ele>363.0</ele><time>2026-04-26T15:49:10.297Z</time></trkpt><trkpt lat="43.1884158" lon="11.6304527"><ele>363.0</ele><time>2026-04-26T15:49:11.295Z</time></trkpt><trkpt lat="43.1883252" lon="11.6302593"><ele>363.0</ele><time>2026-04-26T15:49:12.296Z</time></trkpt><trkpt lat="43.1882275" lon="11.630077"><ele>362.6666666666667</ele><time>2026-04-26T15:49:13.299Z</time></trkpt><trkpt lat="43.1881226" lon="11.6299114"><ele>362.33333333333337</ele><time>2026-04-26T15:49:14.3Z</time></trkpt><trkpt lat="43.1880076" lon="11.629762"><ele>362.0</ele><time>2026-04-26T15:49:15.298Z</time></trkpt><trkpt lat="43.1878899" lon="11.6296215"><ele>362.0</ele><time>2026-04-26T15:49:16.298Z</time></trkpt><trkpt lat="43.187773" lon="11.6294821"><ele>362.0</ele><time>2026-04-26T15:49:17.297Z</time></trkpt><trkpt lat="43.1876628" lon="11.6293326"><ele>362.0</ele><time>2026-04-26T15:49:18.296Z</time></trkpt><trkpt lat="43.1875563" lon="11.6291812"><ele>362.25</ele><time>2026-04-26T15:49:19.297Z</time></trkpt><trkpt lat="43.1874515" lon="11.6290329"><ele>362.5</ele><time>2026-04-26T15:49:20.298Z</time></trkpt><trkpt lat="43.1873524" lon="11.6288843"><ele>362.75</ele><time>2026-04-26T15:49:21.299Z</time></trkpt><trkpt lat="43.1872625" lon="11.6287301"><ele>363.0</ele><time>2026-04-26T15:49:22.296Z</time></trkpt><trkpt lat="43.1871819" lon="11.6285642"><ele>363.3333333333333</ele><time>2026-04-26T15:49:23.295Z</time></trkpt><trkpt lat="43.1871103" lon="11.6283886"><ele>363.66666666666663</ele><time>2026-04-26T15:49:24.301Z</time></trkpt><trkpt lat="43.1870485" lon="11.6281998"><ele>364.0</ele><time>2026-04-26T15:49:25.298Z</time></trkpt><trkpt lat="43.1869898" lon="11.6280055"><ele>364.0</ele><time>2026-04-26T15:49:26.297Z</time></trkpt><trkpt lat="43.1869239" lon="11.6278147"><ele>364.0</ele><time>2026-04-26T15:49:27.297Z</time></trkpt><trkpt lat="43.1868426" lon="11.6276389"><ele>364.0</ele><time>2026-04-26T15:49:28.295Z</time></trkpt><trkpt lat="43.1867504" lon="11.6274885"><ele>364.0</ele><time>2026-04-26T15:49:29.296Z</time></trkpt><trkpt lat="43.1866577" lon="11.6273425"><ele>363.66666666666663</ele><time>2026-04-26T15:49:30.296Z</time></trkpt><trkpt lat="43.186578" lon="11.6271772"><ele>363.3333333333333</ele><time>2026-04-26T15:49:31.297Z</time></trkpt><trkpt lat="43.1865118" lon="11.6269903"><ele>363.0</ele><time>2026-04-26T15:49:32.296Z</time></trkpt><trkpt lat="43.1864568" lon="11.6267897"><ele>361.6666666666667</ele><time>2026-04-26T15:49:33.296Z</time></trkpt><trkpt lat="43.186406" lon="11.6265792"><ele>360.33333333333337</ele><time>2026-04-26T15:49:34.297Z</time></trkpt><trkpt lat="43.1863635" lon="11.6263624"><ele>359.0</ele><time>2026-04-26T15:49:35.296Z</time></trkpt><trkpt lat="43.1863352" lon="11.6261423"><ele>359.0</ele><time>2026-04-26T15:49:36.296Z</time></trkpt><trkpt lat="43.1863258" lon="11.6259172"><ele>359.0</ele><time>2026-04-26T15:49:37.296Z</time></trkpt><trkpt lat="43.1863462" lon="11.6256949"><ele>359.0</ele><time>2026-04-26T15:49:38.296Z</time></trkpt><trkpt lat="43.1863894" lon="11.6254763"><ele>357.0</ele><time>2026-04-26T15:49:39.295Z</time></trkpt><trkpt lat="43.1864411" lon="11.6252539"><ele>355.0</ele><time>2026-04-26T15:49:40.296Z</time></trkpt><trkpt lat="43.186487" lon="11.6250208"><ele>353.0</ele><time>2026-04-26T15:49:41.297Z</time></trkpt><trkpt lat="43.1865269" lon="11.6247799"><ele>353.0</ele><time>2026-04-26T15:49:42.296Z</time></trkpt><trkpt lat="43.1865662" lon="11.6245504"><ele>353.0</ele><time>2026-04-26T15:49:43.295Z</time></trkpt><trkpt lat="43.1866075" lon="11.6243369"><ele>353.0</ele><time>2026-04-26T15:49:44.295Z</time></trkpt><trkpt lat="43.1866542" lon="11.6241435"><ele>353.0</ele><time>2026-04-26T15:49:45.296Z</time></trkpt><trkpt lat="43.1867033" lon="11.6239665"><ele>353.0</ele><time>2026-04-26T15:49:46.298Z</time></trkpt><trkpt lat="43.1867475" lon="11.623813"><ele>353.0</ele><time>2026-04-26T15:49:47.299Z</time></trkpt><trkpt lat="43.1867871" lon="11.6236856"><ele>353.0</ele><time>2026-04-26T15:49:48.297Z</time></trkpt><trkpt lat="43.186819" lon="11.6235814"><ele>353.0</ele><time>2026-04-26T15:49:49.297Z</time></trkpt><trkpt lat="43.1868519" lon="11.6234873"><ele>353.2</ele><time>2026-04-26T15:49:50.299Z</time></trkpt><trkpt lat="43.1868893" lon="11.6233932"><ele>353.4</ele><time>2026-04-26T15:49:51.298Z</time></trkpt><trkpt lat="43.1869355" lon="11.6233012"><ele>353.59999999999997</ele><time>2026-04-26T15:49:52.299Z</time></trkpt><trkpt lat="43.1869955" lon="11.6232123"><ele>353.79999999999995</ele><time>2026-04-26T15:49:53.298Z</time></trkpt><trkpt lat="43.1870748" lon="11.6231305"><ele>354.0</ele><time>2026-04-26T15:49:54.298Z</time></trkpt><trkpt lat="43.1871698" lon="11.6230446"><ele>354.0</ele><time>2026-04-26T15:49:55.297Z</time></trkpt><trkpt lat="43.1872753" lon="11.6229501"><ele>354.0</ele><time>2026-04-26T15:49:56.299Z</time></trkpt><trkpt lat="43.1873875" lon="11.6228452"><ele>354.0</ele><time>2026-04-26T15:49:57.299Z</time></trkpt><trkpt lat="43.1875043" lon="11.6227401"><ele>354.0</ele><time>2026-04-26T15:49:58.298Z</time></trkpt><trkpt lat="43.1876259" lon="11.6226331"><ele>354.5</ele><time>2026-04-26T15:49:59.298Z</time></trkpt><trkpt lat="43.1877468" lon="11.6225264"><ele>355.0</ele><time>2026-04-26T15:50:00.299Z</time></trkpt><trkpt lat="43.1878604" lon="11.6224177"><ele>355.5</ele><time>2026-04-26T15:50:01.296Z</time></trkpt><trkpt lat="43.1879598" lon="11.6222884"><ele>356.0</ele><time>2026-04-26T15:50:02.3Z</time></trkpt><trkpt lat="43.1880458" lon="11.6221367"><ele>356.6666666666667</ele><time>2026-04-26T15:50:03.296Z</time></trkpt><trkpt lat="43.1881299" lon="11.6219677"><ele>357.3333333333333</ele><time>2026-04-26T15:50:04.297Z</time></trkpt><trkpt lat="43.1882191" lon="11.6217857"><ele>358.0</ele><time>2026-04-26T15:50:05.298Z</time></trkpt><trkpt lat="43.1883087" lon="11.6215941"><ele>358.66666666666663</ele><time>2026-04-26T15:50:06.297Z</time></trkpt><trkpt lat="43.1883982" lon="11.6214027"><ele>359.3333333333333</ele><time>2026-04-26T15:50:07.296Z</time></trkpt><trkpt lat="43.1884806" lon="11.6212176"><ele>360.0</ele><time>2026-04-26T15:50:08.296Z</time></trkpt><trkpt lat="43.1885598" lon="11.621034"><ele>360.0</ele><time>2026-04-26T15:50:09.297Z</time></trkpt><trkpt lat="43.1886337" lon="11.620859"><ele>360.0</ele><time>2026-04-26T15:50:10.296Z</time></trkpt><trkpt lat="43.188708" lon="11.6206964"><ele>360.0</ele><time>2026-04-26T15:50:11.296Z</time></trkpt><trkpt lat="43.1887954" lon="11.620554"><ele>360.0</ele><time>2026-04-26T15:50:12.296Z</time></trkpt><trkpt lat="43.1889" lon="11.6204444"><ele>360.25</ele><time>2026-04-26T15:50:13.298Z</time></trkpt><trkpt lat="43.1890156" lon="11.6203593"><ele>360.5</ele><time>2026-04-26T15:50:14.299Z</time></trkpt><trkpt lat="43.1891336" lon="11.6202741"><ele>360.75</ele><time>2026-04-26T15:50:15.296Z</time></trkpt><trkpt lat="43.1892442" lon="11.6201694"><ele>361.0</ele><time>2026-04-26T15:50:16.295Z</time></trkpt><trkpt lat="43.189348" lon="11.6200395"><ele>361.0</ele><time>2026-04-26T15:50:17.297Z</time></trkpt><trkpt lat="43.1894456" lon="11.6198804"><ele>361.0</ele><time>2026-04-26T15:50:18.296Z</time></trkpt><trkpt lat="43.1895463" lon="11.6197134"><ele>361.0</ele><time>2026-04-26T15:50:19.298Z</time></trkpt><trkpt lat="43.1896497" lon="11.6195438"><ele>360.66666666666663</ele><time>2026-04-26T15:50:20.299Z</time></trkpt><trkpt lat="43.1897485" lon="11.6193801"><ele>360.3333333333333</ele><time>2026-04-26T15:50:21.296Z</time></trkpt><trkpt lat="43.1898439" lon="11.6192183"><ele>360.0</ele><time>2026-04-26T15:50:22.298Z</time></trkpt><trkpt lat="43.1899291" lon="11.6190536"><ele>360.0</ele><time>2026-04-26T15:50:23.296Z</time></trkpt><trkpt lat="43.1900054" lon="11.6188911"><ele>360.0</ele><time>2026-04-26T15:50:24.299Z</time></trkpt><trkpt lat="43.1900707" lon="11.6187311"><ele>360.0</ele><time>2026-04-26T15:50:25.297Z</time></trkpt><trkpt lat="43.1901193" lon="11.6185803"><ele>360.0</ele><time>2026-04-26T15:50:26.299Z</time></trkpt><trkpt lat="43.1901473" lon="11.6184311"><ele>359.25</ele><time>2026-04-26T15:50:27.298Z</time></trkpt><trkpt lat="43.1901599" lon="11.6182831"><ele>358.5</ele><time>2026-04-26T15:50:28.298Z</time></trkpt><trkpt lat="43.190151" lon="11.618114"><ele>357.75</ele><time>2026-04-26T15:50:29.298Z</time></trkpt><trkpt lat="43.1901252" lon="11.6179274"><ele>357.0</ele><time>2026-04-26T15:50:30.298Z</time></trkpt><trkpt lat="43.1900859" lon="11.617731"><ele>356.6666666666667</ele><time>2026-04-26T15:50:31.296Z</time></trkpt><trkpt lat="43.1900336" lon="11.6175284"><ele>356.33333333333337</ele><time>2026-04-26T15:50:32.299Z</time></trkpt><trkpt lat="43.1899731" lon="11.6173156"><ele>356.0</ele><time>2026-04-26T15:50:33.296Z</time></trkpt><trkpt lat="43.1899099" lon="11.6170914"><ele>355.33333333333337</ele><time>2026-04-26T15:50:34.298Z</time></trkpt><trkpt lat="43.1898435" lon="11.6168599"><ele>354.6666666666667</ele><time>2026-04-26T15:50:35.297Z</time></trkpt><trkpt lat="43.1897799" lon="11.6166317"><ele>354.0</ele><time>2026-04-26T15:50:36.297Z</time></trkpt><trkpt lat="43.1897178" lon="11.616413"><ele>349.0</ele><time>2026-04-26T15:50:37.298Z</time></trkpt><trkpt lat="43.1896529" lon="11.6162037"><ele>344.0</ele><time>2026-04-26T15:50:38.3Z</time></trkpt><trkpt lat="43.1895859" lon="11.6159922"><ele>339.0</ele><time>2026-04-26T15:50:39.295Z</time></trkpt><trkpt lat="43.1895241" lon="11.6157752"><ele>339.3333333333333</ele><time>2026-04-26T15:50:40.296Z</time></trkpt><trkpt lat="43.1894647" lon="11.6155553"><ele>339.66666666666663</ele><time>2026-04-26T15:50:41.296Z</time></trkpt><trkpt lat="43.1894029" lon="11.6153368"><ele>340.0</ele><time>2026-04-26T15:50:42.296Z</time></trkpt><trkpt lat="43.1893412" lon="11.6151182"><ele>340.0</ele><time>2026-04-26T15:50:43.299Z</time></trkpt><trkpt lat="43.1892856" lon="11.6149012"><ele>340.0</ele><time>2026-04-26T15:50:44.298Z</time></trkpt><trkpt lat="43.1892398" lon="11.614694"><ele>340.0</ele><time>2026-04-26T15:50:45.297Z</time></trkpt><trkpt lat="43.1892073" lon="11.6144896"><ele>340.66666666666663</ele><time>2026-04-26T15:50:46.298Z</time></trkpt><trkpt lat="43.1891989" lon="11.6142862"><ele>341.3333333333333</ele><time>2026-04-26T15:50:47.299Z</time></trkpt><trkpt lat="43.1892125" lon="11.6140802"><ele>342.0</ele><time>2026-04-26T15:50:48.297Z</time></trkpt><trkpt lat="43.1892456" lon="11.6138702"><ele>342.0</ele><time>2026-04-26T15:50:49.298Z</time></trkpt><trkpt lat="43.1892853" lon="11.6136617"><ele>342.0</ele><time>2026-04-26T15:50:50.299Z</time></trkpt><trkpt lat="43.1893262" lon="11.6134531"><ele>342.0</ele><time>2026-04-26T15:50:51.296Z</time></trkpt><trkpt lat="43.1893682" lon="11.6132402"><ele>341.3333333333333</ele><time>2026-04-26T15:50:52.297Z</time></trkpt><trkpt lat="43.1894086" lon="11.6130222"><ele>340.66666666666663</ele><time>2026-04-26T15:50:53.299Z</time></trkpt><trkpt lat="43.1894479" lon="11.6128046"><ele>340.0</ele><time>2026-04-26T15:50:54.298Z</time></trkpt><trkpt lat="43.1894925" lon="11.6125818"><ele>340.0</ele><time>2026-04-26T15:50:55.298Z</time></trkpt><trkpt lat="43.1895366" lon="11.6123585"><ele>340.0</ele><time>2026-04-26T15:50:56.298Z</time></trkpt><trkpt lat="43.1895842" lon="11.6121367"><ele>340.0</ele><time>2026-04-26T15:50:57.299Z</time></trkpt><trkpt lat="43.1896339" lon="11.6119146"><ele>339.0</ele><time>2026-04-26T15:50:58.297Z</time></trkpt><trkpt lat="43.1896969" lon="11.6116961"><ele>338.0</ele><time>2026-04-26T15:50:59.295Z</time></trkpt><trkpt lat="43.1897751" lon="11.6114888"><ele>337.0</ele><time>2026-04-26T15:51:00.3Z</time></trkpt><trkpt lat="43.1898625" lon="11.6112888"><ele>338.0</ele><time>2026-04-26T15:51:01.298Z</time></trkpt><trkpt lat="43.1899515" lon="11.6110913"><ele>339.0</ele><time>2026-04-26T15:51:02.3Z</time></trkpt><trkpt lat="43.1900479" lon="11.6109027"><ele>340.0</ele><time>2026-04-26T15:51:03.3Z</time></trkpt><trkpt lat="43.1901536" lon="11.6107238"><ele>340.0</ele><time>2026-04-26T15:51:04.298Z</time></trkpt><trkpt lat="43.1902606" lon="11.6105527"><ele>340.0</ele><time>2026-04-26T15:51:05.299Z</time></trkpt><trkpt lat="43.1903627" lon="11.6103969"><ele>340.0</ele><time>2026-04-26T15:51:06.298Z</time></trkpt><trkpt lat="43.1904608" lon="11.610248"><ele>339.75</ele><time>2026-04-26T15:51:07.297Z</time></trkpt><trkpt lat="43.1905467" lon="11.6100969"><ele>339.5</ele><time>2026-04-26T15:51:08.299Z</time></trkpt><trkpt lat="43.190616" lon="11.6099457"><ele>339.25</ele><time>2026-04-26T15:51:09.296Z</time></trkpt><trkpt lat="43.1906683" lon="11.6097925"><ele>339.0</ele><time>2026-04-26T15:51:10.298Z</time></trkpt><trkpt lat="43.1907014" lon="11.6096284"><ele>338.75</ele><time>2026-04-26T15:51:11.298Z</time></trkpt><trkpt lat="43.1907145" lon="11.6094602"><ele>338.5</ele><time>2026-04-26T15:51:12.298Z</time></trkpt><trkpt lat="43.1907107" lon="11.6092855"><ele>338.25</ele><time>2026-04-26T15:51:13.296Z</time></trkpt><trkpt lat="43.1907034" lon="11.6091097"><ele>338.0</ele><time>2026-04-26T15:51:14.299Z</time></trkpt><trkpt lat="43.1907086" lon="11.6089291"><ele>338.0</ele><time>2026-04-26T15:51:15.299Z</time></trkpt><trkpt lat="43.1907355" lon="11.6087422"><ele>338.0</ele><time>2026-04-26T15:51:16.299Z</time></trkpt><trkpt lat="43.1907811" lon="11.6085611"><ele>338.0</ele><time>2026-04-26T15:51:17.298Z</time></trkpt><trkpt lat="43.1908383" lon="11.60838"><ele>338.0</ele><time>2026-04-26T15:51:18.296Z</time></trkpt><trkpt lat="43.1909008" lon="11.6081977"><ele>337.0</ele><time>2026-04-26T15:51:19.297Z</time></trkpt><trkpt lat="43.1909661" lon="11.6080192"><ele>336.0</ele><time>2026-04-26T15:51:20.297Z</time></trkpt><trkpt lat="43.191031" lon="11.6078442"><ele>335.0</ele><time>2026-04-26T15:51:21.296Z</time></trkpt><trkpt lat="43.1910916" lon="11.6076724"><ele>334.0</ele><time>2026-04-26T15:51:22.296Z</time></trkpt><trkpt lat="43.1911485" lon="11.6075016"><ele>332.75</ele><time>2026-04-26T15:51:23.295Z</time></trkpt><trkpt lat="43.1911999" lon="11.6073283"><ele>331.5</ele><time>2026-04-26T15:51:24.296Z</time></trkpt><trkpt lat="43.1912552" lon="11.6071599"><ele>330.25</ele><time>2026-04-26T15:51:25.296Z</time></trkpt><trkpt lat="43.1913232" lon="11.6070078"><ele>329.0</ele><time>2026-04-26T15:51:26.297Z</time></trkpt><trkpt lat="43.1914031" lon="11.6068742"><ele>328.0</ele><time>2026-04-26T15:51:27.296Z</time></trkpt><trkpt lat="43.1914955" lon="11.6067609"><ele>327.0</ele><time>2026-04-26T15:51:28.296Z</time></trkpt><trkpt lat="43.1916001" lon="11.6066794"><ele>326.0</ele><time>2026-04-26T15:51:29.297Z</time></trkpt><trkpt lat="43.1917169" lon="11.6066315"><ele>325.0</ele><time>2026-04-26T15:51:30.299Z</time></trkpt><trkpt lat="43.1918453" lon="11.6066073"><ele>325.0</ele><time>2026-04-26T15:51:31.295Z</time></trkpt><trkpt lat="43.1919836" lon="11.6065962"><ele>325.0</ele><time>2026-04-26T15:51:32.296Z</time></trkpt><trkpt lat="43.1921261" lon="11.6065841"><ele>325.0</ele><time>2026-04-26T15:51:33.296Z</time></trkpt><trkpt lat="43.1922678" lon="11.606571"><ele>325.0</ele><time>2026-04-26T15:51:34.295Z</time></trkpt><trkpt lat="43.1924051" lon="11.6065606"><ele>323.5</ele><time>2026-04-26T15:51:35.297Z</time></trkpt><trkpt lat="43.1925446" lon="11.6065581"><ele>322.0</ele><time>2026-04-26T15:51:36.296Z</time></trkpt><trkpt lat="43.1926819" lon="11.6065748"><ele>320.5</ele><time>2026-04-26T15:51:37.296Z</time></trkpt><trkpt lat="43.1928168" lon="11.6066086"><ele>319.0</ele><time>2026-04-26T15:51:38.298Z</time></trkpt><trkpt lat="43.1929485" lon="11.6066552"><ele>319.0</ele><time>2026-04-26T15:51:39.297Z</time></trkpt><trkpt lat="43.193077" lon="11.6067198"><ele>319.0</ele><time>2026-04-26T15:51:40.295Z</time></trkpt><trkpt lat="43.1931978" lon="11.6067998"><ele>319.0</ele><time>2026-04-26T15:51:41.296Z</time></trkpt><trkpt lat="43.1933108" lon="11.6068949"><ele>319.0</ele><time>2026-04-26T15:51:42.297Z</time></trkpt><trkpt lat="43.1934142" lon="11.6069972"><ele>318.59999999999997</ele><time>2026-04-26T15:51:43.296Z</time></trkpt><trkpt lat="43.1935109" lon="11.6070997"><ele>318.2</ele><time>2026-04-26T15:51:44.3Z</time></trkpt><trkpt lat="43.1935962" lon="11.6071921"><ele>317.79999999999995</ele><time>2026-04-26T15:51:45.299Z</time></trkpt><trkpt lat="43.1936692" lon="11.6072605"><ele>317.4</ele><time>2026-04-26T15:51:46.298Z</time></trkpt><trkpt lat="43.1937406" lon="11.607296"><ele>317.0</ele><time>2026-04-26T15:51:47.298Z</time></trkpt><trkpt lat="43.1938061" lon="11.6072972"><ele>317.0</ele><time>2026-04-26T15:51:48.296Z</time></trkpt><trkpt lat="43.193872" lon="11.6072806"><ele>317.0</ele><time>2026-04-26T15:51:49.296Z</time></trkpt><trkpt lat="43.193933" lon="11.6072074"><ele>317.0</ele><time>2026-04-26T15:51:50.296Z</time></trkpt><trkpt lat="43.19399" lon="11.6070602"><ele>317.0</ele><time>2026-04-26T15:51:51.296Z</time></trkpt><trkpt lat="43.1940535" lon="11.6068526"><ele>317.0</ele><time>2026-04-26T15:51:52.297Z</time></trkpt><trkpt lat="43.1941227" lon="11.6066315"><ele>312.0</ele><time>2026-04-26T15:51:53.296Z</time></trkpt><trkpt lat="43.1941947" lon="11.6064221"><ele>307.0</ele><time>2026-04-26T15:51:54.297Z</time></trkpt><trkpt lat="43.1942625" lon="11.6062338"><ele>302.0</ele><time>2026-04-26T15:51:55.297Z</time></trkpt><trkpt lat="43.1943165" lon="11.6060503"><ele>301.25</ele><time>2026-04-26T15:51:56.297Z</time></trkpt><trkpt lat="43.1943537" lon="11.60587"><ele>300.5</ele><time>2026-04-26T15:51:57.297Z</time></trkpt><trkpt lat="43.1943736" lon="11.6056918"><ele>299.75</ele><time>2026-04-26T15:51:58.295Z</time></trkpt><trkpt lat="43.1943871" lon="11.6055164"><ele>299.0</ele><time>2026-04-26T15:51:59.296Z</time></trkpt><trkpt lat="43.194397" lon="11.6053416"><ele>298.0</ele><time>2026-04-26T15:52:00.296Z</time></trkpt><trkpt lat="43.1944097" lon="11.6051635"><ele>297.0</ele><time>2026-04-26T15:52:01.297Z</time></trkpt><trkpt lat="43.1944234" lon="11.6049802"><ele>296.0</ele><time>2026-04-26T15:52:02.297Z</time></trkpt><trkpt lat="43.1944369" lon="11.6047961"><ele>295.0</ele><time>2026-04-26T15:52:03.296Z</time></trkpt><trkpt lat="43.1944378" lon="11.6046251"><ele>294.2</ele><time>2026-04-26T15:52:04.295Z</time></trkpt><trkpt lat="43.1944233" lon="11.6044791"><ele>293.4</ele><time>2026-04-26T15:52:05.296Z</time></trkpt><trkpt lat="43.1943898" lon="11.6043499"><ele>292.6</ele><time>2026-04-26T15:52:06.3Z</time></trkpt><trkpt lat="43.1943404" lon="11.6042259"><ele>291.8</ele><time>2026-04-26T15:52:07.296Z</time></trkpt><trkpt lat="43.1942737" lon="11.6040904"><ele>291.0</ele><time>2026-04-26T15:52:08.297Z</time></trkpt><trkpt lat="43.1941945" lon="11.6039512"><ele>291.0</ele><time>2026-04-26T15:52:09.301Z</time></trkpt><trkpt lat="43.1941171" lon="11.6038176"><ele>291.0</ele><time>2026-04-26T15:52:10.294Z</time></trkpt><trkpt lat="43.194046" lon="11.6036893"><ele>291.0</ele><time>2026-04-26T15:52:11.297Z</time></trkpt><trkpt lat="43.1939841" lon="11.6035696"><ele>291.0</ele><time>2026-04-26T15:52:12.298Z</time></trkpt><trkpt lat="43.1939291" lon="11.6034582"><ele>291.0</ele><time>2026-04-26T15:52:13.298Z</time></trkpt><trkpt lat="43.1938864" lon="11.6033597"><ele>290.42857142857144</ele><time>2026-04-26T15:52:14.299Z</time></trkpt><trkpt lat="43.1938599" lon="11.6032681"><ele>289.85714285714283</ele><time>2026-04-26T15:52:15.298Z</time></trkpt><trkpt lat="43.1938564" lon="11.6031763"><ele>289.2857142857143</ele><time>2026-04-26T15:52:16.298Z</time></trkpt><trkpt lat="43.193878" lon="11.6030906"><ele>288.7142857142857</ele><time>2026-04-26T15:52:17.298Z</time></trkpt><trkpt lat="43.1939186" lon="11.6030121"><ele>288.1428571428571</ele><time>2026-04-26T15:52:18.295Z</time></trkpt><trkpt lat="43.1939729" lon="11.6029386"><ele>287.57142857142856</ele><time>2026-04-26T15:52:19.296Z</time></trkpt><trkpt lat="43.1940427" lon="11.6028646"><ele>287.0</ele><time>2026-04-26T15:52:20.298Z</time></trkpt><trkpt lat="43.1941247" lon="11.6027964"><ele>286.75</ele><time>2026-04-26T15:52:21.295Z</time></trkpt><trkpt lat="43.1942165" lon="11.602734"><ele>286.5</ele><time>2026-04-26T15:52:22.295Z</time></trkpt><trkpt lat="43.1943215" lon="11.6026817"><ele>286.25</ele><time>2026-04-26T15:52:23.294Z</time></trkpt><trkpt lat="43.1944353" lon="11.6026419"><ele>286.0</ele><time>2026-04-26T15:52:24.297Z</time></trkpt><trkpt lat="43.1945541" lon="11.6026084"><ele>286.0</ele><time>2026-04-26T15:52:25.296Z</time></trkpt><trkpt lat="43.1946762" lon="11.6025827"><ele>286.0</ele><time>2026-04-26T15:52:26.297Z</time></trkpt><trkpt lat="43.1947982" lon="11.6025571"><ele>286.0</ele><time>2026-04-26T15:52:27.296Z</time></trkpt><trkpt lat="43.1949199" lon="11.6025316"><ele>286.0</ele><time>2026-04-26T15:52:28.295Z</time></trkpt><trkpt lat="43.1950403" lon="11.6025064"><ele>287.25</ele><time>2026-04-26T15:52:29.297Z</time></trkpt><trkpt lat="43.1951617" lon="11.6024847"><ele>288.5</ele><time>2026-04-26T15:52:30.296Z</time></trkpt><trkpt lat="43.1952848" lon="11.6024616"><ele>289.75</ele><time>2026-04-26T15:52:31.296Z</time></trkpt><trkpt lat="43.1954083" lon="11.602435"><ele>291.0</ele><time>2026-04-26T15:52:32.297Z</time></trkpt><trkpt lat="43.195533" lon="11.6024065"><ele>291.0</ele><time>2026-04-26T15:52:33.296Z</time></trkpt><trkpt lat="43.195661" lon="11.6023767"><ele>291.0</ele><time>2026-04-26T15:52:34.295Z</time></trkpt><trkpt lat="43.1957913" lon="11.6023437"><ele>291.0</ele><time>2026-04-26T15:52:35.296Z</time></trkpt><trkpt lat="43.1959244" lon="11.6023126"><ele>291.0</ele><time>2026-04-26T15:52:36.297Z</time></trkpt><trkpt lat="43.1960597" lon="11.6022843"><ele>292.25</ele><time>2026-04-26T15:52:37.296Z</time></trkpt><trkpt lat="43.1961979" lon="11.6022625"><ele>293.5</ele><time>2026-04-26T15:52:38.296Z</time></trkpt><trkpt lat="43.1963351" lon="11.6022474"><ele>294.75</ele><time>2026-04-26T15:52:39.295Z</time></trkpt><trkpt lat="43.196472" lon="11.6022391"><ele>296.0</ele><time>2026-04-26T15:52:40.296Z</time></trkpt><trkpt lat="43.19661" lon="11.6022402"><ele>296.0</ele><time>2026-04-26T15:52:41.296Z</time></trkpt><trkpt lat="43.1967468" lon="11.6022448"><ele>296.0</ele><time>2026-04-26T15:52:42.297Z</time></trkpt><trkpt lat="43.1968833" lon="11.6022559"><ele>296.0</ele><time>2026-04-26T15:52:43.297Z</time></trkpt><trkpt lat="43.1970201" lon="11.6022816"><ele>296.0</ele><time>2026-04-26T15:52:44.294Z</time></trkpt><trkpt lat="43.1971568" lon="11.6023267"><ele>296.0</ele><time>2026-04-26T15:52:45.298Z</time></trkpt><trkpt lat="43.1972934" lon="11.60239"><ele>296.0</ele><time>2026-04-26T15:52:46.298Z</time></trkpt><trkpt lat="43.1974317" lon="11.6024683"><ele>296.0</ele><time>2026-04-26T15:52:47.296Z</time></trkpt><trkpt lat="43.1975684" lon="11.6025602"><ele>296.0</ele><time>2026-04-26T15:52:48.296Z</time></trkpt><trkpt lat="43.1977035" lon="11.6026641"><ele>296.33333333333337</ele><time>2026-04-26T15:52:49.296Z</time></trkpt><trkpt lat="43.1978396" lon="11.6027806"><ele>296.6666666666667</ele><time>2026-04-26T15:52:50.298Z</time></trkpt><trkpt lat="43.1979812" lon="11.6029027"><ele>297.0</ele><time>2026-04-26T15:52:51.296Z</time></trkpt><trkpt lat="43.1981373" lon="11.6030217"><ele>301.0</ele><time>2026-04-26T15:52:52.295Z</time></trkpt><trkpt lat="43.1983043" lon="11.6031259"><ele>305.0</ele><time>2026-04-26T15:52:53.297Z</time></trkpt><trkpt lat="43.1984721" lon="11.6032186"><ele>309.0</ele><time>2026-04-26T15:52:54.295Z</time></trkpt><trkpt lat="43.1986371" lon="11.6033067"><ele>309.0</ele><time>2026-04-26T15:52:55.296Z</time></trkpt><trkpt lat="43.1987957" lon="11.6033946"><ele>309.0</ele><time>2026-04-26T15:52:56.297Z</time></trkpt><trkpt lat="43.198944" lon="11.6034889"><ele>309.0</ele><time>2026-04-26T15:52:57.296Z</time></trkpt><trkpt lat="43.1990811" lon="11.6036019"><ele>310.3333333333333</ele><time>2026-04-26T15:52:58.296Z</time></trkpt><trkpt lat="43.1991992" lon="11.6037445"><ele>311.66666666666663</ele><time>2026-04-26T15:52:59.297Z</time></trkpt><trkpt lat="43.1993036" lon="11.6039071"><ele>313.0</ele><time>2026-04-26T15:53:00.296Z</time></trkpt><trkpt lat="43.1993949" lon="11.6040672"><ele>313.0</ele><time>2026-04-26T15:53:01.298Z</time></trkpt><trkpt lat="43.1994771" lon="11.6042122"><ele>313.0</ele><time>2026-04-26T15:53:02.3Z</time></trkpt><trkpt lat="43.1995662" lon="11.6043364"><ele>313.0</ele><time>2026-04-26T15:53:03.296Z</time></trkpt><trkpt lat="43.1996678" lon="11.6044367"><ele>313.0</ele><time>2026-04-26T15:53:04.295Z</time></trkpt><trkpt lat="43.1997794" lon="11.6045134"><ele>314.2</ele><time>2026-04-26T15:53:05.294Z</time></trkpt><trkpt lat="43.1998903" lon="11.6045672"><ele>315.4</ele><time>2026-04-26T15:53:06.3Z</time></trkpt><trkpt lat="43.199994" lon="11.6045884"><ele>316.59999999999997</ele><time>2026-04-26T15:53:07.295Z</time></trkpt><trkpt lat="43.2000925" lon="11.6045804"><ele>317.8</ele><time>2026-04-26T15:53:08.301Z</time></trkpt><trkpt lat="43.2001857" lon="11.6045449"><ele>319.0</ele><time>2026-04-26T15:53:09.298Z</time></trkpt><trkpt lat="43.2002711" lon="11.6044845"><ele>319.2</ele><time>2026-04-26T15:53:10.298Z</time></trkpt><trkpt lat="43.200345" lon="11.6044021"><ele>319.4</ele><time>2026-04-26T15:53:11.294Z</time></trkpt><trkpt lat="43.2003974" lon="11.6042987"><ele>319.6</ele><time>2026-04-26T15:53:12.297Z</time></trkpt><trkpt lat="43.2004247" lon="11.6041797"><ele>319.8</ele><time>2026-04-26T15:53:13.298Z</time></trkpt><trkpt lat="43.2004181" lon="11.6040516"><ele>320.0</ele><time>2026-04-26T15:53:14.298Z</time></trkpt><trkpt lat="43.2003695" lon="11.6039222"><ele>320.0</ele><time>2026-04-26T15:53:15.298Z</time></trkpt><trkpt lat="43.2002834" lon="11.6037985"><ele>320.0</ele><time>2026-04-26T15:53:16.298Z</time></trkpt><trkpt lat="43.200209" lon="11.60366"><ele>320.0</ele><time>2026-04-26T15:53:17.296Z</time></trkpt><trkpt lat="43.2001607" lon="11.6034944"><ele>320.0</ele><time>2026-04-26T15:53:18.297Z</time></trkpt><trkpt lat="43.2001309" lon="11.6033145"><ele>318.5</ele><time>2026-04-26T15:53:19.295Z</time></trkpt><trkpt lat="43.2001062" lon="11.60314"><ele>317.0</ele><time>2026-04-26T15:53:20.297Z</time></trkpt><trkpt lat="43.2000876" lon="11.6029594"><ele>315.5</ele><time>2026-04-26T15:53:21.296Z</time></trkpt><trkpt lat="43.2000817" lon="11.6027688"><ele>314.0</ele><time>2026-04-26T15:53:22.297Z</time></trkpt><trkpt lat="43.2000918" lon="11.6025813"><ele>312.5</ele><time>2026-04-26T15:53:23.296Z</time></trkpt><trkpt lat="43.200115" lon="11.6024041"><ele>311.0</ele><time>2026-04-26T15:53:24.298Z</time></trkpt><trkpt lat="43.200156" lon="11.6022416"><ele>309.5</ele><time>2026-04-26T15:53:25.298Z</time></trkpt><trkpt lat="43.2002219" lon="11.6021026"><ele>308.0</ele><time>2026-04-26T15:53:26.296Z</time></trkpt><trkpt lat="43.200309" lon="11.601989"><ele>308.25</ele><time>2026-04-26T15:53:27.298Z</time></trkpt><trkpt lat="43.2004133" lon="11.6018869"><ele>308.5</ele><time>2026-04-26T15:53:28.298Z</time></trkpt><trkpt lat="43.2005274" lon="11.601785"><ele>308.75</ele><time>2026-04-26T15:53:29.297Z</time></trkpt><trkpt lat="43.2006398" lon="11.6016734"><ele>309.0</ele><time>2026-04-26T15:53:30.299Z</time></trkpt><trkpt lat="43.2007618" lon="11.6015684"><ele>309.0</ele><time>2026-04-26T15:53:31.299Z</time></trkpt><trkpt lat="43.2009014" lon="11.6014793"><ele>309.0</ele><time>2026-04-26T15:53:32.297Z</time></trkpt><trkpt lat="43.2010507" lon="11.6014035"><ele>309.0</ele><time>2026-04-26T15:53:33.298Z</time></trkpt><trkpt lat="43.2012002" lon="11.6013331"><ele>309.0</ele><time>2026-04-26T15:53:34.298Z</time></trkpt><trkpt lat="43.2013406" lon="11.6012497"><ele>309.0</ele><time>2026-04-26T15:53:35.297Z</time></trkpt><trkpt lat="43.2014718" lon="11.6011459"><ele>309.0</ele><time>2026-04-26T15:53:36.297Z</time></trkpt><trkpt lat="43.2016061" lon="11.6010487"><ele>307.6666666666667</ele><time>2026-04-26T15:53:37.297Z</time></trkpt><trkpt lat="43.2017448" lon="11.6009657"><ele>306.33333333333337</ele><time>2026-04-26T15:53:38.298Z</time></trkpt><trkpt lat="43.2018845" lon="11.6008929"><ele>305.0</ele><time>2026-04-26T15:53:39.296Z</time></trkpt><trkpt lat="43.2020314" lon="11.6008462"><ele>305.0</ele><time>2026-04-26T15:53:40.298Z</time></trkpt><trkpt lat="43.2021836" lon="11.6008149"><ele>305.0</ele><time>2026-04-26T15:53:41.299Z</time></trkpt><trkpt lat="43.2023343" lon="11.6008016"><ele>305.0</ele><time>2026-04-26T15:53:42.297Z</time></trkpt><trkpt lat="43.2024772" lon="11.6007986"><ele>305.0</ele><time>2026-04-26T15:53:43.298Z</time></trkpt><trkpt lat="43.2026057" lon="11.6007842"><ele>306.4</ele><time>2026-04-26T15:53:44.297Z</time></trkpt><trkpt lat="43.2027139" lon="11.6007583"><ele>307.8</ele><time>2026-04-26T15:53:45.298Z</time></trkpt><trkpt lat="43.2028032" lon="11.6007409"><ele>309.2</ele><time>2026-04-26T15:53:46.298Z</time></trkpt><trkpt lat="43.2028906" lon="11.6007524"><ele>310.6</ele><time>2026-04-26T15:53:47.296Z</time></trkpt><trkpt lat="43.2029802" lon="11.6007975"><ele>312.0</ele><time>2026-04-26T15:53:48.298Z</time></trkpt><trkpt lat="43.2030764" lon="11.6008587"><ele>313.2</ele><time>2026-04-26T15:53:49.295Z</time></trkpt><trkpt lat="43.2031816" lon="11.6009027"><ele>314.4</ele><time>2026-04-26T15:53:50.296Z</time></trkpt><trkpt lat="43.2032883" lon="11.6009171"><ele>315.6</ele><time>2026-04-26T15:53:51.297Z</time></trkpt><trkpt lat="43.2033998" lon="11.6009143"><ele>316.8</ele><time>2026-04-26T15:53:52.295Z</time></trkpt><trkpt lat="43.2035147" lon="11.6009024"><ele>318.0</ele><time>2026-04-26T15:53:53.297Z</time></trkpt><trkpt lat="43.2036244" lon="11.6008795"><ele>318.0</ele><time>2026-04-26T15:53:54.299Z</time></trkpt><trkpt lat="43.2037185" lon="11.6008404"><ele>318.0</ele><time>2026-04-26T15:53:55.299Z</time></trkpt><trkpt lat="43.2037909" lon="11.6007802"><ele>318.0</ele><time>2026-04-26T15:53:56.297Z</time></trkpt><trkpt lat="43.203841" lon="11.600701"><ele>318.0</ele><time>2026-04-26T15:53:57.298Z</time></trkpt><trkpt lat="43.2038593" lon="11.6006078"><ele>318.0</ele><time>2026-04-26T15:53:58.296Z</time></trkpt><trkpt lat="43.2038425" lon="11.6005078"><ele>318.0</ele><time>2026-04-26T15:53:59.297Z</time></trkpt><trkpt lat="43.2037973" lon="11.6003925"><ele>317.0</ele><time>2026-04-26T15:54:00.297Z</time></trkpt><trkpt lat="43.2037385" lon="11.6002684"><ele>316.0</ele><time>2026-04-26T15:54:01.299Z</time></trkpt><trkpt lat="43.2036726" lon="11.6001323"><ele>315.0</ele><time>2026-04-26T15:54:02.298Z</time></trkpt><trkpt lat="43.2036077" lon="11.599984"><ele>314.0</ele><time>2026-04-26T15:54:03.299Z</time></trkpt><trkpt lat="43.2035466" lon="11.5998283"><ele>314.0</ele><time>2026-04-26T15:54:04.299Z</time></trkpt><trkpt lat="43.2034922" lon="11.5996676"><ele>314.0</ele><time>2026-04-26T15:54:05.299Z</time></trkpt><trkpt lat="43.203452" lon="11.5995124"><ele>314.0</ele><time>2026-04-26T15:54:06.298Z</time></trkpt><trkpt lat="43.2034208" lon="11.5993659"><ele>314.0</ele><time>2026-04-26T15:54:07.297Z</time></trkpt><trkpt lat="43.2033857" lon="11.5992319"><ele>314.0</ele><time>2026-04-26T15:54:08.299Z</time></trkpt><trkpt lat="43.2033394" lon="11.5991116"><ele>314.0</ele><time>2026-04-26T15:54:09.298Z</time></trkpt><trkpt lat="43.2032794" lon="11.5990101"><ele>314.0</ele><time>2026-04-26T15:54:10.296Z</time></trkpt><trkpt lat="43.2032081" lon="11.5989265"><ele>314.0</ele><time>2026-04-26T15:54:11.298Z</time></trkpt><trkpt lat="43.2031246" lon="11.5988566"><ele>314.0</ele><time>2026-04-26T15:54:12.298Z</time></trkpt><trkpt lat="43.203031" lon="11.5988095"><ele>314.0</ele><time>2026-04-26T15:54:13.297Z</time></trkpt><trkpt lat="43.2029377" lon="11.5987722"><ele>314.0</ele><time>2026-04-26T15:54:14.297Z</time></trkpt><trkpt lat="43.2028555" lon="11.5987414"><ele>314.0</ele><time>2026-04-26T15:54:15.298Z</time></trkpt><trkpt lat="43.2027902" lon="11.5987061"><ele>314.0</ele><time>2026-04-26T15:54:16.299Z</time></trkpt><trkpt lat="43.2027188" lon="11.5985948"><ele>314.0</ele><time>2026-04-26T15:54:18.298Z</time></trkpt><trkpt lat="43.2027675" lon="11.5984853"><ele>314.0</ele><time>2026-04-26T15:54:20.298Z</time></trkpt><trkpt lat="43.2029037" lon="11.5984821"><ele>314.0</ele><time>2026-04-26T15:54:22.297Z</time></trkpt><trkpt lat="43.2030022" lon="11.5985071"><ele>314.0</ele><time>2026-04-26T15:54:23.298Z</time></trkpt><trkpt lat="43.2031203" lon="11.5985342"><ele>314.0</ele><time>2026-04-26T15:54:24.298Z</time></trkpt><trkpt lat="43.2032508" lon="11.5985596"><ele>314.0</ele><time>2026-04-26T15:54:25.298Z</time></trkpt><trkpt lat="43.2033889" lon="11.5985939"><ele>314.0</ele><time>2026-04-26T15:54:26.299Z</time></trkpt><trkpt lat="43.2035276" lon="11.5986421"><ele>314.0</ele><time>2026-04-26T15:54:27.298Z</time></trkpt><trkpt lat="43.2036681" lon="11.5987155"><ele>314.0</ele><time>2026-04-26T15:54:28.298Z</time></trkpt><trkpt lat="43.2038084" lon="11.5988123"><ele>314.0</ele><time>2026-04-26T15:54:29.299Z</time></trkpt><trkpt lat="43.2039454" lon="11.5989225"><ele>314.0</ele><time>2026-04-26T15:54:30.298Z</time></trkpt><trkpt lat="43.2040737" lon="11.5990307"><ele>314.0</ele><time>2026-04-26T15:54:31.298Z</time></trkpt><trkpt lat="43.2042034" lon="11.5991229"><ele>312.0</ele><time>2026-04-26T15:54:32.298Z</time></trkpt><trkpt lat="43.2043346" lon="11.59918"><ele>310.0</ele><time>2026-04-26T15:54:33.296Z</time></trkpt><trkpt lat="43.2044682" lon="11.5992024"><ele>308.0</ele><time>2026-04-26T15:54:34.296Z</time></trkpt><trkpt lat="43.2046045" lon="11.5991995"><ele>306.0</ele><time>2026-04-26T15:54:35.299Z</time></trkpt><trkpt lat="43.204746" lon="11.5991998"><ele>303.0</ele><time>2026-04-26T15:54:36.295Z</time></trkpt><trkpt lat="43.2048914" lon="11.5992289"><ele>300.0</ele><time>2026-04-26T15:54:37.299Z</time></trkpt><trkpt lat="43.2050294" lon="11.5992932"><ele>297.0</ele><time>2026-04-26T15:54:38.298Z</time></trkpt><trkpt lat="43.2051443" lon="11.5993887"><ele>294.0</ele><time>2026-04-26T15:54:39.297Z</time></trkpt><trkpt lat="43.2052311" lon="11.5994914"><ele>294.0</ele><time>2026-04-26T15:54:40.299Z</time></trkpt><trkpt lat="43.2052924" lon="11.5995781"><ele>294.0</ele><time>2026-04-26T15:54:41.298Z</time></trkpt><trkpt lat="43.2053471" lon="11.5996378"><ele>294.0</ele><time>2026-04-26T15:54:42.297Z</time></trkpt><trkpt lat="43.2054554" lon="11.599668"><ele>294.0</ele><time>2026-04-26T15:54:44.299Z</time></trkpt><trkpt lat="43.2055096" lon="11.5996131"><ele>294.0</ele><time>2026-04-26T15:54:45.298Z</time></trkpt><trkpt lat="43.2055411" lon="11.5995249"><ele>294.0</ele><time>2026-04-26T15:54:46.299Z</time></trkpt><trkpt lat="43.2055417" lon="11.5994069"><ele>294.0</ele><time>2026-04-26T15:54:47.298Z</time></trkpt><trkpt lat="43.2055125" lon="11.5992749"><ele>294.0</ele><time>2026-04-26T15:54:48.298Z</time></trkpt><trkpt lat="43.2054585" lon="11.5991171"><ele>294.0</ele><time>2026-04-26T15:54:49.298Z</time></trkpt><trkpt lat="43.2053734" lon="11.5989418"><ele>294.0</ele><time>2026-04-26T15:54:50.298Z</time></trkpt><trkpt lat="43.2052968" lon="11.5987785"><ele>290.75</ele><time>2026-04-26T15:54:51.297Z</time></trkpt><trkpt lat="43.2052315" lon="11.5986262"><ele>287.5</ele><time>2026-04-26T15:54:52.296Z</time></trkpt><trkpt lat="43.2051881" lon="11.5984745"><ele>284.25</ele><time>2026-04-26T15:54:53.297Z</time></trkpt><trkpt lat="43.2051793" lon="11.5983126"><ele>281.0</ele><time>2026-04-26T15:54:54.297Z</time></trkpt><trkpt lat="43.2052127" lon="11.5981578"><ele>281.0</ele><time>2026-04-26T15:54:55.299Z</time></trkpt><trkpt lat="43.2052815" lon="11.5980144"><ele>281.0</ele><time>2026-04-26T15:54:56.299Z</time></trkpt><trkpt lat="43.2053864" lon="11.5978918"><ele>281.0</ele><time>2026-04-26T15:54:57.298Z</time></trkpt><trkpt lat="43.2055113" lon="11.5977768"><ele>281.0</ele><time>2026-04-26T15:54:58.299Z</time></trkpt><trkpt lat="43.2056412" lon="11.5976479"><ele>277.6666666666667</ele><time>2026-04-26T15:54:59.298Z</time></trkpt><trkpt lat="43.2057702" lon="11.5974977"><ele>274.3333333333333</ele><time>2026-04-26T15:55:00.298Z</time></trkpt><trkpt lat="43.2058964" lon="11.5973304"><ele>271.0</ele><time>2026-04-26T15:55:01.298Z</time></trkpt><trkpt lat="43.2060215" lon="11.5971534"><ele>267.0</ele><time>2026-04-26T15:55:02.299Z</time></trkpt><trkpt lat="43.2061463" lon="11.5969761"><ele>263.0</ele><time>2026-04-26T15:55:03.296Z</time></trkpt><trkpt lat="43.2062732" lon="11.5967995"><ele>259.0</ele><time>2026-04-26T15:55:04.298Z</time></trkpt><trkpt lat="43.206403" lon="11.5966248"><ele>259.3333333333333</ele><time>2026-04-26T15:55:05.298Z</time></trkpt><trkpt lat="43.2065333" lon="11.5964531"><ele>259.6666666666667</ele><time>2026-04-26T15:55:06.295Z</time></trkpt><trkpt lat="43.2066632" lon="11.5962859"><ele>260.0</ele><time>2026-04-26T15:55:07.296Z</time></trkpt><trkpt lat="43.2067901" lon="11.5961144"><ele>260.0</ele><time>2026-04-26T15:55:08.299Z</time></trkpt><trkpt lat="43.2069075" lon="11.5959365"><ele>260.0</ele><time>2026-04-26T15:55:09.297Z</time></trkpt><trkpt lat="43.2070157" lon="11.595752"><ele>260.0</ele><time>2026-04-26T15:55:10.298Z</time></trkpt><trkpt lat="43.2071202" lon="11.5955572"><ele>260.0</ele><time>2026-04-26T15:55:11.298Z</time></trkpt><trkpt lat="43.207226" lon="11.595361"><ele>260.0</ele><time>2026-04-26T15:55:12.296Z</time></trkpt><trkpt lat="43.2073333" lon="11.5951665"><ele>260.0</ele><time>2026-04-26T15:55:13.299Z</time></trkpt><trkpt lat="43.2074383" lon="11.5949712"><ele>260.33333333333337</ele><time>2026-04-26T15:55:14.299Z</time></trkpt><trkpt lat="43.2075434" lon="11.5947703"><ele>260.6666666666667</ele><time>2026-04-26T15:55:15.298Z</time></trkpt><trkpt lat="43.2076423" lon="11.5945589"><ele>261.0</ele><time>2026-04-26T15:55:16.299Z</time></trkpt><trkpt lat="43.2077326" lon="11.5943332"><ele>258.6666666666667</ele><time>2026-04-26T15:55:17.298Z</time></trkpt><trkpt lat="43.2078123" lon="11.5940974"><ele>256.33333333333337</ele><time>2026-04-26T15:55:18.298Z</time></trkpt><trkpt lat="43.2078824" lon="11.593857"><ele>254.0</ele><time>2026-04-26T15:55:19.299Z</time></trkpt><trkpt lat="43.2079468" lon="11.5936132"><ele>252.33333333333334</ele><time>2026-04-26T15:55:20.3Z</time></trkpt><trkpt lat="43.2080098" lon="11.5933679"><ele>250.66666666666669</ele><time>2026-04-26T15:55:21.298Z</time></trkpt><trkpt lat="43.2080763" lon="11.5931292"><ele>249.0</ele><time>2026-04-26T15:55:22.298Z</time></trkpt><trkpt lat="43.2081493" lon="11.5929007"><ele>251.0</ele><time>2026-04-26T15:55:23.296Z</time></trkpt><trkpt lat="43.2082274" lon="11.5926763"><ele>253.0</ele><time>2026-04-26T15:55:24.296Z</time></trkpt><trkpt lat="43.2083076" lon="11.5924558"><ele>255.0</ele><time>2026-04-26T15:55:25.298Z</time></trkpt><trkpt lat="43.2083894" lon="11.5922377"><ele>255.0</ele><time>2026-04-26T15:55:26.3Z</time></trkpt><trkpt lat="43.2084743" lon="11.5920227"><ele>255.0</ele><time>2026-04-26T15:55:27.296Z</time></trkpt><trkpt lat="43.2085611" lon="11.5918123"><ele>255.0</ele><time>2026-04-26T15:55:28.297Z</time></trkpt><trkpt lat="43.2086527" lon="11.5916061"><ele>253.66666666666669</ele><time>2026-04-26T15:55:29.298Z</time></trkpt><trkpt lat="43.2087474" lon="11.5914058"><ele>252.33333333333334</ele><time>2026-04-26T15:55:30.298Z</time></trkpt><trkpt lat="43.2088428" lon="11.5912074"><ele>251.0</ele><time>2026-04-26T15:55:31.299Z</time></trkpt><trkpt lat="43.208941" lon="11.591011"><ele>250.66666666666669</ele><time>2026-04-26T15:55:32.298Z</time></trkpt><trkpt lat="43.2090415" lon="11.5908179"><ele>250.33333333333331</ele><time>2026-04-26T15:55:33.299Z</time></trkpt><trkpt lat="43.2091476" lon="11.5906277"><ele>250.0</ele><time>2026-04-26T15:55:34.298Z</time></trkpt><trkpt lat="43.2092592" lon="11.5904442"><ele>250.0</ele><time>2026-04-26T15:55:35.298Z</time></trkpt><trkpt lat="43.2093836" lon="11.590275"><ele>250.0</ele><time>2026-04-26T15:55:36.298Z</time></trkpt><trkpt lat="43.2095146" lon="11.5901185"><ele>250.0</ele><time>2026-04-26T15:55:37.298Z</time></trkpt><trkpt lat="43.2096494" lon="11.5899686"><ele>250.0</ele><time>2026-04-26T15:55:38.297Z</time></trkpt><trkpt lat="43.2097878" lon="11.5898225"><ele>250.0</ele><time>2026-04-26T15:55:39.297Z</time></trkpt><trkpt lat="43.2099297" lon="11.5896823"><ele>250.0</ele><time>2026-04-26T15:55:40.298Z</time></trkpt><trkpt lat="43.2100762" lon="11.5895505"><ele>249.0</ele><time>2026-04-26T15:55:41.298Z</time></trkpt><trkpt lat="43.2102218" lon="11.5894215"><ele>248.0</ele><time>2026-04-26T15:55:42.298Z</time></trkpt><trkpt lat="43.2103608" lon="11.589287"><ele>247.0</ele><time>2026-04-26T15:55:43.298Z</time></trkpt><trkpt lat="43.2104905" lon="11.589145"><ele>247.0</ele><time>2026-04-26T15:55:44.299Z</time></trkpt><trkpt lat="43.2106131" lon="11.5890014"><ele>247.0</ele><time>2026-04-26T15:55:45.297Z</time></trkpt><trkpt lat="43.2107408" lon="11.5888762"><ele>247.0</ele><time>2026-04-26T15:55:46.297Z</time></trkpt><trkpt lat="43.2108771" lon="11.5887679"><ele>245.0</ele><time>2026-04-26T15:55:47.297Z</time></trkpt><trkpt lat="43.2110266" lon="11.5886777"><ele>243.0</ele><time>2026-04-26T15:55:48.298Z</time></trkpt><trkpt lat="43.2111839" lon="11.588606"><ele>241.0</ele><time>2026-04-26T15:55:49.297Z</time></trkpt><trkpt lat="43.2113475" lon="11.5885511"><ele>239.66666666666666</ele><time>2026-04-26T15:55:50.299Z</time></trkpt><trkpt lat="43.2115131" lon="11.588502"><ele>238.33333333333331</ele><time>2026-04-26T15:55:51.299Z</time></trkpt><trkpt lat="43.2116783" lon="11.5884604"><ele>237.0</ele><time>2026-04-26T15:55:52.295Z</time></trkpt><trkpt lat="43.2118384" lon="11.5884211"><ele>237.0</ele><time>2026-04-26T15:55:53.297Z</time></trkpt><trkpt lat="43.2119907" lon="11.5883779"><ele>237.0</ele><time>2026-04-26T15:55:54.298Z</time></trkpt><trkpt lat="43.2121344" lon="11.5883321"><ele>237.0</ele><time>2026-04-26T15:55:55.297Z</time></trkpt><trkpt lat="43.2122662" lon="11.5882746"><ele>237.0</ele><time>2026-04-26T15:55:56.298Z</time></trkpt><trkpt lat="43.2123892" lon="11.5881907"><ele>236.5</ele><time>2026-04-26T15:55:57.299Z</time></trkpt><trkpt lat="43.2125029" lon="11.5880727"><ele>236.0</ele><time>2026-04-26T15:55:58.297Z</time></trkpt><trkpt lat="43.2126075" lon="11.5879236"><ele>235.5</ele><time>2026-04-26T15:55:59.298Z</time></trkpt><trkpt lat="43.2127115" lon="11.5877668"><ele>235.0</ele><time>2026-04-26T15:56:00.298Z</time></trkpt><trkpt lat="43.2128178" lon="11.5876126"><ele>235.0</ele><time>2026-04-26T15:56:01.296Z</time></trkpt><trkpt lat="43.2129308" lon="11.5874641"><ele>235.0</ele><time>2026-04-26T15:56:02.299Z</time></trkpt><trkpt lat="43.2130525" lon="11.5873305"><ele>235.0</ele><time>2026-04-26T15:56:03.298Z</time></trkpt><trkpt lat="43.2131793" lon="11.5872081"><ele>234.0</ele><time>2026-04-26T15:56:04.296Z</time></trkpt><trkpt lat="43.2133049" lon="11.5870988"><ele>233.0</ele><time>2026-04-26T15:56:05.298Z</time></trkpt><trkpt lat="43.2134285" lon="11.5869979"><ele>232.0</ele><time>2026-04-26T15:56:06.299Z</time></trkpt><trkpt lat="43.213544" lon="11.5868951"><ele>231.0</ele><time>2026-04-26T15:56:07.298Z</time></trkpt><trkpt lat="43.2136479" lon="11.5867793"><ele>231.0</ele><time>2026-04-26T15:56:08.298Z</time></trkpt><trkpt lat="43.2137379" lon="11.5866355"><ele>231.0</ele><time>2026-04-26T15:56:09.298Z</time></trkpt><trkpt lat="43.2138148" lon="11.5864673"><ele>231.0</ele><time>2026-04-26T15:56:10.298Z</time></trkpt><trkpt lat="43.2138821" lon="11.5862827"><ele>231.0</ele><time>2026-04-26T15:56:11.295Z</time></trkpt><trkpt lat="43.2139469" lon="11.5860828"><ele>226.0</ele><time>2026-04-26T15:56:12.298Z</time></trkpt><trkpt lat="43.214015" lon="11.5858791"><ele>221.0</ele><time>2026-04-26T15:56:13.299Z</time></trkpt><trkpt lat="43.2140829" lon="11.5856778"><ele>216.0</ele><time>2026-04-26T15:56:14.299Z</time></trkpt><trkpt lat="43.2141392" lon="11.58548"><ele>215.66666666666669</ele><time>2026-04-26T15:56:15.299Z</time></trkpt><trkpt lat="43.214177" lon="11.5852837"><ele>215.33333333333334</ele><time>2026-04-26T15:56:16.297Z</time></trkpt><trkpt lat="43.2141935" lon="11.5850774"><ele>215.0</ele><time>2026-04-26T15:56:17.298Z</time></trkpt><trkpt lat="43.214191" lon="11.5848643"><ele>215.0</ele><time>2026-04-26T15:56:18.298Z</time></trkpt><trkpt lat="43.2141823" lon="11.5846441"><ele>215.0</ele><time>2026-04-26T15:56:19.298Z</time></trkpt><trkpt lat="43.2141716" lon="11.5844233"><ele>215.0</ele><time>2026-04-26T15:56:20.298Z</time></trkpt><trkpt lat="43.2141643" lon="11.5842048"><ele>214.0</ele><time>2026-04-26T15:56:21.298Z</time></trkpt><trkpt lat="43.214164" lon="11.5839882"><ele>213.0</ele><time>2026-04-26T15:56:22.298Z</time></trkpt><trkpt lat="43.2141784" lon="11.583773"><ele>212.0</ele><time>2026-04-26T15:56:23.297Z</time></trkpt><trkpt lat="43.2142053" lon="11.5835612"><ele>212.0</ele><time>2026-04-26T15:56:24.299Z</time></trkpt><trkpt lat="43.214242" lon="11.5833527"><ele>212.0</ele><time>2026-04-26T15:56:25.298Z</time></trkpt><trkpt lat="43.2142847" lon="11.5831444"><ele>212.0</ele><time>2026-04-26T15:56:26.298Z</time></trkpt><trkpt lat="43.2143316" lon="11.5829351"><ele>211.66666666666669</ele><time>2026-04-26T15:56:27.297Z</time></trkpt><trkpt lat="43.2143766" lon="11.5827233"><ele>211.33333333333331</ele><time>2026-04-26T15:56:28.295Z</time></trkpt><trkpt lat="43.2144183" lon="11.5825101"><ele>211.0</ele><time>2026-04-26T15:56:29.298Z</time></trkpt><trkpt lat="43.21446" lon="11.582295"><ele>211.0</ele><time>2026-04-26T15:56:30.296Z</time></trkpt><trkpt lat="43.2144999" lon="11.5820785"><ele>211.0</ele><time>2026-04-26T15:56:31.295Z</time></trkpt><trkpt lat="43.2145367" lon="11.5818599"><ele>211.0</ele><time>2026-04-26T15:56:32.296Z</time></trkpt><trkpt lat="43.2145674" lon="11.5816399"><ele>210.33333333333331</ele><time>2026-04-26T15:56:33.296Z</time></trkpt><trkpt lat="43.2145951" lon="11.5814184"><ele>209.66666666666669</ele><time>2026-04-26T15:56:34.295Z</time></trkpt><trkpt lat="43.2146174" lon="11.5811948"><ele>209.0</ele><time>2026-04-26T15:56:35.298Z</time></trkpt><trkpt lat="43.2146369" lon="11.5809696"><ele>209.0</ele><time>2026-04-26T15:56:36.293Z</time></trkpt><trkpt lat="43.2146549" lon="11.5807447"><ele>209.0</ele><time>2026-04-26T15:56:37.297Z</time></trkpt><trkpt lat="43.214675" lon="11.5805245"><ele>209.0</ele><time>2026-04-26T15:56:38.299Z</time></trkpt><trkpt lat="43.2146917" lon="11.5803034"><ele>208.66666666666669</ele><time>2026-04-26T15:56:39.296Z</time></trkpt><trkpt lat="43.2147112" lon="11.5800817"><ele>208.33333333333331</ele><time>2026-04-26T15:56:40.299Z</time></trkpt><trkpt lat="43.2147265" lon="11.5798584"><ele>208.0</ele><time>2026-04-26T15:56:41.295Z</time></trkpt><trkpt lat="43.2147429" lon="11.5796333"><ele>207.33333333333331</ele><time>2026-04-26T15:56:42.297Z</time></trkpt><trkpt lat="43.2147549" lon="11.5794035"><ele>206.66666666666669</ele><time>2026-04-26T15:56:43.297Z</time></trkpt><trkpt lat="43.2147695" lon="11.5791792"><ele>206.0</ele><time>2026-04-26T15:56:44.298Z</time></trkpt><trkpt lat="43.2147917" lon="11.5789714"><ele>202.0</ele><time>2026-04-26T15:56:45.299Z</time></trkpt><trkpt lat="43.2148313" lon="11.5787812"><ele>198.0</ele><time>2026-04-26T15:56:46.299Z</time></trkpt><trkpt lat="43.214894" lon="11.5786126"><ele>194.0</ele><time>2026-04-26T15:56:47.298Z</time></trkpt><trkpt lat="43.2149825" lon="11.5784718"><ele>190.0</ele><time>2026-04-26T15:56:48.298Z</time></trkpt><trkpt lat="43.2150985" lon="11.5783669"><ele>190.0</ele><time>2026-04-26T15:56:49.299Z</time></trkpt><trkpt lat="43.2152348" lon="11.5782932"><ele>190.0</ele><time>2026-04-26T15:56:50.299Z</time></trkpt><trkpt lat="43.2153792" lon="11.5782247"><ele>190.0</ele><time>2026-04-26T15:56:51.297Z</time></trkpt><trkpt lat="43.2155215" lon="11.5781404"><ele>190.0</ele><time>2026-04-26T15:56:52.296Z</time></trkpt><trkpt lat="43.215653" lon="11.578025"><ele>190.0</ele><time>2026-04-26T15:56:53.296Z</time></trkpt><trkpt lat="43.2157701" lon="11.577878"><ele>190.0</ele><time>2026-04-26T15:56:54.298Z</time></trkpt><trkpt lat="43.2158755" lon="11.5777078"><ele>189.66666666666669</ele><time>2026-04-26T15:56:55.294Z</time></trkpt><trkpt lat="43.2159892" lon="11.5775323"><ele>189.33333333333334</ele><time>2026-04-26T15:56:56.298Z</time></trkpt><trkpt lat="43.2161232" lon="11.5773647"><ele>189.0</ele><time>2026-04-26T15:56:57.299Z</time></trkpt><trkpt lat="43.2162735" lon="11.5772095"><ele>189.0</ele><time>2026-04-26T15:56:58.297Z</time></trkpt><trkpt lat="43.2164401" lon="11.5770717"><ele>189.0</ele><time>2026-04-26T15:56:59.298Z</time></trkpt><trkpt lat="43.2166114" lon="11.5769545"><ele>189.0</ele><time>2026-04-26T15:57:00.298Z</time></trkpt><trkpt lat="43.2167839" lon="11.5768716"><ele>190.0</ele><time>2026-04-26T15:57:01.298Z</time></trkpt><trkpt lat="43.2169641" lon="11.5768187"><ele>191.0</ele><time>2026-04-26T15:57:02.298Z</time></trkpt><trkpt lat="43.2171553" lon="11.5767889"><ele>192.0</ele><time>2026-04-26T15:57:03.299Z</time></trkpt><trkpt lat="43.2173478" lon="11.5767665"><ele>192.66666666666669</ele><time>2026-04-26T15:57:04.299Z</time></trkpt><trkpt lat="43.2175442" lon="11.576749"><ele>193.33333333333334</ele><time>2026-04-26T15:57:05.298Z</time></trkpt><trkpt lat="43.2177447" lon="11.5767307"><ele>194.0</ele><time>2026-04-26T15:57:06.298Z</time></trkpt><trkpt lat="43.2179453" lon="11.5767172"><ele>194.0</ele><time>2026-04-26T15:57:07.298Z</time></trkpt><trkpt lat="43.2181421" lon="11.5767061"><ele>194.0</ele><time>2026-04-26T15:57:08.298Z</time></trkpt><trkpt lat="43.2183354" lon="11.5766953"><ele>194.0</ele><time>2026-04-26T15:57:09.298Z</time></trkpt><trkpt lat="43.2185238" lon="11.5766683"><ele>194.33333333333334</ele><time>2026-04-26T15:57:10.299Z</time></trkpt><trkpt lat="43.2187117" lon="11.5766219"><ele>194.66666666666669</ele><time>2026-04-26T15:57:11.298Z</time></trkpt><trkpt lat="43.2188999" lon="11.5765576"><ele>195.0</ele><time>2026-04-26T15:57:12.298Z</time></trkpt><trkpt lat="43.2190885" lon="11.5764939"><ele>195.66666666666669</ele><time>2026-04-26T15:57:13.297Z</time></trkpt><trkpt lat="43.2192671" lon="11.5764387"><ele>196.33333333333334</ele><time>2026-04-26T15:57:14.3Z</time></trkpt><trkpt lat="43.2194402" lon="11.5763904"><ele>197.0</ele><time>2026-04-26T15:57:15.298Z</time></trkpt><trkpt lat="43.2196072" lon="11.5763478"><ele>197.0</ele><time>2026-04-26T15:57:16.298Z</time></trkpt><trkpt lat="43.2197654" lon="11.5763023"><ele>197.0</ele><time>2026-04-26T15:57:17.297Z</time></trkpt><trkpt lat="43.2199154" lon="11.5762486"><ele>197.0</ele><time>2026-04-26T15:57:18.299Z</time></trkpt><trkpt lat="43.2200592" lon="11.5761662"><ele>195.0</ele><time>2026-04-26T15:57:19.297Z</time></trkpt><trkpt lat="43.2201851" lon="11.5760499"><ele>193.0</ele><time>2026-04-26T15:57:20.299Z</time></trkpt><trkpt lat="43.2202904" lon="11.5759159"><ele>191.0</ele><time>2026-04-26T15:57:21.299Z</time></trkpt><trkpt lat="43.2203829" lon="11.5757787"><ele>189.0</ele><time>2026-04-26T15:57:22.297Z</time></trkpt><trkpt lat="43.2204722" lon="11.5756448"><ele>189.0</ele><time>2026-04-26T15:57:23.298Z</time></trkpt><trkpt lat="43.2205629" lon="11.5755099"><ele>189.0</ele><time>2026-04-26T15:57:24.297Z</time></trkpt><trkpt lat="43.2206545" lon="11.5753756"><ele>189.0</ele><time>2026-04-26T15:57:25.297Z</time></trkpt><trkpt lat="43.2207467" lon="11.5752491"><ele>189.0</ele><time>2026-04-26T15:57:26.298Z</time></trkpt><trkpt lat="43.2208336" lon="11.5751226"><ele>189.79999999999998</ele><time>2026-04-26T15:57:27.297Z</time></trkpt><trkpt lat="43.220917" lon="11.5749961"><ele>190.6</ele><time>2026-04-26T15:57:28.298Z</time></trkpt><trkpt lat="43.2209924" lon="11.5748758"><ele>191.4</ele><time>2026-04-26T15:57:29.297Z</time></trkpt><trkpt lat="43.2210607" lon="11.5747647"><ele>192.2</ele><time>2026-04-26T15:57:30.3Z</time></trkpt><trkpt lat="43.2211238" lon="11.5746651"><ele>193.0</ele><time>2026-04-26T15:57:31.298Z</time></trkpt><trkpt lat="43.221182" lon="11.5745711"><ele>193.33333333333331</ele><time>2026-04-26T15:57:32.296Z</time></trkpt><trkpt lat="43.2212353" lon="11.5744824"><ele>193.66666666666666</ele><time>2026-04-26T15:57:33.295Z</time></trkpt><trkpt lat="43.2212853" lon="11.5744007"><ele>194.0</ele><time>2026-04-26T15:57:34.298Z</time></trkpt><trkpt lat="43.2213348" lon="11.5743225"><ele>194.33333333333331</ele><time>2026-04-26T15:57:35.297Z</time></trkpt><trkpt lat="43.2213877" lon="11.5742476"><ele>194.66666666666666</ele><time>2026-04-26T15:57:36.297Z</time></trkpt><trkpt lat="43.2214446" lon="11.5741685"><ele>195.0</ele><time>2026-04-26T15:57:37.295Z</time></trkpt><trkpt lat="43.2215048" lon="11.5740834"><ele>195.0</ele><time>2026-04-26T15:57:38.296Z</time></trkpt><trkpt lat="43.2215693" lon="11.5739901"><ele>195.0</ele><time>2026-04-26T15:57:39.296Z</time></trkpt><trkpt lat="43.2216411" lon="11.5738905"><ele>195.0</ele><time>2026-04-26T15:57:40.296Z</time></trkpt><trkpt lat="43.221713" lon="11.5737777"><ele>195.0</ele><time>2026-04-26T15:57:41.295Z</time></trkpt><trkpt lat="43.2217896" lon="11.5736572"><ele>195.0</ele><time>2026-04-26T15:57:42.295Z</time></trkpt><trkpt lat="43.2218665" lon="11.5735334"><ele>193.4</ele><time>2026-04-26T15:57:43.295Z</time></trkpt><trkpt lat="43.2219416" lon="11.5734096"><ele>191.8</ele><time>2026-04-26T15:57:44.3Z</time></trkpt><trkpt lat="43.2220162" lon="11.5732945"><ele>190.2</ele><time>2026-04-26T15:57:45.296Z</time></trkpt><trkpt lat="43.2220915" lon="11.5731872"><ele>188.6</ele><time>2026-04-26T15:57:46.299Z</time></trkpt><trkpt lat="43.2221727" lon="11.5730953"><ele>187.0</ele><time>2026-04-26T15:57:47.295Z</time></trkpt><trkpt lat="43.222261" lon="11.5730167"><ele>186.6</ele><time>2026-04-26T15:57:48.297Z</time></trkpt><trkpt lat="43.2223573" lon="11.5729529"><ele>186.2</ele><time>2026-04-26T15:57:49.296Z</time></trkpt><trkpt lat="43.2224577" lon="11.5728958"><ele>185.8</ele><time>2026-04-26T15:57:50.296Z</time></trkpt><trkpt lat="43.2225597" lon="11.572841"><ele>185.4</ele><time>2026-04-26T15:57:51.296Z</time></trkpt><trkpt lat="43.2226615" lon="11.5727878"><ele>185.0</ele><time>2026-04-26T15:57:52.296Z</time></trkpt><trkpt lat="43.2227602" lon="11.5727318"><ele>185.0</ele><time>2026-04-26T15:57:53.295Z</time></trkpt><trkpt lat="43.22286" lon="11.5726734"><ele>185.0</ele><time>2026-04-26T15:57:54.298Z</time></trkpt><trkpt lat="43.2229507" lon="11.5726119"><ele>185.0</ele><time>2026-04-26T15:57:55.298Z</time></trkpt><trkpt lat="43.2230309" lon="11.572535"><ele>185.0</ele><time>2026-04-26T15:57:56.297Z</time></trkpt><trkpt lat="43.2231023" lon="11.5724461"><ele>185.0</ele><time>2026-04-26T15:57:57.298Z</time></trkpt><trkpt lat="43.223167" lon="11.5723451"><ele>185.5</ele><time>2026-04-26T15:57:58.295Z</time></trkpt><trkpt lat="43.2232259" lon="11.572213"><ele>186.0</ele><time>2026-04-26T15:57:59.298Z</time></trkpt><trkpt lat="43.2232775" lon="11.57205"><ele>186.5</ele><time>2026-04-26T15:58:00.297Z</time></trkpt><trkpt lat="43.2233159" lon="11.5718572"><ele>187.0</ele><time>2026-04-26T15:58:01.298Z</time></trkpt><trkpt lat="43.2233499" lon="11.5716484"><ele>187.33333333333334</ele><time>2026-04-26T15:58:02.299Z</time></trkpt><trkpt lat="43.2233759" lon="11.5714215"><ele>187.66666666666666</ele><time>2026-04-26T15:58:03.299Z</time></trkpt><trkpt lat="43.223398" lon="11.5711845"><ele>188.0</ele><time>2026-04-26T15:58:04.295Z</time></trkpt><trkpt lat="43.2234214" lon="11.5709343"><ele>187.66666666666666</ele><time>2026-04-26T15:58:05.298Z</time></trkpt><trkpt lat="43.2234449" lon="11.5706727"><ele>187.33333333333334</ele><time>2026-04-26T15:58:06.297Z</time></trkpt><trkpt lat="43.2234698" lon="11.570405"><ele>187.0</ele><time>2026-04-26T15:58:07.298Z</time></trkpt><trkpt lat="43.2234928" lon="11.5701443"><ele>187.0</ele><time>2026-04-26T15:58:08.299Z</time></trkpt><trkpt lat="43.2235256" lon="11.5698877"><ele>187.0</ele><time>2026-04-26T15:58:09.297Z</time></trkpt><trkpt lat="43.2235776" lon="11.5696391"><ele>187.0</ele><time>2026-04-26T15:58:10.297Z</time></trkpt><trkpt lat="43.2236467" lon="11.5694023"><ele>186.33333333333334</ele><time>2026-04-26T15:58:11.299Z</time></trkpt><trkpt lat="43.2237255" lon="11.569171"><ele>185.66666666666666</ele><time>2026-04-26T15:58:12.298Z</time></trkpt><trkpt lat="43.2238057" lon="11.5689427"><ele>185.0</ele><time>2026-04-26T15:58:13.297Z</time></trkpt><trkpt lat="43.2238815" lon="11.5687132"><ele>184.33333333333331</ele><time>2026-04-26T15:58:14.297Z</time></trkpt><trkpt lat="43.2239563" lon="11.5684868"><ele>183.66666666666666</ele><time>2026-04-26T15:58:15.298Z</time></trkpt><trkpt lat="43.2240299" lon="11.5682701"><ele>183.0</ele><time>2026-04-26T15:58:16.294Z</time></trkpt><trkpt lat="43.2241014" lon="11.568065"><ele>184.66666666666666</ele><time>2026-04-26T15:58:17.296Z</time></trkpt><trkpt lat="43.2241713" lon="11.5678706"><ele>186.33333333333331</ele><time>2026-04-26T15:58:18.295Z</time></trkpt><trkpt lat="43.2242461" lon="11.5676839"><ele>188.0</ele><time>2026-04-26T15:58:19.297Z</time></trkpt><trkpt lat="43.224329" lon="11.5675056"><ele>188.0</ele><time>2026-04-26T15:58:20.294Z</time></trkpt><trkpt lat="43.2244221" lon="11.567334"><ele>188.0</ele><time>2026-04-26T15:58:21.294Z</time></trkpt><trkpt lat="43.2245244" lon="11.5671657"><ele>188.0</ele><time>2026-04-26T15:58:22.294Z</time></trkpt><trkpt lat="43.2246325" lon="11.5670008"><ele>186.33333333333331</ele><time>2026-04-26T15:58:23.296Z</time></trkpt><trkpt lat="43.2247383" lon="11.5668362"><ele>184.66666666666666</ele><time>2026-04-26T15:58:24.294Z</time></trkpt><trkpt lat="43.2248438" lon="11.5666758"><ele>183.0</ele><time>2026-04-26T15:58:25.295Z</time></trkpt><trkpt lat="43.2249467" lon="11.5665175"><ele>183.66666666666666</ele><time>2026-04-26T15:58:26.297Z</time></trkpt><trkpt lat="43.2250497" lon="11.5663611"><ele>184.33333333333331</ele><time>2026-04-26T15:58:27.295Z</time></trkpt><trkpt lat="43.2251549" lon="11.5662109"><ele>185.0</ele><time>2026-04-26T15:58:28.295Z</time></trkpt><trkpt lat="43.2252585" lon="11.5660645"><ele>185.0</ele><time>2026-04-26T15:58:29.297Z</time></trkpt><trkpt lat="43.2253632" lon="11.5659166"><ele>185.0</ele><time>2026-04-26T15:58:30.297Z</time></trkpt><trkpt lat="43.2254668" lon="11.5657698"><ele>185.0</ele><time>2026-04-26T15:58:31.297Z</time></trkpt><trkpt lat="43.2255715" lon="11.5656231"><ele>185.0</ele><time>2026-04-26T15:58:32.295Z</time></trkpt><trkpt lat="43.2256766" lon="11.5654776"><ele>186.0</ele><time>2026-04-26T15:58:33.296Z</time></trkpt><trkpt lat="43.2257769" lon="11.5653389"><ele>187.0</ele><time>2026-04-26T15:58:34.297Z</time></trkpt><trkpt lat="43.2258736" lon="11.5652063"><ele>188.0</ele><time>2026-04-26T15:58:35.296Z</time></trkpt><trkpt lat="43.2259742" lon="11.5650776"><ele>189.0</ele><time>2026-04-26T15:58:36.295Z</time></trkpt><trkpt lat="43.2260807" lon="11.5649539"><ele>189.0</ele><time>2026-04-26T15:58:37.297Z</time></trkpt><trkpt lat="43.2261906" lon="11.5648321"><ele>189.0</ele><time>2026-04-26T15:58:38.297Z</time></trkpt><trkpt lat="43.2263072" lon="11.5647169"><ele>189.0</ele><time>2026-04-26T15:58:39.299Z</time></trkpt><trkpt lat="43.226431" lon="11.5646135"><ele>189.0</ele><time>2026-04-26T15:58:40.3Z</time></trkpt><trkpt lat="43.2265561" lon="11.5645127"><ele>189.0</ele><time>2026-04-26T15:58:41.298Z</time></trkpt><trkpt lat="43.2266846" lon="11.5644069"><ele>189.0</ele><time>2026-04-26T15:58:42.299Z</time></trkpt><trkpt lat="43.2268132" lon="11.5643044"><ele>189.0</ele><time>2026-04-26T15:58:43.298Z</time></trkpt><trkpt lat="43.2269339" lon="11.5642094"><ele>189.0</ele><time>2026-04-26T15:58:44.294Z</time></trkpt><trkpt lat="43.2270519" lon="11.5641164"><ele>189.0</ele><time>2026-04-26T15:58:45.296Z</time></trkpt><trkpt lat="43.2271671" lon="11.5640233"><ele>189.0</ele><time>2026-04-26T15:58:46.298Z</time></trkpt><trkpt lat="43.2272769" lon="11.5639207"><ele>189.0</ele><time>2026-04-26T15:58:47.295Z</time></trkpt><trkpt lat="43.2273807" lon="11.5638139"><ele>189.0</ele><time>2026-04-26T15:58:48.296Z</time></trkpt><trkpt lat="43.2274804" lon="11.5636987"><ele>188.5</ele><time>2026-04-26T15:58:49.297Z</time></trkpt><trkpt lat="43.2275771" lon="11.5635801"><ele>188.0</ele><time>2026-04-26T15:58:50.297Z</time></trkpt><trkpt lat="43.2276706" lon="11.5634553"><ele>187.5</ele><time>2026-04-26T15:58:51.297Z</time></trkpt><trkpt lat="43.227762" lon="11.5633296"><ele>187.0</ele><time>2026-04-26T15:58:52.297Z</time></trkpt><trkpt lat="43.2278488" lon="11.5632095"><ele>187.0</ele><time>2026-04-26T15:58:53.296Z</time></trkpt><trkpt lat="43.2279288" lon="11.563091"><ele>187.0</ele><time>2026-04-26T15:58:54.298Z</time></trkpt><trkpt lat="43.2280024" lon="11.5629719"><ele>187.0</ele><time>2026-04-26T15:58:55.298Z</time></trkpt><trkpt lat="43.2280766" lon="11.5628503"><ele>187.0</ele><time>2026-04-26T15:58:56.299Z</time></trkpt><trkpt lat="43.2281455" lon="11.5627192"><ele>188.5</ele><time>2026-04-26T15:58:57.296Z</time></trkpt><trkpt lat="43.2282175" lon="11.5625887"><ele>190.0</ele><time>2026-04-26T15:58:58.297Z</time></trkpt><trkpt lat="43.2282959" lon="11.562464"><ele>191.5</ele><time>2026-04-26T15:58:59.298Z</time></trkpt><trkpt lat="43.2283776" lon="11.5623394"><ele>193.0</ele><time>2026-04-26T15:59:00.298Z</time></trkpt><trkpt lat="43.2284592" lon="11.5622139"><ele>193.0</ele><time>2026-04-26T15:59:01.296Z</time></trkpt><trkpt lat="43.2285426" lon="11.5620919"><ele>193.0</ele><time>2026-04-26T15:59:02.299Z</time></trkpt><trkpt lat="43.2286337" lon="11.5619803"><ele>193.0</ele><time>2026-04-26T15:59:03.298Z</time></trkpt><trkpt lat="43.2287245" lon="11.5618705"><ele>193.0</ele><time>2026-04-26T15:59:04.298Z</time></trkpt><trkpt lat="43.2288162" lon="11.5617622"><ele>193.75</ele><time>2026-04-26T15:59:05.296Z</time></trkpt><trkpt lat="43.2289081" lon="11.5616543"><ele>194.5</ele><time>2026-04-26T15:59:06.296Z</time></trkpt><trkpt lat="43.2289971" lon="11.5615479"><ele>195.25</ele><time>2026-04-26T15:59:07.299Z</time></trkpt><trkpt lat="43.2290809" lon="11.5614493"><ele>196.0</ele><time>2026-04-26T15:59:08.299Z</time></trkpt><trkpt lat="43.2291587" lon="11.5613543"><ele>196.0</ele><time>2026-04-26T15:59:09.296Z</time></trkpt><trkpt lat="43.2292385" lon="11.5612644"><ele>196.0</ele><time>2026-04-26T15:59:10.298Z</time></trkpt><trkpt lat="43.2293169" lon="11.5611733"><ele>196.0</ele><time>2026-04-26T15:59:11.298Z</time></trkpt><trkpt lat="43.2293965" lon="11.5610879"><ele>196.0</ele><time>2026-04-26T15:59:12.297Z</time></trkpt><trkpt lat="43.2294777" lon="11.561011"><ele>196.0</ele><time>2026-04-26T15:59:13.297Z</time></trkpt><trkpt lat="43.2295662" lon="11.560947"><ele>195.0</ele><time>2026-04-26T15:59:14.298Z</time></trkpt><trkpt lat="43.2296574" lon="11.5608961"><ele>194.0</ele><time>2026-04-26T15:59:15.298Z</time></trkpt><trkpt lat="43.2297584" lon="11.5608722"><ele>193.0</ele><time>2026-04-26T15:59:16.299Z</time></trkpt><trkpt lat="43.229864" lon="11.5608585"><ele>192.0</ele><time>2026-04-26T15:59:17.296Z</time></trkpt><trkpt lat="43.2299715" lon="11.5608457"><ele>191.0</ele><time>2026-04-26T15:59:18.296Z</time></trkpt><trkpt lat="43.2300765" lon="11.5608354"><ele>191.0</ele><time>2026-04-26T15:59:19.297Z</time></trkpt><trkpt lat="43.2301787" lon="11.5608219"><ele>191.0</ele><time>2026-04-26T15:59:20.297Z</time></trkpt><trkpt lat="43.2302738" lon="11.5608047"><ele>191.0</ele><time>2026-04-26T15:59:21.296Z</time></trkpt><trkpt lat="43.2303626" lon="11.5607825"><ele>191.0</ele><time>2026-04-26T15:59:22.295Z</time></trkpt><trkpt lat="43.2304438" lon="11.5607583"><ele>191.0</ele><time>2026-04-26T15:59:23.295Z</time></trkpt><trkpt lat="43.230511" lon="11.5607311"><ele>191.0</ele><time>2026-04-26T15:59:24.297Z</time></trkpt><trkpt lat="43.230615" lon="11.5606799"><ele>192.8</ele><time>2026-04-26T15:59:26.297Z</time></trkpt><trkpt lat="43.2306807" lon="11.5606408"><ele>194.60000000000002</ele><time>2026-04-26T15:59:27.298Z</time></trkpt><trkpt lat="43.230765" lon="11.5605925"><ele>196.4</ele><time>2026-04-26T15:59:28.296Z</time></trkpt><trkpt lat="43.2308676" lon="11.5605302"><ele>198.2</ele><time>2026-04-26T15:59:29.299Z</time></trkpt><trkpt lat="43.2309818" lon="11.5604641"><ele>200.0</ele><time>2026-04-26T15:59:30.295Z</time></trkpt><trkpt lat="43.2310994" lon="11.5603934"><ele>199.5</ele><time>2026-04-26T15:59:31.296Z</time></trkpt><trkpt lat="43.2312132" lon="11.5603202"><ele>199.0</ele><time>2026-04-26T15:59:32.296Z</time></trkpt><trkpt lat="43.2313173" lon="11.5602407"><ele>198.5</ele><time>2026-04-26T15:59:33.296Z</time></trkpt><trkpt lat="43.2314136" lon="11.5601596"><ele>198.0</ele><time>2026-04-26T15:59:34.296Z</time></trkpt><trkpt lat="43.2315112" lon="11.5600811"><ele>198.0</ele><time>2026-04-26T15:59:35.296Z</time></trkpt><trkpt lat="43.2316079" lon="11.5599981"><ele>198.0</ele><time>2026-04-26T15:59:36.295Z</time></trkpt><trkpt lat="43.2317047" lon="11.5599161"><ele>198.0</ele><time>2026-04-26T15:59:37.297Z</time></trkpt><trkpt lat="43.2318015" lon="11.5598377"><ele>198.0</ele><time>2026-04-26T15:59:38.297Z</time></trkpt><trkpt lat="43.2318946" lon="11.5597613"><ele>198.0</ele><time>2026-04-26T15:59:39.298Z</time></trkpt><trkpt lat="43.2319835" lon="11.5596906"><ele>198.0</ele><time>2026-04-26T15:59:40.299Z</time></trkpt><trkpt lat="43.2320732" lon="11.5596331"><ele>198.0</ele><time>2026-04-26T15:59:41.298Z</time></trkpt><trkpt lat="43.2321647" lon="11.5595863"><ele>198.0</ele><time>2026-04-26T15:59:42.298Z</time></trkpt><trkpt lat="43.2322599" lon="11.5595501"><ele>198.0</ele><time>2026-04-26T15:59:43.297Z</time></trkpt><trkpt lat="43.232354" lon="11.5595272"><ele>198.0</ele><time>2026-04-26T15:59:44.298Z</time></trkpt><trkpt lat="43.2324502" lon="11.5595168"><ele>196.8</ele><time>2026-04-26T15:59:45.299Z</time></trkpt><trkpt lat="43.2325485" lon="11.5595205"><ele>195.60000000000002</ele><time>2026-04-26T15:59:46.297Z</time></trkpt><trkpt lat="43.2326466" lon="11.5595335"><ele>194.39999999999998</ele><time>2026-04-26T15:59:47.299Z</time></trkpt><trkpt lat="43.2327402" lon="11.559552"><ele>193.2</ele><time>2026-04-26T15:59:48.297Z</time></trkpt><trkpt lat="43.2328285" lon="11.5595821"><ele>192.0</ele><time>2026-04-26T15:59:49.296Z</time></trkpt><trkpt lat="43.2329119" lon="11.5596129"><ele>193.33333333333334</ele><time>2026-04-26T15:59:50.297Z</time></trkpt><trkpt lat="43.2329892" lon="11.5596545"><ele>194.66666666666669</ele><time>2026-04-26T15:59:51.294Z</time></trkpt><trkpt lat="43.2330598" lon="11.5597219"><ele>196.0</ele><time>2026-04-26T15:59:52.296Z</time></trkpt><trkpt lat="43.2331232" lon="11.5597999"><ele>197.33333333333334</ele><time>2026-04-26T15:59:53.298Z</time></trkpt><trkpt lat="43.2331771" lon="11.559884"><ele>198.66666666666669</ele><time>2026-04-26T15:59:54.299Z</time></trkpt><trkpt lat="43.2332342" lon="11.5599635"><ele>200.0</ele><time>2026-04-26T15:59:55.296Z</time></trkpt><trkpt lat="43.2332927" lon="11.5600455"><ele>200.00000000000003</ele><time>2026-04-26T15:59:56.296Z</time></trkpt><trkpt lat="43.2333479" lon="11.5601287"><ele>200.0</ele><time>2026-04-26T15:59:57.296Z</time></trkpt><trkpt lat="43.2334055" lon="11.5602084"><ele>200.0</ele><time>2026-04-26T15:59:58.296Z</time></trkpt><trkpt lat="43.2334654" lon="11.5602786"><ele>200.0</ele><time>2026-04-26T15:59:59.297Z</time></trkpt><trkpt lat="43.2335227" lon="11.5603447"><ele>200.00000000000003</ele><time>2026-04-26T16:00:00.297Z</time></trkpt><trkpt lat="43.2335784" lon="11.5604057"><ele>200.0</ele><time>2026-04-26T16:00:01.297Z</time></trkpt><trkpt lat="43.233635" lon="11.5604592"><ele>205.0</ele><time>2026-04-26T16:00:02.296Z</time></trkpt><trkpt lat="43.2337269" lon="11.5605408"><ele>205.0</ele><time>2026-04-26T16:00:04.296Z</time></trkpt><trkpt lat="43.233797" lon="11.5606154"><ele>205.0</ele><time>2026-04-26T16:00:06.298Z</time></trkpt><trkpt lat="43.2338585" lon="11.5606682"><ele>205.0</ele><time>2026-04-26T16:00:09.296Z</time></trkpt></trkseg></trk></gpx>